<?xml version="1.0" encoding="UTF-8"?>
<gpx version="1.1" creator="https://www.youtrack.es" xsi:schemaLocation="http://www.topografix.com/GPX/1/1 http://www.topografix.com/GPX/1/1/gpx.xsd http://www.garmin.com/xmlschemas/GpxExtensions/v3 http://www.garmin.com/xmlschemas/GpxExtensionsv3.xsd http://www.garmin.com/xmlschemas/TrackPointExtension/v1 http://www.garmin.com/xmlschemas/TrackPointExtensionv1.xsd" xmlns:gpxtpx="http://www.garmin.com/xmlschemas/TrackPointExtension/v1" xmlns:gpxx="http://www.garmin.com/xmlschemas/GpxExtensions/v3" xmlns:xsi="http://www.w3.org/2001/XMLSchema-instance">
  <metadata>
    <link href="https://www.youtrack.es">
      <text>YouTrack.es</text>
    </link>
    <time>2026-05-08T23:28:09Z</time>
  </metadata>
  <trk>
    <src>https://www.youtrack.es</src>
    <link href="https://www.youtrack.es/ruta/24288-lima-ticlio">
      <text>YouTrack.es</text>
    </link>
    <trkseg>
      <trkpt lat="-12.0645077526569366455078125" lon="-76.9394423626363277435302734375">
        <ele>259.20001220703125</ele>
        <time>2021-07-25T07:02:07.000Z</time>
      </trkpt>
      <trkpt lat="-12.06445335410535335540771484375" lon="-76.9394748844206333160400390625">
        <ele>259</ele>
        <time>2021-07-25T07:02:21.000Z</time>
      </trkpt>
      <trkpt lat="-12.06442234106361865997314453125" lon="-76.9394825957715511322021484375">
        <ele>259</ele>
        <time>2021-07-25T07:02:23.000Z</time>
      </trkpt>
      <trkpt lat="-12.06442116759717464447021484375" lon="-76.9394768960773944854736328125">
        <ele>259</ele>
        <time>2021-07-25T07:02:24.000Z</time>
      </trkpt>
      <trkpt lat="-12.0643976144492626190185546875" lon="-76.93944789469242095947265625">
        <ele>259.20001220703125</ele>
        <time>2021-07-25T07:03:12.000Z</time>
      </trkpt>
      <trkpt lat="-12.064366601407527923583984375" lon="-76.93942115642130374908447265625">
        <ele>259.399993896484375</ele>
        <time>2021-07-25T07:03:14.000Z</time>
      </trkpt>
      <trkpt lat="-12.06424045376479625701904296875" lon="-76.93927355110645294189453125">
        <ele>259.600006103515625</ele>
        <time>2021-07-25T07:03:20.000Z</time>
      </trkpt>
      <trkpt lat="-12.0640678703784942626953125" lon="-76.939108930528163909912109375">
        <ele>259.600006103515625</ele>
        <time>2021-07-25T07:03:26.000Z</time>
      </trkpt>
      <trkpt lat="-12.064040713012218475341796875" lon="-76.93908445537090301513671875">
        <ele>259.79998779296875</ele>
        <time>2021-07-25T07:03:27.000Z</time>
      </trkpt>
      <trkpt lat="-12.064007185399532318115234375" lon="-76.939045228064060211181640625">
        <ele>260</ele>
        <time>2021-07-25T07:03:31.000Z</time>
      </trkpt>
      <trkpt lat="-12.063967287540435791015625" lon="-76.939010359346866607666015625">
        <ele>260</ele>
        <time>2021-07-25T07:06:06.000Z</time>
      </trkpt>
      <trkpt lat="-12.063950188457965850830078125" lon="-76.93899686448276042938232421875">
        <ele>260.20001220703125</ele>
        <time>2021-07-25T07:06:07.000Z</time>
      </trkpt>
      <trkpt lat="-12.063930071890354156494140625" lon="-76.93898328579962253570556640625">
        <ele>260.20001220703125</ele>
        <time>2021-07-25T07:06:08.000Z</time>
      </trkpt>
      <trkpt lat="-12.06388371996581554412841796875" lon="-76.93894674070179462432861328125">
        <ele>260.399993896484375</ele>
        <time>2021-07-25T07:06:10.000Z</time>
      </trkpt>
      <trkpt lat="-12.06382370553910732269287109375" lon="-76.9389002211391925811767578125">
        <ele>260.20001220703125</ele>
        <time>2021-07-25T07:06:12.000Z</time>
      </trkpt>
      <trkpt lat="-12.063790597021579742431640625" lon="-76.93887524306774139404296875">
        <ele>260.20001220703125</ele>
        <time>2021-07-25T07:06:13.000Z</time>
      </trkpt>
      <trkpt lat="-12.0637575723230838775634765625" lon="-76.93884967826306819915771484375">
        <ele>260.399993896484375</ele>
        <time>2021-07-25T07:06:14.000Z</time>
      </trkpt>
      <trkpt lat="-12.063694037497043609619140625" lon="-76.93879469297826290130615234375">
        <ele>260.600006103515625</ele>
        <time>2021-07-25T07:06:16.000Z</time>
      </trkpt>
      <trkpt lat="-12.06362999975681304931640625" lon="-76.93874440155923366546630859375">
        <ele>260.79998779296875</ele>
        <time>2021-07-25T07:06:18.000Z</time>
      </trkpt>
      <trkpt lat="-12.063565962016582489013671875" lon="-76.9386916793882846832275390625">
        <ele>260.79998779296875</ele>
        <time>2021-07-25T07:06:20.000Z</time>
      </trkpt>
      <trkpt lat="-12.06347149796783924102783203125" lon="-76.93860895000398159027099609375">
        <ele>261</ele>
        <time>2021-07-25T07:06:23.000Z</time>
      </trkpt>
      <trkpt lat="-12.06340611912310123443603515625" lon="-76.93855631165206432342529296875">
        <ele>261</ele>
        <time>2021-07-25T07:06:25.000Z</time>
      </trkpt>
      <trkpt lat="-12.06333336420357227325439453125" lon="-76.93850970827043056488037109375">
        <ele>261.20001220703125</ele>
        <time>2021-07-25T07:06:27.000Z</time>
      </trkpt>
      <trkpt lat="-12.06322188489139080047607421875" lon="-76.9384365342557430267333984375">
        <ele>261.399993896484375</ele>
        <time>2021-07-25T07:06:30.000Z</time>
      </trkpt>
      <trkpt lat="-12.06309783272445201873779296875" lon="-76.9383755140006542205810546875">
        <ele>261.600006103515625</ele>
        <time>2021-07-25T07:06:33.000Z</time>
      </trkpt>
      <trkpt lat="-12.06278979778289794921875" lon="-76.938283480703830718994140625">
        <ele>262</ele>
        <time>2021-07-25T07:06:40.000Z</time>
      </trkpt>
      <trkpt lat="-12.0627450384199619293212890625" lon="-76.9382764399051666259765625">
        <ele>262</ele>
        <time>2021-07-25T07:06:41.000Z</time>
      </trkpt>
      <trkpt lat="-12.06269969232380390167236328125" lon="-76.93827015347778797149658203125">
        <ele>262.20001220703125</ele>
        <time>2021-07-25T07:06:42.000Z</time>
      </trkpt>
      <trkpt lat="-12.062608413398265838623046875" lon="-76.93826026283204555511474609375">
        <ele>262.20001220703125</ele>
        <time>2021-07-25T07:06:44.000Z</time>
      </trkpt>
      <trkpt lat="-12.062562145292758941650390625" lon="-76.93825489841401576995849609375">
        <ele>262.399993896484375</ele>
        <time>2021-07-25T07:06:45.000Z</time>
      </trkpt>
      <trkpt lat="-12.06242208369076251983642578125" lon="-76.9382481090724468231201171875">
        <ele>262.20001220703125</ele>
        <time>2021-07-25T07:06:48.000Z</time>
      </trkpt>
      <trkpt lat="-12.06204875372350215911865234375" lon="-76.93822673521935939788818359375">
        <ele>263.20001220703125</ele>
        <time>2021-07-25T07:06:56.000Z</time>
      </trkpt>
      <trkpt lat="-12.06200332380831241607666015625" lon="-76.93822438828647136688232421875">
        <ele>263.399993896484375</ele>
        <time>2021-07-25T07:06:57.000Z</time>
      </trkpt>
      <trkpt lat="-12.06171917729079723358154296875" lon="-76.938204355537891387939453125">
        <ele>263.79998779296875</ele>
        <time>2021-07-25T07:07:03.000Z</time>
      </trkpt>
      <trkpt lat="-12.06157433800399303436279296875" lon="-76.93819639272987842559814453125">
        <ele>264.20001220703125</ele>
        <time>2021-07-25T07:07:06.000Z</time>
      </trkpt>
      <trkpt lat="-12.06147811375558376312255859375" lon="-76.9381921179592609405517578125">
        <ele>264.399993896484375</ele>
        <time>2021-07-25T07:07:08.000Z</time>
      </trkpt>
      <trkpt lat="-12.0610495470464229583740234375" lon="-76.93817141465842723846435546875">
        <ele>265.399993896484375</ele>
        <time>2021-07-25T07:07:17.000Z</time>
      </trkpt>
      <trkpt lat="-12.06081074662506580352783203125" lon="-76.93815733306109905242919921875">
        <ele>265.79998779296875</ele>
        <time>2021-07-25T07:07:22.000Z</time>
      </trkpt>
      <trkpt lat="-12.06071577966213226318359375" lon="-76.9381552375853061676025390625">
        <ele>266</ele>
        <time>2021-07-25T07:07:24.000Z</time>
      </trkpt>
      <trkpt lat="-12.06062014214694499969482421875" lon="-76.93815280683338642120361328125">
        <ele>266.399993896484375</ele>
        <time>2021-07-25T07:07:26.000Z</time>
      </trkpt>
      <trkpt lat="-12.0603374205529689788818359375" lon="-76.93813453428447246551513671875">
        <ele>266.79998779296875</ele>
        <time>2021-07-25T07:07:32.000Z</time>
      </trkpt>
      <trkpt lat="-12.0601003803312778472900390625" lon="-76.93812497891485691070556640625">
        <ele>267.399993896484375</ele>
        <time>2021-07-25T07:07:37.000Z</time>
      </trkpt>
      <trkpt lat="-12.05991455353796482086181640625" lon="-76.9381173513829708099365234375">
        <ele>268</ele>
        <time>2021-07-25T07:07:41.000Z</time>
      </trkpt>
      <trkpt lat="-12.0596353523433208465576171875" lon="-76.9380975700914859771728515625">
        <ele>268.600006103515625</ele>
        <time>2021-07-25T07:07:47.000Z</time>
      </trkpt>
      <trkpt lat="-12.05949537456035614013671875" lon="-76.93809203803539276123046875">
        <ele>268.79998779296875</ele>
        <time>2021-07-25T07:07:50.000Z</time>
      </trkpt>
      <trkpt lat="-12.05917241983115673065185546875" lon="-76.93807183764874935150146484375">
        <ele>269.79998779296875</ele>
        <time>2021-07-25T07:07:57.000Z</time>
      </trkpt>
      <trkpt lat="-12.05903763882815837860107421875" lon="-76.9380677305161952972412109375">
        <ele>269.79998779296875</ele>
        <time>2021-07-25T07:08:00.000Z</time>
      </trkpt>
      <trkpt lat="-12.058943845331668853759765625" lon="-76.9380724243819713592529296875">
        <ele>270</ele>
        <time>2021-07-25T07:08:02.000Z</time>
      </trkpt>
      <trkpt lat="-12.0587036199867725372314453125" lon="-76.93804501555860042572021484375">
        <ele>270.600006103515625</ele>
        <time>2021-07-25T07:08:07.000Z</time>
      </trkpt>
      <trkpt lat="-12.058609239757061004638671875" lon="-76.93803034722805023193359375">
        <ele>270.79998779296875</ele>
        <time>2021-07-25T07:08:09.000Z</time>
      </trkpt>
      <trkpt lat="-12.0582845248281955718994140625" lon="-76.93800595588982105255126953125">
        <ele>271.600006103515625</ele>
        <time>2021-07-25T07:08:16.000Z</time>
      </trkpt>
      <trkpt lat="-12.05819324590265750885009765625" lon="-76.93800486624240875244140625">
        <ele>272</ele>
        <time>2021-07-25T07:08:18.000Z</time>
      </trkpt>
      <trkpt lat="-12.05801454372704029083251953125" lon="-76.93798609077930450439453125">
        <ele>272</ele>
        <time>2021-07-25T07:08:22.000Z</time>
      </trkpt>
      <trkpt lat="-12.057678513228893280029296875" lon="-76.93796371109783649444580078125">
        <ele>272.79998779296875</ele>
        <time>2021-07-25T07:08:29.000Z</time>
      </trkpt>
      <trkpt lat="-12.05763082019984722137451171875" lon="-76.9379597716033458709716796875">
        <ele>273.20001220703125</ele>
        <time>2021-07-25T07:08:30.000Z</time>
      </trkpt>
      <trkpt lat="-12.05758304335176944732666015625" lon="-76.937955915927886962890625">
        <ele>273.20001220703125</ele>
        <time>2021-07-25T07:08:31.000Z</time>
      </trkpt>
      <trkpt lat="-12.0571412332355976104736328125" lon="-76.9379393197596073150634765625">
        <ele>274.20001220703125</ele>
        <time>2021-07-25T07:08:40.000Z</time>
      </trkpt>
      <trkpt lat="-12.0570926181972026824951171875" lon="-76.9379373081028461456298828125">
        <ele>274.20001220703125</ele>
        <time>2021-07-25T07:08:41.000Z</time>
      </trkpt>
      <trkpt lat="-12.0568492077291011810302734375" lon="-76.93792146630585193634033203125">
        <ele>274.600006103515625</ele>
        <time>2021-07-25T07:08:46.000Z</time>
      </trkpt>
      <trkpt lat="-12.05659858882427215576171875" lon="-76.93790973164141178131103515625">
        <ele>275.399993896484375</ele>
        <time>2021-07-25T07:08:51.000Z</time>
      </trkpt>
      <trkpt lat="-12.05635794438421726226806640625" lon="-76.93789699114859104156494140625">
        <ele>275.79998779296875</ele>
        <time>2021-07-25T07:08:56.000Z</time>
      </trkpt>
      <trkpt lat="-12.05615468323230743408203125" lon="-76.93788844160735607147216796875">
        <ele>276.399993896484375</ele>
        <time>2021-07-25T07:09:00.000Z</time>
      </trkpt>
      <trkpt lat="-12.05590884201228618621826171875" lon="-76.9378793053328990936279296875">
        <ele>276.79998779296875</ele>
        <time>2021-07-25T07:09:05.000Z</time>
      </trkpt>
      <trkpt lat="-12.05556132830679416656494140625" lon="-76.93786413408815860748291015625">
        <ele>277.399993896484375</ele>
        <time>2021-07-25T07:09:12.000Z</time>
      </trkpt>
      <trkpt lat="-12.05546133220195770263671875" lon="-76.9378618709743022918701171875">
        <ele>277.600006103515625</ele>
        <time>2021-07-25T07:09:14.000Z</time>
      </trkpt>
      <trkpt lat="-12.05506394617259502410888671875" lon="-76.93783186376094818115234375">
        <ele>278.600006103515625</ele>
        <time>2021-07-25T07:09:22.000Z</time>
      </trkpt>
      <trkpt lat="-12.05501901917159557342529296875" lon="-76.937830857932567596435546875">
        <ele>278.79998779296875</ele>
        <time>2021-07-25T07:09:23.000Z</time>
      </trkpt>
      <trkpt lat="-12.05471592955291271209716796875" lon="-76.9378172792494297027587890625">
        <ele>279.399993896484375</ele>
        <time>2021-07-25T07:09:29.000Z</time>
      </trkpt>
      <trkpt lat="-12.054667063057422637939453125" lon="-76.93781635724008083343505859375">
        <ele>279.600006103515625</ele>
        <time>2021-07-25T07:09:30.000Z</time>
      </trkpt>
      <trkpt lat="-12.0543627999722957611083984375" lon="-76.93780881352722644805908203125">
        <ele>279.79998779296875</ele>
        <time>2021-07-25T07:09:36.000Z</time>
      </trkpt>
      <trkpt lat="-12.05395753495395183563232421875" lon="-76.9377793930470943450927734375">
        <ele>280.79998779296875</ele>
        <time>2021-07-25T07:09:44.000Z</time>
      </trkpt>
      <trkpt lat="-12.05345445312559604644775390625" lon="-76.9377495534718036651611328125">
        <ele>282</ele>
        <time>2021-07-25T07:09:54.000Z</time>
      </trkpt>
      <trkpt lat="-12.053055725991725921630859375" lon="-76.9377560913562774658203125">
        <ele>283</ele>
        <time>2021-07-25T07:10:02.000Z</time>
      </trkpt>
      <trkpt lat="-12.0530037581920623779296875" lon="-76.937758438289165496826171875">
        <ele>283</ele>
        <time>2021-07-25T07:10:03.000Z</time>
      </trkpt>
      <trkpt lat="-12.05258927308022975921630859375" lon="-76.93779188208281993865966796875">
        <ele>283.79998779296875</ele>
        <time>2021-07-25T07:10:11.000Z</time>
      </trkpt>
      <trkpt lat="-12.0524413324892520904541015625" lon="-76.9378018565475940704345703125">
        <ele>284</ele>
        <time>2021-07-25T07:10:14.000Z</time>
      </trkpt>
      <trkpt lat="-12.05225081183016300201416015625" lon="-76.93781568668782711029052734375">
        <ele>284.399993896484375</ele>
        <time>2021-07-25T07:10:18.000Z</time>
      </trkpt>
      <trkpt lat="-12.0522012747824192047119140625" lon="-76.93781753070652484893798828125">
        <ele>284.600006103515625</ele>
        <time>2021-07-25T07:10:19.000Z</time>
      </trkpt>
      <trkpt lat="-12.05194168724119663238525390625" lon="-76.9378231465816497802734375">
        <ele>285</ele>
        <time>2021-07-25T07:10:24.000Z</time>
      </trkpt>
      <trkpt lat="-12.0517285354435443878173828125" lon="-76.93781233392655849456787109375">
        <ele>285.399993896484375</ele>
        <time>2021-07-25T07:10:28.000Z</time>
      </trkpt>
      <trkpt lat="-12.05135076306760311126708984375" lon="-76.937766484916210174560546875">
        <ele>286.20001220703125</ele>
        <time>2021-07-25T07:10:35.000Z</time>
      </trkpt>
      <trkpt lat="-12.0512410439550876617431640625" lon="-76.93775198422372341156005859375">
        <ele>286.399993896484375</ele>
        <time>2021-07-25T07:10:37.000Z</time>
      </trkpt>
      <trkpt lat="-12.0507466793060302734375" lon="-76.93765726871788501739501953125">
        <ele>287.20001220703125</ele>
        <time>2021-07-25T07:10:46.000Z</time>
      </trkpt>
      <trkpt lat="-12.050637044012546539306640625" lon="-76.93763472139835357666015625">
        <ele>287.600006103515625</ele>
        <time>2021-07-25T07:10:48.000Z</time>
      </trkpt>
      <trkpt lat="-12.0503207109868526458740234375" lon="-76.937549225986003875732421875">
        <ele>288.399993896484375</ele>
        <time>2021-07-25T07:10:54.000Z</time>
      </trkpt>
      <trkpt lat="-12.05026723444461822509765625" lon="-76.93753103725612163543701171875">
        <ele>288.399993896484375</ele>
        <time>2021-07-25T07:10:55.000Z</time>
      </trkpt>
      <trkpt lat="-12.04989499412477016448974609375" lon="-76.9374015368521213531494140625">
        <ele>289.20001220703125</ele>
        <time>2021-07-25T07:11:02.000Z</time>
      </trkpt>
      <trkpt lat="-12.049843110144138336181640625" lon="-76.93738133646547794342041015625">
        <ele>289.399993896484375</ele>
        <time>2021-07-25T07:11:03.000Z</time>
      </trkpt>
      <trkpt lat="-12.04943633638322353363037109375" lon="-76.93721738643944263458251953125">
        <ele>290.600006103515625</ele>
        <time>2021-07-25T07:11:11.000Z</time>
      </trkpt>
      <trkpt lat="-12.049386799335479736328125" lon="-76.937198527157306671142578125">
        <ele>290.79998779296875</ele>
        <time>2021-07-25T07:11:12.000Z</time>
      </trkpt>
      <trkpt lat="-12.0490345917642116546630859375" lon="-76.93705075420439243316650390625">
        <ele>291.600006103515625</ele>
        <time>2021-07-25T07:11:19.000Z</time>
      </trkpt>
      <trkpt lat="-12.048985473811626434326171875" lon="-76.9370290450751781463623046875">
        <ele>292</ele>
        <time>2021-07-25T07:11:20.000Z</time>
      </trkpt>
      <trkpt lat="-12.04868565313518047332763671875" lon="-76.93689501844346523284912109375">
        <ele>292.79998779296875</ele>
        <time>2021-07-25T07:11:26.000Z</time>
      </trkpt>
      <trkpt lat="-12.0485833100974559783935546875" lon="-76.9368479959666728973388671875">
        <ele>293</ele>
        <time>2021-07-25T07:11:28.000Z</time>
      </trkpt>
      <trkpt lat="-12.04812012612819671630859375" lon="-76.93661414086818695068359375">
        <ele>293.600006103515625</ele>
        <time>2021-07-25T07:11:37.000Z</time>
      </trkpt>
      <trkpt lat="-12.04806723631918430328369140625" lon="-76.9365858100354671478271484375">
        <ele>293.79998779296875</ele>
        <time>2021-07-25T07:11:38.000Z</time>
      </trkpt>
      <trkpt lat="-12.047765739262104034423828125" lon="-76.9364178366959095001220703125">
        <ele>294.399993896484375</ele>
        <time>2021-07-25T07:11:44.000Z</time>
      </trkpt>
      <trkpt lat="-12.0475171320140361785888671875" lon="-76.93627023138105869293212890625">
        <ele>294.79998779296875</ele>
        <time>2021-07-25T07:11:49.000Z</time>
      </trkpt>
      <trkpt lat="-12.04732275567948818206787109375" lon="-76.93615774624049663543701171875">
        <ele>295.20001220703125</ele>
        <time>2021-07-25T07:11:53.000Z</time>
      </trkpt>
      <trkpt lat="-12.04702578485012054443359375" lon="-76.93598960526287555694580078125">
        <ele>295.79998779296875</ele>
        <time>2021-07-25T07:11:59.000Z</time>
      </trkpt>
      <trkpt lat="-12.0468784309923648834228515625" lon="-76.93590201437473297119140625">
        <ele>296.20001220703125</ele>
        <time>2021-07-25T07:12:02.000Z</time>
      </trkpt>
      <trkpt lat="-12.0466383732855319976806640625" lon="-76.93575440905988216400146484375">
        <ele>296.79998779296875</ele>
        <time>2021-07-25T07:12:08.000Z</time>
      </trkpt>
      <trkpt lat="-12.0466061867773532867431640625" lon="-76.9357362203299999237060546875">
        <ele>296.79998779296875</ele>
        <time>2021-07-25T07:12:09.000Z</time>
      </trkpt>
      <trkpt lat="-12.0465676300227642059326171875" lon="-76.93571425974369049072265625">
        <ele>297.20001220703125</ele>
        <time>2021-07-25T07:12:12.000Z</time>
      </trkpt>
      <trkpt lat="-12.0465434901416301727294921875" lon="-76.93570277653634548187255859375">
        <ele>298.20001220703125</ele>
        <time>2021-07-25T07:17:23.000Z</time>
      </trkpt>
      <trkpt lat="-12.04652957618236541748046875" lon="-76.93569816648960113525390625">
        <ele>298.399993896484375</ele>
        <time>2021-07-25T07:17:24.000Z</time>
      </trkpt>
      <trkpt lat="-12.0464965514838695526123046875" lon="-76.935685761272907257080078125">
        <ele>298.399993896484375</ele>
        <time>2021-07-25T07:17:26.000Z</time>
      </trkpt>
      <trkpt lat="-12.046450786292552947998046875" lon="-76.93566690199077129364013671875">
        <ele>298.399993896484375</ele>
        <time>2021-07-25T07:17:28.000Z</time>
      </trkpt>
      <trkpt lat="-12.04639622010290622711181640625" lon="-76.93563521839678287506103515625">
        <ele>298.399993896484375</ele>
        <time>2021-07-25T07:17:30.000Z</time>
      </trkpt>
      <trkpt lat="-12.046364955604076385498046875" lon="-76.9356178678572177886962890625">
        <ele>298.600006103515625</ele>
        <time>2021-07-25T07:17:31.000Z</time>
      </trkpt>
      <trkpt lat="-12.04629580490291118621826171875" lon="-76.93559045903384685516357421875">
        <ele>298.600006103515625</ele>
        <time>2021-07-25T07:17:33.000Z</time>
      </trkpt>
      <trkpt lat="-12.04622271470725536346435546875" lon="-76.93555223755538463592529296875">
        <ele>299</ele>
        <time>2021-07-25T07:17:35.000Z</time>
      </trkpt>
      <trkpt lat="-12.0461441762745380401611328125" lon="-76.935511417686939239501953125">
        <ele>299</ele>
        <time>2021-07-25T07:17:37.000Z</time>
      </trkpt>
      <trkpt lat="-12.0460207946598529815673828125" lon="-76.935450397431850433349609375">
        <ele>299.399993896484375</ele>
        <time>2021-07-25T07:17:40.000Z</time>
      </trkpt>
      <trkpt lat="-12.04585609026253223419189453125" lon="-76.935351826250553131103515625">
        <ele>299.600006103515625</ele>
        <time>2021-07-25T07:17:44.000Z</time>
      </trkpt>
      <trkpt lat="-12.04581434838473796844482421875" lon="-76.935327686369419097900390625">
        <ele>299.79998779296875</ele>
        <time>2021-07-25T07:17:45.000Z</time>
      </trkpt>
      <trkpt lat="-12.0456489734351634979248046875" lon="-76.93522500805556774139404296875">
        <ele>300.20001220703125</ele>
        <time>2021-07-25T07:17:49.000Z</time>
      </trkpt>
      <trkpt lat="-12.0456089079380035400390625" lon="-76.93519801832735538482666015625">
        <ele>300.399993896484375</ele>
        <time>2021-07-25T07:17:50.000Z</time>
      </trkpt>
      <trkpt lat="-12.045413441956043243408203125" lon="-76.9350489042699337005615234375">
        <ele>300.79998779296875</ele>
        <time>2021-07-25T07:17:55.000Z</time>
      </trkpt>
      <trkpt lat="-12.04515636898577213287353515625" lon="-76.934819407761096954345703125">
        <ele>301.399993896484375</ele>
        <time>2021-07-25T07:18:02.000Z</time>
      </trkpt>
      <trkpt lat="-12.04508579336106777191162109375" lon="-76.93475377745926380157470703125">
        <ele>301.600006103515625</ele>
        <time>2021-07-25T07:18:04.000Z</time>
      </trkpt>
      <trkpt lat="-12.04478119499981403350830078125" lon="-76.93442805670201778411865234375">
        <ele>302.399993896484375</ele>
        <time>2021-07-25T07:18:13.000Z</time>
      </trkpt>
      <trkpt lat="-12.044561840593814849853515625" lon="-76.93409646861255168914794921875">
        <ele>303.20001220703125</ele>
        <time>2021-07-25T07:18:21.000Z</time>
      </trkpt>
      <trkpt lat="-12.0444580726325511932373046875" lon="-76.9338637031614780426025390625">
        <ele>303.600006103515625</ele>
        <time>2021-07-25T07:18:26.000Z</time>
      </trkpt>
      <trkpt lat="-12.04443879425525665283203125" lon="-76.9338177703320980072021484375">
        <ele>303.600006103515625</ele>
        <time>2021-07-25T07:18:27.000Z</time>
      </trkpt>
      <trkpt lat="-12.04433980397880077362060546875" lon="-76.93358835764229297637939453125">
        <ele>304.399993896484375</ele>
        <time>2021-07-25T07:18:32.000Z</time>
      </trkpt>
      <trkpt lat="-12.04429135657846927642822265625" lon="-76.93344318307936191558837890625">
        <ele>304.600006103515625</ele>
        <time>2021-07-25T07:18:35.000Z</time>
      </trkpt>
      <trkpt lat="-12.04427945427596569061279296875" lon="-76.9333986751735210418701171875">
        <ele>304.600006103515625</ele>
        <time>2021-07-25T07:18:36.000Z</time>
      </trkpt>
      <trkpt lat="-12.0442193560302257537841796875" lon="-76.93322072736918926239013671875">
        <ele>305.20001220703125</ele>
        <time>2021-07-25T07:18:40.000Z</time>
      </trkpt>
      <trkpt lat="-12.04418859444558620452880859375" lon="-76.9331319630146026611328125">
        <ele>305.79998779296875</ele>
        <time>2021-07-25T07:18:42.000Z</time>
      </trkpt>
      <trkpt lat="-12.04409656114876270294189453125" lon="-76.932760141789913177490234375">
        <ele>307</ele>
        <time>2021-07-25T07:18:50.000Z</time>
      </trkpt>
      <trkpt lat="-12.04405280761420726776123046875" lon="-76.93255838938057422637939453125">
        <ele>307.600006103515625</ele>
        <time>2021-07-25T07:18:54.000Z</time>
      </trkpt>
      <trkpt lat="-12.04403780400753021240234375" lon="-76.93250642158091068267822265625">
        <ele>307.79998779296875</ele>
        <time>2021-07-25T07:18:55.000Z</time>
      </trkpt>
      <trkpt lat="-12.043965049088001251220703125" lon="-76.9322325848042964935302734375">
        <ele>308.79998779296875</ele>
        <time>2021-07-25T07:19:01.000Z</time>
      </trkpt>
      <trkpt lat="-12.04390360973775386810302734375" lon="-76.9319851510226726531982421875">
        <ele>309.600006103515625</ele>
        <time>2021-07-25T07:19:06.000Z</time>
      </trkpt>
      <trkpt lat="-12.0438773743808269500732421875" lon="-76.93188632838428020477294921875">
        <ele>310</ele>
        <time>2021-07-25T07:19:08.000Z</time>
      </trkpt>
      <trkpt lat="-12.04386455006897449493408203125" lon="-76.93183771334588527679443359375">
        <ele>310</ele>
        <time>2021-07-25T07:19:09.000Z</time>
      </trkpt>
      <trkpt lat="-12.04376178793609142303466796875" lon="-76.93143135868012905120849609375">
        <ele>310.79998779296875</ele>
        <time>2021-07-25T07:19:17.000Z</time>
      </trkpt>
      <trkpt lat="-12.0437013544142246246337890625" lon="-76.9311712682247161865234375">
        <ele>311</ele>
        <time>2021-07-25T07:19:22.000Z</time>
      </trkpt>
      <trkpt lat="-12.043649218976497650146484375" lon="-76.9309481419622898101806640625">
        <ele>311</ele>
        <time>2021-07-25T07:19:26.000Z</time>
      </trkpt>
      <trkpt lat="-12.04356447793543338775634765625" lon="-76.93061663769185543060302734375">
        <ele>311.399993896484375</ele>
        <time>2021-07-25T07:19:32.000Z</time>
      </trkpt>
      <trkpt lat="-12.04347311519086360931396484375" lon="-76.93028605543076992034912109375">
        <ele>311.600006103515625</ele>
        <time>2021-07-25T07:19:38.000Z</time>
      </trkpt>
      <trkpt lat="-12.043395079672336578369140625" lon="-76.92999386228621006011962890625">
        <ele>311.79998779296875</ele>
        <time>2021-07-25T07:19:43.000Z</time>
      </trkpt>
      <trkpt lat="-12.04329307191073894500732421875" lon="-76.92963595502078533172607421875">
        <ele>311.79998779296875</ele>
        <time>2021-07-25T07:19:49.000Z</time>
      </trkpt>
      <trkpt lat="-12.043222077190876007080078125" lon="-76.9293502159416675567626953125">
        <ele>312</ele>
        <time>2021-07-25T07:19:54.000Z</time>
      </trkpt>
      <trkpt lat="-12.0431947521865367889404296875" lon="-76.9292285107076168060302734375">
        <ele>312</ele>
        <time>2021-07-25T07:19:56.000Z</time>
      </trkpt>
      <trkpt lat="-12.04317949712276458740234375" lon="-76.92916740663349628448486328125">
        <ele>312</ele>
        <time>2021-07-25T07:19:57.000Z</time>
      </trkpt>
      <trkpt lat="-12.04304815270006656646728515625" lon="-76.92862945608794689178466796875">
        <ele>312.399993896484375</ele>
        <time>2021-07-25T07:20:06.000Z</time>
      </trkpt>
      <trkpt lat="-12.043033652007579803466796875" lon="-76.9285700283944606781005859375">
        <ele>312.399993896484375</ele>
        <time>2021-07-25T07:20:07.000Z</time>
      </trkpt>
      <trkpt lat="-12.042933069169521331787109375" lon="-76.92815872840583324432373046875">
        <ele>313</ele>
        <time>2021-07-25T07:20:14.000Z</time>
      </trkpt>
      <trkpt lat="-12.04290566034615039825439453125" lon="-76.92804322578012943267822265625">
        <ele>313.399993896484375</ele>
        <time>2021-07-25T07:20:16.000Z</time>
      </trkpt>
      <trkpt lat="-12.04281362704932689666748046875" lon="-76.927643157541751861572265625">
        <ele>313.79998779296875</ele>
        <time>2021-07-25T07:20:23.000Z</time>
      </trkpt>
      <trkpt lat="-12.04278596676886081695556640625" lon="-76.92753427661955356597900390625">
        <ele>314.20001220703125</ele>
        <time>2021-07-25T07:20:25.000Z</time>
      </trkpt>
      <trkpt lat="-12.04269007779657840728759765625" lon="-76.9271340407431125640869140625">
        <ele>315</ele>
        <time>2021-07-25T07:20:32.000Z</time>
      </trkpt>
      <trkpt lat="-12.0426428876817226409912109375" lon="-76.92697637714445590972900390625">
        <ele>315.20001220703125</ele>
        <time>2021-07-25T07:20:35.000Z</time>
      </trkpt>
      <trkpt lat="-12.042574994266033172607421875" lon="-76.92670949734747409820556640625">
        <ele>315.600006103515625</ele>
        <time>2021-07-25T07:20:40.000Z</time>
      </trkpt>
      <trkpt lat="-12.042506597936153411865234375" lon="-76.92643054760992527008056640625">
        <ele>316.20001220703125</ele>
        <time>2021-07-25T07:20:45.000Z</time>
      </trkpt>
      <trkpt lat="-12.04249209724366664886474609375" lon="-76.9263773225247859954833984375">
        <ele>316.399993896484375</ele>
        <time>2021-07-25T07:20:46.000Z</time>
      </trkpt>
      <trkpt lat="-12.04239386133849620819091796875" lon="-76.92595814354717731475830078125">
        <ele>317</ele>
        <time>2021-07-25T07:20:54.000Z</time>
      </trkpt>
      <trkpt lat="-12.04233451746404170989990234375" lon="-76.92581380717456340789794921875">
        <ele>317.399993896484375</ele>
        <time>2021-07-25T07:20:57.000Z</time>
      </trkpt>
      <trkpt lat="-12.0423022471368312835693359375" lon="-76.92571456544101238250732421875">
        <ele>317.600006103515625</ele>
        <time>2021-07-25T07:20:59.000Z</time>
      </trkpt>
      <trkpt lat="-12.04229545779526233673095703125" lon="-76.92566536366939544677734375">
        <ele>317.600006103515625</ele>
        <time>2021-07-25T07:21:00.000Z</time>
      </trkpt>
      <trkpt lat="-12.0422650314867496490478515625" lon="-76.92551323212683200836181640625">
        <ele>318</ele>
        <time>2021-07-25T07:21:03.000Z</time>
      </trkpt>
      <trkpt lat="-12.04222337342798709869384765625" lon="-76.92541466094553470611572265625">
        <ele>318.20001220703125</ele>
        <time>2021-07-25T07:21:05.000Z</time>
      </trkpt>
      <trkpt lat="-12.04215346835553646087646484375" lon="-76.925273425877094268798828125">
        <ele>318.600006103515625</ele>
        <time>2021-07-25T07:21:08.000Z</time>
      </trkpt>
      <trkpt lat="-12.04201684333384037017822265625" lon="-76.92503445781767368316650390625">
        <ele>319</ele>
        <time>2021-07-25T07:21:13.000Z</time>
      </trkpt>
      <trkpt lat="-12.0419854111969470977783203125" lon="-76.924987770617008209228515625">
        <ele>319</ele>
        <time>2021-07-25T07:21:14.000Z</time>
      </trkpt>
      <trkpt lat="-12.0417104847729206085205078125" lon="-76.92464184947311878204345703125">
        <ele>319.600006103515625</ele>
        <time>2021-07-25T07:21:22.000Z</time>
      </trkpt>
      <trkpt lat="-12.04137730412185192108154296875" lon="-76.92435535602271556854248046875">
        <ele>319.79998779296875</ele>
        <time>2021-07-25T07:21:30.000Z</time>
      </trkpt>
      <trkpt lat="-12.04103372991085052490234375" lon="-76.92414144985377788543701171875">
        <ele>320.399993896484375</ele>
        <time>2021-07-25T07:21:37.000Z</time>
      </trkpt>
      <trkpt lat="-12.04077481292188167572021484375" lon="-76.924016140401363372802734375">
        <ele>320.600006103515625</ele>
        <time>2021-07-25T07:21:42.000Z</time>
      </trkpt>
      <trkpt lat="-12.04060885123908519744873046875" lon="-76.92395453341305255889892578125">
        <ele>320.79998779296875</ele>
        <time>2021-07-25T07:21:45.000Z</time>
      </trkpt>
      <trkpt lat="-12.040165364742279052734375" lon="-76.92385344766080379486083984375">
        <ele>321.399993896484375</ele>
        <time>2021-07-25T07:21:53.000Z</time>
      </trkpt>
      <trkpt lat="-12.039881385862827301025390625" lon="-76.923831738531589508056640625">
        <ele>321.600006103515625</ele>
        <time>2021-07-25T07:21:58.000Z</time>
      </trkpt>
      <trkpt lat="-12.03970930539071559906005859375" lon="-76.92383182235062122344970703125">
        <ele>321.79998779296875</ele>
        <time>2021-07-25T07:22:01.000Z</time>
      </trkpt>
      <trkpt lat="-12.03931284137070178985595703125" lon="-76.92387574352324008941650390625">
        <ele>322.399993896484375</ele>
        <time>2021-07-25T07:22:08.000Z</time>
      </trkpt>
      <trkpt lat="-12.03908669762313365936279296875" lon="-76.92392787896096706390380859375">
        <ele>322.600006103515625</ele>
        <time>2021-07-25T07:22:12.000Z</time>
      </trkpt>
      <trkpt lat="-12.03881688416004180908203125" lon="-76.9240178167819976806640625">
        <ele>323</ele>
        <time>2021-07-25T07:22:17.000Z</time>
      </trkpt>
      <trkpt lat="-12.038762904703617095947265625" lon="-76.92403214983642101287841796875">
        <ele>323</ele>
        <time>2021-07-25T07:22:18.000Z</time>
      </trkpt>
      <trkpt lat="-12.03855997882783412933349609375" lon="-76.92409384064376354217529296875">
        <ele>323.600006103515625</ele>
        <time>2021-07-25T07:22:22.000Z</time>
      </trkpt>
      <trkpt lat="-12.0385119505226612091064453125" lon="-76.92411127500236034393310546875">
        <ele>323.79998779296875</ele>
        <time>2021-07-25T07:22:23.000Z</time>
      </trkpt>
      <trkpt lat="-12.0382698811590671539306640625" lon="-76.924153268337249755859375">
        <ele>324.600006103515625</ele>
        <time>2021-07-25T07:22:29.000Z</time>
      </trkpt>
      <trkpt lat="-12.03824213705956935882568359375" lon="-76.92412720061838626861572265625">
        <ele>324.600006103515625</ele>
        <time>2021-07-25T07:22:30.000Z</time>
      </trkpt>
      <trkpt lat="-12.03817491419613361358642578125" lon="-76.9240173138678073883056640625">
        <ele>325.20001220703125</ele>
        <time>2021-07-25T07:22:33.000Z</time>
      </trkpt>
      <trkpt lat="-12.03815563581883907318115234375" lon="-76.92397129721939563751220703125">
        <ele>325.20001220703125</ele>
        <time>2021-07-25T07:22:34.000Z</time>
      </trkpt>
      <trkpt lat="-12.03807248733937740325927734375" lon="-76.9237353466451168060302734375">
        <ele>325.79998779296875</ele>
        <time>2021-07-25T07:22:39.000Z</time>
      </trkpt>
      <trkpt lat="-12.038003169000148773193359375" lon="-76.92355723120272159576416015625">
        <ele>325.79998779296875</ele>
        <time>2021-07-25T07:22:43.000Z</time>
      </trkpt>
      <trkpt lat="-12.03794592060148715972900390625" lon="-76.923424042761325836181640625">
        <ele>326.20001220703125</ele>
        <time>2021-07-25T07:22:46.000Z</time>
      </trkpt>
      <trkpt lat="-12.037809379398822784423828125" lon="-76.9231083802878856658935546875">
        <ele>326.600006103515625</ele>
        <time>2021-07-25T07:22:55.000Z</time>
      </trkpt>
      <trkpt lat="-12.0377532206475734710693359375" lon="-76.92299882881343364715576171875">
        <ele>326.79998779296875</ele>
        <time>2021-07-25T07:22:58.000Z</time>
      </trkpt>
      <trkpt lat="-12.03771986067295074462890625" lon="-76.92293110303580760955810546875">
        <ele>327.20001220703125</ele>
        <time>2021-07-25T07:23:00.000Z</time>
      </trkpt>
      <trkpt lat="-12.0376097224652767181396484375" lon="-76.92262616939842700958251953125">
        <ele>327.399993896484375</ele>
        <time>2021-07-25T07:23:08.000Z</time>
      </trkpt>
      <trkpt lat="-12.0375396497547626495361328125" lon="-76.9224401749670505523681640625">
        <ele>327.79998779296875</ele>
        <time>2021-07-25T07:23:13.000Z</time>
      </trkpt>
      <trkpt lat="-12.0375225506722927093505859375" lon="-76.92236029542982578277587890625">
        <ele>327.79998779296875</ele>
        <time>2021-07-25T07:23:15.000Z</time>
      </trkpt>
      <trkpt lat="-12.0374575071036815643310546875" lon="-76.92211680114269256591796875">
        <ele>328</ele>
        <time>2021-07-25T07:23:21.000Z</time>
      </trkpt>
      <trkpt lat="-12.0374072156846523284912109375" lon="-76.9220455549657344818115234375">
        <ele>328.600006103515625</ele>
        <time>2021-07-25T07:23:23.000Z</time>
      </trkpt>
      <trkpt lat="-12.03730068169534206390380859375" lon="-76.92190499044954776763916015625">
        <ele>328.79998779296875</ele>
        <time>2021-07-25T07:23:27.000Z</time>
      </trkpt>
      <trkpt lat="-12.037277631461620330810546875" lon="-76.9218668527901172637939453125">
        <ele>329</ele>
        <time>2021-07-25T07:23:28.000Z</time>
      </trkpt>
      <trkpt lat="-12.0370940677821636199951171875" lon="-76.92153652198612689971923828125">
        <ele>329.600006103515625</ele>
        <time>2021-07-25T07:23:36.000Z</time>
      </trkpt>
      <trkpt lat="-12.03689885325729846954345703125" lon="-76.92124566994607448577880859375">
        <ele>329.600006103515625</ele>
        <time>2021-07-25T07:23:43.000Z</time>
      </trkpt>
      <trkpt lat="-12.0366283692419528961181640625" lon="-76.920830346643924713134765625">
        <ele>329.79998779296875</ele>
        <time>2021-07-25T07:23:52.000Z</time>
      </trkpt>
      <trkpt lat="-12.036597691476345062255859375" lon="-76.92078248597681522369384765625">
        <ele>330</ele>
        <time>2021-07-25T07:23:53.000Z</time>
      </trkpt>
      <trkpt lat="-12.036389820277690887451171875" lon="-76.92048794589936733245849609375">
        <ele>330</ele>
        <time>2021-07-25T07:24:00.000Z</time>
      </trkpt>
      <trkpt lat="-12.0361110381782054901123046875" lon="-76.920194327831268310546875">
        <ele>330.20001220703125</ele>
        <time>2021-07-25T07:24:08.000Z</time>
      </trkpt>
      <trkpt lat="-12.03607541508972644805908203125" lon="-76.9201690144836902618408203125">
        <ele>330.20001220703125</ele>
        <time>2021-07-25T07:24:09.000Z</time>
      </trkpt>
      <trkpt lat="-12.035969384014606475830078125" lon="-76.9201197288930416107177734375">
        <ele>330.399993896484375</ele>
        <time>2021-07-25T07:24:12.000Z</time>
      </trkpt>
      <trkpt lat="-12.0358481816947460174560546875" lon="-76.92016557790338993072509765625">
        <ele>330.79998779296875</ele>
        <time>2021-07-25T07:24:16.000Z</time>
      </trkpt>
      <trkpt lat="-12.0357569865882396697998046875" lon="-76.9202645681798458099365234375">
        <ele>331.20001220703125</ele>
        <time>2021-07-25T07:24:19.000Z</time>
      </trkpt>
      <trkpt lat="-12.03572723083198070526123046875" lon="-76.92029817961156368255615234375">
        <ele>331</ele>
        <time>2021-07-25T07:24:20.000Z</time>
      </trkpt>
      <trkpt lat="-12.03565665520727634429931640625" lon="-76.920365653932094573974609375">
        <ele>330.79998779296875</ele>
        <time>2021-07-25T07:24:22.000Z</time>
      </trkpt>
      <trkpt lat="-12.03549823723733425140380859375" lon="-76.92049632780253887176513671875">
        <ele>331.20001220703125</ele>
        <time>2021-07-25T07:24:26.000Z</time>
      </trkpt>
      <trkpt lat="-12.03528768382966518402099609375" lon="-76.920687519013881683349609375">
        <ele>331.79998779296875</ele>
        <time>2021-07-25T07:24:32.000Z</time>
      </trkpt>
      <trkpt lat="-12.03517972491681575775146484375" lon="-76.920767985284328460693359375">
        <ele>332.399993896484375</ele>
        <time>2021-07-25T07:24:35.000Z</time>
      </trkpt>
      <trkpt lat="-12.03495475463569164276123046875" lon="-76.92092766053974628448486328125">
        <ele>332.79998779296875</ele>
        <time>2021-07-25T07:24:41.000Z</time>
      </trkpt>
      <trkpt lat="-12.0347203128039836883544921875" lon="-76.92108524031937122344970703125">
        <ele>333.399993896484375</ele>
        <time>2021-07-25T07:24:47.000Z</time>
      </trkpt>
      <trkpt lat="-12.034639008343219757080078125" lon="-76.92113251425325870513916015625">
        <ele>333.600006103515625</ele>
        <time>2021-07-25T07:24:49.000Z</time>
      </trkpt>
      <trkpt lat="-12.03430163674056529998779296875" lon="-76.9213114678859710693359375">
        <ele>334.20001220703125</ele>
        <time>2021-07-25T07:24:57.000Z</time>
      </trkpt>
      <trkpt lat="-12.03425989486277103424072265625" lon="-76.9213307462632656097412109375">
        <ele>334.399993896484375</ele>
        <time>2021-07-25T07:24:58.000Z</time>
      </trkpt>
      <trkpt lat="-12.03403576277196407318115234375" lon="-76.921422779560089111328125">
        <ele>334.79998779296875</ele>
        <time>2021-07-25T07:25:03.000Z</time>
      </trkpt>
      <trkpt lat="-12.03366612084209918975830078125" lon="-76.92154976539313793182373046875">
        <ele>335.600006103515625</ele>
        <time>2021-07-25T07:25:11.000Z</time>
      </trkpt>
      <trkpt lat="-12.03325021080672740936279296875" lon="-76.9216720573604106903076171875">
        <ele>336.600006103515625</ele>
        <time>2021-07-25T07:25:20.000Z</time>
      </trkpt>
      <trkpt lat="-12.0331140048801898956298828125" lon="-76.92170768044888973236083984375">
        <ele>336.600006103515625</ele>
        <time>2021-07-25T07:25:23.000Z</time>
      </trkpt>
      <trkpt lat="-12.03287621028721332550048828125" lon="-76.9217786751687526702880859375">
        <ele>336.600006103515625</ele>
        <time>2021-07-25T07:25:28.000Z</time>
      </trkpt>
      <trkpt lat="-12.03246415592730045318603515625" lon="-76.9218859635293483734130859375">
        <ele>337.79998779296875</ele>
        <time>2021-07-25T07:25:37.000Z</time>
      </trkpt>
      <trkpt lat="-12.0321549475193023681640625" lon="-76.92197774536907672882080078125">
        <ele>338.20001220703125</ele>
        <time>2021-07-25T07:25:44.000Z</time>
      </trkpt>
      <trkpt lat="-12.0318317413330078125" lon="-76.92206642590463161468505859375">
        <ele>338.600006103515625</ele>
        <time>2021-07-25T07:25:51.000Z</time>
      </trkpt>
      <trkpt lat="-12.0316495187580585479736328125" lon="-76.92211210727691650390625">
        <ele>338.79998779296875</ele>
        <time>2021-07-25T07:25:55.000Z</time>
      </trkpt>
      <trkpt lat="-12.03148967586457729339599609375" lon="-76.9221588782966136932373046875">
        <ele>338.79998779296875</ele>
        <time>2021-07-25T07:25:59.000Z</time>
      </trkpt>
      <trkpt lat="-12.03125800006091594696044921875" lon="-76.9222242571413516998291015625">
        <ele>339.20001220703125</ele>
        <time>2021-07-25T07:26:05.000Z</time>
      </trkpt>
      <trkpt lat="-12.03084938228130340576171875" lon="-76.922340430319309234619140625">
        <ele>339.79998779296875</ele>
        <time>2021-07-25T07:26:14.000Z</time>
      </trkpt>
      <trkpt lat="-12.030759863555431365966796875" lon="-76.92236800678074359893798828125">
        <ele>340</ele>
        <time>2021-07-25T07:26:16.000Z</time>
      </trkpt>
      <trkpt lat="-12.0306752063333988189697265625" lon="-76.92240287549793720245361328125">
        <ele>340.399993896484375</ele>
        <time>2021-07-25T07:26:18.000Z</time>
      </trkpt>
      <trkpt lat="-12.0305585302412509918212890625" lon="-76.92246674560010433197021484375">
        <ele>340.79998779296875</ele>
        <time>2021-07-25T07:26:21.000Z</time>
      </trkpt>
      <trkpt lat="-12.030478902161121368408203125" lon="-76.92249708808958530426025390625">
        <ele>341.20001220703125</ele>
        <time>2021-07-25T07:26:23.000Z</time>
      </trkpt>
      <trkpt lat="-12.03030698932707309722900390625" lon="-76.922556348145008087158203125">
        <ele>341.399993896484375</ele>
        <time>2021-07-25T07:26:27.000Z</time>
      </trkpt>
      <trkpt lat="-12.0300988666713237762451171875" lon="-76.9226852618157863616943359375">
        <ele>341.600006103515625</ele>
        <time>2021-07-25T07:26:32.000Z</time>
      </trkpt>
      <trkpt lat="-12.03002217225730419158935546875" lon="-76.92274712026119232177734375">
        <ele>342.20001220703125</ele>
        <time>2021-07-25T07:26:34.000Z</time>
      </trkpt>
      <trkpt lat="-12.02972511760890483856201171875" lon="-76.9229665584862232208251953125">
        <ele>342</ele>
        <time>2021-07-25T07:26:42.000Z</time>
      </trkpt>
      <trkpt lat="-12.0296495966613292694091796875" lon="-76.92302749492228031158447265625">
        <ele>341.600006103515625</ele>
        <time>2021-07-25T07:26:44.000Z</time>
      </trkpt>
      <trkpt lat="-12.0295464992523193359375" lon="-76.9231241382658481597900390625">
        <ele>342.399993896484375</ele>
        <time>2021-07-25T07:26:47.000Z</time>
      </trkpt>
      <trkpt lat="-12.0295129716396331787109375" lon="-76.92315305583178997039794921875">
        <ele>342.20001220703125</ele>
        <time>2021-07-25T07:26:48.000Z</time>
      </trkpt>
      <trkpt lat="-12.02935874462127685546875" lon="-76.9232377968728542327880859375">
        <ele>341.79998779296875</ele>
        <time>2021-07-25T07:26:53.000Z</time>
      </trkpt>
      <trkpt lat="-12.0293252170085906982421875" lon="-76.92322815768420696258544921875">
        <ele>341.79998779296875</ele>
        <time>2021-07-25T07:26:54.000Z</time>
      </trkpt>
      <trkpt lat="-12.0292613469064235687255859375" lon="-76.9231797941029071807861328125">
        <ele>342.20001220703125</ele>
        <time>2021-07-25T07:26:56.000Z</time>
      </trkpt>
      <trkpt lat="-12.02919471077620983123779296875" lon="-76.92310846410691738128662109375">
        <ele>342.399993896484375</ele>
        <time>2021-07-25T07:26:58.000Z</time>
      </trkpt>
      <trkpt lat="-12.0290856622159481048583984375" lon="-76.9230051152408123016357421875">
        <ele>342.600006103515625</ele>
        <time>2021-07-25T07:27:01.000Z</time>
      </trkpt>
      <trkpt lat="-12.02887586317956447601318359375" lon="-76.92281124182045459747314453125">
        <ele>343</ele>
        <time>2021-07-25T07:27:07.000Z</time>
      </trkpt>
      <trkpt lat="-12.028719373047351837158203125" lon="-76.922644190490245819091796875">
        <ele>343.399993896484375</ele>
        <time>2021-07-25T07:27:12.000Z</time>
      </trkpt>
      <trkpt lat="-12.02868886291980743408203125" lon="-76.922609992325305938720703125">
        <ele>343.600006103515625</ele>
        <time>2021-07-25T07:27:13.000Z</time>
      </trkpt>
      <trkpt lat="-12.02854880131781101226806640625" lon="-76.92241712473332881927490234375">
        <ele>343.79998779296875</ele>
        <time>2021-07-25T07:27:19.000Z</time>
      </trkpt>
      <trkpt lat="-12.02844209969043731689453125" lon="-76.922324337065219879150390625">
        <ele>344.20001220703125</ele>
        <time>2021-07-25T07:27:24.000Z</time>
      </trkpt>
      <trkpt lat="-12.02831846661865711212158203125" lon="-76.922363229095935821533203125">
        <ele>344</ele>
        <time>2021-07-25T07:27:28.000Z</time>
      </trkpt>
      <trkpt lat="-12.0281314663589000701904296875" lon="-76.922497339546680450439453125">
        <ele>344.600006103515625</ele>
        <time>2021-07-25T07:27:33.000Z</time>
      </trkpt>
      <trkpt lat="-12.02809383161365985870361328125" lon="-76.92252273671329021453857421875">
        <ele>344.600006103515625</ele>
        <time>2021-07-25T07:27:34.000Z</time>
      </trkpt>
      <trkpt lat="-12.02789501287043094635009765625" lon="-76.92264427430927753448486328125">
        <ele>345.20001220703125</ele>
        <time>2021-07-25T07:27:40.000Z</time>
      </trkpt>
      <trkpt lat="-12.0277975313365459442138671875" lon="-76.922653578221797943115234375">
        <ele>345.20001220703125</ele>
        <time>2021-07-25T07:27:43.000Z</time>
      </trkpt>
      <trkpt lat="-12.0277641713619232177734375" lon="-76.9226312823593616485595703125">
        <ele>345.20001220703125</ele>
        <time>2021-07-25T07:27:44.000Z</time>
      </trkpt>
      <trkpt lat="-12.02769870869815349578857421875" lon="-76.922567747533321380615234375">
        <ele>345.600006103515625</ele>
        <time>2021-07-25T07:27:46.000Z</time>
      </trkpt>
      <trkpt lat="-12.0276439748704433441162109375" lon="-76.92249742336571216583251953125">
        <ele>345.79998779296875</ele>
        <time>2021-07-25T07:27:48.000Z</time>
      </trkpt>
      <trkpt lat="-12.02747792936861515045166015625" lon="-76.922292150557041168212890625">
        <ele>346.600006103515625</ele>
        <time>2021-07-25T07:27:54.000Z</time>
      </trkpt>
      <trkpt lat="-12.0273055136203765869140625" lon="-76.92202401347458362579345703125">
        <ele>347.79998779296875</ele>
        <time>2021-07-25T07:28:01.000Z</time>
      </trkpt>
      <trkpt lat="-12.02713862992823123931884765625" lon="-76.92175897769629955291748046875">
        <ele>348</ele>
        <time>2021-07-25T07:28:08.000Z</time>
      </trkpt>
      <trkpt lat="-12.027089595794677734375" lon="-76.9216760806739330291748046875">
        <ele>348.79998779296875</ele>
        <time>2021-07-25T07:28:10.000Z</time>
      </trkpt>
      <trkpt lat="-12.0269794575870037078857421875" lon="-76.9214697182178497314453125">
        <ele>349.600006103515625</ele>
        <time>2021-07-25T07:28:15.000Z</time>
      </trkpt>
      <trkpt lat="-12.0268790423870086669921875" lon="-76.92131339572370052337646484375">
        <ele>350</ele>
        <time>2021-07-25T07:28:19.000Z</time>
      </trkpt>
      <trkpt lat="-12.026832103729248046875" lon="-76.921238042414188385009765625">
        <ele>350.399993896484375</ele>
        <time>2021-07-25T07:28:21.000Z</time>
      </trkpt>
      <trkpt lat="-12.0266693271696567535400390625" lon="-76.92094056867063045501708984375">
        <ele>351</ele>
        <time>2021-07-25T07:28:28.000Z</time>
      </trkpt>
      <trkpt lat="-12.02657067216932773590087890625" lon="-76.9207718409597873687744140625">
        <ele>351.20001220703125</ele>
        <time>2021-07-25T07:28:32.000Z</time>
      </trkpt>
      <trkpt lat="-12.02655726112425327301025390625" lon="-76.92072582431137561798095703125">
        <ele>351.20001220703125</ele>
        <time>2021-07-25T07:28:33.000Z</time>
      </trkpt>
      <trkpt lat="-12.02654083259403705596923828125" lon="-76.920623481273651123046875">
        <ele>351.20001220703125</ele>
        <time>2021-07-25T07:28:35.000Z</time>
      </trkpt>
      <trkpt lat="-12.02656497247517108917236328125" lon="-76.92036665976047515869140625">
        <ele>351.79998779296875</ele>
        <time>2021-07-25T07:28:40.000Z</time>
      </trkpt>
      <trkpt lat="-12.0265848375856876373291015625" lon="-76.92017312161624431610107421875">
        <ele>352.20001220703125</ele>
        <time>2021-07-25T07:28:44.000Z</time>
      </trkpt>
      <trkpt lat="-12.0265845023095607757568359375" lon="-76.92012534476816654205322265625">
        <ele>352.20001220703125</ele>
        <time>2021-07-25T07:28:45.000Z</time>
      </trkpt>
      <trkpt lat="-12.026595734059810638427734375" lon="-76.9200271926820278167724609375">
        <ele>352.399993896484375</ele>
        <time>2021-07-25T07:28:47.000Z</time>
      </trkpt>
      <trkpt lat="-12.02664325945079326629638671875" lon="-76.91966048441827297210693359375">
        <ele>353.20001220703125</ele>
        <time>2021-07-25T07:28:54.000Z</time>
      </trkpt>
      <trkpt lat="-12.026660442352294921875" lon="-76.91951028071343898773193359375">
        <ele>353.600006103515625</ele>
        <time>2021-07-25T07:28:57.000Z</time>
      </trkpt>
      <trkpt lat="-12.02669505961239337921142578125" lon="-76.91927424632012844085693359375">
        <ele>354.20001220703125</ele>
        <time>2021-07-25T07:29:02.000Z</time>
      </trkpt>
      <trkpt lat="-12.0267179422080516815185546875" lon="-76.91913560964167118072509765625">
        <ele>354.600006103515625</ele>
        <time>2021-07-25T07:29:05.000Z</time>
      </trkpt>
      <trkpt lat="-12.026753313839435577392578125" lon="-76.91886537708342075347900390625">
        <ele>354.79998779296875</ele>
        <time>2021-07-25T07:29:11.000Z</time>
      </trkpt>
      <trkpt lat="-12.0267860032618045806884765625" lon="-76.91864409483969211578369140625">
        <ele>355.399993896484375</ele>
        <time>2021-07-25T07:29:16.000Z</time>
      </trkpt>
      <trkpt lat="-12.02679296024143695831298828125" lon="-76.91860537044703960418701171875">
        <ele>355.600006103515625</ele>
        <time>2021-07-25T07:29:17.000Z</time>
      </trkpt>
      <trkpt lat="-12.0268165133893489837646484375" lon="-76.918336562812328338623046875">
        <ele>356</ele>
        <time>2021-07-25T07:29:24.000Z</time>
      </trkpt>
      <trkpt lat="-12.02678608708083629608154296875" lon="-76.9180436991155147552490234375">
        <ele>356.399993896484375</ele>
        <time>2021-07-25T07:29:31.000Z</time>
      </trkpt>
      <trkpt lat="-12.02674962580204010009765625" lon="-76.91774421371519565582275390625">
        <ele>356.79998779296875</ele>
        <time>2021-07-25T07:29:38.000Z</time>
      </trkpt>
      <trkpt lat="-12.0267140865325927734375" lon="-76.91750616766512393951416015625">
        <ele>357.399993896484375</ele>
        <time>2021-07-25T07:29:43.000Z</time>
      </trkpt>
      <trkpt lat="-12.02670595608651638031005859375" lon="-76.91740281879901885986328125">
        <ele>357.600006103515625</ele>
        <time>2021-07-25T07:29:45.000Z</time>
      </trkpt>
      <trkpt lat="-12.0266599394381046295166015625" lon="-76.91694776527583599090576171875">
        <ele>358.600006103515625</ele>
        <time>2021-07-25T07:29:54.000Z</time>
      </trkpt>
      <trkpt lat="-12.0266539044678211212158203125" lon="-76.91689831204712390899658203125">
        <ele>358.600006103515625</ele>
        <time>2021-07-25T07:29:55.000Z</time>
      </trkpt>
      <trkpt lat="-12.02660453505814075469970703125" lon="-76.91662288270890712738037109375">
        <ele>359</ele>
        <time>2021-07-25T07:30:01.000Z</time>
      </trkpt>
      <trkpt lat="-12.02658492140471935272216796875" lon="-76.91658868454396724700927734375">
        <ele>359.20001220703125</ele>
        <time>2021-07-25T07:30:02.000Z</time>
      </trkpt>
      <trkpt lat="-12.02645726501941680908203125" lon="-76.91653554327785968780517578125">
        <ele>359.399993896484375</ele>
        <time>2021-07-25T07:30:06.000Z</time>
      </trkpt>
      <trkpt lat="-12.02637151814997196197509765625" lon="-76.91657527349889278411865234375">
        <ele>359.20001220703125</ele>
        <time>2021-07-25T07:30:08.000Z</time>
      </trkpt>
      <trkpt lat="-12.02632558532059192657470703125" lon="-76.9165993295609951019287109375">
        <ele>359</ele>
        <time>2021-07-25T07:30:09.000Z</time>
      </trkpt>
      <trkpt lat="-12.0259669236838817596435546875" lon="-76.91679554991424083709716796875">
        <ele>358.600006103515625</ele>
        <time>2021-07-25T07:30:16.000Z</time>
      </trkpt>
      <trkpt lat="-12.02561262063682079315185546875" lon="-76.9169869087636470794677734375">
        <ele>357.79998779296875</ele>
        <time>2021-07-25T07:30:23.000Z</time>
      </trkpt>
      <trkpt lat="-12.02526913024485111236572265625" lon="-76.9171599112451076507568359375">
        <ele>358</ele>
        <time>2021-07-25T07:30:31.000Z</time>
      </trkpt>
      <trkpt lat="-12.0251458324491977691650390625" lon="-76.91721967421472072601318359375">
        <ele>358</ele>
        <time>2021-07-25T07:30:34.000Z</time>
      </trkpt>
      <trkpt lat="-12.02508036978542804718017578125" lon="-76.91721749491989612579345703125">
        <ele>358</ele>
        <time>2021-07-25T07:30:36.000Z</time>
      </trkpt>
      <trkpt lat="-12.0250288210809230804443359375" lon="-76.9171084463596343994140625">
        <ele>358.399993896484375</ele>
        <time>2021-07-25T07:30:39.000Z</time>
      </trkpt>
      <trkpt lat="-12.02499923296272754669189453125" lon="-76.9169510342180728912353515625">
        <ele>358.20001220703125</ele>
        <time>2021-07-25T07:30:42.000Z</time>
      </trkpt>
      <trkpt lat="-12.02496855519711971282958984375" lon="-76.91684500314295291900634765625">
        <ele>358.399993896484375</ele>
        <time>2021-07-25T07:30:44.000Z</time>
      </trkpt>
      <trkpt lat="-12.02487417496740818023681640625" lon="-76.9165178574621677398681640625">
        <ele>359</ele>
        <time>2021-07-25T07:30:51.000Z</time>
      </trkpt>
      <trkpt lat="-12.02478851191699504852294921875" lon="-76.9162794761359691619873046875">
        <ele>359.399993896484375</ele>
        <time>2021-07-25T07:30:56.000Z</time>
      </trkpt>
      <trkpt lat="-12.0247538946568965911865234375" lon="-76.9161879457533359527587890625">
        <ele>359.600006103515625</ele>
        <time>2021-07-25T07:30:58.000Z</time>
      </trkpt>
      <trkpt lat="-12.0246388949453830718994140625" lon="-76.91595719195902347564697265625">
        <ele>360.20001220703125</ele>
        <time>2021-07-25T07:31:04.000Z</time>
      </trkpt>
      <trkpt lat="-12.02454887330532073974609375" lon="-76.91576641984283924102783203125">
        <ele>360.600006103515625</ele>
        <time>2021-07-25T07:31:09.000Z</time>
      </trkpt>
      <trkpt lat="-12.02453236095607280731201171875" lon="-76.9157131947576999664306640625">
        <ele>360.600006103515625</ele>
        <time>2021-07-25T07:31:10.000Z</time>
      </trkpt>
      <trkpt lat="-12.02446731738746166229248046875" lon="-76.91549166105687618255615234375">
        <ele>360.399993896484375</ele>
        <time>2021-07-25T07:31:14.000Z</time>
      </trkpt>
      <trkpt lat="-12.02445373870432376861572265625" lon="-76.9154401123523712158203125">
        <ele>360.79998779296875</ele>
        <time>2021-07-25T07:31:15.000Z</time>
      </trkpt>
      <trkpt lat="-12.024411745369434356689453125" lon="-76.91530809737741947174072265625">
        <ele>360.79998779296875</ele>
        <time>2021-07-25T07:31:18.000Z</time>
      </trkpt>
      <trkpt lat="-12.02429934404790401458740234375" lon="-76.9149739108979701995849609375">
        <ele>360.79998779296875</ele>
        <time>2021-07-25T07:31:26.000Z</time>
      </trkpt>
      <trkpt lat="-12.0242405869066715240478515625" lon="-76.91468230448663234710693359375">
        <ele>361</ele>
        <time>2021-07-25T07:31:32.000Z</time>
      </trkpt>
      <trkpt lat="-12.02409482561051845550537109375" lon="-76.91423487849533557891845703125">
        <ele>361.20001220703125</ele>
        <time>2021-07-25T07:31:41.000Z</time>
      </trkpt>
      <trkpt lat="-12.02399692498147487640380859375" lon="-76.9139275141060352325439453125">
        <ele>361.399993896484375</ele>
        <time>2021-07-25T07:31:48.000Z</time>
      </trkpt>
      <trkpt lat="-12.02396239154040813446044921875" lon="-76.9137851893901824951171875">
        <ele>361.399993896484375</ele>
        <time>2021-07-25T07:31:53.000Z</time>
      </trkpt>
      <trkpt lat="-12.02392232604324817657470703125" lon="-76.91366381943225860595703125">
        <ele>361.20001220703125</ele>
        <time>2021-07-25T07:31:57.000Z</time>
      </trkpt>
      <trkpt lat="-12.0238932408392429351806640625" lon="-76.91358209587633609771728515625">
        <ele>361.399993896484375</ele>
        <time>2021-07-25T07:31:59.000Z</time>
      </trkpt>
      <trkpt lat="-12.02378720976412296295166015625" lon="-76.9132120348513126373291015625">
        <ele>361.600006103515625</ele>
        <time>2021-07-25T07:32:07.000Z</time>
      </trkpt>
      <trkpt lat="-12.0237430371344089508056640625" lon="-76.913065016269683837890625">
        <ele>361.79998779296875</ele>
        <time>2021-07-25T07:32:10.000Z</time>
      </trkpt>
      <trkpt lat="-12.0236679352819919586181640625" lon="-76.912815906107425689697265625">
        <ele>362.399993896484375</ele>
        <time>2021-07-25T07:32:15.000Z</time>
      </trkpt>
      <trkpt lat="-12.0236152969300746917724609375" lon="-76.91267332993447780609130859375">
        <ele>362.79998779296875</ele>
        <time>2021-07-25T07:32:18.000Z</time>
      </trkpt>
      <trkpt lat="-12.0235955156385898590087890625" lon="-76.91262622363865375518798828125">
        <ele>363</ele>
        <time>2021-07-25T07:32:19.000Z</time>
      </trkpt>
      <trkpt lat="-12.023545391857624053955078125" lon="-76.9124757684767246246337890625">
        <ele>363.20001220703125</ele>
        <time>2021-07-25T07:32:22.000Z</time>
      </trkpt>
      <trkpt lat="-12.0234788395464420318603515625" lon="-76.91226798109710216522216796875">
        <ele>363.600006103515625</ele>
        <time>2021-07-25T07:32:26.000Z</time>
      </trkpt>
      <trkpt lat="-12.0234054140746593475341796875" lon="-76.91205323673784732818603515625">
        <ele>364</ele>
        <time>2021-07-25T07:32:30.000Z</time>
      </trkpt>
      <trkpt lat="-12.02326803468167781829833984375" lon="-76.91160715185105800628662109375">
        <ele>364.600006103515625</ele>
        <time>2021-07-25T07:32:38.000Z</time>
      </trkpt>
      <trkpt lat="-12.02317365445196628570556640625" lon="-76.91132367588579654693603515625">
        <ele>365.20001220703125</ele>
        <time>2021-07-25T07:32:43.000Z</time>
      </trkpt>
      <trkpt lat="-12.02311598695814609527587890625" lon="-76.911148242652416229248046875">
        <ele>365</ele>
        <time>2021-07-25T07:32:46.000Z</time>
      </trkpt>
      <trkpt lat="-12.02295966446399688720703125" lon="-76.91068698652088642120361328125">
        <ele>365.600006103515625</ele>
        <time>2021-07-25T07:32:54.000Z</time>
      </trkpt>
      <trkpt lat="-12.02283452264964580535888671875" lon="-76.91029764711856842041015625">
        <ele>366.20001220703125</ele>
        <time>2021-07-25T07:33:01.000Z</time>
      </trkpt>
      <trkpt lat="-12.02276009134948253631591796875" lon="-76.91003655083477497100830078125">
        <ele>366.399993896484375</ele>
        <time>2021-07-25T07:33:06.000Z</time>
      </trkpt>
      <trkpt lat="-12.02260670252144336700439453125" lon="-76.90956330858170986175537109375">
        <ele>367</ele>
        <time>2021-07-25T07:33:15.000Z</time>
      </trkpt>
      <trkpt lat="-12.022554986178874969482421875" lon="-76.90941159613430500030517578125">
        <ele>367.399993896484375</ele>
        <time>2021-07-25T07:33:18.000Z</time>
      </trkpt>
      <trkpt lat="-12.02248013578355312347412109375" lon="-76.9091691076755523681640625">
        <ele>368</ele>
        <time>2021-07-25T07:33:23.000Z</time>
      </trkpt>
      <trkpt lat="-12.02244878746569156646728515625" lon="-76.9090720452368259429931640625">
        <ele>368.20001220703125</ele>
        <time>2021-07-25T07:33:25.000Z</time>
      </trkpt>
      <trkpt lat="-12.02239229343831539154052734375" lon="-76.908910274505615234375">
        <ele>368.20001220703125</ele>
        <time>2021-07-25T07:33:28.000Z</time>
      </trkpt>
      <trkpt lat="-12.022359184920787811279296875" lon="-76.90879971720278263092041015625">
        <ele>368.399993896484375</ele>
        <time>2021-07-25T07:33:30.000Z</time>
      </trkpt>
      <trkpt lat="-12.022280730307102203369140625" lon="-76.90853367559611797332763671875">
        <ele>368.79998779296875</ele>
        <time>2021-07-25T07:33:35.000Z</time>
      </trkpt>
      <trkpt lat="-12.02213915996253490447998046875" lon="-76.9080987386405467987060546875">
        <ele>369.399993896484375</ele>
        <time>2021-07-25T07:33:43.000Z</time>
      </trkpt>
      <trkpt lat="-12.02202583663165569305419921875" lon="-76.9077349640429019927978515625">
        <ele>370.399993896484375</ele>
        <time>2021-07-25T07:33:50.000Z</time>
      </trkpt>
      <trkpt lat="-12.02200823463499546051025390625" lon="-76.907684504985809326171875">
        <ele>370.600006103515625</ele>
        <time>2021-07-25T07:33:51.000Z</time>
      </trkpt>
      <trkpt lat="-12.02187898568809032440185546875" lon="-76.9072796590626239776611328125">
        <ele>371</ele>
        <time>2021-07-25T07:33:59.000Z</time>
      </trkpt>
      <trkpt lat="-12.02181545086205005645751953125" lon="-76.90708880312740802764892578125">
        <ele>371.600006103515625</ele>
        <time>2021-07-25T07:34:03.000Z</time>
      </trkpt>
      <trkpt lat="-12.0217491500079631805419921875" lon="-76.90689635463058948516845703125">
        <ele>371.79998779296875</ele>
        <time>2021-07-25T07:34:07.000Z</time>
      </trkpt>
      <trkpt lat="-12.0216569490730762481689453125" lon="-76.906602568924427032470703125">
        <ele>372.399993896484375</ele>
        <time>2021-07-25T07:34:13.000Z</time>
      </trkpt>
      <trkpt lat="-12.02159282751381397247314453125" lon="-76.9063930213451385498046875">
        <ele>372.600006103515625</ele>
        <time>2021-07-25T07:34:17.000Z</time>
      </trkpt>
      <trkpt lat="-12.0215416140854358673095703125" lon="-76.90623519010841846466064453125">
        <ele>372.79998779296875</ele>
        <time>2021-07-25T07:34:20.000Z</time>
      </trkpt>
      <trkpt lat="-12.02145628631114959716796875" lon="-76.90597233362495899200439453125">
        <ele>373.20001220703125</ele>
        <time>2021-07-25T07:34:25.000Z</time>
      </trkpt>
      <trkpt lat="-12.02141605317592620849609375" lon="-76.905863285064697265625">
        <ele>373.399993896484375</ele>
        <time>2021-07-25T07:34:27.000Z</time>
      </trkpt>
      <trkpt lat="-12.0213119499385356903076171875" lon="-76.90553798340260982513427734375">
        <ele>373.600006103515625</ele>
        <time>2021-07-25T07:34:33.000Z</time>
      </trkpt>
      <trkpt lat="-12.0212355069816112518310546875" lon="-76.905319802463054656982421875">
        <ele>374</ele>
        <time>2021-07-25T07:34:37.000Z</time>
      </trkpt>
      <trkpt lat="-12.0210906676948070526123046875" lon="-76.904887296259403228759765625">
        <ele>374.79998779296875</ele>
        <time>2021-07-25T07:34:45.000Z</time>
      </trkpt>
      <trkpt lat="-12.0210725627839565277099609375" lon="-76.9048348255455493927001953125">
        <ele>374.79998779296875</ele>
        <time>2021-07-25T07:34:46.000Z</time>
      </trkpt>
      <trkpt lat="-12.02091422863304615020751953125" lon="-76.90435814671218395233154296875">
        <ele>375.399993896484375</ele>
        <time>2021-07-25T07:34:55.000Z</time>
      </trkpt>
      <trkpt lat="-12.02088095247745513916015625" lon="-76.90425035543739795684814453125">
        <ele>375.79998779296875</ele>
        <time>2021-07-25T07:34:57.000Z</time>
      </trkpt>
      <trkpt lat="-12.0207624323666095733642578125" lon="-76.9039007462561130523681640625">
        <ele>376.79998779296875</ele>
        <time>2021-07-25T07:35:04.000Z</time>
      </trkpt>
      <trkpt lat="-12.02074625529348850250244140625" lon="-76.90385095775127410888671875">
        <ele>377</ele>
        <time>2021-07-25T07:35:05.000Z</time>
      </trkpt>
      <trkpt lat="-12.0206363685429096221923828125" lon="-76.903518699109554290771484375">
        <ele>377.79998779296875</ele>
        <time>2021-07-25T07:35:12.000Z</time>
      </trkpt>
      <trkpt lat="-12.02060879208147525787353515625" lon="-76.90342582762241363525390625">
        <ele>378</ele>
        <time>2021-07-25T07:35:14.000Z</time>
      </trkpt>
      <trkpt lat="-12.02050737105309963226318359375" lon="-76.90310823731124401092529296875">
        <ele>379</ele>
        <time>2021-07-25T07:35:21.000Z</time>
      </trkpt>
      <trkpt lat="-12.02040695585310459136962890625" lon="-76.9027829356491565704345703125">
        <ele>380.20001220703125</ele>
        <time>2021-07-25T07:35:28.000Z</time>
      </trkpt>
      <trkpt lat="-12.02037191949784755706787109375" lon="-76.90268687903881072998046875">
        <ele>380.399993896484375</ele>
        <time>2021-07-25T07:35:30.000Z</time>
      </trkpt>
      <trkpt lat="-12.02031609602272510528564453125" lon="-76.9025009684264659881591796875">
        <ele>381.20001220703125</ele>
        <time>2021-07-25T07:35:34.000Z</time>
      </trkpt>
      <trkpt lat="-12.02028424479067325592041015625" lon="-76.90240784548223018646240234375">
        <ele>381.399993896484375</ele>
        <time>2021-07-25T07:35:36.000Z</time>
      </trkpt>
      <trkpt lat="-12.02023227699100971221923828125" lon="-76.9022330828011035919189453125">
        <ele>382.600006103515625</ele>
        <time>2021-07-25T07:35:40.000Z</time>
      </trkpt>
      <trkpt lat="-12.02018517069518566131591796875" lon="-76.90210157074034214019775390625">
        <ele>383</ele>
        <time>2021-07-25T07:35:43.000Z</time>
      </trkpt>
      <trkpt lat="-12.020130269229412078857421875" lon="-76.90192806534469127655029296875">
        <ele>383.79998779296875</ele>
        <time>2021-07-25T07:35:47.000Z</time>
      </trkpt>
      <trkpt lat="-12.02007628977298736572265625" lon="-76.9017754308879375457763671875">
        <ele>384.399993896484375</ele>
        <time>2021-07-25T07:35:51.000Z</time>
      </trkpt>
      <trkpt lat="-12.02004133723676204681396484375" lon="-76.9016768597066402435302734375">
        <ele>385</ele>
        <time>2021-07-25T07:35:54.000Z</time>
      </trkpt>
      <trkpt lat="-12.01999741606414318084716796875" lon="-76.90155356191098690032958984375">
        <ele>385.399993896484375</ele>
        <time>2021-07-25T07:35:57.000Z</time>
      </trkpt>
      <trkpt lat="-12.019984088838100433349609375" lon="-76.9014602713286876678466796875">
        <ele>386.20001220703125</ele>
        <time>2021-07-25T07:35:59.000Z</time>
      </trkpt>
      <trkpt lat="-12.019957266747951507568359375" lon="-76.9013677351176738739013671875">
        <ele>386.20001220703125</ele>
        <time>2021-07-25T07:36:01.000Z</time>
      </trkpt>
      <trkpt lat="-12.0199286006391048431396484375" lon="-76.90128316171467304229736328125">
        <ele>386.399993896484375</ele>
        <time>2021-07-25T07:36:03.000Z</time>
      </trkpt>
      <trkpt lat="-12.01988761313259601593017578125" lon="-76.9011615402996540069580078125">
        <ele>387.20001220703125</ele>
        <time>2021-07-25T07:36:06.000Z</time>
      </trkpt>
      <trkpt lat="-12.0198498107492923736572265625" lon="-76.90102298744022846221923828125">
        <ele>387.399993896484375</ele>
        <time>2021-07-25T07:36:09.000Z</time>
      </trkpt>
      <trkpt lat="-12.01980664394795894622802734375" lon="-76.90088200382888317108154296875">
        <ele>387.79998779296875</ele>
        <time>2021-07-25T07:36:12.000Z</time>
      </trkpt>
      <trkpt lat="-12.01976942829787731170654296875" lon="-76.900753676891326904296875">
        <ele>388</ele>
        <time>2021-07-25T07:36:15.000Z</time>
      </trkpt>
      <trkpt lat="-12.01975735835731029510498046875" lon="-76.90071067772805690765380859375">
        <ele>388.20001220703125</ele>
        <time>2021-07-25T07:36:16.000Z</time>
      </trkpt>
      <trkpt lat="-12.0196399278938770294189453125" lon="-76.90038261003792285919189453125">
        <ele>389.20001220703125</ele>
        <time>2021-07-25T07:36:23.000Z</time>
      </trkpt>
      <trkpt lat="-12.0196241699159145355224609375" lon="-76.9003330729901790618896484375">
        <ele>389.399993896484375</ele>
        <time>2021-07-25T07:36:24.000Z</time>
      </trkpt>
      <trkpt lat="-12.01953272335231304168701171875" lon="-76.9000283069908618927001953125">
        <ele>389.600006103515625</ele>
        <time>2021-07-25T07:36:30.000Z</time>
      </trkpt>
      <trkpt lat="-12.01946214772760868072509765625" lon="-76.8997785262763500213623046875">
        <ele>390.399993896484375</ele>
        <time>2021-07-25T07:36:35.000Z</time>
      </trkpt>
      <trkpt lat="-12.01944756321609020233154296875" lon="-76.89972965978085994720458984375">
        <ele>390.399993896484375</ele>
        <time>2021-07-25T07:36:36.000Z</time>
      </trkpt>
      <trkpt lat="-12.01927791349589824676513671875" lon="-76.89920629374682903289794921875">
        <ele>391.20001220703125</ele>
        <time>2021-07-25T07:36:46.000Z</time>
      </trkpt>
      <trkpt lat="-12.0192593894898891448974609375" lon="-76.89915332011878490447998046875">
        <ele>391.399993896484375</ele>
        <time>2021-07-25T07:36:47.000Z</time>
      </trkpt>
      <trkpt lat="-12.01913525350391864776611328125" lon="-76.8987780623137950897216796875">
        <ele>392</ele>
        <time>2021-07-25T07:36:54.000Z</time>
      </trkpt>
      <trkpt lat="-12.01908512972295284271240234375" lon="-76.89862006343901157379150390625">
        <ele>392.399993896484375</ele>
        <time>2021-07-25T07:36:57.000Z</time>
      </trkpt>
      <trkpt lat="-12.01896141283214092254638671875" lon="-76.89825260080397129058837890625">
        <ele>393.399993896484375</ele>
        <time>2021-07-25T07:37:04.000Z</time>
      </trkpt>
      <trkpt lat="-12.01892687939107418060302734375" lon="-76.89814883284270763397216796875">
        <ele>393.600006103515625</ele>
        <time>2021-07-25T07:37:06.000Z</time>
      </trkpt>
      <trkpt lat="-12.01881271786987781524658203125" lon="-76.897777430713176727294921875">
        <ele>394.600006103515625</ele>
        <time>2021-07-25T07:37:13.000Z</time>
      </trkpt>
      <trkpt lat="-12.018795199692249298095703125" lon="-76.89772554673254489898681640625">
        <ele>394.600006103515625</ele>
        <time>2021-07-25T07:37:14.000Z</time>
      </trkpt>
      <trkpt lat="-12.018706016242504119873046875" lon="-76.8974191881716251373291015625">
        <ele>395.399993896484375</ele>
        <time>2021-07-25T07:37:20.000Z</time>
      </trkpt>
      <trkpt lat="-12.01864860020577907562255859375" lon="-76.8972681462764739990234375">
        <ele>395.79998779296875</ele>
        <time>2021-07-25T07:37:23.000Z</time>
      </trkpt>
      <trkpt lat="-12.0185838080942630767822265625" lon="-76.89706220291554927825927734375">
        <ele>396.399993896484375</ele>
        <time>2021-07-25T07:37:27.000Z</time>
      </trkpt>
      <trkpt lat="-12.0185345225036144256591796875" lon="-76.8969102390110492706298828125">
        <ele>396.79998779296875</ele>
        <time>2021-07-25T07:37:30.000Z</time>
      </trkpt>
      <trkpt lat="-12.0184621028602123260498046875" lon="-76.89670597203075885772705078125">
        <ele>397.20001220703125</ele>
        <time>2021-07-25T07:37:34.000Z</time>
      </trkpt>
      <trkpt lat="-12.01837635599076747894287109375" lon="-76.8963991105556488037109375">
        <ele>397.600006103515625</ele>
        <time>2021-07-25T07:37:41.000Z</time>
      </trkpt>
      <trkpt lat="-12.0183484442532062530517578125" lon="-76.89627111889421939849853515625">
        <ele>397.79998779296875</ele>
        <time>2021-07-25T07:37:45.000Z</time>
      </trkpt>
      <trkpt lat="-12.01834819279611110687255859375" lon="-76.89626055769622325897216796875">
        <ele>398</ele>
        <time>2021-07-25T07:37:46.000Z</time>
      </trkpt>
      <trkpt lat="-12.01832371763885021209716796875" lon="-76.89622669480741024017333984375">
        <ele>398</ele>
        <time>2021-07-25T07:38:46.000Z</time>
      </trkpt>
      <trkpt lat="-12.018315084278583526611328125" lon="-76.89620934426784515380859375">
        <ele>398</ele>
        <time>2021-07-25T07:38:47.000Z</time>
      </trkpt>
      <trkpt lat="-12.01826705597341060638427734375" lon="-76.8960619904100894927978515625">
        <ele>398.20001220703125</ele>
        <time>2021-07-25T07:38:52.000Z</time>
      </trkpt>
      <trkpt lat="-12.018155157566070556640625" lon="-76.8957300670444965362548828125">
        <ele>398.600006103515625</ele>
        <time>2021-07-25T07:39:00.000Z</time>
      </trkpt>
      <trkpt lat="-12.01805499382317066192626953125" lon="-76.89538749866187572479248046875">
        <ele>398.600006103515625</ele>
        <time>2021-07-25T07:39:07.000Z</time>
      </trkpt>
      <trkpt lat="-12.0180145092308521270751953125" lon="-76.89523612149059772491455078125">
        <ele>399</ele>
        <time>2021-07-25T07:39:10.000Z</time>
      </trkpt>
      <trkpt lat="-12.0179472863674163818359375" lon="-76.8950290046632289886474609375">
        <ele>399</ele>
        <time>2021-07-25T07:39:14.000Z</time>
      </trkpt>
      <trkpt lat="-12.017929516732692718505859375" lon="-76.89497795887291431427001953125">
        <ele>399.20001220703125</ele>
        <time>2021-07-25T07:39:15.000Z</time>
      </trkpt>
      <trkpt lat="-12.0178240723907947540283203125" lon="-76.89465911127626895904541015625">
        <ele>399.600006103515625</ele>
        <time>2021-07-25T07:39:21.000Z</time>
      </trkpt>
      <trkpt lat="-12.01779783703386783599853515625" lon="-76.89455433748662471771240234375">
        <ele>399.600006103515625</ele>
        <time>2021-07-25T07:39:23.000Z</time>
      </trkpt>
      <trkpt lat="-12.01768049038946628570556640625" lon="-76.8942104279994964599609375">
        <ele>400</ele>
        <time>2021-07-25T07:39:29.000Z</time>
      </trkpt>
      <trkpt lat="-12.01766096055507659912109375" lon="-76.8941549398005008697509765625">
        <ele>400</ele>
        <time>2021-07-25T07:39:30.000Z</time>
      </trkpt>
      <trkpt lat="-12.01753950677812099456787109375" lon="-76.89375671558082103729248046875">
        <ele>400</ele>
        <time>2021-07-25T07:39:37.000Z</time>
      </trkpt>
      <trkpt lat="-12.0174837671220302581787109375" lon="-76.8935802765190601348876953125">
        <ele>400</ele>
        <time>2021-07-25T07:39:40.000Z</time>
      </trkpt>
      <trkpt lat="-12.0173064060509204864501953125" lon="-76.8930508755147457122802734375">
        <ele>400.20001220703125</ele>
        <time>2021-07-25T07:39:49.000Z</time>
      </trkpt>
      <trkpt lat="-12.01714589260518550872802734375" lon="-76.8925855122506618499755859375">
        <ele>401</ele>
        <time>2021-07-25T07:39:57.000Z</time>
      </trkpt>
      <trkpt lat="-12.01711102388799190521240234375" lon="-76.8924685008823871612548828125">
        <ele>401.20001220703125</ele>
        <time>2021-07-25T07:39:59.000Z</time>
      </trkpt>
      <trkpt lat="-12.01699669472873210906982421875" lon="-76.89213800244033336639404296875">
        <ele>402</ele>
        <time>2021-07-25T07:40:05.000Z</time>
      </trkpt>
      <trkpt lat="-12.01694590039551258087158203125" lon="-76.891977153718471527099609375">
        <ele>402.600006103515625</ele>
        <time>2021-07-25T07:40:08.000Z</time>
      </trkpt>
      <trkpt lat="-12.01688806526362895965576171875" lon="-76.89181186258792877197265625">
        <ele>403.399993896484375</ele>
        <time>2021-07-25T07:40:11.000Z</time>
      </trkpt>
      <trkpt lat="-12.0168108679354190826416015625" lon="-76.891593597829341888427734375">
        <ele>403.79998779296875</ele>
        <time>2021-07-25T07:40:15.000Z</time>
      </trkpt>
      <trkpt lat="-12.01679418794810771942138671875" lon="-76.89153291285037994384765625">
        <ele>403.79998779296875</ele>
        <time>2021-07-25T07:40:16.000Z</time>
      </trkpt>
      <trkpt lat="-12.01660827733576297760009765625" lon="-76.89100678078830242156982421875">
        <ele>404.20001220703125</ele>
        <time>2021-07-25T07:40:25.000Z</time>
      </trkpt>
      <trkpt lat="-12.01642253436148166656494140625" lon="-76.8904648907482624053955078125">
        <ele>404</ele>
        <time>2021-07-25T07:40:34.000Z</time>
      </trkpt>
      <trkpt lat="-12.01638179831206798553466796875" lon="-76.89034511335194110870361328125">
        <ele>404.20001220703125</ele>
        <time>2021-07-25T07:40:36.000Z</time>
      </trkpt>
      <trkpt lat="-12.016269899904727935791015625" lon="-76.8899993598461151123046875">
        <ele>404</ele>
        <time>2021-07-25T07:40:42.000Z</time>
      </trkpt>
      <trkpt lat="-12.0162543095648288726806640625" lon="-76.88993942923843860626220703125">
        <ele>404</ele>
        <time>2021-07-25T07:40:43.000Z</time>
      </trkpt>
      <trkpt lat="-12.0162360370159149169921875" lon="-76.8898808397352695465087890625">
        <ele>404.399993896484375</ele>
        <time>2021-07-25T07:40:44.000Z</time>
      </trkpt>
      <trkpt lat="-12.0161037705838680267333984375" lon="-76.88947959803044795989990234375">
        <ele>405</ele>
        <time>2021-07-25T07:40:51.000Z</time>
      </trkpt>
      <trkpt lat="-12.01594837009906768798828125" lon="-76.88902345485985279083251953125">
        <ele>405.600006103515625</ele>
        <time>2021-07-25T07:40:59.000Z</time>
      </trkpt>
      <trkpt lat="-12.0159270800650119781494140625" lon="-76.88896679319441318511962890625">
        <ele>405.79998779296875</ele>
        <time>2021-07-25T07:41:00.000Z</time>
      </trkpt>
      <trkpt lat="-12.01579741202294826507568359375" lon="-76.88857770524919033050537109375">
        <ele>406.20001220703125</ele>
        <time>2021-07-25T07:41:07.000Z</time>
      </trkpt>
      <trkpt lat="-12.01568685472011566162109375" lon="-76.88825483433902263641357421875">
        <ele>406.600006103515625</ele>
        <time>2021-07-25T07:41:13.000Z</time>
      </trkpt>
      <trkpt lat="-12.0156675763428211212158203125" lon="-76.88820018433034420013427734375">
        <ele>406.600006103515625</ele>
        <time>2021-07-25T07:41:14.000Z</time>
      </trkpt>
      <trkpt lat="-12.01556221581995487213134765625" lon="-76.88788644969463348388671875">
        <ele>407</ele>
        <time>2021-07-25T07:41:20.000Z</time>
      </trkpt>
      <trkpt lat="-12.0154667459428310394287109375" lon="-76.88761797733604907989501953125">
        <ele>407.79998779296875</ele>
        <time>2021-07-25T07:41:25.000Z</time>
      </trkpt>
      <trkpt lat="-12.01544621028006076812744140625" lon="-76.88756617717444896697998046875">
        <ele>408</ele>
        <time>2021-07-25T07:41:26.000Z</time>
      </trkpt>
      <trkpt lat="-12.01529047451913356781005859375" lon="-76.8870836310088634490966796875">
        <ele>408.79998779296875</ele>
        <time>2021-07-25T07:41:35.000Z</time>
      </trkpt>
      <trkpt lat="-12.01516457833349704742431640625" lon="-76.88671072013676166534423828125">
        <ele>409.399993896484375</ele>
        <time>2021-07-25T07:41:42.000Z</time>
      </trkpt>
      <trkpt lat="-12.015093751251697540283203125" lon="-76.886498741805553436279296875">
        <ele>409.79998779296875</ele>
        <time>2021-07-25T07:41:46.000Z</time>
      </trkpt>
      <trkpt lat="-12.01498545706272125244140625" lon="-76.88618886284530162811279296875">
        <ele>410.600006103515625</ele>
        <time>2021-07-25T07:41:52.000Z</time>
      </trkpt>
      <trkpt lat="-12.01491597108542919158935546875" lon="-76.88597738742828369140625">
        <ele>411</ele>
        <time>2021-07-25T07:41:56.000Z</time>
      </trkpt>
      <trkpt lat="-12.01486031524837017059326171875" lon="-76.88581452704966068267822265625">
        <ele>411.399993896484375</ele>
        <time>2021-07-25T07:41:59.000Z</time>
      </trkpt>
      <trkpt lat="-12.0147554576396942138671875" lon="-76.88549819402396678924560546875">
        <ele>412</ele>
        <time>2021-07-25T07:42:05.000Z</time>
      </trkpt>
      <trkpt lat="-12.0146845467388629913330078125" lon="-76.88528981991112232208251953125">
        <ele>412.600006103515625</ele>
        <time>2021-07-25T07:42:09.000Z</time>
      </trkpt>
      <trkpt lat="-12.0146168209612369537353515625" lon="-76.885088570415973663330078125">
        <ele>413.20001220703125</ele>
        <time>2021-07-25T07:42:13.000Z</time>
      </trkpt>
      <trkpt lat="-12.014566697180271148681640625" lon="-76.88493241555988788604736328125">
        <ele>413.600006103515625</ele>
        <time>2021-07-25T07:42:16.000Z</time>
      </trkpt>
      <trkpt lat="-12.01447776518762111663818359375" lon="-76.88468062318861484527587890625">
        <ele>414.20001220703125</ele>
        <time>2021-07-25T07:42:21.000Z</time>
      </trkpt>
      <trkpt lat="-12.0144304074347019195556640625" lon="-76.88452421687543392181396484375">
        <ele>414.79998779296875</ele>
        <time>2021-07-25T07:42:24.000Z</time>
      </trkpt>
      <trkpt lat="-12.0143343508243560791015625" lon="-76.88427074812352657318115234375">
        <ele>415.399993896484375</ele>
        <time>2021-07-25T07:42:29.000Z</time>
      </trkpt>
      <trkpt lat="-12.01428565196692943572998046875" lon="-76.884110234677791595458984375">
        <ele>415.600006103515625</ele>
        <time>2021-07-25T07:42:32.000Z</time>
      </trkpt>
      <trkpt lat="-12.0141524635255336761474609375" lon="-76.88373430632054805755615234375">
        <ele>416</ele>
        <time>2021-07-25T07:42:39.000Z</time>
      </trkpt>
      <trkpt lat="-12.01413645409047603607177734375" lon="-76.88367898575961589813232421875">
        <ele>416.20001220703125</ele>
        <time>2021-07-25T07:42:40.000Z</time>
      </trkpt>
      <trkpt lat="-12.01408565975725650787353515625" lon="-76.88351252116262912750244140625">
        <ele>416.399993896484375</ele>
        <time>2021-07-25T07:42:43.000Z</time>
      </trkpt>
      <trkpt lat="-12.01399530284106731414794921875" lon="-76.883237175643444061279296875">
        <ele>417</ele>
        <time>2021-07-25T07:42:48.000Z</time>
      </trkpt>
      <trkpt lat="-12.01389807276427745819091796875" lon="-76.882970631122589111328125">
        <ele>417.600006103515625</ele>
        <time>2021-07-25T07:42:53.000Z</time>
      </trkpt>
      <trkpt lat="-12.01384878717362880706787109375" lon="-76.8828108720481395721435546875">
        <ele>418</ele>
        <time>2021-07-25T07:42:56.000Z</time>
      </trkpt>
      <trkpt lat="-12.01375742442905902862548828125" lon="-76.882540471851825714111328125">
        <ele>418.600006103515625</ele>
        <time>2021-07-25T07:43:01.000Z</time>
      </trkpt>
      <trkpt lat="-12.01369472779333591461181640625" lon="-76.88231416046619415283203125">
        <ele>419</ele>
        <time>2021-07-25T07:43:05.000Z</time>
      </trkpt>
      <trkpt lat="-12.01357067562639713287353515625" lon="-76.88194694928824901580810546875">
        <ele>419.600006103515625</ele>
        <time>2021-07-25T07:43:12.000Z</time>
      </trkpt>
      <trkpt lat="-12.01355424709618091583251953125" lon="-76.881895400583744049072265625">
        <ele>419.79998779296875</ele>
        <time>2021-07-25T07:43:13.000Z</time>
      </trkpt>
      <trkpt lat="-12.01344544999301433563232421875" lon="-76.88157814554870128631591796875">
        <ele>420.79998779296875</ele>
        <time>2021-07-25T07:43:19.000Z</time>
      </trkpt>
      <trkpt lat="-12.013428099453449249267578125" lon="-76.88152366317808628082275390625">
        <ele>420.79998779296875</ele>
        <time>2021-07-25T07:43:20.000Z</time>
      </trkpt>
      <trkpt lat="-12.01332173310220241546630859375" lon="-76.88121252693235874176025390625">
        <ele>421.79998779296875</ele>
        <time>2021-07-25T07:43:26.000Z</time>
      </trkpt>
      <trkpt lat="-12.0132284425199031829833984375" lon="-76.88094782643020153045654296875">
        <ele>422.399993896484375</ele>
        <time>2021-07-25T07:43:31.000Z</time>
      </trkpt>
      <trkpt lat="-12.013135068118572235107421875" lon="-76.88068262301385402679443359375">
        <ele>422.79998779296875</ele>
        <time>2021-07-25T07:43:36.000Z</time>
      </trkpt>
      <trkpt lat="-12.013056278228759765625" lon="-76.88045279122889041900634765625">
        <ele>423.20001220703125</ele>
        <time>2021-07-25T07:43:40.000Z</time>
      </trkpt>
      <trkpt lat="-12.01295879669487476348876953125" lon="-76.880168728530406951904296875">
        <ele>424</ele>
        <time>2021-07-25T07:43:45.000Z</time>
      </trkpt>
      <trkpt lat="-12.0129208266735076904296875" lon="-76.88006219454109668731689453125">
        <ele>424.399993896484375</ele>
        <time>2021-07-25T07:43:47.000Z</time>
      </trkpt>
      <trkpt lat="-12.0128509216010570526123046875" lon="-76.87984158284962177276611328125">
        <ele>425</ele>
        <time>2021-07-25T07:43:51.000Z</time>
      </trkpt>
      <trkpt lat="-12.01275981031358242034912109375" lon="-76.8795640580356121063232421875">
        <ele>425.600006103515625</ele>
        <time>2021-07-25T07:43:56.000Z</time>
      </trkpt>
      <trkpt lat="-12.01269879005849361419677734375" lon="-76.87939717434346675872802734375">
        <ele>426.20001220703125</ele>
        <time>2021-07-25T07:43:59.000Z</time>
      </trkpt>
      <trkpt lat="-12.01258261688053607940673828125" lon="-76.87906206585466861724853515625">
        <ele>426.600006103515625</ele>
        <time>2021-07-25T07:44:05.000Z</time>
      </trkpt>
      <trkpt lat="-12.01247214339673519134521484375" lon="-76.87872092239558696746826171875">
        <ele>427.20001220703125</ele>
        <time>2021-07-25T07:44:11.000Z</time>
      </trkpt>
      <trkpt lat="-12.01245252974331378936767578125" lon="-76.87866409309208393096923828125">
        <ele>427.20001220703125</ele>
        <time>2021-07-25T07:44:12.000Z</time>
      </trkpt>
      <trkpt lat="-12.0123295672237873077392578125" lon="-76.87826511450111865997314453125">
        <ele>428.20001220703125</ele>
        <time>2021-07-25T07:44:19.000Z</time>
      </trkpt>
      <trkpt lat="-12.0122690498828887939453125" lon="-76.87809714116156101226806640625">
        <ele>428.399993896484375</ele>
        <time>2021-07-25T07:44:22.000Z</time>
      </trkpt>
      <trkpt lat="-12.01210283674299716949462890625" lon="-76.8775973282754421234130859375">
        <ele>429.20001220703125</ele>
        <time>2021-07-25T07:44:31.000Z</time>
      </trkpt>
      <trkpt lat="-12.0120854862034320831298828125" lon="-76.87754292972385883331298828125">
        <ele>429.399993896484375</ele>
        <time>2021-07-25T07:44:32.000Z</time>
      </trkpt>
      <trkpt lat="-12.0119507052004337310791015625" lon="-76.87711847014725208282470703125">
        <ele>430.399993896484375</ele>
        <time>2021-07-25T07:44:40.000Z</time>
      </trkpt>
      <trkpt lat="-12.0119332708418369293212890625" lon="-76.87706264667212963104248046875">
        <ele>430.600006103515625</ele>
        <time>2021-07-25T07:44:41.000Z</time>
      </trkpt>
      <trkpt lat="-12.0118077099323272705078125" lon="-76.8766940943896770477294921875">
        <ele>431.600006103515625</ele>
        <time>2021-07-25T07:44:48.000Z</time>
      </trkpt>
      <trkpt lat="-12.01173805631697177886962890625" lon="-76.876479685306549072265625">
        <ele>432</ele>
        <time>2021-07-25T07:44:52.000Z</time>
      </trkpt>
      <trkpt lat="-12.0116119086742401123046875" lon="-76.87609001062810420989990234375">
        <ele>432.79998779296875</ele>
        <time>2021-07-25T07:44:59.000Z</time>
      </trkpt>
      <trkpt lat="-12.01157511211931705474853515625" lon="-76.8759776093065738677978515625">
        <ele>432.79998779296875</ele>
        <time>2021-07-25T07:45:01.000Z</time>
      </trkpt>
      <trkpt lat="-12.011382579803466796875" lon="-76.87540906481444835662841796875">
        <ele>433.79998779296875</ele>
        <time>2021-07-25T07:45:11.000Z</time>
      </trkpt>
      <trkpt lat="-12.01136388815939426422119140625" lon="-76.87535156495869159698486328125">
        <ele>434</ele>
        <time>2021-07-25T07:45:12.000Z</time>
      </trkpt>
      <trkpt lat="-12.0112298615276813507080078125" lon="-76.87494923360645771026611328125">
        <ele>434.600006103515625</ele>
        <time>2021-07-25T07:45:19.000Z</time>
      </trkpt>
      <trkpt lat="-12.01117244549095630645751953125" lon="-76.87477908097207546234130859375">
        <ele>435</ele>
        <time>2021-07-25T07:45:22.000Z</time>
      </trkpt>
      <trkpt lat="-12.011083848774433135986328125" lon="-76.874491162598133087158203125">
        <ele>435.600006103515625</ele>
        <time>2021-07-25T07:45:27.000Z</time>
      </trkpt>
      <trkpt lat="-12.01103112660348415374755859375" lon="-76.87432520091533660888671875">
        <ele>436</ele>
        <time>2021-07-25T07:45:30.000Z</time>
      </trkpt>
      <trkpt lat="-12.0109405182301998138427734375" lon="-76.8740507774055004119873046875">
        <ele>437</ele>
        <time>2021-07-25T07:45:35.000Z</time>
      </trkpt>
      <trkpt lat="-12.010921575129032135009765625" lon="-76.87399436719715595245361328125">
        <ele>437.20001220703125</ele>
        <time>2021-07-25T07:45:36.000Z</time>
      </trkpt>
      <trkpt lat="-12.0107618160545825958251953125" lon="-76.87347167171537876129150390625">
        <ele>437.79998779296875</ele>
        <time>2021-07-25T07:45:45.000Z</time>
      </trkpt>
      <trkpt lat="-12.01072879135608673095703125" lon="-76.87335398979485034942626953125">
        <ele>438.20001220703125</ele>
        <time>2021-07-25T07:45:47.000Z</time>
      </trkpt>
      <trkpt lat="-12.01064740307629108428955078125" lon="-76.872997842729091644287109375">
        <ele>439</ele>
        <time>2021-07-25T07:45:53.000Z</time>
      </trkpt>
      <trkpt lat="-12.0106176473200321197509765625" lon="-76.87288083136081695556640625">
        <ele>439.399993896484375</ele>
        <time>2021-07-25T07:45:55.000Z</time>
      </trkpt>
      <trkpt lat="-12.01055034063756465911865234375" lon="-76.87252418138086795806884765625">
        <ele>439.79998779296875</ele>
        <time>2021-07-25T07:46:01.000Z</time>
      </trkpt>
      <trkpt lat="-12.01049367897212505340576171875" lon="-76.87222695909440517425537109375">
        <ele>440.399993896484375</ele>
        <time>2021-07-25T07:46:06.000Z</time>
      </trkpt>
      <trkpt lat="-12.01045009307563304901123046875" lon="-76.87205781228840351104736328125">
        <ele>440.79998779296875</ele>
        <time>2021-07-25T07:46:09.000Z</time>
      </trkpt>
      <trkpt lat="-12.01038253493607044219970703125" lon="-76.87177835963666439056396484375">
        <ele>441.600006103515625</ele>
        <time>2021-07-25T07:46:14.000Z</time>
      </trkpt>
      <trkpt lat="-12.01037532649934291839599609375" lon="-76.8717308342456817626953125">
        <ele>441.79998779296875</ele>
        <time>2021-07-25T07:46:15.000Z</time>
      </trkpt>
      <trkpt lat="-12.010369710624217987060546875" lon="-76.87168615870177745819091796875">
        <ele>441.79998779296875</ele>
        <time>2021-07-25T07:46:16.000Z</time>
      </trkpt>
      <trkpt lat="-12.01032788492739200592041015625" lon="-76.8713982403278350830078125">
        <ele>442.399993896484375</ele>
        <time>2021-07-25T07:46:22.000Z</time>
      </trkpt>
      <trkpt lat="-12.01031195931136608123779296875" lon="-76.8713507987558841705322265625">
        <ele>442.399993896484375</ele>
        <time>2021-07-25T07:46:23.000Z</time>
      </trkpt>
      <trkpt lat="-12.0102998055517673492431640625" lon="-76.87130226753652095794677734375">
        <ele>442.600006103515625</ele>
        <time>2021-07-25T07:46:24.000Z</time>
      </trkpt>
      <trkpt lat="-12.01029569841921329498291015625" lon="-76.8712495453655719757080078125">
        <ele>442.600006103515625</ele>
        <time>2021-07-25T07:46:25.000Z</time>
      </trkpt>
      <trkpt lat="-12.010290920734405517578125" lon="-76.87114368192851543426513671875">
        <ele>443</ele>
        <time>2021-07-25T07:46:27.000Z</time>
      </trkpt>
      <trkpt lat="-12.0102357678115367889404296875" lon="-76.87081192620098590850830078125">
        <ele>443.399993896484375</ele>
        <time>2021-07-25T07:46:33.000Z</time>
      </trkpt>
      <trkpt lat="-12.01020617969334125518798828125" lon="-76.8706386722624301910400390625">
        <ele>443.79998779296875</ele>
        <time>2021-07-25T07:46:36.000Z</time>
      </trkpt>
      <trkpt lat="-12.01014415360987186431884765625" lon="-76.8702958524227142333984375">
        <ele>444.20001220703125</ele>
        <time>2021-07-25T07:46:42.000Z</time>
      </trkpt>
      <trkpt lat="-12.010071314871311187744140625" lon="-76.86989813111722469329833984375">
        <ele>444.399993896484375</ele>
        <time>2021-07-25T07:46:49.000Z</time>
      </trkpt>
      <trkpt lat="-12.01002529822289943695068359375" lon="-76.8696708977222442626953125">
        <ele>444.79998779296875</ele>
        <time>2021-07-25T07:46:53.000Z</time>
      </trkpt>
      <trkpt lat="-12.00999177061021327972412109375" lon="-76.8694965541362762451171875">
        <ele>445</ele>
        <time>2021-07-25T07:46:56.000Z</time>
      </trkpt>
      <trkpt lat="-12.0098979771137237548828125" lon="-76.86897779814898967742919921875">
        <ele>445.79998779296875</ele>
        <time>2021-07-25T07:47:05.000Z</time>
      </trkpt>
      <trkpt lat="-12.00985413976013660430908203125" lon="-76.8687477149069309234619140625">
        <ele>446</ele>
        <time>2021-07-25T07:47:09.000Z</time>
      </trkpt>
      <trkpt lat="-12.00980904512107372283935546875" lon="-76.86851746402680873870849609375">
        <ele>446.399993896484375</ele>
        <time>2021-07-25T07:47:13.000Z</time>
      </trkpt>
      <trkpt lat="-12.00976763851940631866455078125" lon="-76.86824060976505279541015625">
        <ele>447</ele>
        <time>2021-07-25T07:47:18.000Z</time>
      </trkpt>
      <trkpt lat="-12.0097585022449493408203125" lon="-76.8681864626705646514892578125">
        <ele>447</ele>
        <time>2021-07-25T07:47:19.000Z</time>
      </trkpt>
      <trkpt lat="-12.00968901626765727996826171875" lon="-76.86780835501849651336669921875">
        <ele>448</ele>
        <time>2021-07-25T07:47:26.000Z</time>
      </trkpt>
      <trkpt lat="-12.00968013145029544830322265625" lon="-76.8677552975714206695556640625">
        <ele>448.20001220703125</ele>
        <time>2021-07-25T07:47:27.000Z</time>
      </trkpt>
      <trkpt lat="-12.00958457775413990020751953125" lon="-76.86723880469799041748046875">
        <ele>449</ele>
        <time>2021-07-25T07:47:36.000Z</time>
      </trkpt>
      <trkpt lat="-12.0095487870275974273681640625" lon="-76.86706244945526123046875">
        <ele>449</ele>
        <time>2021-07-25T07:47:39.000Z</time>
      </trkpt>
      <trkpt lat="-12.00948558747768402099609375" lon="-76.866708733141422271728515625">
        <ele>449.399993896484375</ele>
        <time>2021-07-25T07:47:45.000Z</time>
      </trkpt>
      <trkpt lat="-12.00938324443995952606201171875" lon="-76.8661714531481266021728515625">
        <ele>450</ele>
        <time>2021-07-25T07:47:54.000Z</time>
      </trkpt>
      <trkpt lat="-12.00937620364129543304443359375" lon="-76.866112612187862396240234375">
        <ele>450.20001220703125</ele>
        <time>2021-07-25T07:47:55.000Z</time>
      </trkpt>
      <trkpt lat="-12.00927075929939746856689453125" lon="-76.86556301079690456390380859375">
        <ele>450.600006103515625</ele>
        <time>2021-07-25T07:48:04.000Z</time>
      </trkpt>
      <trkpt lat="-12.0092054642736911773681640625" lon="-76.86519135721027851104736328125">
        <ele>451.20001220703125</ele>
        <time>2021-07-25T07:48:10.000Z</time>
      </trkpt>
      <trkpt lat="-12.0091672427952289581298828125" lon="-76.8650103919208049774169921875">
        <ele>451.399993896484375</ele>
        <time>2021-07-25T07:48:13.000Z</time>
      </trkpt>
      <trkpt lat="-12.00911083258688449859619140625" lon="-76.86467058956623077392578125">
        <ele>452.20001220703125</ele>
        <time>2021-07-25T07:48:19.000Z</time>
      </trkpt>
      <trkpt lat="-12.00908602215349674224853515625" lon="-76.86456732451915740966796875">
        <ele>452.399993896484375</ele>
        <time>2021-07-25T07:48:21.000Z</time>
      </trkpt>
      <trkpt lat="-12.00902366079390048980712890625" lon="-76.86428426764905452728271484375">
        <ele>453</ele>
        <time>2021-07-25T07:48:27.000Z</time>
      </trkpt>
      <trkpt lat="-12.0090197212994098663330078125" lon="-76.86422911472618579864501953125">
        <ele>453.20001220703125</ele>
        <time>2021-07-25T07:48:28.000Z</time>
      </trkpt>
      <trkpt lat="-12.0090170390903949737548828125" lon="-76.864170692861080169677734375">
        <ele>453.20001220703125</ele>
        <time>2021-07-25T07:48:29.000Z</time>
      </trkpt>
      <trkpt lat="-12.0089660771191120147705078125" lon="-76.86386835761368274688720703125">
        <ele>453.79998779296875</ele>
        <time>2021-07-25T07:48:34.000Z</time>
      </trkpt>
      <trkpt lat="-12.00890312902629375457763671875" lon="-76.86352319084107875823974609375">
        <ele>454.399993896484375</ele>
        <time>2021-07-25T07:48:40.000Z</time>
      </trkpt>
      <trkpt lat="-12.00888301245868206024169921875" lon="-76.86340735293924808502197265625">
        <ele>454.600006103515625</ele>
        <time>2021-07-25T07:48:42.000Z</time>
      </trkpt>
      <trkpt lat="-12.00880891643464565277099609375" lon="-76.86299982480704784393310546875">
        <ele>455.399993896484375</ele>
        <time>2021-07-25T07:48:49.000Z</time>
      </trkpt>
      <trkpt lat="-12.00875292532145977020263671875" lon="-76.86270947568118572235107421875">
        <ele>456</ele>
        <time>2021-07-25T07:48:54.000Z</time>
      </trkpt>
      <trkpt lat="-12.00870967470109462738037109375" lon="-76.862477548420429229736328125">
        <ele>456.600006103515625</ele>
        <time>2021-07-25T07:48:58.000Z</time>
      </trkpt>
      <trkpt lat="-12.00865603052079677581787109375" lon="-76.86218694783747196197509765625">
        <ele>457.20001220703125</ele>
        <time>2021-07-25T07:49:03.000Z</time>
      </trkpt>
      <trkpt lat="-12.00860825367271900177001953125" lon="-76.86195476911962032318115234375">
        <ele>457.79998779296875</ele>
        <time>2021-07-25T07:49:07.000Z</time>
      </trkpt>
      <trkpt lat="-12.00856500305235385894775390625" lon="-76.86172275803983211517333984375">
        <ele>458.20001220703125</ele>
        <time>2021-07-25T07:49:11.000Z</time>
      </trkpt>
      <trkpt lat="-12.0085077546536922454833984375" lon="-76.86142218299210071563720703125">
        <ele>458.79998779296875</ele>
        <time>2021-07-25T07:49:16.000Z</time>
      </trkpt>
      <trkpt lat="-12.008477412164211273193359375" lon="-76.86130919493734836578369140625">
        <ele>459</ele>
        <time>2021-07-25T07:49:18.000Z</time>
      </trkpt>
      <trkpt lat="-12.0084209181368350982666015625" lon="-76.8609626032412052154541015625">
        <ele>459.79998779296875</ele>
        <time>2021-07-25T07:49:24.000Z</time>
      </trkpt>
      <trkpt lat="-12.00841681100428104400634765625" lon="-76.860904432833194732666015625">
        <ele>460</ele>
        <time>2021-07-25T07:49:25.000Z</time>
      </trkpt>
      <trkpt lat="-12.00834170915186405181884765625" lon="-76.86044351197779178619384765625">
        <ele>460.79998779296875</ele>
        <time>2021-07-25T07:49:33.000Z</time>
      </trkpt>
      <trkpt lat="-12.00823299586772918701171875" lon="-76.859855018556118011474609375">
        <ele>461.79998779296875</ele>
        <time>2021-07-25T07:49:43.000Z</time>
      </trkpt>
      <trkpt lat="-12.00822285376489162445068359375" lon="-76.8597950041294097900390625">
        <ele>461.79998779296875</ele>
        <time>2021-07-25T07:49:44.000Z</time>
      </trkpt>
      <trkpt lat="-12.00821229256689548492431640625" lon="-76.8597359955310821533203125">
        <ele>461.79998779296875</ele>
        <time>2021-07-25T07:49:45.000Z</time>
      </trkpt>
      <trkpt lat="-12.00811238028109073638916015625" lon="-76.85920148156583309173583984375">
        <ele>463</ele>
        <time>2021-07-25T07:49:54.000Z</time>
      </trkpt>
      <trkpt lat="-12.00800509192049503326416015625" lon="-76.858610808849334716796875">
        <ele>463.600006103515625</ele>
        <time>2021-07-25T07:50:04.000Z</time>
      </trkpt>
      <trkpt lat="-12.00798095203936100006103515625" lon="-76.8584882654249668121337890625">
        <ele>464</ele>
        <time>2021-07-25T07:50:06.000Z</time>
      </trkpt>
      <trkpt lat="-12.00788456015288829803466796875" lon="-76.857939921319484710693359375">
        <ele>465</ele>
        <time>2021-07-25T07:50:15.000Z</time>
      </trkpt>
      <trkpt lat="-12.0077838934957981109619140625" lon="-76.85746123082935810089111328125">
        <ele>465.600006103515625</ele>
        <time>2021-07-25T07:50:23.000Z</time>
      </trkpt>
      <trkpt lat="-12.0077235437929630279541015625" lon="-76.85716618783771991729736328125">
        <ele>466</ele>
        <time>2021-07-25T07:50:28.000Z</time>
      </trkpt>
      <trkpt lat="-12.007719688117504119873046875" lon="-76.85710852034389972686767578125">
        <ele>466.20001220703125</ele>
        <time>2021-07-25T07:50:29.000Z</time>
      </trkpt>
      <trkpt lat="-12.00771625153720378875732421875" lon="-76.8570506013929843902587890625">
        <ele>466.20001220703125</ele>
        <time>2021-07-25T07:50:30.000Z</time>
      </trkpt>
      <trkpt lat="-12.0076497830450534820556640625" lon="-76.85663142241537570953369140625">
        <ele>467</ele>
        <time>2021-07-25T07:50:37.000Z</time>
      </trkpt>
      <trkpt lat="-12.007625810801982879638671875" lon="-76.856513321399688720703125">
        <ele>467.20001220703125</ele>
        <time>2021-07-25T07:50:39.000Z</time>
      </trkpt>
      <trkpt lat="-12.007553391158580780029296875" lon="-76.856107302010059356689453125">
        <ele>467.600006103515625</ele>
        <time>2021-07-25T07:50:46.000Z</time>
      </trkpt>
      <trkpt lat="-12.007510475814342498779296875" lon="-76.85587587766349315643310546875">
        <ele>468.20001220703125</ele>
        <time>2021-07-25T07:50:50.000Z</time>
      </trkpt>
      <trkpt lat="-12.00745590962469577789306640625" lon="-76.8555839359760284423828125">
        <ele>468.600006103515625</ele>
        <time>2021-07-25T07:50:55.000Z</time>
      </trkpt>
      <trkpt lat="-12.007364965975284576416015625" lon="-76.85509937815368175506591796875">
        <ele>469.20001220703125</ele>
        <time>2021-07-25T07:51:03.000Z</time>
      </trkpt>
      <trkpt lat="-12.00734476558864116668701171875" lon="-76.85498018749058246612548828125">
        <ele>469.399993896484375</ele>
        <time>2021-07-25T07:51:05.000Z</time>
      </trkpt>
      <trkpt lat="-12.007243596017360687255859375" lon="-76.8544354476034641265869140625">
        <ele>470.20001220703125</ele>
        <time>2021-07-25T07:51:14.000Z</time>
      </trkpt>
      <trkpt lat="-12.007232867181301116943359375" lon="-76.85437484644353389739990234375">
        <ele>470.20001220703125</ele>
        <time>2021-07-25T07:51:15.000Z</time>
      </trkpt>
      <trkpt lat="-12.0072206296026706695556640625" lon="-76.8543150834739208221435546875">
        <ele>470.399993896484375</ele>
        <time>2021-07-25T07:51:16.000Z</time>
      </trkpt>
      <trkpt lat="-12.0071304403245449066162109375" lon="-76.85382231138646602630615234375">
        <ele>471.20001220703125</ele>
        <time>2021-07-25T07:51:24.000Z</time>
      </trkpt>
      <trkpt lat="-12.0071059651672840118408203125" lon="-76.8537010252475738525390625">
        <ele>471.399993896484375</ele>
        <time>2021-07-25T07:51:26.000Z</time>
      </trkpt>
      <trkpt lat="-12.00702927075326442718505859375" lon="-76.85328503139317035675048828125">
        <ele>472</ele>
        <time>2021-07-25T07:51:33.000Z</time>
      </trkpt>
      <trkpt lat="-12.00695970095694065093994140625" lon="-76.85293952934443950653076171875">
        <ele>472.399993896484375</ele>
        <time>2021-07-25T07:51:39.000Z</time>
      </trkpt>
      <trkpt lat="-12.00693338178098201751708984375" lon="-76.85276803560554981231689453125">
        <ele>472.600006103515625</ele>
        <time>2021-07-25T07:51:42.000Z</time>
      </trkpt>
      <trkpt lat="-12.00686850585043430328369140625" lon="-76.8524284847080707550048828125">
        <ele>473.399993896484375</ele>
        <time>2021-07-25T07:51:48.000Z</time>
      </trkpt>
      <trkpt lat="-12.00685861520469188690185546875" lon="-76.8523708172142505645751953125">
        <ele>473.399993896484375</ele>
        <time>2021-07-25T07:51:49.000Z</time>
      </trkpt>
      <trkpt lat="-12.00679088942706584930419921875" lon="-76.85196706093847751617431640625">
        <ele>474</ele>
        <time>2021-07-25T07:51:56.000Z</time>
      </trkpt>
      <trkpt lat="-12.0067210681736469268798828125" lon="-76.8515701778233051300048828125">
        <ele>474.600006103515625</ele>
        <time>2021-07-25T07:52:03.000Z</time>
      </trkpt>
      <trkpt lat="-12.00670924969017505645751953125" lon="-76.8515131808817386627197265625">
        <ele>474.600006103515625</ele>
        <time>2021-07-25T07:52:04.000Z</time>
      </trkpt>
      <trkpt lat="-12.00663733296096324920654296875" lon="-76.851119063794612884521484375">
        <ele>475.600006103515625</ele>
        <time>2021-07-25T07:52:11.000Z</time>
      </trkpt>
      <trkpt lat="-12.00660581700503826141357421875" lon="-76.8509411998093128204345703125">
        <ele>476</ele>
        <time>2021-07-25T07:52:14.000Z</time>
      </trkpt>
      <trkpt lat="-12.006531469523906707763671875" lon="-76.8505388684570789337158203125">
        <ele>476.79998779296875</ele>
        <time>2021-07-25T07:52:21.000Z</time>
      </trkpt>
      <trkpt lat="-12.00650908984243869781494140625" lon="-76.85042244382202625274658203125">
        <ele>477</ele>
        <time>2021-07-25T07:52:23.000Z</time>
      </trkpt>
      <trkpt lat="-12.00641445815563201904296875" lon="-76.84989991597831249237060546875">
        <ele>477.79998779296875</ele>
        <time>2021-07-25T07:52:32.000Z</time>
      </trkpt>
      <trkpt lat="-12.00638855807483196258544921875" lon="-76.8497868441045284271240234375">
        <ele>478.20001220703125</ele>
        <time>2021-07-25T07:52:34.000Z</time>
      </trkpt>
      <trkpt lat="-12.006307505071163177490234375" lon="-76.84930899180471897125244140625">
        <ele>479</ele>
        <time>2021-07-25T07:52:42.000Z</time>
      </trkpt>
      <trkpt lat="-12.00623315759003162384033203125" lon="-76.84890925884246826171875">
        <ele>479.600006103515625</ele>
        <time>2021-07-25T07:52:49.000Z</time>
      </trkpt>
      <trkpt lat="-12.00618118979036808013916015625" lon="-76.8486918322741985321044921875">
        <ele>480</ele>
        <time>2021-07-25T07:52:53.000Z</time>
      </trkpt>
      <trkpt lat="-12.00613073073327541351318359375" lon="-76.84846728108823299407958984375">
        <ele>480.399993896484375</ele>
        <time>2021-07-25T07:52:57.000Z</time>
      </trkpt>
      <trkpt lat="-12.00607608072459697723388671875" lon="-76.8482006527483463287353515625">
        <ele>481.20001220703125</ele>
        <time>2021-07-25T07:53:02.000Z</time>
      </trkpt>
      <trkpt lat="-12.006064094603061676025390625" lon="-76.8481461703777313232421875">
        <ele>481.399993896484375</ele>
        <time>2021-07-25T07:53:03.000Z</time>
      </trkpt>
      <trkpt lat="-12.00600835494697093963623046875" lon="-76.84779471717774868011474609375">
        <ele>481.600006103515625</ele>
        <time>2021-07-25T07:53:09.000Z</time>
      </trkpt>
      <trkpt lat="-12.00594431720674037933349609375" lon="-76.8475029431283473968505859375">
        <ele>482.399993896484375</ele>
        <time>2021-07-25T07:53:14.000Z</time>
      </trkpt>
      <trkpt lat="-12.00588740408420562744140625" lon="-76.84727621264755725860595703125">
        <ele>482.79998779296875</ele>
        <time>2021-07-25T07:53:18.000Z</time>
      </trkpt>
      <trkpt lat="-12.00583107769489288330078125" lon="-76.84699290432035923004150390625">
        <ele>483.399993896484375</ele>
        <time>2021-07-25T07:53:23.000Z</time>
      </trkpt>
      <trkpt lat="-12.00581506825983524322509765625" lon="-76.846936158835887908935546875">
        <ele>483.399993896484375</ele>
        <time>2021-07-25T07:53:24.000Z</time>
      </trkpt>
      <trkpt lat="-12.00566654093563556671142578125" lon="-76.84642544947564601898193359375">
        <ele>484</ele>
        <time>2021-07-25T07:53:33.000Z</time>
      </trkpt>
      <trkpt lat="-12.00556847266852855682373046875" lon="-76.84615354053676128387451171875">
        <ele>484.399993896484375</ele>
        <time>2021-07-25T07:53:38.000Z</time>
      </trkpt>
      <trkpt lat="-12.00549085624516010284423828125" lon="-76.84593443758785724639892578125">
        <ele>484.79998779296875</ele>
        <time>2021-07-25T07:53:42.000Z</time>
      </trkpt>
      <trkpt lat="-12.00527544133365154266357421875" lon="-76.84542976319789886474609375">
        <ele>485.600006103515625</ele>
        <time>2021-07-25T07:53:51.000Z</time>
      </trkpt>
      <trkpt lat="-12.00505633838474750518798828125" lon="-76.84501259587705135345458984375">
        <ele>486.600006103515625</ele>
        <time>2021-07-25T07:53:59.000Z</time>
      </trkpt>
      <trkpt lat="-12.0050306059420108795166015625" lon="-76.84496037662029266357421875">
        <ele>486.79998779296875</ele>
        <time>2021-07-25T07:54:00.000Z</time>
      </trkpt>
      <trkpt lat="-12.004858441650867462158203125" lon="-76.84465033002197742462158203125">
        <ele>487.20001220703125</ele>
        <time>2021-07-25T07:54:06.000Z</time>
      </trkpt>
      <trkpt lat="-12.00476087629795074462890625" lon="-76.8444961868226528167724609375">
        <ele>487.600006103515625</ele>
        <time>2021-07-25T07:54:09.000Z</time>
      </trkpt>
      <trkpt lat="-12.0045739598572254180908203125" lon="-76.844202317297458648681640625">
        <ele>488.600006103515625</ele>
        <time>2021-07-25T07:54:15.000Z</time>
      </trkpt>
      <trkpt lat="-12.004470862448215484619140625" lon="-76.84405504725873470306396484375">
        <ele>488.600006103515625</ele>
        <time>2021-07-25T07:54:18.000Z</time>
      </trkpt>
      <trkpt lat="-12.0042279548943042755126953125" lon="-76.843732260167598724365234375">
        <ele>489.600006103515625</ele>
        <time>2021-07-25T07:54:25.000Z</time>
      </trkpt>
      <trkpt lat="-12.0041545294225215911865234375" lon="-76.84363796375691890716552734375">
        <ele>489.79998779296875</ele>
        <time>2021-07-25T07:54:27.000Z</time>
      </trkpt>
      <trkpt lat="-12.00388647615909576416015625" lon="-76.84332414530217647552490234375">
        <ele>490.399993896484375</ele>
        <time>2021-07-25T07:54:34.000Z</time>
      </trkpt>
      <trkpt lat="-12.0035563968122005462646484375" lon="-76.84294025413691997528076171875">
        <ele>490.600006103515625</ele>
        <time>2021-07-25T07:54:42.000Z</time>
      </trkpt>
      <trkpt lat="-12.00322070159018039703369140625" lon="-76.842541359364986419677734375">
        <ele>490.79998779296875</ele>
        <time>2021-07-25T07:54:50.000Z</time>
      </trkpt>
      <trkpt lat="-12.00313537381589412689208984375" lon="-76.842437088489532470703125">
        <ele>490.79998779296875</ele>
        <time>2021-07-25T07:54:52.000Z</time>
      </trkpt>
      <trkpt lat="-12.00280043296515941619873046875" lon="-76.84203207492828369140625">
        <ele>491.399993896484375</ele>
        <time>2021-07-25T07:55:00.000Z</time>
      </trkpt>
      <trkpt lat="-12.00250840745866298675537109375" lon="-76.84168967418372631072998046875">
        <ele>491.79998779296875</ele>
        <time>2021-07-25T07:55:07.000Z</time>
      </trkpt>
      <trkpt lat="-12.00242877937853336334228515625" lon="-76.84159479103982448577880859375">
        <ele>492</ele>
        <time>2021-07-25T07:55:09.000Z</time>
      </trkpt>
      <trkpt lat="-12.0021479018032550811767578125" lon="-76.84126202948391437530517578125">
        <ele>492.79998779296875</ele>
        <time>2021-07-25T07:55:16.000Z</time>
      </trkpt>
      <trkpt lat="-12.0020684413611888885498046875" lon="-76.84116295538842678070068359375">
        <ele>493</ele>
        <time>2021-07-25T07:55:18.000Z</time>
      </trkpt>
      <trkpt lat="-12.00169318355619907379150390625" lon="-76.8407263420522212982177734375">
        <ele>493.600006103515625</ele>
        <time>2021-07-25T07:55:27.000Z</time>
      </trkpt>
      <trkpt lat="-12.00161053799092769622802734375" lon="-76.840628944337368011474609375">
        <ele>494</ele>
        <time>2021-07-25T07:55:29.000Z</time>
      </trkpt>
      <trkpt lat="-12.00137433595955371856689453125" lon="-76.84035443700850009918212890625">
        <ele>495</ele>
        <time>2021-07-25T07:55:35.000Z</time>
      </trkpt>
      <trkpt lat="-12.00133703649044036865234375" lon="-76.84030883945524692535400390625">
        <ele>495.20001220703125</ele>
        <time>2021-07-25T07:55:36.000Z</time>
      </trkpt>
      <trkpt lat="-12.00106521137058734893798828125" lon="-76.83998513035476207733154296875">
        <ele>496.20001220703125</ele>
        <time>2021-07-25T07:55:43.000Z</time>
      </trkpt>
      <trkpt lat="-12.00102581642568111419677734375" lon="-76.83994062244892120361328125">
        <ele>496.399993896484375</ele>
        <time>2021-07-25T07:55:44.000Z</time>
      </trkpt>
      <trkpt lat="-12.00068869628012180328369140625" lon="-76.83953250758349895477294921875">
        <ele>497.20001220703125</ele>
        <time>2021-07-25T07:55:53.000Z</time>
      </trkpt>
      <trkpt lat="-12.0006508938968181610107421875" lon="-76.83948791585862636566162109375">
        <ele>497.20001220703125</ele>
        <time>2021-07-25T07:55:54.000Z</time>
      </trkpt>
      <trkpt lat="-12.00035392306745052337646484375" lon="-76.83915062807500362396240234375">
        <ele>498</ele>
        <time>2021-07-25T07:56:02.000Z</time>
      </trkpt>
      <trkpt lat="-12.0002378337085247039794921875" lon="-76.83902909047901630401611328125">
        <ele>498.399993896484375</ele>
        <time>2021-07-25T07:56:05.000Z</time>
      </trkpt>
      <trkpt lat="-12.00017287395894527435302734375" lon="-76.8389460258185863494873046875">
        <ele>498.600006103515625</ele>
        <time>2021-07-25T07:56:07.000Z</time>
      </trkpt>
      <trkpt lat="-12.00010699220001697540283203125" lon="-76.83886061422526836395263671875">
        <ele>498.600006103515625</ele>
        <time>2021-07-25T07:56:09.000Z</time>
      </trkpt>
      <trkpt lat="-11.99980323202908039093017578125" lon="-76.83850857429206371307373046875">
        <ele>499.20001220703125</ele>
        <time>2021-07-25T07:56:17.000Z</time>
      </trkpt>
      <trkpt lat="-11.99973131529986858367919921875" lon="-76.83841846883296966552734375">
        <ele>499.399993896484375</ele>
        <time>2021-07-25T07:56:19.000Z</time>
      </trkpt>
      <trkpt lat="-11.99945940636098384857177734375" lon="-76.8381115235388278961181640625">
        <ele>500.20001220703125</ele>
        <time>2021-07-25T07:56:26.000Z</time>
      </trkpt>
      <trkpt lat="-11.99938832782208919525146484375" lon="-76.838022507727146148681640625">
        <ele>500.399993896484375</ele>
        <time>2021-07-25T07:56:28.000Z</time>
      </trkpt>
      <trkpt lat="-11.99916905723512172698974609375" lon="-76.83775604702532291412353515625">
        <ele>501.20001220703125</ele>
        <time>2021-07-25T07:56:34.000Z</time>
      </trkpt>
      <trkpt lat="-11.9990932010114192962646484375" lon="-76.83766518719494342803955078125">
        <ele>501.399993896484375</ele>
        <time>2021-07-25T07:56:36.000Z</time>
      </trkpt>
      <trkpt lat="-11.9988370500504970550537109375" lon="-76.8373564817011356353759765625">
        <ele>502</ele>
        <time>2021-07-25T07:56:43.000Z</time>
      </trkpt>
      <trkpt lat="-11.99869346804916858673095703125" lon="-76.837184317409992218017578125">
        <ele>502.600006103515625</ele>
        <time>2021-07-25T07:56:47.000Z</time>
      </trkpt>
      <trkpt lat="-11.99850956909358501434326171875" lon="-76.83696378953754901885986328125">
        <ele>503</ele>
        <time>2021-07-25T07:56:52.000Z</time>
      </trkpt>
      <trkpt lat="-11.99831779114902019500732421875" lon="-76.83674233965575695037841796875">
        <ele>503.600006103515625</ele>
        <time>2021-07-25T07:56:57.000Z</time>
      </trkpt>
      <trkpt lat="-11.99809022247791290283203125" lon="-76.836467497050762176513671875">
        <ele>504.20001220703125</ele>
        <time>2021-07-25T07:57:03.000Z</time>
      </trkpt>
      <trkpt lat="-11.99794177897274494171142578125" lon="-76.83628720231354236602783203125">
        <ele>504.600006103515625</ele>
        <time>2021-07-25T07:57:07.000Z</time>
      </trkpt>
      <trkpt lat="-11.99774899519979953765869140625" lon="-76.836062483489513397216796875">
        <ele>505.399993896484375</ele>
        <time>2021-07-25T07:57:12.000Z</time>
      </trkpt>
      <trkpt lat="-11.9976317323744297027587890625" lon="-76.8359221704304218292236328125">
        <ele>505.79998779296875</ele>
        <time>2021-07-25T07:57:15.000Z</time>
      </trkpt>
      <trkpt lat="-11.99736225418746471405029296875" lon="-76.8356070108711719512939453125">
        <ele>506.20001220703125</ele>
        <time>2021-07-25T07:57:22.000Z</time>
      </trkpt>
      <trkpt lat="-11.99728111736476421356201171875" lon="-76.8355211801826953887939453125">
        <ele>506.79998779296875</ele>
        <time>2021-07-25T07:57:24.000Z</time>
      </trkpt>
      <trkpt lat="-11.99713510461151599884033203125" lon="-76.83533015660941600799560546875">
        <ele>507</ele>
        <time>2021-07-25T07:57:28.000Z</time>
      </trkpt>
      <trkpt lat="-11.9967925362288951873779296875" lon="-76.83491684496402740478515625">
        <ele>507.79998779296875</ele>
        <time>2021-07-25T07:57:37.000Z</time>
      </trkpt>
      <trkpt lat="-11.996754147112369537353515625" lon="-76.83487233705818653106689453125">
        <ele>507.79998779296875</ele>
        <time>2021-07-25T07:57:38.000Z</time>
      </trkpt>
      <trkpt lat="-11.99649036861956119537353515625" lon="-76.83456153608858585357666015625">
        <ele>508.600006103515625</ele>
        <time>2021-07-25T07:57:45.000Z</time>
      </trkpt>
      <trkpt lat="-11.99638039804995059967041015625" lon="-76.8344261683523654937744140625">
        <ele>509</ele>
        <time>2021-07-25T07:57:48.000Z</time>
      </trkpt>
      <trkpt lat="-11.99620689265429973602294921875" lon="-76.834194660186767578125">
        <ele>509.600006103515625</ele>
        <time>2021-07-25T07:57:53.000Z</time>
      </trkpt>
      <trkpt lat="-11.99586926959455013275146484375" lon="-76.83368780650198459625244140625">
        <ele>510</ele>
        <time>2021-07-25T07:58:03.000Z</time>
      </trkpt>
      <trkpt lat="-11.9956428743898868560791015625" lon="-76.8332827091217041015625">
        <ele>510.79998779296875</ele>
        <time>2021-07-25T07:58:11.000Z</time>
      </trkpt>
      <trkpt lat="-11.99558981694281101226806640625" lon="-76.83318103663623332977294921875">
        <ele>511</ele>
        <time>2021-07-25T07:58:13.000Z</time>
      </trkpt>
      <trkpt lat="-11.99539971537888050079345703125" lon="-76.8328161723911762237548828125">
        <ele>512</ele>
        <time>2021-07-25T07:58:20.000Z</time>
      </trkpt>
      <trkpt lat="-11.99537473730742931365966796875" lon="-76.83276311494410037994384765625">
        <ele>512</ele>
        <time>2021-07-25T07:58:21.000Z</time>
      </trkpt>
      <trkpt lat="-11.9951879046857357025146484375" lon="-76.83233387768268585205078125">
        <ele>513</ele>
        <time>2021-07-25T07:58:29.000Z</time>
      </trkpt>
      <trkpt lat="-11.99514373205602169036865234375" lon="-76.8322312831878662109375">
        <ele>513.20001220703125</ele>
        <time>2021-07-25T07:58:31.000Z</time>
      </trkpt>
      <trkpt lat="-11.99504449032247066497802734375" lon="-76.831981502473354339599609375">
        <ele>514</ele>
        <time>2021-07-25T07:58:36.000Z</time>
      </trkpt>
      <trkpt lat="-11.9950236193835735321044921875" lon="-76.831929199397563934326171875">
        <ele>514.20001220703125</ele>
        <time>2021-07-25T07:58:37.000Z</time>
      </trkpt>
      <trkpt lat="-11.99489026330411434173583984375" lon="-76.831617057323455810546875">
        <ele>515</ele>
        <time>2021-07-25T07:58:43.000Z</time>
      </trkpt>
      <trkpt lat="-11.99480585753917694091796875" lon="-76.8314013071358203887939453125">
        <ele>515.4000244140625</ele>
        <time>2021-07-25T07:58:47.000Z</time>
      </trkpt>
      <trkpt lat="-11.994698904454708099365234375" lon="-76.8311404623091220855712890625">
        <ele>516</ele>
        <time>2021-07-25T07:58:52.000Z</time>
      </trkpt>
      <trkpt lat="-11.9945850782096385955810546875" lon="-76.8308735825121402740478515625">
        <ele>516.5999755859375</ele>
        <time>2021-07-25T07:58:57.000Z</time>
      </trkpt>
      <trkpt lat="-11.994478292763233184814453125" lon="-76.830594800412654876708984375">
        <ele>517.4000244140625</ele>
        <time>2021-07-25T07:59:02.000Z</time>
      </trkpt>
      <trkpt lat="-11.99443194083869457244873046875" lon="-76.83048860169947147369384765625">
        <ele>517.5999755859375</ele>
        <time>2021-07-25T07:59:04.000Z</time>
      </trkpt>
      <trkpt lat="-11.9942794740200042724609375" lon="-76.830112002789974212646484375">
        <ele>518.4000244140625</ele>
        <time>2021-07-25T07:59:11.000Z</time>
      </trkpt>
      <trkpt lat="-11.9942132569849491119384765625" lon="-76.82995341718196868896484375">
        <ele>518.5999755859375</ele>
        <time>2021-07-25T07:59:14.000Z</time>
      </trkpt>
      <trkpt lat="-11.9940335489809513092041015625" lon="-76.8295234255492687225341796875">
        <ele>519.5999755859375</ele>
        <time>2021-07-25T07:59:22.000Z</time>
      </trkpt>
      <trkpt lat="-11.99401100166141986846923828125" lon="-76.8294699490070343017578125">
        <ele>519.79998779296875</ele>
        <time>2021-07-25T07:59:23.000Z</time>
      </trkpt>
      <trkpt lat="-11.99383028782904148101806640625" lon="-76.82903065346181392669677734375">
        <ele>520.79998779296875</ele>
        <time>2021-07-25T07:59:31.000Z</time>
      </trkpt>
      <trkpt lat="-11.99364940635859966278076171875" lon="-76.82859496213495731353759765625">
        <ele>521.79998779296875</ele>
        <time>2021-07-25T07:59:39.000Z</time>
      </trkpt>
      <trkpt lat="-11.99362627230584621429443359375" lon="-76.82853964157402515411376953125">
        <ele>521.79998779296875</ele>
        <time>2021-07-25T07:59:40.000Z</time>
      </trkpt>
      <trkpt lat="-11.99343918822705745697021484375" lon="-76.82809305377304553985595703125">
        <ele>522.79998779296875</ele>
        <time>2021-07-25T07:59:48.000Z</time>
      </trkpt>
      <trkpt lat="-11.99339107610285282135009765625" lon="-76.8279814906418323516845703125">
        <ele>523</ele>
        <time>2021-07-25T07:59:50.000Z</time>
      </trkpt>
      <trkpt lat="-11.99320835061371326446533203125" lon="-76.8275375850498676300048828125">
        <ele>523.79998779296875</ele>
        <time>2021-07-25T07:59:58.000Z</time>
      </trkpt>
      <trkpt lat="-11.99316208250820636749267578125" lon="-76.82742686010897159576416015625">
        <ele>524</ele>
        <time>2021-07-25T08:00:00.000Z</time>
      </trkpt>
      <trkpt lat="-11.992999725043773651123046875" lon="-76.82704112492501735687255859375">
        <ele>524.5999755859375</ele>
        <time>2021-07-25T08:00:07.000Z</time>
      </trkpt>
      <trkpt lat="-11.99293174780905246734619140625" lon="-76.8268660269677639007568359375">
        <ele>525</ele>
        <time>2021-07-25T08:00:10.000Z</time>
      </trkpt>
      <trkpt lat="-11.99285999871790409088134765625" lon="-76.82669662870466709136962890625">
        <ele>525.20001220703125</ele>
        <time>2021-07-25T08:00:13.000Z</time>
      </trkpt>
      <trkpt lat="-11.99272454716265201568603515625" lon="-76.826356239616870880126953125">
        <ele>526</ele>
        <time>2021-07-25T08:00:19.000Z</time>
      </trkpt>
      <trkpt lat="-11.99258406646549701690673828125" lon="-76.82603093795478343963623046875">
        <ele>526.79998779296875</ele>
        <time>2021-07-25T08:00:25.000Z</time>
      </trkpt>
      <trkpt lat="-11.99254341423511505126953125" lon="-76.82592649944126605987548828125">
        <ele>527</ele>
        <time>2021-07-25T08:00:27.000Z</time>
      </trkpt>
      <trkpt lat="-11.992437802255153656005859375" lon="-76.82565760798752307891845703125">
        <ele>527.5999755859375</ele>
        <time>2021-07-25T08:00:32.000Z</time>
      </trkpt>
      <trkpt lat="-11.99234250001609325408935546875" lon="-76.82544336654245853424072265625">
        <ele>528.20001220703125</ele>
        <time>2021-07-25T08:00:36.000Z</time>
      </trkpt>
      <trkpt lat="-11.99225298129022121429443359375" lon="-76.82522200047969818115234375">
        <ele>529.20001220703125</ele>
        <time>2021-07-25T08:00:40.000Z</time>
      </trkpt>
      <trkpt lat="-11.992209143936634063720703125" lon="-76.82511278428137302398681640625">
        <ele>529.4000244140625</ele>
        <time>2021-07-25T08:00:42.000Z</time>
      </trkpt>
      <trkpt lat="-11.99204762466251850128173828125" lon="-76.82473652064800262451171875">
        <ele>530.20001220703125</ele>
        <time>2021-07-25T08:00:49.000Z</time>
      </trkpt>
      <trkpt lat="-11.99200336821377277374267578125" lon="-76.82462730444967746734619140625">
        <ele>530.4000244140625</ele>
        <time>2021-07-25T08:00:51.000Z</time>
      </trkpt>
      <trkpt lat="-11.99184511788189411163330078125" lon="-76.824242658913135528564453125">
        <ele>531.4000244140625</ele>
        <time>2021-07-25T08:00:58.000Z</time>
      </trkpt>
      <trkpt lat="-11.9918224029242992401123046875" lon="-76.824187338352203369140625">
        <ele>531.4000244140625</ele>
        <time>2021-07-25T08:00:59.000Z</time>
      </trkpt>
      <trkpt lat="-11.9916316308081150054931640625" lon="-76.82373329065740108489990234375">
        <ele>532.4000244140625</ele>
        <time>2021-07-25T08:01:07.000Z</time>
      </trkpt>
      <trkpt lat="-11.99160941876471042633056640625" lon="-76.8236762098968029022216796875">
        <ele>532.4000244140625</ele>
        <time>2021-07-25T08:01:08.000Z</time>
      </trkpt>
      <trkpt lat="-11.99139383621513843536376953125" lon="-76.82317120023071765899658203125">
        <ele>533.20001220703125</ele>
        <time>2021-07-25T08:01:17.000Z</time>
      </trkpt>
      <trkpt lat="-11.99132711626589298248291015625" lon="-76.822999455034732818603515625">
        <ele>533.5999755859375</ele>
        <time>2021-07-25T08:01:20.000Z</time>
      </trkpt>
      <trkpt lat="-11.99120842851698398590087890625" lon="-76.8227280490100383758544921875">
        <ele>533.5999755859375</ele>
        <time>2021-07-25T08:01:25.000Z</time>
      </trkpt>
      <trkpt lat="-11.991123855113983154296875" lon="-76.8225094489753246307373046875">
        <ele>534.5999755859375</ele>
        <time>2021-07-25T08:01:29.000Z</time>
      </trkpt>
      <trkpt lat="-11.991035677492618560791015625" lon="-76.8222968839108943939208984375">
        <ele>535.20001220703125</ele>
        <time>2021-07-25T08:01:33.000Z</time>
      </trkpt>
      <trkpt lat="-11.99094473384320735931396484375" lon="-76.82208356447517871856689453125">
        <ele>535.5999755859375</ele>
        <time>2021-07-25T08:01:37.000Z</time>
      </trkpt>
      <trkpt lat="-11.99080978520214557647705078125" lon="-76.8217614479362964630126953125">
        <ele>536.20001220703125</ele>
        <time>2021-07-25T08:01:43.000Z</time>
      </trkpt>
      <trkpt lat="-11.99073962867259979248046875" lon="-76.8215988390147686004638671875">
        <ele>536.79998779296875</ele>
        <time>2021-07-25T08:01:47.000Z</time>
      </trkpt>
      <trkpt lat="-11.9905780255794525146484375" lon="-76.82122173719108104705810546875">
        <ele>537.5999755859375</ele>
        <time>2021-07-25T08:01:54.000Z</time>
      </trkpt>
      <trkpt lat="-11.99055497534573078155517578125" lon="-76.82116918265819549560546875">
        <ele>537.79998779296875</ele>
        <time>2021-07-25T08:01:55.000Z</time>
      </trkpt>
      <trkpt lat="-11.99038884602487087249755859375" lon="-76.8207888118922710418701171875">
        <ele>538.5999755859375</ele>
        <time>2021-07-25T08:02:02.000Z</time>
      </trkpt>
      <trkpt lat="-11.99034341610968112945556640625" lon="-76.82067456655204296112060546875">
        <ele>538.79998779296875</ele>
        <time>2021-07-25T08:02:04.000Z</time>
      </trkpt>
      <trkpt lat="-11.990173347294330596923828125" lon="-76.82028950192034244537353515625">
        <ele>539.5999755859375</ele>
        <time>2021-07-25T08:02:11.000Z</time>
      </trkpt>
      <trkpt lat="-11.99012632481753826141357421875" lon="-76.8201806209981441497802734375">
        <ele>540</ele>
        <time>2021-07-25T08:02:13.000Z</time>
      </trkpt>
      <trkpt lat="-11.98999464511871337890625" lon="-76.819847188889980316162109375">
        <ele>540.79998779296875</ele>
        <time>2021-07-25T08:02:19.000Z</time>
      </trkpt>
      <trkpt lat="-11.9899503886699676513671875" lon="-76.819742582738399505615234375">
        <ele>541.20001220703125</ele>
        <time>2021-07-25T08:02:21.000Z</time>
      </trkpt>
      <trkpt lat="-11.9898191280663013458251953125" lon="-76.81943035684525966644287109375">
        <ele>541.79998779296875</ele>
        <time>2021-07-25T08:02:27.000Z</time>
      </trkpt>
      <trkpt lat="-11.9897718541324138641357421875" lon="-76.819321475923061370849609375">
        <ele>542.20001220703125</ele>
        <time>2021-07-25T08:02:29.000Z</time>
      </trkpt>
      <trkpt lat="-11.9896132685244083404541015625" lon="-76.818956695497035980224609375">
        <ele>543</ele>
        <time>2021-07-25T08:02:36.000Z</time>
      </trkpt>
      <trkpt lat="-11.98958896100521087646484375" lon="-76.81890581734478473663330078125">
        <ele>543.20001220703125</ele>
        <time>2021-07-25T08:02:37.000Z</time>
      </trkpt>
      <trkpt lat="-11.9894147850573062896728515625" lon="-76.8185520172119140625">
        <ele>543.79998779296875</ele>
        <time>2021-07-25T08:02:44.000Z</time>
      </trkpt>
      <trkpt lat="-11.98937547393143177032470703125" lon="-76.81840248405933380126953125">
        <ele>544.4000244140625</ele>
        <time>2021-07-25T08:02:47.000Z</time>
      </trkpt>
      <trkpt lat="-11.98933691717684268951416015625" lon="-76.81829745881259441375732421875">
        <ele>544.79998779296875</ele>
        <time>2021-07-25T08:02:49.000Z</time>
      </trkpt>
      <trkpt lat="-11.98915989138185977935791015625" lon="-76.81787920184433460235595703125">
        <ele>545.5999755859375</ele>
        <time>2021-07-25T08:02:57.000Z</time>
      </trkpt>
      <trkpt lat="-11.98900566436350345611572265625" lon="-76.8174558319151401519775390625">
        <ele>546.5999755859375</ele>
        <time>2021-07-25T08:03:05.000Z</time>
      </trkpt>
      <trkpt lat="-11.98898655362427234649658203125" lon="-76.81740160100162029266357421875">
        <ele>546.79998779296875</ele>
        <time>2021-07-25T08:03:06.000Z</time>
      </trkpt>
      <trkpt lat="-11.9888485036790370941162109375" lon="-76.8170110881328582763671875">
        <ele>547.5999755859375</ele>
        <time>2021-07-25T08:03:13.000Z</time>
      </trkpt>
      <trkpt lat="-11.9888086058199405670166015625" lon="-76.81689935736358165740966796875">
        <ele>547.79998779296875</ele>
        <time>2021-07-25T08:03:15.000Z</time>
      </trkpt>
      <trkpt lat="-11.98860769160091876983642578125" lon="-76.81639426387846469879150390625">
        <ele>548.5999755859375</ele>
        <time>2021-07-25T08:03:24.000Z</time>
      </trkpt>
      <trkpt lat="-11.98858388699591159820556640625" lon="-76.81633810512721538543701171875">
        <ele>548.5999755859375</ele>
        <time>2021-07-25T08:03:25.000Z</time>
      </trkpt>
      <trkpt lat="-11.98837970383465290069580078125" lon="-76.81584499776363372802734375">
        <ele>549.5999755859375</ele>
        <time>2021-07-25T08:03:34.000Z</time>
      </trkpt>
      <trkpt lat="-11.98833544738590717315673828125" lon="-76.8157345242798328399658203125">
        <ele>549.5999755859375</ele>
        <time>2021-07-25T08:03:36.000Z</time>
      </trkpt>
      <trkpt lat="-11.988221369683742523193359375" lon="-76.81545465253293514251708984375">
        <ele>550</ele>
        <time>2021-07-25T08:03:41.000Z</time>
      </trkpt>
      <trkpt lat="-11.98805783875286579132080078125" lon="-76.81506355293095111846923828125">
        <ele>550.79998779296875</ele>
        <time>2021-07-25T08:03:48.000Z</time>
      </trkpt>
      <trkpt lat="-11.98801157064735889434814453125" lon="-76.81495090015232563018798828125">
        <ele>551.20001220703125</ele>
        <time>2021-07-25T08:03:50.000Z</time>
      </trkpt>
      <trkpt lat="-11.98787544853985309600830078125" lon="-76.81461998261511325836181640625">
        <ele>551.79998779296875</ele>
        <time>2021-07-25T08:03:56.000Z</time>
      </trkpt>
      <trkpt lat="-11.98780705220997333526611328125" lon="-76.81445435620844364166259765625">
        <ele>552.4000244140625</ele>
        <time>2021-07-25T08:03:59.000Z</time>
      </trkpt>
      <trkpt lat="-11.987696327269077301025390625" lon="-76.81417993269860744476318359375">
        <ele>553</ele>
        <time>2021-07-25T08:04:04.000Z</time>
      </trkpt>
      <trkpt lat="-11.9876317866146564483642578125" lon="-76.81402436457574367523193359375">
        <ele>553.4000244140625</ele>
        <time>2021-07-25T08:04:07.000Z</time>
      </trkpt>
      <trkpt lat="-11.98752558790147304534912109375" lon="-76.8137677945196628570556640625">
        <ele>554.20001220703125</ele>
        <time>2021-07-25T08:04:12.000Z</time>
      </trkpt>
      <trkpt lat="-11.987460963428020477294921875" lon="-76.81360661052167415618896484375">
        <ele>554.79998779296875</ele>
        <time>2021-07-25T08:04:15.000Z</time>
      </trkpt>
      <trkpt lat="-11.98734923265874385833740234375" lon="-76.81333151645958423614501953125">
        <ele>555.20001220703125</ele>
        <time>2021-07-25T08:04:20.000Z</time>
      </trkpt>
      <trkpt lat="-11.9872773997485637664794921875" lon="-76.81317209266126155853271484375">
        <ele>555.5999755859375</ele>
        <time>2021-07-25T08:04:23.000Z</time>
      </trkpt>
      <trkpt lat="-11.98711596429347991943359375" lon="-76.8127867765724658966064453125">
        <ele>556.4000244140625</ele>
        <time>2021-07-25T08:04:30.000Z</time>
      </trkpt>
      <trkpt lat="-11.98709274642169475555419921875" lon="-76.812731958925724029541015625">
        <ele>556.4000244140625</ele>
        <time>2021-07-25T08:04:31.000Z</time>
      </trkpt>
      <trkpt lat="-11.98690851218998432159423828125" lon="-76.8123118579387664794921875">
        <ele>557.20001220703125</ele>
        <time>2021-07-25T08:04:39.000Z</time>
      </trkpt>
      <trkpt lat="-11.98688395321369171142578125" lon="-76.8122603930532932281494140625">
        <ele>557.4000244140625</ele>
        <time>2021-07-25T08:04:40.000Z</time>
      </trkpt>
      <trkpt lat="-11.98675596155226230621337890625" lon="-76.81192905642092227935791015625">
        <ele>558</ele>
        <time>2021-07-25T08:04:46.000Z</time>
      </trkpt>
      <trkpt lat="-11.98666744865477085113525390625" lon="-76.81171171367168426513671875">
        <ele>558.4000244140625</ele>
        <time>2021-07-25T08:04:50.000Z</time>
      </trkpt>
      <trkpt lat="-11.98658094741404056549072265625" lon="-76.81150141172111034393310546875">
        <ele>558.79998779296875</ele>
        <time>2021-07-25T08:04:54.000Z</time>
      </trkpt>
      <trkpt lat="-11.98640056885778903961181640625" lon="-76.81107711978256702423095703125">
        <ele>559.5999755859375</ele>
        <time>2021-07-25T08:05:02.000Z</time>
      </trkpt>
      <trkpt lat="-11.986378021538257598876953125" lon="-76.8110245652496814727783203125">
        <ele>559.5999755859375</ele>
        <time>2021-07-25T08:05:03.000Z</time>
      </trkpt>
      <trkpt lat="-11.98624952696263790130615234375" lon="-76.81070060469210147857666015625">
        <ele>560.5999755859375</ele>
        <time>2021-07-25T08:05:09.000Z</time>
      </trkpt>
      <trkpt lat="-11.98622681200504302978515625" lon="-76.81064310483634471893310546875">
        <ele>560.79998779296875</ele>
        <time>2021-07-25T08:05:10.000Z</time>
      </trkpt>
      <trkpt lat="-11.98603813536465167999267578125" lon="-76.81019316427409648895263671875">
        <ele>561.5999755859375</ele>
        <time>2021-07-25T08:05:18.000Z</time>
      </trkpt>
      <trkpt lat="-11.9860147498548030853271484375" lon="-76.8101360835134983062744140625">
        <ele>561.5999755859375</ele>
        <time>2021-07-25T08:05:19.000Z</time>
      </trkpt>
      <trkpt lat="-11.985796652734279632568359375" lon="-76.809610538184642791748046875">
        <ele>562.4000244140625</ele>
        <time>2021-07-25T08:05:28.000Z</time>
      </trkpt>
      <trkpt lat="-11.98577276431024074554443359375" lon="-76.809552870690822601318359375">
        <ele>562.5999755859375</ele>
        <time>2021-07-25T08:05:29.000Z</time>
      </trkpt>
      <trkpt lat="-11.98557713069021701812744140625" lon="-76.8090883456170558929443359375">
        <ele>563.4000244140625</ele>
        <time>2021-07-25T08:05:37.000Z</time>
      </trkpt>
      <trkpt lat="-11.98550454340875148773193359375" lon="-76.8089133314788341522216796875">
        <ele>563.5999755859375</ele>
        <time>2021-07-25T08:05:40.000Z</time>
      </trkpt>
      <trkpt lat="-11.98533087037503719329833984375" lon="-76.80849566124379634857177734375">
        <ele>564.5999755859375</ele>
        <time>2021-07-25T08:05:47.000Z</time>
      </trkpt>
      <trkpt lat="-11.98525778017938137054443359375" lon="-76.808321066200733184814453125">
        <ele>564.79998779296875</ele>
        <time>2021-07-25T08:05:50.000Z</time>
      </trkpt>
      <trkpt lat="-11.985133476555347442626953125" lon="-76.8080258555710315704345703125">
        <ele>565.20001220703125</ele>
        <time>2021-07-25T08:05:55.000Z</time>
      </trkpt>
      <trkpt lat="-11.985037587583065032958984375" lon="-76.8077878095209598541259765625">
        <ele>565.79998779296875</ele>
        <time>2021-07-25T08:05:59.000Z</time>
      </trkpt>
      <trkpt lat="-11.98489149101078510284423828125" lon="-76.80744004435837268829345703125">
        <ele>566.20001220703125</ele>
        <time>2021-07-25T08:06:05.000Z</time>
      </trkpt>
      <trkpt lat="-11.9847480766475200653076171875" lon="-76.80709186010062694549560546875">
        <ele>566.79998779296875</ele>
        <time>2021-07-25T08:06:11.000Z</time>
      </trkpt>
      <trkpt lat="-11.98470071889460086822509765625" lon="-76.80697652511298656463623046875">
        <ele>567</ele>
        <time>2021-07-25T08:06:13.000Z</time>
      </trkpt>
      <trkpt lat="-11.9845070131123065948486328125" lon="-76.806517280638217926025390625">
        <ele>567.79998779296875</ele>
        <time>2021-07-25T08:06:21.000Z</time>
      </trkpt>
      <trkpt lat="-11.9844835437834262847900390625" lon="-76.80645952932536602020263671875">
        <ele>568</ele>
        <time>2021-07-25T08:06:22.000Z</time>
      </trkpt>
      <trkpt lat="-11.9842937774956226348876953125" lon="-76.805996596813201904296875">
        <ele>568.79998779296875</ele>
        <time>2021-07-25T08:06:30.000Z</time>
      </trkpt>
      <trkpt lat="-11.984271816909313201904296875" lon="-76.8059390969574451446533203125">
        <ele>569</ele>
        <time>2021-07-25T08:06:31.000Z</time>
      </trkpt>
      <trkpt lat="-11.9841040112078189849853515625" lon="-76.80547046475112438201904296875">
        <ele>569.5999755859375</ele>
        <time>2021-07-25T08:06:39.000Z</time>
      </trkpt>
      <trkpt lat="-11.9840661250054836273193359375" lon="-76.80535580031573772430419921875">
        <ele>570</ele>
        <time>2021-07-25T08:06:41.000Z</time>
      </trkpt>
      <trkpt lat="-11.98397777974605560302734375" lon="-76.80507970042526721954345703125">
        <ele>570.4000244140625</ele>
        <time>2021-07-25T08:06:46.000Z</time>
      </trkpt>
      <trkpt lat="-11.98388566263020038604736328125" lon="-76.80474073626101016998291015625">
        <ele>571</ele>
        <time>2021-07-25T08:06:52.000Z</time>
      </trkpt>
      <trkpt lat="-11.983855068683624267578125" lon="-76.8046244792640209197998046875">
        <ele>571.4000244140625</ele>
        <time>2021-07-25T08:06:54.000Z</time>
      </trkpt>
      <trkpt lat="-11.9837678968906402587890625" lon="-76.80427570827305316925048828125">
        <ele>572</ele>
        <time>2021-07-25T08:07:00.000Z</time>
      </trkpt>
      <trkpt lat="-11.9837385602295398712158203125" lon="-76.80416339077055454254150390625">
        <ele>572.4000244140625</ele>
        <time>2021-07-25T08:07:02.000Z</time>
      </trkpt>
      <trkpt lat="-11.98369212448596954345703125" lon="-76.80389181710779666900634765625">
        <ele>573</ele>
        <time>2021-07-25T08:07:07.000Z</time>
      </trkpt>
      <trkpt lat="-11.983662955462932586669921875" lon="-76.80378603748977184295654296875">
        <ele>573.4000244140625</ele>
        <time>2021-07-25T08:07:09.000Z</time>
      </trkpt>
      <trkpt lat="-11.98358626104891300201416015625" lon="-76.80346794426441192626953125">
        <ele>574</ele>
        <time>2021-07-25T08:07:15.000Z</time>
      </trkpt>
      <trkpt lat="-11.983563713729381561279296875" lon="-76.80335403420031070709228515625">
        <ele>574.20001220703125</ele>
        <time>2021-07-25T08:07:17.000Z</time>
      </trkpt>
      <trkpt lat="-11.9834787212312221527099609375" lon="-76.80303552187979221343994140625">
        <ele>575.20001220703125</ele>
        <time>2021-07-25T08:07:23.000Z</time>
      </trkpt>
      <trkpt lat="-11.98340772651135921478271484375" lon="-76.80271684192121028900146484375">
        <ele>576.20001220703125</ele>
        <time>2021-07-25T08:07:29.000Z</time>
      </trkpt>
      <trkpt lat="-11.98335542343556880950927734375" lon="-76.80249388329684734344482421875">
        <ele>576.4000244140625</ele>
        <time>2021-07-25T08:07:33.000Z</time>
      </trkpt>
      <trkpt lat="-11.98325048200786113739013671875" lon="-76.80203924886882305145263671875">
        <ele>577.20001220703125</ele>
        <time>2021-07-25T08:07:41.000Z</time>
      </trkpt>
      <trkpt lat="-11.98323740623891353607177734375" lon="-76.80198057554662227630615234375">
        <ele>577.20001220703125</ele>
        <time>2021-07-25T08:07:42.000Z</time>
      </trkpt>
      <trkpt lat="-11.98313665576279163360595703125" lon="-76.8015910685062408447265625">
        <ele>577.79998779296875</ele>
        <time>2021-07-25T08:07:49.000Z</time>
      </trkpt>
      <trkpt lat="-11.9830881245434284210205078125" lon="-76.8014225922524929046630859375">
        <ele>578.4000244140625</ele>
        <time>2021-07-25T08:07:52.000Z</time>
      </trkpt>
      <trkpt lat="-11.9830240868031978607177734375" lon="-76.8012053333222866058349609375">
        <ele>578.79998779296875</ele>
        <time>2021-07-25T08:07:56.000Z</time>
      </trkpt>
      <trkpt lat="-11.98291570879518985748291015625" lon="-76.8008076958358287811279296875">
        <ele>579.20001220703125</ele>
        <time>2021-07-25T08:08:03.000Z</time>
      </trkpt>
      <trkpt lat="-11.982889473438262939453125" lon="-76.800692193210124969482421875">
        <ele>579.4000244140625</ele>
        <time>2021-07-25T08:08:05.000Z</time>
      </trkpt>
      <trkpt lat="-11.982803307473659515380859375" lon="-76.80022339336574077606201171875">
        <ele>580.20001220703125</ele>
        <time>2021-07-25T08:08:13.000Z</time>
      </trkpt>
      <trkpt lat="-11.98279266245663166046142578125" lon="-76.800166480243206024169921875">
        <ele>580.4000244140625</ele>
        <time>2021-07-25T08:08:14.000Z</time>
      </trkpt>
      <trkpt lat="-11.98267280124127864837646484375" lon="-76.799650825560092926025390625">
        <ele>581.4000244140625</ele>
        <time>2021-07-25T08:08:23.000Z</time>
      </trkpt>
      <trkpt lat="-11.98253533802926540374755859375" lon="-76.7990739829838275909423828125">
        <ele>582.4000244140625</ele>
        <time>2021-07-25T08:08:33.000Z</time>
      </trkpt>
      <trkpt lat="-11.98241002857685089111328125" lon="-76.79855371825397014617919921875">
        <ele>583.5999755859375</ele>
        <time>2021-07-25T08:08:42.000Z</time>
      </trkpt>
      <trkpt lat="-11.9823977909982204437255859375" lon="-76.79849336855113506317138671875">
        <ele>583.5999755859375</ele>
        <time>2021-07-25T08:08:43.000Z</time>
      </trkpt>
      <trkpt lat="-11.98227164335548877716064453125" lon="-76.797969751060009002685546875">
        <ele>584.4000244140625</ele>
        <time>2021-07-25T08:08:52.000Z</time>
      </trkpt>
      <trkpt lat="-11.98224180378019809722900390625" lon="-76.79785198532044887542724609375">
        <ele>584.5999755859375</ele>
        <time>2021-07-25T08:08:54.000Z</time>
      </trkpt>
      <trkpt lat="-11.98216058313846588134765625" lon="-76.79750748910009860992431640625">
        <ele>585.20001220703125</ele>
        <time>2021-07-25T08:09:00.000Z</time>
      </trkpt>
      <trkpt lat="-11.9820906780660152435302734375" lon="-76.79721713997423648834228515625">
        <ele>585.5999755859375</ele>
        <time>2021-07-25T08:09:05.000Z</time>
      </trkpt>
      <trkpt lat="-11.98206561617553234100341796875" lon="-76.797101385891437530517578125">
        <ele>585.79998779296875</ele>
        <time>2021-07-25T08:09:07.000Z</time>
      </trkpt>
      <trkpt lat="-11.981929242610931396484375" lon="-76.796522028744220733642578125">
        <ele>586.5999755859375</ele>
        <time>2021-07-25T08:09:17.000Z</time>
      </trkpt>
      <trkpt lat="-11.98191306553781032562255859375" lon="-76.796465031802654266357421875">
        <ele>586.5999755859375</ele>
        <time>2021-07-25T08:09:18.000Z</time>
      </trkpt>
      <trkpt lat="-11.9817926175892353057861328125" lon="-76.79594862274825572967529296875">
        <ele>587.5999755859375</ele>
        <time>2021-07-25T08:09:27.000Z</time>
      </trkpt>
      <trkpt lat="-11.9817651249468326568603515625" lon="-76.7958358861505985260009765625">
        <ele>587.79998779296875</ele>
        <time>2021-07-25T08:09:29.000Z</time>
      </trkpt>
      <trkpt lat="-11.98168071918189525604248046875" lon="-76.79549784399569034576416015625">
        <ele>588.4000244140625</ele>
        <time>2021-07-25T08:09:35.000Z</time>
      </trkpt>
      <trkpt lat="-11.98164425790309906005859375" lon="-76.79532936774194240570068359375">
        <ele>588.79998779296875</ele>
        <time>2021-07-25T08:09:38.000Z</time>
      </trkpt>
      <trkpt lat="-11.98156421072781085968017578125" lon="-76.7950023896992206573486328125">
        <ele>589.5999755859375</ele>
        <time>2021-07-25T08:09:44.000Z</time>
      </trkpt>
      <trkpt lat="-11.98153386823832988739013671875" lon="-76.79489317350089550018310546875">
        <ele>590</ele>
        <time>2021-07-25T08:09:46.000Z</time>
      </trkpt>
      <trkpt lat="-11.9814617000520229339599609375" lon="-76.79457181133329868316650390625">
        <ele>590.5999755859375</ele>
        <time>2021-07-25T08:09:52.000Z</time>
      </trkpt>
      <trkpt lat="-11.9814332015812397003173828125" lon="-76.794464103877544403076171875">
        <ele>591</ele>
        <time>2021-07-25T08:09:54.000Z</time>
      </trkpt>
      <trkpt lat="-11.98135633952915668487548828125" lon="-76.79414433427155017852783203125">
        <ele>591.79998779296875</ele>
        <time>2021-07-25T08:10:00.000Z</time>
      </trkpt>
      <trkpt lat="-11.98131660930812358856201171875" lon="-76.79397761821746826171875">
        <ele>592.20001220703125</ele>
        <time>2021-07-25T08:10:03.000Z</time>
      </trkpt>
      <trkpt lat="-11.9812347181141376495361328125" lon="-76.79363303817808628082275390625">
        <ele>592.79998779296875</ele>
        <time>2021-07-25T08:10:09.000Z</time>
      </trkpt>
      <trkpt lat="-11.9811822474002838134765625" lon="-76.79340454749763011932373046875">
        <ele>593.20001220703125</ele>
        <time>2021-07-25T08:10:13.000Z</time>
      </trkpt>
      <trkpt lat="-11.98112952522933483123779296875" lon="-76.79317605681717395782470703125">
        <ele>593.5999755859375</ele>
        <time>2021-07-25T08:10:17.000Z</time>
      </trkpt>
      <trkpt lat="-11.98105392046272754669189453125" lon="-76.7928980290889739990234375">
        <ele>594.20001220703125</ele>
        <time>2021-07-25T08:10:22.000Z</time>
      </trkpt>
      <trkpt lat="-11.98098921217024326324462890625" lon="-76.7926115356385707855224609375">
        <ele>594.5999755859375</ele>
        <time>2021-07-25T08:10:27.000Z</time>
      </trkpt>
      <trkpt lat="-11.98092550970613956451416015625" lon="-76.79233116097748279571533203125">
        <ele>595.4000244140625</ele>
        <time>2021-07-25T08:10:32.000Z</time>
      </trkpt>
      <trkpt lat="-11.98087454773485660552978515625" lon="-76.7921094596385955810546875">
        <ele>595.5999755859375</ele>
        <time>2021-07-25T08:10:36.000Z</time>
      </trkpt>
      <trkpt lat="-11.98077949695289134979248046875" lon="-76.791712827980518341064453125">
        <ele>596.4000244140625</ele>
        <time>2021-07-25T08:10:43.000Z</time>
      </trkpt>
      <trkpt lat="-11.98076725937426090240478515625" lon="-76.79165792651474475860595703125">
        <ele>596.5999755859375</ele>
        <time>2021-07-25T08:10:44.000Z</time>
      </trkpt>
      <trkpt lat="-11.98066902346909046173095703125" lon="-76.7912647314369678497314453125">
        <ele>597.4000244140625</ele>
        <time>2021-07-25T08:10:51.000Z</time>
      </trkpt>
      <trkpt lat="-11.98064454831182956695556640625" lon="-76.7911493964493274688720703125">
        <ele>597.5999755859375</ele>
        <time>2021-07-25T08:10:53.000Z</time>
      </trkpt>
      <trkpt lat="-11.98057631962001323699951171875" lon="-76.79087019525468349456787109375">
        <ele>598.20001220703125</ele>
        <time>2021-07-25T08:10:58.000Z</time>
      </trkpt>
      <trkpt lat="-11.98054966516792774200439453125" lon="-76.79075620137155055999755859375">
        <ele>598.5999755859375</ele>
        <time>2021-07-25T08:11:00.000Z</time>
      </trkpt>
      <trkpt lat="-11.98043650947511196136474609375" lon="-76.790298633277416229248046875">
        <ele>599.5999755859375</ele>
        <time>2021-07-25T08:11:08.000Z</time>
      </trkpt>
      <trkpt lat="-11.98032922111451625823974609375" lon="-76.78985573351383209228515625">
        <ele>600.5999755859375</ele>
        <time>2021-07-25T08:11:16.000Z</time>
      </trkpt>
      <trkpt lat="-11.98031681589782238006591796875" lon="-76.78979731164872646331787109375">
        <ele>600.5999755859375</ele>
        <time>2021-07-25T08:11:17.000Z</time>
      </trkpt>
      <trkpt lat="-11.98022545315325260162353515625" lon="-76.78940872661769390106201171875">
        <ele>601.5999755859375</ele>
        <time>2021-07-25T08:11:24.000Z</time>
      </trkpt>
      <trkpt lat="-11.9802101142704486846923828125" lon="-76.78935340605676174163818359375">
        <ele>601.5999755859375</ele>
        <time>2021-07-25T08:11:25.000Z</time>
      </trkpt>
      <trkpt lat="-11.980136521160602569580078125" lon="-76.78902869112789630889892578125">
        <ele>602.79998779296875</ele>
        <time>2021-07-25T08:11:31.000Z</time>
      </trkpt>
      <trkpt lat="-11.980110369622707366943359375" lon="-76.7889211513102054595947265625">
        <ele>603</ele>
        <time>2021-07-25T08:11:33.000Z</time>
      </trkpt>
      <trkpt lat="-11.9800575636327266693115234375" lon="-76.7887032218277454376220703125">
        <ele>603.79998779296875</ele>
        <time>2021-07-25T08:11:37.000Z</time>
      </trkpt>
      <trkpt lat="-11.980003751814365386962890625" lon="-76.78847699426114559173583984375">
        <ele>604.20001220703125</ele>
        <time>2021-07-25T08:11:41.000Z</time>
      </trkpt>
      <trkpt lat="-11.979944743216037750244140625" lon="-76.78825990296900272369384765625">
        <ele>604.79998779296875</ele>
        <time>2021-07-25T08:11:45.000Z</time>
      </trkpt>
      <trkpt lat="-11.97987592779099941253662109375" lon="-76.787988245487213134765625">
        <ele>605.79998779296875</ele>
        <time>2021-07-25T08:11:50.000Z</time>
      </trkpt>
      <trkpt lat="-11.9798051007091999053955078125" lon="-76.7877215333282947540283203125">
        <ele>606.4000244140625</ele>
        <time>2021-07-25T08:11:55.000Z</time>
      </trkpt>
      <trkpt lat="-11.97978020645678043365478515625" lon="-76.787609718739986419677734375">
        <ele>606.5999755859375</ele>
        <time>2021-07-25T08:11:57.000Z</time>
      </trkpt>
      <trkpt lat="-11.97975472547113895416259765625" lon="-76.78750016726553440093994140625">
        <ele>607</ele>
        <time>2021-07-25T08:11:59.000Z</time>
      </trkpt>
      <trkpt lat="-11.97970158420503139495849609375" lon="-76.78720529191195964813232421875">
        <ele>607.20001220703125</ele>
        <time>2021-07-25T08:12:04.000Z</time>
      </trkpt>
      <trkpt lat="-11.97958624921739101409912109375" lon="-76.7867096699774265289306640625">
        <ele>607.79998779296875</ele>
        <time>2021-07-25T08:12:13.000Z</time>
      </trkpt>
      <trkpt lat="-11.97955615818500518798828125" lon="-76.78660145960748195648193359375">
        <ele>608</ele>
        <time>2021-07-25T08:12:15.000Z</time>
      </trkpt>
      <trkpt lat="-11.97949790395796298980712890625" lon="-76.786335669457912445068359375">
        <ele>608.4000244140625</ele>
        <time>2021-07-25T08:12:20.000Z</time>
      </trkpt>
      <trkpt lat="-11.9794738478958606719970703125" lon="-76.78623206913471221923828125">
        <ele>608.4000244140625</ele>
        <time>2021-07-25T08:12:22.000Z</time>
      </trkpt>
      <trkpt lat="-11.97942967526614665985107421875" lon="-76.78602285683155059814453125">
        <ele>608.79998779296875</ele>
        <time>2021-07-25T08:12:26.000Z</time>
      </trkpt>
      <trkpt lat="-11.9794057868421077728271484375" lon="-76.7859167419373989105224609375">
        <ele>609</ele>
        <time>2021-07-25T08:12:28.000Z</time>
      </trkpt>
      <trkpt lat="-11.97931668721139430999755859375" lon="-76.78555908612906932830810546875">
        <ele>609.5999755859375</ele>
        <time>2021-07-25T08:12:35.000Z</time>
      </trkpt>
      <trkpt lat="-11.9792485423386096954345703125" lon="-76.785267479717731475830078125">
        <ele>610</ele>
        <time>2021-07-25T08:12:41.000Z</time>
      </trkpt>
      <trkpt lat="-11.979213170707225799560546875" lon="-76.78512289188802242279052734375">
        <ele>610.4000244140625</ele>
        <time>2021-07-25T08:12:44.000Z</time>
      </trkpt>
      <trkpt lat="-11.979112923145294189453125" lon="-76.7847214825451374053955078125">
        <ele>611</ele>
        <time>2021-07-25T08:12:52.000Z</time>
      </trkpt>
      <trkpt lat="-11.979089118540287017822265625" lon="-76.78461913950741291046142578125">
        <ele>611.20001220703125</ele>
        <time>2021-07-25T08:12:54.000Z</time>
      </trkpt>
      <trkpt lat="-11.97899633087217807769775390625" lon="-76.7842246033251285552978515625">
        <ele>612.20001220703125</ele>
        <time>2021-07-25T08:13:02.000Z</time>
      </trkpt>
      <trkpt lat="-11.9789719395339488983154296875" lon="-76.784130223095417022705078125">
        <ele>612.20001220703125</ele>
        <time>2021-07-25T08:13:04.000Z</time>
      </trkpt>
      <trkpt lat="-11.97887395508587360382080078125" lon="-76.7837354354560375213623046875">
        <ele>613</ele>
        <time>2021-07-25T08:13:12.000Z</time>
      </trkpt>
      <trkpt lat="-11.9788555987179279327392578125" lon="-76.78363694809377193450927734375">
        <ele>613.20001220703125</ele>
        <time>2021-07-25T08:13:14.000Z</time>
      </trkpt>
      <trkpt lat="-11.97881192900240421295166015625" lon="-76.78339571692049503326416015625">
        <ele>613.5999755859375</ele>
        <time>2021-07-25T08:13:19.000Z</time>
      </trkpt>
      <trkpt lat="-11.9787523336708545684814453125" lon="-76.7831480316817760467529296875">
        <ele>614.4000244140625</ele>
        <time>2021-07-25T08:13:24.000Z</time>
      </trkpt>
      <trkpt lat="-11.97873498313128948211669921875" lon="-76.78304493427276611328125">
        <ele>614.5999755859375</ele>
        <time>2021-07-25T08:13:26.000Z</time>
      </trkpt>
      <trkpt lat="-11.97865719906985759735107421875" lon="-76.78266012109816074371337890625">
        <ele>615.4000244140625</ele>
        <time>2021-07-25T08:13:33.000Z</time>
      </trkpt>
      <trkpt lat="-11.978555023670196533203125" lon="-76.78215938620269298553466796875">
        <ele>616.4000244140625</ele>
        <time>2021-07-25T08:13:42.000Z</time>
      </trkpt>
      <trkpt lat="-11.97845184244215488433837890625" lon="-76.78166024386882781982421875">
        <ele>617.20001220703125</ele>
        <time>2021-07-25T08:13:51.000Z</time>
      </trkpt>
      <trkpt lat="-11.9784204103052616119384765625" lon="-76.78148992359638214111328125">
        <ele>617.4000244140625</ele>
        <time>2021-07-25T08:13:54.000Z</time>
      </trkpt>
      <trkpt lat="-11.97835360653698444366455078125" lon="-76.78115456365048885345458984375">
        <ele>618</ele>
        <time>2021-07-25T08:14:00.000Z</time>
      </trkpt>
      <trkpt lat="-11.97828386910259723663330078125" lon="-76.7808200418949127197265625">
        <ele>618.5999755859375</ele>
        <time>2021-07-25T08:14:06.000Z</time>
      </trkpt>
      <trkpt lat="-11.9782621599733829498291015625" lon="-76.7807072214782238006591796875">
        <ele>619</ele>
        <time>2021-07-25T08:14:08.000Z</time>
      </trkpt>
      <trkpt lat="-11.9781894050538539886474609375" lon="-76.7803712747991085052490234375">
        <ele>619.79998779296875</ele>
        <time>2021-07-25T08:14:14.000Z</time>
      </trkpt>
      <trkpt lat="-11.97813534177839756011962890625" lon="-76.78009794093668460845947265625">
        <ele>620.4000244140625</ele>
        <time>2021-07-25T08:14:19.000Z</time>
      </trkpt>
      <trkpt lat="-11.97807021439075469970703125" lon="-76.77977976389229297637939453125">
        <ele>621</ele>
        <time>2021-07-25T08:14:25.000Z</time>
      </trkpt>
      <trkpt lat="-11.97804833762347698211669921875" lon="-76.77967733703553676605224609375">
        <ele>621.4000244140625</ele>
        <time>2021-07-25T08:14:27.000Z</time>
      </trkpt>
      <trkpt lat="-11.9779842160642147064208984375" lon="-76.7793627642095088958740234375">
        <ele>622</ele>
        <time>2021-07-25T08:14:33.000Z</time>
      </trkpt>
      <trkpt lat="-11.9779622554779052734375" lon="-76.77925589494407176971435546875">
        <ele>622.4000244140625</ele>
        <time>2021-07-25T08:14:35.000Z</time>
      </trkpt>
      <trkpt lat="-11.9779201783239841461181640625" lon="-76.77904643118381500244140625">
        <ele>623.20001220703125</ele>
        <time>2021-07-25T08:14:39.000Z</time>
      </trkpt>
      <trkpt lat="-11.9778692163527011871337890625" lon="-76.77879086695611476898193359375">
        <ele>624</ele>
        <time>2021-07-25T08:14:44.000Z</time>
      </trkpt>
      <trkpt lat="-11.977856643497943878173828125" lon="-76.7787391506135463714599609375">
        <ele>624.20001220703125</ele>
        <time>2021-07-25T08:14:45.000Z</time>
      </trkpt>
      <trkpt lat="-11.9777927733957767486572265625" lon="-76.7783819139003753662109375">
        <ele>625.4000244140625</ele>
        <time>2021-07-25T08:14:52.000Z</time>
      </trkpt>
      <trkpt lat="-11.977780871093273162841796875" lon="-76.7783327959477901458740234375">
        <ele>625.5999755859375</ele>
        <time>2021-07-25T08:14:53.000Z</time>
      </trkpt>
      <trkpt lat="-11.97770752944052219390869140625" lon="-76.7779800854623317718505859375">
        <ele>626.5999755859375</ele>
        <time>2021-07-25T08:15:00.000Z</time>
      </trkpt>
      <trkpt lat="-11.9776953756809234619140625" lon="-76.777929961681365966796875">
        <ele>626.79998779296875</ele>
        <time>2021-07-25T08:15:01.000Z</time>
      </trkpt>
      <trkpt lat="-11.97763410396873950958251953125" lon="-76.77763399668037891387939453125">
        <ele>627.5999755859375</ele>
        <time>2021-07-25T08:15:07.000Z</time>
      </trkpt>
      <trkpt lat="-11.977613233029842376708984375" lon="-76.77753827534615993499755859375">
        <ele>628</ele>
        <time>2021-07-25T08:15:09.000Z</time>
      </trkpt>
      <trkpt lat="-11.97756604291498661041259765625" lon="-76.77729427814483642578125">
        <ele>628.79998779296875</ele>
        <time>2021-07-25T08:15:14.000Z</time>
      </trkpt>
      <trkpt lat="-11.97752413339912891387939453125" lon="-76.77710375748574733734130859375">
        <ele>629.5999755859375</ele>
        <time>2021-07-25T08:15:18.000Z</time>
      </trkpt>
      <trkpt lat="-11.9775024242699146270751953125" lon="-76.7770064435899257659912109375">
        <ele>630</ele>
        <time>2021-07-25T08:15:20.000Z</time>
      </trkpt>
      <trkpt lat="-11.97745188139379024505615234375" lon="-76.77676387131214141845703125">
        <ele>630.79998779296875</ele>
        <time>2021-07-25T08:15:25.000Z</time>
      </trkpt>
      <trkpt lat="-11.97743880562484264373779296875" lon="-76.77671567536890506744384765625">
        <ele>631.20001220703125</ele>
        <time>2021-07-25T08:15:26.000Z</time>
      </trkpt>
      <trkpt lat="-11.977380551397800445556640625" lon="-76.7764317803084850311279296875">
        <ele>632</ele>
        <time>2021-07-25T08:15:32.000Z</time>
      </trkpt>
      <trkpt lat="-11.977364458143711090087890625" lon="-76.7763915471732616424560546875">
        <ele>632.20001220703125</ele>
        <time>2021-07-25T08:15:33.000Z</time>
      </trkpt>
      <trkpt lat="-11.9773552380502223968505859375" lon="-76.77634586580097675323486328125">
        <ele>632.4000244140625</ele>
        <time>2021-07-25T08:15:34.000Z</time>
      </trkpt>
      <trkpt lat="-11.97732363827526569366455078125" lon="-76.77620337344706058502197265625">
        <ele>632.79998779296875</ele>
        <time>2021-07-25T08:15:37.000Z</time>
      </trkpt>
      <trkpt lat="-11.97728759609162807464599609375" lon="-76.77601754665374755859375">
        <ele>633.5999755859375</ele>
        <time>2021-07-25T08:15:41.000Z</time>
      </trkpt>
      <trkpt lat="-11.977248452603816986083984375" lon="-76.7758329771459102630615234375">
        <ele>634</ele>
        <time>2021-07-25T08:15:45.000Z</time>
      </trkpt>
      <trkpt lat="-11.977208219468593597412109375" lon="-76.7756405286490917205810546875">
        <ele>634.5999755859375</ele>
        <time>2021-07-25T08:15:49.000Z</time>
      </trkpt>
      <trkpt lat="-11.97718684561550617218017578125" lon="-76.7755013890564441680908203125">
        <ele>635.20001220703125</ele>
        <time>2021-07-25T08:15:52.000Z</time>
      </trkpt>
      <trkpt lat="-11.977160274982452392578125" lon="-76.77535830996930599212646484375">
        <ele>635.5999755859375</ele>
        <time>2021-07-25T08:15:55.000Z</time>
      </trkpt>
      <trkpt lat="-11.9771121628582477569580078125" lon="-76.7751215212047100067138671875">
        <ele>636.5999755859375</ele>
        <time>2021-07-25T08:16:00.000Z</time>
      </trkpt>
      <trkpt lat="-11.977102272212505340576171875" lon="-76.775067038834095001220703125">
        <ele>636.5999755859375</ele>
        <time>2021-07-25T08:16:01.000Z</time>
      </trkpt>
      <trkpt lat="-11.97703421115875244140625" lon="-76.77471390925347805023193359375">
        <ele>637.79998779296875</ele>
        <time>2021-07-25T08:16:08.000Z</time>
      </trkpt>
      <trkpt lat="-11.9769684970378875732421875" lon="-76.774397157132625579833984375">
        <ele>639.20001220703125</ele>
        <time>2021-07-25T08:16:14.000Z</time>
      </trkpt>
      <trkpt lat="-11.97694594971835613250732421875" lon="-76.774297915399074554443359375">
        <ele>639.4000244140625</ele>
        <time>2021-07-25T08:16:16.000Z</time>
      </trkpt>
      <trkpt lat="-11.9769287668168544769287109375" lon="-76.77424971945583820343017578125">
        <ele>639.5999755859375</ele>
        <time>2021-07-25T08:16:17.000Z</time>
      </trkpt>
      <trkpt lat="-11.9768667407333850860595703125" lon="-76.77405425347387790679931640625">
        <ele>640.20001220703125</ele>
        <time>2021-07-25T08:16:21.000Z</time>
      </trkpt>
      <trkpt lat="-11.97683564387261867523193359375" lon="-76.7739522457122802734375">
        <ele>640.4000244140625</ele>
        <time>2021-07-25T08:16:23.000Z</time>
      </trkpt>
      <trkpt lat="-11.97675593197345733642578125" lon="-76.7737049795687198638916015625">
        <ele>641.20001220703125</ele>
        <time>2021-07-25T08:16:28.000Z</time>
      </trkpt>
      <trkpt lat="-11.97669063694775104522705078125" lon="-76.7735101841390132904052734375">
        <ele>641.79998779296875</ele>
        <time>2021-07-25T08:16:32.000Z</time>
      </trkpt>
      <trkpt lat="-11.976632885634899139404296875" lon="-76.77331346087157726287841796875">
        <ele>642.20001220703125</ele>
        <time>2021-07-25T08:16:36.000Z</time>
      </trkpt>
      <trkpt lat="-11.976559124886989593505859375" lon="-76.77306787110865116119384765625">
        <ele>643.4000244140625</ele>
        <time>2021-07-25T08:16:41.000Z</time>
      </trkpt>
      <trkpt lat="-11.97641621343791484832763671875" lon="-76.7726046033203601837158203125">
        <ele>644.4000244140625</ele>
        <time>2021-07-25T08:16:50.000Z</time>
      </trkpt>
      <trkpt lat="-11.97639961726963520050048828125" lon="-76.77255280315876007080078125">
        <ele>644.4000244140625</ele>
        <time>2021-07-25T08:16:51.000Z</time>
      </trkpt>
      <trkpt lat="-11.97626399807631969451904296875" lon="-76.7721519805490970611572265625">
        <ele>645.20001220703125</ele>
        <time>2021-07-25T08:16:59.000Z</time>
      </trkpt>
      <trkpt lat="-11.97625377215445041656494140625" lon="-76.77209925837814807891845703125">
        <ele>645.4000244140625</ele>
        <time>2021-07-25T08:17:00.000Z</time>
      </trkpt>
      <trkpt lat="-11.97616240940988063812255859375" lon="-76.77179046906530857086181640625">
        <ele>646.20001220703125</ele>
        <time>2021-07-25T08:17:06.000Z</time>
      </trkpt>
      <trkpt lat="-11.9761341623961925506591796875" lon="-76.77169382572174072265625">
        <ele>646.4000244140625</ele>
        <time>2021-07-25T08:17:08.000Z</time>
      </trkpt>
      <trkpt lat="-11.97608093731105327606201171875" lon="-76.771501041948795318603515625">
        <ele>647</ele>
        <time>2021-07-25T08:17:12.000Z</time>
      </trkpt>
      <trkpt lat="-11.97601404972374439239501953125" lon="-76.77129979245364665985107421875">
        <ele>647.4000244140625</ele>
        <time>2021-07-25T08:17:16.000Z</time>
      </trkpt>
      <trkpt lat="-11.97593593038618564605712890625" lon="-76.77104800008237361907958984375">
        <ele>648.20001220703125</ele>
        <time>2021-07-25T08:17:21.000Z</time>
      </trkpt>
      <trkpt lat="-11.97590072639286518096923828125" lon="-76.7709392867982387542724609375">
        <ele>648.4000244140625</ele>
        <time>2021-07-25T08:17:23.000Z</time>
      </trkpt>
      <trkpt lat="-11.97578765451908111572265625" lon="-76.770576350390911102294921875">
        <ele>649.5999755859375</ele>
        <time>2021-07-25T08:17:30.000Z</time>
      </trkpt>
      <trkpt lat="-11.9756622612476348876953125" lon="-76.77017041482031345367431640625">
        <ele>650.4000244140625</ele>
        <time>2021-07-25T08:17:38.000Z</time>
      </trkpt>
      <trkpt lat="-11.975647509098052978515625" lon="-76.77012003958225250244140625">
        <ele>650.5999755859375</ele>
        <time>2021-07-25T08:17:39.000Z</time>
      </trkpt>
      <trkpt lat="-11.975566036999225616455078125" lon="-76.76985341124236583709716796875">
        <ele>651</ele>
        <time>2021-07-25T08:17:44.000Z</time>
      </trkpt>
      <trkpt lat="-11.97549655102193355560302734375" lon="-76.769644953310489654541015625">
        <ele>651.5999755859375</ele>
        <time>2021-07-25T08:17:48.000Z</time>
      </trkpt>
      <trkpt lat="-11.9754025898873805999755859375" lon="-76.76933708600699901580810546875">
        <ele>652.4000244140625</ele>
        <time>2021-07-25T08:17:54.000Z</time>
      </trkpt>
      <trkpt lat="-11.97537191212177276611328125" lon="-76.7692377604544162750244140625">
        <ele>652.5999755859375</ele>
        <time>2021-07-25T08:17:56.000Z</time>
      </trkpt>
      <trkpt lat="-11.97529052384197711944580078125" lon="-76.76897616125643253326416015625">
        <ele>653.20001220703125</ele>
        <time>2021-07-25T08:18:01.000Z</time>
      </trkpt>
      <trkpt lat="-11.97524174116551876068115234375" lon="-76.76881849765777587890625">
        <ele>653.5999755859375</ele>
        <time>2021-07-25T08:18:04.000Z</time>
      </trkpt>
      <trkpt lat="-11.97516127489507198333740234375" lon="-76.76855899393558502197265625">
        <ele>654.4000244140625</ele>
        <time>2021-07-25T08:18:09.000Z</time>
      </trkpt>
      <trkpt lat="-11.9751177728176116943359375" lon="-76.76840401254594326019287109375">
        <ele>654.5999755859375</ele>
        <time>2021-07-25T08:18:12.000Z</time>
      </trkpt>
      <trkpt lat="-11.97503202594816684722900390625" lon="-76.76815222017467021942138671875">
        <ele>655.5999755859375</ele>
        <time>2021-07-25T08:18:17.000Z</time>
      </trkpt>
      <trkpt lat="-11.97499950416386127471923828125" lon="-76.7680478654801845550537109375">
        <ele>655.79998779296875</ele>
        <time>2021-07-25T08:18:19.000Z</time>
      </trkpt>
      <trkpt lat="-11.974901519715785980224609375" lon="-76.76774268038570880889892578125">
        <ele>656.5999755859375</ele>
        <time>2021-07-25T08:18:25.000Z</time>
      </trkpt>
      <trkpt lat="-11.97486958466470241546630859375" lon="-76.76763891242444515228271484375">
        <ele>656.79998779296875</ele>
        <time>2021-07-25T08:18:27.000Z</time>
      </trkpt>
      <trkpt lat="-11.974788866937160491943359375" lon="-76.76737689413130283355712890625">
        <ele>657.5999755859375</ele>
        <time>2021-07-25T08:18:32.000Z</time>
      </trkpt>
      <trkpt lat="-11.97474888525903224945068359375" lon="-76.7672200687229633331298828125">
        <ele>658</ele>
        <time>2021-07-25T08:18:35.000Z</time>
      </trkpt>
      <trkpt lat="-11.9746805727481842041015625" lon="-76.76702032797038555145263671875">
        <ele>658.79998779296875</ele>
        <time>2021-07-25T08:18:39.000Z</time>
      </trkpt>
      <trkpt lat="-11.974652074277400970458984375" lon="-76.7669256962835788726806640625">
        <ele>659.20001220703125</ele>
        <time>2021-07-25T08:18:41.000Z</time>
      </trkpt>
      <trkpt lat="-11.97458040900528430938720703125" lon="-76.7666859738528728485107421875">
        <ele>660</ele>
        <time>2021-07-25T08:18:46.000Z</time>
      </trkpt>
      <trkpt lat="-11.97456213645637035369873046875" lon="-76.766636185348033905029296875">
        <ele>660.20001220703125</ele>
        <time>2021-07-25T08:18:47.000Z</time>
      </trkpt>
      <trkpt lat="-11.97447982616722583770751953125" lon="-76.76632982678711414337158203125">
        <ele>661</ele>
        <time>2021-07-25T08:18:53.000Z</time>
      </trkpt>
      <trkpt lat="-11.97447060607373714447021484375" lon="-76.7662796191871166229248046875">
        <ele>661.4000244140625</ele>
        <time>2021-07-25T08:18:54.000Z</time>
      </trkpt>
      <trkpt lat="-11.9744292832911014556884765625" lon="-76.7659631185233592987060546875">
        <ele>662.20001220703125</ele>
        <time>2021-07-25T08:19:00.000Z</time>
      </trkpt>
      <trkpt lat="-11.97442299686372280120849609375" lon="-76.76590939052402973175048828125">
        <ele>662.4000244140625</ele>
        <time>2021-07-25T08:19:01.000Z</time>
      </trkpt>
      <trkpt lat="-11.97437203489243984222412109375" lon="-76.765419803559780120849609375">
        <ele>663.5999755859375</ele>
        <time>2021-07-25T08:19:10.000Z</time>
      </trkpt>
      <trkpt lat="-11.97432610206305980682373046875" lon="-76.7649281211197376251220703125">
        <ele>664.5999755859375</ele>
        <time>2021-07-25T08:19:19.000Z</time>
      </trkpt>
      <trkpt lat="-11.9742814265191555023193359375" lon="-76.764497458934783935546875">
        <ele>665.5999755859375</ele>
        <time>2021-07-25T08:19:27.000Z</time>
      </trkpt>
      <trkpt lat="-11.974275894463062286376953125" lon="-76.76444456912577152252197265625">
        <ele>665.79998779296875</ele>
        <time>2021-07-25T08:19:28.000Z</time>
      </trkpt>
      <trkpt lat="-11.97423708625137805938720703125" lon="-76.764073669910430908203125">
        <ele>666.5999755859375</ele>
        <time>2021-07-25T08:19:35.000Z</time>
      </trkpt>
      <trkpt lat="-11.9741882197558879852294921875" lon="-76.7635843344032764434814453125">
        <ele>667.79998779296875</ele>
        <time>2021-07-25T08:19:44.000Z</time>
      </trkpt>
      <trkpt lat="-11.9741828553378582000732421875" lon="-76.76352985203266143798828125">
        <ele>667.79998779296875</ele>
        <time>2021-07-25T08:19:45.000Z</time>
      </trkpt>
      <trkpt lat="-11.9741409458220005035400390625" lon="-76.76314537413418292999267578125">
        <ele>669</ele>
        <time>2021-07-25T08:19:52.000Z</time>
      </trkpt>
      <trkpt lat="-11.9741253554821014404296875" lon="-76.76298025064170360565185546875">
        <ele>669.4000244140625</ele>
        <time>2021-07-25T08:19:55.000Z</time>
      </trkpt>
      <trkpt lat="-11.97410448454320430755615234375" lon="-76.76275729201734066009521484375">
        <ele>670</ele>
        <time>2021-07-25T08:19:59.000Z</time>
      </trkpt>
      <trkpt lat="-11.974098868668079376220703125" lon="-76.762593425810337066650390625">
        <ele>670.5999755859375</ele>
        <time>2021-07-25T08:20:02.000Z</time>
      </trkpt>
      <trkpt lat="-11.9740819372236728668212890625" lon="-76.762376166880130767822265625">
        <ele>671</ele>
        <time>2021-07-25T08:20:06.000Z</time>
      </trkpt>
      <trkpt lat="-11.97405762970447540283203125" lon="-76.7621044255793094635009765625">
        <ele>671.5999755859375</ele>
        <time>2021-07-25T08:20:11.000Z</time>
      </trkpt>
      <trkpt lat="-11.97402921505272388458251953125" lon="-76.7618777789175510406494140625">
        <ele>672.20001220703125</ele>
        <time>2021-07-25T08:20:15.000Z</time>
      </trkpt>
      <trkpt lat="-11.97400792501866817474365234375" lon="-76.76166395656764507293701171875">
        <ele>672.79998779296875</ele>
        <time>2021-07-25T08:20:19.000Z</time>
      </trkpt>
      <trkpt lat="-11.97397456504404544830322265625" lon="-76.76134209148585796356201171875">
        <ele>673.4000244140625</ele>
        <time>2021-07-25T08:20:25.000Z</time>
      </trkpt>
      <trkpt lat="-11.9739344157278537750244140625" lon="-76.7610305361449718475341796875">
        <ele>674</ele>
        <time>2021-07-25T08:20:31.000Z</time>
      </trkpt>
      <trkpt lat="-11.97389242239296436309814453125" lon="-76.7608213238418102264404296875">
        <ele>674.5999755859375</ele>
        <time>2021-07-25T08:20:35.000Z</time>
      </trkpt>
      <trkpt lat="-11.9738381914794445037841796875" lon="-76.76061186008155345916748046875">
        <ele>675</ele>
        <time>2021-07-25T08:20:39.000Z</time>
      </trkpt>
      <trkpt lat="-11.97372864000499248504638671875" lon="-76.76031983457505702972412109375">
        <ele>675.5999755859375</ele>
        <time>2021-07-25T08:20:45.000Z</time>
      </trkpt>
      <trkpt lat="-11.97371003217995166778564453125" lon="-76.7602711357176303863525390625">
        <ele>675.5999755859375</ele>
        <time>2021-07-25T08:20:46.000Z</time>
      </trkpt>
      <trkpt lat="-11.97359092533588409423828125" lon="-76.759973578155040740966796875">
        <ele>675.79998779296875</ele>
        <time>2021-07-25T08:20:52.000Z</time>
      </trkpt>
      <trkpt lat="-11.97342102415859699249267578125" lon="-76.75956127233803272247314453125">
        <ele>676.5999755859375</ele>
        <time>2021-07-25T08:21:00.000Z</time>
      </trkpt>
      <trkpt lat="-11.97326780296862125396728515625" lon="-76.7591714300215244293212890625">
        <ele>676.5999755859375</ele>
        <time>2021-07-25T08:21:07.000Z</time>
      </trkpt>
      <trkpt lat="-11.9730603508651256561279296875" lon="-76.75866088829934597015380859375">
        <ele>676.79998779296875</ele>
        <time>2021-07-25T08:21:16.000Z</time>
      </trkpt>
      <trkpt lat="-11.97289028204977512359619140625" lon="-76.75822938792407512664794921875">
        <ele>677.4000244140625</ele>
        <time>2021-07-25T08:21:24.000Z</time>
      </trkpt>
      <trkpt lat="-11.9728011824190616607666015625" lon="-76.75801531411707401275634765625">
        <ele>677.5999755859375</ele>
        <time>2021-07-25T08:21:28.000Z</time>
      </trkpt>
      <trkpt lat="-11.97272750549018383026123046875" lon="-76.75780559889972209930419921875">
        <ele>677.79998779296875</ele>
        <time>2021-07-25T08:21:32.000Z</time>
      </trkpt>
      <trkpt lat="-11.97258115746080875396728515625" lon="-76.75744014792144298553466796875">
        <ele>678.79998779296875</ele>
        <time>2021-07-25T08:21:39.000Z</time>
      </trkpt>
      <trkpt lat="-11.97255936451256275177001953125" lon="-76.7573894374072551727294921875">
        <ele>678.79998779296875</ele>
        <time>2021-07-25T08:21:40.000Z</time>
      </trkpt>
      <trkpt lat="-11.9723478890955448150634765625" lon="-76.756879650056362152099609375">
        <ele>679.5999755859375</ele>
        <time>2021-07-25T08:21:50.000Z</time>
      </trkpt>
      <trkpt lat="-11.97232835926115512847900390625" lon="-76.75682961009442806243896484375">
        <ele>680</ele>
        <time>2021-07-25T08:21:51.000Z</time>
      </trkpt>
      <trkpt lat="-11.97220749221742153167724609375" lon="-76.75652735866606235504150390625">
        <ele>680.20001220703125</ele>
        <time>2021-07-25T08:21:57.000Z</time>
      </trkpt>
      <trkpt lat="-11.97212769649922847747802734375" lon="-76.7563272826373577117919921875">
        <ele>681</ele>
        <time>2021-07-25T08:22:01.000Z</time>
      </trkpt>
      <trkpt lat="-11.97204706259071826934814453125" lon="-76.75612561404705047607421875">
        <ele>681.5999755859375</ele>
        <time>2021-07-25T08:22:05.000Z</time>
      </trkpt>
      <trkpt lat="-11.9719284586608409881591796875" lon="-76.7558297328650951385498046875">
        <ele>682.20001220703125</ele>
        <time>2021-07-25T08:22:11.000Z</time>
      </trkpt>
      <trkpt lat="-11.971875987946987152099609375" lon="-76.755687408149242401123046875">
        <ele>682.79998779296875</ele>
        <time>2021-07-25T08:22:14.000Z</time>
      </trkpt>
      <trkpt lat="-11.9718213379383087158203125" lon="-76.75554885528981685638427734375">
        <ele>683.20001220703125</ele>
        <time>2021-07-25T08:22:17.000Z</time>
      </trkpt>
      <trkpt lat="-11.971715725958347320556640625" lon="-76.7553127370774745941162109375">
        <ele>683.79998779296875</ele>
        <time>2021-07-25T08:22:22.000Z</time>
      </trkpt>
      <trkpt lat="-11.971664763987064361572265625" lon="-76.75516848452389240264892578125">
        <ele>684.20001220703125</ele>
        <time>2021-07-25T08:22:25.000Z</time>
      </trkpt>
      <trkpt lat="-11.9715734012424945831298828125" lon="-76.75493814982473850250244140625">
        <ele>685</ele>
        <time>2021-07-25T08:22:30.000Z</time>
      </trkpt>
      <trkpt lat="-11.971533335745334625244140625" lon="-76.75484410487115383148193359375">
        <ele>685.4000244140625</ele>
        <time>2021-07-25T08:22:32.000Z</time>
      </trkpt>
      <trkpt lat="-11.971403248608112335205078125" lon="-76.7545110918581485748291015625">
        <ele>686.5999755859375</ele>
        <time>2021-07-25T08:22:39.000Z</time>
      </trkpt>
      <trkpt lat="-11.9713678769767284393310546875" lon="-76.75441696308553218841552734375">
        <ele>687</ele>
        <time>2021-07-25T08:22:41.000Z</time>
      </trkpt>
      <trkpt lat="-11.9712739996612071990966796875" lon="-76.7541781626641750335693359375">
        <ele>687.79998779296875</ele>
        <time>2021-07-25T08:22:46.000Z</time>
      </trkpt>
      <trkpt lat="-11.971182636916637420654296875" lon="-76.753939278423786163330078125">
        <ele>688.4000244140625</ele>
        <time>2021-07-25T08:22:51.000Z</time>
      </trkpt>
      <trkpt lat="-11.97111784480512142181396484375" lon="-76.75380407832562923431396484375">
        <ele>688.79998779296875</ele>
        <time>2021-07-25T08:22:54.000Z</time>
      </trkpt>
      <trkpt lat="-11.97102581150829792022705078125" lon="-76.75355765037238597869873046875">
        <ele>689.5999755859375</ele>
        <time>2021-07-25T08:22:59.000Z</time>
      </trkpt>
      <trkpt lat="-11.97094785980880260467529296875" lon="-76.7533644475042819976806640625">
        <ele>690.20001220703125</ele>
        <time>2021-07-25T08:23:03.000Z</time>
      </trkpt>
      <trkpt lat="-11.97085398249328136444091796875" lon="-76.75313838757574558258056640625">
        <ele>691</ele>
        <time>2021-07-25T08:23:08.000Z</time>
      </trkpt>
      <trkpt lat="-11.97079849429428577423095703125" lon="-76.7530050314962863922119140625">
        <ele>691.20001220703125</ele>
        <time>2021-07-25T08:23:11.000Z</time>
      </trkpt>
      <trkpt lat="-11.970718614757061004638671875" lon="-76.7527954839169979095458984375">
        <ele>692</ele>
        <time>2021-07-25T08:23:16.000Z</time>
      </trkpt>
      <trkpt lat="-11.9707013480365276336669921875" lon="-76.75275349058210849761962890625">
        <ele>692.20001220703125</ele>
        <time>2021-07-25T08:23:17.000Z</time>
      </trkpt>
      <trkpt lat="-11.9706208817660808563232421875" lon="-76.75254260189831256866455078125">
        <ele>693</ele>
        <time>2021-07-25T08:23:22.000Z</time>
      </trkpt>
      <trkpt lat="-11.97058542631566524505615234375" lon="-76.75246171653270721435546875">
        <ele>693.20001220703125</ele>
        <time>2021-07-25T08:23:24.000Z</time>
      </trkpt>
      <trkpt lat="-11.97049791924655437469482421875" lon="-76.7522409372031688690185546875">
        <ele>693.79998779296875</ele>
        <time>2021-07-25T08:23:29.000Z</time>
      </trkpt>
      <trkpt lat="-11.97040169499814510345458984375" lon="-76.751997359097003936767578125">
        <ele>694.20001220703125</ele>
        <time>2021-07-25T08:23:34.000Z</time>
      </trkpt>
      <trkpt lat="-11.97034142911434173583984375" lon="-76.75184539519250392913818359375">
        <ele>694.5999755859375</ele>
        <time>2021-07-25T08:23:37.000Z</time>
      </trkpt>
      <trkpt lat="-11.9701696000993251800537109375" lon="-76.751419343054294586181640625">
        <ele>694.5999755859375</ele>
        <time>2021-07-25T08:23:45.000Z</time>
      </trkpt>
      <trkpt lat="-11.969994418323040008544921875" lon="-76.750985495746135711669921875">
        <ele>694.79998779296875</ele>
        <time>2021-07-25T08:23:53.000Z</time>
      </trkpt>
      <trkpt lat="-11.969897858798503875732421875" lon="-76.750762201845645904541015625">
        <ele>694.5999755859375</ele>
        <time>2021-07-25T08:23:57.000Z</time>
      </trkpt>
      <trkpt lat="-11.969825439155101776123046875" lon="-76.750595569610595703125">
        <ele>694.79998779296875</ele>
        <time>2021-07-25T08:24:00.000Z</time>
      </trkpt>
      <trkpt lat="-11.96962720714509487152099609375" lon="-76.75008972175419330596923828125">
        <ele>695.20001220703125</ele>
        <time>2021-07-25T08:24:09.000Z</time>
      </trkpt>
      <trkpt lat="-11.96960574947297573089599609375" lon="-76.75003590993583202362060546875">
        <ele>695.4000244140625</ele>
        <time>2021-07-25T08:24:10.000Z</time>
      </trkpt>
      <trkpt lat="-11.969461329281330108642578125" lon="-76.7496754042804241180419921875">
        <ele>696.20001220703125</ele>
        <time>2021-07-25T08:24:17.000Z</time>
      </trkpt>
      <trkpt lat="-11.96938522160053253173828125" lon="-76.7494695447385311126708984375">
        <ele>696.79998779296875</ele>
        <time>2021-07-25T08:24:21.000Z</time>
      </trkpt>
      <trkpt lat="-11.969325207173824310302734375" lon="-76.74932478927075862884521484375">
        <ele>697</ele>
        <time>2021-07-25T08:24:24.000Z</time>
      </trkpt>
      <trkpt lat="-11.96918883360922336578369140625" lon="-76.74898431636393070220947265625">
        <ele>697.79998779296875</ele>
        <time>2021-07-25T08:24:31.000Z</time>
      </trkpt>
      <trkpt lat="-11.96912705898284912109375" lon="-76.74884148873388767242431640625">
        <ele>698.20001220703125</ele>
        <time>2021-07-25T08:24:34.000Z</time>
      </trkpt>
      <trkpt lat="-11.96899705566465854644775390625" lon="-76.74850755371153354644775390625">
        <ele>699</ele>
        <time>2021-07-25T08:24:41.000Z</time>
      </trkpt>
      <trkpt lat="-11.96885338984429836273193359375" lon="-76.7481153644621372222900390625">
        <ele>699.79998779296875</ele>
        <time>2021-07-25T08:24:49.000Z</time>
      </trkpt>
      <trkpt lat="-11.96883930824697017669677734375" lon="-76.74806532450020313262939453125">
        <ele>700</ele>
        <time>2021-07-25T08:24:50.000Z</time>
      </trkpt>
      <trkpt lat="-11.96876839734613895416259765625" lon="-76.7477881349623203277587890625">
        <ele>700.5999755859375</ele>
        <time>2021-07-25T08:24:56.000Z</time>
      </trkpt>
      <trkpt lat="-11.96873009204864501953125" lon="-76.74767690710723400115966796875">
        <ele>701</ele>
        <time>2021-07-25T08:24:59.000Z</time>
      </trkpt>
      <trkpt lat="-11.96871710009872913360595703125" lon="-76.74759107641875743865966796875">
        <ele>701.20001220703125</ele>
        <time>2021-07-25T08:25:01.000Z</time>
      </trkpt>
      <trkpt lat="-11.96871223859488964080810546875" lon="-76.74749921075999736785888671875">
        <ele>701.4000244140625</ele>
        <time>2021-07-25T08:25:03.000Z</time>
      </trkpt>
      <trkpt lat="-11.96866144426167011260986328125" lon="-76.74714423716068267822265625">
        <ele>702</ele>
        <time>2021-07-25T08:25:10.000Z</time>
      </trkpt>
      <trkpt lat="-11.96859237737953662872314453125" lon="-76.74668348394334316253662109375">
        <ele>703</ele>
        <time>2021-07-25T08:25:19.000Z</time>
      </trkpt>
      <trkpt lat="-11.96858215145766735076904296875" lon="-76.74663201905786991119384765625">
        <ele>703.20001220703125</ele>
        <time>2021-07-25T08:25:20.000Z</time>
      </trkpt>
      <trkpt lat="-11.96852213703095912933349609375" lon="-76.74627327360212802886962890625">
        <ele>704</ele>
        <time>2021-07-25T08:25:27.000Z</time>
      </trkpt>
      <trkpt lat="-11.968490369617938995361328125" lon="-76.7461122572422027587890625">
        <ele>704.20001220703125</ele>
        <time>2021-07-25T08:25:30.000Z</time>
      </trkpt>
      <trkpt lat="-11.96845315396785736083984375" lon="-76.74601594917476177215576171875">
        <ele>704.20001220703125</ele>
        <time>2021-07-25T08:25:32.000Z</time>
      </trkpt>
      <trkpt lat="-11.9684238173067569732666015625" lon="-76.74597236327826976776123046875">
        <ele>704.20001220703125</ele>
        <time>2021-07-25T08:25:33.000Z</time>
      </trkpt>
      <trkpt lat="-11.96822340600192546844482421875" lon="-76.7457798309624195098876953125">
        <ele>704.20001220703125</ele>
        <time>2021-07-25T08:25:38.000Z</time>
      </trkpt>
      <trkpt lat="-11.96817311458289623260498046875" lon="-76.74574756063520908355712890625">
        <ele>704.20001220703125</ele>
        <time>2021-07-25T08:25:39.000Z</time>
      </trkpt>
      <trkpt lat="-11.9677009619772434234619140625" lon="-76.74549845047295093536376953125">
        <ele>703.79998779296875</ele>
        <time>2021-07-25T08:25:48.000Z</time>
      </trkpt>
      <trkpt lat="-11.96720601059496402740478515625" lon="-76.7452350072562694549560546875">
        <ele>703.4000244140625</ele>
        <time>2021-07-25T08:25:57.000Z</time>
      </trkpt>
      <trkpt lat="-11.96703870780766010284423828125" lon="-76.74511849880218505859375">
        <ele>703</ele>
        <time>2021-07-25T08:26:00.000Z</time>
      </trkpt>
      <trkpt lat="-11.96694097481667995452880859375" lon="-76.745024286210536956787109375">
        <ele>702.79998779296875</ele>
        <time>2021-07-25T08:26:02.000Z</time>
      </trkpt>
      <trkpt lat="-11.96668381802737712860107421875" lon="-76.7447106353938579559326171875">
        <ele>702.20001220703125</ele>
        <time>2021-07-25T08:26:08.000Z</time>
      </trkpt>
      <trkpt lat="-11.9666421599686145782470703125" lon="-76.7446539737284183502197265625">
        <ele>702</ele>
        <time>2021-07-25T08:26:09.000Z</time>
      </trkpt>
      <trkpt lat="-11.9662968255579471588134765625" lon="-76.7442120797932147979736328125">
        <ele>701.4000244140625</ele>
        <time>2021-07-25T08:26:17.000Z</time>
      </trkpt>
      <trkpt lat="-11.96597370319068431854248046875" lon="-76.743803881108760833740234375">
        <ele>701.5999755859375</ele>
        <time>2021-07-25T08:26:25.000Z</time>
      </trkpt>
      <trkpt lat="-11.96566675789654254913330078125" lon="-76.74342543818056583404541015625">
        <ele>702.5999755859375</ele>
        <time>2021-07-25T08:26:33.000Z</time>
      </trkpt>
      <trkpt lat="-11.96555863134562969207763671875" lon="-76.74328629858791828155517578125">
        <ele>703.20001220703125</ele>
        <time>2021-07-25T08:26:36.000Z</time>
      </trkpt>
      <trkpt lat="-11.9654572941362857818603515625" lon="-76.74316643737256526947021484375">
        <ele>703.5999755859375</ele>
        <time>2021-07-25T08:26:39.000Z</time>
      </trkpt>
      <trkpt lat="-11.96535763330757617950439453125" lon="-76.7430298961699008941650390625">
        <ele>704.20001220703125</ele>
        <time>2021-07-25T08:26:44.000Z</time>
      </trkpt>
      <trkpt lat="-11.96516619063913822174072265625" lon="-76.742783300578594207763671875">
        <ele>705.4000244140625</ele>
        <time>2021-07-25T08:26:53.000Z</time>
      </trkpt>
      <trkpt lat="-11.964991427958011627197265625" lon="-76.7425977252423763275146484375">
        <ele>706.20001220703125</ele>
        <time>2021-07-25T08:26:59.000Z</time>
      </trkpt>
      <trkpt lat="-11.9649594090878963470458984375" lon="-76.742563359439373016357421875">
        <ele>706.4000244140625</ele>
        <time>2021-07-25T08:27:00.000Z</time>
      </trkpt>
      <trkpt lat="-11.96492931805551052093505859375" lon="-76.7425236292183399200439453125">
        <ele>706.5999755859375</ele>
        <time>2021-07-25T08:27:01.000Z</time>
      </trkpt>
      <trkpt lat="-11.9648434035480022430419921875" lon="-76.74240469001233577728271484375">
        <ele>707</ele>
        <time>2021-07-25T08:27:04.000Z</time>
      </trkpt>
      <trkpt lat="-11.964778192341327667236328125" lon="-76.74233092926442623138427734375">
        <ele>707.4000244140625</ele>
        <time>2021-07-25T08:27:06.000Z</time>
      </trkpt>
      <trkpt lat="-11.96462974883615970611572265625" lon="-76.74213143996894359588623046875">
        <ele>708.4000244140625</ele>
        <time>2021-07-25T08:27:11.000Z</time>
      </trkpt>
      <trkpt lat="-11.96459840051829814910888671875" lon="-76.742089949548244476318359375">
        <ele>708.5999755859375</ele>
        <time>2021-07-25T08:27:12.000Z</time>
      </trkpt>
      <trkpt lat="-11.96442984044551849365234375" lon="-76.74187696538865566253662109375">
        <ele>709.20001220703125</ele>
        <time>2021-07-25T08:27:17.000Z</time>
      </trkpt>
      <trkpt lat="-11.9643676467239856719970703125" lon="-76.74179934896528720855712890625">
        <ele>709.5999755859375</ele>
        <time>2021-07-25T08:27:19.000Z</time>
      </trkpt>
      <trkpt lat="-11.96422439999878406524658203125" lon="-76.74162332899868488311767578125">
        <ele>710.4000244140625</ele>
        <time>2021-07-25T08:27:24.000Z</time>
      </trkpt>
      <trkpt lat="-11.9641661457717418670654296875" lon="-76.74155761487782001495361328125">
        <ele>710.5999755859375</ele>
        <time>2021-07-25T08:27:26.000Z</time>
      </trkpt>
      <trkpt lat="-11.96406145580112934112548828125" lon="-76.74142777919769287109375">
        <ele>711.5999755859375</ele>
        <time>2021-07-25T08:27:30.000Z</time>
      </trkpt>
      <trkpt lat="-11.96403698064386844635009765625" lon="-76.7413957603275775909423828125">
        <ele>711.79998779296875</ele>
        <time>2021-07-25T08:27:31.000Z</time>
      </trkpt>
      <trkpt lat="-11.96383380331099033355712890625" lon="-76.74113365821540355682373046875">
        <ele>712.79998779296875</ele>
        <time>2021-07-25T08:27:39.000Z</time>
      </trkpt>
      <trkpt lat="-11.96365376003086566925048828125" lon="-76.740911789238452911376953125">
        <ele>713.4000244140625</ele>
        <time>2021-07-25T08:27:45.000Z</time>
      </trkpt>
      <trkpt lat="-11.963457874953746795654296875" lon="-76.740670390427112579345703125">
        <ele>714</ele>
        <time>2021-07-25T08:27:51.000Z</time>
      </trkpt>
      <trkpt lat="-11.96342644281685352325439453125" lon="-76.74062973819673061370849609375">
        <ele>714</ele>
        <time>2021-07-25T08:27:52.000Z</time>
      </trkpt>
      <trkpt lat="-11.96315973065793514251708984375" lon="-76.7402551509439945220947265625">
        <ele>715.20001220703125</ele>
        <time>2021-07-25T08:28:01.000Z</time>
      </trkpt>
      <trkpt lat="-11.962977759540081024169921875" lon="-76.73995801247656345367431640625">
        <ele>716.4000244140625</ele>
        <time>2021-07-25T08:28:08.000Z</time>
      </trkpt>
      <trkpt lat="-11.9629511050879955291748046875" lon="-76.73991643823683261871337890625">
        <ele>716.5999755859375</ele>
        <time>2021-07-25T08:28:09.000Z</time>
      </trkpt>
      <trkpt lat="-11.9628364406526088714599609375" lon="-76.7397059686481952667236328125">
        <ele>717.4000244140625</ele>
        <time>2021-07-25T08:28:14.000Z</time>
      </trkpt>
      <trkpt lat="-11.96273527108132839202880859375" lon="-76.7395356483757495880126953125">
        <ele>718.20001220703125</ele>
        <time>2021-07-25T08:28:18.000Z</time>
      </trkpt>
      <trkpt lat="-11.9626855663955211639404296875" lon="-76.7394483089447021484375">
        <ele>718.5999755859375</ele>
        <time>2021-07-25T08:28:20.000Z</time>
      </trkpt>
      <trkpt lat="-11.962539888918399810791015625" lon="-76.739191822707653045654296875">
        <ele>719.5999755859375</ele>
        <time>2021-07-25T08:28:26.000Z</time>
      </trkpt>
      <trkpt lat="-11.96251683868467807769775390625" lon="-76.73914781771600246429443359375">
        <ele>719.79998779296875</ele>
        <time>2021-07-25T08:28:27.000Z</time>
      </trkpt>
      <trkpt lat="-11.96234710514545440673828125" lon="-76.73884212970733642578125">
        <ele>720.79998779296875</ele>
        <time>2021-07-25T08:28:34.000Z</time>
      </trkpt>
      <trkpt lat="-11.96222229860723018646240234375" lon="-76.738630570471286773681640625">
        <ele>721.79998779296875</ele>
        <time>2021-07-25T08:28:39.000Z</time>
      </trkpt>
      <trkpt lat="-11.96213982068002223968505859375" lon="-76.73850593157112598419189453125">
        <ele>722.20001220703125</ele>
        <time>2021-07-25T08:28:42.000Z</time>
      </trkpt>
      <trkpt lat="-11.96202029474079608917236328125" lon="-76.738353632390499114990234375">
        <ele>723</ele>
        <time>2021-07-25T08:28:46.000Z</time>
      </trkpt>
      <trkpt lat="-11.96192708797752857208251953125" lon="-76.7382478527724742889404296875">
        <ele>723.5999755859375</ele>
        <time>2021-07-25T08:28:49.000Z</time>
      </trkpt>
      <trkpt lat="-11.96183119900524616241455078125" lon="-76.73814031295478343963623046875">
        <ele>724</ele>
        <time>2021-07-25T08:28:52.000Z</time>
      </trkpt>
      <trkpt lat="-11.96163254790008068084716796875" lon="-76.73793411813676357269287109375">
        <ele>725.20001220703125</ele>
        <time>2021-07-25T08:28:58.000Z</time>
      </trkpt>
      <trkpt lat="-11.961532719433307647705078125" lon="-76.7378264106810092926025390625">
        <ele>725.79998779296875</ele>
        <time>2021-07-25T08:29:01.000Z</time>
      </trkpt>
      <trkpt lat="-11.96146155707538127899169921875" lon="-76.73775441013276576995849609375">
        <ele>726.4000244140625</ele>
        <time>2021-07-25T08:29:03.000Z</time>
      </trkpt>
      <trkpt lat="-11.96139751933515071868896484375" lon="-76.7376835830509662628173828125">
        <ele>726.5999755859375</ele>
        <time>2021-07-25T08:29:05.000Z</time>
      </trkpt>
      <trkpt lat="-11.9612720422446727752685546875" lon="-76.73754469491541385650634765625">
        <ele>727.4000244140625</ele>
        <time>2021-07-25T08:29:09.000Z</time>
      </trkpt>
      <trkpt lat="-11.96114203892648220062255859375" lon="-76.73740404658019542694091796875">
        <ele>728</ele>
        <time>2021-07-25T08:29:13.000Z</time>
      </trkpt>
      <trkpt lat="-11.96104447357356548309326171875" lon="-76.73729759640991687774658203125">
        <ele>728.5999755859375</ele>
        <time>2021-07-25T08:29:16.000Z</time>
      </trkpt>
      <trkpt lat="-11.96091203950345516204833984375" lon="-76.737157367169857025146484375">
        <ele>729.20001220703125</ele>
        <time>2021-07-25T08:29:20.000Z</time>
      </trkpt>
      <trkpt lat="-11.96084599010646343231201171875" lon="-76.73708327114582061767578125">
        <ele>729.5999755859375</ele>
        <time>2021-07-25T08:29:22.000Z</time>
      </trkpt>
      <trkpt lat="-11.96064180694520473480224609375" lon="-76.73686609603464603424072265625">
        <ele>730.4000244140625</ele>
        <time>2021-07-25T08:29:28.000Z</time>
      </trkpt>
      <trkpt lat="-11.96057558991014957427978515625" lon="-76.73679350875318050384521484375">
        <ele>730.5999755859375</ele>
        <time>2021-07-25T08:29:30.000Z</time>
      </trkpt>
      <trkpt lat="-11.9603334367275238037109375" lon="-76.73653542995452880859375">
        <ele>731.5999755859375</ele>
        <time>2021-07-25T08:29:37.000Z</time>
      </trkpt>
      <trkpt lat="-11.960061527788639068603515625" lon="-76.73623795621097087860107421875">
        <ele>732.5999755859375</ele>
        <time>2021-07-25T08:29:45.000Z</time>
      </trkpt>
      <trkpt lat="-11.96002623997628688812255859375" lon="-76.7362016625702381134033203125">
        <ele>733</ele>
        <time>2021-07-25T08:29:46.000Z</time>
      </trkpt>
      <trkpt lat="-11.95985122583806514739990234375" lon="-76.73601365648210048675537109375">
        <ele>733.79998779296875</ele>
        <time>2021-07-25T08:29:51.000Z</time>
      </trkpt>
      <trkpt lat="-11.9597458653151988983154296875" lon="-76.73589832149446010589599609375">
        <ele>734</ele>
        <time>2021-07-25T08:29:54.000Z</time>
      </trkpt>
      <trkpt lat="-11.95954159833490848541259765625" lon="-76.73567938618361949920654296875">
        <ele>734.79998779296875</ele>
        <time>2021-07-25T08:30:00.000Z</time>
      </trkpt>
      <trkpt lat="-11.959449313580989837646484375" lon="-76.73557830043137073516845703125">
        <ele>735.20001220703125</ele>
        <time>2021-07-25T08:30:03.000Z</time>
      </trkpt>
      <trkpt lat="-11.95927404798567295074462890625" lon="-76.735390461981296539306640625">
        <ele>735.79998779296875</ele>
        <time>2021-07-25T08:30:09.000Z</time>
      </trkpt>
      <trkpt lat="-11.95918100886046886444091796875" lon="-76.735293231904506683349609375">
        <ele>736.4000244140625</ele>
        <time>2021-07-25T08:30:12.000Z</time>
      </trkpt>
      <trkpt lat="-11.95898973383009433746337890625" lon="-76.7350808344781398773193359375">
        <ele>737</ele>
        <time>2021-07-25T08:30:18.000Z</time>
      </trkpt>
      <trkpt lat="-11.95892435498535633087158203125" lon="-76.73501017503440380096435546875">
        <ele>737.20001220703125</ele>
        <time>2021-07-25T08:30:20.000Z</time>
      </trkpt>
      <trkpt lat="-11.9586629234254360198974609375" lon="-76.73472787253558635711669921875">
        <ele>738</ele>
        <time>2021-07-25T08:30:28.000Z</time>
      </trkpt>
      <trkpt lat="-11.95859762839972972869873046875" lon="-76.73465729691088199615478515625">
        <ele>738.20001220703125</ele>
        <time>2021-07-25T08:30:30.000Z</time>
      </trkpt>
      <trkpt lat="-11.95835656486451625823974609375" lon="-76.7344044148921966552734375">
        <ele>739.20001220703125</ele>
        <time>2021-07-25T08:30:37.000Z</time>
      </trkpt>
      <trkpt lat="-11.9583217799663543701171875" lon="-76.73436610959470272064208984375">
        <ele>739.4000244140625</ele>
        <time>2021-07-25T08:30:38.000Z</time>
      </trkpt>
      <trkpt lat="-11.95803201757371425628662109375" lon="-76.73406251706182956695556640625">
        <ele>740.20001220703125</ele>
        <time>2021-07-25T08:30:46.000Z</time>
      </trkpt>
      <trkpt lat="-11.95799513719975948333740234375" lon="-76.73402429558336734771728515625">
        <ele>740.20001220703125</ele>
        <time>2021-07-25T08:30:47.000Z</time>
      </trkpt>
      <trkpt lat="-11.95782699622213840484619140625" lon="-76.7338331043720245361328125">
        <ele>741</ele>
        <time>2021-07-25T08:30:52.000Z</time>
      </trkpt>
      <trkpt lat="-11.95771903730928897857666015625" lon="-76.7337222956120967864990234375">
        <ele>741.20001220703125</ele>
        <time>2021-07-25T08:30:55.000Z</time>
      </trkpt>
      <trkpt lat="-11.957437992095947265625" lon="-76.73342566005885601043701171875">
        <ele>742.20001220703125</ele>
        <time>2021-07-25T08:31:03.000Z</time>
      </trkpt>
      <trkpt lat="-11.95740521885454654693603515625" lon="-76.7333890311419963836669921875">
        <ele>742.4000244140625</ele>
        <time>2021-07-25T08:31:04.000Z</time>
      </trkpt>
      <trkpt lat="-11.95717354305088520050048828125" lon="-76.73313598148524761199951171875">
        <ele>743.5999755859375</ele>
        <time>2021-07-25T08:31:11.000Z</time>
      </trkpt>
      <trkpt lat="-11.9570727087557315826416015625" lon="-76.7330284416675567626953125">
        <ele>744</ele>
        <time>2021-07-25T08:31:14.000Z</time>
      </trkpt>
      <trkpt lat="-11.95683181285858154296875" lon="-76.7327781580388545989990234375">
        <ele>744.5999755859375</ele>
        <time>2021-07-25T08:31:21.000Z</time>
      </trkpt>
      <trkpt lat="-11.95672980509698390960693359375" lon="-76.7326690256595611572265625">
        <ele>745.20001220703125</ele>
        <time>2021-07-25T08:31:24.000Z</time>
      </trkpt>
      <trkpt lat="-11.95659753866493701934814453125" lon="-76.7325188219547271728515625">
        <ele>745.79998779296875</ele>
        <time>2021-07-25T08:31:28.000Z</time>
      </trkpt>
      <trkpt lat="-11.9563622586429119110107421875" lon="-76.73226744867861270904541015625">
        <ele>746.5999755859375</ele>
        <time>2021-07-25T08:31:35.000Z</time>
      </trkpt>
      <trkpt lat="-11.9563294015824794769287109375" lon="-76.73223140649497509002685546875">
        <ele>746.79998779296875</ele>
        <time>2021-07-25T08:31:36.000Z</time>
      </trkpt>
      <trkpt lat="-11.9560507871210575103759765625" lon="-76.73193552531301975250244140625">
        <ele>747.4000244140625</ele>
        <time>2021-07-25T08:31:44.000Z</time>
      </trkpt>
      <trkpt lat="-11.95595213212072849273681640625" lon="-76.7318268120288848876953125">
        <ele>747.79998779296875</ele>
        <time>2021-07-25T08:31:47.000Z</time>
      </trkpt>
      <trkpt lat="-11.95581735111773014068603515625" lon="-76.73168130218982696533203125">
        <ele>748.20001220703125</ele>
        <time>2021-07-25T08:31:51.000Z</time>
      </trkpt>
      <trkpt lat="-11.95575096644461154937744140625" lon="-76.7316056974232196807861328125">
        <ele>748.5999755859375</ele>
        <time>2021-07-25T08:31:53.000Z</time>
      </trkpt>
      <trkpt lat="-11.95564552210271358489990234375" lon="-76.731495559215545654296875">
        <ele>749</ele>
        <time>2021-07-25T08:31:56.000Z</time>
      </trkpt>
      <trkpt lat="-11.9554731063544750213623046875" lon="-76.73131945542991161346435546875">
        <ele>749.5999755859375</ele>
        <time>2021-07-25T08:32:01.000Z</time>
      </trkpt>
      <trkpt lat="-11.95531435310840606689453125" lon="-76.73114142380654811859130859375">
        <ele>750</ele>
        <time>2021-07-25T08:32:06.000Z</time>
      </trkpt>
      <trkpt lat="-11.95524587295949459075927734375" lon="-76.73107537440955638885498046875">
        <ele>750.4000244140625</ele>
        <time>2021-07-25T08:32:08.000Z</time>
      </trkpt>
      <trkpt lat="-11.95508946664631366729736328125" lon="-76.73090522177517414093017578125">
        <ele>751</ele>
        <time>2021-07-25T08:32:13.000Z</time>
      </trkpt>
      <trkpt lat="-11.95499877445399761199951171875" lon="-76.73079692758619785308837890625">
        <ele>751.5999755859375</ele>
        <time>2021-07-25T08:32:16.000Z</time>
      </trkpt>
      <trkpt lat="-11.95489995181560516357421875" lon="-76.73068486154079437255859375">
        <ele>752.20001220703125</ele>
        <time>2021-07-25T08:32:19.000Z</time>
      </trkpt>
      <trkpt lat="-11.95473189465701580047607421875" lon="-76.73051076941192150115966796875">
        <ele>752.79998779296875</ele>
        <time>2021-07-25T08:32:24.000Z</time>
      </trkpt>
      <trkpt lat="-11.954697780311107635498046875" lon="-76.7304758168756961822509765625">
        <ele>753.20001220703125</ele>
        <time>2021-07-25T08:32:25.000Z</time>
      </trkpt>
      <trkpt lat="-11.9544314034283161163330078125" lon="-76.7301898263394832611083984375">
        <ele>754.20001220703125</ele>
        <time>2021-07-25T08:32:33.000Z</time>
      </trkpt>
      <trkpt lat="-11.95440131239593029022216796875" lon="-76.73015420325100421905517578125">
        <ele>754.4000244140625</ele>
        <time>2021-07-25T08:32:34.000Z</time>
      </trkpt>
      <trkpt lat="-11.9541983865201473236083984375" lon="-76.72994163818657398223876953125">
        <ele>755.20001220703125</ele>
        <time>2021-07-25T08:32:40.000Z</time>
      </trkpt>
      <trkpt lat="-11.95412881672382354736328125" lon="-76.72987039200961589813232421875">
        <ele>755.4000244140625</ele>
        <time>2021-07-25T08:32:42.000Z</time>
      </trkpt>
      <trkpt lat="-11.953939385712146759033203125" lon="-76.7296644486486911773681640625">
        <ele>756.20001220703125</ele>
        <time>2021-07-25T08:32:48.000Z</time>
      </trkpt>
      <trkpt lat="-11.9538746774196624755859375" lon="-76.729596555233001708984375">
        <ele>756.5999755859375</ele>
        <time>2021-07-25T08:32:50.000Z</time>
      </trkpt>
      <trkpt lat="-11.95372112095355987548828125" lon="-76.72943319194018840789794921875">
        <ele>757.20001220703125</ele>
        <time>2021-07-25T08:32:55.000Z</time>
      </trkpt>
      <trkpt lat="-11.953641660511493682861328125" lon="-76.72934987582266330718994140625">
        <ele>757.79998779296875</ele>
        <time>2021-07-25T08:32:58.000Z</time>
      </trkpt>
      <trkpt lat="-11.95355624891817569732666015625" lon="-76.729266643524169921875">
        <ele>758.20001220703125</ele>
        <time>2021-07-25T08:33:01.000Z</time>
      </trkpt>
      <trkpt lat="-11.953469999134540557861328125" lon="-76.72917704097926616668701171875">
        <ele>759.20001220703125</ele>
        <time>2021-07-25T08:33:04.000Z</time>
      </trkpt>
      <trkpt lat="-11.953443847596645355224609375" lon="-76.72914552502334117889404296875">
        <ele>759.4000244140625</ele>
        <time>2021-07-25T08:33:05.000Z</time>
      </trkpt>
      <trkpt lat="-11.95327587425708770751953125" lon="-76.7289633862674236297607421875">
        <ele>760.4000244140625</ele>
        <time>2021-07-25T08:33:11.000Z</time>
      </trkpt>
      <trkpt lat="-11.9532227329909801483154296875" lon="-76.72889775596559047698974609375">
        <ele>760.79998779296875</ele>
        <time>2021-07-25T08:33:13.000Z</time>
      </trkpt>
      <trkpt lat="-11.95316431112587451934814453125" lon="-76.728830449283123016357421875">
        <ele>761.20001220703125</ele>
        <time>2021-07-25T08:33:15.000Z</time>
      </trkpt>
      <trkpt lat="-11.95311116985976696014404296875" lon="-76.728767417371273040771484375">
        <ele>761.5999755859375</ele>
        <time>2021-07-25T08:33:17.000Z</time>
      </trkpt>
      <trkpt lat="-11.953032128512859344482421875" lon="-76.7286693491041660308837890625">
        <ele>762.4000244140625</ele>
        <time>2021-07-25T08:33:20.000Z</time>
      </trkpt>
      <trkpt lat="-11.95297873578965663909912109375" lon="-76.7286076582968235015869140625">
        <ele>762.5999755859375</ele>
        <time>2021-07-25T08:33:22.000Z</time>
      </trkpt>
      <trkpt lat="-11.95295124314725399017333984375" lon="-76.72857672907412052154541015625">
        <ele>762.79998779296875</ele>
        <time>2021-07-25T08:33:23.000Z</time>
      </trkpt>
      <trkpt lat="-11.95287446491420269012451171875" lon="-76.7284742183983325958251953125">
        <ele>763.4000244140625</ele>
        <time>2021-07-25T08:33:26.000Z</time>
      </trkpt>
      <trkpt lat="-11.95282635278999805450439453125" lon="-76.728406660258769989013671875">
        <ele>764</ele>
        <time>2021-07-25T08:33:28.000Z</time>
      </trkpt>
      <trkpt lat="-11.95269651710987091064453125" lon="-76.72823038883507251739501953125">
        <ele>764.79998779296875</ele>
        <time>2021-07-25T08:33:33.000Z</time>
      </trkpt>
      <trkpt lat="-11.9526373408734798431396484375" lon="-76.7281567119061946868896484375">
        <ele>765</ele>
        <time>2021-07-25T08:33:35.000Z</time>
      </trkpt>
      <trkpt lat="-11.9524938426911830902099609375" lon="-76.72795630060136318206787109375">
        <ele>765.20001220703125</ele>
        <time>2021-07-25T08:33:40.000Z</time>
      </trkpt>
      <trkpt lat="-11.952180527150630950927734375" lon="-76.7275535501539707183837890625">
        <ele>765.5999755859375</ele>
        <time>2021-07-25T08:33:50.000Z</time>
      </trkpt>
      <trkpt lat="-11.9518615119159221649169921875" lon="-76.727132610976696014404296875">
        <ele>765.4000244140625</ele>
        <time>2021-07-25T08:34:00.000Z</time>
      </trkpt>
      <trkpt lat="-11.95156940259039402008056640625" lon="-76.7267358116805553436279296875">
        <ele>765.5999755859375</ele>
        <time>2021-07-25T08:34:09.000Z</time>
      </trkpt>
      <trkpt lat="-11.9513391517102718353271484375" lon="-76.72640363685786724090576171875">
        <ele>766</ele>
        <time>2021-07-25T08:34:16.000Z</time>
      </trkpt>
      <trkpt lat="-11.95127360522747039794921875" lon="-76.72631126828491687774658203125">
        <ele>766</ele>
        <time>2021-07-25T08:34:18.000Z</time>
      </trkpt>
      <trkpt lat="-11.95106632076203823089599609375" lon="-76.7259174026548862457275390625">
        <ele>766.79998779296875</ele>
        <time>2021-07-25T08:34:26.000Z</time>
      </trkpt>
      <trkpt lat="-11.95090211927890777587890625" lon="-76.7255053482949733734130859375">
        <ele>767.20001220703125</ele>
        <time>2021-07-25T08:34:34.000Z</time>
      </trkpt>
      <trkpt lat="-11.9507001154124736785888671875" lon="-76.72498072497546672821044921875">
        <ele>767.79998779296875</ele>
        <time>2021-07-25T08:34:44.000Z</time>
      </trkpt>
      <trkpt lat="-11.95055988617241382598876953125" lon="-76.72461376525461673736572265625">
        <ele>768.20001220703125</ele>
        <time>2021-07-25T08:34:51.000Z</time>
      </trkpt>
      <trkpt lat="-11.95051847957074642181396484375" lon="-76.72451443970203399658203125">
        <ele>768.20001220703125</ele>
        <time>2021-07-25T08:34:53.000Z</time>
      </trkpt>
      <trkpt lat="-11.95032217539846897125244140625" lon="-76.724015213549137115478515625">
        <ele>769</ele>
        <time>2021-07-25T08:35:03.000Z</time>
      </trkpt>
      <trkpt lat="-11.95028261281549930572509765625" lon="-76.7239184863865375518798828125">
        <ele>769.20001220703125</ele>
        <time>2021-07-25T08:35:05.000Z</time>
      </trkpt>
      <trkpt lat="-11.9501274637877941131591796875" lon="-76.7235255427658557891845703125">
        <ele>770.20001220703125</ele>
        <time>2021-07-25T08:35:13.000Z</time>
      </trkpt>
      <trkpt lat="-11.950109191238880157470703125" lon="-76.72347717918455600738525390625">
        <ele>770.20001220703125</ele>
        <time>2021-07-25T08:35:14.000Z</time>
      </trkpt>
      <trkpt lat="-11.94999813102185726165771484375" lon="-76.72318875789642333984375">
        <ele>770.79998779296875</ele>
        <time>2021-07-25T08:35:20.000Z</time>
      </trkpt>
      <trkpt lat="-11.9499786011874675750732421875" lon="-76.72314173541963100433349609375">
        <ele>770.79998779296875</ele>
        <time>2021-07-25T08:35:21.000Z</time>
      </trkpt>
      <trkpt lat="-11.9499246217310428619384765625" lon="-76.722996644675731658935546875">
        <ele>771.4000244140625</ele>
        <time>2021-07-25T08:35:24.000Z</time>
      </trkpt>
      <trkpt lat="-11.94982781074941158294677734375" lon="-76.72276563942432403564453125">
        <ele>772.20001220703125</ele>
        <time>2021-07-25T08:35:29.000Z</time>
      </trkpt>
      <trkpt lat="-11.949787326157093048095703125" lon="-76.72266966663300991058349609375">
        <ele>772.4000244140625</ele>
        <time>2021-07-25T08:35:31.000Z</time>
      </trkpt>
      <trkpt lat="-11.94968313910067081451416015625" lon="-76.72238610684871673583984375">
        <ele>773</ele>
        <time>2021-07-25T08:35:37.000Z</time>
      </trkpt>
      <trkpt lat="-11.94964810274541378021240234375" lon="-76.72229214571416378021240234375">
        <ele>773.4000244140625</ele>
        <time>2021-07-25T08:35:39.000Z</time>
      </trkpt>
      <trkpt lat="-11.9495001621544361114501953125" lon="-76.7219152115285396575927734375">
        <ele>774.20001220703125</ele>
        <time>2021-07-25T08:35:47.000Z</time>
      </trkpt>
      <trkpt lat="-11.94948331452906131744384765625" lon="-76.721866093575954437255859375">
        <ele>774.20001220703125</ele>
        <time>2021-07-25T08:35:48.000Z</time>
      </trkpt>
      <trkpt lat="-11.94946889765560626983642578125" lon="-76.72181823290884494781494140625">
        <ele>774.4000244140625</ele>
        <time>2021-07-25T08:35:49.000Z</time>
      </trkpt>
      <trkpt lat="-11.9493972323834896087646484375" lon="-76.721627712249755859375">
        <ele>775</ele>
        <time>2021-07-25T08:35:53.000Z</time>
      </trkpt>
      <trkpt lat="-11.94932254962623119354248046875" lon="-76.72143752686679363250732421875">
        <ele>775.4000244140625</ele>
        <time>2021-07-25T08:35:57.000Z</time>
      </trkpt>
      <trkpt lat="-11.94921509362757205963134765625" lon="-76.72114960849285125732421875">
        <ele>776</ele>
        <time>2021-07-25T08:36:03.000Z</time>
      </trkpt>
      <trkpt lat="-11.949179470539093017578125" lon="-76.721054725348949432373046875">
        <ele>776.4000244140625</ele>
        <time>2021-07-25T08:36:05.000Z</time>
      </trkpt>
      <trkpt lat="-11.94903186522424221038818359375" lon="-76.7206770367920398712158203125">
        <ele>777.4000244140625</ele>
        <time>2021-07-25T08:36:13.000Z</time>
      </trkpt>
      <trkpt lat="-11.949016191065311431884765625" lon="-76.72063194215297698974609375">
        <ele>777.5999755859375</ele>
        <time>2021-07-25T08:36:14.000Z</time>
      </trkpt>
      <trkpt lat="-11.9488938152790069580078125" lon="-76.72030898742377758026123046875">
        <ele>778.5999755859375</ele>
        <time>2021-07-25T08:36:21.000Z</time>
      </trkpt>
      <trkpt lat="-11.94885693490505218505859375" lon="-76.72021594829857349395751953125">
        <ele>778.79998779296875</ele>
        <time>2021-07-25T08:36:23.000Z</time>
      </trkpt>
      <trkpt lat="-11.94870195351541042327880859375" lon="-76.71979953534901142120361328125">
        <ele>779.79998779296875</ele>
        <time>2021-07-25T08:36:32.000Z</time>
      </trkpt>
      <trkpt lat="-11.94858091883361339569091796875" lon="-76.71948253177106380462646484375">
        <ele>780.79998779296875</ele>
        <time>2021-07-25T08:36:39.000Z</time>
      </trkpt>
      <trkpt lat="-11.948531381785869598388671875" lon="-76.7193456552922725677490234375">
        <ele>781.5999755859375</ele>
        <time>2021-07-25T08:36:42.000Z</time>
      </trkpt>
      <trkpt lat="-11.94846088998019695281982421875" lon="-76.71916284598410129547119140625">
        <ele>781.79998779296875</ele>
        <time>2021-07-25T08:36:46.000Z</time>
      </trkpt>
      <trkpt lat="-11.94840976037085056304931640625" lon="-76.719025634229183197021484375">
        <ele>782.79998779296875</ele>
        <time>2021-07-25T08:36:49.000Z</time>
      </trkpt>
      <trkpt lat="-11.9483935832977294921875" lon="-76.71897978521883487701416015625">
        <ele>782.79998779296875</ele>
        <time>2021-07-25T08:36:50.000Z</time>
      </trkpt>
      <trkpt lat="-11.94823306985199451446533203125" lon="-76.718568988144397735595703125">
        <ele>784</ele>
        <time>2021-07-25T08:36:59.000Z</time>
      </trkpt>
      <trkpt lat="-11.94811404682695865631103515625" lon="-76.71825994737446308135986328125">
        <ele>785.20001220703125</ele>
        <time>2021-07-25T08:37:06.000Z</time>
      </trkpt>
      <trkpt lat="-11.94809778593480587005615234375" lon="-76.7182187922298908233642578125">
        <ele>785.4000244140625</ele>
        <time>2021-07-25T08:37:07.000Z</time>
      </trkpt>
      <trkpt lat="-11.94801413454115390777587890625" lon="-76.71799792908132076263427734375">
        <ele>786.4000244140625</ele>
        <time>2021-07-25T08:37:12.000Z</time>
      </trkpt>
      <trkpt lat="-11.9479461573064327239990234375" lon="-76.7178204841911792755126953125">
        <ele>787</ele>
        <time>2021-07-25T08:37:16.000Z</time>
      </trkpt>
      <trkpt lat="-11.9479149766266345977783203125" lon="-76.717732809484004974365234375">
        <ele>787.4000244140625</ele>
        <time>2021-07-25T08:37:18.000Z</time>
      </trkpt>
      <trkpt lat="-11.9477996416389942169189453125" lon="-76.71742795966565608978271484375">
        <ele>788.5999755859375</ele>
        <time>2021-07-25T08:37:25.000Z</time>
      </trkpt>
      <trkpt lat="-11.94774373434484004974365234375" lon="-76.71730156056582927703857421875">
        <ele>789.5999755859375</ele>
        <time>2021-07-25T08:37:28.000Z</time>
      </trkpt>
      <trkpt lat="-11.94766695611178874969482421875" lon="-76.7171016521751880645751953125">
        <ele>790.5999755859375</ele>
        <time>2021-07-25T08:37:33.000Z</time>
      </trkpt>
      <trkpt lat="-11.94757282733917236328125" lon="-76.71685941517353057861328125">
        <ele>791.5999755859375</ele>
        <time>2021-07-25T08:37:39.000Z</time>
      </trkpt>
      <trkpt lat="-11.94752681069076061248779296875" lon="-76.71674164943397045135498046875">
        <ele>792</ele>
        <time>2021-07-25T08:37:42.000Z</time>
      </trkpt>
      <trkpt lat="-11.9474817998707294464111328125" lon="-76.716623716056346893310546875">
        <ele>792.5999755859375</ele>
        <time>2021-07-25T08:37:45.000Z</time>
      </trkpt>
      <trkpt lat="-11.947396136820316314697265625" lon="-76.71638927422463893890380859375">
        <ele>793.5999755859375</ele>
        <time>2021-07-25T08:37:51.000Z</time>
      </trkpt>
      <trkpt lat="-11.9473788700997829437255859375" lon="-76.7163529805839061737060546875">
        <ele>794</ele>
        <time>2021-07-25T08:37:52.000Z</time>
      </trkpt>
      <trkpt lat="-11.9472725875675678253173828125" lon="-76.7160948179662227630615234375">
        <ele>795.20001220703125</ele>
        <time>2021-07-25T08:37:59.000Z</time>
      </trkpt>
      <trkpt lat="-11.9472065381705760955810546875" lon="-76.71590932644903659820556640625">
        <ele>796.20001220703125</ele>
        <time>2021-07-25T08:38:04.000Z</time>
      </trkpt>
      <trkpt lat="-11.947161443531513214111328125" lon="-76.7157974280416965484619140625">
        <ele>796.79998779296875</ele>
        <time>2021-07-25T08:38:07.000Z</time>
      </trkpt>
      <trkpt lat="-11.94712221622467041015625" lon="-76.71568460762500762939453125">
        <ele>797.4000244140625</ele>
        <time>2021-07-25T08:38:10.000Z</time>
      </trkpt>
      <trkpt lat="-11.94706530310213565826416015625" lon="-76.715544126927852630615234375">
        <ele>798.20001220703125</ele>
        <time>2021-07-25T08:38:14.000Z</time>
      </trkpt>
      <trkpt lat="-11.94704853929579257965087890625" lon="-76.7155094258487224578857421875">
        <ele>798.4000244140625</ele>
        <time>2021-07-25T08:38:15.000Z</time>
      </trkpt>
      <trkpt lat="-11.9469899497926235198974609375" lon="-76.71532695181667804718017578125">
        <ele>799.4000244140625</ele>
        <time>2021-07-25T08:38:20.000Z</time>
      </trkpt>
      <trkpt lat="-11.9469808973371982574462890625" lon="-76.71529166400432586669921875">
        <ele>799.5999755859375</ele>
        <time>2021-07-25T08:38:21.000Z</time>
      </trkpt>
      <trkpt lat="-11.946930773556232452392578125" lon="-76.71510659158229827880859375">
        <ele>800.4000244140625</ele>
        <time>2021-07-25T08:38:26.000Z</time>
      </trkpt>
      <trkpt lat="-11.9469155184924602508544921875" lon="-76.71503023244440555572509765625">
        <ele>800.79998779296875</ele>
        <time>2021-07-25T08:38:28.000Z</time>
      </trkpt>
      <trkpt lat="-11.9468829967081546783447265625" lon="-76.71484281308948993682861328125">
        <ele>801.5999755859375</ele>
        <time>2021-07-25T08:38:33.000Z</time>
      </trkpt>
      <trkpt lat="-11.946877799928188323974609375" lon="-76.71480207704007625579833984375">
        <ele>801.79998779296875</ele>
        <time>2021-07-25T08:38:34.000Z</time>
      </trkpt>
      <trkpt lat="-11.94684469141066074371337890625" lon="-76.714559085667133331298828125">
        <ele>802.79998779296875</ele>
        <time>2021-07-25T08:38:40.000Z</time>
      </trkpt>
      <trkpt lat="-11.94683547131717205047607421875" lon="-76.71447367407381534576416015625">
        <ele>803</ele>
        <time>2021-07-25T08:38:42.000Z</time>
      </trkpt>
      <trkpt lat="-11.94680630229413509368896484375" lon="-76.714265383780002593994140625">
        <ele>803.79998779296875</ele>
        <time>2021-07-25T08:38:47.000Z</time>
      </trkpt>
      <trkpt lat="-11.9467894546687602996826171875" lon="-76.71413420699536800384521484375">
        <ele>804.20001220703125</ele>
        <time>2021-07-25T08:38:50.000Z</time>
      </trkpt>
      <trkpt lat="-11.94675718434154987335205078125" lon="-76.71392147429287433624267578125">
        <ele>804.79998779296875</ele>
        <time>2021-07-25T08:38:55.000Z</time>
      </trkpt>
      <trkpt lat="-11.9467498920857906341552734375" lon="-76.713832207024097442626953125">
        <ele>805.20001220703125</ele>
        <time>2021-07-25T08:38:57.000Z</time>
      </trkpt>
      <trkpt lat="-11.94674377329647541046142578125" lon="-76.71378887258470058441162109375">
        <ele>805.4000244140625</ele>
        <time>2021-07-25T08:38:58.000Z</time>
      </trkpt>
      <trkpt lat="-11.946711838245391845703125" lon="-76.71356289647519588470458984375">
        <ele>806</ele>
        <time>2021-07-25T08:39:03.000Z</time>
      </trkpt>
      <trkpt lat="-11.94669616408646106719970703125" lon="-76.71342409215867519378662109375">
        <ele>806.5999755859375</ele>
        <time>2021-07-25T08:39:06.000Z</time>
      </trkpt>
      <trkpt lat="-11.9466863572597503662109375" lon="-76.71333021484315395355224609375">
        <ele>807</ele>
        <time>2021-07-25T08:39:08.000Z</time>
      </trkpt>
      <trkpt lat="-11.9466459564864635467529296875" lon="-76.7130424641072750091552734375">
        <ele>807.20001220703125</ele>
        <time>2021-07-25T08:39:14.000Z</time>
      </trkpt>
      <trkpt lat="-11.94660681299865245819091796875" lon="-76.71275454573333263397216796875">
        <ele>807.4000244140625</ele>
        <time>2021-07-25T08:39:20.000Z</time>
      </trkpt>
      <trkpt lat="-11.94655166007578372955322265625" lon="-76.71240669675171375274658203125">
        <ele>808</ele>
        <time>2021-07-25T08:39:27.000Z</time>
      </trkpt>
      <trkpt lat="-11.946443282067775726318359375" lon="-76.71189732849597930908203125">
        <ele>808.20001220703125</ele>
        <time>2021-07-25T08:39:37.000Z</time>
      </trkpt>
      <trkpt lat="-11.9463230855762958526611328125" lon="-76.711465157568454742431640625">
        <ele>808.5999755859375</ele>
        <time>2021-07-25T08:39:45.000Z</time>
      </trkpt>
      <trkpt lat="-11.94617061875760555267333984375" lon="-76.7109868861734867095947265625">
        <ele>808.79998779296875</ele>
        <time>2021-07-25T08:39:54.000Z</time>
      </trkpt>
      <trkpt lat="-11.946139521896839141845703125" lon="-76.710884459316730499267578125">
        <ele>809</ele>
        <time>2021-07-25T08:39:56.000Z</time>
      </trkpt>
      <trkpt lat="-11.9460629113018512725830078125" lon="-76.71063375659286975860595703125">
        <ele>809.4000244140625</ele>
        <time>2021-07-25T08:40:01.000Z</time>
      </trkpt>
      <trkpt lat="-11.94597800262272357940673828125" lon="-76.71039436943829059600830078125">
        <ele>810</ele>
        <time>2021-07-25T08:40:06.000Z</time>
      </trkpt>
      <trkpt lat="-11.94589200429618358612060546875" lon="-76.71022497117519378662109375">
        <ele>810.5999755859375</ele>
        <time>2021-07-25T08:40:10.000Z</time>
      </trkpt>
      <trkpt lat="-11.9458077661693096160888671875" lon="-76.71011055819690227508544921875">
        <ele>811.20001220703125</ele>
        <time>2021-07-25T08:40:13.000Z</time>
      </trkpt>
      <trkpt lat="-11.9456724822521209716796875" lon="-76.709979884326457977294921875">
        <ele>812</ele>
        <time>2021-07-25T08:40:17.000Z</time>
      </trkpt>
      <trkpt lat="-11.94559696130454540252685546875" lon="-76.70992213301360607147216796875">
        <ele>812</ele>
        <time>2021-07-25T08:40:19.000Z</time>
      </trkpt>
      <trkpt lat="-11.945470310747623443603515625" lon="-76.709848456084728240966796875">
        <ele>812.4000244140625</ele>
        <time>2021-07-25T08:40:22.000Z</time>
      </trkpt>
      <trkpt lat="-11.945382468402385711669921875" lon="-76.7098050378262996673583984375">
        <ele>812.5999755859375</ele>
        <time>2021-07-25T08:40:24.000Z</time>
      </trkpt>
      <trkpt lat="-11.94506638683378696441650390625" lon="-76.7097057960927486419677734375">
        <ele>813.20001220703125</ele>
        <time>2021-07-25T08:40:31.000Z</time>
      </trkpt>
      <trkpt lat="-11.94502078928053379058837890625" lon="-76.7096930555999279022216796875">
        <ele>813.4000244140625</ele>
        <time>2021-07-25T08:40:32.000Z</time>
      </trkpt>
      <trkpt lat="-11.94466204382479190826416015625" lon="-76.70958082191646099090576171875">
        <ele>814.4000244140625</ele>
        <time>2021-07-25T08:40:41.000Z</time>
      </trkpt>
      <trkpt lat="-11.94461761973798274993896484375" lon="-76.70956674031913280487060546875">
        <ele>814.5999755859375</ele>
        <time>2021-07-25T08:40:42.000Z</time>
      </trkpt>
      <trkpt lat="-11.94432257674634456634521484375" lon="-76.709431707859039306640625">
        <ele>815.4000244140625</ele>
        <time>2021-07-25T08:40:49.000Z</time>
      </trkpt>
      <trkpt lat="-11.94420355372130870819091796875" lon="-76.7093390040099620819091796875">
        <ele>814.5999755859375</ele>
        <time>2021-07-25T08:40:52.000Z</time>
      </trkpt>
      <trkpt lat="-11.94410540163516998291015625" lon="-76.7092266865074634552001953125">
        <ele>814.79998779296875</ele>
        <time>2021-07-25T08:40:55.000Z</time>
      </trkpt>
      <trkpt lat="-11.9439845345914363861083984375" lon="-76.7090630717575550079345703125">
        <ele>815.4000244140625</ele>
        <time>2021-07-25T08:40:59.000Z</time>
      </trkpt>
      <trkpt lat="-11.94391136057674884796142578125" lon="-76.7089215852320194244384765625">
        <ele>815.4000244140625</ele>
        <time>2021-07-25T08:41:02.000Z</time>
      </trkpt>
      <trkpt lat="-11.943842880427837371826171875" lon="-76.70877867378294467926025390625">
        <ele>815.5999755859375</ele>
        <time>2021-07-25T08:41:05.000Z</time>
      </trkpt>
      <trkpt lat="-11.94374204613268375396728515625" lon="-76.70854213647544384002685546875">
        <ele>815.79998779296875</ele>
        <time>2021-07-25T08:41:10.000Z</time>
      </trkpt>
      <trkpt lat="-11.94364263676106929779052734375" lon="-76.70818473212420940399169921875">
        <ele>816</ele>
        <time>2021-07-25T08:41:17.000Z</time>
      </trkpt>
      <trkpt lat="-11.94357206113636493682861328125" lon="-76.70791097916662693023681640625">
        <ele>816.20001220703125</ele>
        <time>2021-07-25T08:41:22.000Z</time>
      </trkpt>
      <trkpt lat="-11.943563260138034820556640625" lon="-76.707855574786663055419921875">
        <ele>816</ele>
        <time>2021-07-25T08:41:23.000Z</time>
      </trkpt>
      <trkpt lat="-11.943479441106319427490234375" lon="-76.7074530757963657379150390625">
        <ele>816.4000244140625</ele>
        <time>2021-07-25T08:41:30.000Z</time>
      </trkpt>
      <trkpt lat="-11.9434497691690921783447265625" lon="-76.7073253355920314788818359375">
        <ele>816.5999755859375</ele>
        <time>2021-07-25T08:41:32.000Z</time>
      </trkpt>
      <trkpt lat="-11.94337449967861175537109375" lon="-76.7070083320140838623046875">
        <ele>816.5999755859375</ele>
        <time>2021-07-25T08:41:37.000Z</time>
      </trkpt>
      <trkpt lat="-11.94324617274105548858642578125" lon="-76.7064703814685344696044921875">
        <ele>817.4000244140625</ele>
        <time>2021-07-25T08:41:46.000Z</time>
      </trkpt>
      <trkpt lat="-11.94315095432102680206298828125" lon="-76.7060807906091213226318359375">
        <ele>817.79998779296875</ele>
        <time>2021-07-25T08:41:53.000Z</time>
      </trkpt>
      <trkpt lat="-11.9431379623711109161376953125" lon="-76.7060247994959354400634765625">
        <ele>817.79998779296875</ele>
        <time>2021-07-25T08:41:54.000Z</time>
      </trkpt>
      <trkpt lat="-11.94306193850934505462646484375" lon="-76.70570637099444866180419921875">
        <ele>819</ele>
        <time>2021-07-25T08:42:00.000Z</time>
      </trkpt>
      <trkpt lat="-11.9430410675704479217529296875" lon="-76.70560612343251705169677734375">
        <ele>819.20001220703125</ele>
        <time>2021-07-25T08:42:02.000Z</time>
      </trkpt>
      <trkpt lat="-11.94299438036978244781494140625" lon="-76.7054078914225101470947265625">
        <ele>820</ele>
        <time>2021-07-25T08:42:06.000Z</time>
      </trkpt>
      <trkpt lat="-11.9429495371878147125244140625" lon="-76.70521058142185211181640625">
        <ele>821.20001220703125</ele>
        <time>2021-07-25T08:42:10.000Z</time>
      </trkpt>
      <trkpt lat="-11.9429393112659454345703125" lon="-76.7051624692976474761962890625">
        <ele>821.20001220703125</ele>
        <time>2021-07-25T08:42:11.000Z</time>
      </trkpt>
      <trkpt lat="-11.94288709200918674468994140625" lon="-76.70492987148463726043701171875">
        <ele>822.4000244140625</ele>
        <time>2021-07-25T08:42:16.000Z</time>
      </trkpt>
      <trkpt lat="-11.94286881946027278900146484375" lon="-76.70485024340450763702392578125">
        <ele>823.20001220703125</ele>
        <time>2021-07-25T08:42:18.000Z</time>
      </trkpt>
      <trkpt lat="-11.9428588449954986572265625" lon="-76.704807579517364501953125">
        <ele>823.4000244140625</ele>
        <time>2021-07-25T08:42:19.000Z</time>
      </trkpt>
      <trkpt lat="-11.9428090564906597137451171875" lon="-76.7046095989644527435302734375">
        <ele>824.5999755859375</ele>
        <time>2021-07-25T08:42:24.000Z</time>
      </trkpt>
      <trkpt lat="-11.94279849529266357421875" lon="-76.70456894673407077789306640625">
        <ele>825</ele>
        <time>2021-07-25T08:42:25.000Z</time>
      </trkpt>
      <trkpt lat="-11.94275683723390102386474609375" lon="-76.70440466143190860748291015625">
        <ele>825.79998779296875</ele>
        <time>2021-07-25T08:42:29.000Z</time>
      </trkpt>
      <trkpt lat="-11.942727081477642059326171875" lon="-76.70427541248500347137451171875">
        <ele>826.4000244140625</ele>
        <time>2021-07-25T08:42:32.000Z</time>
      </trkpt>
      <trkpt lat="-11.94270788691937923431396484375" lon="-76.704191006720066070556640625">
        <ele>827</ele>
        <time>2021-07-25T08:42:34.000Z</time>
      </trkpt>
      <trkpt lat="-11.942654661834239959716796875" lon="-76.70398791320621967315673828125">
        <ele>828.20001220703125</ele>
        <time>2021-07-25T08:42:39.000Z</time>
      </trkpt>
      <trkpt lat="-11.94264636375010013580322265625" lon="-76.70394818298518657684326171875">
        <ele>828.5999755859375</ele>
        <time>2021-07-25T08:42:40.000Z</time>
      </trkpt>
      <trkpt lat="-11.94263127632439136505126953125" lon="-76.7038696445524692535400390625">
        <ele>829.4000244140625</ele>
        <time>2021-07-25T08:42:42.000Z</time>
      </trkpt>
      <trkpt lat="-11.94258098490536212921142578125" lon="-76.70368113555014133453369140625">
        <ele>830.4000244140625</ele>
        <time>2021-07-25T08:42:47.000Z</time>
      </trkpt>
      <trkpt lat="-11.942527927458286285400390625" lon="-76.70349740423262119293212890625">
        <ele>831.5999755859375</ele>
        <time>2021-07-25T08:42:52.000Z</time>
      </trkpt>
      <trkpt lat="-11.94251426495611667633056640625" lon="-76.703460775315761566162109375">
        <ele>831.79998779296875</ele>
        <time>2021-07-25T08:42:53.000Z</time>
      </trkpt>
      <trkpt lat="-11.94241200573742389678955078125" lon="-76.7032049596309661865234375">
        <ele>832.79998779296875</ele>
        <time>2021-07-25T08:43:00.000Z</time>
      </trkpt>
      <trkpt lat="-11.94226138293743133544921875" lon="-76.7029141075909137725830078125">
        <ele>833.79998779296875</ele>
        <time>2021-07-25T08:43:08.000Z</time>
      </trkpt>
      <trkpt lat="-11.942106150090694427490234375" lon="-76.7025962658226490020751953125">
        <ele>834.79998779296875</ele>
        <time>2021-07-25T08:43:16.000Z</time>
      </trkpt>
      <trkpt lat="-11.94192250259220600128173828125" lon="-76.70223408378660678863525390625">
        <ele>834.4000244140625</ele>
        <time>2021-07-25T08:43:24.000Z</time>
      </trkpt>
      <trkpt lat="-11.94189886562526226043701171875" lon="-76.702190078794956207275390625">
        <ele>835</ele>
        <time>2021-07-25T08:43:25.000Z</time>
      </trkpt>
      <trkpt lat="-11.9417995400726795196533203125" lon="-76.70199201442301273345947265625">
        <ele>835.5999755859375</ele>
        <time>2021-07-25T08:43:30.000Z</time>
      </trkpt>
      <trkpt lat="-11.94171647541224956512451171875" lon="-76.7018274776637554168701171875">
        <ele>836</ele>
        <time>2021-07-25T08:43:34.000Z</time>
      </trkpt>
      <trkpt lat="-11.94163106381893157958984375" lon="-76.70166461728513240814208984375">
        <ele>836.5999755859375</ele>
        <time>2021-07-25T08:43:38.000Z</time>
      </trkpt>
      <trkpt lat="-11.94143350236117839813232421875" lon="-76.7012684047222137451171875">
        <ele>836.79998779296875</ele>
        <time>2021-07-25T08:43:47.000Z</time>
      </trkpt>
      <trkpt lat="-11.94136678241193294525146484375" lon="-76.7011388204991817474365234375">
        <ele>837</ele>
        <time>2021-07-25T08:43:50.000Z</time>
      </trkpt>
      <trkpt lat="-11.94125999696552753448486328125" lon="-76.70091577805578708648681640625">
        <ele>837.4000244140625</ele>
        <time>2021-07-25T08:43:55.000Z</time>
      </trkpt>
      <trkpt lat="-11.9411073625087738037109375" lon="-76.70061838813126087188720703125">
        <ele>838.20001220703125</ele>
        <time>2021-07-25T08:44:02.000Z</time>
      </trkpt>
      <trkpt lat="-11.94108414463698863983154296875" lon="-76.7005819268524646759033203125">
        <ele>838.4000244140625</ele>
        <time>2021-07-25T08:44:03.000Z</time>
      </trkpt>
      <trkpt lat="-11.94095137529075145721435546875" lon="-76.70031747780740261077880859375">
        <ele>839</ele>
        <time>2021-07-25T08:44:09.000Z</time>
      </trkpt>
      <trkpt lat="-11.94091231562197208404541015625" lon="-76.700231730937957763671875">
        <ele>839.4000244140625</ele>
        <time>2021-07-25T08:44:11.000Z</time>
      </trkpt>
      <trkpt lat="-11.94080770947039127349853515625" lon="-76.70002712868154048919677734375">
        <ele>840.20001220703125</ele>
        <time>2021-07-25T08:44:16.000Z</time>
      </trkpt>
      <trkpt lat="-11.94076764397323131561279296875" lon="-76.6999433934688568115234375">
        <ele>840.79998779296875</ele>
        <time>2021-07-25T08:44:18.000Z</time>
      </trkpt>
      <trkpt lat="-11.94056228734552860260009765625" lon="-76.69955288060009479522705078125">
        <ele>841.5999755859375</ele>
        <time>2021-07-25T08:44:27.000Z</time>
      </trkpt>
      <trkpt lat="-11.94053814746439456939697265625" lon="-76.6995097137987613677978515625">
        <ele>841.79998779296875</ele>
        <time>2021-07-25T08:44:28.000Z</time>
      </trkpt>
      <trkpt lat="-11.94037352688610553741455078125" lon="-76.6992002539336681365966796875">
        <ele>842.20001220703125</ele>
        <time>2021-07-25T08:44:35.000Z</time>
      </trkpt>
      <trkpt lat="-11.94019465707242488861083984375" lon="-76.69893798418343067169189453125">
        <ele>842.4000244140625</ele>
        <time>2021-07-25T08:44:41.000Z</time>
      </trkpt>
      <trkpt lat="-11.93998963572084903717041015625" lon="-76.69873463921248912811279296875">
        <ele>842.20001220703125</ele>
        <time>2021-07-25T08:44:47.000Z</time>
      </trkpt>
      <trkpt lat="-11.93983524106442928314208984375" lon="-76.698595583438873291015625">
        <ele>842</ele>
        <time>2021-07-25T08:44:53.000Z</time>
      </trkpt>
      <trkpt lat="-11.9397795014083385467529296875" lon="-76.69854529201984405517578125">
        <ele>841.79998779296875</ele>
        <time>2021-07-25T08:46:27.000Z</time>
      </trkpt>
      <trkpt lat="-11.9397607259452342987060546875" lon="-76.69853414408862590789794921875">
        <ele>841.5999755859375</ele>
        <time>2021-07-25T08:46:28.000Z</time>
      </trkpt>
      <trkpt lat="-11.93964798934757709503173828125" lon="-76.69845283962786197662353515625">
        <ele>841.4000244140625</ele>
        <time>2021-07-25T08:46:32.000Z</time>
      </trkpt>
      <trkpt lat="-11.9393845461308956146240234375" lon="-76.69824228622019290924072265625">
        <ele>841</ele>
        <time>2021-07-25T08:46:40.000Z</time>
      </trkpt>
      <trkpt lat="-11.93916745483875274658203125" lon="-76.6980794258415699005126953125">
        <ele>840.79998779296875</ele>
        <time>2021-07-25T08:46:46.000Z</time>
      </trkpt>
      <trkpt lat="-11.93913065828382968902587890625" lon="-76.6980536095798015594482421875">
        <ele>840.79998779296875</ele>
        <time>2021-07-25T08:46:47.000Z</time>
      </trkpt>
      <trkpt lat="-11.9387937895953655242919921875" lon="-76.6977723129093647003173828125">
        <ele>840.20001220703125</ele>
        <time>2021-07-25T08:46:57.000Z</time>
      </trkpt>
      <trkpt lat="-11.93865288980305194854736328125" lon="-76.69764331541955471038818359375">
        <ele>840.20001220703125</ele>
        <time>2021-07-25T08:47:03.000Z</time>
      </trkpt>
      <trkpt lat="-11.9386244751513004302978515625" lon="-76.697635017335414886474609375">
        <ele>840</ele>
        <time>2021-07-25T08:47:42.000Z</time>
      </trkpt>
      <trkpt lat="-11.93856672383844852447509765625" lon="-76.697602830827236175537109375">
        <ele>840.20001220703125</ele>
        <time>2021-07-25T08:47:45.000Z</time>
      </trkpt>
      <trkpt lat="-11.9384196214377880096435546875" lon="-76.6974930278956890106201171875">
        <ele>840.20001220703125</ele>
        <time>2021-07-25T08:47:50.000Z</time>
      </trkpt>
      <trkpt lat="-11.93823010660707950592041015625" lon="-76.6973277367651462554931640625">
        <ele>840.20001220703125</ele>
        <time>2021-07-25T08:47:56.000Z</time>
      </trkpt>
      <trkpt lat="-11.93816623650491237640380859375" lon="-76.69728306122124195098876953125">
        <ele>840.20001220703125</ele>
        <time>2021-07-25T08:47:58.000Z</time>
      </trkpt>
      <trkpt lat="-11.9380276836454868316650390625" lon="-76.69716152362525463104248046875">
        <ele>840.20001220703125</ele>
        <time>2021-07-25T08:48:04.000Z</time>
      </trkpt>
      <trkpt lat="-11.93785510025918483734130859375" lon="-76.6970192827284336090087890625">
        <ele>840.4000244140625</ele>
        <time>2021-07-25T08:48:10.000Z</time>
      </trkpt>
      <trkpt lat="-11.93775124847888946533203125" lon="-76.6969374753534793853759765625">
        <ele>840.4000244140625</ele>
        <time>2021-07-25T08:48:13.000Z</time>
      </trkpt>
      <trkpt lat="-11.93763398565351963043212890625" lon="-76.69685843400657176971435546875">
        <ele>840.4000244140625</ele>
        <time>2021-07-25T08:48:16.000Z</time>
      </trkpt>
      <trkpt lat="-11.9373879767954349517822265625" lon="-76.69664360582828521728515625">
        <ele>840.79998779296875</ele>
        <time>2021-07-25T08:48:23.000Z</time>
      </trkpt>
      <trkpt lat="-11.93706133402884006500244140625" lon="-76.69637781567871570587158203125">
        <ele>841.20001220703125</ele>
        <time>2021-07-25T08:48:32.000Z</time>
      </trkpt>
      <trkpt lat="-11.9368032552301883697509765625" lon="-76.6961844451725482940673828125">
        <ele>841.5999755859375</ele>
        <time>2021-07-25T08:48:39.000Z</time>
      </trkpt>
      <trkpt lat="-11.93672689609229564666748046875" lon="-76.696126945316791534423828125">
        <ele>841.79998779296875</ele>
        <time>2021-07-25T08:48:41.000Z</time>
      </trkpt>
      <trkpt lat="-11.93652908317744731903076171875" lon="-76.69597162865102291107177734375">
        <ele>842.4000244140625</ele>
        <time>2021-07-25T08:48:46.000Z</time>
      </trkpt>
      <trkpt lat="-11.93649019114673137664794921875" lon="-76.69593960978090763092041015625">
        <ele>842.4000244140625</ele>
        <time>2021-07-25T08:48:47.000Z</time>
      </trkpt>
      <trkpt lat="-11.93634652532637119293212890625" lon="-76.69582393951714038848876953125">
        <ele>842.79998779296875</ele>
        <time>2021-07-25T08:48:51.000Z</time>
      </trkpt>
      <trkpt lat="-11.93623714148998260498046875" lon="-76.69573391787707805633544921875">
        <ele>843.20001220703125</ele>
        <time>2021-07-25T08:48:54.000Z</time>
      </trkpt>
      <trkpt lat="-11.93586808629333972930908203125" lon="-76.6954273916780948638916015625">
        <ele>843.79998779296875</ele>
        <time>2021-07-25T08:49:04.000Z</time>
      </trkpt>
      <trkpt lat="-11.935831122100353240966796875" lon="-76.695398725569248199462890625">
        <ele>844</ele>
        <time>2021-07-25T08:49:05.000Z</time>
      </trkpt>
      <trkpt lat="-11.93556658923625946044921875" lon="-76.69520384632050991058349609375">
        <ele>844.5999755859375</ele>
        <time>2021-07-25T08:49:12.000Z</time>
      </trkpt>
      <trkpt lat="-11.9354648329317569732666015625" lon="-76.69511608779430389404296875">
        <ele>845.20001220703125</ele>
        <time>2021-07-25T08:49:15.000Z</time>
      </trkpt>
      <trkpt lat="-11.9353084266185760498046875" lon="-76.6949838213622570037841796875">
        <ele>845.5999755859375</ele>
        <time>2021-07-25T08:49:19.000Z</time>
      </trkpt>
      <trkpt lat="-11.93512427620589733123779296875" lon="-76.69482640922069549560546875">
        <ele>846.20001220703125</ele>
        <time>2021-07-25T08:49:24.000Z</time>
      </trkpt>
      <trkpt lat="-11.9350189156830310821533203125" lon="-76.69473915360867977142333984375">
        <ele>846.5999755859375</ele>
        <time>2021-07-25T08:49:27.000Z</time>
      </trkpt>
      <trkpt lat="-11.93474239669740200042724609375" lon="-76.694520972669124603271484375">
        <ele>847.4000244140625</ele>
        <time>2021-07-25T08:49:34.000Z</time>
      </trkpt>
      <trkpt lat="-11.9344777800142765045166015625" lon="-76.694314777851104736328125">
        <ele>848.4000244140625</ele>
        <time>2021-07-25T08:49:41.000Z</time>
      </trkpt>
      <trkpt lat="-11.9343604333698749542236328125" lon="-76.69423121027648448944091796875">
        <ele>848.79998779296875</ele>
        <time>2021-07-25T08:49:44.000Z</time>
      </trkpt>
      <trkpt lat="-11.93423864431679248809814453125" lon="-76.6941605508327484130859375">
        <ele>849.4000244140625</ele>
        <time>2021-07-25T08:49:47.000Z</time>
      </trkpt>
      <trkpt lat="-11.9342041946947574615478515625" lon="-76.69412693940103054046630859375">
        <ele>849.4000244140625</ele>
        <time>2021-07-25T08:49:48.000Z</time>
      </trkpt>
      <trkpt lat="-11.9341663084924221038818359375" lon="-76.6940916515886783599853515625">
        <ele>849.5999755859375</ele>
        <time>2021-07-25T08:49:49.000Z</time>
      </trkpt>
      <trkpt lat="-11.93402540870010852813720703125" lon="-76.69395192526280879974365234375">
        <ele>849.79998779296875</ele>
        <time>2021-07-25T08:49:53.000Z</time>
      </trkpt>
      <trkpt lat="-11.9338115863502025604248046875" lon="-76.693778671324253082275390625">
        <ele>850.5999755859375</ele>
        <time>2021-07-25T08:49:59.000Z</time>
      </trkpt>
      <trkpt lat="-11.9337797351181507110595703125" lon="-76.69375109486281871795654296875">
        <ele>850.5999755859375</ele>
        <time>2021-07-25T08:50:00.000Z</time>
      </trkpt>
      <trkpt lat="-11.933574043214321136474609375" lon="-76.69358530081808567047119140625">
        <ele>851.5999755859375</ele>
        <time>2021-07-25T08:50:06.000Z</time>
      </trkpt>
      <trkpt lat="-11.93350522778928279876708984375" lon="-76.69353090226650238037109375">
        <ele>852</ele>
        <time>2021-07-25T08:50:08.000Z</time>
      </trkpt>
      <trkpt lat="-11.93330305628478527069091796875" lon="-76.693358235061168670654296875">
        <ele>852.79998779296875</ele>
        <time>2021-07-25T08:50:14.000Z</time>
      </trkpt>
      <trkpt lat="-11.9332322292029857635498046875" lon="-76.69330316595733165740966796875">
        <ele>853</ele>
        <time>2021-07-25T08:50:16.000Z</time>
      </trkpt>
      <trkpt lat="-11.93306081928312778472900390625" lon="-76.6931659542024135589599609375">
        <ele>853.79998779296875</ele>
        <time>2021-07-25T08:50:21.000Z</time>
      </trkpt>
      <trkpt lat="-11.933028213679790496826171875" lon="-76.6931341029703617095947265625">
        <ele>853.79998779296875</ele>
        <time>2021-07-25T08:50:22.000Z</time>
      </trkpt>
      <trkpt lat="-11.9329972006380558013916015625" lon="-76.69310216791927814483642578125">
        <ele>853.79998779296875</ele>
        <time>2021-07-25T08:50:23.000Z</time>
      </trkpt>
      <trkpt lat="-11.93275102414190769195556640625" lon="-76.6929025948047637939453125">
        <ele>854.4000244140625</ele>
        <time>2021-07-25T08:50:30.000Z</time>
      </trkpt>
      <trkpt lat="-11.9326062686741352081298828125" lon="-76.69278885237872600555419921875">
        <ele>854.79998779296875</ele>
        <time>2021-07-25T08:50:34.000Z</time>
      </trkpt>
      <trkpt lat="-11.93249948322772979736328125" lon="-76.69270209968090057373046875">
        <ele>855</ele>
        <time>2021-07-25T08:50:37.000Z</time>
      </trkpt>
      <trkpt lat="-11.93242664448916912078857421875" lon="-76.69264216907322406768798828125">
        <ele>855.4000244140625</ele>
        <time>2021-07-25T08:50:39.000Z</time>
      </trkpt>
      <trkpt lat="-11.93223654292523860931396484375" lon="-76.692489199340343475341796875">
        <ele>856</ele>
        <time>2021-07-25T08:50:44.000Z</time>
      </trkpt>
      <trkpt lat="-11.93212933838367462158203125" lon="-76.69240211136639118194580078125">
        <ele>856.4000244140625</ele>
        <time>2021-07-25T08:50:47.000Z</time>
      </trkpt>
      <trkpt lat="-11.931830942630767822265625" lon="-76.69216834008693695068359375">
        <ele>857</ele>
        <time>2021-07-25T08:50:55.000Z</time>
      </trkpt>
      <trkpt lat="-11.93179565481841564178466796875" lon="-76.69213925488293170928955078125">
        <ele>857</ele>
        <time>2021-07-25T08:50:56.000Z</time>
      </trkpt>
      <trkpt lat="-11.93150714971125125885009765625" lon="-76.6919120214879512786865234375">
        <ele>858</ele>
        <time>2021-07-25T08:51:04.000Z</time>
      </trkpt>
      <trkpt lat="-11.931436322629451751708984375" lon="-76.6918538510799407958984375">
        <ele>858.20001220703125</ele>
        <time>2021-07-25T08:51:06.000Z</time>
      </trkpt>
      <trkpt lat="-11.9312232546508312225341796875" lon="-76.691675819456577301025390625">
        <ele>858.79998779296875</ele>
        <time>2021-07-25T08:51:12.000Z</time>
      </trkpt>
      <trkpt lat="-11.93103776313364505767822265625" lon="-76.691530309617519378662109375">
        <ele>859.20001220703125</ele>
        <time>2021-07-25T08:51:17.000Z</time>
      </trkpt>
      <trkpt lat="-11.9308903254568576812744140625" lon="-76.69141304679214954376220703125">
        <ele>859.5999755859375</ele>
        <time>2021-07-25T08:51:21.000Z</time>
      </trkpt>
      <trkpt lat="-11.93067583255469799041748046875" lon="-76.6912315785884857177734375">
        <ele>860.20001220703125</ele>
        <time>2021-07-25T08:51:27.000Z</time>
      </trkpt>
      <trkpt lat="-11.9306046701967716217041015625" lon="-76.69117583893239498138427734375">
        <ele>860.4000244140625</ele>
        <time>2021-07-25T08:51:29.000Z</time>
      </trkpt>
      <trkpt lat="-11.93039403297007083892822265625" lon="-76.691003926098346710205078125">
        <ele>861.4000244140625</ele>
        <time>2021-07-25T08:51:35.000Z</time>
      </trkpt>
      <trkpt lat="-11.930285990238189697265625" lon="-76.69092111289501190185546875">
        <ele>861.5999755859375</ele>
        <time>2021-07-25T08:51:38.000Z</time>
      </trkpt>
      <trkpt lat="-11.930075101554393768310546875" lon="-76.69075070880353450775146484375">
        <ele>862.5999755859375</ele>
        <time>2021-07-25T08:51:44.000Z</time>
      </trkpt>
      <trkpt lat="-11.92996881902217864990234375" lon="-76.6906627826392650604248046875">
        <ele>862.79998779296875</ele>
        <time>2021-07-25T08:51:47.000Z</time>
      </trkpt>
      <trkpt lat="-11.92973286844789981842041015625" lon="-76.6904656402766704559326171875">
        <ele>863.5999755859375</ele>
        <time>2021-07-25T08:51:54.000Z</time>
      </trkpt>
      <trkpt lat="-11.92969816736876964569091796875" lon="-76.6904351301491260528564453125">
        <ele>864</ele>
        <time>2021-07-25T08:51:55.000Z</time>
      </trkpt>
      <trkpt lat="-11.929425336420536041259765625" lon="-76.69022063724696636199951171875">
        <ele>865</ele>
        <time>2021-07-25T08:52:03.000Z</time>
      </trkpt>
      <trkpt lat="-11.92915300838649272918701171875" lon="-76.68998627923429012298583984375">
        <ele>866</ele>
        <time>2021-07-25T08:52:11.000Z</time>
      </trkpt>
      <trkpt lat="-11.92912015132606029510498046875" lon="-76.68995861895382404327392578125">
        <ele>866</ele>
        <time>2021-07-25T08:52:12.000Z</time>
      </trkpt>
      <trkpt lat="-11.92883667536079883575439453125" lon="-76.68971755541861057281494140625">
        <ele>867</ele>
        <time>2021-07-25T08:52:20.000Z</time>
      </trkpt>
      <trkpt lat="-11.92876995541155338287353515625" lon="-76.68965687043964862823486328125">
        <ele>867.4000244140625</ele>
        <time>2021-07-25T08:52:22.000Z</time>
      </trkpt>
      <trkpt lat="-11.9285333342850208282470703125" lon="-76.68944564647972583770751953125">
        <ele>868</ele>
        <time>2021-07-25T08:52:29.000Z</time>
      </trkpt>
      <trkpt lat="-11.9284361042082309722900390625" lon="-76.68935763649642467498779296875">
        <ele>868.4000244140625</ele>
        <time>2021-07-25T08:52:32.000Z</time>
      </trkpt>
      <trkpt lat="-11.92822379060089588165283203125" lon="-76.68918580748140811920166015625">
        <ele>869.20001220703125</ele>
        <time>2021-07-25T08:52:38.000Z</time>
      </trkpt>
      <trkpt lat="-11.92812069319188594818115234375" lon="-76.6890884935855865478515625">
        <ele>869.4000244140625</ele>
        <time>2021-07-25T08:52:41.000Z</time>
      </trkpt>
      <trkpt lat="-11.927873678505420684814453125" lon="-76.68887383304536342620849609375">
        <ele>870.20001220703125</ele>
        <time>2021-07-25T08:52:48.000Z</time>
      </trkpt>
      <trkpt lat="-11.92781140096485614776611328125" lon="-76.68881113640964031219482421875">
        <ele>870.5999755859375</ele>
        <time>2021-07-25T08:52:50.000Z</time>
      </trkpt>
      <trkpt lat="-11.927573271095752716064453125" lon="-76.688528247177600860595703125">
        <ele>871.4000244140625</ele>
        <time>2021-07-25T08:52:58.000Z</time>
      </trkpt>
      <trkpt lat="-11.92740487866103649139404296875" lon="-76.688306964933872222900390625">
        <ele>872.20001220703125</ele>
        <time>2021-07-25T08:53:04.000Z</time>
      </trkpt>
      <trkpt lat="-11.927381493151187896728515625" lon="-76.68827251531183719635009765625">
        <ele>872.4000244140625</ele>
        <time>2021-07-25T08:53:05.000Z</time>
      </trkpt>
      <trkpt lat="-11.92722450010478496551513671875" lon="-76.68801066465675830841064453125">
        <ele>873.4000244140625</ele>
        <time>2021-07-25T08:53:12.000Z</time>
      </trkpt>
      <trkpt lat="-11.927202455699443817138671875" lon="-76.68797227554023265838623046875">
        <ele>873.5999755859375</ele>
        <time>2021-07-25T08:53:13.000Z</time>
      </trkpt>
      <trkpt lat="-11.927036829292774200439453125" lon="-76.6876617260277271270751953125">
        <ele>874.5999755859375</ele>
        <time>2021-07-25T08:53:21.000Z</time>
      </trkpt>
      <trkpt lat="-11.9268945045769214630126953125" lon="-76.6873901523649692535400390625">
        <ele>875.5999755859375</ele>
        <time>2021-07-25T08:53:28.000Z</time>
      </trkpt>
      <trkpt lat="-11.9268747232854366302490234375" lon="-76.68735109269618988037109375">
        <ele>875.79998779296875</ele>
        <time>2021-07-25T08:53:29.000Z</time>
      </trkpt>
      <trkpt lat="-11.92677305079996585845947265625" lon="-76.68716627173125743865966796875">
        <ele>876.79998779296875</ele>
        <time>2021-07-25T08:53:34.000Z</time>
      </trkpt>
      <trkpt lat="-11.92671186290681362152099609375" lon="-76.68705278076231479644775390625">
        <ele>877.4000244140625</ele>
        <time>2021-07-25T08:53:37.000Z</time>
      </trkpt>
      <trkpt lat="-11.92661144770681858062744140625" lon="-76.6868691332638263702392578125">
        <ele>878</ele>
        <time>2021-07-25T08:53:42.000Z</time>
      </trkpt>
      <trkpt lat="-11.9265723042190074920654296875" lon="-76.6867990605533123016357421875">
        <ele>878.20001220703125</ele>
        <time>2021-07-25T08:53:44.000Z</time>
      </trkpt>
      <trkpt lat="-11.92643609829246997833251953125" lon="-76.68658222071826457977294921875">
        <ele>879</ele>
        <time>2021-07-25T08:53:50.000Z</time>
      </trkpt>
      <trkpt lat="-11.926362253725528717041015625" lon="-76.6864782012999057769775390625">
        <ele>879.4000244140625</ele>
        <time>2021-07-25T08:53:53.000Z</time>
      </trkpt>
      <trkpt lat="-11.92628555931150913238525390625" lon="-76.68637149967253208160400390625">
        <ele>880.20001220703125</ele>
        <time>2021-07-25T08:53:56.000Z</time>
      </trkpt>
      <trkpt lat="-11.926136948168277740478515625" lon="-76.68620469979941844940185546875">
        <ele>880.79998779296875</ele>
        <time>2021-07-25T08:54:01.000Z</time>
      </trkpt>
      <trkpt lat="-11.9259802065789699554443359375" lon="-76.6860426776111125946044921875">
        <ele>881.20001220703125</ele>
        <time>2021-07-25T08:54:06.000Z</time>
      </trkpt>
      <trkpt lat="-11.925881467759609222412109375" lon="-76.68594804592430591583251953125">
        <ele>881.4000244140625</ele>
        <time>2021-07-25T08:54:09.000Z</time>
      </trkpt>
      <trkpt lat="-11.9256868399679660797119140625" lon="-76.68575056828558444976806640625">
        <ele>882</ele>
        <time>2021-07-25T08:54:15.000Z</time>
      </trkpt>
      <trkpt lat="-11.92552112974226474761962890625" lon="-76.68557471595704555511474609375">
        <ele>882.20001220703125</ele>
        <time>2021-07-25T08:54:20.000Z</time>
      </trkpt>
      <trkpt lat="-11.9253815710544586181640625" lon="-76.68544144369661808013916015625">
        <ele>882.20001220703125</ele>
        <time>2021-07-25T08:54:24.000Z</time>
      </trkpt>
      <trkpt lat="-11.92502290941774845123291015625" lon="-76.6850864700973033905029296875">
        <ele>882.79998779296875</ele>
        <time>2021-07-25T08:54:34.000Z</time>
      </trkpt>
      <trkpt lat="-11.9247799180448055267333984375" lon="-76.6848345100879669189453125">
        <ele>883.20001220703125</ele>
        <time>2021-07-25T08:54:41.000Z</time>
      </trkpt>
      <trkpt lat="-11.92474655807018280029296875" lon="-76.68479762971401214599609375">
        <ele>883.20001220703125</ele>
        <time>2021-07-25T08:54:42.000Z</time>
      </trkpt>
      <trkpt lat="-11.924563162028789520263671875" lon="-76.6845835559070110321044921875">
        <ele>883.79998779296875</ele>
        <time>2021-07-25T08:54:48.000Z</time>
      </trkpt>
      <trkpt lat="-11.9245368428528308868408203125" lon="-76.6845446638762950897216796875">
        <ele>883.79998779296875</ele>
        <time>2021-07-25T08:54:49.000Z</time>
      </trkpt>
      <trkpt lat="-11.92446894943714141845703125" lon="-76.6844279877841472625732421875">
        <ele>884.5999755859375</ele>
        <time>2021-07-25T08:54:52.000Z</time>
      </trkpt>
      <trkpt lat="-11.9243624992668628692626953125" lon="-76.6842331923544406890869140625">
        <ele>885.20001220703125</ele>
        <time>2021-07-25T08:54:57.000Z</time>
      </trkpt>
      <trkpt lat="-11.92428815178573131561279296875" lon="-76.6840632073581218719482421875">
        <ele>885.79998779296875</ele>
        <time>2021-07-25T08:55:01.000Z</time>
      </trkpt>
      <trkpt lat="-11.92425931803882122039794921875" lon="-76.683979220688343048095703125">
        <ele>885.5999755859375</ele>
        <time>2021-07-25T08:55:03.000Z</time>
      </trkpt>
      <trkpt lat="-11.92423953674733638763427734375" lon="-76.68393529951572418212890625">
        <ele>886</ele>
        <time>2021-07-25T08:55:04.000Z</time>
      </trkpt>
      <trkpt lat="-11.92413761280477046966552734375" lon="-76.68373254127800464630126953125">
        <ele>886.79998779296875</ele>
        <time>2021-07-25T08:55:09.000Z</time>
      </trkpt>
      <trkpt lat="-11.92405479960143566131591796875" lon="-76.68356222100555896759033203125">
        <ele>887.4000244140625</ele>
        <time>2021-07-25T08:55:13.000Z</time>
      </trkpt>
      <trkpt lat="-11.92392311990261077880859375" lon="-76.6832605563104152679443359375">
        <ele>888.20001220703125</ele>
        <time>2021-07-25T08:55:20.000Z</time>
      </trkpt>
      <trkpt lat="-11.92390643991529941558837890625" lon="-76.68321487493813037872314453125">
        <ele>888.5999755859375</ele>
        <time>2021-07-25T08:55:21.000Z</time>
      </trkpt>
      <trkpt lat="-11.9238357804715633392333984375" lon="-76.6828791797161102294921875">
        <ele>888.5999755859375</ele>
        <time>2021-07-25T08:55:28.000Z</time>
      </trkpt>
      <trkpt lat="-11.92382480017840862274169921875" lon="-76.68278186582028865814208984375">
        <ele>889.20001220703125</ele>
        <time>2021-07-25T08:55:30.000Z</time>
      </trkpt>
      <trkpt lat="-11.92382714711129665374755859375" lon="-76.68268195353448390960693359375">
        <ele>889.4000244140625</ele>
        <time>2021-07-25T08:55:32.000Z</time>
      </trkpt>
      <trkpt lat="-11.92383938468992710113525390625" lon="-76.68253091163933277130126953125">
        <ele>889.79998779296875</ele>
        <time>2021-07-25T08:55:35.000Z</time>
      </trkpt>
      <trkpt lat="-11.9238733313977718353271484375" lon="-76.68223151005804538726806640625">
        <ele>890.4000244140625</ele>
        <time>2021-07-25T08:55:41.000Z</time>
      </trkpt>
      <trkpt lat="-11.9238696433603763580322265625" lon="-76.6821809671819210052490234375">
        <ele>890.4000244140625</ele>
        <time>2021-07-25T08:55:42.000Z</time>
      </trkpt>
      <trkpt lat="-11.9238461740314960479736328125" lon="-76.68177301995456218719482421875">
        <ele>890.79998779296875</ele>
        <time>2021-07-25T08:55:50.000Z</time>
      </trkpt>
      <trkpt lat="-11.92381122149527072906494140625" lon="-76.68135727755725383758544921875">
        <ele>890.79998779296875</ele>
        <time>2021-07-25T08:55:58.000Z</time>
      </trkpt>
      <trkpt lat="-11.92385128699243068695068359375" lon="-76.6809927485883235931396484375">
        <ele>891.20001220703125</ele>
        <time>2021-07-25T08:56:05.000Z</time>
      </trkpt>
      <trkpt lat="-11.92386000417172908782958984375" lon="-76.6808889806270599365234375">
        <ele>891.4000244140625</ele>
        <time>2021-07-25T08:56:07.000Z</time>
      </trkpt>
      <trkpt lat="-11.923888586461544036865234375" lon="-76.68065101839601993560791015625">
        <ele>892</ele>
        <time>2021-07-25T08:56:12.000Z</time>
      </trkpt>
      <trkpt lat="-11.923889257013797760009765625" lon="-76.68037198483943939208984375">
        <ele>892.5999755859375</ele>
        <time>2021-07-25T08:56:18.000Z</time>
      </trkpt>
      <trkpt lat="-11.92386813461780548095703125" lon="-76.68028020299971103668212890625">
        <ele>892.5999755859375</ele>
        <time>2021-07-25T08:56:20.000Z</time>
      </trkpt>
      <trkpt lat="-11.92381373606622219085693359375" lon="-76.680104434490203857421875">
        <ele>892.79998779296875</ele>
        <time>2021-07-25T08:56:24.000Z</time>
      </trkpt>
      <trkpt lat="-11.92372329533100128173828125" lon="-76.67997359298169612884521484375">
        <ele>892</ele>
        <time>2021-07-25T08:56:27.000Z</time>
      </trkpt>
      <trkpt lat="-11.92369353957474231719970703125" lon="-76.6799275763332843780517578125">
        <ele>891.4000244140625</ele>
        <time>2021-07-25T08:56:28.000Z</time>
      </trkpt>
      <trkpt lat="-11.92361600697040557861328125" lon="-76.67981198988854885101318359375">
        <ele>892.5999755859375</ele>
        <time>2021-07-25T08:56:31.000Z</time>
      </trkpt>
      <trkpt lat="-11.92357082851231098175048828125" lon="-76.67974594049155712127685546875">
        <ele>893.4000244140625</ele>
        <time>2021-07-25T08:56:33.000Z</time>
      </trkpt>
      <trkpt lat="-11.9235477782785892486572265625" lon="-76.6797109879553318023681640625">
        <ele>893.5999755859375</ele>
        <time>2021-07-25T08:56:34.000Z</time>
      </trkpt>
      <trkpt lat="-11.923336721956729888916015625" lon="-76.67942122556269168853759765625">
        <ele>894.79998779296875</ele>
        <time>2021-07-25T08:56:42.000Z</time>
      </trkpt>
      <trkpt lat="-11.9230971671640872955322265625" lon="-76.67914621531963348388671875">
        <ele>895.20001220703125</ele>
        <time>2021-07-25T08:56:50.000Z</time>
      </trkpt>
      <trkpt lat="-11.92283908836543560028076171875" lon="-76.678868271410465240478515625">
        <ele>895.5999755859375</ele>
        <time>2021-07-25T08:56:58.000Z</time>
      </trkpt>
      <trkpt lat="-11.92280371673405170440673828125" lon="-76.6788359172642230987548828125">
        <ele>896</ele>
        <time>2021-07-25T08:56:59.000Z</time>
      </trkpt>
      <trkpt lat="-11.9225758127868175506591796875" lon="-76.678603403270244598388671875">
        <ele>896.4000244140625</ele>
        <time>2021-07-25T08:57:06.000Z</time>
      </trkpt>
      <trkpt lat="-11.9224547781050205230712890625" lon="-76.67846401222050189971923828125">
        <ele>896.79998779296875</ele>
        <time>2021-07-25T08:57:10.000Z</time>
      </trkpt>
      <trkpt lat="-11.92239970900118350982666015625" lon="-76.67838622815907001495361328125">
        <ele>897</ele>
        <time>2021-07-25T08:57:12.000Z</time>
      </trkpt>
      <trkpt lat="-11.92234355024993419647216796875" lon="-76.678311713039875030517578125">
        <ele>897.20001220703125</ele>
        <time>2021-07-25T08:57:14.000Z</time>
      </trkpt>
      <trkpt lat="-11.9221843779087066650390625" lon="-76.67803904972970485687255859375">
        <ele>898</ele>
        <time>2021-07-25T08:57:21.000Z</time>
      </trkpt>
      <trkpt lat="-11.92214640788733959197998046875" lon="-76.67796730063855648040771484375">
        <ele>898.20001220703125</ele>
        <time>2021-07-25T08:57:23.000Z</time>
      </trkpt>
      <trkpt lat="-11.92204917781054973602294921875" lon="-76.677758507430553436279296875">
        <ele>898.79998779296875</ele>
        <time>2021-07-25T08:57:28.000Z</time>
      </trkpt>
      <trkpt lat="-11.92200173623859882354736328125" lon="-76.677632443606853485107421875">
        <ele>899.20001220703125</ele>
        <time>2021-07-25T08:57:31.000Z</time>
      </trkpt>
      <trkpt lat="-11.92192261107265949249267578125" lon="-76.6774250753223896026611328125">
        <ele>900</ele>
        <time>2021-07-25T08:57:36.000Z</time>
      </trkpt>
      <trkpt lat="-11.92189000546932220458984375" lon="-76.67734150774776935577392578125">
        <ele>900.20001220703125</ele>
        <time>2021-07-25T08:57:38.000Z</time>
      </trkpt>
      <trkpt lat="-11.92176201380789279937744140625" lon="-76.6770063154399394989013671875">
        <ele>901.20001220703125</ele>
        <time>2021-07-25T08:57:46.000Z</time>
      </trkpt>
      <trkpt lat="-11.9216363690793514251708984375" lon="-76.6766643337905406951904296875">
        <ele>902.20001220703125</ele>
        <time>2021-07-25T08:57:54.000Z</time>
      </trkpt>
      <trkpt lat="-11.92162086255848407745361328125" lon="-76.67662133462727069854736328125">
        <ele>902.20001220703125</ele>
        <time>2021-07-25T08:57:55.000Z</time>
      </trkpt>
      <trkpt lat="-11.92145020700991153717041015625" lon="-76.676176674664020538330078125">
        <ele>903.4000244140625</ele>
        <time>2021-07-25T08:58:05.000Z</time>
      </trkpt>
      <trkpt lat="-11.9212860055267810821533203125" lon="-76.6757319308817386627197265625">
        <ele>904.20001220703125</ele>
        <time>2021-07-25T08:58:15.000Z</time>
      </trkpt>
      <trkpt lat="-11.92127284593880176544189453125" lon="-76.67568750679492950439453125">
        <ele>904.4000244140625</ele>
        <time>2021-07-25T08:58:16.000Z</time>
      </trkpt>
      <trkpt lat="-11.92115214653313159942626953125" lon="-76.67533923871815204620361328125">
        <ele>905.20001220703125</ele>
        <time>2021-07-25T08:58:24.000Z</time>
      </trkpt>
      <trkpt lat="-11.92113940604031085968017578125" lon="-76.67529523372650146484375">
        <ele>905.4000244140625</ele>
        <time>2021-07-25T08:58:25.000Z</time>
      </trkpt>
      <trkpt lat="-11.92104401998221874237060546875" lon="-76.67502843774855136871337890625">
        <ele>906</ele>
        <time>2021-07-25T08:58:31.000Z</time>
      </trkpt>
      <trkpt lat="-11.920983754098415374755859375" lon="-76.674850322306156158447265625">
        <ele>906.4000244140625</ele>
        <time>2021-07-25T08:58:35.000Z</time>
      </trkpt>
      <trkpt lat="-11.92088820040225982666015625" lon="-76.674545221030712127685546875">
        <ele>907.20001220703125</ele>
        <time>2021-07-25T08:58:42.000Z</time>
      </trkpt>
      <trkpt lat="-11.92086196504533290863037109375" lon="-76.6744575463235378265380859375">
        <ele>907.5999755859375</ele>
        <time>2021-07-25T08:58:44.000Z</time>
      </trkpt>
      <trkpt lat="-11.92079340107738971710205078125" lon="-76.67415118776261806488037109375">
        <ele>908.4000244140625</ele>
        <time>2021-07-25T08:58:51.000Z</time>
      </trkpt>
      <trkpt lat="-11.92077093757688999176025390625" lon="-76.67406200431287288665771484375">
        <ele>908.5999755859375</ele>
        <time>2021-07-25T08:58:53.000Z</time>
      </trkpt>
      <trkpt lat="-11.920739002525806427001953125" lon="-76.67378724552690982818603515625">
        <ele>909.20001220703125</ele>
        <time>2021-07-25T08:58:59.000Z</time>
      </trkpt>
      <trkpt lat="-11.9207170419394969940185546875" lon="-76.673566214740276336669921875">
        <ele>909.79998779296875</ele>
        <time>2021-07-25T08:59:04.000Z</time>
      </trkpt>
      <trkpt lat="-11.92070287652313709259033203125" lon="-76.6732964850962162017822265625">
        <ele>910.5999755859375</ele>
        <time>2021-07-25T08:59:10.000Z</time>
      </trkpt>
      <trkpt lat="-11.92070153541862964630126953125" lon="-76.673254407942295074462890625">
        <ele>910.79998779296875</ele>
        <time>2021-07-25T08:59:11.000Z</time>
      </trkpt>
      <trkpt lat="-11.920716203749179840087890625" lon="-76.67290069162845611572265625">
        <ele>911.79998779296875</ele>
        <time>2021-07-25T08:59:19.000Z</time>
      </trkpt>
      <trkpt lat="-11.92071846686303615570068359375" lon="-76.67285651899874210357666015625">
        <ele>911.79998779296875</ele>
        <time>2021-07-25T08:59:20.000Z</time>
      </trkpt>
      <trkpt lat="-11.92076213657855987548828125" lon="-76.672443710267543792724609375">
        <ele>912.79998779296875</ele>
        <time>2021-07-25T08:59:29.000Z</time>
      </trkpt>
      <trkpt lat="-11.920767165720462799072265625" lon="-76.67239953763782978057861328125">
        <ele>913</ele>
        <time>2021-07-25T08:59:30.000Z</time>
      </trkpt>
      <trkpt lat="-11.920800022780895233154296875" lon="-76.672090999782085418701171875">
        <ele>914</ele>
        <time>2021-07-25T08:59:37.000Z</time>
      </trkpt>
      <trkpt lat="-11.920802704989910125732421875" lon="-76.6720455698668956756591796875">
        <ele>914.20001220703125</ele>
        <time>2021-07-25T08:59:38.000Z</time>
      </trkpt>
      <trkpt lat="-11.92082927562296390533447265625" lon="-76.67172965593636035919189453125">
        <ele>915.20001220703125</ele>
        <time>2021-07-25T08:59:45.000Z</time>
      </trkpt>
      <trkpt lat="-11.9208759628236293792724609375" lon="-76.671371161937713623046875">
        <ele>916.20001220703125</ele>
        <time>2021-07-25T08:59:53.000Z</time>
      </trkpt>
      <trkpt lat="-11.92087956704199314117431640625" lon="-76.67132883332669734954833984375">
        <ele>916.4000244140625</ele>
        <time>2021-07-25T08:59:54.000Z</time>
      </trkpt>
      <trkpt lat="-11.92090571857988834381103515625" lon="-76.67111123912036418914794921875">
        <ele>917.20001220703125</ele>
        <time>2021-07-25T08:59:59.000Z</time>
      </trkpt>
      <trkpt lat="-11.9209282658994197845458984375" lon="-76.6709326207637786865234375">
        <ele>917.79998779296875</ele>
        <time>2021-07-25T09:00:03.000Z</time>
      </trkpt>
      <trkpt lat="-11.92094762809574604034423828125" lon="-76.67075869627296924591064453125">
        <ele>918.4000244140625</ele>
        <time>2021-07-25T09:00:07.000Z</time>
      </trkpt>
      <trkpt lat="-11.92097671329975128173828125" lon="-76.6704979352653026580810546875">
        <ele>919</ele>
        <time>2021-07-25T09:00:13.000Z</time>
      </trkpt>
      <trkpt lat="-11.92098853178322315216064453125" lon="-76.6703651659190654754638671875">
        <ele>919.5999755859375</ele>
        <time>2021-07-25T09:00:16.000Z</time>
      </trkpt>
      <trkpt lat="-11.92102239467203617095947265625" lon="-76.6701150499284267425537109375">
        <ele>920.20001220703125</ele>
        <time>2021-07-25T09:00:22.000Z</time>
      </trkpt>
      <trkpt lat="-11.92102507688105106353759765625" lon="-76.67002762667834758758544921875">
        <ele>920.5999755859375</ele>
        <time>2021-07-25T09:00:24.000Z</time>
      </trkpt>
      <trkpt lat="-11.9210744462907314300537109375" lon="-76.66968262754380702972412109375">
        <ele>921.5999755859375</ele>
        <time>2021-07-25T09:00:32.000Z</time>
      </trkpt>
      <trkpt lat="-11.9210793077945709228515625" lon="-76.6696397960186004638671875">
        <ele>921.5999755859375</ele>
        <time>2021-07-25T09:00:33.000Z</time>
      </trkpt>
      <trkpt lat="-11.92111409269273281097412109375" lon="-76.66938272304832935333251953125">
        <ele>922.79998779296875</ele>
        <time>2021-07-25T09:00:39.000Z</time>
      </trkpt>
      <trkpt lat="-11.9211240671575069427490234375" lon="-76.6692547313868999481201171875">
        <ele>923.20001220703125</ele>
        <time>2021-07-25T09:00:42.000Z</time>
      </trkpt>
      <trkpt lat="-11.92114393226802349090576171875" lon="-76.66905063204467296600341796875">
        <ele>923.79998779296875</ele>
        <time>2021-07-25T09:00:47.000Z</time>
      </trkpt>
      <trkpt lat="-11.9211549125611782073974609375" lon="-76.6689700819551944732666015625">
        <ele>924.4000244140625</ele>
        <time>2021-07-25T09:00:49.000Z</time>
      </trkpt>
      <trkpt lat="-11.92116312682628631591796875" lon="-76.6688896156847476959228515625">
        <ele>925</ele>
        <time>2021-07-25T09:00:51.000Z</time>
      </trkpt>
      <trkpt lat="-11.921188943088054656982421875" lon="-76.66867327876389026641845703125">
        <ele>925.4000244140625</ele>
        <time>2021-07-25T09:00:56.000Z</time>
      </trkpt>
      <trkpt lat="-11.9212058745324611663818359375" lon="-76.668502204120159149169921875">
        <ele>926</ele>
        <time>2021-07-25T09:01:00.000Z</time>
      </trkpt>
      <trkpt lat="-11.92122959531843662261962890625" lon="-76.66824043728411197662353515625">
        <ele>926.79998779296875</ele>
        <time>2021-07-25T09:01:06.000Z</time>
      </trkpt>
      <trkpt lat="-11.921235881745815277099609375" lon="-76.668197102844715118408203125">
        <ele>927.20001220703125</ele>
        <time>2021-07-25T09:01:07.000Z</time>
      </trkpt>
      <trkpt lat="-11.92123428918421268463134765625" lon="-76.66815209202468395233154296875">
        <ele>927.4000244140625</ele>
        <time>2021-07-25T09:01:08.000Z</time>
      </trkpt>
      <trkpt lat="-11.9212494604289531707763671875" lon="-76.6679779998958110809326171875">
        <ele>927.79998779296875</ele>
        <time>2021-07-25T09:01:12.000Z</time>
      </trkpt>
      <trkpt lat="-11.92127083428204059600830078125" lon="-76.667842380702495574951171875">
        <ele>928</ele>
        <time>2021-07-25T09:01:15.000Z</time>
      </trkpt>
      <trkpt lat="-11.9212860055267810821533203125" lon="-76.667751856148242950439453125">
        <ele>928.20001220703125</ele>
        <time>2021-07-25T09:01:17.000Z</time>
      </trkpt>
      <trkpt lat="-11.9212890230119228363037109375" lon="-76.66770097799599170684814453125">
        <ele>928.20001220703125</ele>
        <time>2021-07-25T09:01:18.000Z</time>
      </trkpt>
      <trkpt lat="-11.92132649011909961700439453125" lon="-76.667382717132568359375">
        <ele>928.4000244140625</ele>
        <time>2021-07-25T09:01:25.000Z</time>
      </trkpt>
      <trkpt lat="-11.92136454395949840545654296875" lon="-76.66693537496030330657958984375">
        <ele>928.20001220703125</ele>
        <time>2021-07-25T09:01:34.000Z</time>
      </trkpt>
      <trkpt lat="-11.9214164279401302337646484375" lon="-76.6665457002818584442138671875">
        <ele>928.4000244140625</ele>
        <time>2021-07-25T09:01:42.000Z</time>
      </trkpt>
      <trkpt lat="-11.921449117362499237060546875" lon="-76.66629374027252197265625">
        <ele>928.79998779296875</ele>
        <time>2021-07-25T09:01:48.000Z</time>
      </trkpt>
      <trkpt lat="-11.92145238630473613739013671875" lon="-76.6662064008414745330810546875">
        <ele>929.20001220703125</ele>
        <time>2021-07-25T09:01:50.000Z</time>
      </trkpt>
      <trkpt lat="-11.92145942710340023040771484375" lon="-76.666167341172695159912109375">
        <ele>929.20001220703125</ele>
        <time>2021-07-25T09:01:51.000Z</time>
      </trkpt>
      <trkpt lat="-11.92147216759622097015380859375" lon="-76.666049659252166748046875">
        <ele>929.4000244140625</ele>
        <time>2021-07-25T09:01:54.000Z</time>
      </trkpt>
      <trkpt lat="-11.921498738229274749755859375" lon="-76.6658080928027629852294921875">
        <ele>930.4000244140625</ele>
        <time>2021-07-25T09:02:00.000Z</time>
      </trkpt>
      <trkpt lat="-11.921517513692378997802734375" lon="-76.66569854132831096649169921875">
        <ele>931</ele>
        <time>2021-07-25T09:02:03.000Z</time>
      </trkpt>
      <trkpt lat="-11.9215379655361175537109375" lon="-76.6655512712895870208740234375">
        <ele>931.5999755859375</ele>
        <time>2021-07-25T09:02:07.000Z</time>
      </trkpt>
      <trkpt lat="-11.921541988849639892578125" lon="-76.66547474451363086700439453125">
        <ele>932</ele>
        <time>2021-07-25T09:02:09.000Z</time>
      </trkpt>
      <trkpt lat="-11.9215656258165836334228515625" lon="-76.66533342562615871429443359375">
        <ele>932.5999755859375</ele>
        <time>2021-07-25T09:02:13.000Z</time>
      </trkpt>
      <trkpt lat="-11.92158230580389499664306640625" lon="-76.66525312699377536773681640625">
        <ele>933</ele>
        <time>2021-07-25T09:02:15.000Z</time>
      </trkpt>
      <trkpt lat="-11.92159940488636493682861328125" lon="-76.665148437023162841796875">
        <ele>933.79998779296875</ele>
        <time>2021-07-25T09:02:18.000Z</time>
      </trkpt>
      <trkpt lat="-11.92162270657718181610107421875" lon="-76.6650423221290111541748046875">
        <ele>934.20001220703125</ele>
        <time>2021-07-25T09:02:21.000Z</time>
      </trkpt>
      <trkpt lat="-11.92163812927901744842529296875" lon="-76.6649682261049747467041015625">
        <ele>934.79998779296875</ele>
        <time>2021-07-25T09:02:23.000Z</time>
      </trkpt>
      <trkpt lat="-11.9216896779835224151611328125" lon="-76.664747782051563262939453125">
        <ele>935.79998779296875</ele>
        <time>2021-07-25T09:02:29.000Z</time>
      </trkpt>
      <trkpt lat="-11.9217939488589763641357421875" lon="-76.66439582593739032745361328125">
        <ele>936.79998779296875</ele>
        <time>2021-07-25T09:02:38.000Z</time>
      </trkpt>
      <trkpt lat="-11.92188975401222705841064453125" lon="-76.6641142778098583221435546875">
        <ele>937.5999755859375</ele>
        <time>2021-07-25T09:02:45.000Z</time>
      </trkpt>
      <trkpt lat="-11.9219850562512874603271484375" lon="-76.66382367722690105438232421875">
        <ele>937.79998779296875</ele>
        <time>2021-07-25T09:02:52.000Z</time>
      </trkpt>
      <trkpt lat="-11.92215981893241405487060546875" lon="-76.6634397022426128387451171875">
        <ele>937.79998779296875</ele>
        <time>2021-07-25T09:03:01.000Z</time>
      </trkpt>
      <trkpt lat="-11.92237012088298797607421875" lon="-76.66310233063995838165283203125">
        <ele>937.79998779296875</ele>
        <time>2021-07-25T09:03:09.000Z</time>
      </trkpt>
      <trkpt lat="-11.92266239784657955169677734375" lon="-76.662751547992229461669921875">
        <ele>937.79998779296875</ele>
        <time>2021-07-25T09:03:18.000Z</time>
      </trkpt>
      <trkpt lat="-11.92293900065124034881591796875" lon="-76.6624627076089382171630859375">
        <ele>937.5999755859375</ele>
        <time>2021-07-25T09:03:26.000Z</time>
      </trkpt>
      <trkpt lat="-11.92315173335373401641845703125" lon="-76.6622481308877468109130859375">
        <ele>937.79998779296875</ele>
        <time>2021-07-25T09:03:32.000Z</time>
      </trkpt>
      <trkpt lat="-11.92325097508728504180908203125" lon="-76.66216104291379451751708984375">
        <ele>938.20001220703125</ele>
        <time>2021-07-25T09:03:35.000Z</time>
      </trkpt>
      <trkpt lat="-11.92333211190998554229736328125" lon="-76.66207655332982540130615234375">
        <ele>939</ele>
        <time>2021-07-25T09:03:38.000Z</time>
      </trkpt>
      <trkpt lat="-11.92340469919145107269287109375" lon="-76.66199340485036373138427734375">
        <ele>939.4000244140625</ele>
        <time>2021-07-25T09:03:41.000Z</time>
      </trkpt>
      <trkpt lat="-11.92346856929361820220947265625" lon="-76.6619121842086315155029296875">
        <ele>940.20001220703125</ele>
        <time>2021-07-25T09:03:44.000Z</time>
      </trkpt>
      <trkpt lat="-11.92353378050029277801513671875" lon="-76.66182585060596466064453125">
        <ele>940.5999755859375</ele>
        <time>2021-07-25T09:03:47.000Z</time>
      </trkpt>
      <trkpt lat="-11.92358658649027347564697265625" lon="-76.6617311351001262664794921875">
        <ele>941.20001220703125</ele>
        <time>2021-07-25T09:03:50.000Z</time>
      </trkpt>
      <trkpt lat="-11.9236429966986179351806640625" lon="-76.661602221429347991943359375">
        <ele>941.79998779296875</ele>
        <time>2021-07-25T09:03:54.000Z</time>
      </trkpt>
      <trkpt lat="-11.9236543960869312286376953125" lon="-76.66156928054988384246826171875">
        <ele>942.4000244140625</ele>
        <time>2021-07-25T09:03:55.000Z</time>
      </trkpt>
      <trkpt lat="-11.92371658980846405029296875" lon="-76.66135378181934356689453125">
        <ele>943.4000244140625</ele>
        <time>2021-07-25T09:04:01.000Z</time>
      </trkpt>
      <trkpt lat="-11.92372488789260387420654296875" lon="-76.66109268553555011749267578125">
        <ele>944.4000244140625</ele>
        <time>2021-07-25T09:04:08.000Z</time>
      </trkpt>
      <trkpt lat="-11.92371985875070095062255859375" lon="-76.6608399711549282073974609375">
        <ele>945.4000244140625</ele>
        <time>2021-07-25T09:04:15.000Z</time>
      </trkpt>
      <trkpt lat="-11.92371751181781291961669921875" lon="-76.66080853901803493499755859375">
        <ele>945.4000244140625</ele>
        <time>2021-07-25T09:04:16.000Z</time>
      </trkpt>
      <trkpt lat="-11.9237060286104679107666015625" lon="-76.66064559482038021087646484375">
        <ele>946.4000244140625</ele>
        <time>2021-07-25T09:04:22.000Z</time>
      </trkpt>
      <trkpt lat="-11.92370393313467502593994140625" lon="-76.6605583392083644866943359375">
        <ele>946.5999755859375</ele>
        <time>2021-07-25T09:04:25.000Z</time>
      </trkpt>
      <trkpt lat="-11.92370393313467502593994140625" lon="-76.66042397730052471160888671875">
        <ele>946.79998779296875</ele>
        <time>2021-07-25T09:04:29.000Z</time>
      </trkpt>
      <trkpt lat="-11.9236850738525390625" lon="-76.66016749106347560882568359375">
        <ele>947.5999755859375</ele>
        <time>2021-07-25T09:04:36.000Z</time>
      </trkpt>
      <trkpt lat="-11.9236822240054607391357421875" lon="-76.660094819962978363037109375">
        <ele>947.5999755859375</ele>
        <time>2021-07-25T09:04:38.000Z</time>
      </trkpt>
      <trkpt lat="-11.92367945797741413116455078125" lon="-76.65982089936733245849609375">
        <ele>948.5999755859375</ele>
        <time>2021-07-25T09:04:45.000Z</time>
      </trkpt>
      <trkpt lat="-11.92368063144385814666748046875" lon="-76.65954102762043476104736328125">
        <ele>948.79998779296875</ele>
        <time>2021-07-25T09:04:53.000Z</time>
      </trkpt>
      <trkpt lat="-11.9236892648041248321533203125" lon="-76.6594341583549976348876953125">
        <ele>949.20001220703125</ele>
        <time>2021-07-25T09:04:59.000Z</time>
      </trkpt>
      <trkpt lat="-11.92366403527557849884033203125" lon="-76.65939032100141048431396484375">
        <ele>949.20001220703125</ele>
        <time>2021-07-25T09:05:18.000Z</time>
      </trkpt>
      <trkpt lat="-11.92366353236138820648193359375" lon="-76.659354530274868011474609375">
        <ele>949.4000244140625</ele>
        <time>2021-07-25T09:05:20.000Z</time>
      </trkpt>
      <trkpt lat="-11.923662610352039337158203125" lon="-76.65922268293797969818115234375">
        <ele>949.4000244140625</ele>
        <time>2021-07-25T09:05:24.000Z</time>
      </trkpt>
      <trkpt lat="-11.92365112714469432830810546875" lon="-76.659008525311946868896484375">
        <ele>949.5999755859375</ele>
        <time>2021-07-25T09:05:29.000Z</time>
      </trkpt>
      <trkpt lat="-11.92364660091698169708251953125" lon="-76.65886603295803070068359375">
        <ele>950</ele>
        <time>2021-07-25T09:05:32.000Z</time>
      </trkpt>
      <trkpt lat="-11.92363771609961986541748046875" lon="-76.65849144570529460906982421875">
        <ele>950.79998779296875</ele>
        <time>2021-07-25T09:05:40.000Z</time>
      </trkpt>
      <trkpt lat="-11.923634111881256103515625" lon="-76.65821467526257038116455078125">
        <ele>951.5999755859375</ele>
        <time>2021-07-25T09:05:47.000Z</time>
      </trkpt>
      <trkpt lat="-11.9236329384148120880126953125" lon="-76.6581778787076473236083984375">
        <ele>951.79998779296875</ele>
        <time>2021-07-25T09:05:48.000Z</time>
      </trkpt>
      <trkpt lat="-11.92362044937908649444580078125" lon="-76.65794603526592254638671875">
        <ele>952.20001220703125</ele>
        <time>2021-07-25T09:05:54.000Z</time>
      </trkpt>
      <trkpt lat="-11.9236139953136444091796875" lon="-76.65775668807327747344970703125">
        <ele>952.79998779296875</ele>
        <time>2021-07-25T09:05:59.000Z</time>
      </trkpt>
      <trkpt lat="-11.9236139953136444091796875" lon="-76.65764520876109600067138671875">
        <ele>953.4000244140625</ele>
        <time>2021-07-25T09:06:02.000Z</time>
      </trkpt>
      <trkpt lat="-11.923623383045196533203125" lon="-76.65753825567662715911865234375">
        <ele>954</ele>
        <time>2021-07-25T09:06:05.000Z</time>
      </trkpt>
      <trkpt lat="-11.92365749739110469818115234375" lon="-76.65732770226895809173583984375">
        <ele>955</ele>
        <time>2021-07-25T09:06:11.000Z</time>
      </trkpt>
      <trkpt lat="-11.9236664660274982452392578125" lon="-76.65729283355176448822021484375">
        <ele>955.20001220703125</ele>
        <time>2021-07-25T09:06:12.000Z</time>
      </trkpt>
      <trkpt lat="-11.92374634556472301483154296875" lon="-76.65706786327064037322998046875">
        <ele>956.5999755859375</ele>
        <time>2021-07-25T09:06:19.000Z</time>
      </trkpt>
      <trkpt lat="-11.92382161505520343780517578125" lon="-76.656911037862300872802734375">
        <ele>957.5999755859375</ele>
        <time>2021-07-25T09:06:24.000Z</time>
      </trkpt>
      <trkpt lat="-11.9238797016441822052001953125" lon="-76.65678740479052066802978515625">
        <ele>958.4000244140625</ele>
        <time>2021-07-25T09:06:28.000Z</time>
      </trkpt>
      <trkpt lat="-11.92391348071396350860595703125" lon="-76.656723283231258392333984375">
        <ele>958.79998779296875</ele>
        <time>2021-07-25T09:06:30.000Z</time>
      </trkpt>
      <trkpt lat="-11.92400492727756500244140625" lon="-76.65652689523994922637939453125">
        <ele>960</ele>
        <time>2021-07-25T09:06:36.000Z</time>
      </trkpt>
      <trkpt lat="-11.92401976324617862701416015625" lon="-76.65649537928402423858642578125">
        <ele>960.20001220703125</ele>
        <time>2021-07-25T09:06:37.000Z</time>
      </trkpt>
      <trkpt lat="-11.924122609198093414306640625" lon="-76.65629404596984386444091796875">
        <ele>961.20001220703125</ele>
        <time>2021-07-25T09:06:43.000Z</time>
      </trkpt>
      <trkpt lat="-11.9241747446358203887939453125" lon="-76.6561893559992313385009765625">
        <ele>961.5999755859375</ele>
        <time>2021-07-25T09:06:46.000Z</time>
      </trkpt>
      <trkpt lat="-11.9242706336081027984619140625" lon="-76.65598525665700435638427734375">
        <ele>962.20001220703125</ele>
        <time>2021-07-25T09:06:52.000Z</time>
      </trkpt>
      <trkpt lat="-11.9243078492581844329833984375" lon="-76.65591292083263397216796875">
        <ele>962.5999755859375</ele>
        <time>2021-07-25T09:06:54.000Z</time>
      </trkpt>
      <trkpt lat="-11.9244560413062572479248046875" lon="-76.65559248067438602447509765625">
        <ele>963.20001220703125</ele>
        <time>2021-07-25T09:07:02.000Z</time>
      </trkpt>
      <trkpt lat="-11.924517564475536346435546875" lon="-76.65546457283198833465576171875">
        <ele>963.4000244140625</ele>
        <time>2021-07-25T09:07:05.000Z</time>
      </trkpt>
      <trkpt lat="-11.924631893634796142578125" lon="-76.65521395392715930938720703125">
        <ele>963.5999755859375</ele>
        <time>2021-07-25T09:07:11.000Z</time>
      </trkpt>
      <trkpt lat="-11.92481872625648975372314453125" lon="-76.6548247821629047393798828125">
        <ele>964</ele>
        <time>2021-07-25T09:07:20.000Z</time>
      </trkpt>
      <trkpt lat="-11.92492584697902202606201171875" lon="-76.6546038351953029632568359375">
        <ele>964.4000244140625</ele>
        <time>2021-07-25T09:07:25.000Z</time>
      </trkpt>
      <trkpt lat="-11.92503221333026885986328125" lon="-76.654380373656749725341796875">
        <ele>964.5999755859375</ele>
        <time>2021-07-25T09:07:30.000Z</time>
      </trkpt>
      <trkpt lat="-11.92521669901907444000244140625" lon="-76.65399405173957347869873046875">
        <ele>965.4000244140625</ele>
        <time>2021-07-25T09:07:39.000Z</time>
      </trkpt>
      <trkpt lat="-11.92523698322474956512451171875" lon="-76.653950214385986328125">
        <ele>965.4000244140625</ele>
        <time>2021-07-25T09:07:40.000Z</time>
      </trkpt>
      <trkpt lat="-11.92540545947849750518798828125" lon="-76.65359138511121273040771484375">
        <ele>966.4000244140625</ele>
        <time>2021-07-25T09:07:49.000Z</time>
      </trkpt>
      <trkpt lat="-11.92542775534093379974365234375" lon="-76.6535500623285770416259765625">
        <ele>966.4000244140625</ele>
        <time>2021-07-25T09:07:50.000Z</time>
      </trkpt>
      <trkpt lat="-11.9255671463906764984130859375" lon="-76.65325476787984371185302734375">
        <ele>967.4000244140625</ele>
        <time>2021-07-25T09:07:57.000Z</time>
      </trkpt>
      <trkpt lat="-11.92560930736362934112548828125" lon="-76.65317078121006488800048828125">
        <ele>967.4000244140625</ele>
        <time>2021-07-25T09:07:59.000Z</time>
      </trkpt>
      <trkpt lat="-11.92570435814559459686279296875" lon="-76.65296995081007480621337890625">
        <ele>968</ele>
        <time>2021-07-25T09:08:04.000Z</time>
      </trkpt>
      <trkpt lat="-11.92584953270852565765380859375" lon="-76.6526739858090877532958984375">
        <ele>968.4000244140625</ele>
        <time>2021-07-25T09:08:11.000Z</time>
      </trkpt>
      <trkpt lat="-11.92593184299767017364501953125" lon="-76.652500145137310028076171875">
        <ele>969.20001220703125</ele>
        <time>2021-07-25T09:08:15.000Z</time>
      </trkpt>
      <trkpt lat="-11.92602907307446002960205078125" lon="-76.6522941179573535919189453125">
        <ele>969.5999755859375</ele>
        <time>2021-07-25T09:08:20.000Z</time>
      </trkpt>
      <trkpt lat="-11.926111467182636260986328125" lon="-76.65212639607489109039306640625">
        <ele>970</ele>
        <time>2021-07-25T09:08:24.000Z</time>
      </trkpt>
      <trkpt lat="-11.92624725401401519775390625" lon="-76.65183537639677524566650390625">
        <ele>970.5999755859375</ele>
        <time>2021-07-25T09:08:31.000Z</time>
      </trkpt>
      <trkpt lat="-11.9262693822383880615234375" lon="-76.6517938859760761260986328125">
        <ele>970.79998779296875</ele>
        <time>2021-07-25T09:08:32.000Z</time>
      </trkpt>
      <trkpt lat="-11.926401145756244659423828125" lon="-76.6514981724321842193603515625">
        <ele>971.5999755859375</ele>
        <time>2021-07-25T09:08:39.000Z</time>
      </trkpt>
      <trkpt lat="-11.92643526010215282440185546875" lon="-76.65141217410564422607421875">
        <ele>971.79998779296875</ele>
        <time>2021-07-25T09:08:41.000Z</time>
      </trkpt>
      <trkpt lat="-11.92655168473720550537109375" lon="-76.6510628163814544677734375">
        <ele>972.79998779296875</ele>
        <time>2021-07-25T09:08:49.000Z</time>
      </trkpt>
      <trkpt lat="-11.92663055844604969024658203125" lon="-76.65074757300317287445068359375">
        <ele>973.5999755859375</ele>
        <time>2021-07-25T09:08:56.000Z</time>
      </trkpt>
      <trkpt lat="-11.9266510941088199615478515625" lon="-76.65065989829599857330322265625">
        <ele>973.79998779296875</ele>
        <time>2021-07-25T09:08:58.000Z</time>
      </trkpt>
      <trkpt lat="-11.9267039000988006591796875" lon="-76.6503622569143772125244140625">
        <ele>974.5999755859375</ele>
        <time>2021-07-25T09:09:05.000Z</time>
      </trkpt>
      <trkpt lat="-11.92670859396457672119140625" lon="-76.65031791664659976959228515625">
        <ele>974.79998779296875</ele>
        <time>2021-07-25T09:09:06.000Z</time>
      </trkpt>
      <trkpt lat="-11.92674220539629459381103515625" lon="-76.650020442903041839599609375">
        <ele>976</ele>
        <time>2021-07-25T09:09:13.000Z</time>
      </trkpt>
      <trkpt lat="-11.92675796337425708770751953125" lon="-76.64971056394279003143310546875">
        <ele>976.79998779296875</ele>
        <time>2021-07-25T09:09:20.000Z</time>
      </trkpt>
      <trkpt lat="-11.92675477825105190277099609375" lon="-76.649665050208568572998046875">
        <ele>977</ele>
        <time>2021-07-25T09:09:21.000Z</time>
      </trkpt>
      <trkpt lat="-11.92673499695956707000732421875" lon="-76.64935735054314136505126953125">
        <ele>977.79998779296875</ele>
        <time>2021-07-25T09:09:28.000Z</time>
      </trkpt>
      <trkpt lat="-11.92673139274120330810546875" lon="-76.64931460283696651458740234375">
        <ele>978</ele>
        <time>2021-07-25T09:09:29.000Z</time>
      </trkpt>
      <trkpt lat="-11.92669677548110485076904296875" lon="-76.6490097530186176300048828125">
        <ele>979.20001220703125</ele>
        <time>2021-07-25T09:09:36.000Z</time>
      </trkpt>
      <trkpt lat="-11.92668286152184009552001953125" lon="-76.648924089968204498291015625">
        <ele>979.4000244140625</ele>
        <time>2021-07-25T09:09:38.000Z</time>
      </trkpt>
      <trkpt lat="-11.92664162255823612213134765625" lon="-76.6487069986760616302490234375">
        <ele>980.20001220703125</ele>
        <time>2021-07-25T09:09:43.000Z</time>
      </trkpt>
      <trkpt lat="-11.92662251181900501251220703125" lon="-76.6485817730426788330078125">
        <ele>980.5999755859375</ele>
        <time>2021-07-25T09:09:46.000Z</time>
      </trkpt>
      <trkpt lat="-11.926573477685451507568359375" lon="-76.64833224378526210784912109375">
        <ele>981.4000244140625</ele>
        <time>2021-07-25T09:09:52.000Z</time>
      </trkpt>
      <trkpt lat="-11.92656015045940876007080078125" lon="-76.6482580639421939849853515625">
        <ele>982.20001220703125</ele>
        <time>2021-07-25T09:09:54.000Z</time>
      </trkpt>
      <trkpt lat="-11.926552355289459228515625" lon="-76.6482215188443660736083984375">
        <ele>982.4000244140625</ele>
        <time>2021-07-25T09:09:55.000Z</time>
      </trkpt>
      <trkpt lat="-11.9264839589595794677734375" lon="-76.64789722301065921783447265625">
        <ele>983.4000244140625</ele>
        <time>2021-07-25T09:10:03.000Z</time>
      </trkpt>
      <trkpt lat="-11.92644280381500720977783203125" lon="-76.6476854123175144195556640625">
        <ele>984.4000244140625</ele>
        <time>2021-07-25T09:10:08.000Z</time>
      </trkpt>
      <trkpt lat="-11.926417239010334014892578125" lon="-76.64755842648446559906005859375">
        <ele>984.5999755859375</ele>
        <time>2021-07-25T09:10:11.000Z</time>
      </trkpt>
      <trkpt lat="-11.92636334337294101715087890625" lon="-76.6472648084163665771484375">
        <ele>985.5999755859375</ele>
        <time>2021-07-25T09:10:18.000Z</time>
      </trkpt>
      <trkpt lat="-11.9263305701315402984619140625" lon="-76.64709943346679210662841796875">
        <ele>986.4000244140625</ele>
        <time>2021-07-25T09:10:22.000Z</time>
      </trkpt>
      <trkpt lat="-11.9263241998851299285888671875" lon="-76.64705718867480754852294921875">
        <ele>986.79998779296875</ele>
        <time>2021-07-25T09:10:23.000Z</time>
      </trkpt>
      <trkpt lat="-11.92626158706843852996826171875" lon="-76.6467680968344211578369140625">
        <ele>987.4000244140625</ele>
        <time>2021-07-25T09:10:30.000Z</time>
      </trkpt>
      <trkpt lat="-11.92622671835124492645263671875" lon="-76.64659970439970493316650390625">
        <ele>987.79998779296875</ele>
        <time>2021-07-25T09:10:34.000Z</time>
      </trkpt>
      <trkpt lat="-11.92619252018630504608154296875" lon="-76.64643089286983013153076171875">
        <ele>988.4000244140625</ele>
        <time>2021-07-25T09:10:38.000Z</time>
      </trkpt>
      <trkpt lat="-11.92616066895425319671630859375" lon="-76.64626861922442913055419921875">
        <ele>989</ele>
        <time>2021-07-25T09:10:42.000Z</time>
      </trkpt>
      <trkpt lat="-11.9261257164180278778076171875" lon="-76.64609880186617374420166015625">
        <ele>989.5999755859375</ele>
        <time>2021-07-25T09:10:46.000Z</time>
      </trkpt>
      <trkpt lat="-11.926118843257427215576171875" lon="-76.6460536234080791473388671875">
        <ele>989.5999755859375</ele>
        <time>2021-07-25T09:10:47.000Z</time>
      </trkpt>
      <trkpt lat="-11.926079951226711273193359375" lon="-76.6458413936197757720947265625">
        <ele>990.20001220703125</ele>
        <time>2021-07-25T09:10:52.000Z</time>
      </trkpt>
      <trkpt lat="-11.9260708987712860107421875" lon="-76.64580090902745723724365234375">
        <ele>990.4000244140625</ele>
        <time>2021-07-25T09:10:53.000Z</time>
      </trkpt>
      <trkpt lat="-11.92599588073790073394775390625" lon="-76.6454511322081089019775390625">
        <ele>991.20001220703125</ele>
        <time>2021-07-25T09:11:01.000Z</time>
      </trkpt>
      <trkpt lat="-11.9259869121015071868896484375" lon="-76.64540947414934635162353515625">
        <ele>991.4000244140625</ele>
        <time>2021-07-25T09:11:02.000Z</time>
      </trkpt>
      <trkpt lat="-11.92592865787446498870849609375" lon="-76.645124740898609161376953125">
        <ele>992.20001220703125</ele>
        <time>2021-07-25T09:11:09.000Z</time>
      </trkpt>
      <trkpt lat="-11.92591977305710315704345703125" lon="-76.6450826637446880340576171875">
        <ele>992.4000244140625</ele>
        <time>2021-07-25T09:11:10.000Z</time>
      </trkpt>
      <trkpt lat="-11.92586864344775676727294921875" lon="-76.64478653110563755035400390625">
        <ele>993.4000244140625</ele>
        <time>2021-07-25T09:11:17.000Z</time>
      </trkpt>
      <trkpt lat="-11.92584835924208164215087890625" lon="-76.64465443231165409088134765625">
        <ele>993.79998779296875</ele>
        <time>2021-07-25T09:11:20.000Z</time>
      </trkpt>
      <trkpt lat="-11.92581114359200000762939453125" lon="-76.64448394440114498138427734375">
        <ele>994.4000244140625</ele>
        <time>2021-07-25T09:11:24.000Z</time>
      </trkpt>
      <trkpt lat="-11.92576873116195201873779296875" lon="-76.64423190057277679443359375">
        <ele>995.20001220703125</ele>
        <time>2021-07-25T09:11:30.000Z</time>
      </trkpt>
      <trkpt lat="-11.92575649358332157135009765625" lon="-76.644145064055919647216796875">
        <ele>995.5999755859375</ele>
        <time>2021-07-25T09:11:32.000Z</time>
      </trkpt>
      <trkpt lat="-11.92568994127213954925537109375" lon="-76.643864102661609649658203125">
        <ele>996.4000244140625</ele>
        <time>2021-07-25T09:11:39.000Z</time>
      </trkpt>
      <trkpt lat="-11.92568373866379261016845703125" lon="-76.64382009766995906829833984375">
        <ele>996.5999755859375</ele>
        <time>2021-07-25T09:11:40.000Z</time>
      </trkpt>
      <trkpt lat="-11.92563235759735107421875" lon="-76.643522791564464569091796875">
        <ele>997.5999755859375</ele>
        <time>2021-07-25T09:11:47.000Z</time>
      </trkpt>
      <trkpt lat="-11.92562422715127468109130859375" lon="-76.6434840671718120574951171875">
        <ele>997.79998779296875</ele>
        <time>2021-07-25T09:11:48.000Z</time>
      </trkpt>
      <trkpt lat="-11.9255773723125457763671875" lon="-76.643207967281341552734375">
        <ele>998.79998779296875</ele>
        <time>2021-07-25T09:11:55.000Z</time>
      </trkpt>
      <trkpt lat="-11.925567649304866790771484375" lon="-76.64316706359386444091796875">
        <ele>998.79998779296875</ele>
        <time>2021-07-25T09:11:56.000Z</time>
      </trkpt>
      <trkpt lat="-11.925508975982666015625" lon="-76.64287495426833629608154296875">
        <ele>999.79998779296875</ele>
        <time>2021-07-25T09:12:03.000Z</time>
      </trkpt>
      <trkpt lat="-11.92549430765211582183837890625" lon="-76.64279348216950893402099609375">
        <ele>1000</ele>
        <time>2021-07-25T09:12:05.000Z</time>
      </trkpt>
      <trkpt lat="-11.9254417531192302703857421875" lon="-76.6425053961575031280517578125">
        <ele>1001</ele>
        <time>2021-07-25T09:12:12.000Z</time>
      </trkpt>
      <trkpt lat="-11.92542976699769496917724609375" lon="-76.64242166094481945037841796875">
        <ele>1001.20001220703125</ele>
        <time>2021-07-25T09:12:14.000Z</time>
      </trkpt>
      <trkpt lat="-11.9254018552601337432861328125" lon="-76.64222292602062225341796875">
        <ele>1002</ele>
        <time>2021-07-25T09:12:19.000Z</time>
      </trkpt>
      <trkpt lat="-11.9253951497375965118408203125" lon="-76.64207004010677337646484375">
        <ele>1002.5999755859375</ele>
        <time>2021-07-25T09:12:23.000Z</time>
      </trkpt>
      <trkpt lat="-11.9254075549542903900146484375" lon="-76.6419381089508533477783203125">
        <ele>1003.4000244140625</ele>
        <time>2021-07-25T09:12:27.000Z</time>
      </trkpt>
      <trkpt lat="-11.92541182972490787506103515625" lon="-76.6418891586363315582275390625">
        <ele>1003.5999755859375</ele>
        <time>2021-07-25T09:12:29.000Z</time>
      </trkpt>
      <trkpt lat="-11.92544485442340373992919921875" lon="-76.6417372785508632659912109375">
        <ele>1004</ele>
        <time>2021-07-25T09:12:34.000Z</time>
      </trkpt>
      <trkpt lat="-11.9254876859486103057861328125" lon="-76.64153971709311008453369140625">
        <ele>1004.4000244140625</ele>
        <time>2021-07-25T09:12:40.000Z</time>
      </trkpt>
      <trkpt lat="-11.9254937209188938140869140625" lon="-76.64150870405137538909912109375">
        <ele>1004.79998779296875</ele>
        <time>2021-07-25T09:12:41.000Z</time>
      </trkpt>
      <trkpt lat="-11.9255215488374233245849609375" lon="-76.64135866798460483551025390625">
        <ele>1005.5999755859375</ele>
        <time>2021-07-25T09:12:45.000Z</time>
      </trkpt>
      <trkpt lat="-11.92554912529885768890380859375" lon="-76.64122673682868480682373046875">
        <ele>1006</ele>
        <time>2021-07-25T09:12:48.000Z</time>
      </trkpt>
      <trkpt lat="-11.92557142116129398345947265625" lon="-76.64098382927477359771728515625">
        <ele>1006.79998779296875</ele>
        <time>2021-07-25T09:12:54.000Z</time>
      </trkpt>
      <trkpt lat="-11.925571002066135406494140625" lon="-76.6409460268914699554443359375">
        <ele>1007</ele>
        <time>2021-07-25T09:12:55.000Z</time>
      </trkpt>
      <trkpt lat="-11.925515346229076385498046875" lon="-76.64062139578163623809814453125">
        <ele>1008</ele>
        <time>2021-07-25T09:13:03.000Z</time>
      </trkpt>
      <trkpt lat="-11.9255021028220653533935546875" lon="-76.64057898335158824920654296875">
        <ele>1008</ele>
        <time>2021-07-25T09:13:04.000Z</time>
      </trkpt>
      <trkpt lat="-11.9253817386925220489501953125" lon="-76.64021034725010395050048828125">
        <ele>1008.79998779296875</ele>
        <time>2021-07-25T09:13:13.000Z</time>
      </trkpt>
      <trkpt lat="-11.9253783859312534332275390625" lon="-76.64017313160002231597900390625">
        <ele>1009.20001220703125</ele>
        <time>2021-07-25T09:13:14.000Z</time>
      </trkpt>
      <trkpt lat="-11.92533438093960285186767578125" lon="-76.6399854607880115509033203125">
        <ele>1009.4000244140625</ele>
        <time>2021-07-25T09:13:19.000Z</time>
      </trkpt>
      <trkpt lat="-11.9252647273242473602294921875" lon="-76.63974850438535213470458984375">
        <ele>1010.20001220703125</ele>
        <time>2021-07-25T09:13:26.000Z</time>
      </trkpt>
      <trkpt lat="-11.9251758791506290435791015625" lon="-76.63950023241341114044189453125">
        <ele>1011</ele>
        <time>2021-07-25T09:13:33.000Z</time>
      </trkpt>
      <trkpt lat="-11.9251616299152374267578125" lon="-76.6394677944481372833251953125">
        <ele>1011.20001220703125</ele>
        <time>2021-07-25T09:13:34.000Z</time>
      </trkpt>
      <trkpt lat="-11.925135143101215362548828125" lon="-76.63935698568820953369140625">
        <ele>1011.5999755859375</ele>
        <time>2021-07-25T09:13:37.000Z</time>
      </trkpt>
      <trkpt lat="-11.9251213967800140380859375" lon="-76.639315076172351837158203125">
        <ele>1011.5999755859375</ele>
        <time>2021-07-25T09:13:38.000Z</time>
      </trkpt>
      <trkpt lat="-11.92505727522075176239013671875" lon="-76.63910661824047565460205078125">
        <ele>1012.4000244140625</ele>
        <time>2021-07-25T09:13:43.000Z</time>
      </trkpt>
      <trkpt lat="-11.925027854740619659423828125" lon="-76.63899128325283527374267578125">
        <ele>1013.20001220703125</ele>
        <time>2021-07-25T09:13:46.000Z</time>
      </trkpt>
      <trkpt lat="-11.92501855082809925079345703125" lon="-76.63895423524081707000732421875">
        <ele>1013.4000244140625</ele>
        <time>2021-07-25T09:13:47.000Z</time>
      </trkpt>
      <trkpt lat="-11.92495484836399555206298828125" lon="-76.63874150253832340240478515625">
        <ele>1013.79998779296875</ele>
        <time>2021-07-25T09:13:52.000Z</time>
      </trkpt>
      <trkpt lat="-11.92490774206817150115966796875" lon="-76.638608984649181365966796875">
        <ele>1014.5999755859375</ele>
        <time>2021-07-25T09:13:55.000Z</time>
      </trkpt>
      <trkpt lat="-11.924858875572681427001953125" lon="-76.638448722660541534423828125">
        <ele>1015.20001220703125</ele>
        <time>2021-07-25T09:13:59.000Z</time>
      </trkpt>
      <trkpt lat="-11.92484152503311634063720703125" lon="-76.63837236352264881134033203125">
        <ele>1015.5999755859375</ele>
        <time>2021-07-25T09:14:01.000Z</time>
      </trkpt>
      <trkpt lat="-11.92476122640073299407958984375" lon="-76.63811822421848773956298828125">
        <ele>1016.79998779296875</ele>
        <time>2021-07-25T09:14:07.000Z</time>
      </trkpt>
      <trkpt lat="-11.92473641596734523773193359375" lon="-76.63803943432867527008056640625">
        <ele>1017.20001220703125</ele>
        <time>2021-07-25T09:14:09.000Z</time>
      </trkpt>
      <trkpt lat="-11.92468679510056972503662109375" lon="-76.63787196390330791473388671875">
        <ele>1018</ele>
        <time>2021-07-25T09:14:13.000Z</time>
      </trkpt>
      <trkpt lat="-11.92466231994330883026123046875" lon="-76.63778931833803653717041015625">
        <ele>1018.4000244140625</ele>
        <time>2021-07-25T09:14:15.000Z</time>
      </trkpt>
      <trkpt lat="-11.92463784478604793548583984375" lon="-76.637707762420177459716796875">
        <ele>1018.5999755859375</ele>
        <time>2021-07-25T09:14:17.000Z</time>
      </trkpt>
      <trkpt lat="-11.924618147313594818115234375" lon="-76.637631319463253021240234375">
        <ele>1019.20001220703125</ele>
        <time>2021-07-25T09:14:19.000Z</time>
      </trkpt>
      <trkpt lat="-11.92456626333296298980712890625" lon="-76.63743518292903900146484375">
        <ele>1020.4000244140625</ele>
        <time>2021-07-25T09:14:24.000Z</time>
      </trkpt>
      <trkpt lat="-11.92455503158271312713623046875" lon="-76.63740593008697032928466796875">
        <ele>1020.5999755859375</ele>
        <time>2021-07-25T09:14:25.000Z</time>
      </trkpt>
      <trkpt lat="-11.9245016388595104217529296875" lon="-76.6372613422572612762451171875">
        <ele>1021.5999755859375</ele>
        <time>2021-07-25T09:14:29.000Z</time>
      </trkpt>
      <trkpt lat="-11.924454532563686370849609375" lon="-76.6371475160121917724609375">
        <ele>1022</ele>
        <time>2021-07-25T09:14:32.000Z</time>
      </trkpt>
      <trkpt lat="-11.92441455088555812835693359375" lon="-76.63706797175109386444091796875">
        <ele>1022.5999755859375</ele>
        <time>2021-07-25T09:14:34.000Z</time>
      </trkpt>
      <trkpt lat="-11.92430491559207439422607421875" lon="-76.6368694044649600982666015625">
        <ele>1023.79998779296875</ele>
        <time>2021-07-25T09:14:39.000Z</time>
      </trkpt>
      <trkpt lat="-11.92428194917738437652587890625" lon="-76.63683176971971988677978515625">
        <ele>1023.79998779296875</ele>
        <time>2021-07-25T09:14:40.000Z</time>
      </trkpt>
      <trkpt lat="-11.924186311662197113037109375" lon="-76.6366581805050373077392578125">
        <ele>1024.5999755859375</ele>
        <time>2021-07-25T09:14:45.000Z</time>
      </trkpt>
      <trkpt lat="-11.924170218408107757568359375" lon="-76.636625491082668304443359375">
        <ele>1024.800048828125</ele>
        <time>2021-07-25T09:14:46.000Z</time>
      </trkpt>
      <trkpt lat="-11.92412562668323516845703125" lon="-76.636528261005878448486328125">
        <ele>1025.5999755859375</ele>
        <time>2021-07-25T09:14:49.000Z</time>
      </trkpt>
      <trkpt lat="-11.92408581264317035675048828125" lon="-76.6364627145230770111083984375">
        <ele>1026</ele>
        <time>2021-07-25T09:14:51.000Z</time>
      </trkpt>
      <trkpt lat="-11.92399964667856693267822265625" lon="-76.63632986135780811309814453125">
        <ele>1026.5999755859375</ele>
        <time>2021-07-25T09:14:55.000Z</time>
      </trkpt>
      <trkpt lat="-11.92393384873867034912109375" lon="-76.636224500834941864013671875">
        <ele>1027.199951171875</ele>
        <time>2021-07-25T09:14:58.000Z</time>
      </trkpt>
      <trkpt lat="-11.9238116405904293060302734375" lon="-76.6360513307154178619384765625">
        <ele>1028</ele>
        <time>2021-07-25T09:15:03.000Z</time>
      </trkpt>
      <trkpt lat="-11.923789680004119873046875" lon="-76.63601838983595371246337890625">
        <ele>1028.199951171875</ele>
        <time>2021-07-25T09:15:04.000Z</time>
      </trkpt>
      <trkpt lat="-11.92367576994001865386962890625" lon="-76.6358521766960620880126953125">
        <ele>1029.4000244140625</ele>
        <time>2021-07-25T09:15:09.000Z</time>
      </trkpt>
      <trkpt lat="-11.92358038388192653656005859375" lon="-76.635711193084716796875">
        <ele>1029.800048828125</ele>
        <time>2021-07-25T09:15:13.000Z</time>
      </trkpt>
      <trkpt lat="-11.92348885349929332733154296875" lon="-76.635579764842987060546875">
        <ele>1030.5999755859375</ele>
        <time>2021-07-25T09:15:17.000Z</time>
      </trkpt>
      <trkpt lat="-11.9234021008014678955078125" lon="-76.63544842042028903961181640625">
        <ele>1031.199951171875</ele>
        <time>2021-07-25T09:15:21.000Z</time>
      </trkpt>
      <trkpt lat="-11.9233617000281810760498046875" lon="-76.6353837959468364715576171875">
        <ele>1031.5999755859375</ele>
        <time>2021-07-25T09:15:23.000Z</time>
      </trkpt>
      <trkpt lat="-11.923250220715999603271484375" lon="-76.63519193418323993682861328125">
        <ele>1032.800048828125</ele>
        <time>2021-07-25T09:15:29.000Z</time>
      </trkpt>
      <trkpt lat="-11.923130191862583160400390625" lon="-76.63497132249176502227783203125">
        <ele>1033.800048828125</ele>
        <time>2021-07-25T09:15:36.000Z</time>
      </trkpt>
      <trkpt lat="-11.92309574224054813385009765625" lon="-76.63491013459861278533935546875">
        <ele>1034.199951171875</ele>
        <time>2021-07-25T09:15:38.000Z</time>
      </trkpt>
      <trkpt lat="-11.92302868701517581939697265625" lon="-76.634775102138519287109375">
        <ele>1034.800048828125</ele>
        <time>2021-07-25T09:15:42.000Z</time>
      </trkpt>
      <trkpt lat="-11.92296087741851806640625" lon="-76.63459966890513896942138671875">
        <ele>1035.5999755859375</ele>
        <time>2021-07-25T09:15:47.000Z</time>
      </trkpt>
      <trkpt lat="-11.92292173393070697784423828125" lon="-76.63450377993285655975341796875">
        <ele>1036</ele>
        <time>2021-07-25T09:15:50.000Z</time>
      </trkpt>
      <trkpt lat="-11.92286808975040912628173828125" lon="-76.63434267975389957427978515625">
        <ele>1036.800048828125</ele>
        <time>2021-07-25T09:15:55.000Z</time>
      </trkpt>
      <trkpt lat="-11.9228604622185230255126953125" lon="-76.634312756359577178955078125">
        <ele>1037.199951171875</ele>
        <time>2021-07-25T09:15:56.000Z</time>
      </trkpt>
      <trkpt lat="-11.92280354909598827362060546875" lon="-76.63410798646509647369384765625">
        <ele>1038</ele>
        <time>2021-07-25T09:16:02.000Z</time>
      </trkpt>
      <trkpt lat="-11.92278879694640636444091796875" lon="-76.63403824903070926666259765625">
        <ele>1038.4000244140625</ele>
        <time>2021-07-25T09:16:04.000Z</time>
      </trkpt>
      <trkpt lat="-11.92275828681886196136474609375" lon="-76.6338483989238739013671875">
        <ele>1039</ele>
        <time>2021-07-25T09:16:09.000Z</time>
      </trkpt>
      <trkpt lat="-11.92273381166160106658935546875" lon="-76.633732728660106658935546875">
        <ele>1039.4000244140625</ele>
        <time>2021-07-25T09:16:12.000Z</time>
      </trkpt>
      <trkpt lat="-11.92270112223923206329345703125" lon="-76.63349770009517669677734375">
        <ele>1040</ele>
        <time>2021-07-25T09:16:18.000Z</time>
      </trkpt>
      <trkpt lat="-11.92266994155943393707275390625" lon="-76.63321548141539096832275390625">
        <ele>1040.4000244140625</ele>
        <time>2021-07-25T09:16:25.000Z</time>
      </trkpt>
      <trkpt lat="-11.92266642116010189056396484375" lon="-76.6331733204424381256103515625">
        <ele>1040.4000244140625</ele>
        <time>2021-07-25T09:16:26.000Z</time>
      </trkpt>
      <trkpt lat="-11.9226551055908203125" lon="-76.632813401520252227783203125">
        <ele>1040.4000244140625</ele>
        <time>2021-07-25T09:16:34.000Z</time>
      </trkpt>
      <trkpt lat="-11.9226938299834728240966796875" lon="-76.63239841349422931671142578125">
        <ele>1040.4000244140625</ele>
        <time>2021-07-25T09:16:43.000Z</time>
      </trkpt>
      <trkpt lat="-11.92280656658113002777099609375" lon="-76.632023155689239501953125">
        <ele>1040.5999755859375</ele>
        <time>2021-07-25T09:16:51.000Z</time>
      </trkpt>
      <trkpt lat="-11.9229590333998203277587890625" lon="-76.63165460340678691864013671875">
        <ele>1040.800048828125</ele>
        <time>2021-07-25T09:16:59.000Z</time>
      </trkpt>
      <trkpt lat="-11.9230606220662593841552734375" lon="-76.6313678584992885589599609375">
        <ele>1041.199951171875</ele>
        <time>2021-07-25T09:17:06.000Z</time>
      </trkpt>
      <trkpt lat="-11.9231005199253559112548828125" lon="-76.63119292818009853363037109375">
        <ele>1041.4000244140625</ele>
        <time>2021-07-25T09:17:11.000Z</time>
      </trkpt>
      <trkpt lat="-11.92311217077076435089111328125" lon="-76.63112620823085308074951171875">
        <ele>1041.800048828125</ele>
        <time>2021-07-25T09:17:13.000Z</time>
      </trkpt>
      <trkpt lat="-11.92311569117009639739990234375" lon="-76.6307613439857959747314453125">
        <ele>1042.4000244140625</ele>
        <time>2021-07-25T09:17:22.000Z</time>
      </trkpt>
      <trkpt lat="-11.923100687563419342041015625" lon="-76.6305927000939846038818359375">
        <ele>1042.5999755859375</ele>
        <time>2021-07-25T09:17:26.000Z</time>
      </trkpt>
      <trkpt lat="-11.9230532459914684295654296875" lon="-76.63037694990634918212890625">
        <ele>1042.800048828125</ele>
        <time>2021-07-25T09:17:31.000Z</time>
      </trkpt>
      <trkpt lat="-11.92298644222319126129150390625" lon="-76.63008048199117183685302734375">
        <ele>1043.4000244140625</ele>
        <time>2021-07-25T09:17:38.000Z</time>
      </trkpt>
      <trkpt lat="-11.92295811139047145843505859375" lon="-76.62996632046997547149658203125">
        <ele>1043.800048828125</ele>
        <time>2021-07-25T09:17:41.000Z</time>
      </trkpt>
      <trkpt lat="-11.9229006953537464141845703125" lon="-76.62973397411406040191650390625">
        <ele>1044.4000244140625</ele>
        <time>2021-07-25T09:17:47.000Z</time>
      </trkpt>
      <trkpt lat="-11.92288049496710300445556640625" lon="-76.62965501658618450164794921875">
        <ele>1044.800048828125</ele>
        <time>2021-07-25T09:17:49.000Z</time>
      </trkpt>
      <trkpt lat="-11.9228366576135158538818359375" lon="-76.62946902215480804443359375">
        <ele>1045.800048828125</ele>
        <time>2021-07-25T09:17:54.000Z</time>
      </trkpt>
      <trkpt lat="-11.92282567732036113739013671875" lon="-76.6294359974563121795654296875">
        <ele>1046</ele>
        <time>2021-07-25T09:17:55.000Z</time>
      </trkpt>
      <trkpt lat="-11.9228014536201953887939453125" lon="-76.62933147512376308441162109375">
        <ele>1046.800048828125</ele>
        <time>2021-07-25T09:17:58.000Z</time>
      </trkpt>
      <trkpt lat="-11.9227690994739532470703125" lon="-76.62919267080724239349365234375">
        <ele>1047.5999755859375</ele>
        <time>2021-07-25T09:18:02.000Z</time>
      </trkpt>
      <trkpt lat="-11.9227501563727855682373046875" lon="-76.62912561558187007904052734375">
        <ele>1048</ele>
        <time>2021-07-25T09:18:04.000Z</time>
      </trkpt>
      <trkpt lat="-11.92270338535308837890625" lon="-76.62896518595516681671142578125">
        <ele>1049</ele>
        <time>2021-07-25T09:18:09.000Z</time>
      </trkpt>
      <trkpt lat="-11.9226562790572643280029296875" lon="-76.6287677921354770660400390625">
        <ele>1050.199951171875</ele>
        <time>2021-07-25T09:18:15.000Z</time>
      </trkpt>
      <trkpt lat="-11.92264043726027011871337890625" lon="-76.6286983899772167205810546875">
        <ele>1050.4000244140625</ele>
        <time>2021-07-25T09:18:17.000Z</time>
      </trkpt>
      <trkpt lat="-11.92261395044624805450439453125" lon="-76.62860090844333171844482421875">
        <ele>1051.199951171875</ele>
        <time>2021-07-25T09:18:20.000Z</time>
      </trkpt>
      <trkpt lat="-11.9225788302719593048095703125" lon="-76.6284088790416717529296875">
        <ele>1052.800048828125</ele>
        <time>2021-07-25T09:18:26.000Z</time>
      </trkpt>
      <trkpt lat="-11.92258276976644992828369140625" lon="-76.62815398536622524261474609375">
        <ele>1054</ele>
        <time>2021-07-25T09:18:34.000Z</time>
      </trkpt>
      <trkpt lat="-11.922605149447917938232421875" lon="-76.62798467092216014862060546875">
        <ele>1055.199951171875</ele>
        <time>2021-07-25T09:18:39.000Z</time>
      </trkpt>
      <trkpt lat="-11.92261822521686553955078125" lon="-76.6279233992099761962890625">
        <ele>1055.5999755859375</ele>
        <time>2021-07-25T09:18:41.000Z</time>
      </trkpt>
      <trkpt lat="-11.9226395152509212493896484375" lon="-76.62782357074320316314697265625">
        <ele>1056.4000244140625</ele>
        <time>2021-07-25T09:18:44.000Z</time>
      </trkpt>
      <trkpt lat="-11.9226432032883167266845703125" lon="-76.62765442393720149993896484375">
        <ele>1057.199951171875</ele>
        <time>2021-07-25T09:18:49.000Z</time>
      </trkpt>
      <trkpt lat="-11.92263674922287464141845703125" lon="-76.62759474478662014007568359375">
        <ele>1057.5999755859375</ele>
        <time>2021-07-25T09:18:51.000Z</time>
      </trkpt>
      <trkpt lat="-11.9225892238318920135498046875" lon="-76.6273961775004863739013671875">
        <ele>1058.800048828125</ele>
        <time>2021-07-25T09:18:57.000Z</time>
      </trkpt>
      <trkpt lat="-11.92257639952003955841064453125" lon="-76.62736373953521251678466796875">
        <ele>1058.800048828125</ele>
        <time>2021-07-25T09:18:58.000Z</time>
      </trkpt>
      <trkpt lat="-11.92245033569633960723876953125" lon="-76.627127118408679962158203125">
        <ele>1059.4000244140625</ele>
        <time>2021-07-25T09:19:05.000Z</time>
      </trkpt>
      <trkpt lat="-11.92230097018182277679443359375" lon="-76.62686434574425220489501953125">
        <ele>1059.4000244140625</ele>
        <time>2021-07-25T09:19:12.000Z</time>
      </trkpt>
      <trkpt lat="-11.92213165573775768280029296875" lon="-76.6264627687633037567138671875">
        <ele>1059.800048828125</ele>
        <time>2021-07-25T09:19:22.000Z</time>
      </trkpt>
      <trkpt lat="-11.922115646302700042724609375" lon="-76.62641893140971660614013671875">
        <ele>1059.800048828125</ele>
        <time>2021-07-25T09:19:23.000Z</time>
      </trkpt>
      <trkpt lat="-11.92198664881289005279541015625" lon="-76.626111902296543121337890625">
        <ele>1060</ele>
        <time>2021-07-25T09:19:30.000Z</time>
      </trkpt>
      <trkpt lat="-11.9218311645090579986572265625" lon="-76.62576111964881420135498046875">
        <ele>1061</ele>
        <time>2021-07-25T09:19:38.000Z</time>
      </trkpt>
      <trkpt lat="-11.92179084755480289459228515625" lon="-76.6256785579025745391845703125">
        <ele>1061.4000244140625</ele>
        <time>2021-07-25T09:19:40.000Z</time>
      </trkpt>
      <trkpt lat="-11.92170049063861370086669921875" lon="-76.6254783980548381805419921875">
        <ele>1061.800048828125</ele>
        <time>2021-07-25T09:19:46.000Z</time>
      </trkpt>
      <trkpt lat="-11.92168406210839748382568359375" lon="-76.62544042803347110748291015625">
        <ele>1062</ele>
        <time>2021-07-25T09:19:47.000Z</time>
      </trkpt>
      <trkpt lat="-11.92166469991207122802734375" lon="-76.62540589459240436553955078125">
        <ele>1062.199951171875</ele>
        <time>2021-07-25T09:19:48.000Z</time>
      </trkpt>
      <trkpt lat="-11.92159085534512996673583984375" lon="-76.625260971486568450927734375">
        <ele>1063</ele>
        <time>2021-07-25T09:19:52.000Z</time>
      </trkpt>
      <trkpt lat="-11.92154190503060817718505859375" lon="-76.6251608915627002716064453125">
        <ele>1063.5999755859375</ele>
        <time>2021-07-25T09:19:55.000Z</time>
      </trkpt>
      <trkpt lat="-11.9215143285691738128662109375" lon="-76.62509593181312084197998046875">
        <ele>1064.199951171875</ele>
        <time>2021-07-25T09:19:57.000Z</time>
      </trkpt>
      <trkpt lat="-11.92141768522560596466064453125" lon="-76.624900884926319122314453125">
        <ele>1065.4000244140625</ele>
        <time>2021-07-25T09:20:03.000Z</time>
      </trkpt>
      <trkpt lat="-11.92140058614313602447509765625" lon="-76.624866686761379241943359375">
        <ele>1065.4000244140625</ele>
        <time>2021-07-25T09:20:04.000Z</time>
      </trkpt>
      <trkpt lat="-11.92134174518287181854248046875" lon="-76.6247236914932727813720703125">
        <ele>1066.199951171875</ele>
        <time>2021-07-25T09:20:08.000Z</time>
      </trkpt>
      <trkpt lat="-11.92132565192878246307373046875" lon="-76.624688990414142608642578125">
        <ele>1066.800048828125</ele>
        <time>2021-07-25T09:20:09.000Z</time>
      </trkpt>
      <trkpt lat="-11.92126899026334285736083984375" lon="-76.62458513863384723663330078125">
        <ele>1067</ele>
        <time>2021-07-25T09:20:12.000Z</time>
      </trkpt>
      <trkpt lat="-11.92116086371243000030517578125" lon="-76.6243790276348590850830078125">
        <ele>1067.800048828125</ele>
        <time>2021-07-25T09:20:18.000Z</time>
      </trkpt>
      <trkpt lat="-11.92114309407770633697509765625" lon="-76.62434491328895092010498046875">
        <ele>1068</ele>
        <time>2021-07-25T09:20:19.000Z</time>
      </trkpt>
      <trkpt lat="-11.92105072550475597381591796875" lon="-76.6241678036749362945556640625">
        <ele>1069</ele>
        <time>2021-07-25T09:20:24.000Z</time>
      </trkpt>
      <trkpt lat="-11.92099548876285552978515625" lon="-76.6240596771240234375">
        <ele>1069.4000244140625</ele>
        <time>2021-07-25T09:20:27.000Z</time>
      </trkpt>
      <trkpt lat="-11.92089800722897052764892578125" lon="-76.62387569434940814971923828125">
        <ele>1070</ele>
        <time>2021-07-25T09:20:32.000Z</time>
      </trkpt>
      <trkpt lat="-11.92081754095852375030517578125" lon="-76.6237215511500835418701171875">
        <ele>1070.800048828125</ele>
        <time>2021-07-25T09:20:36.000Z</time>
      </trkpt>
      <trkpt lat="-11.92073238082230091094970703125" lon="-76.6235257498919963836669921875">
        <ele>1071</ele>
        <time>2021-07-25T09:20:41.000Z</time>
      </trkpt>
      <trkpt lat="-11.92069583572447299957275390625" lon="-76.62344922311604022979736328125">
        <ele>1071.199951171875</ele>
        <time>2021-07-25T09:20:43.000Z</time>
      </trkpt>
      <trkpt lat="-11.9205648265779018402099609375" lon="-76.62317681126296520233154296875">
        <ele>1072</ele>
        <time>2021-07-25T09:20:50.000Z</time>
      </trkpt>
      <trkpt lat="-11.92054579965770244598388671875" lon="-76.6231388412415981292724609375">
        <ele>1072</ele>
        <time>2021-07-25T09:20:51.000Z</time>
      </trkpt>
      <trkpt lat="-11.92040313966572284698486328125" lon="-76.62283767946064472198486328125">
        <ele>1072.4000244140625</ele>
        <time>2021-07-25T09:20:58.000Z</time>
      </trkpt>
      <trkpt lat="-11.9201919995248317718505859375" lon="-76.62240182049572467803955078125">
        <ele>1073</ele>
        <time>2021-07-25T09:21:08.000Z</time>
      </trkpt>
      <trkpt lat="-11.920171044766902923583984375" lon="-76.62235940806567668914794921875">
        <ele>1073</ele>
        <time>2021-07-25T09:21:09.000Z</time>
      </trkpt>
      <trkpt lat="-11.91998639144003391265869140625" lon="-76.621983982622623443603515625">
        <ele>1073.5999755859375</ele>
        <time>2021-07-25T09:21:18.000Z</time>
      </trkpt>
      <trkpt lat="-11.9199071824550628662109375" lon="-76.62181676365435123443603515625">
        <ele>1074</ele>
        <time>2021-07-25T09:21:22.000Z</time>
      </trkpt>
      <trkpt lat="-11.91981799900531768798828125" lon="-76.62162666209042072296142578125">
        <ele>1074.5999755859375</ele>
        <time>2021-07-25T09:21:27.000Z</time>
      </trkpt>
      <trkpt lat="-11.919766031205654144287109375" lon="-76.6215130873024463653564453125">
        <ele>1075.199951171875</ele>
        <time>2021-07-25T09:21:30.000Z</time>
      </trkpt>
      <trkpt lat="-11.91968925297260284423828125" lon="-76.62137051112949848175048828125">
        <ele>1076.4000244140625</ele>
        <time>2021-07-25T09:21:34.000Z</time>
      </trkpt>
      <trkpt lat="-11.91967374645173549652099609375" lon="-76.62133564241230487823486328125">
        <ele>1076.4000244140625</ele>
        <time>2021-07-25T09:21:35.000Z</time>
      </trkpt>
      <trkpt lat="-11.91959965042769908905029296875" lon="-76.62120806984603404998779296875">
        <ele>1077.4000244140625</ele>
        <time>2021-07-25T09:21:39.000Z</time>
      </trkpt>
      <trkpt lat="-11.91951356828212738037109375" lon="-76.62108971737325191497802734375">
        <ele>1078.199951171875</ele>
        <time>2021-07-25T09:21:43.000Z</time>
      </trkpt>
      <trkpt lat="-11.91948833875358104705810546875" lon="-76.62106163799762725830078125">
        <ele>1078.4000244140625</ele>
        <time>2021-07-25T09:21:44.000Z</time>
      </trkpt>
      <trkpt lat="-11.9193692319095134735107421875" lon="-76.62093448452651500701904296875">
        <ele>1079.5999755859375</ele>
        <time>2021-07-25T09:21:49.000Z</time>
      </trkpt>
      <trkpt lat="-11.91932371817529201507568359375" lon="-76.62088335491716861724853515625">
        <ele>1080</ele>
        <time>2021-07-25T09:21:51.000Z</time>
      </trkpt>
      <trkpt lat="-11.91923185251653194427490234375" lon="-76.62076768465340137481689453125">
        <ele>1080.5999755859375</ele>
        <time>2021-07-25T09:21:55.000Z</time>
      </trkpt>
      <trkpt lat="-11.919149123132228851318359375" lon="-76.62065251730382442474365234375">
        <ele>1081.5999755859375</ele>
        <time>2021-07-25T09:21:59.000Z</time>
      </trkpt>
      <trkpt lat="-11.9191271625459194183349609375" lon="-76.6206219233572483062744140625">
        <ele>1081.800048828125</ele>
        <time>2021-07-25T09:22:00.000Z</time>
      </trkpt>
      <trkpt lat="-11.91900084726512432098388671875" lon="-76.62042729556560516357421875">
        <ele>1082.5999755859375</ele>
        <time>2021-07-25T09:22:06.000Z</time>
      </trkpt>
      <trkpt lat="-11.918978802859783172607421875" lon="-76.6203952766954898834228515625">
        <ele>1082.800048828125</ele>
        <time>2021-07-25T09:22:07.000Z</time>
      </trkpt>
      <trkpt lat="-11.91879180260002613067626953125" lon="-76.62011356092989444732666015625">
        <ele>1083.199951171875</ele>
        <time>2021-07-25T09:22:15.000Z</time>
      </trkpt>
      <trkpt lat="-11.9187456183135509490966796875" lon="-76.62004482932388782501220703125">
        <ele>1083.800048828125</ele>
        <time>2021-07-25T09:22:17.000Z</time>
      </trkpt>
      <trkpt lat="-11.91860689781606197357177734375" lon="-76.61983611993491649627685546875">
        <ele>1084</ele>
        <time>2021-07-25T09:22:23.000Z</time>
      </trkpt>
      <trkpt lat="-11.91846641711890697479248046875" lon="-76.61962405778467655181884765625">
        <ele>1085</ele>
        <time>2021-07-25T09:22:29.000Z</time>
      </trkpt>
      <trkpt lat="-11.91841729916632175445556640625" lon="-76.61955717019736766815185546875">
        <ele>1085</ele>
        <time>2021-07-25T09:22:31.000Z</time>
      </trkpt>
      <trkpt lat="-11.91821143962442874908447265625" lon="-76.61931149661540985107421875">
        <ele>1085.4000244140625</ele>
        <time>2021-07-25T09:22:38.000Z</time>
      </trkpt>
      <trkpt lat="-11.91790885291993618011474609375" lon="-76.61900782026350498199462890625">
        <ele>1084.4000244140625</ele>
        <time>2021-07-25T09:22:46.000Z</time>
      </trkpt>
      <trkpt lat="-11.917618252336978912353515625" lon="-76.618666760623455047607421875">
        <ele>1084</ele>
        <time>2021-07-25T09:22:54.000Z</time>
      </trkpt>
      <trkpt lat="-11.9175791926681995391845703125" lon="-76.61861940287053585052490234375">
        <ele>1083.5999755859375</ele>
        <time>2021-07-25T09:22:55.000Z</time>
      </trkpt>
      <trkpt lat="-11.9173429906368255615234375" lon="-76.6182977892458438873291015625">
        <ele>1083.800048828125</ele>
        <time>2021-07-25T09:23:02.000Z</time>
      </trkpt>
      <trkpt lat="-11.91715397872030735015869140625" lon="-76.6180081106722354888916015625">
        <ele>1084.5999755859375</ele>
        <time>2021-07-25T09:23:09.000Z</time>
      </trkpt>
      <trkpt lat="-11.91712698899209499359130859375" lon="-76.61796829663217067718505859375">
        <ele>1084.5999755859375</ele>
        <time>2021-07-25T09:23:10.000Z</time>
      </trkpt>
      <trkpt lat="-11.91701265983283519744873046875" lon="-76.61780401133000850677490234375">
        <ele>1085.199951171875</ele>
        <time>2021-07-25T09:23:15.000Z</time>
      </trkpt>
      <trkpt lat="-11.91693319939076900482177734375" lon="-76.61767057143151760101318359375">
        <ele>1085.800048828125</ele>
        <time>2021-07-25T09:23:19.000Z</time>
      </trkpt>
      <trkpt lat="-11.9168150983750820159912109375" lon="-76.61750502884387969970703125">
        <ele>1086.5999755859375</ele>
        <time>2021-07-25T09:23:25.000Z</time>
      </trkpt>
      <trkpt lat="-11.91679439507424831390380859375" lon="-76.617483235895633697509765625">
        <ele>1086.800048828125</ele>
        <time>2021-07-25T09:23:26.000Z</time>
      </trkpt>
      <trkpt lat="-11.91669079475104808807373046875" lon="-76.617333702743053436279296875">
        <ele>1087.199951171875</ele>
        <time>2021-07-25T09:23:31.000Z</time>
      </trkpt>
      <trkpt lat="-11.91650840453803539276123046875" lon="-76.61710194312036037445068359375">
        <ele>1087.199951171875</ele>
        <time>2021-07-25T09:23:38.000Z</time>
      </trkpt>
      <trkpt lat="-11.91627345979213714599609375" lon="-76.61681301891803741455078125">
        <ele>1086</ele>
        <time>2021-07-25T09:23:45.000Z</time>
      </trkpt>
      <trkpt lat="-11.91623666323721408843994140625" lon="-76.616767086088657379150390625">
        <ele>1085.800048828125</ele>
        <time>2021-07-25T09:23:46.000Z</time>
      </trkpt>
      <trkpt lat="-11.91608645953238010406494140625" lon="-76.616574637591838836669921875">
        <ele>1085</ele>
        <time>2021-07-25T09:23:50.000Z</time>
      </trkpt>
      <trkpt lat="-11.91598101519048213958740234375" lon="-76.61643994040787220001220703125">
        <ele>1084.5999755859375</ele>
        <time>2021-07-25T09:23:53.000Z</time>
      </trkpt>
      <trkpt lat="-11.91574464552104473114013671875" lon="-76.6161359287798404693603515625">
        <ele>1085</ele>
        <time>2021-07-25T09:24:01.000Z</time>
      </trkpt>
      <trkpt lat="-11.915549598634243011474609375" lon="-76.6158781014382839202880859375">
        <ele>1085.5999755859375</ele>
        <time>2021-07-25T09:24:08.000Z</time>
      </trkpt>
      <trkpt lat="-11.91552654840052127838134765625" lon="-76.61584608256816864013671875">
        <ele>1085.800048828125</ele>
        <time>2021-07-25T09:24:09.000Z</time>
      </trkpt>
      <trkpt lat="-11.91537215374410152435302734375" lon="-76.61564600653946399688720703125">
        <ele>1086.5999755859375</ele>
        <time>2021-07-25T09:24:15.000Z</time>
      </trkpt>
      <trkpt lat="-11.915326975286006927490234375" lon="-76.615581549704074859619140625">
        <ele>1087.199951171875</ele>
        <time>2021-07-25T09:24:17.000Z</time>
      </trkpt>
      <trkpt lat="-11.9152416475117206573486328125" lon="-76.61546529270708560943603515625">
        <ele>1087.800048828125</ele>
        <time>2021-07-25T09:24:21.000Z</time>
      </trkpt>
      <trkpt lat="-11.91512103192508220672607421875" lon="-76.61531207151710987091064453125">
        <ele>1088.800048828125</ele>
        <time>2021-07-25T09:24:26.000Z</time>
      </trkpt>
      <trkpt lat="-11.9149905256927013397216796875" lon="-76.61514409817755222320556640625">
        <ele>1090</ele>
        <time>2021-07-25T09:24:32.000Z</time>
      </trkpt>
      <trkpt lat="-11.91496697254478931427001953125" lon="-76.6151160188019275665283203125">
        <ele>1090.199951171875</ele>
        <time>2021-07-25T09:24:33.000Z</time>
      </trkpt>
      <trkpt lat="-11.91485331393778324127197265625" lon="-76.61497293971478939056396484375">
        <ele>1091.199951171875</ele>
        <time>2021-07-25T09:24:38.000Z</time>
      </trkpt>
      <trkpt lat="-11.914791204035282135009765625" lon="-76.6148897074162960052490234375">
        <ele>1091.5999755859375</ele>
        <time>2021-07-25T09:24:41.000Z</time>
      </trkpt>
      <trkpt lat="-11.91471015103161334991455078125" lon="-76.6147743724286556243896484375">
        <ele>1092.4000244140625</ele>
        <time>2021-07-25T09:24:45.000Z</time>
      </trkpt>
      <trkpt lat="-11.914611160755157470703125" lon="-76.61465585231781005859375">
        <ele>1093.4000244140625</ele>
        <time>2021-07-25T09:24:49.000Z</time>
      </trkpt>
      <trkpt lat="-11.91456380300223827362060546875" lon="-76.6145973466336727142333984375">
        <ele>1093.4000244140625</ele>
        <time>2021-07-25T09:24:51.000Z</time>
      </trkpt>
      <trkpt lat="-11.9144453667104244232177734375" lon="-76.6144525073468685150146484375">
        <ele>1094.4000244140625</ele>
        <time>2021-07-25T09:24:56.000Z</time>
      </trkpt>
      <trkpt lat="-11.914368756115436553955078125" lon="-76.61435686983168125152587890625">
        <ele>1095.199951171875</ele>
        <time>2021-07-25T09:24:59.000Z</time>
      </trkpt>
      <trkpt lat="-11.91432240419089794158935546875" lon="-76.614296771585941314697265625">
        <ele>1095.4000244140625</ele>
        <time>2021-07-25T09:25:01.000Z</time>
      </trkpt>
      <trkpt lat="-11.9141888804733753204345703125" lon="-76.6141207516193389892578125">
        <ele>1096.5999755859375</ele>
        <time>2021-07-25T09:25:07.000Z</time>
      </trkpt>
      <trkpt lat="-11.9141194783151149749755859375" lon="-76.61402762867510318756103515625">
        <ele>1097.4000244140625</ele>
        <time>2021-07-25T09:25:10.000Z</time>
      </trkpt>
      <trkpt lat="-11.9140765629708766937255859375" lon="-76.61396979354321956634521484375">
        <ele>1097.5999755859375</ele>
        <time>2021-07-25T09:25:12.000Z</time>
      </trkpt>
      <trkpt lat="-11.91389844752848148345947265625" lon="-76.613779775798320770263671875">
        <ele>1098.800048828125</ele>
        <time>2021-07-25T09:25:19.000Z</time>
      </trkpt>
      <trkpt lat="-11.91380976699292659759521484375" lon="-76.6136701405048370361328125">
        <ele>1099.5999755859375</ele>
        <time>2021-07-25T09:25:23.000Z</time>
      </trkpt>
      <trkpt lat="-11.9137704558670520782470703125" lon="-76.61361557431519031524658203125">
        <ele>1100</ele>
        <time>2021-07-25T09:25:25.000Z</time>
      </trkpt>
      <trkpt lat="-11.91367699764668941497802734375" lon="-76.6134260594844818115234375">
        <ele>1101</ele>
        <time>2021-07-25T09:25:31.000Z</time>
      </trkpt>
      <trkpt lat="-11.91363416612148284912109375" lon="-76.61321483552455902099609375">
        <ele>1102</ele>
        <time>2021-07-25T09:25:37.000Z</time>
      </trkpt>
      <trkpt lat="-11.91363014280796051025390625" lon="-76.613179631531238555908203125">
        <ele>1102.199951171875</ele>
        <time>2021-07-25T09:25:38.000Z</time>
      </trkpt>
      <trkpt lat="-11.91361564211547374725341796875" lon="-76.61297486163675785064697265625">
        <ele>1103.199951171875</ele>
        <time>2021-07-25T09:25:44.000Z</time>
      </trkpt>
      <trkpt lat="-11.913623102009296417236328125" lon="-76.61290596239268779754638671875">
        <ele>1103.4000244140625</ele>
        <time>2021-07-25T09:25:46.000Z</time>
      </trkpt>
      <trkpt lat="-11.91366811282932758331298828125" lon="-76.61264955997467041015625">
        <ele>1104</ele>
        <time>2021-07-25T09:25:53.000Z</time>
      </trkpt>
      <trkpt lat="-11.91372997127473354339599609375" lon="-76.612395085394382476806640625">
        <ele>1103.800048828125</ele>
        <time>2021-07-25T09:25:59.000Z</time>
      </trkpt>
      <trkpt lat="-11.91377229988574981689453125" lon="-76.61226290278136730194091796875">
        <ele>1104.199951171875</ele>
        <time>2021-07-25T09:26:02.000Z</time>
      </trkpt>
      <trkpt lat="-11.9137909077107906341552734375" lon="-76.6122235916554927825927734375">
        <ele>1104.4000244140625</ele>
        <time>2021-07-25T09:26:03.000Z</time>
      </trkpt>
      <trkpt lat="-11.91386441700160503387451171875" lon="-76.6120688617229461669921875">
        <ele>1104.199951171875</ele>
        <time>2021-07-25T09:26:07.000Z</time>
      </trkpt>
      <trkpt lat="-11.91403607837855815887451171875" lon="-76.6117072664201259613037109375">
        <ele>1104.4000244140625</ele>
        <time>2021-07-25T09:26:16.000Z</time>
      </trkpt>
      <trkpt lat="-11.9142069853842258453369140625" lon="-76.61130686290562152862548828125">
        <ele>1104.800048828125</ele>
        <time>2021-07-25T09:26:26.000Z</time>
      </trkpt>
      <trkpt lat="-11.91426071338355541229248046875" lon="-76.61115783266723155975341796875">
        <ele>1105.199951171875</ele>
        <time>2021-07-25T09:26:30.000Z</time>
      </trkpt>
      <trkpt lat="-11.914311759173870086669921875" lon="-76.61100159399211406707763671875">
        <ele>1106</ele>
        <time>2021-07-25T09:26:34.000Z</time>
      </trkpt>
      <trkpt lat="-11.9143716059625148773193359375" lon="-76.61080813966691493988037109375">
        <ele>1106.199951171875</ele>
        <time>2021-07-25T09:26:39.000Z</time>
      </trkpt>
      <trkpt lat="-11.914406977593898773193359375" lon="-76.6106994263827800750732421875">
        <ele>1106.5999755859375</ele>
        <time>2021-07-25T09:26:42.000Z</time>
      </trkpt>
      <trkpt lat="-11.9144772179424762725830078125" lon="-76.61048409529030323028564453125">
        <ele>1107.199951171875</ele>
        <time>2021-07-25T09:26:48.000Z</time>
      </trkpt>
      <trkpt lat="-11.91449088044464588165283203125" lon="-76.6104462929069995880126953125">
        <ele>1107.4000244140625</ele>
        <time>2021-07-25T09:26:49.000Z</time>
      </trkpt>
      <trkpt lat="-11.9145395793020725250244140625" lon="-76.610222160816192626953125">
        <ele>1108.199951171875</ele>
        <time>2021-07-25T09:26:55.000Z</time>
      </trkpt>
      <trkpt lat="-11.91454745829105377197265625" lon="-76.61010749638080596923828125">
        <ele>1108.5999755859375</ele>
        <time>2021-07-25T09:26:58.000Z</time>
      </trkpt>
      <trkpt lat="-11.91454217769205570220947265625" lon="-76.60994916222989559173583984375">
        <ele>1109</ele>
        <time>2021-07-25T09:27:02.000Z</time>
      </trkpt>
      <trkpt lat="-11.91450814716517925262451171875" lon="-76.60972083918750286102294921875">
        <ele>1109.5999755859375</ele>
        <time>2021-07-25T09:27:08.000Z</time>
      </trkpt>
      <trkpt lat="-11.9145060516893863677978515625" lon="-76.60968412645161151885986328125">
        <ele>1109.800048828125</ele>
        <time>2021-07-25T09:27:09.000Z</time>
      </trkpt>
      <trkpt lat="-11.9144762121140956878662109375" lon="-76.6094679571688175201416015625">
        <ele>1110.4000244140625</ele>
        <time>2021-07-25T09:27:15.000Z</time>
      </trkpt>
      <trkpt lat="-11.91443740390241146087646484375" lon="-76.60924541763961315155029296875">
        <ele>1111</ele>
        <time>2021-07-25T09:27:21.000Z</time>
      </trkpt>
      <trkpt lat="-11.91443287767469882965087890625" lon="-76.60921155475080013275146484375">
        <ele>1111</ele>
        <time>2021-07-25T09:27:22.000Z</time>
      </trkpt>
      <trkpt lat="-11.914391219615936279296875" lon="-76.608977615833282470703125">
        <ele>1111.800048828125</ele>
        <time>2021-07-25T09:27:29.000Z</time>
      </trkpt>
      <trkpt lat="-11.914378143846988677978515625" lon="-76.60890863277018070220947265625">
        <ele>1112</ele>
        <time>2021-07-25T09:27:31.000Z</time>
      </trkpt>
      <trkpt lat="-11.91435760818421840667724609375" lon="-76.6086813993752002716064453125">
        <ele>1113</ele>
        <time>2021-07-25T09:27:37.000Z</time>
      </trkpt>
      <trkpt lat="-11.914322488009929656982421875" lon="-76.608396582305431365966796875">
        <ele>1114.199951171875</ele>
        <time>2021-07-25T09:27:45.000Z</time>
      </trkpt>
      <trkpt lat="-11.91423892043530941009521484375" lon="-76.60815224982798099517822265625">
        <ele>1115</ele>
        <time>2021-07-25T09:27:52.000Z</time>
      </trkpt>
      <trkpt lat="-11.9142271019518375396728515625" lon="-76.608113609254360198974609375">
        <ele>1115.199951171875</ele>
        <time>2021-07-25T09:27:53.000Z</time>
      </trkpt>
      <trkpt lat="-11.91414755769073963165283203125" lon="-76.60786273889243602752685546875">
        <ele>1116</ele>
        <time>2021-07-25T09:28:00.000Z</time>
      </trkpt>
      <trkpt lat="-11.91411294043064117431640625" lon="-76.60775117576122283935546875">
        <ele>1116.4000244140625</ele>
        <time>2021-07-25T09:28:03.000Z</time>
      </trkpt>
      <trkpt lat="-11.91406155936419963836669921875" lon="-76.6076262854039669036865234375">
        <ele>1117</ele>
        <time>2021-07-25T09:28:07.000Z</time>
      </trkpt>
      <trkpt lat="-11.91401747055351734161376953125" lon="-76.6074921749532222747802734375">
        <ele>1117.5999755859375</ele>
        <time>2021-07-25T09:28:11.000Z</time>
      </trkpt>
      <trkpt lat="-11.91397991962730884552001953125" lon="-76.60739050246775150299072265625">
        <ele>1118</ele>
        <time>2021-07-25T09:28:14.000Z</time>
      </trkpt>
      <trkpt lat="-11.9139370881021022796630859375" lon="-76.6072628460824489593505859375">
        <ele>1118.5999755859375</ele>
        <time>2021-07-25T09:28:18.000Z</time>
      </trkpt>
      <trkpt lat="-11.9139025546610355377197265625" lon="-76.60716913640499114990234375">
        <ele>1119.4000244140625</ele>
        <time>2021-07-25T09:28:21.000Z</time>
      </trkpt>
      <trkpt lat="-11.9138804264366626739501953125" lon="-76.6070988960564136505126953125">
        <ele>1119.5999755859375</ele>
        <time>2021-07-25T09:28:23.000Z</time>
      </trkpt>
      <trkpt lat="-11.91382083110511302947998046875" lon="-76.60692765377461910247802734375">
        <ele>1120.4000244140625</ele>
        <time>2021-07-25T09:28:28.000Z</time>
      </trkpt>
      <trkpt lat="-11.9137962721288204193115234375" lon="-76.606814078986644744873046875">
        <ele>1120.800048828125</ele>
        <time>2021-07-25T09:28:31.000Z</time>
      </trkpt>
      <trkpt lat="-11.91375612281262874603271484375" lon="-76.606679297983646392822265625">
        <ele>1121.5999755859375</ele>
        <time>2021-07-25T09:28:35.000Z</time>
      </trkpt>
      <trkpt lat="-11.91373416222631931304931640625" lon="-76.606614589691162109375">
        <ele>1122</ele>
        <time>2021-07-25T09:28:37.000Z</time>
      </trkpt>
      <trkpt lat="-11.91367574036121368408203125" lon="-76.6064444370567798614501953125">
        <ele>1122.800048828125</ele>
        <time>2021-07-25T09:28:42.000Z</time>
      </trkpt>
      <trkpt lat="-11.91365101374685764312744140625" lon="-76.60637746565043926239013671875">
        <ele>1123</ele>
        <time>2021-07-25T09:28:44.000Z</time>
      </trkpt>
      <trkpt lat="-11.913570463657379150390625" lon="-76.6061772219836711883544921875">
        <ele>1124.199951171875</ele>
        <time>2021-07-25T09:28:50.000Z</time>
      </trkpt>
      <trkpt lat="-11.91355747170746326446533203125" lon="-76.606145538389682769775390625">
        <ele>1124.4000244140625</ele>
        <time>2021-07-25T09:28:51.000Z</time>
      </trkpt>
      <trkpt lat="-11.913444735109806060791015625" lon="-76.605922244489192962646484375">
        <ele>1125.4000244140625</ele>
        <time>2021-07-25T09:28:58.000Z</time>
      </trkpt>
      <trkpt lat="-11.91341564990580081939697265625" lon="-76.60585879348218441009521484375">
        <ele>1125.4000244140625</ele>
        <time>2021-07-25T09:29:00.000Z</time>
      </trkpt>
      <trkpt lat="-11.91331389360129833221435546875" lon="-76.60564254038035869598388671875">
        <ele>1126.4000244140625</ele>
        <time>2021-07-25T09:29:07.000Z</time>
      </trkpt>
      <trkpt lat="-11.91329947672784328460693359375" lon="-76.6056102700531482696533203125">
        <ele>1126.800048828125</ele>
        <time>2021-07-25T09:29:08.000Z</time>
      </trkpt>
      <trkpt lat="-11.913264691829681396484375" lon="-76.6054758243262767791748046875">
        <ele>1127.4000244140625</ele>
        <time>2021-07-25T09:29:12.000Z</time>
      </trkpt>
      <trkpt lat="-11.91324616782367229461669921875" lon="-76.6053755767643451690673828125">
        <ele>1127.800048828125</ele>
        <time>2021-07-25T09:29:15.000Z</time>
      </trkpt>
      <trkpt lat="-11.91322571597993373870849609375" lon="-76.605239622294902801513671875">
        <ele>1128.4000244140625</ele>
        <time>2021-07-25T09:29:19.000Z</time>
      </trkpt>
      <trkpt lat="-11.9132165797054767608642578125" lon="-76.60509352572262287139892578125">
        <ele>1129</ele>
        <time>2021-07-25T09:29:23.000Z</time>
      </trkpt>
      <trkpt lat="-11.913193948566913604736328125" lon="-76.60494281910359859466552734375">
        <ele>1129.5999755859375</ele>
        <time>2021-07-25T09:29:27.000Z</time>
      </trkpt>
      <trkpt lat="-11.91318581812083721160888671875" lon="-76.60487257875502109527587890625">
        <ele>1130</ele>
        <time>2021-07-25T09:29:29.000Z</time>
      </trkpt>
      <trkpt lat="-11.9131615944206714630126953125" lon="-76.60473377443850040435791015625">
        <ele>1130.5999755859375</ele>
        <time>2021-07-25T09:29:33.000Z</time>
      </trkpt>
      <trkpt lat="-11.91314558498561382293701171875" lon="-76.60459346137940883636474609375">
        <ele>1131.199951171875</ele>
        <time>2021-07-25T09:29:37.000Z</time>
      </trkpt>
      <trkpt lat="-11.91312580369412899017333984375" lon="-76.604486592113971710205078125">
        <ele>1131.5999755859375</ele>
        <time>2021-07-25T09:29:40.000Z</time>
      </trkpt>
      <trkpt lat="-11.913092024624347686767578125" lon="-76.6042809002101421356201171875">
        <ele>1132.5999755859375</ele>
        <time>2021-07-25T09:29:46.000Z</time>
      </trkpt>
      <trkpt lat="-11.91307366825640201568603515625" lon="-76.60421594046056270599365234375">
        <ele>1132.800048828125</ele>
        <time>2021-07-25T09:29:48.000Z</time>
      </trkpt>
      <trkpt lat="-11.91303695552051067352294921875" lon="-76.6040452010929584503173828125">
        <ele>1133.4000244140625</ele>
        <time>2021-07-25T09:29:53.000Z</time>
      </trkpt>
      <trkpt lat="-11.91301784478127956390380859375" lon="-76.603935398161411285400390625">
        <ele>1133.800048828125</ele>
        <time>2021-07-25T09:29:56.000Z</time>
      </trkpt>
      <trkpt lat="-11.91297023557126522064208984375" lon="-76.60370565019547939300537109375">
        <ele>1134.800048828125</ele>
        <time>2021-07-25T09:30:02.000Z</time>
      </trkpt>
      <trkpt lat="-11.9129634462296962738037109375" lon="-76.60366474650800228118896484375">
        <ele>1134.800048828125</ele>
        <time>2021-07-25T09:30:03.000Z</time>
      </trkpt>
      <trkpt lat="-11.91292740404605865478515625" lon="-76.6034363396465778350830078125">
        <ele>1135.800048828125</ele>
        <time>2021-07-25T09:30:09.000Z</time>
      </trkpt>
      <trkpt lat="-11.9129200279712677001953125" lon="-76.60339987836778163909912109375">
        <ele>1136</ele>
        <time>2021-07-25T09:30:10.000Z</time>
      </trkpt>
      <trkpt lat="-11.91285858862102031707763671875" lon="-76.60312176682054996490478515625">
        <ele>1137</ele>
        <time>2021-07-25T09:30:18.000Z</time>
      </trkpt>
      <trkpt lat="-11.91283981315791606903076171875" lon="-76.60305320285260677337646484375">
        <ele>1137.199951171875</ele>
        <time>2021-07-25T09:30:20.000Z</time>
      </trkpt>
      <trkpt lat="-11.91279555670917034149169921875" lon="-76.60287466831505298614501953125">
        <ele>1138.199951171875</ele>
        <time>2021-07-25T09:30:25.000Z</time>
      </trkpt>
      <trkpt lat="-11.9127606041729450225830078125" lon="-76.6027393005788326263427734375">
        <ele>1138.5999755859375</ele>
        <time>2021-07-25T09:30:29.000Z</time>
      </trkpt>
      <trkpt lat="-11.912718527019023895263671875" lon="-76.602567471563816070556640625">
        <ele>1139.199951171875</ele>
        <time>2021-07-25T09:30:34.000Z</time>
      </trkpt>
      <trkpt lat="-11.91269002854824066162109375" lon="-76.602417938411235809326171875">
        <ele>1140</ele>
        <time>2021-07-25T09:30:38.000Z</time>
      </trkpt>
      <trkpt lat="-11.9126680679619312286376953125" lon="-76.60231006331741809844970703125">
        <ele>1140.4000244140625</ele>
        <time>2021-07-25T09:30:41.000Z</time>
      </trkpt>
      <trkpt lat="-11.9126134179532527923583984375" lon="-76.6021505557000637054443359375">
        <ele>1141.4000244140625</ele>
        <time>2021-07-25T09:30:46.000Z</time>
      </trkpt>
      <trkpt lat="-11.91260394640266895294189453125" lon="-76.6021203808486461639404296875">
        <ele>1141.5999755859375</ele>
        <time>2021-07-25T09:30:47.000Z</time>
      </trkpt>
      <trkpt lat="-11.91254728473722934722900390625" lon="-76.601955592632293701171875">
        <ele>1142.199951171875</ele>
        <time>2021-07-25T09:30:53.000Z</time>
      </trkpt>
      <trkpt lat="-11.91252448596060276031494140625" lon="-76.60189616493880748748779296875">
        <ele>1142.800048828125</ele>
        <time>2021-07-25T09:30:55.000Z</time>
      </trkpt>
      <trkpt lat="-11.91248408518731594085693359375" lon="-76.6017820872366428375244140625">
        <ele>1143.4000244140625</ele>
        <time>2021-07-25T09:30:59.000Z</time>
      </trkpt>
      <trkpt lat="-11.912451647222042083740234375" lon="-76.60158486105501651763916015625">
        <ele>1144</ele>
        <time>2021-07-25T09:31:04.000Z</time>
      </trkpt>
      <trkpt lat="-11.91244100220501422882080078125" lon="-76.6014065779745578765869140625">
        <ele>1144.4000244140625</ele>
        <time>2021-07-25T09:31:08.000Z</time>
      </trkpt>
      <trkpt lat="-11.91243580542504787445068359375" lon="-76.60132586024701595306396484375">
        <ele>1145</ele>
        <time>2021-07-25T09:31:10.000Z</time>
      </trkpt>
      <trkpt lat="-11.91239406354725360870361328125" lon="-76.601007096469402313232421875">
        <ele>1146</ele>
        <time>2021-07-25T09:31:18.000Z</time>
      </trkpt>
      <trkpt lat="-11.9123472087085247039794921875" lon="-76.600752957165241241455078125">
        <ele>1147</ele>
        <time>2021-07-25T09:31:25.000Z</time>
      </trkpt>
      <trkpt lat="-11.91230739466845989227294921875" lon="-76.60051935352385044097900390625">
        <ele>1148.199951171875</ele>
        <time>2021-07-25T09:31:32.000Z</time>
      </trkpt>
      <trkpt lat="-11.91230303607881069183349609375" lon="-76.6004885919392108917236328125">
        <ele>1148.199951171875</ele>
        <time>2021-07-25T09:31:33.000Z</time>
      </trkpt>
      <trkpt lat="-11.91225685179233551025390625" lon="-76.600297987461090087890625">
        <ele>1149.199951171875</ele>
        <time>2021-07-25T09:31:39.000Z</time>
      </trkpt>
      <trkpt lat="-11.91224570386111736297607421875" lon="-76.60023294389247894287109375">
        <ele>1149.4000244140625</ele>
        <time>2021-07-25T09:31:41.000Z</time>
      </trkpt>
      <trkpt lat="-11.91220563836395740509033203125" lon="-76.60002163611352443695068359375">
        <ele>1150.4000244140625</ele>
        <time>2021-07-25T09:31:47.000Z</time>
      </trkpt>
      <trkpt lat="-11.91220027394592761993408203125" lon="-76.59998861141502857208251953125">
        <ele>1150.5999755859375</ele>
        <time>2021-07-25T09:31:48.000Z</time>
      </trkpt>
      <trkpt lat="-11.9121587835252285003662109375" lon="-76.599777303636074066162109375">
        <ele>1151.4000244140625</ele>
        <time>2021-07-25T09:31:54.000Z</time>
      </trkpt>
      <trkpt lat="-11.91214554011821746826171875" lon="-76.5997172892093658447265625">
        <ele>1151.800048828125</ele>
        <time>2021-07-25T09:31:56.000Z</time>
      </trkpt>
      <trkpt lat="-11.91209214739501476287841796875" lon="-76.5996477194130420684814453125">
        <ele>1152.4000244140625</ele>
        <time>2021-07-25T09:31:59.000Z</time>
      </trkpt>
      <trkpt lat="-11.91200832836329936981201171875" lon="-76.59951419569551944732666015625">
        <ele>1153</ele>
        <time>2021-07-25T09:32:04.000Z</time>
      </trkpt>
      <trkpt lat="-11.91191612742841243743896484375" lon="-76.59935963340103626251220703125">
        <ele>1153.4000244140625</ele>
        <time>2021-07-25T09:32:09.000Z</time>
      </trkpt>
      <trkpt lat="-11.9118711166083812713623046875" lon="-76.59930062480270862579345703125">
        <ele>1153.800048828125</ele>
        <time>2021-07-25T09:32:11.000Z</time>
      </trkpt>
      <trkpt lat="-11.9116766564548015594482421875" lon="-76.5990700386464595794677734375">
        <ele>1154.4000244140625</ele>
        <time>2021-07-25T09:32:19.000Z</time>
      </trkpt>
      <trkpt lat="-11.91164656542241573333740234375" lon="-76.59904212690889835357666015625">
        <ele>1154.800048828125</ele>
        <time>2021-07-25T09:32:20.000Z</time>
      </trkpt>
      <trkpt lat="-11.9114744849503040313720703125" lon="-76.598841212689876556396484375">
        <ele>1155.4000244140625</ele>
        <time>2021-07-25T09:32:27.000Z</time>
      </trkpt>
      <trkpt lat="-11.91140332259237766265869140625" lon="-76.5987575612962245941162109375">
        <ele>1155.800048828125</ele>
        <time>2021-07-25T09:32:30.000Z</time>
      </trkpt>
      <trkpt lat="-11.91127725876867771148681640625" lon="-76.598614566028118133544921875">
        <ele>1156.4000244140625</ele>
        <time>2021-07-25T09:32:35.000Z</time>
      </trkpt>
      <trkpt lat="-11.91116427071392536163330078125" lon="-76.59846193157136440277099609375">
        <ele>1157</ele>
        <time>2021-07-25T09:32:40.000Z</time>
      </trkpt>
      <trkpt lat="-11.911063604056835174560546875" lon="-76.59834927879273891448974609375">
        <ele>1157.4000244140625</ele>
        <time>2021-07-25T09:32:44.000Z</time>
      </trkpt>
      <trkpt lat="-11.91101507283747196197509765625" lon="-76.59826529212296009063720703125">
        <ele>1158.199951171875</ele>
        <time>2021-07-25T09:32:47.000Z</time>
      </trkpt>
      <trkpt lat="-11.910975091159343719482421875" lon="-76.59816856496036052703857421875">
        <ele>1158.4000244140625</ele>
        <time>2021-07-25T09:32:50.000Z</time>
      </trkpt>
      <trkpt lat="-11.91092169843614101409912109375" lon="-76.59803344868123531341552734375">
        <ele>1159.199951171875</ele>
        <time>2021-07-25T09:32:54.000Z</time>
      </trkpt>
      <trkpt lat="-11.91087953746318817138671875" lon="-76.59787117503583431243896484375">
        <ele>1160</ele>
        <time>2021-07-25T09:32:59.000Z</time>
      </trkpt>
      <trkpt lat="-11.910865791141986846923828125" lon="-76.5978073887526988983154296875">
        <ele>1160.4000244140625</ele>
        <time>2021-07-25T09:33:01.000Z</time>
      </trkpt>
      <trkpt lat="-11.910831592977046966552734375" lon="-76.5976759605109691619873046875">
        <ele>1160.800048828125</ele>
        <time>2021-07-25T09:33:05.000Z</time>
      </trkpt>
      <trkpt lat="-11.91080510616302490234375" lon="-76.59758384339511394500732421875">
        <ele>1161.4000244140625</ele>
        <time>2021-07-25T09:33:08.000Z</time>
      </trkpt>
      <trkpt lat="-11.910779960453510284423828125" lon="-76.597408913075923919677734375">
        <ele>1162.4000244140625</ele>
        <time>2021-07-25T09:33:13.000Z</time>
      </trkpt>
      <trkpt lat="-11.91075657494366168975830078125" lon="-76.59731059335172176361083984375">
        <ele>1163</ele>
        <time>2021-07-25T09:33:16.000Z</time>
      </trkpt>
      <trkpt lat="-11.91073201596736907958984375" lon="-76.59721411764621734619140625">
        <ele>1163.5999755859375</ele>
        <time>2021-07-25T09:33:19.000Z</time>
      </trkpt>
      <trkpt lat="-11.910701505839824676513671875" lon="-76.597111187875270843505859375">
        <ele>1164</ele>
        <time>2021-07-25T09:33:22.000Z</time>
      </trkpt>
      <trkpt lat="-11.9106513820588588714599609375" lon="-76.59697942435741424560546875">
        <ele>1164.5999755859375</ele>
        <time>2021-07-25T09:33:26.000Z</time>
      </trkpt>
      <trkpt lat="-11.9105891883373260498046875" lon="-76.5968605689704418182373046875">
        <ele>1165</ele>
        <time>2021-07-25T09:33:30.000Z</time>
      </trkpt>
      <trkpt lat="-11.91051919944584369659423828125" lon="-76.59672218374907970428466796875">
        <ele>1166</ele>
        <time>2021-07-25T09:33:34.000Z</time>
      </trkpt>
      <trkpt lat="-11.91043831408023834228515625" lon="-76.5966067649424076080322265625">
        <ele>1166.5999755859375</ele>
        <time>2021-07-25T09:33:38.000Z</time>
      </trkpt>
      <trkpt lat="-11.9103811495006084442138671875" lon="-76.5965262986719608306884765625">
        <ele>1167</ele>
        <time>2021-07-25T09:33:41.000Z</time>
      </trkpt>
      <trkpt lat="-11.9102941453456878662109375" lon="-76.59638372249901294708251953125">
        <ele>1167.800048828125</ele>
        <time>2021-07-25T09:33:46.000Z</time>
      </trkpt>
      <trkpt lat="-11.91025701351463794708251953125" lon="-76.5963201038539409637451171875">
        <ele>1168</ele>
        <time>2021-07-25T09:33:48.000Z</time>
      </trkpt>
      <trkpt lat="-11.91016984172165393829345703125" lon="-76.5961786173284053802490234375">
        <ele>1169</ele>
        <time>2021-07-25T09:33:53.000Z</time>
      </trkpt>
      <trkpt lat="-11.91015207208693027496337890625" lon="-76.59614953212440013885498046875">
        <ele>1169.199951171875</ele>
        <time>2021-07-25T09:33:54.000Z</time>
      </trkpt>
      <trkpt lat="-11.9100703485310077667236328125" lon="-76.59601056016981601715087890625">
        <ele>1170.4000244140625</ele>
        <time>2021-07-25T09:33:59.000Z</time>
      </trkpt>
      <trkpt lat="-11.9100311212241649627685546875" lon="-76.59592556767165660858154296875">
        <ele>1171</ele>
        <time>2021-07-25T09:34:02.000Z</time>
      </trkpt>
      <trkpt lat="-11.90998778678476810455322265625" lon="-76.59584359265863895416259765625">
        <ele>1171.4000244140625</ele>
        <time>2021-07-25T09:34:05.000Z</time>
      </trkpt>
      <trkpt lat="-11.9099194742739200592041015625" lon="-76.5957471169531345367431640625">
        <ele>1172</ele>
        <time>2021-07-25T09:34:09.000Z</time>
      </trkpt>
      <trkpt lat="-11.90987094305455684661865234375" lon="-76.595684252679347991943359375">
        <ele>1172.800048828125</ele>
        <time>2021-07-25T09:34:12.000Z</time>
      </trkpt>
      <trkpt lat="-11.90979726612567901611328125" lon="-76.59555860795080661773681640625">
        <ele>1173.800048828125</ele>
        <time>2021-07-25T09:34:17.000Z</time>
      </trkpt>
      <trkpt lat="-11.90972627140581607818603515625" lon="-76.5954400040209293365478515625">
        <ele>1174.800048828125</ele>
        <time>2021-07-25T09:34:22.000Z</time>
      </trkpt>
      <trkpt lat="-11.90964127890765666961669921875" lon="-76.59532642923295497894287109375">
        <ele>1175.800048828125</ele>
        <time>2021-07-25T09:34:27.000Z</time>
      </trkpt>
      <trkpt lat="-11.9095484912395477294921875" lon="-76.5951870381832122802734375">
        <ele>1177</ele>
        <time>2021-07-25T09:34:33.000Z</time>
      </trkpt>
      <trkpt lat="-11.90947565250098705291748046875" lon="-76.59507371485233306884765625">
        <ele>1178</ele>
        <time>2021-07-25T09:34:38.000Z</time>
      </trkpt>
      <trkpt lat="-11.90943072549998760223388671875" lon="-76.59500389359891414642333984375">
        <ele>1178.800048828125</ele>
        <time>2021-07-25T09:34:41.000Z</time>
      </trkpt>
      <trkpt lat="-11.9094075076282024383544921875" lon="-76.59495678730309009552001953125">
        <ele>1179.199951171875</ele>
        <time>2021-07-25T09:34:43.000Z</time>
      </trkpt>
      <trkpt lat="-11.90935461781919002532958984375" lon="-76.59486458636820316314697265625">
        <ele>1180.199951171875</ele>
        <time>2021-07-25T09:34:47.000Z</time>
      </trkpt>
      <trkpt lat="-11.909326873719692230224609375" lon="-76.59481890499591827392578125">
        <ele>1180.4000244140625</ele>
        <time>2021-07-25T09:34:49.000Z</time>
      </trkpt>
      <trkpt lat="-11.90927867777645587921142578125" lon="-76.59475092776119709014892578125">
        <ele>1181.199951171875</ele>
        <time>2021-07-25T09:34:52.000Z</time>
      </trkpt>
      <trkpt lat="-11.90923274494707584381103515625" lon="-76.59468253143131732940673828125">
        <ele>1181.5999755859375</ele>
        <time>2021-07-25T09:34:55.000Z</time>
      </trkpt>
      <trkpt lat="-11.90917474217712879180908203125" lon="-76.5945961140096187591552734375">
        <ele>1182.4000244140625</ele>
        <time>2021-07-25T09:34:59.000Z</time>
      </trkpt>
      <trkpt lat="-11.90912545658648014068603515625" lon="-76.59452612511813640594482421875">
        <ele>1182.800048828125</ele>
        <time>2021-07-25T09:35:02.000Z</time>
      </trkpt>
      <trkpt lat="-11.90908916294574737548828125" lon="-76.594450771808624267578125">
        <ele>1183.5999755859375</ele>
        <time>2021-07-25T09:35:05.000Z</time>
      </trkpt>
      <trkpt lat="-11.9090460799634456634521484375" lon="-76.59435597248375415802001953125">
        <ele>1184.4000244140625</ele>
        <time>2021-07-25T09:35:09.000Z</time>
      </trkpt>
      <trkpt lat="-11.90903224982321262359619140625" lon="-76.5943359397351741790771484375">
        <ele>1184.800048828125</ele>
        <time>2021-07-25T09:35:10.000Z</time>
      </trkpt>
      <trkpt lat="-11.90895907580852508544921875" lon="-76.5942333452403545379638671875">
        <ele>1186</ele>
        <time>2021-07-25T09:35:15.000Z</time>
      </trkpt>
      <trkpt lat="-11.908923201262950897216796875" lon="-76.59417324699461460113525390625">
        <ele>1186.4000244140625</ele>
        <time>2021-07-25T09:35:18.000Z</time>
      </trkpt>
      <trkpt lat="-11.90891071222722530364990234375" lon="-76.5941347740590572357177734375">
        <ele>1187</ele>
        <time>2021-07-25T09:35:20.000Z</time>
      </trkpt>
      <trkpt lat="-11.90886863507330417633056640625" lon="-76.59404936246573925018310546875">
        <ele>1187.5999755859375</ele>
        <time>2021-07-25T09:35:24.000Z</time>
      </trkpt>
      <trkpt lat="-11.90885589458048343658447265625" lon="-76.594000160694122314453125">
        <ele>1188.199951171875</ele>
        <time>2021-07-25T09:35:26.000Z</time>
      </trkpt>
      <trkpt lat="-11.908821947872638702392578125" lon="-76.59390217624604701995849609375">
        <ele>1188.800048828125</ele>
        <time>2021-07-25T09:35:30.000Z</time>
      </trkpt>
      <trkpt lat="-11.9088041782379150390625" lon="-76.593854986131191253662109375">
        <ele>1189.199951171875</ele>
        <time>2021-07-25T09:35:32.000Z</time>
      </trkpt>
      <trkpt lat="-11.90876905806362628936767578125" lon="-76.593716852366924285888671875">
        <ele>1190.199951171875</ele>
        <time>2021-07-25T09:35:37.000Z</time>
      </trkpt>
      <trkpt lat="-11.908769309520721435546875" lon="-76.59369028173387050628662109375">
        <ele>1190.4000244140625</ele>
        <time>2021-07-25T09:35:38.000Z</time>
      </trkpt>
      <trkpt lat="-11.908731758594512939453125" lon="-76.59354108385741710662841796875">
        <ele>1191.4000244140625</ele>
        <time>2021-07-25T09:35:44.000Z</time>
      </trkpt>
      <trkpt lat="-11.90872144885361194610595703125" lon="-76.59351803362369537353515625">
        <ele>1191.5999755859375</ele>
        <time>2021-07-25T09:35:45.000Z</time>
      </trkpt>
      <trkpt lat="-11.90870233811438083648681640625" lon="-76.59339196979999542236328125">
        <ele>1192.4000244140625</ele>
        <time>2021-07-25T09:35:50.000Z</time>
      </trkpt>
      <trkpt lat="-11.908707953989505767822265625" lon="-76.5933384932577610015869140625">
        <ele>1192.800048828125</ele>
        <time>2021-07-25T09:35:52.000Z</time>
      </trkpt>
      <trkpt lat="-11.90874257124960422515869140625" lon="-76.59323900006711483001708984375">
        <ele>1193.5999755859375</ele>
        <time>2021-07-25T09:35:56.000Z</time>
      </trkpt>
      <trkpt lat="-11.90876302309334278106689453125" lon="-76.5931859426200389862060546875">
        <ele>1194</ele>
        <time>2021-07-25T09:35:58.000Z</time>
      </trkpt>
      <trkpt lat="-11.90882991068065166473388671875" lon="-76.59309156239032745361328125">
        <ele>1194.5999755859375</ele>
        <time>2021-07-25T09:36:02.000Z</time>
      </trkpt>
      <trkpt lat="-11.90888531506061553955078125" lon="-76.593027524650096893310546875">
        <ele>1195.199951171875</ele>
        <time>2021-07-25T09:36:05.000Z</time>
      </trkpt>
      <trkpt lat="-11.90892999060451984405517578125" lon="-76.59296373836696147918701171875">
        <ele>1195.5999755859375</ele>
        <time>2021-07-25T09:36:08.000Z</time>
      </trkpt>
      <trkpt lat="-11.9090115465223789215087890625" lon="-76.592841781675815582275390625">
        <ele>1196.5999755859375</ele>
        <time>2021-07-25T09:36:13.000Z</time>
      </trkpt>
      <trkpt lat="-11.90902671776711940765380859375" lon="-76.5928174741566181182861328125">
        <ele>1196.800048828125</ele>
        <time>2021-07-25T09:36:14.000Z</time>
      </trkpt>
      <trkpt lat="-11.90909645520150661468505859375" lon="-76.59264740534126758575439453125">
        <ele>1197.5999755859375</ele>
        <time>2021-07-25T09:36:20.000Z</time>
      </trkpt>
      <trkpt lat="-11.90910936333239078521728515625" lon="-76.59261840395629405975341796875">
        <ele>1197.800048828125</ele>
        <time>2021-07-25T09:36:21.000Z</time>
      </trkpt>
      <trkpt lat="-11.90913853235542774200439453125" lon="-76.59246803261339664459228515625">
        <ele>1198.800048828125</ele>
        <time>2021-07-25T09:36:26.000Z</time>
      </trkpt>
      <trkpt lat="-11.90914414823055267333984375" lon="-76.59243668429553508758544921875">
        <ele>1199</ele>
        <time>2021-07-25T09:36:27.000Z</time>
      </trkpt>
      <trkpt lat="-11.909133084118366241455078125" lon="-76.59219427965581417083740234375">
        <ele>1199.800048828125</ele>
        <time>2021-07-25T09:36:34.000Z</time>
      </trkpt>
      <trkpt lat="-11.90912663005292415618896484375" lon="-76.59204005263745784759521484375">
        <ele>1200.199951171875</ele>
        <time>2021-07-25T09:36:38.000Z</time>
      </trkpt>
      <trkpt lat="-11.9091302342712879180908203125" lon="-76.5918398089706897735595703125">
        <ele>1200.5999755859375</ele>
        <time>2021-07-25T09:36:43.000Z</time>
      </trkpt>
      <trkpt lat="-11.90917591564357280731201171875" lon="-76.5915457718074321746826171875">
        <ele>1200.800048828125</ele>
        <time>2021-07-25T09:36:50.000Z</time>
      </trkpt>
      <trkpt lat="-11.9091848842799663543701171875" lon="-76.59150528721511363983154296875">
        <ele>1200.800048828125</ele>
        <time>2021-07-25T09:36:51.000Z</time>
      </trkpt>
      <trkpt lat="-11.90929359756410121917724609375" lon="-76.591219715774059295654296875">
        <ele>1200.800048828125</ele>
        <time>2021-07-25T09:36:58.000Z</time>
      </trkpt>
      <trkpt lat="-11.90943516790866851806640625" lon="-76.59086323343217372894287109375">
        <ele>1200.800048828125</ele>
        <time>2021-07-25T09:37:06.000Z</time>
      </trkpt>
      <trkpt lat="-11.90955544821918010711669921875" lon="-76.59054874442517757415771484375">
        <ele>1200.800048828125</ele>
        <time>2021-07-25T09:37:13.000Z</time>
      </trkpt>
      <trkpt lat="-11.9097283668816089630126953125" lon="-76.590200476348400115966796875">
        <ele>1201</ele>
        <time>2021-07-25T09:37:21.000Z</time>
      </trkpt>
      <trkpt lat="-11.90992324613034725189208984375" lon="-76.5899099595844745635986328125">
        <ele>1201.199951171875</ele>
        <time>2021-07-25T09:37:28.000Z</time>
      </trkpt>
      <trkpt lat="-11.90997689031064510345458984375" lon="-76.58983343280851840972900390625">
        <ele>1201.4000244140625</ele>
        <time>2021-07-25T09:37:30.000Z</time>
      </trkpt>
      <trkpt lat="-11.9101638905704021453857421875" lon="-76.589544005692005157470703125">
        <ele>1201.4000244140625</ele>
        <time>2021-07-25T09:37:37.000Z</time>
      </trkpt>
      <trkpt lat="-11.91041056998074054718017578125" lon="-76.5891827456653118133544921875">
        <ele>1201.800048828125</ele>
        <time>2021-07-25T09:37:46.000Z</time>
      </trkpt>
      <trkpt lat="-11.91068046726286411285400390625" lon="-76.58878862857818603515625">
        <ele>1202.199951171875</ele>
        <time>2021-07-25T09:37:56.000Z</time>
      </trkpt>
      <trkpt lat="-11.91070678643882274627685546875" lon="-76.5887470543384552001953125">
        <ele>1202.4000244140625</ele>
        <time>2021-07-25T09:37:57.000Z</time>
      </trkpt>
      <trkpt lat="-11.91092371009290218353271484375" lon="-76.58839710988104343414306640625">
        <ele>1202.800048828125</ele>
        <time>2021-07-25T09:38:06.000Z</time>
      </trkpt>
      <trkpt lat="-11.9111073575913906097412109375" lon="-76.588025204837322235107421875">
        <ele>1203.4000244140625</ele>
        <time>2021-07-25T09:38:15.000Z</time>
      </trkpt>
      <trkpt lat="-11.91125504672527313232421875" lon="-76.587697975337505340576171875">
        <ele>1203.5999755859375</ele>
        <time>2021-07-25T09:38:23.000Z</time>
      </trkpt>
      <trkpt lat="-11.91142394207417964935302734375" lon="-76.58734702505171298980712890625">
        <ele>1204</ele>
        <time>2021-07-25T09:38:32.000Z</time>
      </trkpt>
      <trkpt lat="-11.91151614300906658172607421875" lon="-76.58714770339429378509521484375">
        <ele>1204.4000244140625</ele>
        <time>2021-07-25T09:38:37.000Z</time>
      </trkpt>
      <trkpt lat="-11.91156995482742786407470703125" lon="-76.58702532760798931121826171875">
        <ele>1204.5999755859375</ele>
        <time>2021-07-25T09:38:40.000Z</time>
      </trkpt>
      <trkpt lat="-11.91170088015496730804443359375" lon="-76.58675140701234340667724609375">
        <ele>1205.4000244140625</ele>
        <time>2021-07-25T09:38:47.000Z</time>
      </trkpt>
      <trkpt lat="-11.91171638667583465576171875" lon="-76.5867094136774539947509765625">
        <ele>1205.4000244140625</ele>
        <time>2021-07-25T09:38:48.000Z</time>
      </trkpt>
      <trkpt lat="-11.9118111021816730499267578125" lon="-76.5864163823425769805908203125">
        <ele>1206</ele>
        <time>2021-07-25T09:38:55.000Z</time>
      </trkpt>
      <trkpt lat="-11.91181655041873455047607421875" lon="-76.5863706171512603759765625">
        <ele>1206</ele>
        <time>2021-07-25T09:38:56.000Z</time>
      </trkpt>
      <trkpt lat="-11.91187237389385700225830078125" lon="-76.5861458145081996917724609375">
        <ele>1206</ele>
        <time>2021-07-25T09:39:01.000Z</time>
      </trkpt>
      <trkpt lat="-11.91191931255161762237548828125" lon="-76.585870049893856048583984375">
        <ele>1206.800048828125</ele>
        <time>2021-07-25T09:39:07.000Z</time>
      </trkpt>
      <trkpt lat="-11.91193188540637493133544921875" lon="-76.58577642403542995452880859375">
        <ele>1207</ele>
        <time>2021-07-25T09:39:09.000Z</time>
      </trkpt>
      <trkpt lat="-11.91198335029184818267822265625" lon="-76.585470736026763916015625">
        <ele>1206.5999755859375</ele>
        <time>2021-07-25T09:39:16.000Z</time>
      </trkpt>
      <trkpt lat="-11.91200262866914272308349609375" lon="-76.58515783958137035369873046875">
        <ele>1207.199951171875</ele>
        <time>2021-07-25T09:39:23.000Z</time>
      </trkpt>
      <trkpt lat="-11.91193037666380405426025390625" lon="-76.5848057158291339874267578125">
        <ele>1207.199951171875</ele>
        <time>2021-07-25T09:39:31.000Z</time>
      </trkpt>
      <trkpt lat="-11.91189819015562534332275390625" lon="-76.5847222320735454559326171875">
        <ele>1207.199951171875</ele>
        <time>2021-07-25T09:39:33.000Z</time>
      </trkpt>
      <trkpt lat="-11.91183574497699737548828125" lon="-76.58449382521212100982666015625">
        <ele>1207.199951171875</ele>
        <time>2021-07-25T09:39:38.000Z</time>
      </trkpt>
      <trkpt lat="-11.9117993675172328948974609375" lon="-76.58435158431529998779296875">
        <ele>1207.800048828125</ele>
        <time>2021-07-25T09:39:41.000Z</time>
      </trkpt>
      <trkpt lat="-11.91174228675663471221923828125" lon="-76.584172882139682769775390625">
        <ele>1208</ele>
        <time>2021-07-25T09:39:45.000Z</time>
      </trkpt>
      <trkpt lat="-11.9116210006177425384521484375" lon="-76.5837125480175018310546875">
        <ele>1208.4000244140625</ele>
        <time>2021-07-25T09:39:55.000Z</time>
      </trkpt>
      <trkpt lat="-11.91159208305180072784423828125" lon="-76.58362914808094501495361328125">
        <ele>1208.800048828125</ele>
        <time>2021-07-25T09:39:57.000Z</time>
      </trkpt>
      <trkpt lat="-11.9115026481449604034423828125" lon="-76.5833338536322116851806640625">
        <ele>1208.800048828125</ele>
        <time>2021-07-25T09:40:04.000Z</time>
      </trkpt>
      <trkpt lat="-11.91140717826783657073974609375" lon="-76.5830508805811405181884765625">
        <ele>1209.5999755859375</ele>
        <time>2021-07-25T09:40:12.000Z</time>
      </trkpt>
      <trkpt lat="-11.9113789312541484832763671875" lon="-76.58295507542788982391357421875">
        <ele>1209.800048828125</ele>
        <time>2021-07-25T09:40:16.000Z</time>
      </trkpt>
      <trkpt lat="-11.9113715551793575286865234375" lon="-76.582931689918041229248046875">
        <ele>1209.800048828125</ele>
        <time>2021-07-25T09:40:17.000Z</time>
      </trkpt>
      <trkpt lat="-11.911329142749309539794921875" lon="-76.58283018507063388824462890625">
        <ele>1209.800048828125</ele>
        <time>2021-07-25T09:40:20.000Z</time>
      </trkpt>
      <trkpt lat="-11.9112850539386272430419921875" lon="-76.582722477614879608154296875">
        <ele>1210</ele>
        <time>2021-07-25T09:40:23.000Z</time>
      </trkpt>
      <trkpt lat="-11.91118505783379077911376953125" lon="-76.58244025893509387969970703125">
        <ele>1210.5999755859375</ele>
        <time>2021-07-25T09:40:30.000Z</time>
      </trkpt>
      <trkpt lat="-11.91113770008087158203125" lon="-76.5823189727962017059326171875">
        <ele>1211</ele>
        <time>2021-07-25T09:40:33.000Z</time>
      </trkpt>
      <trkpt lat="-11.911076009273529052734375" lon="-76.5821541845798492431640625">
        <ele>1211</ele>
        <time>2021-07-25T09:40:37.000Z</time>
      </trkpt>
      <trkpt lat="-11.910990178585052490234375" lon="-76.58182251267135143280029296875">
        <ele>1211.5999755859375</ele>
        <time>2021-07-25T09:40:45.000Z</time>
      </trkpt>
      <trkpt lat="-11.9109336845576763153076171875" lon="-76.58166040666401386260986328125">
        <ele>1212</ele>
        <time>2021-07-25T09:40:49.000Z</time>
      </trkpt>
      <trkpt lat="-11.910895965993404388427734375" lon="-76.58154155127704143524169921875">
        <ele>1212.199951171875</ele>
        <time>2021-07-25T09:40:52.000Z</time>
      </trkpt>
      <trkpt lat="-11.910876519978046417236328125" lon="-76.58150215633213520050048828125">
        <ele>1212.4000244140625</ele>
        <time>2021-07-25T09:40:53.000Z</time>
      </trkpt>
      <trkpt lat="-11.91081843338906764984130859375" lon="-76.58135312609374523162841796875">
        <ele>1212.800048828125</ele>
        <time>2021-07-25T09:40:57.000Z</time>
      </trkpt>
      <trkpt lat="-11.91076411865651607513427734375" lon="-76.58125891350209712982177734375">
        <ele>1213</ele>
        <time>2021-07-25T09:41:00.000Z</time>
      </trkpt>
      <trkpt lat="-11.9107125699520111083984375" lon="-76.5811250545084476470947265625">
        <ele>1213.4000244140625</ele>
        <time>2021-07-25T09:41:04.000Z</time>
      </trkpt>
      <trkpt lat="-11.9106403179466724395751953125" lon="-76.58088893629610538482666015625">
        <ele>1214.199951171875</ele>
        <time>2021-07-25T09:41:11.000Z</time>
      </trkpt>
      <trkpt lat="-11.9105303473770618438720703125" lon="-76.58059707842767238616943359375">
        <ele>1215</ele>
        <time>2021-07-25T09:41:20.000Z</time>
      </trkpt>
      <trkpt lat="-11.9104845821857452392578125" lon="-76.58045542426407337188720703125">
        <ele>1215.199951171875</ele>
        <time>2021-07-25T09:41:24.000Z</time>
      </trkpt>
      <trkpt lat="-11.910439990460872650146484375" lon="-76.58032827079296112060546875">
        <ele>1215.5999755859375</ele>
        <time>2021-07-25T09:41:28.000Z</time>
      </trkpt>
      <trkpt lat="-11.9103316962718963623046875" lon="-76.5800618939101696014404296875">
        <ele>1216.199951171875</ele>
        <time>2021-07-25T09:41:36.000Z</time>
      </trkpt>
      <trkpt lat="-11.91031761467456817626953125" lon="-76.58002476207911968231201171875">
        <ele>1216.4000244140625</ele>
        <time>2021-07-25T09:41:37.000Z</time>
      </trkpt>
      <trkpt lat="-11.91023387946188449859619140625" lon="-76.57973122783005237579345703125">
        <ele>1217.4000244140625</ele>
        <time>2021-07-25T09:41:45.000Z</time>
      </trkpt>
      <trkpt lat="-11.9101464562118053436279296875" lon="-76.57937734387814998626708984375">
        <ele>1218.199951171875</ele>
        <time>2021-07-25T09:41:54.000Z</time>
      </trkpt>
      <trkpt lat="-11.9101035408675670623779296875" lon="-76.5792270563542842864990234375">
        <ele>1218.5999755859375</ele>
        <time>2021-07-25T09:41:58.000Z</time>
      </trkpt>
      <trkpt lat="-11.91006003879010677337646484375" lon="-76.57904357649385929107666015625">
        <ele>1219.199951171875</ele>
        <time>2021-07-25T09:42:03.000Z</time>
      </trkpt>
      <trkpt lat="-11.91004335880279541015625" lon="-76.578931175172328948974609375">
        <ele>1219.800048828125</ele>
        <time>2021-07-25T09:42:06.000Z</time>
      </trkpt>
      <trkpt lat="-11.90999574959278106689453125" lon="-76.5787596814334392547607421875">
        <ele>1220.199951171875</ele>
        <time>2021-07-25T09:42:11.000Z</time>
      </trkpt>
      <trkpt lat="-11.909963227808475494384765625" lon="-76.57855155877768993377685546875">
        <ele>1220.800048828125</ele>
        <time>2021-07-25T09:42:17.000Z</time>
      </trkpt>
      <trkpt lat="-11.90994746983051300048828125" lon="-76.5784876048564910888671875">
        <ele>1221</ele>
        <time>2021-07-25T09:42:19.000Z</time>
      </trkpt>
      <trkpt lat="-11.90993431024253368377685546875" lon="-76.5782795660197734832763671875">
        <ele>1221.800048828125</ele>
        <time>2021-07-25T09:42:25.000Z</time>
      </trkpt>
      <trkpt lat="-11.909898184239864349365234375" lon="-76.5780007839202880859375">
        <ele>1222.800048828125</ele>
        <time>2021-07-25T09:42:33.000Z</time>
      </trkpt>
      <trkpt lat="-11.90989525057375431060791015625" lon="-76.57792526297271251678466796875">
        <ele>1223</ele>
        <time>2021-07-25T09:42:35.000Z</time>
      </trkpt>
      <trkpt lat="-11.9098782353103160858154296875" lon="-76.57773348502814769744873046875">
        <ele>1223.4000244140625</ele>
        <time>2021-07-25T09:42:40.000Z</time>
      </trkpt>
      <trkpt lat="-11.9098628126084804534912109375" lon="-76.57761731185019016265869140625">
        <ele>1224.199951171875</ele>
        <time>2021-07-25T09:42:43.000Z</time>
      </trkpt>
      <trkpt lat="-11.90985501743853092193603515625" lon="-76.57736501656472682952880859375">
        <ele>1225</ele>
        <time>2021-07-25T09:42:49.000Z</time>
      </trkpt>
      <trkpt lat="-11.90984286367893218994140625" lon="-76.5772398747503757476806640625">
        <ele>1225.199951171875</ele>
        <time>2021-07-25T09:42:52.000Z</time>
      </trkpt>
      <trkpt lat="-11.90980958752334117889404296875" lon="-76.57699428498744964599609375">
        <ele>1226.199951171875</ele>
        <time>2021-07-25T09:42:58.000Z</time>
      </trkpt>
      <trkpt lat="-11.9098048098385334014892578125" lon="-76.5769089572131633758544921875">
        <ele>1226.199951171875</ele>
        <time>2021-07-25T09:43:00.000Z</time>
      </trkpt>
      <trkpt lat="-11.90977555699646472930908203125" lon="-76.5766652114689350128173828125">
        <ele>1226.800048828125</ele>
        <time>2021-07-25T09:43:06.000Z</time>
      </trkpt>
      <trkpt lat="-11.90976415760815143585205078125" lon="-76.57649044878780841827392578125">
        <ele>1227.199951171875</ele>
        <time>2021-07-25T09:43:10.000Z</time>
      </trkpt>
      <trkpt lat="-11.90975032746791839599609375" lon="-76.5763601101934909820556640625">
        <ele>1227.5999755859375</ele>
        <time>2021-07-25T09:43:13.000Z</time>
      </trkpt>
      <trkpt lat="-11.90974001772701740264892578125" lon="-76.57615332864224910736083984375">
        <ele>1228.199951171875</ele>
        <time>2021-07-25T09:43:18.000Z</time>
      </trkpt>
      <trkpt lat="-11.90974303521215915679931640625" lon="-76.57607018016278743743896484375">
        <ele>1228.5999755859375</ele>
        <time>2021-07-25T09:43:20.000Z</time>
      </trkpt>
      <trkpt lat="-11.90978410653769969940185546875" lon="-76.57574705779552459716796875">
        <ele>1229.4000244140625</ele>
        <time>2021-07-25T09:43:28.000Z</time>
      </trkpt>
      <trkpt lat="-11.90979399718344211578369140625" lon="-76.5757073275744915008544921875">
        <ele>1229.4000244140625</ele>
        <time>2021-07-25T09:43:29.000Z</time>
      </trkpt>
      <trkpt lat="-11.909856610000133514404296875" lon="-76.575377248227596282958984375">
        <ele>1230.4000244140625</ele>
        <time>2021-07-25T09:43:37.000Z</time>
      </trkpt>
      <trkpt lat="-11.90986406989395618438720703125" lon="-76.5753371827304363250732421875">
        <ele>1230.5999755859375</ele>
        <time>2021-07-25T09:43:38.000Z</time>
      </trkpt>
      <trkpt lat="-11.9099167920649051666259765625" lon="-76.575047671794891357421875">
        <ele>1231.199951171875</ele>
        <time>2021-07-25T09:43:45.000Z</time>
      </trkpt>
      <trkpt lat="-11.90993632189929485321044921875" lon="-76.574927978217601776123046875">
        <ele>1231.5999755859375</ele>
        <time>2021-07-25T09:43:48.000Z</time>
      </trkpt>
      <trkpt lat="-11.909986697137355804443359375" lon="-76.574689261615276336669921875">
        <ele>1232.199951171875</ele>
        <time>2021-07-25T09:43:54.000Z</time>
      </trkpt>
      <trkpt lat="-11.91000203602015972137451171875" lon="-76.5746064484119415283203125">
        <ele>1232.4000244140625</ele>
        <time>2021-07-25T09:43:56.000Z</time>
      </trkpt>
      <trkpt lat="-11.9100123457610607147216796875" lon="-76.57452397048473358154296875">
        <ele>1232.800048828125</ele>
        <time>2021-07-25T09:43:58.000Z</time>
      </trkpt>
      <trkpt lat="-11.91003439016640186309814453125" lon="-76.574408970773220062255859375">
        <ele>1233</ele>
        <time>2021-07-25T09:44:01.000Z</time>
      </trkpt>
      <trkpt lat="-11.910105384886264801025390625" lon="-76.574082076549530029296875">
        <ele>1233.800048828125</ele>
        <time>2021-07-25T09:44:09.000Z</time>
      </trkpt>
      <trkpt lat="-11.91011753864586353302001953125" lon="-76.5740431845188140869140625">
        <ele>1234</ele>
        <time>2021-07-25T09:44:10.000Z</time>
      </trkpt>
      <trkpt lat="-11.9102155230939388275146484375" lon="-76.573796086013317108154296875">
        <ele>1235</ele>
        <time>2021-07-25T09:44:17.000Z</time>
      </trkpt>
      <trkpt lat="-11.91030261106789112091064453125" lon="-76.57361545599997043609619140625">
        <ele>1236</ele>
        <time>2021-07-25T09:44:23.000Z</time>
      </trkpt>
      <trkpt lat="-11.91033236682415008544921875" lon="-76.5735541842877864837646484375">
        <ele>1236.5999755859375</ele>
        <time>2021-07-25T09:44:25.000Z</time>
      </trkpt>
      <trkpt lat="-11.9103965722024440765380859375" lon="-76.5734235942363739013671875">
        <ele>1237.199951171875</ele>
        <time>2021-07-25T09:44:29.000Z</time>
      </trkpt>
      <trkpt lat="-11.91046069376170635223388671875" lon="-76.57330415211617946624755859375">
        <ele>1237.800048828125</ele>
        <time>2021-07-25T09:44:33.000Z</time>
      </trkpt>
      <trkpt lat="-11.91049036569893360137939453125" lon="-76.573251597583293914794921875">
        <ele>1238.199951171875</ele>
        <time>2021-07-25T09:44:35.000Z</time>
      </trkpt>
      <trkpt lat="-11.9105900265276432037353515625" lon="-76.5730465762317180633544921875">
        <ele>1239.199951171875</ele>
        <time>2021-07-25T09:44:42.000Z</time>
      </trkpt>
      <trkpt lat="-11.91062229685485363006591796875" lon="-76.5729895792901515960693359375">
        <ele>1239.5999755859375</ele>
        <time>2021-07-25T09:44:44.000Z</time>
      </trkpt>
      <trkpt lat="-11.9106517173349857330322265625" lon="-76.57293166033923625946044921875">
        <ele>1240.5999755859375</ele>
        <time>2021-07-25T09:44:46.000Z</time>
      </trkpt>
      <trkpt lat="-11.9107586704194545745849609375" lon="-76.5727280639111995697021484375">
        <ele>1241.5999755859375</ele>
        <time>2021-07-25T09:44:53.000Z</time>
      </trkpt>
      <trkpt lat="-11.91085145808756351470947265625" lon="-76.572556905448436737060546875">
        <ele>1242.800048828125</ele>
        <time>2021-07-25T09:44:59.000Z</time>
      </trkpt>
      <trkpt lat="-11.91088020801544189453125" lon="-76.57249747775495052337646484375">
        <ele>1243.4000244140625</ele>
        <time>2021-07-25T09:45:01.000Z</time>
      </trkpt>
      <trkpt lat="-11.91092354245483875274658203125" lon="-76.572414748370647430419921875">
        <ele>1244</ele>
        <time>2021-07-25T09:45:04.000Z</time>
      </trkpt>
      <trkpt lat="-11.910981796681880950927734375" lon="-76.5723024308681488037109375">
        <ele>1244.5999755859375</ele>
        <time>2021-07-25T09:45:08.000Z</time>
      </trkpt>
      <trkpt lat="-11.91101088188588619232177734375" lon="-76.57224400900304317474365234375">
        <ele>1245.199951171875</ele>
        <time>2021-07-25T09:45:10.000Z</time>
      </trkpt>
      <trkpt lat="-11.91109478473663330078125" lon="-76.57210788689553737640380859375">
        <ele>1246.4000244140625</ele>
        <time>2021-07-25T09:45:15.000Z</time>
      </trkpt>
      <trkpt lat="-11.91114231012761592864990234375" lon="-76.5720350481569766998291015625">
        <ele>1247</ele>
        <time>2021-07-25T09:45:18.000Z</time>
      </trkpt>
      <trkpt lat="-11.9112126342952251434326171875" lon="-76.57194058410823345184326171875">
        <ele>1247.4000244140625</ele>
        <time>2021-07-25T09:45:22.000Z</time>
      </trkpt>
      <trkpt lat="-11.9113175757229328155517578125" lon="-76.57183832488954067230224609375">
        <ele>1248.4000244140625</ele>
        <time>2021-07-25T09:45:27.000Z</time>
      </trkpt>
      <trkpt lat="-11.9113363511860370635986328125" lon="-76.57181938178837299346923828125">
        <ele>1248.5999755859375</ele>
        <time>2021-07-25T09:45:28.000Z</time>
      </trkpt>
      <trkpt lat="-11.91145931370556354522705078125" lon="-76.571688540279865264892578125">
        <ele>1249.800048828125</ele>
        <time>2021-07-25T09:45:34.000Z</time>
      </trkpt>
      <trkpt lat="-11.91155537031590938568115234375" lon="-76.57157060690224170684814453125">
        <ele>1250.800048828125</ele>
        <time>2021-07-25T09:45:39.000Z</time>
      </trkpt>
      <trkpt lat="-11.9116441346704959869384765625" lon="-76.571439765393733978271484375">
        <ele>1251.4000244140625</ele>
        <time>2021-07-25T09:45:44.000Z</time>
      </trkpt>
      <trkpt lat="-11.911687552928924560546875" lon="-76.571358628571033477783203125">
        <ele>1252</ele>
        <time>2021-07-25T09:45:47.000Z</time>
      </trkpt>
      <trkpt lat="-11.911748237907886505126953125" lon="-76.5712474845349788665771484375">
        <ele>1252.4000244140625</ele>
        <time>2021-07-25T09:45:51.000Z</time>
      </trkpt>
      <trkpt lat="-11.91180582158267498016357421875" lon="-76.5711348317563533782958984375">
        <ele>1253</ele>
        <time>2021-07-25T09:45:55.000Z</time>
      </trkpt>
      <trkpt lat="-11.9118345715105533599853515625" lon="-76.5710791759192943572998046875">
        <ele>1253.4000244140625</ele>
        <time>2021-07-25T09:45:57.000Z</time>
      </trkpt>
      <trkpt lat="-11.91188544966280460357666015625" lon="-76.5709963627159595489501953125">
        <ele>1254</ele>
        <time>2021-07-25T09:46:00.000Z</time>
      </trkpt>
      <trkpt lat="-11.9119318015873432159423828125" lon="-76.5709135495126247406005859375">
        <ele>1254.5999755859375</ele>
        <time>2021-07-25T09:46:03.000Z</time>
      </trkpt>
      <trkpt lat="-11.9119753874838352203369140625" lon="-76.570838950574398040771484375">
        <ele>1255.199951171875</ele>
        <time>2021-07-25T09:46:06.000Z</time>
      </trkpt>
      <trkpt lat="-11.91203682683408260345458984375" lon="-76.570726297795772552490234375">
        <ele>1255.800048828125</ele>
        <time>2021-07-25T09:46:10.000Z</time>
      </trkpt>
      <trkpt lat="-11.91208058036863803863525390625" lon="-76.570640467107295989990234375">
        <ele>1256.199951171875</ele>
        <time>2021-07-25T09:46:13.000Z</time>
      </trkpt>
      <trkpt lat="-11.91216020844876766204833984375" lon="-76.57050359062850475311279296875">
        <ele>1257.199951171875</ele>
        <time>2021-07-25T09:46:18.000Z</time>
      </trkpt>
      <trkpt lat="-11.91217596642673015594482421875" lon="-76.57047576270997524261474609375">
        <ele>1257.199951171875</ele>
        <time>2021-07-25T09:46:19.000Z</time>
      </trkpt>
      <trkpt lat="-11.91227772273123264312744140625" lon="-76.570316590368747711181640625">
        <ele>1258.4000244140625</ele>
        <time>2021-07-25T09:46:25.000Z</time>
      </trkpt>
      <trkpt lat="-11.91229574382305145263671875" lon="-76.57028951682150363922119140625">
        <ele>1258.5999755859375</ele>
        <time>2021-07-25T09:46:26.000Z</time>
      </trkpt>
      <trkpt lat="-11.9124045409262180328369140625" lon="-76.570174433290958404541015625">
        <ele>1259.4000244140625</ele>
        <time>2021-07-25T09:46:31.000Z</time>
      </trkpt>
      <trkpt lat="-11.91249816678464412689208984375" lon="-76.570089273154735565185546875">
        <ele>1260</ele>
        <time>2021-07-25T09:46:35.000Z</time>
      </trkpt>
      <trkpt lat="-11.91264032386243343353271484375" lon="-76.57000352628529071807861328125">
        <ele>1260.4000244140625</ele>
        <time>2021-07-25T09:46:40.000Z</time>
      </trkpt>
      <trkpt lat="-11.91270737908780574798583984375" lon="-76.56997494399547576904296875">
        <ele>1260.5999755859375</ele>
        <time>2021-07-25T09:46:42.000Z</time>
      </trkpt>
      <trkpt lat="-11.9129674695432186126708984375" lon="-76.56986908055841922760009765625">
        <ele>1261.199951171875</ele>
        <time>2021-07-25T09:46:50.000Z</time>
      </trkpt>
      <trkpt lat="-11.9130841456353664398193359375" lon="-76.569827757775783538818359375">
        <ele>1261.4000244140625</ele>
        <time>2021-07-25T09:46:53.000Z</time>
      </trkpt>
      <trkpt lat="-11.91323141567409038543701171875" lon="-76.56977511942386627197265625">
        <ele>1261.5999755859375</ele>
        <time>2021-07-25T09:46:57.000Z</time>
      </trkpt>
      <trkpt lat="-11.91354959271848201751708984375" lon="-76.56966204755008220672607421875">
        <ele>1261.5999755859375</ele>
        <time>2021-07-25T09:47:05.000Z</time>
      </trkpt>
      <trkpt lat="-11.913810856640338897705078125" lon="-76.56953128986060619354248046875">
        <ele>1262</ele>
        <time>2021-07-25T09:47:12.000Z</time>
      </trkpt>
      <trkpt lat="-11.91388201899826526641845703125" lon="-76.569479070603847503662109375">
        <ele>1262</ele>
        <time>2021-07-25T09:47:14.000Z</time>
      </trkpt>
      <trkpt lat="-11.914056278765201568603515625" lon="-76.56932358630001544952392578125">
        <ele>1262</ele>
        <time>2021-07-25T09:47:19.000Z</time>
      </trkpt>
      <trkpt lat="-11.91421796567738056182861328125" lon="-76.569170616567134857177734375">
        <ele>1262.5999755859375</ele>
        <time>2021-07-25T09:47:24.000Z</time>
      </trkpt>
      <trkpt lat="-11.914362050592899322509765625" lon="-76.56901965849101543426513671875">
        <ele>1262.800048828125</ele>
        <time>2021-07-25T09:47:29.000Z</time>
      </trkpt>
      <trkpt lat="-11.91438593901693820953369140625" lon="-76.5689853765070438385009765625">
        <ele>1263</ele>
        <time>2021-07-25T09:47:30.000Z</time>
      </trkpt>
      <trkpt lat="-11.91451820544898509979248046875" lon="-76.56877121888101100921630859375">
        <ele>1263.5999755859375</ele>
        <time>2021-07-25T09:47:36.000Z</time>
      </trkpt>
      <trkpt lat="-11.91464158706367015838623046875" lon="-76.56852764077484607696533203125">
        <ele>1264.5999755859375</ele>
        <time>2021-07-25T09:47:43.000Z</time>
      </trkpt>
      <trkpt lat="-11.91476748324930667877197265625" lon="-76.56828439794480800628662109375">
        <ele>1265.5999755859375</ele>
        <time>2021-07-25T09:47:50.000Z</time>
      </trkpt>
      <trkpt lat="-11.9147829897701740264892578125" lon="-76.568250954151153564453125">
        <ele>1265.800048828125</ele>
        <time>2021-07-25T09:47:51.000Z</time>
      </trkpt>
      <trkpt lat="-11.91488717682659626007080078125" lon="-76.5680482797324657440185546875">
        <ele>1266.5999755859375</ele>
        <time>2021-07-25T09:47:57.000Z</time>
      </trkpt>
      <trkpt lat="-11.91492372192442417144775390625" lon="-76.56798181124031543731689453125">
        <ele>1267</ele>
        <time>2021-07-25T09:47:59.000Z</time>
      </trkpt>
      <trkpt lat="-11.91501550376415252685546875" lon="-76.56782322563230991363525390625">
        <ele>1267.5999755859375</ele>
        <time>2021-07-25T09:48:04.000Z</time>
      </trkpt>
      <trkpt lat="-11.91508146934211254119873046875" lon="-76.56773571856319904327392578125">
        <ele>1268.4000244140625</ele>
        <time>2021-07-25T09:48:07.000Z</time>
      </trkpt>
      <trkpt lat="-11.9151742570102214813232421875" lon="-76.56762356869876384735107421875">
        <ele>1268.800048828125</ele>
        <time>2021-07-25T09:48:11.000Z</time>
      </trkpt>
      <trkpt lat="-11.91521859727799892425537109375" lon="-76.56757042743265628814697265625">
        <ele>1269.4000244140625</ele>
        <time>2021-07-25T09:48:13.000Z</time>
      </trkpt>
      <trkpt lat="-11.91531297750771045684814453125" lon="-76.5674648992717266082763671875">
        <ele>1269.800048828125</ele>
        <time>2021-07-25T09:48:17.000Z</time>
      </trkpt>
      <trkpt lat="-11.9153366982936859130859375" lon="-76.56744084320962429046630859375">
        <ele>1270</ele>
        <time>2021-07-25T09:48:18.000Z</time>
      </trkpt>
      <trkpt lat="-11.91546653397381305694580078125" lon="-76.567319892346858978271484375">
        <ele>1271</ele>
        <time>2021-07-25T09:48:23.000Z</time>
      </trkpt>
      <trkpt lat="-11.91554867662489414215087890625" lon="-76.56724621541798114776611328125">
        <ele>1271.199951171875</ele>
        <time>2021-07-25T09:48:26.000Z</time>
      </trkpt>
      <trkpt lat="-11.91575034521520137786865234375" lon="-76.5670689381659030914306640625">
        <ele>1272</ele>
        <time>2021-07-25T09:48:33.000Z</time>
      </trkpt>
      <trkpt lat="-11.91599258221685886383056640625" lon="-76.56685327179729938507080078125">
        <ele>1273</ele>
        <time>2021-07-25T09:48:42.000Z</time>
      </trkpt>
      <trkpt lat="-11.91618821583688259124755859375" lon="-76.56667624600231647491455078125">
        <ele>1273.800048828125</ele>
        <time>2021-07-25T09:48:49.000Z</time>
      </trkpt>
      <trkpt lat="-11.91627614200115203857421875" lon="-76.56660617329180240631103515625">
        <ele>1274</ele>
        <time>2021-07-25T09:48:52.000Z</time>
      </trkpt>
      <trkpt lat="-11.9164446182548999786376953125" lon="-76.56645446084439754486083984375">
        <ele>1274.800048828125</ele>
        <time>2021-07-25T09:48:58.000Z</time>
      </trkpt>
      <trkpt lat="-11.91653287969529628753662109375" lon="-76.56638019718229770660400390625">
        <ele>1275.199951171875</ele>
        <time>2021-07-25T09:49:01.000Z</time>
      </trkpt>
      <trkpt lat="-11.9166900403797626495361328125" lon="-76.566236279904842376708984375">
        <ele>1276.4000244140625</ele>
        <time>2021-07-25T09:49:07.000Z</time>
      </trkpt>
      <trkpt lat="-11.9167131744325160980224609375" lon="-76.56621314585208892822265625">
        <ele>1276.4000244140625</ele>
        <time>2021-07-25T09:49:08.000Z</time>
      </trkpt>
      <trkpt lat="-11.91687419079244136810302734375" lon="-76.5660775266587734222412109375">
        <ele>1277.4000244140625</ele>
        <time>2021-07-25T09:49:14.000Z</time>
      </trkpt>
      <trkpt lat="-11.916899420320987701416015625" lon="-76.56605414114892482757568359375">
        <ele>1277.5999755859375</ele>
        <time>2021-07-25T09:49:15.000Z</time>
      </trkpt>
      <trkpt lat="-11.9170353747904300689697265625" lon="-76.56594182364642620086669921875">
        <ele>1278.5999755859375</ele>
        <time>2021-07-25T09:49:20.000Z</time>
      </trkpt>
      <trkpt lat="-11.91711056046187877655029296875" lon="-76.5658787079155445098876953125">
        <ele>1279</ele>
        <time>2021-07-25T09:49:23.000Z</time>
      </trkpt>
      <trkpt lat="-11.917207874357700347900390625" lon="-76.56578625552356243133544921875">
        <ele>1279.5999755859375</ele>
        <time>2021-07-25T09:49:27.000Z</time>
      </trkpt>
      <trkpt lat="-11.91735782660543918609619140625" lon="-76.5656532347202301025390625">
        <ele>1280.5999755859375</ele>
        <time>2021-07-25T09:49:33.000Z</time>
      </trkpt>
      <trkpt lat="-11.91738523542881011962890625" lon="-76.56563119031488895416259765625">
        <ele>1280.800048828125</ele>
        <time>2021-07-25T09:49:34.000Z</time>
      </trkpt>
      <trkpt lat="-11.91760576330125331878662109375" lon="-76.56542834825813770294189453125">
        <ele>1282</ele>
        <time>2021-07-25T09:49:42.000Z</time>
      </trkpt>
      <trkpt lat="-11.9177880696952342987060546875" lon="-76.56523682177066802978515625">
        <ele>1283</ele>
        <time>2021-07-25T09:49:49.000Z</time>
      </trkpt>
      <trkpt lat="-11.91791203804314136505126953125" lon="-76.5649664215743541717529296875">
        <ele>1283.5999755859375</ele>
        <time>2021-07-25T09:49:57.000Z</time>
      </trkpt>
      <trkpt lat="-11.9179295562207698822021484375" lon="-76.564890481531620025634765625">
        <ele>1284</ele>
        <time>2021-07-25T09:49:59.000Z</time>
      </trkpt>
      <trkpt lat="-11.91795411519706249237060546875" lon="-76.5646834485232830047607421875">
        <ele>1284.4000244140625</ele>
        <time>2021-07-25T09:50:04.000Z</time>
      </trkpt>
      <trkpt lat="-11.917963586747646331787109375" lon="-76.564395613968372344970703125">
        <ele>1285</ele>
        <time>2021-07-25T09:50:11.000Z</time>
      </trkpt>
      <trkpt lat="-11.91797004081308841705322265625" lon="-76.56431414186954498291015625">
        <ele>1285.199951171875</ele>
        <time>2021-07-25T09:50:13.000Z</time>
      </trkpt>
      <trkpt lat="-11.9179932586848735809326171875" lon="-76.56403385102748870849609375">
        <ele>1285.800048828125</ele>
        <time>2021-07-25T09:50:20.000Z</time>
      </trkpt>
      <trkpt lat="-11.9180217571556568145751953125" lon="-76.5639196895062923431396484375">
        <ele>1286</ele>
        <time>2021-07-25T09:50:23.000Z</time>
      </trkpt>
      <trkpt lat="-11.9180618226528167724609375" lon="-76.563803516328334808349609375">
        <ele>1286.199951171875</ele>
        <time>2021-07-25T09:50:26.000Z</time>
      </trkpt>
      <trkpt lat="-11.91809124313294887542724609375" lon="-76.56372346915304660797119140625">
        <ele>1286.4000244140625</ele>
        <time>2021-07-25T09:50:28.000Z</time>
      </trkpt>
      <trkpt lat="-11.91818679682910442352294921875" lon="-76.56353370286524295806884765625">
        <ele>1287</ele>
        <time>2021-07-25T09:50:33.000Z</time>
      </trkpt>
      <trkpt lat="-11.918237507343292236328125" lon="-76.56346119940280914306640625">
        <ele>1287.199951171875</ele>
        <time>2021-07-25T09:50:35.000Z</time>
      </trkpt>
      <trkpt lat="-11.9183932431042194366455078125" lon="-76.56322591938078403472900390625">
        <ele>1287.199951171875</ele>
        <time>2021-07-25T09:50:41.000Z</time>
      </trkpt>
      <trkpt lat="-11.91862148232758045196533203125" lon="-76.5629017911851406097412109375">
        <ele>1287.5999755859375</ele>
        <time>2021-07-25T09:50:49.000Z</time>
      </trkpt>
      <trkpt lat="-11.91878124140202999114990234375" lon="-76.56260867603123188018798828125">
        <ele>1287.5999755859375</ele>
        <time>2021-07-25T09:50:56.000Z</time>
      </trkpt>
      <trkpt lat="-11.91879632882773876190185546875" lon="-76.562566347420215606689453125">
        <ele>1287.5999755859375</ele>
        <time>2021-07-25T09:50:57.000Z</time>
      </trkpt>
      <trkpt lat="-11.9188462011516094207763671875" lon="-76.56236819922924041748046875">
        <ele>1287.5999755859375</ele>
        <time>2021-07-25T09:51:02.000Z</time>
      </trkpt>
      <trkpt lat="-11.9188904576003551483154296875" lon="-76.5620349347591400146484375">
        <ele>1288</ele>
        <time>2021-07-25T09:51:10.000Z</time>
      </trkpt>
      <trkpt lat="-11.91889666020870208740234375" lon="-76.56199478544294834136962890625">
        <ele>1288.199951171875</ele>
        <time>2021-07-25T09:51:11.000Z</time>
      </trkpt>
      <trkpt lat="-11.91890361718833446502685546875" lon="-76.56177668832242488861083984375">
        <ele>1289</ele>
        <time>2021-07-25T09:51:17.000Z</time>
      </trkpt>
      <trkpt lat="-11.91889272071421146392822265625" lon="-76.56162329949438571929931640625">
        <ele>1289.199951171875</ele>
        <time>2021-07-25T09:51:22.000Z</time>
      </trkpt>
      <trkpt lat="-11.91888459026813507080078125" lon="-76.56156714074313640594482421875">
        <ele>1289.4000244140625</ele>
        <time>2021-07-25T09:51:24.000Z</time>
      </trkpt>
      <trkpt lat="-11.91884293220937252044677734375" lon="-76.56139053404331207275390625">
        <ele>1289.800048828125</ele>
        <time>2021-07-25T09:51:31.000Z</time>
      </trkpt>
      <trkpt lat="-11.91883404739201068878173828125" lon="-76.56136832199990749359130859375">
        <ele>1289.800048828125</ele>
        <time>2021-07-25T09:51:32.000Z</time>
      </trkpt>
      <trkpt lat="-11.91883002407848834991455078125" lon="-76.561309061944484710693359375">
        <ele>1290.199951171875</ele>
        <time>2021-07-25T09:51:34.000Z</time>
      </trkpt>
      <trkpt lat="-11.9188314490020275115966796875" lon="-76.56127561815083026885986328125">
        <ele>1290.4000244140625</ele>
        <time>2021-07-25T09:51:35.000Z</time>
      </trkpt>
      <trkpt lat="-11.9188235700130462646484375" lon="-76.5610866062343120574951171875">
        <ele>1291.199951171875</ele>
        <time>2021-07-25T09:51:40.000Z</time>
      </trkpt>
      <trkpt lat="-11.91881426610052585601806640625" lon="-76.5609746240079402923583984375">
        <ele>1291.5999755859375</ele>
        <time>2021-07-25T09:51:43.000Z</time>
      </trkpt>
      <trkpt lat="-11.91880035214126110076904296875" lon="-76.56079885549843311309814453125">
        <ele>1292.4000244140625</ele>
        <time>2021-07-25T09:51:48.000Z</time>
      </trkpt>
      <trkpt lat="-11.91880387254059314727783203125" lon="-76.5606866218149662017822265625">
        <ele>1292.800048828125</ele>
        <time>2021-07-25T09:51:51.000Z</time>
      </trkpt>
      <trkpt lat="-11.91880839876830577850341796875" lon="-76.5605347417294979095458984375">
        <ele>1293.4000244140625</ele>
        <time>2021-07-25T09:51:55.000Z</time>
      </trkpt>
      <trkpt lat="-11.9188180379569530487060546875" lon="-76.56037800014019012451171875">
        <ele>1293.800048828125</ele>
        <time>2021-07-25T09:51:59.000Z</time>
      </trkpt>
      <trkpt lat="-11.91883270628750324249267578125" lon="-76.56019284389913082122802734375">
        <ele>1294.4000244140625</ele>
        <time>2021-07-25T09:52:04.000Z</time>
      </trkpt>
      <trkpt lat="-11.9188478775322437286376953125" lon="-76.56003241427242755889892578125">
        <ele>1294.800048828125</ele>
        <time>2021-07-25T09:52:08.000Z</time>
      </trkpt>
      <trkpt lat="-11.9188787229359149932861328125" lon="-76.559710800647735595703125">
        <ele>1295.5999755859375</ele>
        <time>2021-07-25T09:52:16.000Z</time>
      </trkpt>
      <trkpt lat="-11.91888056695461273193359375" lon="-76.5594437532126903533935546875">
        <ele>1296.5999755859375</ele>
        <time>2021-07-25T09:52:23.000Z</time>
      </trkpt>
      <trkpt lat="-11.918880231678485870361328125" lon="-76.5594045259058475494384765625">
        <ele>1296.800048828125</ele>
        <time>2021-07-25T09:52:24.000Z</time>
      </trkpt>
      <trkpt lat="-11.918848045170307159423828125" lon="-76.5590622089803218841552734375">
        <ele>1297.800048828125</ele>
        <time>2021-07-25T09:52:33.000Z</time>
      </trkpt>
      <trkpt lat="-11.918804459273815155029296875" lon="-76.5588431060314178466796875">
        <ele>1298.800048828125</ele>
        <time>2021-07-25T09:52:39.000Z</time>
      </trkpt>
      <trkpt lat="-11.9187959097325801849365234375" lon="-76.5588073991239070892333984375">
        <ele>1299</ele>
        <time>2021-07-25T09:52:40.000Z</time>
      </trkpt>
      <trkpt lat="-11.918726004660129547119140625" lon="-76.5585686825215816497802734375">
        <ele>1300.4000244140625</ele>
        <time>2021-07-25T09:52:47.000Z</time>
      </trkpt>
      <trkpt lat="-11.918630786240100860595703125" lon="-76.5583440475165843963623046875">
        <ele>1301.4000244140625</ele>
        <time>2021-07-25T09:52:54.000Z</time>
      </trkpt>
      <trkpt lat="-11.91860572434961795806884765625" lon="-76.558276824653148651123046875">
        <ele>1301.800048828125</ele>
        <time>2021-07-25T09:52:56.000Z</time>
      </trkpt>
      <trkpt lat="-11.91854721866548061370849609375" lon="-76.5581435523927211761474609375">
        <ele>1302.5999755859375</ele>
        <time>2021-07-25T09:53:00.000Z</time>
      </trkpt>
      <trkpt lat="-11.91847597248852252960205078125" lon="-76.5579899959266185760498046875">
        <ele>1303.4000244140625</ele>
        <time>2021-07-25T09:53:05.000Z</time>
      </trkpt>
      <trkpt lat="-11.918463148176670074462890625" lon="-76.55796057544648647308349609375">
        <ele>1303.5999755859375</ele>
        <time>2021-07-25T09:53:06.000Z</time>
      </trkpt>
      <trkpt lat="-11.9183768145740032196044921875" lon="-76.55778958462178707122802734375">
        <ele>1304.5999755859375</ele>
        <time>2021-07-25T09:53:12.000Z</time>
      </trkpt>
      <trkpt lat="-11.91836290061473846435546875" lon="-76.55775957740843296051025390625">
        <ele>1304.800048828125</ele>
        <time>2021-07-25T09:53:13.000Z</time>
      </trkpt>
      <trkpt lat="-11.91828654147684574127197265625" lon="-76.557568721473217010498046875">
        <ele>1305.800048828125</ele>
        <time>2021-07-25T09:53:19.000Z</time>
      </trkpt>
      <trkpt lat="-11.91820221953094005584716796875" lon="-76.55737233348190784454345703125">
        <ele>1306.800048828125</ele>
        <time>2021-07-25T09:53:26.000Z</time>
      </trkpt>
      <trkpt lat="-11.9181642495095729827880859375" lon="-76.55725481919944286346435546875">
        <ele>1307.800048828125</ele>
        <time>2021-07-25T09:53:32.000Z</time>
      </trkpt>
      <trkpt lat="-11.9181369245052337646484375" lon="-76.55724492855370044708251953125">
        <ele>1307.5999755859375</ele>
        <time>2021-07-25T09:54:45.000Z</time>
      </trkpt>
      <trkpt lat="-11.91812979988753795623779296875" lon="-76.5572295896708965301513671875">
        <ele>1307.5999755859375</ele>
        <time>2021-07-25T09:54:46.000Z</time>
      </trkpt>
      <trkpt lat="-11.91812150180339813232421875" lon="-76.5572104789316654205322265625">
        <ele>1307.800048828125</ele>
        <time>2021-07-25T09:54:47.000Z</time>
      </trkpt>
      <trkpt lat="-11.918111778795719146728515625" lon="-76.5571896918118000030517578125">
        <ele>1307.800048828125</ele>
        <time>2021-07-25T09:54:48.000Z</time>
      </trkpt>
      <trkpt lat="-11.918075568974018096923828125" lon="-76.557066477835178375244140625">
        <ele>1308.199951171875</ele>
        <time>2021-07-25T09:54:52.000Z</time>
      </trkpt>
      <trkpt lat="-11.91801899112761020660400390625" lon="-76.55691535212099552154541015625">
        <ele>1308.800048828125</ele>
        <time>2021-07-25T09:54:57.000Z</time>
      </trkpt>
      <trkpt lat="-11.91798730753362178802490234375" lon="-76.556826420128345489501953125">
        <ele>1309.4000244140625</ele>
        <time>2021-07-25T09:55:00.000Z</time>
      </trkpt>
      <trkpt lat="-11.9179530255496501922607421875" lon="-76.5567404218018054962158203125">
        <ele>1310</ele>
        <time>2021-07-25T09:55:03.000Z</time>
      </trkpt>
      <trkpt lat="-11.917869038879871368408203125" lon="-76.55655543319880962371826171875">
        <ele>1310.800048828125</ele>
        <time>2021-07-25T09:55:10.000Z</time>
      </trkpt>
      <trkpt lat="-11.91785789094865322113037109375" lon="-76.55653364025056362152099609375">
        <ele>1311</ele>
        <time>2021-07-25T09:55:11.000Z</time>
      </trkpt>
      <trkpt lat="-11.9177776761353015899658203125" lon="-76.55636700801551342010498046875">
        <ele>1312</ele>
        <time>2021-07-25T09:55:18.000Z</time>
      </trkpt>
      <trkpt lat="-11.9176475889980792999267578125" lon="-76.55617271549999713897705078125">
        <ele>1311.800048828125</ele>
        <time>2021-07-25T09:55:26.000Z</time>
      </trkpt>
      <trkpt lat="-11.917521022260189056396484375" lon="-76.5560026466846466064453125">
        <ele>1312</ele>
        <time>2021-07-25T09:55:32.000Z</time>
      </trkpt>
      <trkpt lat="-11.9174990616738796234130859375" lon="-76.55597624368965625762939453125">
        <ele>1312.199951171875</ele>
        <time>2021-07-25T09:55:33.000Z</time>
      </trkpt>
      <trkpt lat="-11.91733972169458866119384765625" lon="-76.55575714074075222015380859375">
        <ele>1313</ele>
        <time>2021-07-25T09:55:41.000Z</time>
      </trkpt>
      <trkpt lat="-11.91731608472764492034912109375" lon="-76.5557034127414226531982421875">
        <ele>1313.4000244140625</ele>
        <time>2021-07-25T09:55:43.000Z</time>
      </trkpt>
      <trkpt lat="-11.91724869422614574432373046875" lon="-76.55552362091839313507080078125">
        <ele>1314.199951171875</ele>
        <time>2021-07-25T09:55:49.000Z</time>
      </trkpt>
      <trkpt lat="-11.917241401970386505126953125" lon="-76.555493362247943878173828125">
        <ele>1314.4000244140625</ele>
        <time>2021-07-25T09:55:50.000Z</time>
      </trkpt>
      <trkpt lat="-11.917191445827484130859375" lon="-76.55529915355145931243896484375">
        <ele>1315.5999755859375</ele>
        <time>2021-07-25T09:55:57.000Z</time>
      </trkpt>
      <trkpt lat="-11.917177699506282806396484375" lon="-76.5552410669624805450439453125">
        <ele>1316</ele>
        <time>2021-07-25T09:55:59.000Z</time>
      </trkpt>
      <trkpt lat="-11.91714777611196041107177734375" lon="-76.5551269054412841796875">
        <ele>1316.800048828125</ele>
        <time>2021-07-25T09:56:03.000Z</time>
      </trkpt>
      <trkpt lat="-11.9171265698969364166259765625" lon="-76.5550090558826923370361328125">
        <ele>1317.199951171875</ele>
        <time>2021-07-25T09:56:07.000Z</time>
      </trkpt>
      <trkpt lat="-11.9170947186648845672607421875" lon="-76.5548903681337833404541015625">
        <ele>1317.800048828125</ele>
        <time>2021-07-25T09:56:11.000Z</time>
      </trkpt>
      <trkpt lat="-11.91705666482448577880859375" lon="-76.5547482110559940338134765625">
        <ele>1318.4000244140625</ele>
        <time>2021-07-25T09:56:16.000Z</time>
      </trkpt>
      <trkpt lat="-11.917040236294269561767578125" lon="-76.55465290881693363189697265625">
        <ele>1318.800048828125</ele>
        <time>2021-07-25T09:56:19.000Z</time>
      </trkpt>
      <trkpt lat="-11.91699338145554065704345703125" lon="-76.5544219873845577239990234375">
        <ele>1319.4000244140625</ele>
        <time>2021-07-25T09:56:26.000Z</time>
      </trkpt>
      <trkpt lat="-11.91692817024886608123779296875" lon="-76.554158292710781097412109375">
        <ele>1319.5999755859375</ele>
        <time>2021-07-25T09:56:33.000Z</time>
      </trkpt>
      <trkpt lat="-11.916782744228839874267578125" lon="-76.55384757556021213531494140625">
        <ele>1319.4000244140625</ele>
        <time>2021-07-25T09:56:41.000Z</time>
      </trkpt>
      <trkpt lat="-11.9165730290114879608154296875" lon="-76.5535817854106426239013671875">
        <ele>1317.800048828125</ele>
        <time>2021-07-25T09:56:47.000Z</time>
      </trkpt>
      <trkpt lat="-11.916531622409820556640625" lon="-76.553531996905803680419921875">
        <ele>1317.4000244140625</ele>
        <time>2021-07-25T09:56:48.000Z</time>
      </trkpt>
      <trkpt lat="-11.91639005206525325775146484375" lon="-76.553377769887447357177734375">
        <ele>1316.199951171875</ele>
        <time>2021-07-25T09:56:51.000Z</time>
      </trkpt>
      <trkpt lat="-11.91627890802919864654541015625" lon="-76.5532689727842807769775390625">
        <ele>1315.199951171875</ele>
        <time>2021-07-25T09:56:53.000Z</time>
      </trkpt>
      <trkpt lat="-11.91622073762118816375732421875" lon="-76.55321239493787288665771484375">
        <ele>1315</ele>
        <time>2021-07-25T09:56:54.000Z</time>
      </trkpt>
      <trkpt lat="-11.91605460830032825469970703125" lon="-76.5530265681445598602294921875">
        <ele>1313.800048828125</ele>
        <time>2021-07-25T09:56:57.000Z</time>
      </trkpt>
      <trkpt lat="-11.91590599715709686279296875" lon="-76.5528435073792934417724609375">
        <ele>1313.5999755859375</ele>
        <time>2021-07-25T09:57:00.000Z</time>
      </trkpt>
      <trkpt lat="-11.91576392389833927154541015625" lon="-76.55263991095125675201416015625">
        <ele>1314.199951171875</ele>
        <time>2021-07-25T09:57:04.000Z</time>
      </trkpt>
      <trkpt lat="-11.915689408779144287109375" lon="-76.5525102429091930389404296875">
        <ele>1315</ele>
        <time>2021-07-25T09:57:07.000Z</time>
      </trkpt>
      <trkpt lat="-11.915624029934406280517578125" lon="-76.55234076082706451416015625">
        <ele>1316.199951171875</ele>
        <time>2021-07-25T09:57:11.000Z</time>
      </trkpt>
      <trkpt lat="-11.91552244126796722412109375" lon="-76.5521107614040374755859375">
        <ele>1317.199951171875</ele>
        <time>2021-07-25T09:57:17.000Z</time>
      </trkpt>
      <trkpt lat="-11.91549218259751796722412109375" lon="-76.55204035341739654541015625">
        <ele>1317.5999755859375</ele>
        <time>2021-07-25T09:57:19.000Z</time>
      </trkpt>
      <trkpt lat="-11.915415488183498382568359375" lon="-76.5518755652010440826416015625">
        <ele>1318.5999755859375</ele>
        <time>2021-07-25T09:57:24.000Z</time>
      </trkpt>
      <trkpt lat="-11.91536611877381801605224609375" lon="-76.551746986806392669677734375">
        <ele>1319</ele>
        <time>2021-07-25T09:57:28.000Z</time>
      </trkpt>
      <trkpt lat="-11.91532689146697521209716796875" lon="-76.551648080348968505859375">
        <ele>1319.5999755859375</ele>
        <time>2021-07-25T09:57:31.000Z</time>
      </trkpt>
      <trkpt lat="-11.91525581292808055877685546875" lon="-76.551478095352649688720703125">
        <ele>1320.5999755859375</ele>
        <time>2021-07-25T09:57:36.000Z</time>
      </trkpt>
      <trkpt lat="-11.91524080932140350341796875" lon="-76.5514444001019001007080078125">
        <ele>1320.5999755859375</ele>
        <time>2021-07-25T09:57:37.000Z</time>
      </trkpt>
      <trkpt lat="-11.91514768637716770172119140625" lon="-76.55122093856334686279296875">
        <ele>1321.800048828125</ele>
        <time>2021-07-25T09:57:44.000Z</time>
      </trkpt>
      <trkpt lat="-11.9151357002556324005126953125" lon="-76.55118866823613643646240234375">
        <ele>1322</ele>
        <time>2021-07-25T09:57:45.000Z</time>
      </trkpt>
      <trkpt lat="-11.9150622747838497161865234375" lon="-76.55102538876235485076904296875">
        <ele>1323</ele>
        <time>2021-07-25T09:57:50.000Z</time>
      </trkpt>
      <trkpt lat="-11.91500938497483730316162109375" lon="-76.55090049840509891510009765625">
        <ele>1323.4000244140625</ele>
        <time>2021-07-25T09:57:54.000Z</time>
      </trkpt>
      <trkpt lat="-11.9149596802890300750732421875" lon="-76.5507709980010986328125">
        <ele>1324</ele>
        <time>2021-07-25T09:57:58.000Z</time>
      </trkpt>
      <trkpt lat="-11.91491626203060150146484375" lon="-76.55064501799643039703369140625">
        <ele>1324.800048828125</ele>
        <time>2021-07-25T09:58:02.000Z</time>
      </trkpt>
      <trkpt lat="-11.91489539109170436859130859375" lon="-76.55058064498007297515869140625">
        <ele>1325.4000244140625</ele>
        <time>2021-07-25T09:58:04.000Z</time>
      </trkpt>
      <trkpt lat="-11.914838813245296478271484375" lon="-76.55038635246455669403076171875">
        <ele>1326.199951171875</ele>
        <time>2021-07-25T09:58:10.000Z</time>
      </trkpt>
      <trkpt lat="-11.91483118571341037750244140625" lon="-76.55035617761313915252685546875">
        <ele>1326.4000244140625</ele>
        <time>2021-07-25T09:58:11.000Z</time>
      </trkpt>
      <trkpt lat="-11.91479531116783618927001953125" lon="-76.55019440688192844390869140625">
        <ele>1327.4000244140625</ele>
        <time>2021-07-25T09:58:16.000Z</time>
      </trkpt>
      <trkpt lat="-11.9147870130836963653564453125" lon="-76.5501599572598934173583984375">
        <ele>1327.4000244140625</ele>
        <time>2021-07-25T09:58:17.000Z</time>
      </trkpt>
      <trkpt lat="-11.91473932005465030670166015625" lon="-76.54996021650731563568115234375">
        <ele>1328.5999755859375</ele>
        <time>2021-07-25T09:58:23.000Z</time>
      </trkpt>
      <trkpt lat="-11.914729513227939605712890625" lon="-76.54992685653269290924072265625">
        <ele>1328.800048828125</ele>
        <time>2021-07-25T09:58:24.000Z</time>
      </trkpt>
      <trkpt lat="-11.91467829979956150054931640625" lon="-76.54974639415740966796875">
        <ele>1329.800048828125</ele>
        <time>2021-07-25T09:58:30.000Z</time>
      </trkpt>
      <trkpt lat="-11.914656423032283782958984375" lon="-76.5496852062642574310302734375">
        <ele>1330.199951171875</ele>
        <time>2021-07-25T09:58:32.000Z</time>
      </trkpt>
      <trkpt lat="-11.914624236524105072021484375" lon="-76.54955017380416393280029296875">
        <ele>1330.800048828125</ele>
        <time>2021-07-25T09:58:36.000Z</time>
      </trkpt>
      <trkpt lat="-11.91458609886467456817626953125" lon="-76.54940717853605747222900390625">
        <ele>1331.4000244140625</ele>
        <time>2021-07-25T09:58:41.000Z</time>
      </trkpt>
      <trkpt lat="-11.91456782631576061248779296875" lon="-76.54933978803455829620361328125">
        <ele>1332</ele>
        <time>2021-07-25T09:58:43.000Z</time>
      </trkpt>
      <trkpt lat="-11.91451393067836761474609375" lon="-76.54913728125393390655517578125">
        <ele>1333</ele>
        <time>2021-07-25T09:58:49.000Z</time>
      </trkpt>
      <trkpt lat="-11.91450395621359348297119140625" lon="-76.54910140670835971832275390625">
        <ele>1333.199951171875</ele>
        <time>2021-07-25T09:58:50.000Z</time>
      </trkpt>
      <trkpt lat="-11.91446389071643352508544921875" lon="-76.54892572201788425445556640625">
        <ele>1334.199951171875</ele>
        <time>2021-07-25T09:58:55.000Z</time>
      </trkpt>
      <trkpt lat="-11.914436817169189453125" lon="-76.54882195405662059783935546875">
        <ele>1334.5999755859375</ele>
        <time>2021-07-25T09:58:58.000Z</time>
      </trkpt>
      <trkpt lat="-11.91439666785299777984619140625" lon="-76.5486743487417697906494140625">
        <ele>1335.199951171875</ele>
        <time>2021-07-25T09:59:02.000Z</time>
      </trkpt>
      <trkpt lat="-11.91435123793780803680419921875" lon="-76.548482738435268402099609375">
        <ele>1335.800048828125</ele>
        <time>2021-07-25T09:59:07.000Z</time>
      </trkpt>
      <trkpt lat="-11.91431150771677494049072265625" lon="-76.54833530075848102569580078125">
        <ele>1336.199951171875</ele>
        <time>2021-07-25T09:59:11.000Z</time>
      </trkpt>
      <trkpt lat="-11.9142646528780460357666015625" lon="-76.548145450651645660400390625">
        <ele>1336.800048828125</ele>
        <time>2021-07-25T09:59:16.000Z</time>
      </trkpt>
      <trkpt lat="-11.91423171199858188629150390625" lon="-76.5480353124439716339111328125">
        <ele>1337.4000244140625</ele>
        <time>2021-07-25T09:59:19.000Z</time>
      </trkpt>
      <trkpt lat="-11.914157867431640625" lon="-76.5477647446095943450927734375">
        <ele>1338</ele>
        <time>2021-07-25T09:59:26.000Z</time>
      </trkpt>
      <trkpt lat="-11.91413976252079010009765625" lon="-76.54769307933747768402099609375">
        <ele>1338.4000244140625</ele>
        <time>2021-07-25T09:59:28.000Z</time>
      </trkpt>
      <trkpt lat="-11.91406826488673686981201171875" lon="-76.54742603190243244171142578125">
        <ele>1339</ele>
        <time>2021-07-25T09:59:35.000Z</time>
      </trkpt>
      <trkpt lat="-11.91403171978890895843505859375" lon="-76.54727272689342498779296875">
        <ele>1339.5999755859375</ele>
        <time>2021-07-25T09:59:39.000Z</time>
      </trkpt>
      <trkpt lat="-11.91398008726537227630615234375" lon="-76.547087319195270538330078125">
        <ele>1340.199951171875</ele>
        <time>2021-07-25T09:59:44.000Z</time>
      </trkpt>
      <trkpt lat="-11.91393767483532428741455078125" lon="-76.54693686403334140777587890625">
        <ele>1340.800048828125</ele>
        <time>2021-07-25T09:59:48.000Z</time>
      </trkpt>
      <trkpt lat="-11.91391286440193653106689453125" lon="-76.54682890512049198150634765625">
        <ele>1341</ele>
        <time>2021-07-25T09:59:51.000Z</time>
      </trkpt>
      <trkpt lat="-11.91386441700160503387451171875" lon="-76.54664768837392330169677734375">
        <ele>1341.800048828125</ele>
        <time>2021-07-25T09:59:56.000Z</time>
      </trkpt>
      <trkpt lat="-11.91384949721395969390869140625" lon="-76.54657241888344287872314453125">
        <ele>1342</ele>
        <time>2021-07-25T09:59:58.000Z</time>
      </trkpt>
      <trkpt lat="-11.9137909077107906341552734375" lon="-76.5463582612574100494384765625">
        <ele>1343</ele>
        <time>2021-07-25T10:00:04.000Z</time>
      </trkpt>
      <trkpt lat="-11.91378571093082427978515625" lon="-76.5463233925402164459228515625">
        <ele>1343</ele>
        <time>2021-07-25T10:00:05.000Z</time>
      </trkpt>
      <trkpt lat="-11.913743130862712860107421875" lon="-76.54615231789648532867431640625">
        <ele>1344</ele>
        <time>2021-07-25T10:00:10.000Z</time>
      </trkpt>
      <trkpt lat="-11.9137178175151348114013671875" lon="-76.54605475254356861114501953125">
        <ele>1344.4000244140625</ele>
        <time>2021-07-25T10:00:13.000Z</time>
      </trkpt>
      <trkpt lat="-11.913694180548191070556640625" lon="-76.5459559299051761627197265625">
        <ele>1345</ele>
        <time>2021-07-25T10:00:16.000Z</time>
      </trkpt>
      <trkpt lat="-11.9136536121368408203125" lon="-76.545787788927555084228515625">
        <ele>1346</ele>
        <time>2021-07-25T10:00:21.000Z</time>
      </trkpt>
      <trkpt lat="-11.91364330239593982696533203125" lon="-76.545755602419376373291015625">
        <ele>1346.199951171875</ele>
        <time>2021-07-25T10:00:22.000Z</time>
      </trkpt>
      <trkpt lat="-11.91361161880195140838623046875" lon="-76.54563213698565959930419921875">
        <ele>1347.199951171875</ele>
        <time>2021-07-25T10:00:26.000Z</time>
      </trkpt>
      <trkpt lat="-11.9136011414229869842529296875" lon="-76.54559902846813201904296875">
        <ele>1347.4000244140625</ele>
        <time>2021-07-25T10:00:27.000Z</time>
      </trkpt>
      <trkpt lat="-11.91356099210679531097412109375" lon="-76.5454402752220630645751953125">
        <ele>1348.4000244140625</ele>
        <time>2021-07-25T10:00:32.000Z</time>
      </trkpt>
      <trkpt lat="-11.91353199072182178497314453125" lon="-76.54531647451221942901611328125">
        <ele>1349.199951171875</ele>
        <time>2021-07-25T10:00:36.000Z</time>
      </trkpt>
      <trkpt lat="-11.91351707093417644500732421875" lon="-76.5452568791806697845458984375">
        <ele>1349.4000244140625</ele>
        <time>2021-07-25T10:00:38.000Z</time>
      </trkpt>
      <trkpt lat="-11.913472898304462432861328125" lon="-76.54510089196264743804931640625">
        <ele>1350.5999755859375</ele>
        <time>2021-07-25T10:00:43.000Z</time>
      </trkpt>
      <trkpt lat="-11.91346510313451290130615234375" lon="-76.54507088474929332733154296875">
        <ele>1350.800048828125</ele>
        <time>2021-07-25T10:00:44.000Z</time>
      </trkpt>
      <trkpt lat="-11.913432665169239044189453125" lon="-76.54495236463844776153564453125">
        <ele>1351.5999755859375</ele>
        <time>2021-07-25T10:00:48.000Z</time>
      </trkpt>
      <trkpt lat="-11.9133885763585567474365234375" lon="-76.5448273904621601104736328125">
        <ele>1352.5999755859375</ele>
        <time>2021-07-25T10:00:52.000Z</time>
      </trkpt>
      <trkpt lat="-11.913367621600627899169921875" lon="-76.54476477764546871185302734375">
        <ele>1353</ele>
        <time>2021-07-25T10:00:54.000Z</time>
      </trkpt>
      <trkpt lat="-11.91327231936156749725341796875" lon="-76.54458121396601200103759765625">
        <ele>1353.5999755859375</ele>
        <time>2021-07-25T10:01:00.000Z</time>
      </trkpt>
      <trkpt lat="-11.91312865354120731353759765625" lon="-76.54433512128889560699462890625">
        <ele>1354.4000244140625</ele>
        <time>2021-07-25T10:01:08.000Z</time>
      </trkpt>
      <trkpt lat="-11.91308976151049137115478515625" lon="-76.54426873661577701568603515625">
        <ele>1354.5999755859375</ele>
        <time>2021-07-25T10:01:10.000Z</time>
      </trkpt>
      <trkpt lat="-11.91297023557126522064208984375" lon="-76.54408198781311511993408203125">
        <ele>1355.199951171875</ele>
        <time>2021-07-25T10:01:16.000Z</time>
      </trkpt>
      <trkpt lat="-11.91291525028645992279052734375" lon="-76.5439863502979278564453125">
        <ele>1355.800048828125</ele>
        <time>2021-07-25T10:01:19.000Z</time>
      </trkpt>
      <trkpt lat="-11.912772171199321746826171875" lon="-76.5437444485723972320556640625">
        <ele>1356.800048828125</ele>
        <time>2021-07-25T10:01:27.000Z</time>
      </trkpt>
      <trkpt lat="-11.91275515593588352203369140625" lon="-76.543715782463550567626953125">
        <ele>1357</ele>
        <time>2021-07-25T10:01:28.000Z</time>
      </trkpt>
      <trkpt lat="-11.91266748122870922088623046875" lon="-76.54357622377574443817138671875">
        <ele>1358</ele>
        <time>2021-07-25T10:01:33.000Z</time>
      </trkpt>
      <trkpt lat="-11.9126499630510807037353515625" lon="-76.54355040751397609710693359375">
        <ele>1358</ele>
        <time>2021-07-25T10:01:34.000Z</time>
      </trkpt>
      <trkpt lat="-11.9125544093549251556396484375" lon="-76.54339249245822429656982421875">
        <ele>1359.199951171875</ele>
        <time>2021-07-25T10:01:40.000Z</time>
      </trkpt>
      <trkpt lat="-11.91252230666577816009521484375" lon="-76.54334153048694133758544921875">
        <ele>1359.5999755859375</ele>
        <time>2021-07-25T10:01:42.000Z</time>
      </trkpt>
      <trkpt lat="-11.91246631555259227752685546875" lon="-76.5432438813149929046630859375">
        <ele>1360.199951171875</ele>
        <time>2021-07-25T10:01:46.000Z</time>
      </trkpt>
      <trkpt lat="-11.91242222674190998077392578125" lon="-76.54316634871065616607666015625">
        <ele>1360.800048828125</ele>
        <time>2021-07-25T10:01:49.000Z</time>
      </trkpt>
      <trkpt lat="-11.91239339299499988555908203125" lon="-76.543118990957736968994140625">
        <ele>1361.4000244140625</ele>
        <time>2021-07-25T10:01:51.000Z</time>
      </trkpt>
      <trkpt lat="-11.9123244099318981170654296875" lon="-76.54300256632268428802490234375">
        <ele>1362.4000244140625</ele>
        <time>2021-07-25T10:01:56.000Z</time>
      </trkpt>
      <trkpt lat="-11.91230990923941135406494140625" lon="-76.54297943226993083953857421875">
        <ele>1362.5999755859375</ele>
        <time>2021-07-25T10:01:57.000Z</time>
      </trkpt>
      <trkpt lat="-11.91225660033524036407470703125" lon="-76.54288739897310733795166015625">
        <ele>1363.5999755859375</ele>
        <time>2021-07-25T10:02:01.000Z</time>
      </trkpt>
      <trkpt lat="-11.91217294894158840179443359375" lon="-76.54275010339915752410888671875">
        <ele>1364.5999755859375</ele>
        <time>2021-07-25T10:02:07.000Z</time>
      </trkpt>
      <trkpt lat="-11.9121581129729747772216796875" lon="-76.54272479005157947540283203125">
        <ele>1364.800048828125</ele>
        <time>2021-07-25T10:02:08.000Z</time>
      </trkpt>
      <trkpt lat="-11.912084855139255523681640625" lon="-76.54260057024657726287841796875">
        <ele>1366</ele>
        <time>2021-07-25T10:02:13.000Z</time>
      </trkpt>
      <trkpt lat="-11.91202827729284763336181640625" lon="-76.54250334016978740692138671875">
        <ele>1366.800048828125</ele>
        <time>2021-07-25T10:02:17.000Z</time>
      </trkpt>
      <trkpt lat="-11.91199801862239837646484375" lon="-76.5424556471407413482666015625">
        <ele>1367.199951171875</ele>
        <time>2021-07-25T10:02:19.000Z</time>
      </trkpt>
      <trkpt lat="-11.9119344837963581085205078125" lon="-76.5423537231981754302978515625">
        <ele>1368.199951171875</ele>
        <time>2021-07-25T10:02:23.000Z</time>
      </trkpt>
      <trkpt lat="-11.91188561730086803436279296875" lon="-76.54227971099317073822021484375">
        <ele>1368.800048828125</ele>
        <time>2021-07-25T10:02:26.000Z</time>
      </trkpt>
      <trkpt lat="-11.91182141192257404327392578125" lon="-76.5421743504703044891357421875">
        <ele>1369.4000244140625</ele>
        <time>2021-07-25T10:02:30.000Z</time>
      </trkpt>
      <trkpt lat="-11.91173993982374668121337890625" lon="-76.54203982092440128326416015625">
        <ele>1370</ele>
        <time>2021-07-25T10:02:35.000Z</time>
      </trkpt>
      <trkpt lat="-11.91163416020572185516357421875" lon="-76.54186815954744815826416015625">
        <ele>1370.5999755859375</ele>
        <time>2021-07-25T10:02:41.000Z</time>
      </trkpt>
      <trkpt lat="-11.9115936756134033203125" lon="-76.54180646874010562896728515625">
        <ele>1370.5999755859375</ele>
        <time>2021-07-25T10:02:43.000Z</time>
      </trkpt>
      <trkpt lat="-11.91140885464847087860107421875" lon="-76.54157395474612712860107421875">
        <ele>1371</ele>
        <time>2021-07-25T10:02:51.000Z</time>
      </trkpt>
      <trkpt lat="-11.9111415557563304901123046875" lon="-76.5412939153611660003662109375">
        <ele>1371.5999755859375</ele>
        <time>2021-07-25T10:03:01.000Z</time>
      </trkpt>
      <trkpt lat="-11.91096461378037929534912109375" lon="-76.541099958121776580810546875">
        <ele>1372</ele>
        <time>2021-07-25T10:03:08.000Z</time>
      </trkpt>
      <trkpt lat="-11.9107764400541782379150390625" lon="-76.54088781215250492095947265625">
        <ele>1372.5999755859375</ele>
        <time>2021-07-25T10:03:16.000Z</time>
      </trkpt>
      <trkpt lat="-11.91076043061912059783935546875" lon="-76.5408642590045928955078125">
        <ele>1372.5999755859375</ele>
        <time>2021-07-25T10:03:17.000Z</time>
      </trkpt>
      <trkpt lat="-11.91070913337171077728271484375" lon="-76.54076593928039073944091796875">
        <ele>1372.800048828125</ele>
        <time>2021-07-25T10:03:22.000Z</time>
      </trkpt>
      <trkpt lat="-11.910614669322967529296875" lon="-76.5407152287662029266357421875">
        <ele>1372.4000244140625</ele>
        <time>2021-07-25T10:13:47.000Z</time>
      </trkpt>
      <trkpt lat="-11.91060687415301799774169921875" lon="-76.54070106334984302520751953125">
        <ele>1372.5999755859375</ele>
        <time>2021-07-25T10:13:48.000Z</time>
      </trkpt>
      <trkpt lat="-11.91059061326086521148681640625" lon="-76.5406679548323154449462890625">
        <ele>1372.4000244140625</ele>
        <time>2021-07-25T10:13:50.000Z</time>
      </trkpt>
      <trkpt lat="-11.91049774177372455596923828125" lon="-76.54058136977255344390869140625">
        <ele>1372.800048828125</ele>
        <time>2021-07-25T10:13:56.000Z</time>
      </trkpt>
      <trkpt lat="-11.91046111285686492919921875" lon="-76.54054683633148670196533203125">
        <ele>1372.800048828125</ele>
        <time>2021-07-25T10:13:58.000Z</time>
      </trkpt>
      <trkpt lat="-11.9103479571640491485595703125" lon="-76.5404258854687213897705078125">
        <ele>1373.199951171875</ele>
        <time>2021-07-25T10:14:04.000Z</time>
      </trkpt>
      <trkpt lat="-11.91019649617373943328857421875" lon="-76.5402569063007831573486328125">
        <ele>1373.800048828125</ele>
        <time>2021-07-25T10:14:11.000Z</time>
      </trkpt>
      <trkpt lat="-11.91017235629260540008544921875" lon="-76.54023301787674427032470703125">
        <ele>1373.800048828125</ele>
        <time>2021-07-25T10:14:12.000Z</time>
      </trkpt>
      <trkpt lat="-11.90998879261314868927001953125" lon="-76.540031097829341888427734375">
        <ele>1374.199951171875</ele>
        <time>2021-07-25T10:14:20.000Z</time>
      </trkpt>
      <trkpt lat="-11.90985250286757946014404296875" lon="-76.53986773453652858734130859375">
        <ele>1374.800048828125</ele>
        <time>2021-07-25T10:14:26.000Z</time>
      </trkpt>
      <trkpt lat="-11.90983154810965061187744140625" lon="-76.53984191827476024627685546875">
        <ele>1374.800048828125</ele>
        <time>2021-07-25T10:14:27.000Z</time>
      </trkpt>
      <trkpt lat="-11.90966072492301464080810546875" lon="-76.5395766310393810272216796875">
        <ele>1375.4000244140625</ele>
        <time>2021-07-25T10:14:36.000Z</time>
      </trkpt>
      <trkpt lat="-11.90957757644355297088623046875" lon="-76.53943439014256000518798828125">
        <ele>1375.800048828125</ele>
        <time>2021-07-25T10:14:40.000Z</time>
      </trkpt>
      <trkpt lat="-11.90950264222919940948486328125" lon="-76.53930296190083026885986328125">
        <ele>1376.199951171875</ele>
        <time>2021-07-25T10:14:44.000Z</time>
      </trkpt>
      <trkpt lat="-11.9094859622418880462646484375" lon="-76.53926909901201725006103515625">
        <ele>1376.4000244140625</ele>
        <time>2021-07-25T10:14:45.000Z</time>
      </trkpt>
      <trkpt lat="-11.9094155542552471160888671875" lon="-76.53913767077028751373291015625">
        <ele>1377</ele>
        <time>2021-07-25T10:14:49.000Z</time>
      </trkpt>
      <trkpt lat="-11.90933718346059322357177734375" lon="-76.53901143930852413177490234375">
        <ele>1377.199951171875</ele>
        <time>2021-07-25T10:14:53.000Z</time>
      </trkpt>
      <trkpt lat="-11.9091674499213695526123046875" lon="-76.53871254064142704010009765625">
        <ele>1378</ele>
        <time>2021-07-25T10:15:02.000Z</time>
      </trkpt>
      <trkpt lat="-11.90914859063923358917236328125" lon="-76.53868303634226322174072265625">
        <ele>1378</ele>
        <time>2021-07-25T10:15:03.000Z</time>
      </trkpt>
      <trkpt lat="-11.90901481546461582183837890625" lon="-76.5384323336184024810791015625">
        <ele>1378.800048828125</ele>
        <time>2021-07-25T10:15:11.000Z</time>
      </trkpt>
      <trkpt lat="-11.90897558815777301788330078125" lon="-76.53837407939136028289794921875">
        <ele>1379.199951171875</ele>
        <time>2021-07-25T10:15:13.000Z</time>
      </trkpt>
      <trkpt lat="-11.9089102931320667266845703125" lon="-76.53824449516832828521728515625">
        <ele>1379.4000244140625</ele>
        <time>2021-07-25T10:15:17.000Z</time>
      </trkpt>
      <trkpt lat="-11.908836700022220611572265625" lon="-76.53812429867684841156005859375">
        <ele>1379.800048828125</ele>
        <time>2021-07-25T10:15:21.000Z</time>
      </trkpt>
      <trkpt lat="-11.9087733328342437744140625" lon="-76.53803846798837184906005859375">
        <ele>1380</ele>
        <time>2021-07-25T10:15:24.000Z</time>
      </trkpt>
      <trkpt lat="-11.90870703198015689849853515625" lon="-76.53795540332794189453125">
        <ele>1380.199951171875</ele>
        <time>2021-07-25T10:15:27.000Z</time>
      </trkpt>
      <trkpt lat="-11.9086222909390926361083984375" lon="-76.53785255737602710723876953125">
        <ele>1380.800048828125</ele>
        <time>2021-07-25T10:15:31.000Z</time>
      </trkpt>
      <trkpt lat="-11.908525563776493072509765625" lon="-76.5377611108124256134033203125">
        <ele>1381.4000244140625</ele>
        <time>2021-07-25T10:15:35.000Z</time>
      </trkpt>
      <trkpt lat="-11.90845456905663013458251953125" lon="-76.537688188254833221435546875">
        <ele>1381.800048828125</ele>
        <time>2021-07-25T10:15:38.000Z</time>
      </trkpt>
      <trkpt lat="-11.90834753215312957763671875" lon="-76.53759556822478771209716796875">
        <ele>1382.4000244140625</ele>
        <time>2021-07-25T10:15:42.000Z</time>
      </trkpt>
      <trkpt lat="-11.908297240734100341796875" lon="-76.5375529043376445770263671875">
        <ele>1382.5999755859375</ele>
        <time>2021-07-25T10:15:44.000Z</time>
      </trkpt>
      <trkpt lat="-11.90812759101390838623046875" lon="-76.537403203547000885009765625">
        <ele>1383.5999755859375</ele>
        <time>2021-07-25T10:15:51.000Z</time>
      </trkpt>
      <trkpt lat="-11.90810286439955234527587890625" lon="-76.5373788960278034210205078125">
        <ele>1383.800048828125</ele>
        <time>2021-07-25T10:15:52.000Z</time>
      </trkpt>
      <trkpt lat="-11.9079668261110782623291015625" lon="-76.537259705364704132080078125">
        <ele>1384.5999755859375</ele>
        <time>2021-07-25T10:15:58.000Z</time>
      </trkpt>
      <trkpt lat="-11.90794444642961025238037109375" lon="-76.5372377447783946990966796875">
        <ele>1384.800048828125</ele>
        <time>2021-07-25T10:15:59.000Z</time>
      </trkpt>
      <trkpt lat="-11.90783263184130191802978515625" lon="-76.5371398441493511199951171875">
        <ele>1385.5999755859375</ele>
        <time>2021-07-25T10:16:04.000Z</time>
      </trkpt>
      <trkpt lat="-11.907748393714427947998046875" lon="-76.53705711476504802703857421875">
        <ele>1386.199951171875</ele>
        <time>2021-07-25T10:16:08.000Z</time>
      </trkpt>
      <trkpt lat="-11.9077058136463165283203125" lon="-76.53701587580144405364990234375">
        <ele>1386.5999755859375</ele>
        <time>2021-07-25T10:16:10.000Z</time>
      </trkpt>
      <trkpt lat="-11.90760363824665546417236328125" lon="-76.53691646642982959747314453125">
        <ele>1387.4000244140625</ele>
        <time>2021-07-25T10:16:15.000Z</time>
      </trkpt>
      <trkpt lat="-11.907557956874370574951171875" lon="-76.536878161132335662841796875">
        <ele>1387.800048828125</ele>
        <time>2021-07-25T10:16:17.000Z</time>
      </trkpt>
      <trkpt lat="-11.9074347428977489471435546875" lon="-76.536756120622158050537109375">
        <ele>1388.800048828125</ele>
        <time>2021-07-25T10:16:23.000Z</time>
      </trkpt>
      <trkpt lat="-11.90739694051444530487060546875" lon="-76.5367148816585540771484375">
        <ele>1389</ele>
        <time>2021-07-25T10:16:25.000Z</time>
      </trkpt>
      <trkpt lat="-11.90730976872146129608154296875" lon="-76.53662628494203090667724609375">
        <ele>1390</ele>
        <time>2021-07-25T10:16:30.000Z</time>
      </trkpt>
      <trkpt lat="-11.90724522806704044342041015625" lon="-76.53653659857809543609619140625">
        <ele>1390.5999755859375</ele>
        <time>2021-07-25T10:16:34.000Z</time>
      </trkpt>
      <trkpt lat="-11.90721387974917888641357421875" lon="-76.536493599414825439453125">
        <ele>1391.199951171875</ele>
        <time>2021-07-25T10:16:36.000Z</time>
      </trkpt>
      <trkpt lat="-11.9071081839501857757568359375" lon="-76.53633560054004192352294921875">
        <ele>1392.199951171875</ele>
        <time>2021-07-25T10:16:43.000Z</time>
      </trkpt>
      <trkpt lat="-11.90702277235686779022216796875" lon="-76.5361514501273632049560546875">
        <ele>1393</ele>
        <time>2021-07-25T10:16:50.000Z</time>
      </trkpt>
      <trkpt lat="-11.90699846483767032623291015625" lon="-76.536098979413509368896484375">
        <ele>1393.4000244140625</ele>
        <time>2021-07-25T10:16:52.000Z</time>
      </trkpt>
      <trkpt lat="-11.90692420117557048797607421875" lon="-76.535894460976123809814453125">
        <ele>1394.199951171875</ele>
        <time>2021-07-25T10:16:59.000Z</time>
      </trkpt>
      <trkpt lat="-11.90690207295119762420654296875" lon="-76.535840816795825958251953125">
        <ele>1394.4000244140625</ele>
        <time>2021-07-25T10:17:01.000Z</time>
      </trkpt>
      <trkpt lat="-11.906849183142185211181640625" lon="-76.53569270856678485870361328125">
        <ele>1395</ele>
        <time>2021-07-25T10:17:06.000Z</time>
      </trkpt>
      <trkpt lat="-11.90682110376656055450439453125" lon="-76.53560771606862545013427734375">
        <ele>1395.5999755859375</ele>
        <time>2021-07-25T10:17:09.000Z</time>
      </trkpt>
      <trkpt lat="-11.90677919425070285797119140625" lon="-76.53547997586429119110107421875">
        <ele>1396.199951171875</ele>
        <time>2021-07-25T10:17:14.000Z</time>
      </trkpt>
      <trkpt lat="-11.90676360391080379486083984375" lon="-76.53542884625494480133056640625">
        <ele>1396.5999755859375</ele>
        <time>2021-07-25T10:17:16.000Z</time>
      </trkpt>
      <trkpt lat="-11.9066974706947803497314453125" lon="-76.5352825820446014404296875">
        <ele>1397.5999755859375</ele>
        <time>2021-07-25T10:17:22.000Z</time>
      </trkpt>
      <trkpt lat="-11.90657467581331729888916015625" lon="-76.53509952127933502197265625">
        <ele>1398.800048828125</ele>
        <time>2021-07-25T10:17:30.000Z</time>
      </trkpt>
      <trkpt lat="-11.90647945739328861236572265625" lon="-76.534976474940776824951171875">
        <ele>1399.800048828125</ele>
        <time>2021-07-25T10:17:36.000Z</time>
      </trkpt>
      <trkpt lat="-11.90644224174320697784423828125" lon="-76.53493062593042850494384765625">
        <ele>1400.4000244140625</ele>
        <time>2021-07-25T10:17:38.000Z</time>
      </trkpt>
      <trkpt lat="-11.906358338892459869384765625" lon="-76.5348482318222522735595703125">
        <ele>1401</ele>
        <time>2021-07-25T10:17:42.000Z</time>
      </trkpt>
      <trkpt lat="-11.90624711103737354278564453125" lon="-76.53474639169871807098388671875">
        <ele>1401.800048828125</ele>
        <time>2021-07-25T10:17:47.000Z</time>
      </trkpt>
      <trkpt lat="-11.9062274135649204254150390625" lon="-76.534725017845630645751953125">
        <ele>1402</ele>
        <time>2021-07-25T10:17:48.000Z</time>
      </trkpt>
      <trkpt lat="-11.90608886070549488067626953125" lon="-76.5345971100032329559326171875">
        <ele>1403.199951171875</ele>
        <time>2021-07-25T10:17:55.000Z</time>
      </trkpt>
      <trkpt lat="-11.9060708396136760711669921875" lon="-76.5345800109207630157470703125">
        <ele>1403.199951171875</ele>
        <time>2021-07-25T10:17:56.000Z</time>
      </trkpt>
      <trkpt lat="-11.90595977939665317535400390625" lon="-76.53446911834180355072021484375">
        <ele>1404.199951171875</ele>
        <time>2021-07-25T10:18:02.000Z</time>
      </trkpt>
      <trkpt lat="-11.905901022255420684814453125" lon="-76.53441983275115489959716796875">
        <ele>1404.800048828125</ele>
        <time>2021-07-25T10:18:05.000Z</time>
      </trkpt>
      <trkpt lat="-11.90584561787545680999755859375" lon="-76.53436501510441303253173828125">
        <ele>1405.199951171875</ele>
        <time>2021-07-25T10:18:08.000Z</time>
      </trkpt>
      <trkpt lat="-11.90575056709349155426025390625" lon="-76.53426761738955974578857421875">
        <ele>1406</ele>
        <time>2021-07-25T10:18:13.000Z</time>
      </trkpt>
      <trkpt lat="-11.90571050159633159637451171875" lon="-76.53423459269106388092041015625">
        <ele>1406.4000244140625</ele>
        <time>2021-07-25T10:18:15.000Z</time>
      </trkpt>
      <trkpt lat="-11.9055870361626148223876953125" lon="-76.5341042540967464447021484375">
        <ele>1407.4000244140625</ele>
        <time>2021-07-25T10:18:22.000Z</time>
      </trkpt>
      <trkpt lat="-11.90556876361370086669921875" lon="-76.53408539481461048126220703125">
        <ele>1407.5999755859375</ele>
        <time>2021-07-25T10:18:23.000Z</time>
      </trkpt>
      <trkpt lat="-11.905467510223388671875" lon="-76.533966623246669769287109375">
        <ele>1408.5999755859375</ele>
        <time>2021-07-25T10:18:29.000Z</time>
      </trkpt>
      <trkpt lat="-11.90544269979000091552734375" lon="-76.53392337262630462646484375">
        <ele>1409.199951171875</ele>
        <time>2021-07-25T10:18:31.000Z</time>
      </trkpt>
      <trkpt lat="-11.90539081580936908721923828125" lon="-76.5338470973074436187744140625">
        <ele>1409.800048828125</ele>
        <time>2021-07-25T10:18:35.000Z</time>
      </trkpt>
      <trkpt lat="-11.9053627364337444305419921875" lon="-76.533807702362537384033203125">
        <ele>1410</ele>
        <time>2021-07-25T10:18:37.000Z</time>
      </trkpt>
      <trkpt lat="-11.905258633196353912353515625" lon="-76.53371776454150676727294921875">
        <ele>1410.800048828125</ele>
        <time>2021-07-25T10:18:43.000Z</time>
      </trkpt>
      <trkpt lat="-11.9052524305880069732666015625" lon="-76.533687673509120941162109375">
        <ele>1411</ele>
        <time>2021-07-25T10:18:44.000Z</time>
      </trkpt>
      <trkpt lat="-11.9052477367222309112548828125" lon="-76.533657498657703399658203125">
        <ele>1411.199951171875</ele>
        <time>2021-07-25T10:18:45.000Z</time>
      </trkpt>
      <trkpt lat="-11.90521177835762500762939453125" lon="-76.53356320224702358245849609375">
        <ele>1411.800048828125</ele>
        <time>2021-07-25T10:18:49.000Z</time>
      </trkpt>
      <trkpt lat="-11.9051602296531200408935546875" lon="-76.53343680314719676971435546875">
        <ele>1412.5999755859375</ele>
        <time>2021-07-25T10:18:54.000Z</time>
      </trkpt>
      <trkpt lat="-11.90514572896063327789306640625" lon="-76.5333837457001209259033203125">
        <ele>1413</ele>
        <time>2021-07-25T10:18:56.000Z</time>
      </trkpt>
      <trkpt lat="-11.9050925038754940032958984375" lon="-76.5332556702196598052978515625">
        <ele>1414</ele>
        <time>2021-07-25T10:19:01.000Z</time>
      </trkpt>
      <trkpt lat="-11.90502754412591457366943359375" lon="-76.53310555033385753631591796875">
        <ele>1415</ele>
        <time>2021-07-25T10:19:07.000Z</time>
      </trkpt>
      <trkpt lat="-11.90498177893459796905517578125" lon="-76.5330129303038120269775390625">
        <ele>1415.5999755859375</ele>
        <time>2021-07-25T10:19:11.000Z</time>
      </trkpt>
      <trkpt lat="-11.9049466587603092193603515625" lon="-76.5329478867352008819580078125">
        <ele>1416.199951171875</ele>
        <time>2021-07-25T10:19:14.000Z</time>
      </trkpt>
      <trkpt lat="-11.90483962185680866241455078125" lon="-76.5327966772019863128662109375">
        <ele>1417.4000244140625</ele>
        <time>2021-07-25T10:19:21.000Z</time>
      </trkpt>
      <trkpt lat="-11.90470802597701549530029296875" lon="-76.5326709486544132232666015625">
        <ele>1418.4000244140625</ele>
        <time>2021-07-25T10:19:28.000Z</time>
      </trkpt>
      <trkpt lat="-11.90465220250189304351806640625" lon="-76.532614789903163909912109375">
        <ele>1418.800048828125</ele>
        <time>2021-07-25T10:19:31.000Z</time>
      </trkpt>
      <trkpt lat="-11.90457324497401714324951171875" lon="-76.5325440466403961181640625">
        <ele>1419.4000244140625</ele>
        <time>2021-07-25T10:19:35.000Z</time>
      </trkpt>
      <trkpt lat="-11.90445975400507450103759765625" lon="-76.53244488872587680816650390625">
        <ele>1420.5999755859375</ele>
        <time>2021-07-25T10:19:41.000Z</time>
      </trkpt>
      <trkpt lat="-11.90433000214397907257080078125" lon="-76.53231211937963962554931640625">
        <ele>1421.5999755859375</ele>
        <time>2021-07-25T10:19:48.000Z</time>
      </trkpt>
      <trkpt lat="-11.90429261885583400726318359375" lon="-76.5322769992053508758544921875">
        <ele>1422</ele>
        <time>2021-07-25T10:19:50.000Z</time>
      </trkpt>
      <trkpt lat="-11.9041849114000797271728515625" lon="-76.5321673639118671417236328125">
        <ele>1422.800048828125</ele>
        <time>2021-07-25T10:19:56.000Z</time>
      </trkpt>
      <trkpt lat="-11.90411500632762908935546875" lon="-76.53210022486746311187744140625">
        <ele>1423.5999755859375</ele>
        <time>2021-07-25T10:20:00.000Z</time>
      </trkpt>
      <trkpt lat="-11.90407745540142059326171875" lon="-76.5320666134357452392578125">
        <ele>1424</ele>
        <time>2021-07-25T10:20:02.000Z</time>
      </trkpt>
      <trkpt lat="-11.9039877690374851226806640625" lon="-76.53198086656630039215087890625">
        <ele>1424.800048828125</ele>
        <time>2021-07-25T10:20:07.000Z</time>
      </trkpt>
      <trkpt lat="-11.90396958030760288238525390625" lon="-76.5319648571312427520751953125">
        <ele>1425</ele>
        <time>2021-07-25T10:20:08.000Z</time>
      </trkpt>
      <trkpt lat="-11.90381652675569057464599609375" lon="-76.5318203531205654144287109375">
        <ele>1426.199951171875</ele>
        <time>2021-07-25T10:20:16.000Z</time>
      </trkpt>
      <trkpt lat="-11.90379791893064975738525390625" lon="-76.5318019129335880279541015625">
        <ele>1426.199951171875</ele>
        <time>2021-07-25T10:20:17.000Z</time>
      </trkpt>
      <trkpt lat="-11.903723739087581634521484375" lon="-76.531726978719234466552734375">
        <ele>1427.199951171875</ele>
        <time>2021-07-25T10:20:21.000Z</time>
      </trkpt>
      <trkpt lat="-11.9036454521119594573974609375" lon="-76.5316496975719928741455078125">
        <ele>1427.800048828125</ele>
        <time>2021-07-25T10:20:25.000Z</time>
      </trkpt>
      <trkpt lat="-11.90358753316104412078857421875" lon="-76.5316004119813442230224609375">
        <ele>1428.199951171875</ele>
        <time>2021-07-25T10:20:28.000Z</time>
      </trkpt>
      <trkpt lat="-11.90351444296538829803466796875" lon="-76.5315273217856884002685546875">
        <ele>1429.199951171875</ele>
        <time>2021-07-25T10:20:32.000Z</time>
      </trkpt>
      <trkpt lat="-11.903501786291599273681640625" lon="-76.53150804340839385986328125">
        <ele>1429.5999755859375</ele>
        <time>2021-07-25T10:20:33.000Z</time>
      </trkpt>
      <trkpt lat="-11.903387792408466339111328125" lon="-76.53140150941908359527587890625">
        <ele>1430.4000244140625</ele>
        <time>2021-07-25T10:20:39.000Z</time>
      </trkpt>
      <trkpt lat="-11.9033658318221569061279296875" lon="-76.53138734400272369384765625">
        <ele>1430.199951171875</ele>
        <time>2021-07-25T10:20:40.000Z</time>
      </trkpt>
      <trkpt lat="-11.9032374210655689239501953125" lon="-76.53126337565481662750244140625">
        <ele>1431.4000244140625</ele>
        <time>2021-07-25T10:20:47.000Z</time>
      </trkpt>
      <trkpt lat="-11.90321621485054492950439453125" lon="-76.531246863305568695068359375">
        <ele>1431.800048828125</ele>
        <time>2021-07-25T10:20:48.000Z</time>
      </trkpt>
      <trkpt lat="-11.90315972082316875457763671875" lon="-76.53119782917201519012451171875">
        <ele>1432.4000244140625</ele>
        <time>2021-07-25T10:20:51.000Z</time>
      </trkpt>
      <trkpt lat="-11.9030221737921237945556640625" lon="-76.53106271289288997650146484375">
        <ele>1433.5999755859375</ele>
        <time>2021-07-25T10:20:59.000Z</time>
      </trkpt>
      <trkpt lat="-11.90290189348161220550537109375" lon="-76.5309506468474864959716796875">
        <ele>1434.800048828125</ele>
        <time>2021-07-25T10:21:06.000Z</time>
      </trkpt>
      <trkpt lat="-11.9028644263744354248046875" lon="-76.53091317974030971527099609375">
        <ele>1435</ele>
        <time>2021-07-25T10:21:08.000Z</time>
      </trkpt>
      <trkpt lat="-11.90274984575808048248291015625" lon="-76.530813686549663543701171875">
        <ele>1436.199951171875</ele>
        <time>2021-07-25T10:21:14.000Z</time>
      </trkpt>
      <trkpt lat="-11.90269586630165576934814453125" lon="-76.53076431713998317718505859375">
        <ele>1436.5999755859375</ele>
        <time>2021-07-25T10:21:17.000Z</time>
      </trkpt>
      <trkpt lat="-11.9026590697467327117919921875" lon="-76.53072894550859928131103515625">
        <ele>1437.4000244140625</ele>
        <time>2021-07-25T10:21:19.000Z</time>
      </trkpt>
      <trkpt lat="-11.902532167732715606689453125" lon="-76.53060288168489933013916015625">
        <ele>1437.800048828125</ele>
        <time>2021-07-25T10:21:26.000Z</time>
      </trkpt>
      <trkpt lat="-11.90247885882854461669921875" lon="-76.5305412746965885162353515625">
        <ele>1438.4000244140625</ele>
        <time>2021-07-25T10:21:29.000Z</time>
      </trkpt>
      <trkpt lat="-11.90237014554440975189208984375" lon="-76.53039433993399143218994140625">
        <ele>1439.5999755859375</ele>
        <time>2021-07-25T10:21:36.000Z</time>
      </trkpt>
      <trkpt lat="-11.902294792234897613525390625" lon="-76.5302623249590396881103515625">
        <ele>1440.800048828125</ele>
        <time>2021-07-25T10:21:42.000Z</time>
      </trkpt>
      <trkpt lat="-11.902273334562778472900390625" lon="-76.53021781705319881439208984375">
        <ele>1441.199951171875</ele>
        <time>2021-07-25T10:21:44.000Z</time>
      </trkpt>
      <trkpt lat="-11.9022274017333984375" lon="-76.53009854257106781005859375">
        <ele>1441.800048828125</ele>
        <time>2021-07-25T10:21:49.000Z</time>
      </trkpt>
      <trkpt lat="-11.902197897434234619140625" lon="-76.5299713052809238433837890625">
        <ele>1442.5999755859375</ele>
        <time>2021-07-25T10:21:54.000Z</time>
      </trkpt>
      <trkpt lat="-11.9021943770349025726318359375" lon="-76.52994372881948947906494140625">
        <ele>1442.800048828125</ele>
        <time>2021-07-25T10:21:55.000Z</time>
      </trkpt>
      <trkpt lat="-11.90217568539083003997802734375" lon="-76.5297570638358592987060546875">
        <ele>1444.199951171875</ele>
        <time>2021-07-25T10:22:02.000Z</time>
      </trkpt>
      <trkpt lat="-11.902187503874301910400390625" lon="-76.52960359118878841400146484375">
        <ele>1445.199951171875</ele>
        <time>2021-07-25T10:22:08.000Z</time>
      </trkpt>
      <trkpt lat="-11.90219186246395111083984375" lon="-76.52957551181316375732421875">
        <ele>1445.4000244140625</ele>
        <time>2021-07-25T10:22:09.000Z</time>
      </trkpt>
      <trkpt lat="-11.90222430042922496795654296875" lon="-76.52937811799347400665283203125">
        <ele>1446.199951171875</ele>
        <time>2021-07-25T10:22:16.000Z</time>
      </trkpt>
      <trkpt lat="-11.902241818606853485107421875" lon="-76.529316008090972900390625">
        <ele>1447</ele>
        <time>2021-07-25T10:22:18.000Z</time>
      </trkpt>
      <trkpt lat="-11.90224978141486644744873046875" lon="-76.52928742580115795135498046875">
        <ele>1447.199951171875</ele>
        <time>2021-07-25T10:22:19.000Z</time>
      </trkpt>
      <trkpt lat="-11.90228850580751895904541015625" lon="-76.5291000902652740478515625">
        <ele>1447.4000244140625</ele>
        <time>2021-07-25T10:22:25.000Z</time>
      </trkpt>
      <trkpt lat="-11.90233611501753330230712890625" lon="-76.5288964100182056427001953125">
        <ele>1448.4000244140625</ele>
        <time>2021-07-25T10:22:32.000Z</time>
      </trkpt>
      <trkpt lat="-11.90234835259616374969482421875" lon="-76.528833210468292236328125">
        <ele>1448.199951171875</ele>
        <time>2021-07-25T10:22:34.000Z</time>
      </trkpt>
      <trkpt lat="-11.90240216441452503204345703125" lon="-76.5285913087427616119384765625">
        <ele>1448.4000244140625</ele>
        <time>2021-07-25T10:22:41.000Z</time>
      </trkpt>
      <trkpt lat="-11.90248288214206695556640625" lon="-76.52825812809169292449951171875">
        <ele>1449.199951171875</ele>
        <time>2021-07-25T10:22:50.000Z</time>
      </trkpt>
      <trkpt lat="-11.90255605615675449371337890625" lon="-76.5279378555715084075927734375">
        <ele>1449.4000244140625</ele>
        <time>2021-07-25T10:22:58.000Z</time>
      </trkpt>
      <trkpt lat="-11.90256812609732151031494140625" lon="-76.52789921499788761138916015625">
        <ele>1449.4000244140625</ele>
        <time>2021-07-25T10:22:59.000Z</time>
      </trkpt>
      <trkpt lat="-11.9027008116245269775390625" lon="-76.52763753198087215423583984375">
        <ele>1449.5999755859375</ele>
        <time>2021-07-25T10:23:07.000Z</time>
      </trkpt>
      <trkpt lat="-11.90282486379146575927734375" lon="-76.52743938378989696502685546875">
        <ele>1450.5999755859375</ele>
        <time>2021-07-25T10:23:13.000Z</time>
      </trkpt>
      <trkpt lat="-11.9033043086528778076171875" lon="-76.52676044963300228118896484375">
        <ele>1451</ele>
        <time>2021-07-25T10:23:35.000Z</time>
      </trkpt>
      <trkpt lat="-11.90343431197106838226318359375" lon="-76.526575125753879547119140625">
        <ele>1452</ele>
        <time>2021-07-25T10:23:41.000Z</time>
      </trkpt>
      <trkpt lat="-11.9035619683563709259033203125" lon="-76.52642182074487209320068359375">
        <ele>1453</ele>
        <time>2021-07-25T10:23:47.000Z</time>
      </trkpt>
      <trkpt lat="-11.90362525172531604766845703125" lon="-76.5263593755662441253662109375">
        <ele>1453.4000244140625</ele>
        <time>2021-07-25T10:23:50.000Z</time>
      </trkpt>
      <trkpt lat="-11.9037222303450107574462890625" lon="-76.52626491151750087738037109375">
        <ele>1454.199951171875</ele>
        <time>2021-07-25T10:23:55.000Z</time>
      </trkpt>
      <trkpt lat="-11.9038139283657073974609375" lon="-76.526193916797637939453125">
        <ele>1455.199951171875</ele>
        <time>2021-07-25T10:23:59.000Z</time>
      </trkpt>
      <trkpt lat="-11.9038368947803974151611328125" lon="-76.526175476610660552978515625">
        <ele>1455.4000244140625</ele>
        <time>2021-07-25T10:24:00.000Z</time>
      </trkpt>
      <trkpt lat="-11.9039606116712093353271484375" lon="-76.52606139890849590301513671875">
        <ele>1456.4000244140625</ele>
        <time>2021-07-25T10:24:06.000Z</time>
      </trkpt>
      <trkpt lat="-11.90398114733397960662841796875" lon="-76.52604463510215282440185546875">
        <ele>1456.5999755859375</ele>
        <time>2021-07-25T10:24:07.000Z</time>
      </trkpt>
      <trkpt lat="-11.9041116535663604736328125" lon="-76.52594187296926975250244140625">
        <ele>1457.5999755859375</ele>
        <time>2021-07-25T10:24:13.000Z</time>
      </trkpt>
      <trkpt lat="-11.9041721709072589874267578125" lon="-76.52589141391217708587646484375">
        <ele>1458.4000244140625</ele>
        <time>2021-07-25T10:24:16.000Z</time>
      </trkpt>
      <trkpt lat="-11.9042130745947360992431640625" lon="-76.5258544497191905975341796875">
        <ele>1458.5999755859375</ele>
        <time>2021-07-25T10:24:18.000Z</time>
      </trkpt>
      <trkpt lat="-11.9043371267616748809814453125" lon="-76.52574607171118259429931640625">
        <ele>1459.5999755859375</ele>
        <time>2021-07-25T10:24:24.000Z</time>
      </trkpt>
      <trkpt lat="-11.904439218342304229736328125" lon="-76.5256224386394023895263671875">
        <ele>1461</ele>
        <time>2021-07-25T10:24:30.000Z</time>
      </trkpt>
      <trkpt lat="-11.9044697284698486328125" lon="-76.52557273395359516143798828125">
        <ele>1461.5999755859375</ele>
        <time>2021-07-25T10:24:32.000Z</time>
      </trkpt>
      <trkpt lat="-11.90451859496533870697021484375" lon="-76.52547030709683895111083984375">
        <ele>1462</ele>
        <time>2021-07-25T10:24:36.000Z</time>
      </trkpt>
      <trkpt lat="-11.904561258852481842041015625" lon="-76.5253387950360774993896484375">
        <ele>1462.800048828125</ele>
        <time>2021-07-25T10:24:41.000Z</time>
      </trkpt>
      <trkpt lat="-11.9045694731175899505615234375" lon="-76.52531071566045284271240234375">
        <ele>1463</ele>
        <time>2021-07-25T10:24:42.000Z</time>
      </trkpt>
      <trkpt lat="-11.90460719168186187744140625" lon="-76.52514659799635410308837890625">
        <ele>1464</ele>
        <time>2021-07-25T10:24:48.000Z</time>
      </trkpt>
      <trkpt lat="-11.90461280755698680877685546875" lon="-76.525118015706539154052734375">
        <ele>1464.199951171875</ele>
        <time>2021-07-25T10:24:49.000Z</time>
      </trkpt>
      <trkpt lat="-11.90465237013995647430419921875" lon="-76.52498885057866573333740234375">
        <ele>1465.199951171875</ele>
        <time>2021-07-25T10:24:54.000Z</time>
      </trkpt>
      <trkpt lat="-11.9046673737466335296630859375" lon="-76.52493436820805072784423828125">
        <ele>1465.5999755859375</ele>
        <time>2021-07-25T10:24:56.000Z</time>
      </trkpt>
      <trkpt lat="-11.9046962074935436248779296875" lon="-76.52482992969453334808349609375">
        <ele>1466.4000244140625</ele>
        <time>2021-07-25T10:25:00.000Z</time>
      </trkpt>
      <trkpt lat="-11.904710792005062103271484375" lon="-76.52477963827550411224365234375">
        <ele>1466.5999755859375</ele>
        <time>2021-07-25T10:25:02.000Z</time>
      </trkpt>
      <trkpt lat="-11.90475228242576122283935546875" lon="-76.52465357445180416107177734375">
        <ele>1467.4000244140625</ele>
        <time>2021-07-25T10:25:07.000Z</time>
      </trkpt>
      <trkpt lat="-11.9047743268311023712158203125" lon="-76.52460395358502864837646484375">
        <ele>1467.800048828125</ele>
        <time>2021-07-25T10:25:09.000Z</time>
      </trkpt>
      <trkpt lat="-11.9048420526087284088134765625" lon="-76.52449264191091060638427734375">
        <ele>1468.800048828125</ele>
        <time>2021-07-25T10:25:14.000Z</time>
      </trkpt>
      <trkpt lat="-11.9048886559903621673583984375" lon="-76.5244275145232677459716796875">
        <ele>1469.4000244140625</ele>
        <time>2021-07-25T10:25:17.000Z</time>
      </trkpt>
      <trkpt lat="-11.90494188107550144195556640625" lon="-76.52436339296400547027587890625">
        <ele>1469.800048828125</ele>
        <time>2021-07-25T10:25:20.000Z</time>
      </trkpt>
      <trkpt lat="-11.90502159297466278076171875" lon="-76.52429021894931793212890625">
        <ele>1470.5999755859375</ele>
        <time>2021-07-25T10:25:24.000Z</time>
      </trkpt>
      <trkpt lat="-11.90506526269018650054931640625" lon="-76.5242595411837100982666015625">
        <ele>1471</ele>
        <time>2021-07-25T10:25:26.000Z</time>
      </trkpt>
      <trkpt lat="-11.90519954077899456024169921875" lon="-76.5241710282862186431884765625">
        <ele>1472</ele>
        <time>2021-07-25T10:25:32.000Z</time>
      </trkpt>
      <trkpt lat="-11.905222423374652862548828125" lon="-76.52415736578404903411865234375">
        <ele>1472.199951171875</ele>
        <time>2021-07-25T10:25:33.000Z</time>
      </trkpt>
      <trkpt lat="-11.905343793332576751708984375" lon="-76.52410648763179779052734375">
        <ele>1473</ele>
        <time>2021-07-25T10:25:38.000Z</time>
      </trkpt>
      <trkpt lat="-11.90544127486646175384521484375" lon="-76.524053849279880523681640625">
        <ele>1474</ele>
        <time>2021-07-25T10:25:42.000Z</time>
      </trkpt>
      <trkpt lat="-11.90549123100936412811279296875" lon="-76.5240282006561756134033203125">
        <ele>1474.199951171875</ele>
        <time>2021-07-25T10:25:44.000Z</time>
      </trkpt>
      <trkpt lat="-11.9056383334100246429443359375" lon="-76.5239551104605197906494140625">
        <ele>1475.199951171875</ele>
        <time>2021-07-25T10:25:50.000Z</time>
      </trkpt>
      <trkpt lat="-11.90568502061069011688232421875" lon="-76.5239252708852291107177734375">
        <ele>1475.4000244140625</ele>
        <time>2021-07-25T10:25:52.000Z</time>
      </trkpt>
      <trkpt lat="-11.9057821668684482574462890625" lon="-76.5238719619810581207275390625">
        <ele>1476.199951171875</ele>
        <time>2021-07-25T10:25:56.000Z</time>
      </trkpt>
      <trkpt lat="-11.90588098950684070587158203125" lon="-76.523823179304599761962890625">
        <ele>1476.800048828125</ele>
        <time>2021-07-25T10:26:00.000Z</time>
      </trkpt>
      <trkpt lat="-11.9059253297746181488037109375" lon="-76.52379778213798999786376953125">
        <ele>1477.4000244140625</ele>
        <time>2021-07-25T10:26:02.000Z</time>
      </trkpt>
      <trkpt lat="-11.90604158677160739898681640625" lon="-76.52372804470360279083251953125">
        <ele>1478.199951171875</ele>
        <time>2021-07-25T10:26:07.000Z</time>
      </trkpt>
      <trkpt lat="-11.9060842506587505340576171875" lon="-76.52371061034500598907470703125">
        <ele>1478.4000244140625</ele>
        <time>2021-07-25T10:26:09.000Z</time>
      </trkpt>
      <trkpt lat="-11.90614803694188594818115234375" lon="-76.52367942966520786285400390625">
        <ele>1479</ele>
        <time>2021-07-25T10:26:12.000Z</time>
      </trkpt>
      <trkpt lat="-11.906225569546222686767578125" lon="-76.52363064698874950408935546875">
        <ele>1479.4000244140625</ele>
        <time>2021-07-25T10:26:15.000Z</time>
      </trkpt>
      <trkpt lat="-11.90633025951683521270751953125" lon="-76.523560993373394012451171875">
        <ele>1480</ele>
        <time>2021-07-25T10:26:19.000Z</time>
      </trkpt>
      <trkpt lat="-11.9064191915094852447509765625" lon="-76.52348312549293041229248046875">
        <ele>1480.5999755859375</ele>
        <time>2021-07-25T10:26:23.000Z</time>
      </trkpt>
      <trkpt lat="-11.90648666583001613616943359375" lon="-76.52342059649527072906494140625">
        <ele>1481</ele>
        <time>2021-07-25T10:26:26.000Z</time>
      </trkpt>
      <trkpt lat="-11.90657459199428558349609375" lon="-76.52331230230629444122314453125">
        <ele>1481.5999755859375</ele>
        <time>2021-07-25T10:26:30.000Z</time>
      </trkpt>
      <trkpt lat="-11.90664323978126049041748046875" lon="-76.52318858541548252105712890625">
        <ele>1482</ele>
        <time>2021-07-25T10:26:34.000Z</time>
      </trkpt>
      <trkpt lat="-11.90670794807374477386474609375" lon="-76.5230329334735870361328125">
        <ele>1482.800048828125</ele>
        <time>2021-07-25T10:26:39.000Z</time>
      </trkpt>
      <trkpt lat="-11.90673284232616424560546875" lon="-76.52292958460748195648193359375">
        <ele>1483.199951171875</ele>
        <time>2021-07-25T10:26:42.000Z</time>
      </trkpt>
      <trkpt lat="-11.906749270856380462646484375" lon="-76.52274568565189838409423828125">
        <ele>1483.800048828125</ele>
        <time>2021-07-25T10:26:47.000Z</time>
      </trkpt>
      <trkpt lat="-11.90674600191414356231689453125" lon="-76.52267041616141796112060546875">
        <ele>1484</ele>
        <time>2021-07-25T10:26:49.000Z</time>
      </trkpt>
      <trkpt lat="-11.9066884182393550872802734375" lon="-76.5224074758589267730712890625">
        <ele>1484.4000244140625</ele>
        <time>2021-07-25T10:26:56.000Z</time>
      </trkpt>
      <trkpt lat="-11.9066729955375194549560546875" lon="-76.5223682485520839691162109375">
        <ele>1484.4000244140625</ele>
        <time>2021-07-25T10:26:57.000Z</time>
      </trkpt>
      <trkpt lat="-11.9065791182219982147216796875" lon="-76.522174291312694549560546875">
        <ele>1484.5999755859375</ele>
        <time>2021-07-25T10:27:02.000Z</time>
      </trkpt>
      <trkpt lat="-11.90636311657726764678955078125" lon="-76.52177103795111179351806640625">
        <ele>1484.4000244140625</ele>
        <time>2021-07-25T10:27:12.000Z</time>
      </trkpt>
      <trkpt lat="-11.9061635434627532958984375" lon="-76.5213560499250888824462890625">
        <ele>1484</ele>
        <time>2021-07-25T10:27:21.000Z</time>
      </trkpt>
      <trkpt lat="-11.90594335086643695831298828125" lon="-76.5209302492439746856689453125">
        <ele>1484</ele>
        <time>2021-07-25T10:27:30.000Z</time>
      </trkpt>
      <trkpt lat="-11.90581678412854671478271484375" lon="-76.52067820541560649871826171875">
        <ele>1483.5999755859375</ele>
        <time>2021-07-25T10:27:35.000Z</time>
      </trkpt>
      <trkpt lat="-11.90576590597629547119140625" lon="-76.520575694739818572998046875">
        <ele>1483.4000244140625</ele>
        <time>2021-07-25T10:27:37.000Z</time>
      </trkpt>
      <trkpt lat="-11.90556130371987819671630859375" lon="-76.52017571032047271728515625">
        <ele>1483.4000244140625</ele>
        <time>2021-07-25T10:27:45.000Z</time>
      </trkpt>
      <trkpt lat="-11.90550514496862888336181640625" lon="-76.5200742892920970916748046875">
        <ele>1483.199951171875</ele>
        <time>2021-07-25T10:27:47.000Z</time>
      </trkpt>
      <trkpt lat="-11.9053727947175502777099609375" lon="-76.5198181383311748504638671875">
        <ele>1483</ele>
        <time>2021-07-25T10:27:52.000Z</time>
      </trkpt>
      <trkpt lat="-11.905228793621063232421875" lon="-76.519498117268085479736328125">
        <ele>1482.800048828125</ele>
        <time>2021-07-25T10:27:58.000Z</time>
      </trkpt>
      <trkpt lat="-11.905188895761966705322265625" lon="-76.5193893201649188995361328125">
        <ele>1482.5999755859375</ele>
        <time>2021-07-25T10:28:00.000Z</time>
      </trkpt>
      <trkpt lat="-11.90504749305546283721923828125" lon="-76.51896930299699306488037109375">
        <ele>1482.5999755859375</ele>
        <time>2021-07-25T10:28:08.000Z</time>
      </trkpt>
      <trkpt lat="-11.90495981834828853607177734375" lon="-76.51867275126278400421142578125">
        <ele>1482.800048828125</ele>
        <time>2021-07-25T10:28:14.000Z</time>
      </trkpt>
      <trkpt lat="-11.90492863766849040985107421875" lon="-76.51838776655495166778564453125">
        <ele>1483.199951171875</ele>
        <time>2021-07-25T10:28:20.000Z</time>
      </trkpt>
      <trkpt lat="-11.90492562018334865570068359375" lon="-76.51825315319001674652099609375">
        <ele>1483.800048828125</ele>
        <time>2021-07-25T10:28:23.000Z</time>
      </trkpt>
      <trkpt lat="-11.90493039786815643310546875" lon="-76.5181692503392696380615234375">
        <ele>1484.199951171875</ele>
        <time>2021-07-25T10:28:25.000Z</time>
      </trkpt>
      <trkpt lat="-11.904954202473163604736328125" lon="-76.51792642660439014434814453125">
        <ele>1485</ele>
        <time>2021-07-25T10:28:31.000Z</time>
      </trkpt>
      <trkpt lat="-11.90497507341206073760986328125" lon="-76.51777119375765323638916015625">
        <ele>1485.4000244140625</ele>
        <time>2021-07-25T10:28:35.000Z</time>
      </trkpt>
      <trkpt lat="-11.90498898737132549285888671875" lon="-76.5175794996321201324462890625">
        <ele>1486</ele>
        <time>2021-07-25T10:28:40.000Z</time>
      </trkpt>
      <trkpt lat="-11.9049994647502899169921875" lon="-76.51742384769022464752197265625">
        <ele>1486.5999755859375</ele>
        <time>2021-07-25T10:28:44.000Z</time>
      </trkpt>
      <trkpt lat="-11.904998458921909332275390625" lon="-76.5171899087727069854736328125">
        <ele>1487.199951171875</ele>
        <time>2021-07-25T10:28:50.000Z</time>
      </trkpt>
      <trkpt lat="-11.90499921329319477081298828125" lon="-76.5170755796134471893310546875">
        <ele>1487.4000244140625</ele>
        <time>2021-07-25T10:28:53.000Z</time>
      </trkpt>
      <trkpt lat="-11.9050182402133941650390625" lon="-76.5167198516428470611572265625">
        <ele>1488.5999755859375</ele>
        <time>2021-07-25T10:29:02.000Z</time>
      </trkpt>
      <trkpt lat="-11.90501949749886989593505859375" lon="-76.5166424028575420379638671875">
        <ele>1489</ele>
        <time>2021-07-25T10:29:04.000Z</time>
      </trkpt>
      <trkpt lat="-11.90501631237566471099853515625" lon="-76.51644316501915454864501953125">
        <ele>1489.5999755859375</ele>
        <time>2021-07-25T10:29:09.000Z</time>
      </trkpt>
      <trkpt lat="-11.9050314836204051971435546875" lon="-76.51623998768627643585205078125">
        <ele>1490.199951171875</ele>
        <time>2021-07-25T10:29:14.000Z</time>
      </trkpt>
      <trkpt lat="-11.90502804704010486602783203125" lon="-76.51612482033669948577880859375">
        <ele>1490.5999755859375</ele>
        <time>2021-07-25T10:29:17.000Z</time>
      </trkpt>
      <trkpt lat="-11.9050334952771663665771484375" lon="-76.515923403203487396240234375">
        <ele>1491.4000244140625</ele>
        <time>2021-07-25T10:29:22.000Z</time>
      </trkpt>
      <trkpt lat="-11.9050341658294200897216796875" lon="-76.51576708070933818817138671875">
        <ele>1491.5999755859375</ele>
        <time>2021-07-25T10:29:26.000Z</time>
      </trkpt>
      <trkpt lat="-11.90502184443175792694091796875" lon="-76.515612266957759857177734375">
        <ele>1492</ele>
        <time>2021-07-25T10:29:30.000Z</time>
      </trkpt>
      <trkpt lat="-11.90498965792357921600341796875" lon="-76.51541973464190959930419921875">
        <ele>1492.800048828125</ele>
        <time>2021-07-25T10:29:35.000Z</time>
      </trkpt>
      <trkpt lat="-11.904969625174999237060546875" lon="-76.5153462253510951995849609375">
        <ele>1492.800048828125</ele>
        <time>2021-07-25T10:29:37.000Z</time>
      </trkpt>
      <trkpt lat="-11.90485236234962940216064453125" lon="-76.515034250915050506591796875">
        <ele>1493.4000244140625</ele>
        <time>2021-07-25T10:29:45.000Z</time>
      </trkpt>
      <trkpt lat="-11.90480626188218593597412109375" lon="-76.51490558870136737823486328125">
        <ele>1493.800048828125</ele>
        <time>2021-07-25T10:29:48.000Z</time>
      </trkpt>
      <trkpt lat="-11.904713474214076995849609375" lon="-76.514643989503383636474609375">
        <ele>1494.199951171875</ele>
        <time>2021-07-25T10:29:54.000Z</time>
      </trkpt>
      <trkpt lat="-11.904563941061496734619140625" lon="-76.5143533051013946533203125">
        <ele>1494.5999755859375</ele>
        <time>2021-07-25T10:30:01.000Z</time>
      </trkpt>
      <trkpt lat="-11.9043369591236114501953125" lon="-76.5140502154827117919921875">
        <ele>1494.5999755859375</ele>
        <time>2021-07-25T10:30:09.000Z</time>
      </trkpt>
      <trkpt lat="-11.90399807877838611602783203125" lon="-76.51358040980994701385498046875">
        <ele>1494.800048828125</ele>
        <time>2021-07-25T10:30:21.000Z</time>
      </trkpt>
      <trkpt lat="-11.90390218980610370635986328125" lon="-76.51341478340327739715576171875">
        <ele>1495</ele>
        <time>2021-07-25T10:30:25.000Z</time>
      </trkpt>
      <trkpt lat="-11.90381317399442195892333984375" lon="-76.51325535960495471954345703125">
        <ele>1495.4000244140625</ele>
        <time>2021-07-25T10:30:29.000Z</time>
      </trkpt>
      <trkpt lat="-11.90370840020477771759033203125" lon="-76.513054110109806060791015625">
        <ele>1496</ele>
        <time>2021-07-25T10:30:34.000Z</time>
      </trkpt>
      <trkpt lat="-11.90366950817406177520751953125" lon="-76.5129842050373554229736328125">
        <ele>1496.4000244140625</ele>
        <time>2021-07-25T10:30:36.000Z</time>
      </trkpt>
      <trkpt lat="-11.90357009880244731903076171875" lon="-76.5128163993358612060546875">
        <ele>1497</ele>
        <time>2021-07-25T10:30:41.000Z</time>
      </trkpt>
      <trkpt lat="-11.90349005162715911865234375" lon="-76.51265747845172882080078125">
        <ele>1498</ele>
        <time>2021-07-25T10:30:46.000Z</time>
      </trkpt>
      <trkpt lat="-11.9034754671156406402587890625" lon="-76.51262822560966014862060546875">
        <ele>1498.4000244140625</ele>
        <time>2021-07-25T10:30:47.000Z</time>
      </trkpt>
      <trkpt lat="-11.9034142792224884033203125" lon="-76.51251557283103466033935546875">
        <ele>1499.4000244140625</ele>
        <time>2021-07-25T10:30:51.000Z</time>
      </trkpt>
      <trkpt lat="-11.9033767282962799072265625" lon="-76.5124155767261981964111328125">
        <ele>1499.800048828125</ele>
        <time>2021-07-25T10:30:54.000Z</time>
      </trkpt>
      <trkpt lat="-11.90335032530128955841064453125" lon="-76.51231390424072742462158203125">
        <ele>1500.5999755859375</ele>
        <time>2021-07-25T10:30:57.000Z</time>
      </trkpt>
      <trkpt lat="-11.903324425220489501953125" lon="-76.51218784041702747344970703125">
        <ele>1501.4000244140625</ele>
        <time>2021-07-25T10:31:01.000Z</time>
      </trkpt>
      <trkpt lat="-11.9033215753734111785888671875" lon="-76.51215632446110248565673828125">
        <ele>1501.5999755859375</ele>
        <time>2021-07-25T10:31:02.000Z</time>
      </trkpt>
      <trkpt lat="-11.9033252634108066558837890625" lon="-76.5119768679141998291015625">
        <ele>1502.800048828125</ele>
        <time>2021-07-25T10:31:08.000Z</time>
      </trkpt>
      <trkpt lat="-11.90335099585354328155517578125" lon="-76.5117979981005191802978515625">
        <ele>1504.199951171875</ele>
        <time>2021-07-25T10:31:14.000Z</time>
      </trkpt>
      <trkpt lat="-11.903378069400787353515625" lon="-76.51162524707615375518798828125">
        <ele>1505.4000244140625</ele>
        <time>2021-07-25T10:31:20.000Z</time>
      </trkpt>
      <trkpt lat="-11.90338519401848316192626953125" lon="-76.51157076470553874969482421875">
        <ele>1505.800048828125</ele>
        <time>2021-07-25T10:31:22.000Z</time>
      </trkpt>
      <trkpt lat="-11.90339793451130390167236328125" lon="-76.5114546753466129302978515625">
        <ele>1506.4000244140625</ele>
        <time>2021-07-25T10:31:26.000Z</time>
      </trkpt>
      <trkpt lat="-11.90341805107891559600830078125" lon="-76.51133925653994083404541015625">
        <ele>1507</ele>
        <time>2021-07-25T10:31:30.000Z</time>
      </trkpt>
      <trkpt lat="-11.90343238413333892822265625" lon="-76.51124604977667331695556640625">
        <ele>1507.5999755859375</ele>
        <time>2021-07-25T10:31:33.000Z</time>
      </trkpt>
      <trkpt lat="-11.90345576964318752288818359375" lon="-76.51110204868018627166748046875">
        <ele>1508.5999755859375</ele>
        <time>2021-07-25T10:31:38.000Z</time>
      </trkpt>
      <trkpt lat="-11.90345979295670986175537109375" lon="-76.5110743045806884765625">
        <ele>1508.800048828125</ele>
        <time>2021-07-25T10:31:39.000Z</time>
      </trkpt>
      <trkpt lat="-11.9034929014742374420166015625" lon="-76.5108837001025676727294921875">
        <ele>1509.800048828125</ele>
        <time>2021-07-25T10:31:46.000Z</time>
      </trkpt>
      <trkpt lat="-11.90353170968592166900634765625" lon="-76.5106966160237789154052734375">
        <ele>1511</ele>
        <time>2021-07-25T10:31:53.000Z</time>
      </trkpt>
      <trkpt lat="-11.90353690646588802337646484375" lon="-76.51067054830491542816162109375">
        <ele>1511</ele>
        <time>2021-07-25T10:31:54.000Z</time>
      </trkpt>
      <trkpt lat="-11.9035726971924304962158203125" lon="-76.5104498527944087982177734375">
        <ele>1512</ele>
        <time>2021-07-25T10:32:02.000Z</time>
      </trkpt>
      <trkpt lat="-11.90357730723917484283447265625" lon="-76.51042361743748188018798828125">
        <ele>1512.199951171875</ele>
        <time>2021-07-25T10:32:03.000Z</time>
      </trkpt>
      <trkpt lat="-11.9036075659096240997314453125" lon="-76.5102580748498439788818359375">
        <ele>1513.199951171875</ele>
        <time>2021-07-25T10:32:09.000Z</time>
      </trkpt>
      <trkpt lat="-11.90362961031496524810791015625" lon="-76.510179452598094940185546875">
        <ele>1513.4000244140625</ele>
        <time>2021-07-25T10:32:12.000Z</time>
      </trkpt>
      <trkpt lat="-11.90365022979676723480224609375" lon="-76.51003654114902019500732421875">
        <ele>1514.199951171875</ele>
        <time>2021-07-25T10:32:17.000Z</time>
      </trkpt>
      <trkpt lat="-11.9036556780338287353515625" lon="-76.510006450116634368896484375">
        <ele>1514.4000244140625</ele>
        <time>2021-07-25T10:32:18.000Z</time>
      </trkpt>
      <trkpt lat="-11.9036813266575336456298828125" lon="-76.5098265744745731353759765625">
        <ele>1515.199951171875</ele>
        <time>2021-07-25T10:32:24.000Z</time>
      </trkpt>
      <trkpt lat="-11.9036846794188022613525390625" lon="-76.50979581288993358612060546875">
        <ele>1515.4000244140625</ele>
        <time>2021-07-25T10:32:25.000Z</time>
      </trkpt>
      <trkpt lat="-11.903689540922641754150390625" lon="-76.509669832885265350341796875">
        <ele>1516.199951171875</ele>
        <time>2021-07-25T10:32:29.000Z</time>
      </trkpt>
      <trkpt lat="-11.9036970846354961395263671875" lon="-76.50954209268093109130859375">
        <ele>1516.800048828125</ele>
        <time>2021-07-25T10:32:33.000Z</time>
      </trkpt>
      <trkpt lat="-11.903687529265880584716796875" lon="-76.50941410101950168609619140625">
        <ele>1517.4000244140625</ele>
        <time>2021-07-25T10:32:37.000Z</time>
      </trkpt>
      <trkpt lat="-11.903678476810455322265625" lon="-76.5092921443283557891845703125">
        <ele>1518</ele>
        <time>2021-07-25T10:32:41.000Z</time>
      </trkpt>
      <trkpt lat="-11.90366439521312713623046875" lon="-76.50915241800248622894287109375">
        <ele>1518.4000244140625</ele>
        <time>2021-07-25T10:32:45.000Z</time>
      </trkpt>
      <trkpt lat="-11.90364788286387920379638671875" lon="-76.5090017952024936676025390625">
        <ele>1518.800048828125</ele>
        <time>2021-07-25T10:32:49.000Z</time>
      </trkpt>
      <trkpt lat="-11.90364419482648372650146484375" lon="-76.508967094123363494873046875">
        <ele>1519.4000244140625</ele>
        <time>2021-07-25T10:32:50.000Z</time>
      </trkpt>
      <trkpt lat="-11.90361938439309597015380859375" lon="-76.50880306027829647064208984375">
        <ele>1520.4000244140625</ele>
        <time>2021-07-25T10:32:55.000Z</time>
      </trkpt>
      <trkpt lat="-11.90361469052731990814208984375" lon="-76.5087741427123546600341796875">
        <ele>1520.5999755859375</ele>
        <time>2021-07-25T10:32:56.000Z</time>
      </trkpt>
      <trkpt lat="-11.90357990562915802001953125" lon="-76.50859166868031024932861328125">
        <ele>1521.5999755859375</ele>
        <time>2021-07-25T10:33:02.000Z</time>
      </trkpt>
      <trkpt lat="-11.90357462503015995025634765625" lon="-76.50856115855276584625244140625">
        <ele>1521.5999755859375</ele>
        <time>2021-07-25T10:33:03.000Z</time>
      </trkpt>
      <trkpt lat="-11.90354512073099613189697265625" lon="-76.50837642140686511993408203125">
        <ele>1522.800048828125</ele>
        <time>2021-07-25T10:33:09.000Z</time>
      </trkpt>
      <trkpt lat="-11.90350614488124847412109375" lon="-76.508208028972148895263671875">
        <ele>1524</ele>
        <time>2021-07-25T10:33:15.000Z</time>
      </trkpt>
      <trkpt lat="-11.903497762978076934814453125" lon="-76.5081448294222354888916015625">
        <ele>1524.4000244140625</ele>
        <time>2021-07-25T10:33:17.000Z</time>
      </trkpt>
      <trkpt lat="-11.90348602831363677978515625" lon="-76.5080487728118896484375">
        <ele>1525</ele>
        <time>2021-07-25T10:33:20.000Z</time>
      </trkpt>
      <trkpt lat="-11.9034573622047901153564453125" lon="-76.50791290216147899627685546875">
        <ele>1526</ele>
        <time>2021-07-25T10:33:25.000Z</time>
      </trkpt>
      <trkpt lat="-11.90343313850462436676025390625" lon="-76.5077421627938747406005859375">
        <ele>1527.4000244140625</ele>
        <time>2021-07-25T10:33:31.000Z</time>
      </trkpt>
      <trkpt lat="-11.9034251756966114044189453125" lon="-76.5076891891658306121826171875">
        <ele>1527.5999755859375</ele>
        <time>2021-07-25T10:33:33.000Z</time>
      </trkpt>
      <trkpt lat="-11.90339676104485988616943359375" lon="-76.5075503848493099212646484375">
        <ele>1528.4000244140625</ele>
        <time>2021-07-25T10:33:38.000Z</time>
      </trkpt>
      <trkpt lat="-11.90339055843651294708251953125" lon="-76.50749347172677516937255859375">
        <ele>1529.199951171875</ele>
        <time>2021-07-25T10:33:40.000Z</time>
      </trkpt>
      <trkpt lat="-11.90337748266756534576416015625" lon="-76.5074380673468112945556640625">
        <ele>1529.5999755859375</ele>
        <time>2021-07-25T10:33:42.000Z</time>
      </trkpt>
      <trkpt lat="-11.90332886762917041778564453125" lon="-76.50729649700224399566650390625">
        <ele>1530.800048828125</ele>
        <time>2021-07-25T10:33:47.000Z</time>
      </trkpt>
      <trkpt lat="-11.9033081643283367156982421875" lon="-76.5072446130216121673583984375">
        <ele>1531</ele>
        <time>2021-07-25T10:33:49.000Z</time>
      </trkpt>
      <trkpt lat="-11.90326273441314697265625" lon="-76.50714243762195110321044921875">
        <ele>1531.800048828125</ele>
        <time>2021-07-25T10:33:53.000Z</time>
      </trkpt>
      <trkpt lat="-11.903219483792781829833984375" lon="-76.5070729516446590423583984375">
        <ele>1532.199951171875</ele>
        <time>2021-07-25T10:33:56.000Z</time>
      </trkpt>
      <trkpt lat="-11.90317246131598949432373046875" lon="-76.50699692778289318084716796875">
        <ele>1533</ele>
        <time>2021-07-25T10:33:59.000Z</time>
      </trkpt>
      <trkpt lat="-11.9030932523310184478759765625" lon="-76.50687170214951038360595703125">
        <ele>1534</ele>
        <time>2021-07-25T10:34:04.000Z</time>
      </trkpt>
      <trkpt lat="-11.9030164740979671478271484375" lon="-76.50671772658824920654296875">
        <ele>1535.199951171875</ele>
        <time>2021-07-25T10:34:10.000Z</time>
      </trkpt>
      <trkpt lat="-11.902958638966083526611328125" lon="-76.50662208907306194305419921875">
        <ele>1535.800048828125</ele>
        <time>2021-07-25T10:34:14.000Z</time>
      </trkpt>
      <trkpt lat="-11.90291966311633586883544921875" lon="-76.50654866360127925872802734375">
        <ele>1536.199951171875</ele>
        <time>2021-07-25T10:34:17.000Z</time>
      </trkpt>
      <trkpt lat="-11.902841627597808837890625" lon="-76.506423689424991607666015625">
        <ele>1537.199951171875</ele>
        <time>2021-07-25T10:34:22.000Z</time>
      </trkpt>
      <trkpt lat="-11.9028270430862903594970703125" lon="-76.5063990466296672821044921875">
        <ele>1537.4000244140625</ele>
        <time>2021-07-25T10:34:23.000Z</time>
      </trkpt>
      <trkpt lat="-11.90272989682853221893310546875" lon="-76.5062488429248332977294921875">
        <ele>1538.4000244140625</ele>
        <time>2021-07-25T10:34:29.000Z</time>
      </trkpt>
      <trkpt lat="-11.90266937948763370513916015625" lon="-76.5061350166797637939453125">
        <ele>1539.199951171875</ele>
        <time>2021-07-25T10:34:33.000Z</time>
      </trkpt>
      <trkpt lat="-11.9025814533233642578125" lon="-76.5059987269341945648193359375">
        <ele>1539.5999755859375</ele>
        <time>2021-07-25T10:34:38.000Z</time>
      </trkpt>
      <trkpt lat="-11.90251347608864307403564453125" lon="-76.50588196702301502227783203125">
        <ele>1540.4000244140625</ele>
        <time>2021-07-25T10:34:42.000Z</time>
      </trkpt>
      <trkpt lat="-11.90247525461018085479736328125" lon="-76.5058171749114990234375">
        <ele>1540.800048828125</ele>
        <time>2021-07-25T10:34:44.000Z</time>
      </trkpt>
      <trkpt lat="-11.90239839255809783935546875" lon="-76.50570242665708065032958984375">
        <ele>1541.199951171875</ele>
        <time>2021-07-25T10:34:48.000Z</time>
      </trkpt>
      <trkpt lat="-11.90235137008130550384521484375" lon="-76.50562916882336139678955078125">
        <ele>1542</ele>
        <time>2021-07-25T10:34:51.000Z</time>
      </trkpt>
      <trkpt lat="-11.90227928571403026580810546875" lon="-76.50549740530550479888916015625">
        <ele>1542.5999755859375</ele>
        <time>2021-07-25T10:34:56.000Z</time>
      </trkpt>
      <trkpt lat="-11.902237124741077423095703125" lon="-76.50543026626110076904296875">
        <ele>1543.199951171875</ele>
        <time>2021-07-25T10:34:59.000Z</time>
      </trkpt>
      <trkpt lat="-11.9021574966609477996826171875" lon="-76.505291797220706939697265625">
        <ele>1543.800048828125</ele>
        <time>2021-07-25T10:35:04.000Z</time>
      </trkpt>
      <trkpt lat="-11.9021268188953399658203125" lon="-76.50524125434458255767822265625">
        <ele>1544.199951171875</ele>
        <time>2021-07-25T10:35:06.000Z</time>
      </trkpt>
      <trkpt lat="-11.90205867402255535125732421875" lon="-76.50513614527881145477294921875">
        <ele>1545.199951171875</ele>
        <time>2021-07-25T10:35:10.000Z</time>
      </trkpt>
      <trkpt lat="-11.9019962288439273834228515625" lon="-76.50502525269985198974609375">
        <ele>1545.5999755859375</ele>
        <time>2021-07-25T10:35:14.000Z</time>
      </trkpt>
      <trkpt lat="-11.90195373259484767913818359375" lon="-76.50494839064776897430419921875">
        <ele>1546.199951171875</ele>
        <time>2021-07-25T10:35:17.000Z</time>
      </trkpt>
      <trkpt lat="-11.90192238427698612213134765625" lon="-76.50489323772490024566650390625">
        <ele>1546.5999755859375</ele>
        <time>2021-07-25T10:35:19.000Z</time>
      </trkpt>
      <trkpt lat="-11.9018078036606311798095703125" lon="-76.50470531545579433441162109375">
        <ele>1547.5999755859375</ele>
        <time>2021-07-25T10:35:26.000Z</time>
      </trkpt>
      <trkpt lat="-11.9017647206783294677734375" lon="-76.5046284534037113189697265625">
        <ele>1548.4000244140625</ele>
        <time>2021-07-25T10:35:30.000Z</time>
      </trkpt>
      <trkpt lat="-11.90171987749636173248291015625" lon="-76.50454941205680370330810546875">
        <ele>1548.800048828125</ele>
        <time>2021-07-25T10:35:33.000Z</time>
      </trkpt>
      <trkpt lat="-11.90161141566932201385498046875" lon="-76.5043826960027217864990234375">
        <ele>1550.4000244140625</ele>
        <time>2021-07-25T10:35:39.000Z</time>
      </trkpt>
      <trkpt lat="-11.90157922916114330291748046875" lon="-76.50436786003410816192626953125">
        <ele>1550.800048828125</ele>
        <time>2021-07-25T10:35:40.000Z</time>
      </trkpt>
      <trkpt lat="-11.90137219615280628204345703125" lon="-76.50427557528018951416015625">
        <ele>1551</ele>
        <time>2021-07-25T10:35:46.000Z</time>
      </trkpt>
      <trkpt lat="-11.90130648203194141387939453125" lon="-76.50424380786716938018798828125">
        <ele>1551.4000244140625</ele>
        <time>2021-07-25T10:35:48.000Z</time>
      </trkpt>
      <trkpt lat="-11.901130042970180511474609375" lon="-76.5041614137589931488037109375">
        <ele>1552.199951171875</ele>
        <time>2021-07-25T10:35:54.000Z</time>
      </trkpt>
      <trkpt lat="-11.9010748900473117828369140625" lon="-76.5041312389075756072998046875">
        <ele>1552.4000244140625</ele>
        <time>2021-07-25T10:35:56.000Z</time>
      </trkpt>
      <trkpt lat="-11.90086794085800647735595703125" lon="-76.5040286444127559661865234375">
        <ele>1553.5999755859375</ele>
        <time>2021-07-25T10:36:03.000Z</time>
      </trkpt>
      <trkpt lat="-11.90084262751042842864990234375" lon="-76.504012048244476318359375">
        <ele>1553.800048828125</ele>
        <time>2021-07-25T10:36:04.000Z</time>
      </trkpt>
      <trkpt lat="-11.9007127918303012847900390625" lon="-76.5039267204701900482177734375">
        <ele>1554.5999755859375</ele>
        <time>2021-07-25T10:36:09.000Z</time>
      </trkpt>
      <trkpt lat="-11.90062637440860271453857421875" lon="-76.5038770996034145355224609375">
        <ele>1555</ele>
        <time>2021-07-25T10:36:12.000Z</time>
      </trkpt>
      <trkpt lat="-11.90047801472246646881103515625" lon="-76.5037775225937366485595703125">
        <ele>1555.800048828125</ele>
        <time>2021-07-25T10:36:18.000Z</time>
      </trkpt>
      <trkpt lat="-11.90043174661695957183837890625" lon="-76.50374072603881359100341796875">
        <ele>1556.199951171875</ele>
        <time>2021-07-25T10:36:20.000Z</time>
      </trkpt>
      <trkpt lat="-11.90034993924200534820556640625" lon="-76.50366461835801601409912109375">
        <ele>1557</ele>
        <time>2021-07-25T10:36:24.000Z</time>
      </trkpt>
      <trkpt lat="-11.9002635218203067779541015625" lon="-76.50358482263982295989990234375">
        <ele>1558</ele>
        <time>2021-07-25T10:36:28.000Z</time>
      </trkpt>
      <trkpt lat="-11.90024583600461483001708984375" lon="-76.503561437129974365234375">
        <ele>1558</ele>
        <time>2021-07-25T10:36:29.000Z</time>
      </trkpt>
      <trkpt lat="-11.90015514381229877471923828125" lon="-76.50346579961478710174560546875">
        <ele>1559</ele>
        <time>2021-07-25T10:36:34.000Z</time>
      </trkpt>
      <trkpt lat="-11.90007702447474002838134765625" lon="-76.503384746611118316650390625">
        <ele>1559.800048828125</ele>
        <time>2021-07-25T10:36:38.000Z</time>
      </trkpt>
      <trkpt lat="-11.900059841573238372802734375" lon="-76.50336639024317264556884765625">
        <ele>1560</ele>
        <time>2021-07-25T10:36:39.000Z</time>
      </trkpt>
      <trkpt lat="-11.89993754960596561431884765625" lon="-76.50323680602014064788818359375">
        <ele>1561</ele>
        <time>2021-07-25T10:36:46.000Z</time>
      </trkpt>
      <trkpt lat="-11.8998360447585582733154296875" lon="-76.5031505562365055084228515625">
        <ele>1562.199951171875</ele>
        <time>2021-07-25T10:36:51.000Z</time>
      </trkpt>
      <trkpt lat="-11.899752058088779449462890625" lon="-76.50308945216238498687744140625">
        <ele>1563</ele>
        <time>2021-07-25T10:36:55.000Z</time>
      </trkpt>
      <trkpt lat="-11.8997317738831043243408203125" lon="-76.5030761249363422393798828125">
        <ele>1563.199951171875</ele>
        <time>2021-07-25T10:36:56.000Z</time>
      </trkpt>
      <trkpt lat="-11.8995879404246807098388671875" lon="-76.50300957262516021728515625">
        <ele>1563.800048828125</ele>
        <time>2021-07-25T10:37:02.000Z</time>
      </trkpt>
      <trkpt lat="-11.89951443113386631011962890625" lon="-76.5029795654118061065673828125">
        <ele>1564.4000244140625</ele>
        <time>2021-07-25T10:37:05.000Z</time>
      </trkpt>
      <trkpt lat="-11.8993636406958103179931640625" lon="-76.50293036364018917083740234375">
        <ele>1565.4000244140625</ele>
        <time>2021-07-25T10:37:11.000Z</time>
      </trkpt>
      <trkpt lat="-11.8992110900580883026123046875" lon="-76.50286766700446605682373046875">
        <ele>1566.5999755859375</ele>
        <time>2021-07-25T10:37:17.000Z</time>
      </trkpt>
      <trkpt lat="-11.89918577671051025390625" lon="-76.50286138057708740234375">
        <ele>1566.800048828125</ele>
        <time>2021-07-25T10:37:18.000Z</time>
      </trkpt>
      <trkpt lat="-11.89916105009615421295166015625" lon="-76.5028521604835987091064453125">
        <ele>1566.800048828125</ele>
        <time>2021-07-25T10:37:19.000Z</time>
      </trkpt>
      <trkpt lat="-11.8990337289869785308837890625" lon="-76.50281268171966075897216796875">
        <ele>1567.800048828125</ele>
        <time>2021-07-25T10:37:24.000Z</time>
      </trkpt>
      <trkpt lat="-11.89895770512521266937255859375" lon="-76.502783596515655517578125">
        <ele>1568.4000244140625</ele>
        <time>2021-07-25T10:37:27.000Z</time>
      </trkpt>
      <trkpt lat="-11.89885678701102733612060546875" lon="-76.50274403393268585205078125">
        <ele>1568.800048828125</ele>
        <time>2021-07-25T10:37:31.000Z</time>
      </trkpt>
      <trkpt lat="-11.8987552821636199951171875" lon="-76.5027110092341899871826171875">
        <ele>1569.5999755859375</ele>
        <time>2021-07-25T10:37:35.000Z</time>
      </trkpt>
      <trkpt lat="-11.898704655468463897705078125" lon="-76.5026925690472126007080078125">
        <ele>1570</ele>
        <time>2021-07-25T10:37:38.000Z</time>
      </trkpt>
      <trkpt lat="-11.898579932749271392822265625" lon="-76.50264889933168888092041015625">
        <ele>1571</ele>
        <time>2021-07-25T10:37:43.000Z</time>
      </trkpt>
      <trkpt lat="-11.8985006399452686309814453125" lon="-76.50262467563152313232421875">
        <ele>1571.5999755859375</ele>
        <time>2021-07-25T10:37:46.000Z</time>
      </trkpt>
      <trkpt lat="-11.89842260442674160003662109375" lon="-76.5025980211794376373291015625">
        <ele>1572.199951171875</ele>
        <time>2021-07-25T10:37:49.000Z</time>
      </trkpt>
      <trkpt lat="-11.89827575348317623138427734375" lon="-76.50254228152334690093994140625">
        <ele>1573.199951171875</ele>
        <time>2021-07-25T10:37:55.000Z</time>
      </trkpt>
      <trkpt lat="-11.898104846477508544921875" lon="-76.50246097706258296966552734375">
        <ele>1574.4000244140625</ele>
        <time>2021-07-25T10:38:02.000Z</time>
      </trkpt>
      <trkpt lat="-11.89808146096765995025634765625" lon="-76.50244991295039653778076171875">
        <ele>1574.5999755859375</ele>
        <time>2021-07-25T10:38:03.000Z</time>
      </trkpt>
      <trkpt lat="-11.8979950435459613800048828125" lon="-76.50237028487026691436767578125">
        <ele>1575.4000244140625</ele>
        <time>2021-07-25T10:38:08.000Z</time>
      </trkpt>
      <trkpt lat="-11.89793176017701625823974609375" lon="-76.50231764651834964752197265625">
        <ele>1576</ele>
        <time>2021-07-25T10:38:11.000Z</time>
      </trkpt>
      <trkpt lat="-11.8978760205209255218505859375" lon="-76.5022610686719417572021484375">
        <ele>1576.5999755859375</ele>
        <time>2021-07-25T10:38:14.000Z</time>
      </trkpt>
      <trkpt lat="-11.897820197045803070068359375" lon="-76.50221203453838825225830078125">
        <ele>1577</ele>
        <time>2021-07-25T10:38:17.000Z</time>
      </trkpt>
      <trkpt lat="-11.897758506238460540771484375" lon="-76.50213475339114665985107421875">
        <ele>1577.5999755859375</ele>
        <time>2021-07-25T10:38:21.000Z</time>
      </trkpt>
      <trkpt lat="-11.89771500416100025177001953125" lon="-76.50207088328897953033447265625">
        <ele>1578.199951171875</ele>
        <time>2021-07-25T10:38:24.000Z</time>
      </trkpt>
      <trkpt lat="-11.8976751901209354400634765625" lon="-76.502010785043239593505859375">
        <ele>1578.5999755859375</ele>
        <time>2021-07-25T10:38:27.000Z</time>
      </trkpt>
      <trkpt lat="-11.89761978574097156524658203125" lon="-76.5019281394779682159423828125">
        <ele>1579.4000244140625</ele>
        <time>2021-07-25T10:38:31.000Z</time>
      </trkpt>
      <trkpt lat="-11.8976101465523242950439453125" lon="-76.501902155578136444091796875">
        <ele>1579.800048828125</ele>
        <time>2021-07-25T10:38:32.000Z</time>
      </trkpt>
      <trkpt lat="-11.8975135870277881622314453125" lon="-76.5017514489591121673583984375">
        <ele>1581</ele>
        <time>2021-07-25T10:38:39.000Z</time>
      </trkpt>
      <trkpt lat="-11.89741862006485462188720703125" lon="-76.50159613229334354400634765625">
        <ele>1582</ele>
        <time>2021-07-25T10:38:46.000Z</time>
      </trkpt>
      <trkpt lat="-11.89733966253697872161865234375" lon="-76.50144827552139759063720703125">
        <ele>1583.199951171875</ele>
        <time>2021-07-25T10:38:52.000Z</time>
      </trkpt>
      <trkpt lat="-11.89731334336102008819580078125" lon="-76.501401253044605255126953125">
        <ele>1583.800048828125</ele>
        <time>2021-07-25T10:38:54.000Z</time>
      </trkpt>
      <trkpt lat="-11.8972507305443286895751953125" lon="-76.50130410678684711456298828125">
        <ele>1584.199951171875</ele>
        <time>2021-07-25T10:38:59.000Z</time>
      </trkpt>
      <trkpt lat="-11.8972386606037616729736328125" lon="-76.50128348730504512786865234375">
        <ele>1584.4000244140625</ele>
        <time>2021-07-25T10:39:00.000Z</time>
      </trkpt>
      <trkpt lat="-11.8971742875874042510986328125" lon="-76.50117091834545135498046875">
        <ele>1585.4000244140625</ele>
        <time>2021-07-25T10:39:05.000Z</time>
      </trkpt>
      <trkpt lat="-11.89713045023381710052490234375" lon="-76.50107578374445438385009765625">
        <ele>1586</ele>
        <time>2021-07-25T10:39:09.000Z</time>
      </trkpt>
      <trkpt lat="-11.89708099700510501861572265625" lon="-76.50097645819187164306640625">
        <ele>1586.4000244140625</ele>
        <time>2021-07-25T10:39:13.000Z</time>
      </trkpt>
      <trkpt lat="-11.89705199562013149261474609375" lon="-76.50089708156883716583251953125">
        <ele>1587.199951171875</ele>
        <time>2021-07-25T10:39:16.000Z</time>
      </trkpt>
      <trkpt lat="-11.89702869392931461334228515625" lon="-76.50081954896450042724609375">
        <ele>1587.5999755859375</ele>
        <time>2021-07-25T10:39:19.000Z</time>
      </trkpt>
      <trkpt lat="-11.897016875445842742919921875" lon="-76.50070563890039920806884765625">
        <ele>1588</ele>
        <time>2021-07-25T10:39:23.000Z</time>
      </trkpt>
      <trkpt lat="-11.89701679162681102752685546875" lon="-76.5006230771541595458984375">
        <ele>1588.5999755859375</ele>
        <time>2021-07-25T10:39:26.000Z</time>
      </trkpt>
      <trkpt lat="-11.8970240838825702667236328125" lon="-76.50051168166100978851318359375">
        <ele>1588.800048828125</ele>
        <time>2021-07-25T10:39:30.000Z</time>
      </trkpt>
      <trkpt lat="-11.89703724347054958343505859375" lon="-76.5003670938313007354736328125">
        <ele>1589.800048828125</ele>
        <time>2021-07-25T10:39:35.000Z</time>
      </trkpt>
      <trkpt lat="-11.89705249853432178497314453125" lon="-76.50027397088706493377685546875">
        <ele>1590</ele>
        <time>2021-07-25T10:39:38.000Z</time>
      </trkpt>
      <trkpt lat="-11.8970690108835697174072265625" lon="-76.50012410245835781097412109375">
        <ele>1590.800048828125</ele>
        <time>2021-07-25T10:39:43.000Z</time>
      </trkpt>
      <trkpt lat="-11.897068507969379425048828125" lon="-76.500034332275390625">
        <ele>1591.4000244140625</ele>
        <time>2021-07-25T10:39:46.000Z</time>
      </trkpt>
      <trkpt lat="-11.89704780466854572296142578125" lon="-76.49988018907606601715087890625">
        <ele>1591.800048828125</ele>
        <time>2021-07-25T10:39:51.000Z</time>
      </trkpt>
      <trkpt lat="-11.8970364890992641448974609375" lon="-76.4998142234981060028076171875">
        <ele>1592</ele>
        <time>2021-07-25T10:39:53.000Z</time>
      </trkpt>
      <trkpt lat="-11.8969823420047760009765625" lon="-76.499628983438014984130859375">
        <ele>1592.800048828125</ele>
        <time>2021-07-25T10:39:59.000Z</time>
      </trkpt>
      <trkpt lat="-11.89694344997406005859375" lon="-76.4995362795889377593994140625">
        <ele>1593.5999755859375</ele>
        <time>2021-07-25T10:40:02.000Z</time>
      </trkpt>
      <trkpt lat="-11.89691520296037197113037109375" lon="-76.49947400204837322235107421875">
        <ele>1594</ele>
        <time>2021-07-25T10:40:04.000Z</time>
      </trkpt>
      <trkpt lat="-11.89680942334234714508056640625" lon="-76.49930401705205440521240234375">
        <ele>1594.5999755859375</ele>
        <time>2021-07-25T10:40:10.000Z</time>
      </trkpt>
      <trkpt lat="-11.89676441252231597900390625" lon="-76.49925171397626399993896484375">
        <ele>1595</ele>
        <time>2021-07-25T10:40:12.000Z</time>
      </trkpt>
      <trkpt lat="-11.896656453609466552734375" lon="-76.49913436733186244964599609375">
        <ele>1595.5999755859375</ele>
        <time>2021-07-25T10:40:17.000Z</time>
      </trkpt>
      <trkpt lat="-11.89656098373234272003173828125" lon="-76.49904903955757617950439453125">
        <ele>1596</ele>
        <time>2021-07-25T10:40:21.000Z</time>
      </trkpt>
      <trkpt lat="-11.8965370953083038330078125" lon="-76.49902381002902984619140625">
        <ele>1596.5999755859375</ele>
        <time>2021-07-25T10:40:22.000Z</time>
      </trkpt>
      <trkpt lat="-11.89651505090296268463134765625" lon="-76.49900109507143497467041015625">
        <ele>1597.199951171875</ele>
        <time>2021-07-25T10:40:23.000Z</time>
      </trkpt>
      <trkpt lat="-11.89628656022250652313232421875" lon="-76.49876497685909271240234375">
        <ele>1598</ele>
        <time>2021-07-25T10:40:33.000Z</time>
      </trkpt>
      <trkpt lat="-11.8962009809911251068115234375" lon="-76.49869046173989772796630859375">
        <ele>1598.4000244140625</ele>
        <time>2021-07-25T10:40:36.000Z</time>
      </trkpt>
      <trkpt lat="-11.89606762491166591644287109375" lon="-76.49857512675225734710693359375">
        <ele>1599</ele>
        <time>2021-07-25T10:40:41.000Z</time>
      </trkpt>
      <trkpt lat="-11.89599537290632724761962890625" lon="-76.498501785099506378173828125">
        <ele>1599.4000244140625</ele>
        <time>2021-07-25T10:40:44.000Z</time>
      </trkpt>
      <trkpt lat="-11.89583192579448223114013671875" lon="-76.498357616364955902099609375">
        <ele>1600.199951171875</ele>
        <time>2021-07-25T10:40:50.000Z</time>
      </trkpt>
      <trkpt lat="-11.89575145952403545379638671875" lon="-76.49827874265611171722412109375">
        <ele>1600.4000244140625</ele>
        <time>2021-07-25T10:40:53.000Z</time>
      </trkpt>
      <trkpt lat="-11.89554744400084018707275390625" lon="-76.49815066717565059661865234375">
        <ele>1601.199951171875</ele>
        <time>2021-07-25T10:40:59.000Z</time>
      </trkpt>
      <trkpt lat="-11.895245276391506195068359375" lon="-76.4980302192270755767822265625">
        <ele>1601.199951171875</ele>
        <time>2021-07-25T10:41:07.000Z</time>
      </trkpt>
      <trkpt lat="-11.8950288556516170501708984375" lon="-76.497974060475826263427734375">
        <ele>1601.5999755859375</ele>
        <time>2021-07-25T10:41:12.000Z</time>
      </trkpt>
      <trkpt lat="-11.89488979987800121307373046875" lon="-76.49793743155896663665771484375">
        <ele>1601.199951171875</ele>
        <time>2021-07-25T10:41:15.000Z</time>
      </trkpt>
      <trkpt lat="-11.89445972442626953125" lon="-76.49782964028418064117431640625">
        <ele>1601</ele>
        <time>2021-07-25T10:41:24.000Z</time>
      </trkpt>
      <trkpt lat="-11.89407289959490299224853515625" lon="-76.4977405406534671783447265625">
        <ele>1600.4000244140625</ele>
        <time>2021-07-25T10:41:32.000Z</time>
      </trkpt>
      <trkpt lat="-11.89402210526168346405029296875" lon="-76.49772696197032928466796875">
        <ele>1600.4000244140625</ele>
        <time>2021-07-25T10:41:33.000Z</time>
      </trkpt>
      <trkpt lat="-11.8935536406934261322021484375" lon="-76.497604586184024810791015625">
        <ele>1599.800048828125</ele>
        <time>2021-07-25T10:41:42.000Z</time>
      </trkpt>
      <trkpt lat="-11.89302046783268451690673828125" lon="-76.49747089482843875885009765625">
        <ele>1600.199951171875</ele>
        <time>2021-07-25T10:41:52.000Z</time>
      </trkpt>
      <trkpt lat="-11.8927042186260223388671875" lon="-76.49739311076700687408447265625">
        <ele>1601</ele>
        <time>2021-07-25T10:41:59.000Z</time>
      </trkpt>
      <trkpt lat="-11.8925099261105060577392578125" lon="-76.49735120125114917755126953125">
        <ele>1601.5999755859375</ele>
        <time>2021-07-25T10:42:04.000Z</time>
      </trkpt>
      <trkpt lat="-11.89243641681969165802001953125" lon="-76.4973321743309497833251953125">
        <ele>1602</ele>
        <time>2021-07-25T10:42:06.000Z</time>
      </trkpt>
      <trkpt lat="-11.89226492308080196380615234375" lon="-76.49728431366384029388427734375">
        <ele>1602.800048828125</ele>
        <time>2021-07-25T10:42:11.000Z</time>
      </trkpt>
      <trkpt lat="-11.8922343291342258453369140625" lon="-76.497276686131954193115234375">
        <ele>1602.800048828125</ele>
        <time>2021-07-25T10:42:12.000Z</time>
      </trkpt>
      <trkpt lat="-11.8920770846307277679443359375" lon="-76.49723620153963565826416015625">
        <ele>1603.800048828125</ele>
        <time>2021-07-25T10:42:17.000Z</time>
      </trkpt>
      <trkpt lat="-11.8919827044010162353515625" lon="-76.49720183573663234710693359375">
        <ele>1604.4000244140625</ele>
        <time>2021-07-25T10:42:20.000Z</time>
      </trkpt>
      <trkpt lat="-11.8919007293879985809326171875" lon="-76.4971642009913921356201171875">
        <ele>1605</ele>
        <time>2021-07-25T10:42:23.000Z</time>
      </trkpt>
      <trkpt lat="-11.89180576242506504058837890625" lon="-76.4971015043556690216064453125">
        <ele>1605.5999755859375</ele>
        <time>2021-07-25T10:42:27.000Z</time>
      </trkpt>
      <trkpt lat="-11.89178355038166046142578125" lon="-76.49708348326385021209716796875">
        <ele>1606</ele>
        <time>2021-07-25T10:42:28.000Z</time>
      </trkpt>
      <trkpt lat="-11.89164248295128345489501953125" lon="-76.49693227373063564300537109375">
        <ele>1607</ele>
        <time>2021-07-25T10:42:35.000Z</time>
      </trkpt>
      <trkpt lat="-11.89155631698668003082275390625" lon="-76.49676312692463397979736328125">
        <ele>1608.199951171875</ele>
        <time>2021-07-25T10:42:42.000Z</time>
      </trkpt>
      <trkpt lat="-11.89149529673159122467041015625" lon="-76.49655844084918498992919921875">
        <ele>1609.4000244140625</ele>
        <time>2021-07-25T10:42:50.000Z</time>
      </trkpt>
      <trkpt lat="-11.8914588354527950286865234375" lon="-76.49639868177473545074462890625">
        <ele>1610.4000244140625</ele>
        <time>2021-07-25T10:42:56.000Z</time>
      </trkpt>
      <trkpt lat="-11.891441233456134796142578125" lon="-76.49631603620946407318115234375">
        <ele>1611</ele>
        <time>2021-07-25T10:42:59.000Z</time>
      </trkpt>
      <trkpt lat="-11.891410052776336669921875" lon="-76.49620212614536285400390625">
        <ele>1611.5999755859375</ele>
        <time>2021-07-25T10:43:03.000Z</time>
      </trkpt>
      <trkpt lat="-11.89136655069887638092041015625" lon="-76.49609886109828948974609375">
        <ele>1612</ele>
        <time>2021-07-25T10:43:07.000Z</time>
      </trkpt>
      <trkpt lat="-11.8913257308304309844970703125" lon="-76.4959357492625713348388671875">
        <ele>1612.5999755859375</ele>
        <time>2021-07-25T10:43:13.000Z</time>
      </trkpt>
      <trkpt lat="-11.8913069553673267364501953125" lon="-76.49585486389696598052978515625">
        <ele>1613.199951171875</ele>
        <time>2021-07-25T10:43:16.000Z</time>
      </trkpt>
      <trkpt lat="-11.89128172583878040313720703125" lon="-76.49573416449129581451416015625">
        <ele>1613.800048828125</ele>
        <time>2021-07-25T10:43:20.000Z</time>
      </trkpt>
      <trkpt lat="-11.891235373914241790771484375" lon="-76.495564095675945281982421875">
        <ele>1614.4000244140625</ele>
        <time>2021-07-25T10:43:26.000Z</time>
      </trkpt>
      <trkpt lat="-11.891193799674510955810546875" lon="-76.49545085616409778594970703125">
        <ele>1614.800048828125</ele>
        <time>2021-07-25T10:43:30.000Z</time>
      </trkpt>
      <trkpt lat="-11.89110185019671916961669921875" lon="-76.49531406350433826446533203125">
        <ele>1615.4000244140625</ele>
        <time>2021-07-25T10:43:35.000Z</time>
      </trkpt>
      <trkpt lat="-11.8909301050007343292236328125" lon="-76.495124213397502899169921875">
        <ele>1615.800048828125</ele>
        <time>2021-07-25T10:43:42.000Z</time>
      </trkpt>
      <trkpt lat="-11.89071469008922576904296875" lon="-76.49489647708833217620849609375">
        <ele>1616.199951171875</ele>
        <time>2021-07-25T10:43:50.000Z</time>
      </trkpt>
      <trkpt lat="-11.89058468677103519439697265625" lon="-76.4946885220706462860107421875">
        <ele>1616.800048828125</ele>
        <time>2021-07-25T10:43:56.000Z</time>
      </trkpt>
      <trkpt lat="-11.89049600623548030853271484375" lon="-76.4945264160633087158203125">
        <ele>1617</ele>
        <time>2021-07-25T10:44:01.000Z</time>
      </trkpt>
      <trkpt lat="-11.890454851090908050537109375" lon="-76.494415104389190673828125">
        <ele>1617.199951171875</ele>
        <time>2021-07-25T10:44:04.000Z</time>
      </trkpt>
      <trkpt lat="-11.8903165496885776519775390625" lon="-76.4940940774977207183837890625">
        <ele>1617.800048828125</ele>
        <time>2021-07-25T10:44:13.000Z</time>
      </trkpt>
      <trkpt lat="-11.8903004564344882965087890625" lon="-76.49405895732343196868896484375">
        <ele>1618</ele>
        <time>2021-07-25T10:44:14.000Z</time>
      </trkpt>
      <trkpt lat="-11.890192665159702301025390625" lon="-76.49386399425566196441650390625">
        <ele>1618.5999755859375</ele>
        <time>2021-07-25T10:44:20.000Z</time>
      </trkpt>
      <trkpt lat="-11.8900568783283233642578125" lon="-76.49372267536818981170654296875">
        <ele>1619</ele>
        <time>2021-07-25T10:44:25.000Z</time>
      </trkpt>
      <trkpt lat="-11.8899671919643878936767578125" lon="-76.49364807642996311187744140625">
        <ele>1619.199951171875</ele>
        <time>2021-07-25T10:44:28.000Z</time>
      </trkpt>
      <trkpt lat="-11.8897683732211589813232421875" lon="-76.4935324899852275848388671875">
        <ele>1620</ele>
        <time>2021-07-25T10:44:34.000Z</time>
      </trkpt>
      <trkpt lat="-11.8897001445293426513671875" lon="-76.49349502287805080413818359375">
        <ele>1620.199951171875</ele>
        <time>2021-07-25T10:44:36.000Z</time>
      </trkpt>
      <trkpt lat="-11.8895216099917888641357421875" lon="-76.493384800851345062255859375">
        <ele>1621</ele>
        <time>2021-07-25T10:44:42.000Z</time>
      </trkpt>
      <trkpt lat="-11.8894890882074832916259765625" lon="-76.49336862377822399139404296875">
        <ele>1621.4000244140625</ele>
        <time>2021-07-25T10:44:43.000Z</time>
      </trkpt>
      <trkpt lat="-11.8892426602542400360107421875" lon="-76.4932196773588657379150390625">
        <ele>1622</ele>
        <time>2021-07-25T10:44:51.000Z</time>
      </trkpt>
      <trkpt lat="-11.8892124854028224945068359375" lon="-76.49320207536220550537109375">
        <ele>1622.4000244140625</ele>
        <time>2021-07-25T10:44:52.000Z</time>
      </trkpt>
      <trkpt lat="-11.8889687396585941314697265625" lon="-76.49305782280862331390380859375">
        <ele>1623.5999755859375</ele>
        <time>2021-07-25T10:45:00.000Z</time>
      </trkpt>
      <trkpt lat="-11.88875206746160984039306640625" lon="-76.4928820542991161346435546875">
        <ele>1624.4000244140625</ele>
        <time>2021-07-25T10:45:08.000Z</time>
      </trkpt>
      <trkpt lat="-11.8887077271938323974609375" lon="-76.4928280748426914215087890625">
        <ele>1624.5999755859375</ele>
        <time>2021-07-25T10:45:10.000Z</time>
      </trkpt>
      <trkpt lat="-11.88860571943223476409912109375" lon="-76.4926604367792606353759765625">
        <ele>1625.5999755859375</ele>
        <time>2021-07-25T10:45:16.000Z</time>
      </trkpt>
      <trkpt lat="-11.888539753854274749755859375" lon="-76.4924109913408756256103515625">
        <ele>1626.800048828125</ele>
        <time>2021-07-25T10:45:24.000Z</time>
      </trkpt>
      <trkpt lat="-11.8884554319083690643310546875" lon="-76.4920911379158496856689453125">
        <ele>1627.5999755859375</ele>
        <time>2021-07-25T10:45:34.000Z</time>
      </trkpt>
      <trkpt lat="-11.8884393386542797088623046875" lon="-76.49202550761401653289794921875">
        <ele>1628</ele>
        <time>2021-07-25T10:45:36.000Z</time>
      </trkpt>
      <trkpt lat="-11.8883974291384220123291015625" lon="-76.4918430335819721221923828125">
        <ele>1628.800048828125</ele>
        <time>2021-07-25T10:45:42.000Z</time>
      </trkpt>
      <trkpt lat="-11.88838225789368152618408203125" lon="-76.49177924729883670806884765625">
        <ele>1629</ele>
        <time>2021-07-25T10:45:44.000Z</time>
      </trkpt>
      <trkpt lat="-11.88833951018750667572021484375" lon="-76.491587050259113311767578125">
        <ele>1629.800048828125</ele>
        <time>2021-07-25T10:45:50.000Z</time>
      </trkpt>
      <trkpt lat="-11.888319142162799835205078125" lon="-76.49152569472789764404296875">
        <ele>1630.199951171875</ele>
        <time>2021-07-25T10:45:52.000Z</time>
      </trkpt>
      <trkpt lat="-11.88823632895946502685546875" lon="-76.49135445244610309600830078125">
        <ele>1631.199951171875</ele>
        <time>2021-07-25T10:45:58.000Z</time>
      </trkpt>
      <trkpt lat="-11.8881095945835113525390625" lon="-76.4911711402237415313720703125">
        <ele>1632</ele>
        <time>2021-07-25T10:46:05.000Z</time>
      </trkpt>
      <trkpt lat="-11.888091824948787689208984375" lon="-76.4911449886858463287353515625">
        <ele>1632.199951171875</ele>
        <time>2021-07-25T10:46:06.000Z</time>
      </trkpt>
      <trkpt lat="-11.8879709579050540924072265625" lon="-76.49099369533360004425048828125">
        <ele>1633</ele>
        <time>2021-07-25T10:46:12.000Z</time>
      </trkpt>
      <trkpt lat="-11.8879505060613155364990234375" lon="-76.49096922017633914947509765625">
        <ele>1633.199951171875</ele>
        <time>2021-07-25T10:46:13.000Z</time>
      </trkpt>
      <trkpt lat="-11.88783810473978519439697265625" lon="-76.4908237941563129425048828125">
        <ele>1634.4000244140625</ele>
        <time>2021-07-25T10:46:19.000Z</time>
      </trkpt>
      <trkpt lat="-11.887819580733776092529296875" lon="-76.490800492465496063232421875">
        <ele>1634.4000244140625</ele>
        <time>2021-07-25T10:46:20.000Z</time>
      </trkpt>
      <trkpt lat="-11.8877107836306095123291015625" lon="-76.49065800011157989501953125">
        <ele>1635.4000244140625</ele>
        <time>2021-07-25T10:46:26.000Z</time>
      </trkpt>
      <trkpt lat="-11.887680776417255401611328125" lon="-76.4906078763306140899658203125">
        <ele>1636</ele>
        <time>2021-07-25T10:46:28.000Z</time>
      </trkpt>
      <trkpt lat="-11.8876185826957225799560546875" lon="-76.490512154996395111083984375">
        <ele>1636.5999755859375</ele>
        <time>2021-07-25T10:46:32.000Z</time>
      </trkpt>
      <trkpt lat="-11.88757910393178462982177734375" lon="-76.490436382591724395751953125">
        <ele>1637</ele>
        <time>2021-07-25T10:46:35.000Z</time>
      </trkpt>
      <trkpt lat="-11.8875307403504848480224609375" lon="-76.49030688218772411346435546875">
        <ele>1637.5999755859375</ele>
        <time>2021-07-25T10:46:40.000Z</time>
      </trkpt>
      <trkpt lat="-11.88752529211342334747314453125" lon="-76.49028039537370204925537109375">
        <ele>1637.800048828125</ele>
        <time>2021-07-25T10:46:41.000Z</time>
      </trkpt>
      <trkpt lat="-11.887503750622272491455078125" lon="-76.4901482127606868743896484375">
        <ele>1638.800048828125</ele>
        <time>2021-07-25T10:46:46.000Z</time>
      </trkpt>
      <trkpt lat="-11.88749662600457668304443359375" lon="-76.49004285223782062530517578125">
        <ele>1639.4000244140625</ele>
        <time>2021-07-25T10:46:50.000Z</time>
      </trkpt>
      <trkpt lat="-11.88749981112778186798095703125" lon="-76.489989794790744781494140625">
        <ele>1639.800048828125</ele>
        <time>2021-07-25T10:46:52.000Z</time>
      </trkpt>
      <trkpt lat="-11.887526214122772216796875" lon="-76.48983053863048553466796875">
        <ele>1640.800048828125</ele>
        <time>2021-07-25T10:46:58.000Z</time>
      </trkpt>
      <trkpt lat="-11.88757650554180145263671875" lon="-76.48961554281413555145263671875">
        <ele>1642</ele>
        <time>2021-07-25T10:47:06.000Z</time>
      </trkpt>
      <trkpt lat="-11.8876095302402973175048828125" lon="-76.48947942070662975311279296875">
        <ele>1643</ele>
        <time>2021-07-25T10:47:11.000Z</time>
      </trkpt>
      <trkpt lat="-11.88763685524463653564453125" lon="-76.489370204508304595947265625">
        <ele>1643.4000244140625</ele>
        <time>2021-07-25T10:47:15.000Z</time>
      </trkpt>
      <trkpt lat="-11.88766895793378353118896484375" lon="-76.4892630837857723236083984375">
        <ele>1644</ele>
        <time>2021-07-25T10:47:19.000Z</time>
      </trkpt>
      <trkpt lat="-11.88769628293812274932861328125" lon="-76.4891568012535572052001953125">
        <ele>1644.800048828125</ele>
        <time>2021-07-25T10:47:23.000Z</time>
      </trkpt>
      <trkpt lat="-11.887729056179523468017578125" lon="-76.48904792033135890960693359375">
        <ele>1645.199951171875</ele>
        <time>2021-07-25T10:47:27.000Z</time>
      </trkpt>
      <trkpt lat="-11.88775780610740184783935546875" lon="-76.4889375306665897369384765625">
        <ele>1645.800048828125</ele>
        <time>2021-07-25T10:47:31.000Z</time>
      </trkpt>
      <trkpt lat="-11.887775994837284088134765625" lon="-76.48885496892035007476806640625">
        <ele>1646.4000244140625</ele>
        <time>2021-07-25T10:47:34.000Z</time>
      </trkpt>
      <trkpt lat="-11.88779569230973720550537109375" lon="-76.48866671137511730194091796875">
        <ele>1647</ele>
        <time>2021-07-25T10:47:40.000Z</time>
      </trkpt>
      <trkpt lat="-11.887786388397216796875" lon="-76.488514244556427001953125">
        <ele>1647.4000244140625</ele>
        <time>2021-07-25T10:47:45.000Z</time>
      </trkpt>
      <trkpt lat="-11.88777230679988861083984375" lon="-76.48837753571569919586181640625">
        <ele>1647.4000244140625</ele>
        <time>2021-07-25T10:47:49.000Z</time>
      </trkpt>
      <trkpt lat="-11.88773148693144321441650390625" lon="-76.48809246718883514404296875">
        <ele>1648.4000244140625</ele>
        <time>2021-07-25T10:47:57.000Z</time>
      </trkpt>
      <trkpt lat="-11.88772260211408138275146484375" lon="-76.4880218915641307830810546875">
        <ele>1648.5999755859375</ele>
        <time>2021-07-25T10:47:59.000Z</time>
      </trkpt>
      <trkpt lat="-11.887709610164165496826171875" lon="-76.48780991323292255401611328125">
        <ele>1648.800048828125</ele>
        <time>2021-07-25T10:48:05.000Z</time>
      </trkpt>
      <trkpt lat="-11.88772059045732021331787109375" lon="-76.48752610199153423309326171875">
        <ele>1649.199951171875</ele>
        <time>2021-07-25T10:48:13.000Z</time>
      </trkpt>
      <trkpt lat="-11.88772930763661861419677734375" lon="-76.48745820857584476470947265625">
        <ele>1649.5999755859375</ele>
        <time>2021-07-25T10:48:15.000Z</time>
      </trkpt>
      <trkpt lat="-11.88775487244129180908203125" lon="-76.48729006759822368621826171875">
        <ele>1649.5999755859375</ele>
        <time>2021-07-25T10:48:20.000Z</time>
      </trkpt>
      <trkpt lat="-11.88779401592910289764404296875" lon="-76.486973650753498077392578125">
        <ele>1650.4000244140625</ele>
        <time>2021-07-25T10:48:28.000Z</time>
      </trkpt>
      <trkpt lat="-11.88780474476516246795654296875" lon="-76.4868598245084285736083984375">
        <ele>1650.5999755859375</ele>
        <time>2021-07-25T10:48:31.000Z</time>
      </trkpt>
      <trkpt lat="-11.88781782053411006927490234375" lon="-76.48670308291912078857421875">
        <ele>1650.800048828125</ele>
        <time>2021-07-25T10:48:35.000Z</time>
      </trkpt>
      <trkpt lat="-11.8878130428493022918701171875" lon="-76.4863642863929271697998046875">
        <ele>1651.4000244140625</ele>
        <time>2021-07-25T10:48:44.000Z</time>
      </trkpt>
      <trkpt lat="-11.88780390657484531402587890625" lon="-76.4863257296383380889892578125">
        <ele>1651.5999755859375</ele>
        <time>2021-07-25T10:48:45.000Z</time>
      </trkpt>
      <trkpt lat="-11.8877151422202587127685546875" lon="-76.486055664718151092529296875">
        <ele>1652</ele>
        <time>2021-07-25T10:48:52.000Z</time>
      </trkpt>
      <trkpt lat="-11.88761749304831027984619140625" lon="-76.4858355559408664703369140625">
        <ele>1652.800048828125</ele>
        <time>2021-07-25T10:48:58.000Z</time>
      </trkpt>
      <trkpt lat="-11.88759117387235164642333984375" lon="-76.48576338775455951690673828125">
        <ele>1652.800048828125</ele>
        <time>2021-07-25T10:49:00.000Z</time>
      </trkpt>
      <trkpt lat="-11.8874962069094181060791015625" lon="-76.48551746271550655364990234375">
        <ele>1653.5999755859375</ele>
        <time>2021-07-25T10:49:07.000Z</time>
      </trkpt>
      <trkpt lat="-11.887482292950153350830078125" lon="-76.48548267781734466552734375">
        <ele>1653.800048828125</ele>
        <time>2021-07-25T10:49:08.000Z</time>
      </trkpt>
      <trkpt lat="-11.88736486248672008514404296875" lon="-76.48518897593021392822265625">
        <ele>1654.800048828125</ele>
        <time>2021-07-25T10:49:16.000Z</time>
      </trkpt>
      <trkpt lat="-11.8873500265181064605712890625" lon="-76.48515251465141773223876953125">
        <ele>1655</ele>
        <time>2021-07-25T10:49:17.000Z</time>
      </trkpt>
      <trkpt lat="-11.88723745755851268768310546875" lon="-76.48491195403039455413818359375">
        <ele>1655.5999755859375</ele>
        <time>2021-07-25T10:49:24.000Z</time>
      </trkpt>
      <trkpt lat="-11.88719429075717926025390625" lon="-76.4848065935075283050537109375">
        <ele>1656</ele>
        <time>2021-07-25T10:49:27.000Z</time>
      </trkpt>
      <trkpt lat="-11.887120194733142852783203125" lon="-76.4846325851976871490478515625">
        <ele>1656.5999755859375</ele>
        <time>2021-07-25T10:49:32.000Z</time>
      </trkpt>
      <trkpt lat="-11.88703411258757114410400390625" lon="-76.4844198524951934814453125">
        <ele>1657.199951171875</ele>
        <time>2021-07-25T10:49:38.000Z</time>
      </trkpt>
      <trkpt lat="-11.88700209371745586395263671875" lon="-76.48434651084244251251220703125">
        <ele>1657.4000244140625</ele>
        <time>2021-07-25T10:49:40.000Z</time>
      </trkpt>
      <trkpt lat="-11.88689715228974819183349609375" lon="-76.48410947062075138092041015625">
        <ele>1658.199951171875</ele>
        <time>2021-07-25T10:49:47.000Z</time>
      </trkpt>
      <trkpt lat="-11.88686932437121868133544921875" lon="-76.4840376377105712890625">
        <ele>1658.199951171875</ele>
        <time>2021-07-25T10:49:49.000Z</time>
      </trkpt>
      <trkpt lat="-11.88674175180494785308837890625" lon="-76.48374787531793117523193359375">
        <ele>1658.800048828125</ele>
        <time>2021-07-25T10:49:57.000Z</time>
      </trkpt>
      <trkpt lat="-11.88657243736088275909423828125" lon="-76.48345819674432277679443359375">
        <ele>1659</ele>
        <time>2021-07-25T10:50:05.000Z</time>
      </trkpt>
      <trkpt lat="-11.88639365136623382568359375" lon="-76.483214534819126129150390625">
        <ele>1659.199951171875</ele>
        <time>2021-07-25T10:50:12.000Z</time>
      </trkpt>
      <trkpt lat="-11.88632198609411716461181640625" lon="-76.48311872966587543487548828125">
        <ele>1659.199951171875</ele>
        <time>2021-07-25T10:50:15.000Z</time>
      </trkpt>
      <trkpt lat="-11.8860696069896221160888671875" lon="-76.48276300169527530670166015625">
        <ele>1660</ele>
        <time>2021-07-25T10:50:26.000Z</time>
      </trkpt>
      <trkpt lat="-11.88601554371416568756103515625" lon="-76.482655964791774749755859375">
        <ele>1660.4000244140625</ele>
        <time>2021-07-25T10:50:29.000Z</time>
      </trkpt>
      <trkpt lat="-11.88595720566809177398681640625" lon="-76.48252277635037899017333984375">
        <ele>1661.199951171875</ele>
        <time>2021-07-25T10:50:33.000Z</time>
      </trkpt>
      <trkpt lat="-11.88593775965273380279541015625" lon="-76.4824673719704151153564453125">
        <ele>1661.4000244140625</ele>
        <time>2021-07-25T10:50:35.000Z</time>
      </trkpt>
      <trkpt lat="-11.88591512851417064666748046875" lon="-76.48233912885189056396484375">
        <ele>1662</ele>
        <time>2021-07-25T10:50:39.000Z</time>
      </trkpt>
      <trkpt lat="-11.8858982808887958526611328125" lon="-76.48225841112434864044189453125">
        <ele>1662.4000244140625</ele>
        <time>2021-07-25T10:50:42.000Z</time>
      </trkpt>
      <trkpt lat="-11.88588227145373821258544921875" lon="-76.48219387046992778778076171875">
        <ele>1663</ele>
        <time>2021-07-25T10:50:45.000Z</time>
      </trkpt>
      <trkpt lat="-11.88585377298295497894287109375" lon="-76.4820707403123378753662109375">
        <ele>1663.5999755859375</ele>
        <time>2021-07-25T10:50:50.000Z</time>
      </trkpt>
      <trkpt lat="-11.8858359195291996002197265625" lon="-76.4820040203630924224853515625">
        <ele>1664.199951171875</ele>
        <time>2021-07-25T10:50:53.000Z</time>
      </trkpt>
      <trkpt lat="-11.885814629495143890380859375" lon="-76.4819543994963169097900390625">
        <ele>1664.5999755859375</ele>
        <time>2021-07-25T10:50:55.000Z</time>
      </trkpt>
      <trkpt lat="-11.88576928339898586273193359375" lon="-76.481826491653919219970703125">
        <ele>1665.4000244140625</ele>
        <time>2021-07-25T10:51:01.000Z</time>
      </trkpt>
      <trkpt lat="-11.885750591754913330078125" lon="-76.48178391158580780029296875">
        <ele>1665.800048828125</ele>
        <time>2021-07-25T10:51:03.000Z</time>
      </trkpt>
      <trkpt lat="-11.88569015823304653167724609375" lon="-76.48166128434240818023681640625">
        <ele>1666.5999755859375</ele>
        <time>2021-07-25T10:51:09.000Z</time>
      </trkpt>
      <trkpt lat="-11.88567875884473323822021484375" lon="-76.48164116777479648590087890625">
        <ele>1666.800048828125</ele>
        <time>2021-07-25T10:51:10.000Z</time>
      </trkpt>
      <trkpt lat="-11.88559703528881072998046875" lon="-76.4815016090869903564453125">
        <ele>1668</ele>
        <time>2021-07-25T10:51:17.000Z</time>
      </trkpt>
      <trkpt lat="-11.88548647798597812652587890625" lon="-76.48132550530135631561279296875">
        <ele>1669</ele>
        <time>2021-07-25T10:51:26.000Z</time>
      </trkpt>
      <trkpt lat="-11.88547273166477680206298828125" lon="-76.4813076518476009368896484375">
        <ele>1669.199951171875</ele>
        <time>2021-07-25T10:51:27.000Z</time>
      </trkpt>
      <trkpt lat="-11.8853871524333953857421875" lon="-76.48118837736546993255615234375">
        <ele>1670</ele>
        <time>2021-07-25T10:51:33.000Z</time>
      </trkpt>
      <trkpt lat="-11.88537332229316234588623046875" lon="-76.48116557858884334564208984375">
        <ele>1670.199951171875</ele>
        <time>2021-07-25T10:51:34.000Z</time>
      </trkpt>
      <trkpt lat="-11.885309703648090362548828125" lon="-76.481019146740436553955078125">
        <ele>1671.199951171875</ele>
        <time>2021-07-25T10:51:40.000Z</time>
      </trkpt>
      <trkpt lat="-11.88529754988849163055419921875" lon="-76.480995677411556243896484375">
        <ele>1671.5999755859375</ele>
        <time>2021-07-25T10:51:41.000Z</time>
      </trkpt>
      <trkpt lat="-11.88527056016027927398681640625" lon="-76.4808989502489566802978515625">
        <ele>1672.199951171875</ele>
        <time>2021-07-25T10:51:45.000Z</time>
      </trkpt>
      <trkpt lat="-11.88525211997330188751220703125" lon="-76.48077866993844509124755859375">
        <ele>1673</ele>
        <time>2021-07-25T10:51:50.000Z</time>
      </trkpt>
      <trkpt lat="-11.88524843193590641021728515625" lon="-76.48075536824762821197509765625">
        <ele>1673.199951171875</ele>
        <time>2021-07-25T10:51:51.000Z</time>
      </trkpt>
      <trkpt lat="-11.88524030148983001708984375" lon="-76.4806072600185871124267578125">
        <ele>1674.4000244140625</ele>
        <time>2021-07-25T10:51:57.000Z</time>
      </trkpt>
      <trkpt lat="-11.885241977870464324951171875" lon="-76.480456888675689697265625">
        <ele>1675.4000244140625</ele>
        <time>2021-07-25T10:52:03.000Z</time>
      </trkpt>
      <trkpt lat="-11.88524424098432064056396484375" lon="-76.4804315753281116485595703125">
        <ele>1675.4000244140625</ele>
        <time>2021-07-25T10:52:04.000Z</time>
      </trkpt>
      <trkpt lat="-11.88523183576762676239013671875" lon="-76.480282209813594818115234375">
        <ele>1676.5999755859375</ele>
        <time>2021-07-25T10:52:10.000Z</time>
      </trkpt>
      <trkpt lat="-11.8852289021015167236328125" lon="-76.48025572299957275390625">
        <ele>1676.800048828125</ele>
        <time>2021-07-25T10:52:11.000Z</time>
      </trkpt>
      <trkpt lat="-11.8852270580828189849853515625" lon="-76.48015589453279972076416015625">
        <ele>1677.5999755859375</ele>
        <time>2021-07-25T10:52:15.000Z</time>
      </trkpt>
      <trkpt lat="-11.88521750271320343017578125" lon="-76.47999932058155536651611328125">
        <ele>1678.5999755859375</ele>
        <time>2021-07-25T10:52:21.000Z</time>
      </trkpt>
      <trkpt lat="-11.885219179093837738037109375" lon="-76.47997300140559673309326171875">
        <ele>1678.5999755859375</ele>
        <time>2021-07-25T10:52:22.000Z</time>
      </trkpt>
      <trkpt lat="-11.885218508541584014892578125" lon="-76.47978968918323516845703125">
        <ele>1679.800048828125</ele>
        <time>2021-07-25T10:52:29.000Z</time>
      </trkpt>
      <trkpt lat="-11.88522152602672576904296875" lon="-76.47976194508373737335205078125">
        <ele>1680</ele>
        <time>2021-07-25T10:52:30.000Z</time>
      </trkpt>
      <trkpt lat="-11.8852263875305652618408203125" lon="-76.47965767420828342437744140625">
        <ele>1680.800048828125</ele>
        <time>2021-07-25T10:52:34.000Z</time>
      </trkpt>
      <trkpt lat="-11.88524968922138214111328125" lon="-76.47953127510845661163330078125">
        <ele>1681.4000244140625</ele>
        <time>2021-07-25T10:52:39.000Z</time>
      </trkpt>
      <trkpt lat="-11.88526234589517116546630859375" lon="-76.4794639684259891510009765625">
        <ele>1681.800048828125</ele>
        <time>2021-07-25T10:52:42.000Z</time>
      </trkpt>
      <trkpt lat="-11.88532881438732147216796875" lon="-76.47932558320462703704833984375">
        <ele>1682.800048828125</ele>
        <time>2021-07-25T10:52:48.000Z</time>
      </trkpt>
      <trkpt lat="-11.88535639084875583648681640625" lon="-76.47928082384169101715087890625">
        <ele>1683.199951171875</ele>
        <time>2021-07-25T10:52:50.000Z</time>
      </trkpt>
      <trkpt lat="-11.8854104541242122650146484375" lon="-76.47916515357792377471923828125">
        <ele>1684.199951171875</ele>
        <time>2021-07-25T10:52:55.000Z</time>
      </trkpt>
      <trkpt lat="-11.88547424040734767913818359375" lon="-76.4790338091552257537841796875">
        <ele>1685.199951171875</ele>
        <time>2021-07-25T10:53:01.000Z</time>
      </trkpt>
      <trkpt lat="-11.88548429869115352630615234375" lon="-76.4790098369121551513671875">
        <ele>1685.4000244140625</ele>
        <time>2021-07-25T10:53:02.000Z</time>
      </trkpt>
      <trkpt lat="-11.8855586461722850799560546875" lon="-76.47885770536959171295166015625">
        <ele>1686.4000244140625</ele>
        <time>2021-07-25T10:53:09.000Z</time>
      </trkpt>
      <trkpt lat="-11.88557163812220096588134765625" lon="-76.4788323082029819488525390625">
        <ele>1686.4000244140625</ele>
        <time>2021-07-25T10:53:10.000Z</time>
      </trkpt>
      <trkpt lat="-11.885634921491146087646484375" lon="-76.4786935038864612579345703125">
        <ele>1687.4000244140625</ele>
        <time>2021-07-25T10:53:16.000Z</time>
      </trkpt>
      <trkpt lat="-11.8856431357562541961669921875" lon="-76.47866928018629550933837890625">
        <ele>1687.5999755859375</ele>
        <time>2021-07-25T10:53:17.000Z</time>
      </trkpt>
      <trkpt lat="-11.88569887541234493255615234375" lon="-76.47855813615024089813232421875">
        <ele>1688.4000244140625</ele>
        <time>2021-07-25T10:53:22.000Z</time>
      </trkpt>
      <trkpt lat="-11.88572268001735210418701171875" lon="-76.4785111136734485626220703125">
        <ele>1688.800048828125</ele>
        <time>2021-07-25T10:53:24.000Z</time>
      </trkpt>
      <trkpt lat="-11.8857722170650959014892578125" lon="-76.47843123413622379302978515625">
        <ele>1689.5999755859375</ele>
        <time>2021-07-25T10:53:28.000Z</time>
      </trkpt>
      <trkpt lat="-11.8858272023499011993408203125" lon="-76.47834104485809803009033203125">
        <ele>1690.199951171875</ele>
        <time>2021-07-25T10:53:32.000Z</time>
      </trkpt>
      <trkpt lat="-11.88586349599063396453857421875" lon="-76.47827549837529659271240234375">
        <ele>1690.5999755859375</ele>
        <time>2021-07-25T10:53:35.000Z</time>
      </trkpt>
      <trkpt lat="-11.88593088649213314056396484375" lon="-76.47817927412688732147216796875">
        <ele>1691.199951171875</ele>
        <time>2021-07-25T10:53:40.000Z</time>
      </trkpt>
      <trkpt lat="-11.88594580627977848052978515625" lon="-76.47816133685410022735595703125">
        <ele>1691.5999755859375</ele>
        <time>2021-07-25T10:53:41.000Z</time>
      </trkpt>
      <trkpt lat="-11.886052004992961883544921875" lon="-76.47802856750786304473876953125">
        <ele>1692.5999755859375</ele>
        <time>2021-07-25T10:53:48.000Z</time>
      </trkpt>
      <trkpt lat="-11.88606063835322856903076171875" lon="-76.47800141014158725738525390625">
        <ele>1692.800048828125</ele>
        <time>2021-07-25T10:53:49.000Z</time>
      </trkpt>
      <trkpt lat="-11.886121742427349090576171875" lon="-76.477864868938922882080078125">
        <ele>1693.5999755859375</ele>
        <time>2021-07-25T10:53:55.000Z</time>
      </trkpt>
      <trkpt lat="-11.886153258383274078369140625" lon="-76.47782723419368267059326171875">
        <ele>1694.199951171875</ele>
        <time>2021-07-25T10:53:58.000Z</time>
      </trkpt>
      <trkpt lat="-11.8861891329288482666015625" lon="-76.4777277410030364990234375">
        <ele>1695</ele>
        <time>2021-07-25T10:54:11.000Z</time>
      </trkpt>
      <trkpt lat="-11.88619650900363922119140625" lon="-76.4777138270437717437744140625">
        <ele>1695</ele>
        <time>2021-07-25T10:54:12.000Z</time>
      </trkpt>
      <trkpt lat="-11.886259876191616058349609375" lon="-76.4776097238063812255859375">
        <ele>1695.5999755859375</ele>
        <time>2021-07-25T10:54:18.000Z</time>
      </trkpt>
      <trkpt lat="-11.88628342933952808380126953125" lon="-76.477571167051792144775390625">
        <ele>1696</ele>
        <time>2021-07-25T10:54:20.000Z</time>
      </trkpt>
      <trkpt lat="-11.88639055006206035614013671875" lon="-76.47743429057300090789794921875">
        <ele>1697</ele>
        <time>2021-07-25T10:54:27.000Z</time>
      </trkpt>
      <trkpt lat="-11.88640815205872058868408203125" lon="-76.47740981541574001312255859375">
        <ele>1697</ele>
        <time>2021-07-25T10:54:28.000Z</time>
      </trkpt>
      <trkpt lat="-11.88647277653217315673828125" lon="-76.47731677629053592681884765625">
        <ele>1698</ele>
        <time>2021-07-25T10:54:33.000Z</time>
      </trkpt>
      <trkpt lat="-11.88648291863501071929931640625" lon="-76.47729481570422649383544921875">
        <ele>1698.199951171875</ele>
        <time>2021-07-25T10:54:34.000Z</time>
      </trkpt>
      <trkpt lat="-11.88648845069110393524169921875" lon="-76.47719121538102626800537109375">
        <ele>1698.800048828125</ele>
        <time>2021-07-25T10:54:39.000Z</time>
      </trkpt>
      <trkpt lat="-11.88650655560195446014404296875" lon="-76.477125249803066253662109375">
        <ele>1699.199951171875</ele>
        <time>2021-07-25T10:54:43.000Z</time>
      </trkpt>
      <trkpt lat="-11.88651292584836483001708984375" lon="-76.47710689343512058258056640625">
        <ele>1699.4000244140625</ele>
        <time>2021-07-25T10:54:44.000Z</time>
      </trkpt>
      <trkpt lat="-11.88655869103968143463134765625" lon="-76.4770141057670116424560546875">
        <ele>1700.4000244140625</ele>
        <time>2021-07-25T10:54:49.000Z</time>
      </trkpt>
      <trkpt lat="-11.8865684978663921356201171875" lon="-76.47699139080941677093505859375">
        <ele>1700.5999755859375</ele>
        <time>2021-07-25T10:54:50.000Z</time>
      </trkpt>
      <trkpt lat="-11.8866533227264881134033203125" lon="-76.4768367446959018707275390625">
        <ele>1701.4000244140625</ele>
        <time>2021-07-25T10:54:57.000Z</time>
      </trkpt>
      <trkpt lat="-11.88667838461697101593017578125" lon="-76.476826854050159454345703125">
        <ele>1701.800048828125</ele>
        <time>2021-07-25T10:54:58.000Z</time>
      </trkpt>
      <trkpt lat="-11.88678064383566379547119140625" lon="-76.4767244271934032440185546875">
        <ele>1702.5999755859375</ele>
        <time>2021-07-25T10:55:03.000Z</time>
      </trkpt>
      <trkpt lat="-11.88681115396320819854736328125" lon="-76.476690061390399932861328125">
        <ele>1702.800048828125</ele>
        <time>2021-07-25T10:55:05.000Z</time>
      </trkpt>
      <trkpt lat="-11.88688583672046661376953125" lon="-76.4765715412795543670654296875">
        <ele>1703.5999755859375</ele>
        <time>2021-07-25T10:55:10.000Z</time>
      </trkpt>
      <trkpt lat="-11.88689581118524074554443359375" lon="-76.4765467308461666107177734375">
        <ele>1703.5999755859375</ele>
        <time>2021-07-25T10:55:11.000Z</time>
      </trkpt>
      <trkpt lat="-11.8869460187852382659912109375" lon="-76.4764109440147876739501953125">
        <ele>1705</ele>
        <time>2021-07-25T10:55:17.000Z</time>
      </trkpt>
      <trkpt lat="-11.88700242899358272552490234375" lon="-76.47623031400144100189208984375">
        <ele>1706.199951171875</ele>
        <time>2021-07-25T10:55:24.000Z</time>
      </trkpt>
      <trkpt lat="-11.88699438236653804779052734375" lon="-76.47617247886955738067626953125">
        <ele>1706.5999755859375</ele>
        <time>2021-07-25T10:55:26.000Z</time>
      </trkpt>
      <trkpt lat="-11.88697761856019496917724609375" lon="-76.47604071535170078277587890625">
        <ele>1707.199951171875</ele>
        <time>2021-07-25T10:55:31.000Z</time>
      </trkpt>
      <trkpt lat="-11.8869634531438350677490234375" lon="-76.475990004837512969970703125">
        <ele>1707.5999755859375</ele>
        <time>2021-07-25T10:55:33.000Z</time>
      </trkpt>
      <trkpt lat="-11.88690821640193462371826171875" lon="-76.4758654497563838958740234375">
        <ele>1708.4000244140625</ele>
        <time>2021-07-25T10:55:38.000Z</time>
      </trkpt>
      <trkpt lat="-11.88687779009342193603515625" lon="-76.47581255994737148284912109375">
        <ele>1708.800048828125</ele>
        <time>2021-07-25T10:55:40.000Z</time>
      </trkpt>
      <trkpt lat="-11.88683562912046909332275390625" lon="-76.4757299982011318206787109375">
        <ele>1709.4000244140625</ele>
        <time>2021-07-25T10:55:43.000Z</time>
      </trkpt>
      <trkpt lat="-11.88673563301563262939453125" lon="-76.4756046049296855926513671875">
        <ele>1710.199951171875</ele>
        <time>2021-07-25T10:55:48.000Z</time>
      </trkpt>
      <trkpt lat="-11.886699087917804718017578125" lon="-76.47555406205356121063232421875">
        <ele>1710.5999755859375</ele>
        <time>2021-07-25T10:55:50.000Z</time>
      </trkpt>
      <trkpt lat="-11.88660043291747570037841796875" lon="-76.475439481437206268310546875">
        <ele>1711.4000244140625</ele>
        <time>2021-07-25T10:55:55.000Z</time>
      </trkpt>
      <trkpt lat="-11.8865591101348400115966796875" lon="-76.475396566092967987060546875">
        <ele>1711.800048828125</ele>
        <time>2021-07-25T10:55:57.000Z</time>
      </trkpt>
      <trkpt lat="-11.88647503964602947235107421875" lon="-76.4752995036542415618896484375">
        <ele>1712.800048828125</ele>
        <time>2021-07-25T10:56:02.000Z</time>
      </trkpt>
      <trkpt lat="-11.88633992336690425872802734375" lon="-76.475215516984462738037109375">
        <ele>1713.199951171875</ele>
        <time>2021-07-25T10:56:06.000Z</time>
      </trkpt>
      <trkpt lat="-11.886283345520496368408203125" lon="-76.4751248247921466827392578125">
        <ele>1713.800048828125</ele>
        <time>2021-07-25T10:56:11.000Z</time>
      </trkpt>
      <trkpt lat="-11.8862084113061428070068359375" lon="-76.47505952976644039154052734375">
        <ele>1714.4000244140625</ele>
        <time>2021-07-25T10:56:15.000Z</time>
      </trkpt>
      <trkpt lat="-11.886127106845378875732421875" lon="-76.47500253282487392425537109375">
        <ele>1715</ele>
        <time>2021-07-25T10:56:19.000Z</time>
      </trkpt>
      <trkpt lat="-11.886032558977603912353515625" lon="-76.47493916563689708709716796875">
        <ele>1715.5999755859375</ele>
        <time>2021-07-25T10:56:23.000Z</time>
      </trkpt>
      <trkpt lat="-11.8859289586544036865234375" lon="-76.47487588226795196533203125">
        <ele>1716</ele>
        <time>2021-07-25T10:56:27.000Z</time>
      </trkpt>
      <trkpt lat="-11.88583767972886562347412109375" lon="-76.47481075488030910491943359375">
        <ele>1716.800048828125</ele>
        <time>2021-07-25T10:56:31.000Z</time>
      </trkpt>
      <trkpt lat="-11.88576777465641498565673828125" lon="-76.47475627250969409942626953125">
        <ele>1717</ele>
        <time>2021-07-25T10:56:34.000Z</time>
      </trkpt>
      <trkpt lat="-11.88564020209014415740966796875" lon="-76.47463875822722911834716796875">
        <ele>1717.800048828125</ele>
        <time>2021-07-25T10:56:40.000Z</time>
      </trkpt>
      <trkpt lat="-11.88559410162270069122314453125" lon="-76.47456608712673187255859375">
        <ele>1718</ele>
        <time>2021-07-25T10:56:43.000Z</time>
      </trkpt>
      <trkpt lat="-11.8855640105903148651123046875" lon="-76.47448603995144367218017578125">
        <ele>1718.5999755859375</ele>
        <time>2021-07-25T10:56:46.000Z</time>
      </trkpt>
      <trkpt lat="-11.88551413826644420623779296875" lon="-76.47436064667999744415283203125">
        <ele>1719</ele>
        <time>2021-07-25T10:56:51.000Z</time>
      </trkpt>
      <trkpt lat="-11.8855051696300506591796875" lon="-76.4743379317224025726318359375">
        <ele>1719.4000244140625</ele>
        <time>2021-07-25T10:56:52.000Z</time>
      </trkpt>
      <trkpt lat="-11.88549016602337360382080078125" lon="-76.47419502027332782745361328125">
        <ele>1720.199951171875</ele>
        <time>2021-07-25T10:56:57.000Z</time>
      </trkpt>
      <trkpt lat="-11.88548647798597812652587890625" lon="-76.47414053790271282196044921875">
        <ele>1720.4000244140625</ele>
        <time>2021-07-25T10:56:59.000Z</time>
      </trkpt>
      <trkpt lat="-11.8854889087378978729248046875" lon="-76.47403492592275142669677734375">
        <ele>1721.199951171875</ele>
        <time>2021-07-25T10:57:03.000Z</time>
      </trkpt>
      <trkpt lat="-11.88548446632921695709228515625" lon="-76.47394591011106967926025390625">
        <ele>1721.800048828125</ele>
        <time>2021-07-25T10:57:06.000Z</time>
      </trkpt>
      <trkpt lat="-11.88548304140567779541015625" lon="-76.47380257956683635711669921875">
        <ele>1722.199951171875</ele>
        <time>2021-07-25T10:57:11.000Z</time>
      </trkpt>
      <trkpt lat="-11.8854862265288829803466796875" lon="-76.47369344718754291534423828125">
        <ele>1722.800048828125</ele>
        <time>2021-07-25T10:57:15.000Z</time>
      </trkpt>
      <trkpt lat="-11.88549117185175418853759765625" lon="-76.4735488593578338623046875">
        <ele>1723.4000244140625</ele>
        <time>2021-07-25T10:57:20.000Z</time>
      </trkpt>
      <trkpt lat="-11.885495446622371673583984375" lon="-76.47343419492244720458984375">
        <ele>1724.199951171875</ele>
        <time>2021-07-25T10:57:24.000Z</time>
      </trkpt>
      <trkpt lat="-11.88549184240400791168212890625" lon="-76.4733981527388095855712890625">
        <ele>1724.4000244140625</ele>
        <time>2021-07-25T10:57:25.000Z</time>
      </trkpt>
      <trkpt lat="-11.885497458279132843017578125" lon="-76.47324920631945133209228515625">
        <ele>1725</ele>
        <time>2021-07-25T10:57:30.000Z</time>
      </trkpt>
      <trkpt lat="-11.8855011463165283203125" lon="-76.473129093647003173828125">
        <ele>1725.4000244140625</ele>
        <time>2021-07-25T10:57:34.000Z</time>
      </trkpt>
      <trkpt lat="-11.885491423308849334716796875" lon="-76.4729783870279788970947265625">
        <ele>1726</ele>
        <time>2021-07-25T10:57:39.000Z</time>
      </trkpt>
      <trkpt lat="-11.885491423308849334716796875" lon="-76.472922228276729583740234375">
        <ele>1726.800048828125</ele>
        <time>2021-07-25T10:57:41.000Z</time>
      </trkpt>
      <trkpt lat="-11.88547809608280658721923828125" lon="-76.47275484167039394378662109375">
        <ele>1727.5999755859375</ele>
        <time>2021-07-25T10:57:47.000Z</time>
      </trkpt>
      <trkpt lat="-11.88547709025442600250244140625" lon="-76.47269390523433685302734375">
        <ele>1727.800048828125</ele>
        <time>2021-07-25T10:57:49.000Z</time>
      </trkpt>
      <trkpt lat="-11.885482706129550933837890625" lon="-76.4725805819034576416015625">
        <ele>1728</ele>
        <time>2021-07-25T10:57:53.000Z</time>
      </trkpt>
      <trkpt lat="-11.88548916019499301910400390625" lon="-76.4724107645452022552490234375">
        <ele>1729</ele>
        <time>2021-07-25T10:57:59.000Z</time>
      </trkpt>
      <trkpt lat="-11.8854889087378978729248046875" lon="-76.4722940884530544281005859375">
        <ele>1729.800048828125</ele>
        <time>2021-07-25T10:58:03.000Z</time>
      </trkpt>
      <trkpt lat="-11.88550181686878204345703125" lon="-76.47223952226340770721435546875">
        <ele>1730.199951171875</ele>
        <time>2021-07-25T10:58:05.000Z</time>
      </trkpt>
      <trkpt lat="-11.885532326996326446533203125" lon="-76.47208630107343196868896484375">
        <ele>1730.5999755859375</ele>
        <time>2021-07-25T10:58:11.000Z</time>
      </trkpt>
      <trkpt lat="-11.88553802669048309326171875" lon="-76.47195068188011646270751953125">
        <ele>1731.4000244140625</ele>
        <time>2021-07-25T10:58:16.000Z</time>
      </trkpt>
      <trkpt lat="-11.8855454027652740478515625" lon="-76.471894271671772003173828125">
        <ele>1731.5999755859375</ele>
        <time>2021-07-25T10:58:18.000Z</time>
      </trkpt>
      <trkpt lat="-11.8855455704033374786376953125" lon="-76.4717482589185237884521484375">
        <ele>1732.4000244140625</ele>
        <time>2021-07-25T10:58:23.000Z</time>
      </trkpt>
      <trkpt lat="-11.88554079271852970123291015625" lon="-76.4716577343642711639404296875">
        <ele>1732.5999755859375</ele>
        <time>2021-07-25T10:58:26.000Z</time>
      </trkpt>
      <trkpt lat="-11.88553534448146820068359375" lon="-76.47153250873088836669921875">
        <ele>1733.4000244140625</ele>
        <time>2021-07-25T10:58:30.000Z</time>
      </trkpt>
      <trkpt lat="-11.88552067615091800689697265625" lon="-76.4714461751282215118408203125">
        <ele>1733.5999755859375</ele>
        <time>2021-07-25T10:58:33.000Z</time>
      </trkpt>
      <trkpt lat="-11.885498799383640289306640625" lon="-76.471306197345256805419921875">
        <ele>1734.5999755859375</ele>
        <time>2021-07-25T10:58:38.000Z</time>
      </trkpt>
      <trkpt lat="-11.88549301587045192718505859375" lon="-76.4712456800043582916259765625">
        <ele>1734.800048828125</ele>
        <time>2021-07-25T10:58:40.000Z</time>
      </trkpt>
      <trkpt lat="-11.88546099700033664703369140625" lon="-76.47110260091722011566162109375">
        <ele>1735.5999755859375</ele>
        <time>2021-07-25T10:58:45.000Z</time>
      </trkpt>
      <trkpt lat="-11.88544708304107189178466796875" lon="-76.47101660259068012237548828125">
        <ele>1736</ele>
        <time>2021-07-25T10:58:48.000Z</time>
      </trkpt>
      <trkpt lat="-11.885419003665447235107421875" lon="-76.47087377496063709259033203125">
        <ele>1736.5999755859375</ele>
        <time>2021-07-25T10:58:53.000Z</time>
      </trkpt>
      <trkpt lat="-11.8854081071913242340087890625" lon="-76.470819376409053802490234375">
        <ele>1737</ele>
        <time>2021-07-25T10:58:55.000Z</time>
      </trkpt>
      <trkpt lat="-11.88537466339766979217529296875" lon="-76.470681913197040557861328125">
        <ele>1737.800048828125</ele>
        <time>2021-07-25T10:59:00.000Z</time>
      </trkpt>
      <trkpt lat="-11.88535857014358043670654296875" lon="-76.470629274845123291015625">
        <ele>1738</ele>
        <time>2021-07-25T10:59:02.000Z</time>
      </trkpt>
      <trkpt lat="-11.885316073894500732421875" lon="-76.47047161124646663665771484375">
        <ele>1738.800048828125</ele>
        <time>2021-07-25T10:59:08.000Z</time>
      </trkpt>
      <trkpt lat="-11.8853078596293926239013671875" lon="-76.470446884632110595703125">
        <ele>1738.800048828125</ele>
        <time>2021-07-25T10:59:09.000Z</time>
      </trkpt>
      <trkpt lat="-11.885275505483150482177734375" lon="-76.47024379111826419830322265625">
        <ele>1739.800048828125</ele>
        <time>2021-07-25T10:59:16.000Z</time>
      </trkpt>
      <trkpt lat="-11.8852716498076915740966796875" lon="-76.47021294571459293365478515625">
        <ele>1740</ele>
        <time>2021-07-25T10:59:17.000Z</time>
      </trkpt>
      <trkpt lat="-11.88522286713123321533203125" lon="-76.470049582421779632568359375">
        <ele>1741</ele>
        <time>2021-07-25T10:59:23.000Z</time>
      </trkpt>
      <trkpt lat="-11.88520099036395549774169921875" lon="-76.46999417804181575775146484375">
        <ele>1741.199951171875</ele>
        <time>2021-07-25T10:59:25.000Z</time>
      </trkpt>
      <trkpt lat="-11.88515656627714633941650390625" lon="-76.46986207924783229827880859375">
        <ele>1742</ele>
        <time>2021-07-25T10:59:30.000Z</time>
      </trkpt>
      <trkpt lat="-11.88513997010886669158935546875" lon="-76.46980726160109043121337890625">
        <ele>1742.199951171875</ele>
        <time>2021-07-25T10:59:32.000Z</time>
      </trkpt>
      <trkpt lat="-11.8850718252360820770263671875" lon="-76.4696470834314823150634765625">
        <ele>1743</ele>
        <time>2021-07-25T10:59:38.000Z</time>
      </trkpt>
      <trkpt lat="-11.88502765260636806488037109375" lon="-76.46954088471829891204833984375">
        <ele>1744</ele>
        <time>2021-07-25T10:59:42.000Z</time>
      </trkpt>
      <trkpt lat="-11.88501558266580104827880859375" lon="-76.4695149846374988555908203125">
        <ele>1744</ele>
        <time>2021-07-25T10:59:43.000Z</time>
      </trkpt>
      <trkpt lat="-11.88492505811154842376708984375" lon="-76.469342820346355438232421875">
        <ele>1745.199951171875</ele>
        <time>2021-07-25T10:59:50.000Z</time>
      </trkpt>
      <trkpt lat="-11.88481223769485950469970703125" lon="-76.4691465161740779876708984375">
        <ele>1745.4000244140625</ele>
        <time>2021-07-25T10:59:58.000Z</time>
      </trkpt>
      <trkpt lat="-11.88475138507783412933349609375" lon="-76.4690512977540493011474609375">
        <ele>1746.199951171875</ele>
        <time>2021-07-25T11:00:02.000Z</time>
      </trkpt>
      <trkpt lat="-11.88469070009887218475341796875" lon="-76.4689500443637371063232421875">
        <ele>1746.800048828125</ele>
        <time>2021-07-25T11:00:06.000Z</time>
      </trkpt>
      <trkpt lat="-11.88463990576565265655517578125" lon="-76.468862704932689666748046875">
        <ele>1747.4000244140625</ele>
        <time>2021-07-25T11:00:10.000Z</time>
      </trkpt>
      <trkpt lat="-11.884611658751964569091796875" lon="-76.46881945431232452392578125">
        <ele>1747.800048828125</ele>
        <time>2021-07-25T11:00:12.000Z</time>
      </trkpt>
      <trkpt lat="-11.88453060574829578399658203125" lon="-76.468703113496303558349609375">
        <ele>1748.4000244140625</ele>
        <time>2021-07-25T11:00:17.000Z</time>
      </trkpt>
      <trkpt lat="-11.8844421766698360443115234375" lon="-76.46859959699213504791259765625">
        <ele>1749.199951171875</ele>
        <time>2021-07-25T11:00:22.000Z</time>
      </trkpt>
      <trkpt lat="-11.88442180864512920379638671875" lon="-76.46857830695807933807373046875">
        <ele>1749.4000244140625</ele>
        <time>2021-07-25T11:00:23.000Z</time>
      </trkpt>
      <trkpt lat="-11.88432105816900730133056640625" lon="-76.4684548415243625640869140625">
        <ele>1750.5999755859375</ele>
        <time>2021-07-25T11:00:29.000Z</time>
      </trkpt>
      <trkpt lat="-11.88428367488086223602294921875" lon="-76.4684169553220272064208984375">
        <ele>1750.800048828125</ele>
        <time>2021-07-25T11:00:31.000Z</time>
      </trkpt>
      <trkpt lat="-11.88421762548387050628662109375" lon="-76.46834445185959339141845703125">
        <ele>1751.5999755859375</ele>
        <time>2021-07-25T11:00:35.000Z</time>
      </trkpt>
      <trkpt lat="-11.88416364602744579315185546875" lon="-76.46829147823154926300048828125">
        <ele>1752.199951171875</ele>
        <time>2021-07-25T11:00:38.000Z</time>
      </trkpt>
      <trkpt lat="-11.88409089110791683197021484375" lon="-76.46822358481585979461669921875">
        <ele>1752.800048828125</ele>
        <time>2021-07-25T11:00:42.000Z</time>
      </trkpt>
      <trkpt lat="-11.8839878775179386138916015625" lon="-76.468145884573459625244140625">
        <ele>1753.4000244140625</ele>
        <time>2021-07-25T11:00:47.000Z</time>
      </trkpt>
      <trkpt lat="-11.883937418460845947265625" lon="-76.46809349767863750457763671875">
        <ele>1754</ele>
        <time>2021-07-25T11:00:50.000Z</time>
      </trkpt>
      <trkpt lat="-11.8838410265743732452392578125" lon="-76.46801386959850788116455078125">
        <ele>1754.800048828125</ele>
        <time>2021-07-25T11:00:55.000Z</time>
      </trkpt>
      <trkpt lat="-11.88382015563547611236572265625" lon="-76.4679965190589427947998046875">
        <ele>1755</ele>
        <time>2021-07-25T11:00:56.000Z</time>
      </trkpt>
      <trkpt lat="-11.883703731000423431396484375" lon="-76.4679009653627872467041015625">
        <ele>1756</ele>
        <time>2021-07-25T11:01:02.000Z</time>
      </trkpt>
      <trkpt lat="-11.88368420116603374481201171875" lon="-76.4678842015564441680908203125">
        <ele>1756.4000244140625</ele>
        <time>2021-07-25T11:01:03.000Z</time>
      </trkpt>
      <trkpt lat="-11.88355528749525547027587890625" lon="-76.467780433595180511474609375">
        <ele>1757.199951171875</ele>
        <time>2021-07-25T11:01:09.000Z</time>
      </trkpt>
      <trkpt lat="-11.88341916538774967193603515625" lon="-76.46766585297882556915283203125">
        <ele>1758.4000244140625</ele>
        <time>2021-07-25T11:01:16.000Z</time>
      </trkpt>
      <trkpt lat="-11.88340164721012115478515625" lon="-76.46764942444860935211181640625">
        <ele>1758.5999755859375</ele>
        <time>2021-07-25T11:01:17.000Z</time>
      </trkpt>
      <trkpt lat="-11.883325874805450439453125" lon="-76.46758337505161762237548828125">
        <ele>1759.4000244140625</ele>
        <time>2021-07-25T11:01:21.000Z</time>
      </trkpt>
      <trkpt lat="-11.88324700109660625457763671875" lon="-76.46751699037849903106689453125">
        <ele>1760.199951171875</ele>
        <time>2021-07-25T11:01:25.000Z</time>
      </trkpt>
      <trkpt lat="-11.88317709602415561676025390625" lon="-76.4674361050128936767578125">
        <ele>1760.5999755859375</ele>
        <time>2021-07-25T11:01:29.000Z</time>
      </trkpt>
      <trkpt lat="-11.88311473466455936431884765625" lon="-76.46735957823693752288818359375">
        <ele>1761.199951171875</ele>
        <time>2021-07-25T11:01:33.000Z</time>
      </trkpt>
      <trkpt lat="-11.883087158203125" lon="-76.4673195965588092803955078125">
        <ele>1761.5999755859375</ele>
        <time>2021-07-25T11:01:35.000Z</time>
      </trkpt>
      <trkpt lat="-11.8830155767500400543212890625" lon="-76.46721255965530872344970703125">
        <ele>1762.5999755859375</ele>
        <time>2021-07-25T11:01:40.000Z</time>
      </trkpt>
      <trkpt lat="-11.88298179768025875091552734375" lon="-76.4671690575778484344482421875">
        <ele>1763</ele>
        <time>2021-07-25T11:01:42.000Z</time>
      </trkpt>
      <trkpt lat="-11.88293159008026123046875" lon="-76.467077694833278656005859375">
        <ele>1763.5999755859375</ele>
        <time>2021-07-25T11:01:46.000Z</time>
      </trkpt>
      <trkpt lat="-11.88288439996540546417236328125" lon="-76.466977782547473907470703125">
        <ele>1764.4000244140625</ele>
        <time>2021-07-25T11:01:50.000Z</time>
      </trkpt>
      <trkpt lat="-11.88287501223385334014892578125" lon="-76.4669521339237689971923828125">
        <ele>1764.5999755859375</ele>
        <time>2021-07-25T11:01:51.000Z</time>
      </trkpt>
      <trkpt lat="-11.882819272577762603759765625" lon="-76.46683470346033573150634765625">
        <ele>1765.4000244140625</ele>
        <time>2021-07-25T11:01:56.000Z</time>
      </trkpt>
      <trkpt lat="-11.88281214796006679534912109375" lon="-76.46678558550775051116943359375">
        <ele>1765.800048828125</ele>
        <time>2021-07-25T11:01:58.000Z</time>
      </trkpt>
      <trkpt lat="-11.8828013353049755096435546875" lon="-76.4666865952312946319580078125">
        <ele>1766.5999755859375</ele>
        <time>2021-07-25T11:02:02.000Z</time>
      </trkpt>
      <trkpt lat="-11.88278448767960071563720703125" lon="-76.46660554222762584686279296875">
        <ele>1767</ele>
        <time>2021-07-25T11:02:05.000Z</time>
      </trkpt>
      <trkpt lat="-11.88276856206357479095458984375" lon="-76.4664820767939090728759765625">
        <ele>1767.800048828125</ele>
        <time>2021-07-25T11:02:10.000Z</time>
      </trkpt>
      <trkpt lat="-11.88276956789195537567138671875" lon="-76.4664291031658649444580078125">
        <ele>1768.199951171875</ele>
        <time>2021-07-25T11:02:12.000Z</time>
      </trkpt>
      <trkpt lat="-11.8827711604535579681396484375" lon="-76.4663013629615306854248046875">
        <ele>1769.199951171875</ele>
        <time>2021-07-25T11:02:17.000Z</time>
      </trkpt>
      <trkpt lat="-11.8827812187373638153076171875" lon="-76.466251909732818603515625">
        <ele>1769.5999755859375</ele>
        <time>2021-07-25T11:02:19.000Z</time>
      </trkpt>
      <trkpt lat="-11.88281600363552570343017578125" lon="-76.46613213233649730682373046875">
        <ele>1770.199951171875</ele>
        <time>2021-07-25T11:02:24.000Z</time>
      </trkpt>
      <trkpt lat="-11.88282254151999950408935546875" lon="-76.466107070446014404296875">
        <ele>1770.4000244140625</ele>
        <time>2021-07-25T11:02:25.000Z</time>
      </trkpt>
      <trkpt lat="-11.8828583322465419769287109375" lon="-76.466006152331829071044921875">
        <ele>1771.199951171875</ele>
        <time>2021-07-25T11:02:29.000Z</time>
      </trkpt>
      <trkpt lat="-11.88290384598076343536376953125" lon="-76.46591470576822757720947265625">
        <ele>1772</ele>
        <time>2021-07-25T11:02:33.000Z</time>
      </trkpt>
      <trkpt lat="-11.88291541300714015960693359375" lon="-76.465893499553203582763671875">
        <ele>1772.199951171875</ele>
        <time>2021-07-25T11:02:34.000Z</time>
      </trkpt>
      <trkpt lat="-11.8830001540482044219970703125" lon="-76.46576282568275928497314453125">
        <ele>1773.4000244140625</ele>
        <time>2021-07-25T11:02:40.000Z</time>
      </trkpt>
      <trkpt lat="-11.88307936303317546844482421875" lon="-76.46564028225839138031005859375">
        <ele>1774.5999755859375</ele>
        <time>2021-07-25T11:02:46.000Z</time>
      </trkpt>
      <trkpt lat="-11.88310853205621242523193359375" lon="-76.4656029827892780303955078125">
        <ele>1774.800048828125</ele>
        <time>2021-07-25T11:02:48.000Z</time>
      </trkpt>
      <trkpt lat="-11.88320375047624111175537109375" lon="-76.46549477241933345794677734375">
        <ele>1775.5999755859375</ele>
        <time>2021-07-25T11:02:54.000Z</time>
      </trkpt>
      <trkpt lat="-11.883234679698944091796875" lon="-76.4654574729502201080322265625">
        <ele>1776.5999755859375</ele>
        <time>2021-07-25T11:02:56.000Z</time>
      </trkpt>
      <trkpt lat="-11.88325102441012859344482421875" lon="-76.4654403738677501678466796875">
        <ele>1776.800048828125</ele>
        <time>2021-07-25T11:02:57.000Z</time>
      </trkpt>
      <trkpt lat="-11.883418746292591094970703125" lon="-76.4652874879539012908935546875">
        <ele>1778</ele>
        <time>2021-07-25T11:03:06.000Z</time>
      </trkpt>
      <trkpt lat="-11.88355042599141597747802734375" lon="-76.46515379659831523895263671875">
        <ele>1779</ele>
        <time>2021-07-25T11:03:13.000Z</time>
      </trkpt>
      <trkpt lat="-11.88356920145452022552490234375" lon="-76.46513451822102069854736328125">
        <ele>1779</ele>
        <time>2021-07-25T11:03:14.000Z</time>
      </trkpt>
      <trkpt lat="-11.8836378492414951324462890625" lon="-76.4650598354637622833251953125">
        <ele>1780</ele>
        <time>2021-07-25T11:03:18.000Z</time>
      </trkpt>
      <trkpt lat="-11.88371479511260986328125" lon="-76.46499068476259708404541015625">
        <ele>1780.5999755859375</ele>
        <time>2021-07-25T11:03:22.000Z</time>
      </trkpt>
      <trkpt lat="-11.88377623446285724639892578125" lon="-76.46493301726877689361572265625">
        <ele>1781.199951171875</ele>
        <time>2021-07-25T11:03:25.000Z</time>
      </trkpt>
      <trkpt lat="-11.88384429551661014556884765625" lon="-76.46485338918864727020263671875">
        <ele>1782.199951171875</ele>
        <time>2021-07-25T11:03:29.000Z</time>
      </trkpt>
      <trkpt lat="-11.88389592804014682769775390625" lon="-76.46479387767612934112548828125">
        <ele>1782.4000244140625</ele>
        <time>2021-07-25T11:03:32.000Z</time>
      </trkpt>
      <trkpt lat="-11.88399751670658588409423828125" lon="-76.46468709222972393035888671875">
        <ele>1783.4000244140625</ele>
        <time>2021-07-25T11:03:38.000Z</time>
      </trkpt>
      <trkpt lat="-11.88405233435332775115966796875" lon="-76.4646383933722972869873046875">
        <ele>1783.800048828125</ele>
        <time>2021-07-25T11:03:41.000Z</time>
      </trkpt>
      <trkpt lat="-11.8841343931853771209716796875" lon="-76.46456354297697544097900390625">
        <ele>1784.5999755859375</ele>
        <time>2021-07-25T11:03:45.000Z</time>
      </trkpt>
      <trkpt lat="-11.8842115066945552825927734375" lon="-76.46448374725878238677978515625">
        <ele>1785.4000244140625</ele>
        <time>2021-07-25T11:03:49.000Z</time>
      </trkpt>
      <trkpt lat="-11.88428266905248165130615234375" lon="-76.46441568620502948760986328125">
        <ele>1785.800048828125</ele>
        <time>2021-07-25T11:03:53.000Z</time>
      </trkpt>
      <trkpt lat="-11.884397752583026885986328125" lon="-76.46430923603475093841552734375">
        <ele>1786.800048828125</ele>
        <time>2021-07-25T11:03:59.000Z</time>
      </trkpt>
      <trkpt lat="-11.88441594131290912628173828125" lon="-76.46429012529551982879638671875">
        <ele>1787</ele>
        <time>2021-07-25T11:04:00.000Z</time>
      </trkpt>
      <trkpt lat="-11.8845270015299320220947265625" lon="-76.4641824178397655487060546875">
        <ele>1788.199951171875</ele>
        <time>2021-07-25T11:04:06.000Z</time>
      </trkpt>
      <trkpt lat="-11.88460386358201503753662109375" lon="-76.4641143567860126495361328125">
        <ele>1788.800048828125</ele>
        <time>2021-07-25T11:04:10.000Z</time>
      </trkpt>
      <trkpt lat="-11.88463822938501834869384765625" lon="-76.46407588385045528411865234375">
        <ele>1789.4000244140625</ele>
        <time>2021-07-25T11:04:12.000Z</time>
      </trkpt>
      <trkpt lat="-11.8847717531025409698486328125" lon="-76.46393791772425174713134765625">
        <ele>1790.4000244140625</ele>
        <time>2021-07-25T11:04:20.000Z</time>
      </trkpt>
      <trkpt lat="-11.884788684546947479248046875" lon="-76.46392014808952808380126953125">
        <ele>1790.5999755859375</ele>
        <time>2021-07-25T11:04:21.000Z</time>
      </trkpt>
      <trkpt lat="-11.884920783340930938720703125" lon="-76.46379240788519382476806640625">
        <ele>1791.5999755859375</ele>
        <time>2021-07-25T11:04:28.000Z</time>
      </trkpt>
      <trkpt lat="-11.88501499593257904052734375" lon="-76.46370255388319492340087890625">
        <ele>1792.800048828125</ele>
        <time>2021-07-25T11:04:33.000Z</time>
      </trkpt>
      <trkpt lat="-11.885070987045764923095703125" lon="-76.4636506699025630950927734375">
        <ele>1793.4000244140625</ele>
        <time>2021-07-25T11:04:36.000Z</time>
      </trkpt>
      <trkpt lat="-11.885124631226062774658203125" lon="-76.4635963551700115203857421875">
        <ele>1794</ele>
        <time>2021-07-25T11:04:39.000Z</time>
      </trkpt>
      <trkpt lat="-11.88523183576762676239013671875" lon="-76.4634798467159271240234375">
        <ele>1795</ele>
        <time>2021-07-25T11:04:45.000Z</time>
      </trkpt>
      <trkpt lat="-11.8853383697569370269775390625" lon="-76.46337532438337802886962890625">
        <ele>1796</ele>
        <time>2021-07-25T11:04:51.000Z</time>
      </trkpt>
      <trkpt lat="-11.885369382798671722412109375" lon="-76.4633361808955669403076171875">
        <ele>1796.199951171875</ele>
        <time>2021-07-25T11:04:53.000Z</time>
      </trkpt>
      <trkpt lat="-11.885400898754596710205078125" lon="-76.46329536102712154388427734375">
        <ele>1797</ele>
        <time>2021-07-25T11:04:55.000Z</time>
      </trkpt>
      <trkpt lat="-11.88548396341502666473388671875" lon="-76.46318555809557437896728515625">
        <ele>1797.800048828125</ele>
        <time>2021-07-25T11:05:00.000Z</time>
      </trkpt>
      <trkpt lat="-11.88550986349582672119140625" lon="-76.46314331330358982086181640625">
        <ele>1798</ele>
        <time>2021-07-25T11:05:02.000Z</time>
      </trkpt>
      <trkpt lat="-11.88556208275258541107177734375" lon="-76.46306066773831844329833984375">
        <ele>1798.5999755859375</ele>
        <time>2021-07-25T11:05:06.000Z</time>
      </trkpt>
      <trkpt lat="-11.88560298644006252288818359375" lon="-76.46298405714333057403564453125">
        <ele>1799</ele>
        <time>2021-07-25T11:05:09.000Z</time>
      </trkpt>
      <trkpt lat="-11.8856699578464031219482421875" lon="-76.46285363472998142242431640625">
        <ele>1799.800048828125</ele>
        <time>2021-07-25T11:05:14.000Z</time>
      </trkpt>
      <trkpt lat="-11.88571228645741939544677734375" lon="-76.46277300082147121429443359375">
        <ele>1800.199951171875</ele>
        <time>2021-07-25T11:05:17.000Z</time>
      </trkpt>
      <trkpt lat="-11.885801218450069427490234375" lon="-76.4626213721930980682373046875">
        <ele>1801</ele>
        <time>2021-07-25T11:05:23.000Z</time>
      </trkpt>
      <trkpt lat="-11.88582234084606170654296875" lon="-76.46257317624986171722412109375">
        <ele>1801.199951171875</ele>
        <time>2021-07-25T11:05:25.000Z</time>
      </trkpt>
      <trkpt lat="-11.88587556593120098114013671875" lon="-76.4624316059052944183349609375">
        <ele>1801.800048828125</ele>
        <time>2021-07-25T11:05:30.000Z</time>
      </trkpt>
      <trkpt lat="-11.8859418667852878570556640625" lon="-76.4622914604842662811279296875">
        <ele>1802.199951171875</ele>
        <time>2021-07-25T11:05:35.000Z</time>
      </trkpt>
      <trkpt lat="-11.886003054678440093994140625" lon="-76.46217721514403820037841796875">
        <ele>1802.800048828125</ele>
        <time>2021-07-25T11:05:39.000Z</time>
      </trkpt>
      <trkpt lat="-11.88606298528611660003662109375" lon="-76.46205467171967029571533203125">
        <ele>1803.4000244140625</ele>
        <time>2021-07-25T11:05:43.000Z</time>
      </trkpt>
      <trkpt lat="-11.88610539771616458892822265625" lon="-76.46196045912802219390869140625">
        <ele>1803.800048828125</ele>
        <time>2021-07-25T11:05:46.000Z</time>
      </trkpt>
      <trkpt lat="-11.88624034635722637176513671875" lon="-76.461702547967433929443359375">
        <ele>1804.5999755859375</ele>
        <time>2021-07-25T11:05:54.000Z</time>
      </trkpt>
      <trkpt lat="-11.8862694315612316131591796875" lon="-76.46163742057979106903076171875">
        <ele>1804.5999755859375</ele>
        <time>2021-07-25T11:05:56.000Z</time>
      </trkpt>
      <trkpt lat="-11.8863663263618946075439453125" lon="-76.461411528289318084716796875">
        <ele>1805.4000244140625</ele>
        <time>2021-07-25T11:06:03.000Z</time>
      </trkpt>
      <trkpt lat="-11.88638719730079174041748046875" lon="-76.46130784414708614349365234375">
        <ele>1805.5999755859375</ele>
        <time>2021-07-25T11:06:06.000Z</time>
      </trkpt>
      <trkpt lat="-11.88638468272984027862548828125" lon="-76.46115445531904697418212890625">
        <ele>1805.800048828125</ele>
        <time>2021-07-25T11:06:10.000Z</time>
      </trkpt>
      <trkpt lat="-11.88633791171014308929443359375" lon="-76.4608149044215679168701171875">
        <ele>1806.5999755859375</ele>
        <time>2021-07-25T11:06:19.000Z</time>
      </trkpt>
      <trkpt lat="-11.88632835634052753448486328125" lon="-76.46051575429737567901611328125">
        <ele>1807.4000244140625</ele>
        <time>2021-07-25T11:06:27.000Z</time>
      </trkpt>
      <trkpt lat="-11.8863307870924472808837890625" lon="-76.4604789577424526214599609375">
        <ele>1807.5999755859375</ele>
        <time>2021-07-25T11:06:28.000Z</time>
      </trkpt>
      <trkpt lat="-11.88639658503234386444091796875" lon="-76.4602332003414630889892578125">
        <ele>1808.4000244140625</ele>
        <time>2021-07-25T11:06:35.000Z</time>
      </trkpt>
      <trkpt lat="-11.8864466249942779541015625" lon="-76.4601409994065761566162109375">
        <ele>1808.5999755859375</ele>
        <time>2021-07-25T11:06:38.000Z</time>
      </trkpt>
      <trkpt lat="-11.886504627764225006103515625" lon="-76.4600518159568309783935546875">
        <ele>1808.800048828125</ele>
        <time>2021-07-25T11:06:41.000Z</time>
      </trkpt>
      <trkpt lat="-11.88664183951914310455322265625" lon="-76.459894068539142608642578125">
        <ele>1809.5999755859375</ele>
        <time>2021-07-25T11:06:47.000Z</time>
      </trkpt>
      <trkpt lat="-11.8867062963545322418212890625" lon="-76.45982106216251850128173828125">
        <ele>1810</ele>
        <time>2021-07-25T11:06:50.000Z</time>
      </trkpt>
      <trkpt lat="-11.886806376278400421142578125" lon="-76.459715701639652252197265625">
        <ele>1810.5999755859375</ele>
        <time>2021-07-25T11:06:55.000Z</time>
      </trkpt>
      <trkpt lat="-11.88685038127005100250244140625" lon="-76.4596739597618579864501953125">
        <ele>1811</ele>
        <time>2021-07-25T11:06:57.000Z</time>
      </trkpt>
      <trkpt lat="-11.88699589110910892486572265625" lon="-76.45952635444700717926025390625">
        <ele>1811.800048828125</ele>
        <time>2021-07-25T11:07:04.000Z</time>
      </trkpt>
      <trkpt lat="-11.8871025927364826202392578125" lon="-76.45938537083566188812255859375">
        <ele>1812.800048828125</ele>
        <time>2021-07-25T11:07:10.000Z</time>
      </trkpt>
      <trkpt lat="-11.88713335432112216949462890625" lon="-76.459337510168552398681640625">
        <ele>1813.199951171875</ele>
        <time>2021-07-25T11:07:12.000Z</time>
      </trkpt>
      <trkpt lat="-11.88720359466969966888427734375" lon="-76.4591894857585430145263671875">
        <ele>1814.199951171875</ele>
        <time>2021-07-25T11:07:18.000Z</time>
      </trkpt>
      <trkpt lat="-11.887214072048664093017578125" lon="-76.459161154925823211669921875">
        <ele>1814.199951171875</ele>
        <time>2021-07-25T11:07:19.000Z</time>
      </trkpt>
      <trkpt lat="-11.887289844453334808349609375" lon="-76.4589829556643962860107421875">
        <ele>1815.4000244140625</ele>
        <time>2021-07-25T11:07:26.000Z</time>
      </trkpt>
      <trkpt lat="-11.88735731877386569976806640625" lon="-76.45879629068076610565185546875">
        <ele>1816.4000244140625</ele>
        <time>2021-07-25T11:07:33.000Z</time>
      </trkpt>
      <trkpt lat="-11.8873664550483226776123046875" lon="-76.4587700553238391876220703125">
        <ele>1816.4000244140625</ele>
        <time>2021-07-25T11:07:34.000Z</time>
      </trkpt>
      <trkpt lat="-11.88739721663296222686767578125" lon="-76.45867944695055484771728515625">
        <ele>1817.4000244140625</ele>
        <time>2021-07-25T11:07:38.000Z</time>
      </trkpt>
      <trkpt lat="-11.8874167464673519134521484375" lon="-76.4586376212537288665771484375">
        <ele>1817.5999755859375</ele>
        <time>2021-07-25T11:07:40.000Z</time>
      </trkpt>
      <trkpt lat="-11.88745991326868534088134765625" lon="-76.45851038396358489990234375">
        <ele>1818.4000244140625</ele>
        <time>2021-07-25T11:07:46.000Z</time>
      </trkpt>
      <trkpt lat="-11.8874707259237766265869140625" lon="-76.45849403925240039825439453125">
        <ele>1818.4000244140625</ele>
        <time>2021-07-25T11:07:47.000Z</time>
      </trkpt>
      <trkpt lat="-11.887542642652988433837890625" lon="-76.4583140797913074493408203125">
        <ele>1819.4000244140625</ele>
        <time>2021-07-25T11:07:55.000Z</time>
      </trkpt>
      <trkpt lat="-11.88755102455615997314453125" lon="-76.45829086191952228546142578125">
        <ele>1819.5999755859375</ele>
        <time>2021-07-25T11:07:56.000Z</time>
      </trkpt>
      <trkpt lat="-11.8876232765614986419677734375" lon="-76.45809439010918140411376953125">
        <ele>1820.4000244140625</ele>
        <time>2021-07-25T11:08:04.000Z</time>
      </trkpt>
      <trkpt lat="-11.887632496654987335205078125" lon="-76.4580683223903179168701171875">
        <ele>1820.5999755859375</ele>
        <time>2021-07-25T11:08:05.000Z</time>
      </trkpt>
      <trkpt lat="-11.88770902343094348907470703125" lon="-76.4578919671475887298583984375">
        <ele>1821.4000244140625</ele>
        <time>2021-07-25T11:08:13.000Z</time>
      </trkpt>
      <trkpt lat="-11.88773752190172672271728515625" lon="-76.45783153362572193145751953125">
        <ele>1821.5999755859375</ele>
        <time>2021-07-25T11:08:16.000Z</time>
      </trkpt>
      <trkpt lat="-11.88776534982025623321533203125" lon="-76.45778258331120014190673828125">
        <ele>1822.199951171875</ele>
        <time>2021-07-25T11:08:20.000Z</time>
      </trkpt>
      <trkpt lat="-11.887773312628269195556640625" lon="-76.4577548392117023468017578125">
        <ele>1822.4000244140625</ele>
        <time>2021-07-25T11:08:26.000Z</time>
      </trkpt>
      <trkpt lat="-11.88778311945497989654541015625" lon="-76.45772441290318965911865234375">
        <ele>1822.4000244140625</ele>
        <time>2021-07-25T11:08:28.000Z</time>
      </trkpt>
      <trkpt lat="-11.88781212083995342254638671875" lon="-76.45765081979334354400634765625">
        <ele>1822.800048828125</ele>
        <time>2021-07-25T11:08:32.000Z</time>
      </trkpt>
      <trkpt lat="-11.88782268203794956207275390625" lon="-76.45762315951287746429443359375">
        <ele>1822.5999755859375</ele>
        <time>2021-07-25T11:08:33.000Z</time>
      </trkpt>
      <trkpt lat="-11.8879069201648235321044921875" lon="-76.4574262686073780059814453125">
        <ele>1823.4000244140625</ele>
        <time>2021-07-25T11:08:39.000Z</time>
      </trkpt>
      <trkpt lat="-11.88794572837650775909423828125" lon="-76.4573330618441104888916015625">
        <ele>1823.800048828125</ele>
        <time>2021-07-25T11:08:42.000Z</time>
      </trkpt>
      <trkpt lat="-11.88798956573009490966796875" lon="-76.4572093449532985687255859375">
        <ele>1824.4000244140625</ele>
        <time>2021-07-25T11:08:46.000Z</time>
      </trkpt>
      <trkpt lat="-11.8880249373614788055419921875" lon="-76.45711563527584075927734375">
        <ele>1824.800048828125</ele>
        <time>2021-07-25T11:08:49.000Z</time>
      </trkpt>
      <trkpt lat="-11.888099871575832366943359375" lon="-76.456936933100223541259765625">
        <ele>1825.4000244140625</ele>
        <time>2021-07-25T11:08:55.000Z</time>
      </trkpt>
      <trkpt lat="-11.888170279562473297119140625" lon="-76.4567609131336212158203125">
        <ele>1826</ele>
        <time>2021-07-25T11:09:01.000Z</time>
      </trkpt>
      <trkpt lat="-11.8881821818649768829345703125" lon="-76.45673073828220367431640625">
        <ele>1826.199951171875</ele>
        <time>2021-07-25T11:09:02.000Z</time>
      </trkpt>
      <trkpt lat="-11.888286285102367401123046875" lon="-76.4564311690628528594970703125">
        <ele>1827</ele>
        <time>2021-07-25T11:09:12.000Z</time>
      </trkpt>
      <trkpt lat="-11.88830028288066387176513671875" lon="-76.45621332339942455291748046875">
        <ele>1828</ele>
        <time>2021-07-25T11:09:19.000Z</time>
      </trkpt>
      <trkpt lat="-11.88830262981355190277099609375" lon="-76.4561505429446697235107421875">
        <ele>1828.199951171875</ele>
        <time>2021-07-25T11:09:21.000Z</time>
      </trkpt>
      <trkpt lat="-11.888258121907711029052734375" lon="-76.4559574238955974578857421875">
        <ele>1828.800048828125</ele>
        <time>2021-07-25T11:09:27.000Z</time>
      </trkpt>
      <trkpt lat="-11.88822970725595951080322265625" lon="-76.45589447580277919769287109375">
        <ele>1829</ele>
        <time>2021-07-25T11:09:29.000Z</time>
      </trkpt>
      <trkpt lat="-11.8881820142269134521484375" lon="-76.4557711780071258544921875">
        <ele>1829.5999755859375</ele>
        <time>2021-07-25T11:09:33.000Z</time>
      </trkpt>
      <trkpt lat="-11.88809216022491455078125" lon="-76.45555282942950725555419921875">
        <ele>1830.199951171875</ele>
        <time>2021-07-25T11:09:40.000Z</time>
      </trkpt>
      <trkpt lat="-11.8880651704967021942138671875" lon="-76.45549365319311618804931640625">
        <ele>1830.4000244140625</ele>
        <time>2021-07-25T11:09:42.000Z</time>
      </trkpt>
      <trkpt lat="-11.88801110722124576568603515625" lon="-76.455378569662570953369140625">
        <ele>1831.199951171875</ele>
        <time>2021-07-25T11:09:46.000Z</time>
      </trkpt>
      <trkpt lat="-11.88797204755246639251708984375" lon="-76.45528662018477916717529296875">
        <ele>1831.5999755859375</ele>
        <time>2021-07-25T11:09:49.000Z</time>
      </trkpt>
      <trkpt lat="-11.8879008851945400238037109375" lon="-76.45506634376943111419677734375">
        <ele>1832</ele>
        <time>2021-07-25T11:09:56.000Z</time>
      </trkpt>
      <trkpt lat="-11.88787699677050113677978515625" lon="-76.45500331185758113861083984375">
        <ele>1832.199951171875</ele>
        <time>2021-07-25T11:09:58.000Z</time>
      </trkpt>
      <trkpt lat="-11.88780675642192363739013671875" lon="-76.45482561551034450531005859375">
        <ele>1833</ele>
        <time>2021-07-25T11:10:04.000Z</time>
      </trkpt>
      <trkpt lat="-11.8877877295017242431640625" lon="-76.45476895384490489959716796875">
        <ele>1833.4000244140625</ele>
        <time>2021-07-25T11:10:06.000Z</time>
      </trkpt>
      <trkpt lat="-11.88772612251341342926025390625" lon="-76.45463165827095508575439453125">
        <ele>1834</ele>
        <time>2021-07-25T11:10:11.000Z</time>
      </trkpt>
      <trkpt lat="-11.887687481939792633056640625" lon="-76.45451934076845645904541015625">
        <ele>1834.5999755859375</ele>
        <time>2021-07-25T11:10:15.000Z</time>
      </trkpt>
      <trkpt lat="-11.887655965983867645263671875" lon="-76.45440534688532352447509765625">
        <ele>1835</ele>
        <time>2021-07-25T11:10:19.000Z</time>
      </trkpt>
      <trkpt lat="-11.8876390345394611358642578125" lon="-76.45429931581020355224609375">
        <ele>1835.5999755859375</ele>
        <time>2021-07-25T11:10:23.000Z</time>
      </trkpt>
      <trkpt lat="-11.8876403756439685821533203125" lon="-76.45418959669768810272216796875">
        <ele>1836.199951171875</ele>
        <time>2021-07-25T11:10:27.000Z</time>
      </trkpt>
      <trkpt lat="-11.88764900900423526763916015625" lon="-76.454113908112049102783203125">
        <ele>1836.800048828125</ele>
        <time>2021-07-25T11:10:30.000Z</time>
      </trkpt>
      <trkpt lat="-11.8876799382269382476806640625" lon="-76.45397820509970188140869140625">
        <ele>1837.4000244140625</ele>
        <time>2021-07-25T11:10:35.000Z</time>
      </trkpt>
      <trkpt lat="-11.88769913278520107269287109375" lon="-76.45392891950905323028564453125">
        <ele>1837.800048828125</ele>
        <time>2021-07-25T11:10:37.000Z</time>
      </trkpt>
      <trkpt lat="-11.88777255825698375701904296875" lon="-76.4537647180259227752685546875">
        <ele>1839</ele>
        <time>2021-07-25T11:10:44.000Z</time>
      </trkpt>
      <trkpt lat="-11.887839026749134063720703125" lon="-76.45360688678920269012451171875">
        <ele>1840</ele>
        <time>2021-07-25T11:10:50.000Z</time>
      </trkpt>
      <trkpt lat="-11.88787079416215419769287109375" lon="-76.45353429950773715972900390625">
        <ele>1840.4000244140625</ele>
        <time>2021-07-25T11:10:53.000Z</time>
      </trkpt>
      <trkpt lat="-11.88790197484195232391357421875" lon="-76.45346489734947681427001953125">
        <ele>1841</ele>
        <time>2021-07-25T11:10:56.000Z</time>
      </trkpt>
      <trkpt lat="-11.88796584494411945343017578125" lon="-76.4533201418817043304443359375">
        <ele>1841.800048828125</ele>
        <time>2021-07-25T11:11:02.000Z</time>
      </trkpt>
      <trkpt lat="-11.88798747025430202484130859375" lon="-76.4532742090523242950439453125">
        <ele>1842</ele>
        <time>2021-07-25T11:11:04.000Z</time>
      </trkpt>
      <trkpt lat="-11.88802032731473445892333984375" lon="-76.45316381938755512237548828125">
        <ele>1843.4000244140625</ele>
        <time>2021-07-25T11:11:09.000Z</time>
      </trkpt>
      <trkpt lat="-11.8880225904285907745361328125" lon="-76.45313917659223079681396484375">
        <ele>1843.4000244140625</ele>
        <time>2021-07-25T11:11:10.000Z</time>
      </trkpt>
      <trkpt lat="-11.8880085088312625885009765625" lon="-76.4529647491872310638427734375">
        <ele>1844.4000244140625</ele>
        <time>2021-07-25T11:11:17.000Z</time>
      </trkpt>
      <trkpt lat="-11.88800322823226451873779296875" lon="-76.4529379270970821380615234375">
        <ele>1844.5999755859375</ele>
        <time>2021-07-25T11:11:18.000Z</time>
      </trkpt>
      <trkpt lat="-11.88793969340622425079345703125" lon="-76.45277875475585460662841796875">
        <ele>1845.5999755859375</ele>
        <time>2021-07-25T11:11:24.000Z</time>
      </trkpt>
      <trkpt lat="-11.88785268925130367279052734375" lon="-76.452574320137500762939453125">
        <ele>1846.800048828125</ele>
        <time>2021-07-25T11:11:32.000Z</time>
      </trkpt>
      <trkpt lat="-11.8878418765962123870849609375" lon="-76.45254892297089099884033203125">
        <ele>1847</ele>
        <time>2021-07-25T11:11:33.000Z</time>
      </trkpt>
      <trkpt lat="-11.88778680749237537384033203125" lon="-76.45242135040462017059326171875">
        <ele>1847.800048828125</ele>
        <time>2021-07-25T11:11:38.000Z</time>
      </trkpt>
      <trkpt lat="-11.887753866612911224365234375" lon="-76.4523446559906005859375">
        <ele>1848.4000244140625</ele>
        <time>2021-07-25T11:11:41.000Z</time>
      </trkpt>
      <trkpt lat="-11.88773115165531635284423828125" lon="-76.4522660337388515472412109375">
        <ele>1849</ele>
        <time>2021-07-25T11:11:44.000Z</time>
      </trkpt>
      <trkpt lat="-11.88771329820156097412109375" lon="-76.4521671272814273834228515625">
        <ele>1849.5999755859375</ele>
        <time>2021-07-25T11:11:48.000Z</time>
      </trkpt>
      <trkpt lat="-11.88770466484129428863525390625" lon="-76.4520873315632343292236328125">
        <ele>1850</ele>
        <time>2021-07-25T11:11:51.000Z</time>
      </trkpt>
      <trkpt lat="-11.8876997195184230804443359375" lon="-76.4520053565502166748046875">
        <ele>1850.5999755859375</ele>
        <time>2021-07-25T11:11:54.000Z</time>
      </trkpt>
      <trkpt lat="-11.8877024017274379730224609375" lon="-76.45190100185573101043701171875">
        <ele>1851.199951171875</ele>
        <time>2021-07-25T11:11:58.000Z</time>
      </trkpt>
      <trkpt lat="-11.887703239917755126953125" lon="-76.45176286809146404266357421875">
        <ele>1851.800048828125</ele>
        <time>2021-07-25T11:12:03.000Z</time>
      </trkpt>
      <trkpt lat="-11.88770131208002567291259765625" lon="-76.451701931655406951904296875">
        <ele>1852.199951171875</ele>
        <time>2021-07-25T11:12:05.000Z</time>
      </trkpt>
      <trkpt lat="-11.88770097680389881134033203125" lon="-76.45157243125140666961669921875">
        <ele>1853.199951171875</ele>
        <time>2021-07-25T11:12:10.000Z</time>
      </trkpt>
      <trkpt lat="-11.88769343309104442596435546875" lon="-76.45138082094490528106689453125">
        <ele>1854.4000244140625</ele>
        <time>2021-07-25T11:12:17.000Z</time>
      </trkpt>
      <trkpt lat="-11.88769678585231304168701171875" lon="-76.451328098773956298828125">
        <ele>1854.800048828125</ele>
        <time>2021-07-25T11:12:19.000Z</time>
      </trkpt>
      <trkpt lat="-11.88771019689738750457763671875" lon="-76.45120161585509777069091796875">
        <ele>1855.4000244140625</ele>
        <time>2021-07-25T11:12:24.000Z</time>
      </trkpt>
      <trkpt lat="-11.8877282179892063140869140625" lon="-76.45115400664508342742919921875">
        <ele>1855.800048828125</ele>
        <time>2021-07-25T11:12:26.000Z</time>
      </trkpt>
      <trkpt lat="-11.88780759461224079132080078125" lon="-76.45109030418097972869873046875">
        <ele>1856.4000244140625</ele>
        <time>2021-07-25T11:12:30.000Z</time>
      </trkpt>
      <trkpt lat="-11.8878291361033916473388671875" lon="-76.45108242519199848175048828125">
        <ele>1856.5999755859375</ele>
        <time>2021-07-25T11:12:31.000Z</time>
      </trkpt>
      <trkpt lat="-11.88795067369937896728515625" lon="-76.4511056430637836456298828125">
        <ele>1857.5999755859375</ele>
        <time>2021-07-25T11:12:36.000Z</time>
      </trkpt>
      <trkpt lat="-11.88804614357650279998779296875" lon="-76.451223827898502349853515625">
        <ele>1858.199951171875</ele>
        <time>2021-07-25T11:12:41.000Z</time>
      </trkpt>
      <trkpt lat="-11.88806693069636821746826171875" lon="-76.45127520896494388580322265625">
        <ele>1858.5999755859375</ele>
        <time>2021-07-25T11:12:43.000Z</time>
      </trkpt>
      <trkpt lat="-11.8881117738783359527587890625" lon="-76.4514161087572574615478515625">
        <ele>1859.4000244140625</ele>
        <time>2021-07-25T11:12:48.000Z</time>
      </trkpt>
      <trkpt lat="-11.88811822794377803802490234375" lon="-76.45147670991718769073486328125">
        <ele>1859.5999755859375</ele>
        <time>2021-07-25T11:12:50.000Z</time>
      </trkpt>
      <trkpt lat="-11.8881268613040447235107421875" lon="-76.45171643234789371490478515625">
        <ele>1860.5999755859375</ele>
        <time>2021-07-25T11:12:58.000Z</time>
      </trkpt>
      <trkpt lat="-11.88812769949436187744140625" lon="-76.4517463557422161102294921875">
        <ele>1860.800048828125</ele>
        <time>2021-07-25T11:12:59.000Z</time>
      </trkpt>
      <trkpt lat="-11.8881325609982013702392578125" lon="-76.45200225524604320526123046875">
        <ele>1861.800048828125</ele>
        <time>2021-07-25T11:13:08.000Z</time>
      </trkpt>
      <trkpt lat="-11.8881352432072162628173828125" lon="-76.45202974788844585418701171875">
        <ele>1861.800048828125</ele>
        <time>2021-07-25T11:13:09.000Z</time>
      </trkpt>
      <trkpt lat="-11.88814722932875156402587890625" lon="-76.45225672982633113861083984375">
        <ele>1862.800048828125</ele>
        <time>2021-07-25T11:13:17.000Z</time>
      </trkpt>
      <trkpt lat="-11.8881479837000370025634765625" lon="-76.452283300459384918212890625">
        <ele>1863.199951171875</ele>
        <time>2021-07-25T11:13:18.000Z</time>
      </trkpt>
      <trkpt lat="-11.88815007917582988739013671875" lon="-76.45245571620762348175048828125">
        <ele>1863.800048828125</ele>
        <time>2021-07-25T11:13:24.000Z</time>
      </trkpt>
      <trkpt lat="-11.8881503306329250335693359375" lon="-76.45256501622498035430908203125">
        <ele>1864.4000244140625</ele>
        <time>2021-07-25T11:13:28.000Z</time>
      </trkpt>
      <trkpt lat="-11.88816793262958526611328125" lon="-76.4526492543518543243408203125">
        <ele>1865</ele>
        <time>2021-07-25T11:13:31.000Z</time>
      </trkpt>
      <trkpt lat="-11.88821512274444103240966796875" lon="-76.452760733664035797119140625">
        <ele>1865.199951171875</ele>
        <time>2021-07-25T11:13:35.000Z</time>
      </trkpt>
      <trkpt lat="-11.888285614550113677978515625" lon="-76.45285033620893955230712890625">
        <ele>1866</ele>
        <time>2021-07-25T11:13:39.000Z</time>
      </trkpt>
      <trkpt lat="-11.88835568726062774658203125" lon="-76.45289945416152477264404296875">
        <ele>1866.5999755859375</ele>
        <time>2021-07-25T11:13:42.000Z</time>
      </trkpt>
      <trkpt lat="-11.888435147702693939208984375" lon="-76.4529295451939105987548828125">
        <ele>1867</ele>
        <time>2021-07-25T11:13:45.000Z</time>
      </trkpt>
      <trkpt lat="-11.8885201402008533477783203125" lon="-76.45292937755584716796875">
        <ele>1867.199951171875</ele>
        <time>2021-07-25T11:13:48.000Z</time>
      </trkpt>
      <trkpt lat="-11.8886661529541015625" lon="-76.4528598077595233917236328125">
        <ele>1867.800048828125</ele>
        <time>2021-07-25T11:13:54.000Z</time>
      </trkpt>
      <trkpt lat="-11.8887045420706272125244140625" lon="-76.452814377844333648681640625">
        <ele>1868</ele>
        <time>2021-07-25T11:13:56.000Z</time>
      </trkpt>
      <trkpt lat="-11.888748966157436370849609375" lon="-76.45270633511245250701904296875">
        <ele>1868.5999755859375</ele>
        <time>2021-07-25T11:14:00.000Z</time>
      </trkpt>
      <trkpt lat="-11.8887427635490894317626953125" lon="-76.4525577239692211151123046875">
        <ele>1869</ele>
        <time>2021-07-25T11:14:05.000Z</time>
      </trkpt>
      <trkpt lat="-11.88872893340885639190673828125" lon="-76.4524997211992740631103515625">
        <ele>1869.800048828125</ele>
        <time>2021-07-25T11:14:07.000Z</time>
      </trkpt>
      <trkpt lat="-11.8886616267263889312744140625" lon="-76.45229344256222248077392578125">
        <ele>1870.199951171875</ele>
        <time>2021-07-25T11:14:14.000Z</time>
      </trkpt>
      <trkpt lat="-11.88863405026495456695556640625" lon="-76.45220744423568248748779296875">
        <ele>1870.4000244140625</ele>
        <time>2021-07-25T11:14:17.000Z</time>
      </trkpt>
      <trkpt lat="-11.888551153242588043212890625" lon="-76.45196713507175445556640625">
        <ele>1871.199951171875</ele>
        <time>2021-07-25T11:14:25.000Z</time>
      </trkpt>
      <trkpt lat="-11.88847714103758335113525390625" lon="-76.45173956640064716339111328125">
        <ele>1872.4000244140625</ele>
        <time>2021-07-25T11:14:33.000Z</time>
      </trkpt>
      <trkpt lat="-11.88840371556580066680908203125" lon="-76.45148995332419872283935546875">
        <ele>1873.199951171875</ele>
        <time>2021-07-25T11:14:42.000Z</time>
      </trkpt>
      <trkpt lat="-11.888395249843597412109375" lon="-76.451463215053081512451171875">
        <ele>1873.4000244140625</ele>
        <time>2021-07-25T11:14:43.000Z</time>
      </trkpt>
      <trkpt lat="-11.88833012245595455169677734375" lon="-76.45120329223573207855224609375">
        <ele>1874.4000244140625</ele>
        <time>2021-07-25T11:14:52.000Z</time>
      </trkpt>
      <trkpt lat="-11.88829391263425350189208984375" lon="-76.45099692977964878082275390625">
        <ele>1875.5999755859375</ele>
        <time>2021-07-25T11:14:59.000Z</time>
      </trkpt>
      <trkpt lat="-11.88826558180153369903564453125" lon="-76.45078386180102825164794921875">
        <ele>1876.199951171875</ele>
        <time>2021-07-25T11:15:06.000Z</time>
      </trkpt>
      <trkpt lat="-11.8882636539638042449951171875" lon="-76.45072082988917827606201171875">
        <ele>1876.5999755859375</ele>
        <time>2021-07-25T11:15:08.000Z</time>
      </trkpt>
      <trkpt lat="-11.8882706947624683380126953125" lon="-76.45054765976965427398681640625">
        <ele>1877.4000244140625</ele>
        <time>2021-07-25T11:15:14.000Z</time>
      </trkpt>
      <trkpt lat="-11.8882774002850055694580078125" lon="-76.450490243732929229736328125">
        <ele>1877.800048828125</ele>
        <time>2021-07-25T11:15:16.000Z</time>
      </trkpt>
      <trkpt lat="-11.888299025595188140869140625" lon="-76.45037348382174968719482421875">
        <ele>1878.4000244140625</ele>
        <time>2021-07-25T11:15:20.000Z</time>
      </trkpt>
      <trkpt lat="-11.8883122690021991729736328125" lon="-76.45028807222843170166015625">
        <ele>1879</ele>
        <time>2021-07-25T11:15:23.000Z</time>
      </trkpt>
      <trkpt lat="-11.8883228302001953125" lon="-76.45017483271658420562744140625">
        <ele>1879.4000244140625</ele>
        <time>2021-07-25T11:15:27.000Z</time>
      </trkpt>
      <trkpt lat="-11.88833666034042835235595703125" lon="-76.45006385631859302520751953125">
        <ele>1880</ele>
        <time>2021-07-25T11:15:31.000Z</time>
      </trkpt>
      <trkpt lat="-11.88835040666162967681884765625" lon="-76.44989957101643085479736328125">
        <ele>1881.199951171875</ele>
        <time>2021-07-25T11:15:37.000Z</time>
      </trkpt>
      <trkpt lat="-11.88835007138550281524658203125" lon="-76.44987090490758419036865234375">
        <ele>1881.4000244140625</ele>
        <time>2021-07-25T11:15:38.000Z</time>
      </trkpt>
      <trkpt lat="-11.888344287872314453125" lon="-76.4497058652341365814208984375">
        <ele>1882.4000244140625</ele>
        <time>2021-07-25T11:15:44.000Z</time>
      </trkpt>
      <trkpt lat="-11.88834236003458499908447265625" lon="-76.44965280778706073760986328125">
        <ele>1882.800048828125</ele>
        <time>2021-07-25T11:15:46.000Z</time>
      </trkpt>
      <trkpt lat="-11.88831570558249950408935546875" lon="-76.44954769872128963470458984375">
        <ele>1883.4000244140625</ele>
        <time>2021-07-25T11:15:50.000Z</time>
      </trkpt>
      <trkpt lat="-11.88829340972006320953369140625" lon="-76.4494465291500091552734375">
        <ele>1884</ele>
        <time>2021-07-25T11:15:54.000Z</time>
      </trkpt>
      <trkpt lat="-11.888277232646942138671875" lon="-76.44939280115067958831787109375">
        <ele>1884.4000244140625</ele>
        <time>2021-07-25T11:15:56.000Z</time>
      </trkpt>
      <trkpt lat="-11.8882307969033718109130859375" lon="-76.4492492191493511199951171875">
        <ele>1885.4000244140625</ele>
        <time>2021-07-25T11:16:02.000Z</time>
      </trkpt>
      <trkpt lat="-11.8882207386195659637451171875" lon="-76.44922549836337566375732421875">
        <ele>1885.5999755859375</ele>
        <time>2021-07-25T11:16:03.000Z</time>
      </trkpt>
      <trkpt lat="-11.888157539069652557373046875" lon="-76.44907864741981029510498046875">
        <ele>1886.5999755859375</ele>
        <time>2021-07-25T11:16:09.000Z</time>
      </trkpt>
      <trkpt lat="-11.88814655877649784088134765625" lon="-76.44905115477740764617919921875">
        <ele>1886.800048828125</ele>
        <time>2021-07-25T11:16:10.000Z</time>
      </trkpt>
      <trkpt lat="-11.888095848262310028076171875" lon="-76.44892710261046886444091796875">
        <ele>1887.800048828125</ele>
        <time>2021-07-25T11:16:15.000Z</time>
      </trkpt>
      <trkpt lat="-11.88808570615947246551513671875" lon="-76.44890346564352512359619140625">
        <ele>1887.800048828125</ele>
        <time>2021-07-25T11:16:16.000Z</time>
      </trkpt>
      <trkpt lat="-11.88803273253142833709716796875" lon="-76.4487867057323455810546875">
        <ele>1888.800048828125</ele>
        <time>2021-07-25T11:16:21.000Z</time>
      </trkpt>
      <trkpt lat="-11.88801630400121212005615234375" lon="-76.44874311983585357666015625">
        <ele>1889.4000244140625</ele>
        <time>2021-07-25T11:16:23.000Z</time>
      </trkpt>
      <trkpt lat="-11.8879790045320987701416015625" lon="-76.44865100271999835968017578125">
        <ele>1890</ele>
        <time>2021-07-25T11:16:27.000Z</time>
      </trkpt>
      <trkpt lat="-11.88792862929403781890869140625" lon="-76.44854371435940265655517578125">
        <ele>1890.800048828125</ele>
        <time>2021-07-25T11:16:33.000Z</time>
      </trkpt>
      <trkpt lat="-11.887920163571834564208984375" lon="-76.4485213346779346466064453125">
        <ele>1891</ele>
        <time>2021-07-25T11:16:34.000Z</time>
      </trkpt>
      <trkpt lat="-11.88786844722926616668701171875" lon="-76.4483870565891265869140625">
        <ele>1892.199951171875</ele>
        <time>2021-07-25T11:16:40.000Z</time>
      </trkpt>
      <trkpt lat="-11.887853443622589111328125" lon="-76.44834724254906177520751953125">
        <ele>1892.4000244140625</ele>
        <time>2021-07-25T11:16:42.000Z</time>
      </trkpt>
      <trkpt lat="-11.8878091871738433837890625" lon="-76.4482135511934757232666015625">
        <ele>1893.199951171875</ele>
        <time>2021-07-25T11:16:48.000Z</time>
      </trkpt>
      <trkpt lat="-11.88780155964195728302001953125" lon="-76.448192931711673736572265625">
        <ele>1893.4000244140625</ele>
        <time>2021-07-25T11:16:49.000Z</time>
      </trkpt>
      <trkpt lat="-11.8877582252025604248046875" lon="-76.44808572717010974884033203125">
        <ele>1894.199951171875</ele>
        <time>2021-07-25T11:16:54.000Z</time>
      </trkpt>
      <trkpt lat="-11.88773810863494873046875" lon="-76.44802235998213291168212890625">
        <ele>1894.800048828125</ele>
        <time>2021-07-25T11:16:57.000Z</time>
      </trkpt>
      <trkpt lat="-11.88772134482860565185546875" lon="-76.44797642715275287628173828125">
        <ele>1895.199951171875</ele>
        <time>2021-07-25T11:16:59.000Z</time>
      </trkpt>
      <trkpt lat="-11.887667365372180938720703125" lon="-76.44785958342254161834716796875">
        <ele>1896.199951171875</ele>
        <time>2021-07-25T11:17:04.000Z</time>
      </trkpt>
      <trkpt lat="-11.887660324573516845703125" lon="-76.44783896394073963165283203125">
        <ele>1896.4000244140625</ele>
        <time>2021-07-25T11:17:05.000Z</time>
      </trkpt>
      <trkpt lat="-11.8876014836132526397705078125" lon="-76.44769261591136455535888671875">
        <ele>1897.4000244140625</ele>
        <time>2021-07-25T11:17:12.000Z</time>
      </trkpt>
      <trkpt lat="-11.88758857548236846923828125" lon="-76.44767233170568943023681640625">
        <ele>1897.5999755859375</ele>
        <time>2021-07-25T11:17:13.000Z</time>
      </trkpt>
      <trkpt lat="-11.88753752969205379486083984375" lon="-76.44757627509534358978271484375">
        <ele>1898.5999755859375</ele>
        <time>2021-07-25T11:17:18.000Z</time>
      </trkpt>
      <trkpt lat="-11.88751137815415859222412109375" lon="-76.447539143264293670654296875">
        <ele>1899</ele>
        <time>2021-07-25T11:17:20.000Z</time>
      </trkpt>
      <trkpt lat="-11.88745086081326007843017578125" lon="-76.44747066311538219451904296875">
        <ele>1899.5999755859375</ele>
        <time>2021-07-25T11:17:24.000Z</time>
      </trkpt>
      <trkpt lat="-11.88736318610608577728271484375" lon="-76.44739204086363315582275390625">
        <ele>1900.4000244140625</ele>
        <time>2021-07-25T11:17:29.000Z</time>
      </trkpt>
      <trkpt lat="-11.88732840120792388916015625" lon="-76.44736505113542079925537109375">
        <ele>1900.5999755859375</ele>
        <time>2021-07-25T11:17:31.000Z</time>
      </trkpt>
      <trkpt lat="-11.8871847353875637054443359375" lon="-76.44728173501789569854736328125">
        <ele>1901.800048828125</ele>
        <time>2021-07-25T11:17:38.000Z</time>
      </trkpt>
      <trkpt lat="-11.887076608836650848388671875" lon="-76.44724435172975063323974609375">
        <ele>1902.800048828125</ele>
        <time>2021-07-25T11:17:43.000Z</time>
      </trkpt>
      <trkpt lat="-11.886986754834651947021484375" lon="-76.44722591154277324676513671875">
        <ele>1903.4000244140625</ele>
        <time>2021-07-25T11:17:47.000Z</time>
      </trkpt>
      <trkpt lat="-11.88691743649542331695556640625" lon="-76.44721501506865024566650390625">
        <ele>1904</ele>
        <time>2021-07-25T11:17:50.000Z</time>
      </trkpt>
      <trkpt lat="-11.88679866492748260498046875" lon="-76.4472174458205699920654296875">
        <ele>1904.5999755859375</ele>
        <time>2021-07-25T11:17:55.000Z</time>
      </trkpt>
      <trkpt lat="-11.88671551644802093505859375" lon="-76.44721769727766513824462890625">
        <ele>1905</ele>
        <time>2021-07-25T11:17:58.000Z</time>
      </trkpt>
      <trkpt lat="-11.8866586871445178985595703125" lon="-76.44722389988601207733154296875">
        <ele>1905.4000244140625</ele>
        <time>2021-07-25T11:18:00.000Z</time>
      </trkpt>
      <trkpt lat="-11.88647571019828319549560546875" lon="-76.44723094068467617034912109375">
        <ele>1906.199951171875</ele>
        <time>2021-07-25T11:18:07.000Z</time>
      </trkpt>
      <trkpt lat="-11.8864444456994533538818359375" lon="-76.44723169505596160888671875">
        <ele>1906.4000244140625</ele>
        <time>2021-07-25T11:18:08.000Z</time>
      </trkpt>
      <trkpt lat="-11.88630572520196437835693359375" lon="-76.44723680801689624786376953125">
        <ele>1907.199951171875</ele>
        <time>2021-07-25T11:18:14.000Z</time>
      </trkpt>
      <trkpt lat="-11.8861837685108184814453125" lon="-76.4472181163728237152099609375">
        <ele>1908</ele>
        <time>2021-07-25T11:18:21.000Z</time>
      </trkpt>
      <trkpt lat="-11.8860970996320247650146484375" lon="-76.44724778831005096435546875">
        <ele>1908.800048828125</ele>
        <time>2021-07-25T11:19:51.000Z</time>
      </trkpt>
      <trkpt lat="-11.88608259893953800201416015625" lon="-76.44725088961422443389892578125">
        <ele>1908.800048828125</ele>
        <time>2021-07-25T11:19:52.000Z</time>
      </trkpt>
      <trkpt lat="-11.88604739494621753692626953125" lon="-76.447251476347446441650390625">
        <ele>1909</ele>
        <time>2021-07-25T11:19:55.000Z</time>
      </trkpt>
      <trkpt lat="-11.88598235137760639190673828125" lon="-76.447251141071319580078125">
        <ele>1909.199951171875</ele>
        <time>2021-07-25T11:19:59.000Z</time>
      </trkpt>
      <trkpt lat="-11.88592183403670787811279296875" lon="-76.4472570084035396575927734375">
        <ele>1909.4000244140625</ele>
        <time>2021-07-25T11:20:03.000Z</time>
      </trkpt>
      <trkpt lat="-11.88589165918529033660888671875" lon="-76.44725306890904903411865234375">
        <ele>1909.5999755859375</ele>
        <time>2021-07-25T11:20:06.000Z</time>
      </trkpt>
      <trkpt lat="-11.8858592212200164794921875" lon="-76.44725985825061798095703125">
        <ele>1909.5999755859375</ele>
        <time>2021-07-25T11:22:52.000Z</time>
      </trkpt>
      <trkpt lat="-11.8858416192233562469482421875" lon="-76.44726111553609371185302734375">
        <ele>1909.5999755859375</ele>
        <time>2021-07-25T11:22:53.000Z</time>
      </trkpt>
      <trkpt lat="-11.8858221732079982757568359375" lon="-76.4472633786499500274658203125">
        <ele>1909.4000244140625</ele>
        <time>2021-07-25T11:22:54.000Z</time>
      </trkpt>
      <trkpt lat="-11.88575930893421173095703125" lon="-76.44726664759218692779541015625">
        <ele>1909.5999755859375</ele>
        <time>2021-07-25T11:22:57.000Z</time>
      </trkpt>
      <trkpt lat="-11.88567255623638629913330078125" lon="-76.44727251492440700531005859375">
        <ele>1909.800048828125</ele>
        <time>2021-07-25T11:23:00.000Z</time>
      </trkpt>
      <trkpt lat="-11.885473318397998809814453125" lon="-76.44728307612240314483642578125">
        <ele>1910.5999755859375</ele>
        <time>2021-07-25T11:23:07.000Z</time>
      </trkpt>
      <trkpt lat="-11.8854433111846446990966796875" lon="-76.44728290848433971405029296875">
        <ele>1910.4000244140625</ele>
        <time>2021-07-25T11:23:08.000Z</time>
      </trkpt>
      <trkpt lat="-11.88532001338899135589599609375" lon="-76.44728274084627628326416015625">
        <ele>1911</ele>
        <time>2021-07-25T11:23:12.000Z</time>
      </trkpt>
      <trkpt lat="-11.88521406613290309906005859375" lon="-76.44727184437215328216552734375">
        <ele>1911.5999755859375</ele>
        <time>2021-07-25T11:23:16.000Z</time>
      </trkpt>
      <trkpt lat="-11.88511130400002002716064453125" lon="-76.44723798148334026336669921875">
        <ele>1912.4000244140625</ele>
        <time>2021-07-25T11:23:20.000Z</time>
      </trkpt>
      <trkpt lat="-11.88501038588583469390869140625" lon="-76.4471866004168987274169921875">
        <ele>1912.800048828125</ele>
        <time>2021-07-25T11:23:24.000Z</time>
      </trkpt>
      <trkpt lat="-11.88488231040537357330322265625" lon="-76.4470799826085567474365234375">
        <ele>1913.4000244140625</ele>
        <time>2021-07-25T11:23:30.000Z</time>
      </trkpt>
      <trkpt lat="-11.884861774742603302001953125" lon="-76.447070427238941192626953125">
        <ele>1913.4000244140625</ele>
        <time>2021-07-25T11:23:31.000Z</time>
      </trkpt>
      <trkpt lat="-11.884833611547946929931640625" lon="-76.44704259932041168212890625">
        <ele>1913.800048828125</ele>
        <time>2021-07-25T11:23:34.000Z</time>
      </trkpt>
      <trkpt lat="-11.88482112251222133636474609375" lon="-76.446904800832271575927734375">
        <ele>1914.5999755859375</ele>
        <time>2021-07-25T11:23:39.000Z</time>
      </trkpt>
      <trkpt lat="-11.88480502925813198089599609375" lon="-76.4468405954539775848388671875">
        <ele>1914.800048828125</ele>
        <time>2021-07-25T11:23:41.000Z</time>
      </trkpt>
      <trkpt lat="-11.88474149443209171295166015625" lon="-76.44664940424263477325439453125">
        <ele>1915.5999755859375</ele>
        <time>2021-07-25T11:23:47.000Z</time>
      </trkpt>
      <trkpt lat="-11.88473026268184185028076171875" lon="-76.44661906175315380096435546875">
        <ele>1915.5999755859375</ele>
        <time>2021-07-25T11:23:48.000Z</time>
      </trkpt>
      <trkpt lat="-11.8846547417342662811279296875" lon="-76.4463655091822147369384765625">
        <ele>1916.5999755859375</ele>
        <time>2021-07-25T11:23:56.000Z</time>
      </trkpt>
      <trkpt lat="-11.88463722355663776397705078125" lon="-76.44630457274615764617919921875">
        <ele>1916.800048828125</ele>
        <time>2021-07-25T11:23:58.000Z</time>
      </trkpt>
      <trkpt lat="-11.88457502983510494232177734375" lon="-76.44612394273281097412109375">
        <ele>1917.800048828125</ele>
        <time>2021-07-25T11:24:04.000Z</time>
      </trkpt>
      <trkpt lat="-11.88453362323343753814697265625" lon="-76.44598371349275112152099609375">
        <ele>1918.5999755859375</ele>
        <time>2021-07-25T11:24:09.000Z</time>
      </trkpt>
      <trkpt lat="-11.88452607952058315277099609375" lon="-76.4459571428596973419189453125">
        <ele>1918.800048828125</ele>
        <time>2021-07-25T11:24:10.000Z</time>
      </trkpt>
      <trkpt lat="-11.88446388579905033111572265625" lon="-76.445793695747852325439453125">
        <ele>1919.800048828125</ele>
        <time>2021-07-25T11:24:16.000Z</time>
      </trkpt>
      <trkpt lat="-11.88444209285080432891845703125" lon="-76.4457422308623790740966796875">
        <ele>1920.199951171875</ele>
        <time>2021-07-25T11:24:18.000Z</time>
      </trkpt>
      <trkpt lat="-11.884360201656818389892578125" lon="-76.4456128142774105072021484375">
        <ele>1920.800048828125</ele>
        <time>2021-07-25T11:24:23.000Z</time>
      </trkpt>
      <trkpt lat="-11.8842926435172557830810546875" lon="-76.4455206133425235748291015625">
        <ele>1921.4000244140625</ele>
        <time>2021-07-25T11:24:27.000Z</time>
      </trkpt>
      <trkpt lat="-11.88422583974897861480712890625" lon="-76.44543863832950592041015625">
        <ele>1922</ele>
        <time>2021-07-25T11:24:31.000Z</time>
      </trkpt>
      <trkpt lat="-11.88418217003345489501953125" lon="-76.44537183456122875213623046875">
        <ele>1922.5999755859375</ele>
        <time>2021-07-25T11:24:34.000Z</time>
      </trkpt>
      <trkpt lat="-11.88413598574697971343994140625" lon="-76.44531299360096454620361328125">
        <ele>1923.199951171875</ele>
        <time>2021-07-25T11:24:37.000Z</time>
      </trkpt>
      <trkpt lat="-11.884088627994060516357421875" lon="-76.4452520571649074554443359375">
        <ele>1923.800048828125</ele>
        <time>2021-07-25T11:24:40.000Z</time>
      </trkpt>
      <trkpt lat="-11.88401645980775356292724609375" lon="-76.4451645500957965850830078125">
        <ele>1924.199951171875</ele>
        <time>2021-07-25T11:24:44.000Z</time>
      </trkpt>
      <trkpt lat="-11.88396625220775604248046875" lon="-76.4450933039188385009765625">
        <ele>1924.800048828125</ele>
        <time>2021-07-25T11:24:47.000Z</time>
      </trkpt>
      <trkpt lat="-11.8839053995907306671142578125" lon="-76.44500755704939365386962890625">
        <ele>1925.199951171875</ele>
        <time>2021-07-25T11:24:51.000Z</time>
      </trkpt>
      <trkpt lat="-11.8838644959032535552978515625" lon="-76.44493840634822845458984375">
        <ele>1925.800048828125</ele>
        <time>2021-07-25T11:24:54.000Z</time>
      </trkpt>
      <trkpt lat="-11.8838376738131046295166015625" lon="-76.4448919706046581268310546875">
        <ele>1926.4000244140625</ele>
        <time>2021-07-25T11:24:56.000Z</time>
      </trkpt>
      <trkpt lat="-11.88377321697771549224853515625" lon="-76.44473866559565067291259765625">
        <ele>1927.4000244140625</ele>
        <time>2021-07-25T11:25:03.000Z</time>
      </trkpt>
      <trkpt lat="-11.88370071351528167724609375" lon="-76.4445784874260425567626953125">
        <ele>1928.5999755859375</ele>
        <time>2021-07-25T11:25:10.000Z</time>
      </trkpt>
      <trkpt lat="-11.883689649403095245361328125" lon="-76.44455644302070140838623046875">
        <ele>1928.5999755859375</ele>
        <time>2021-07-25T11:25:11.000Z</time>
      </trkpt>
      <trkpt lat="-11.88362603075802326202392578125" lon="-76.44438846968114376068115234375">
        <ele>1929.5999755859375</ele>
        <time>2021-07-25T11:25:18.000Z</time>
      </trkpt>
      <trkpt lat="-11.88360658474266529083251953125" lon="-76.4443370886147022247314453125">
        <ele>1929.800048828125</ele>
        <time>2021-07-25T11:25:20.000Z</time>
      </trkpt>
      <trkpt lat="-11.88354975543916225433349609375" lon="-76.444181688129901885986328125">
        <ele>1930.5999755859375</ele>
        <time>2021-07-25T11:25:26.000Z</time>
      </trkpt>
      <trkpt lat="-11.883532740175724029541015625" lon="-76.44412678666412830352783203125">
        <ele>1930.800048828125</ele>
        <time>2021-07-25T11:25:28.000Z</time>
      </trkpt>
      <trkpt lat="-11.8834692053496837615966796875" lon="-76.44396870397031307220458984375">
        <ele>1931.800048828125</ele>
        <time>2021-07-25T11:25:34.000Z</time>
      </trkpt>
      <trkpt lat="-11.883431486785411834716796875" lon="-76.4438576437532901763916015625">
        <ele>1932.199951171875</ele>
        <time>2021-07-25T11:25:38.000Z</time>
      </trkpt>
      <trkpt lat="-11.88336275517940521240234375" lon="-76.44369478337466716766357421875">
        <ele>1933.199951171875</ele>
        <time>2021-07-25T11:25:44.000Z</time>
      </trkpt>
      <trkpt lat="-11.8833273835480213165283203125" lon="-76.4436142332851886749267578125">
        <ele>1933.199951171875</ele>
        <time>2021-07-25T11:25:47.000Z</time>
      </trkpt>
      <trkpt lat="-11.883216239511966705322265625" lon="-76.44339890219271183013916015625">
        <ele>1934.199951171875</ele>
        <time>2021-07-25T11:25:55.000Z</time>
      </trkpt>
      <trkpt lat="-11.88319654203951358795166015625" lon="-76.443373002111911773681640625">
        <ele>1934.199951171875</ele>
        <time>2021-07-25T11:25:56.000Z</time>
      </trkpt>
      <trkpt lat="-11.8830159120261669158935546875" lon="-76.4431245625019073486328125">
        <ele>1934.800048828125</ele>
        <time>2021-07-25T11:26:05.000Z</time>
      </trkpt>
      <trkpt lat="-11.88292580656707286834716796875" lon="-76.4430092275142669677734375">
        <ele>1935.199951171875</ele>
        <time>2021-07-25T11:26:09.000Z</time>
      </trkpt>
      <trkpt lat="-11.88286428339779376983642578125" lon="-76.4429151825606822967529296875">
        <ele>1935.5999755859375</ele>
        <time>2021-07-25T11:26:12.000Z</time>
      </trkpt>
      <trkpt lat="-11.88275783322751522064208984375" lon="-76.442733965814113616943359375">
        <ele>1936.199951171875</ele>
        <time>2021-07-25T11:26:18.000Z</time>
      </trkpt>
      <trkpt lat="-11.88270695507526397705078125" lon="-76.442638076841831207275390625">
        <ele>1936.5999755859375</ele>
        <time>2021-07-25T11:26:21.000Z</time>
      </trkpt>
      <trkpt lat="-11.882668398320674896240234375" lon="-76.4425460435450077056884765625">
        <ele>1937.199951171875</ele>
        <time>2021-07-25T11:26:24.000Z</time>
      </trkpt>
      <trkpt lat="-11.8826051987707614898681640625" lon="-76.4424379169940948486328125">
        <ele>1937.800048828125</ele>
        <time>2021-07-25T11:26:28.000Z</time>
      </trkpt>
      <trkpt lat="-11.88255214132368564605712890625" lon="-76.44232115708291530609130859375">
        <ele>1938.5999755859375</ele>
        <time>2021-07-25T11:26:32.000Z</time>
      </trkpt>
      <trkpt lat="-11.88250855542719364166259765625" lon="-76.44220523536205291748046875">
        <ele>1939</ele>
        <time>2021-07-25T11:26:36.000Z</time>
      </trkpt>
      <trkpt lat="-11.8824724294245243072509765625" lon="-76.44212384708225727081298828125">
        <ele>1939.5999755859375</ele>
        <time>2021-07-25T11:26:39.000Z</time>
      </trkpt>
      <trkpt lat="-11.88242322765290737152099609375" lon="-76.4420193247497081756591796875">
        <ele>1940</ele>
        <time>2021-07-25T11:26:43.000Z</time>
      </trkpt>
      <trkpt lat="-11.88238718546926975250244140625" lon="-76.44194112159311771392822265625">
        <ele>1940.800048828125</ele>
        <time>2021-07-25T11:26:46.000Z</time>
      </trkpt>
      <trkpt lat="-11.882327757775783538818359375" lon="-76.4418084360659122467041015625">
        <ele>1941.4000244140625</ele>
        <time>2021-07-25T11:26:51.000Z</time>
      </trkpt>
      <trkpt lat="-11.8823061324656009674072265625" lon="-76.44175655208528041839599609375">
        <ele>1941.800048828125</ele>
        <time>2021-07-25T11:26:53.000Z</time>
      </trkpt>
      <trkpt lat="-11.88225768506526947021484375" lon="-76.44159729592502117156982421875">
        <ele>1943</ele>
        <time>2021-07-25T11:26:59.000Z</time>
      </trkpt>
      <trkpt lat="-11.88223295845091342926025390625" lon="-76.44147743470966815948486328125">
        <ele>1944.199951171875</ele>
        <time>2021-07-25T11:27:04.000Z</time>
      </trkpt>
      <trkpt lat="-11.88222323544323444366455078125" lon="-76.4414245449006557464599609375">
        <ele>1944.4000244140625</ele>
        <time>2021-07-25T11:27:06.000Z</time>
      </trkpt>
      <trkpt lat="-11.88220211304724216461181640625" lon="-76.44129286520183086395263671875">
        <ele>1945.199951171875</ele>
        <time>2021-07-25T11:27:11.000Z</time>
      </trkpt>
      <trkpt lat="-11.88219339586794376373291015625" lon="-76.44122011028230190277099609375">
        <ele>1945.800048828125</ele>
        <time>2021-07-25T11:27:14.000Z</time>
      </trkpt>
      <trkpt lat="-11.8821797333657741546630859375" lon="-76.4411424100399017333984375">
        <ele>1946.4000244140625</ele>
        <time>2021-07-25T11:27:17.000Z</time>
      </trkpt>
      <trkpt lat="-11.88215919770300388336181640625" lon="-76.4410084672272205352783203125">
        <ele>1947.5999755859375</ele>
        <time>2021-07-25T11:27:22.000Z</time>
      </trkpt>
      <trkpt lat="-11.88213321380317211151123046875" lon="-76.44085633568465709686279296875">
        <ele>1948.800048828125</ele>
        <time>2021-07-25T11:27:28.000Z</time>
      </trkpt>
      <trkpt lat="-11.8821237422525882720947265625" lon="-76.4407856762409210205078125">
        <ele>1949.4000244140625</ele>
        <time>2021-07-25T11:27:31.000Z</time>
      </trkpt>
      <trkpt lat="-11.8821163661777973175048828125" lon="-76.44071753136813640594482421875">
        <ele>1949.800048828125</ele>
        <time>2021-07-25T11:27:34.000Z</time>
      </trkpt>
      <trkpt lat="-11.882091723382472991943359375" lon="-76.44059129990637302398681640625">
        <ele>1950.800048828125</ele>
        <time>2021-07-25T11:27:39.000Z</time>
      </trkpt>
      <trkpt lat="-11.88208736479282379150390625" lon="-76.44044101238250732421875">
        <ele>1951.800048828125</ele>
        <time>2021-07-25T11:27:45.000Z</time>
      </trkpt>
      <trkpt lat="-11.88208392821252346038818359375" lon="-76.4403895474970340728759765625">
        <ele>1952.199951171875</ele>
        <time>2021-07-25T11:27:47.000Z</time>
      </trkpt>
      <trkpt lat="-11.8820757977664470672607421875" lon="-76.4402919821441173553466796875">
        <ele>1953</ele>
        <time>2021-07-25T11:27:51.000Z</time>
      </trkpt>
      <trkpt lat="-11.88208158127963542938232421875" lon="-76.4401759766042232513427734375">
        <ele>1953.800048828125</ele>
        <time>2021-07-25T11:27:56.000Z</time>
      </trkpt>
      <trkpt lat="-11.8820826709270477294921875" lon="-76.44012845121324062347412109375">
        <ele>1954.199951171875</ele>
        <time>2021-07-25T11:27:58.000Z</time>
      </trkpt>
      <trkpt lat="-11.8820880353450775146484375" lon="-76.43994555808603763580322265625">
        <ele>1955.4000244140625</ele>
        <time>2021-07-25T11:28:05.000Z</time>
      </trkpt>
      <trkpt lat="-11.88209163956344127655029296875" lon="-76.439917646348476409912109375">
        <ele>1955.5999755859375</ele>
        <time>2021-07-25T11:28:06.000Z</time>
      </trkpt>
      <trkpt lat="-11.882097087800502777099609375" lon="-76.43977708183228969573974609375">
        <ele>1956.5999755859375</ele>
        <time>2021-07-25T11:28:11.000Z</time>
      </trkpt>
      <trkpt lat="-11.88209717161953449249267578125" lon="-76.43969334661960601806640625">
        <ele>1957.4000244140625</ele>
        <time>2021-07-25T11:28:14.000Z</time>
      </trkpt>
      <trkpt lat="-11.882098428905010223388671875" lon="-76.43966224975883960723876953125">
        <ele>1957.800048828125</ele>
        <time>2021-07-25T11:28:15.000Z</time>
      </trkpt>
      <trkpt lat="-11.8820987641811370849609375" lon="-76.4394675381481647491455078125">
        <ele>1958.800048828125</ele>
        <time>2021-07-25T11:28:22.000Z</time>
      </trkpt>
      <trkpt lat="-11.88209901563823223114013671875" lon="-76.43930685706436634063720703125">
        <ele>1960</ele>
        <time>2021-07-25T11:28:28.000Z</time>
      </trkpt>
      <trkpt lat="-11.88209817744791507720947265625" lon="-76.43923200666904449462890625">
        <ele>1960.4000244140625</ele>
        <time>2021-07-25T11:28:31.000Z</time>
      </trkpt>
      <trkpt lat="-11.88209407031536102294921875" lon="-76.43917811103165149688720703125">
        <ele>1961.199951171875</ele>
        <time>2021-07-25T11:28:33.000Z</time>
      </trkpt>
      <trkpt lat="-11.88207085244357585906982421875" lon="-76.4390222914516925811767578125">
        <ele>1962</ele>
        <time>2021-07-25T11:28:39.000Z</time>
      </trkpt>
      <trkpt lat="-11.88206749968230724334716796875" lon="-76.43899387679994106292724609375">
        <ele>1962.4000244140625</ele>
        <time>2021-07-25T11:28:40.000Z</time>
      </trkpt>
      <trkpt lat="-11.882027350366115570068359375" lon="-76.43886948935687541961669921875">
        <ele>1962.800048828125</ele>
        <time>2021-07-25T11:28:45.000Z</time>
      </trkpt>
      <trkpt lat="-11.8819899670779705047607421875" lon="-76.4387946389615535736083984375">
        <ele>1963.4000244140625</ele>
        <time>2021-07-25T11:28:48.000Z</time>
      </trkpt>
      <trkpt lat="-11.88192903064191341400146484375" lon="-76.43866849131882190704345703125">
        <ele>1964</ele>
        <time>2021-07-25T11:28:53.000Z</time>
      </trkpt>
      <trkpt lat="-11.8818934075534343719482421875" lon="-76.4385958202183246612548828125">
        <ele>1964.4000244140625</ele>
        <time>2021-07-25T11:28:56.000Z</time>
      </trkpt>
      <trkpt lat="-11.8818447925150394439697265625" lon="-76.438490040600299835205078125">
        <ele>1965.4000244140625</ele>
        <time>2021-07-25T11:29:00.000Z</time>
      </trkpt>
      <trkpt lat="-11.88182375393807888031005859375" lon="-76.43844067119061946868896484375">
        <ele>1965.800048828125</ele>
        <time>2021-07-25T11:29:02.000Z</time>
      </trkpt>
      <trkpt lat="-11.88175150193274021148681640625" lon="-76.43827454186975955963134765625">
        <ele>1966.5999755859375</ele>
        <time>2021-07-25T11:29:09.000Z</time>
      </trkpt>
      <trkpt lat="-11.88167220912873744964599609375" lon="-76.43812232650816440582275390625">
        <ele>1967.5999755859375</ele>
        <time>2021-07-25T11:29:16.000Z</time>
      </trkpt>
      <trkpt lat="-11.88161236234009265899658203125" lon="-76.43799156881868839263916015625">
        <ele>1968.5999755859375</ele>
        <time>2021-07-25T11:29:22.000Z</time>
      </trkpt>
      <trkpt lat="-11.88158822245895862579345703125" lon="-76.437943875789642333984375">
        <ele>1969</ele>
        <time>2021-07-25T11:29:24.000Z</time>
      </trkpt>
      <trkpt lat="-11.881539188325405120849609375" lon="-76.43785293214023113250732421875">
        <ele>1969.800048828125</ele>
        <time>2021-07-25T11:29:28.000Z</time>
      </trkpt>
      <trkpt lat="-11.88149082474410533905029296875" lon="-76.4377681910991668701171875">
        <ele>1970.5999755859375</ele>
        <time>2021-07-25T11:29:32.000Z</time>
      </trkpt>
      <trkpt lat="-11.881468780338764190673828125" lon="-76.43772519193589687347412109375">
        <ele>1970.800048828125</ele>
        <time>2021-07-25T11:29:34.000Z</time>
      </trkpt>
      <trkpt lat="-11.881408430635929107666015625" lon="-76.4376332424581050872802734375">
        <ele>1971.5999755859375</ele>
        <time>2021-07-25T11:29:39.000Z</time>
      </trkpt>
      <trkpt lat="-11.8813918344676494598388671875" lon="-76.43761807121336460113525390625">
        <ele>1972</ele>
        <time>2021-07-25T11:29:41.000Z</time>
      </trkpt>
      <trkpt lat="-11.88137657940387725830078125" lon="-76.437603570520877838134765625">
        <ele>1972.4000244140625</ele>
        <time>2021-07-25T11:29:43.000Z</time>
      </trkpt>
      <trkpt lat="-11.88137263990938663482666015625" lon="-76.437582783401012420654296875">
        <ele>1972.5999755859375</ele>
        <time>2021-07-25T11:29:44.000Z</time>
      </trkpt>
      <trkpt lat="-11.8813633359968662261962890625" lon="-76.43753743730485439300537109375">
        <ele>1973</ele>
        <time>2021-07-25T11:29:46.000Z</time>
      </trkpt>
      <trkpt lat="-11.88135243952274322509765625" lon="-76.43751363269984722137451171875">
        <ele>1973.199951171875</ele>
        <time>2021-07-25T11:29:47.000Z</time>
      </trkpt>
      <trkpt lat="-11.88133005984127521514892578125" lon="-76.4374704658985137939453125">
        <ele>1973.4000244140625</ele>
        <time>2021-07-25T11:29:49.000Z</time>
      </trkpt>
      <trkpt lat="-11.88125789165496826171875" lon="-76.4373363554477691650390625">
        <ele>1974.199951171875</ele>
        <time>2021-07-25T11:29:55.000Z</time>
      </trkpt>
      <trkpt lat="-11.88117030076682567596435546875" lon="-76.437184810638427734375">
        <ele>1975.199951171875</ele>
        <time>2021-07-25T11:30:02.000Z</time>
      </trkpt>
      <trkpt lat="-11.88115890137851238250732421875" lon="-76.43716335296630859375">
        <ele>1975.199951171875</ele>
        <time>2021-07-25T11:30:03.000Z</time>
      </trkpt>
      <trkpt lat="-11.881099306046962738037109375" lon="-76.43704893998801708221435546875">
        <ele>1976.199951171875</ele>
        <time>2021-07-25T11:30:08.000Z</time>
      </trkpt>
      <trkpt lat="-11.88104775734245777130126953125" lon="-76.43696076236665248870849609375">
        <ele>1977</ele>
        <time>2021-07-25T11:30:12.000Z</time>
      </trkpt>
      <trkpt lat="-11.880982629954814910888671875" lon="-76.43684349954128265380859375">
        <ele>1977.4000244140625</ele>
        <time>2021-07-25T11:30:17.000Z</time>
      </trkpt>
      <trkpt lat="-11.880923621356487274169921875" lon="-76.436747610569000244140625">
        <ele>1978</ele>
        <time>2021-07-25T11:30:21.000Z</time>
      </trkpt>
      <trkpt lat="-11.88089353032410144805908203125" lon="-76.436700336635112762451171875">
        <ele>1978.4000244140625</ele>
        <time>2021-07-25T11:30:23.000Z</time>
      </trkpt>
      <trkpt lat="-11.88079294748604297637939453125" lon="-76.4365174435079097747802734375">
        <ele>1979.4000244140625</ele>
        <time>2021-07-25T11:30:30.000Z</time>
      </trkpt>
      <trkpt lat="-11.88077635131776332855224609375" lon="-76.43649372272193431854248046875">
        <ele>1979.5999755859375</ele>
        <time>2021-07-25T11:30:31.000Z</time>
      </trkpt>
      <trkpt lat="-11.88069990836083889007568359375" lon="-76.43636464141309261322021484375">
        <ele>1980.800048828125</ele>
        <time>2021-07-25T11:30:36.000Z</time>
      </trkpt>
      <trkpt lat="-11.88065598718822002410888671875" lon="-76.43628987483680248260498046875">
        <ele>1981</ele>
        <time>2021-07-25T11:30:39.000Z</time>
      </trkpt>
      <trkpt lat="-11.88055523671209812164306640625" lon="-76.436138413846492767333984375">
        <ele>1981.800048828125</ele>
        <time>2021-07-25T11:30:45.000Z</time>
      </trkpt>
      <trkpt lat="-11.8805227987468242645263671875" lon="-76.43608384765684604644775390625">
        <ele>1982</ele>
        <time>2021-07-25T11:30:47.000Z</time>
      </trkpt>
      <trkpt lat="-11.88038022257387638092041015625" lon="-76.43588854931294918060302734375">
        <ele>1982.800048828125</ele>
        <time>2021-07-25T11:30:55.000Z</time>
      </trkpt>
      <trkpt lat="-11.88036111183464527130126953125" lon="-76.435864828526973724365234375">
        <ele>1983.199951171875</ele>
        <time>2021-07-25T11:30:56.000Z</time>
      </trkpt>
      <trkpt lat="-11.88022616319358348846435546875" lon="-76.4356638304889202117919921875">
        <ele>1984</ele>
        <time>2021-07-25T11:31:03.000Z</time>
      </trkpt>
      <trkpt lat="-11.88018475659191608428955078125" lon="-76.435607336461544036865234375">
        <ele>1984.4000244140625</ele>
        <time>2021-07-25T11:31:05.000Z</time>
      </trkpt>
      <trkpt lat="-11.88003949820995330810546875" lon="-76.43540910445153713226318359375">
        <ele>1985.199951171875</ele>
        <time>2021-07-25T11:31:12.000Z</time>
      </trkpt>
      <trkpt lat="-11.8799749575555324554443359375" lon="-76.43531866371631622314453125">
        <ele>1985.5999755859375</ele>
        <time>2021-07-25T11:31:15.000Z</time>
      </trkpt>
      <trkpt lat="-11.87982433475553989410400390625" lon="-76.4351208508014678955078125">
        <ele>1986.4000244140625</ele>
        <time>2021-07-25T11:31:22.000Z</time>
      </trkpt>
      <trkpt lat="-11.879661642014980316162109375" lon="-76.4349054358899593353271484375">
        <ele>1987.4000244140625</ele>
        <time>2021-07-25T11:31:30.000Z</time>
      </trkpt>
      <trkpt lat="-11.8794582970440387725830078125" lon="-76.4346338622272014617919921875">
        <ele>1988.5999755859375</ele>
        <time>2021-07-25T11:31:40.000Z</time>
      </trkpt>
      <trkpt lat="-11.879347823560237884521484375" lon="-76.43449463881552219390869140625">
        <ele>1989.5999755859375</ele>
        <time>2021-07-25T11:31:46.000Z</time>
      </trkpt>
      <trkpt lat="-11.87932980246841907501220703125" lon="-76.43447485752403736114501953125">
        <ele>1989.800048828125</ele>
        <time>2021-07-25T11:31:47.000Z</time>
      </trkpt>
      <trkpt lat="-11.879070214927196502685546875" lon="-76.43443353474140167236328125">
        <ele>1990.800048828125</ele>
        <time>2021-07-25T11:31:54.000Z</time>
      </trkpt>
      <trkpt lat="-11.87894440256059169769287109375" lon="-76.43421552143990993499755859375">
        <ele>1991.5999755859375</ele>
        <time>2021-07-25T11:32:00.000Z</time>
      </trkpt>
      <trkpt lat="-11.87884968705475330352783203125" lon="-76.43415483646094799041748046875">
        <ele>1991.800048828125</ele>
        <time>2021-07-25T11:32:03.000Z</time>
      </trkpt>
      <trkpt lat="-11.8786869943141937255859375" lon="-76.434058360755443572998046875">
        <ele>1992.800048828125</ele>
        <time>2021-07-25T11:32:09.000Z</time>
      </trkpt>
      <trkpt lat="-11.878660507500171661376953125" lon="-76.43403816036880016326904296875">
        <ele>1993</ele>
        <time>2021-07-25T11:32:10.000Z</time>
      </trkpt>
      <trkpt lat="-11.8784685619175434112548828125" lon="-76.433920562267303466796875">
        <ele>1994</ele>
        <time>2021-07-25T11:32:17.000Z</time>
      </trkpt>
      <trkpt lat="-11.87842170707881450653076171875" lon="-76.433890052139759063720703125">
        <ele>1994.4000244140625</ele>
        <time>2021-07-25T11:32:19.000Z</time>
      </trkpt>
      <trkpt lat="-11.87832213006913661956787109375" lon="-76.4338234998285770416259765625">
        <ele>1995.199951171875</ele>
        <time>2021-07-25T11:32:23.000Z</time>
      </trkpt>
      <trkpt lat="-11.8782372213900089263916015625" lon="-76.43375384621322154998779296875">
        <ele>1995.800048828125</ele>
        <time>2021-07-25T11:32:27.000Z</time>
      </trkpt>
      <trkpt lat="-11.87819925136864185333251953125" lon="-76.43372006714344024658203125">
        <ele>1996.199951171875</ele>
        <time>2021-07-25T11:32:29.000Z</time>
      </trkpt>
      <trkpt lat="-11.87809447757899761199951171875" lon="-76.433647312223911285400390625">
        <ele>1997.199951171875</ele>
        <time>2021-07-25T11:32:34.000Z</time>
      </trkpt>
      <trkpt lat="-11.87796506099402904510498046875" lon="-76.43352552317082881927490234375">
        <ele>1998.199951171875</ele>
        <time>2021-07-25T11:32:40.000Z</time>
      </trkpt>
      <trkpt lat="-11.87794662080705165863037109375" lon="-76.4335066638886928558349609375">
        <ele>1998.4000244140625</ele>
        <time>2021-07-25T11:32:41.000Z</time>
      </trkpt>
      <trkpt lat="-11.8778580240905284881591796875" lon="-76.4334137924015522003173828125">
        <ele>1999.199951171875</ele>
        <time>2021-07-25T11:32:46.000Z</time>
      </trkpt>
      <trkpt lat="-11.8778318725526332855224609375" lon="-76.43338671885430812835693359375">
        <ele>1999.5999755859375</ele>
        <time>2021-07-25T11:32:48.000Z</time>
      </trkpt>
      <trkpt lat="-11.87774964608252048492431640625" lon="-76.4332806877791881561279296875">
        <ele>2000.4000244140625</ele>
        <time>2021-07-25T11:32:55.000Z</time>
      </trkpt>
      <trkpt lat="-11.8777329660952091217041015625" lon="-76.4332739822566509246826171875">
        <ele>2000.5999755859375</ele>
        <time>2021-07-25T11:32:56.000Z</time>
      </trkpt>
      <trkpt lat="-11.87765258364379405975341796875" lon="-76.43316811881959438323974609375">
        <ele>2001.4000244140625</ele>
        <time>2021-07-25T11:33:02.000Z</time>
      </trkpt>
      <trkpt lat="-11.87753305770456790924072265625" lon="-76.43304674886167049407958984375">
        <ele>2002.199951171875</ele>
        <time>2021-07-25T11:33:09.000Z</time>
      </trkpt>
      <trkpt lat="-11.877499781548976898193359375" lon="-76.4330104552209377288818359375">
        <ele>2002.5999755859375</ele>
        <time>2021-07-25T11:33:11.000Z</time>
      </trkpt>
      <trkpt lat="-11.8773923255503177642822265625" lon="-76.4328827150166034698486328125">
        <ele>2003.5999755859375</ele>
        <time>2021-07-25T11:33:17.000Z</time>
      </trkpt>
      <trkpt lat="-11.8773738853633403778076171875" lon="-76.4328642748296260833740234375">
        <ele>2003.800048828125</ele>
        <time>2021-07-25T11:33:18.000Z</time>
      </trkpt>
      <trkpt lat="-11.87729501165449619293212890625" lon="-76.43276662565767765045166015625">
        <ele>2004.800048828125</ele>
        <time>2021-07-25T11:33:23.000Z</time>
      </trkpt>
      <trkpt lat="-11.87722527422010898590087890625" lon="-76.43269252963364124298095703125">
        <ele>2005.4000244140625</ele>
        <time>2021-07-25T11:33:27.000Z</time>
      </trkpt>
      <trkpt lat="-11.877172552049160003662109375" lon="-76.43263511359691619873046875">
        <ele>2006</ele>
        <time>2021-07-25T11:33:30.000Z</time>
      </trkpt>
      <trkpt lat="-11.87709954567253589630126953125" lon="-76.4325405657291412353515625">
        <ele>2006.5999755859375</ele>
        <time>2021-07-25T11:33:35.000Z</time>
      </trkpt>
      <trkpt lat="-11.877066604793071746826171875" lon="-76.43250192515552043914794921875">
        <ele>2007</ele>
        <time>2021-07-25T11:33:37.000Z</time>
      </trkpt>
      <trkpt lat="-11.87697130255401134490966796875" lon="-76.4323662221431732177734375">
        <ele>2008.199951171875</ele>
        <time>2021-07-25T11:33:44.000Z</time>
      </trkpt>
      <trkpt lat="-11.87696023844182491302490234375" lon="-76.43234183080494403839111328125">
        <ele>2008.4000244140625</ele>
        <time>2021-07-25T11:33:45.000Z</time>
      </trkpt>
      <trkpt lat="-11.87688119709491729736328125" lon="-76.43219984136521816253662109375">
        <ele>2009.199951171875</ele>
        <time>2021-07-25T11:33:51.000Z</time>
      </trkpt>
      <trkpt lat="-11.87685177661478519439697265625" lon="-76.43212574534118175506591796875">
        <ele>2009.800048828125</ele>
        <time>2021-07-25T11:33:54.000Z</time>
      </trkpt>
      <trkpt lat="-11.87682218849658966064453125" lon="-76.4320309460163116455078125">
        <ele>2010.4000244140625</ele>
        <time>2021-07-25T11:33:58.000Z</time>
      </trkpt>
      <trkpt lat="-11.87679394148290157318115234375" lon="-76.43193103373050689697265625">
        <ele>2011</ele>
        <time>2021-07-25T11:34:02.000Z</time>
      </trkpt>
      <trkpt lat="-11.8767797760665416717529296875" lon="-76.431884765625">
        <ele>2011.4000244140625</ele>
        <time>2021-07-25T11:34:04.000Z</time>
      </trkpt>
      <trkpt lat="-11.87675203196704387664794921875" lon="-76.4317444525659084320068359375">
        <ele>2012.5999755859375</ele>
        <time>2021-07-25T11:34:10.000Z</time>
      </trkpt>
      <trkpt lat="-11.8767289817333221435546875" lon="-76.43154789693653583526611328125">
        <ele>2013.5999755859375</ele>
        <time>2021-07-25T11:34:18.000Z</time>
      </trkpt>
      <trkpt lat="-11.87672722153365612030029296875" lon="-76.4315241761505603790283203125">
        <ele>2013.800048828125</ele>
        <time>2021-07-25T11:34:19.000Z</time>
      </trkpt>
      <trkpt lat="-11.8767187558114528656005859375" lon="-76.4314286224544048309326171875">
        <ele>2014.5999755859375</ele>
        <time>2021-07-25T11:34:23.000Z</time>
      </trkpt>
      <trkpt lat="-11.87671313993632793426513671875" lon="-76.43135863356292247772216796875">
        <ele>2015</ele>
        <time>2021-07-25T11:34:26.000Z</time>
      </trkpt>
      <trkpt lat="-11.87670744024217128753662109375" lon="-76.4312599785625934600830078125">
        <ele>2015.800048828125</ele>
        <time>2021-07-25T11:34:30.000Z</time>
      </trkpt>
      <trkpt lat="-11.8766976334154605865478515625" lon="-76.43116526305675506591796875">
        <ele>2016.5999755859375</ele>
        <time>2021-07-25T11:34:34.000Z</time>
      </trkpt>
      <trkpt lat="-11.8766962923109531402587890625" lon="-76.431121341884136199951171875">
        <ele>2017</ele>
        <time>2021-07-25T11:34:36.000Z</time>
      </trkpt>
      <trkpt lat="-11.8766972981393337249755859375" lon="-76.4310048334300518035888671875">
        <ele>2017.5999755859375</ele>
        <time>2021-07-25T11:34:41.000Z</time>
      </trkpt>
      <trkpt lat="-11.8766781874001026153564453125" lon="-76.4309602417051792144775390625">
        <ele>2018</ele>
        <time>2021-07-25T11:34:43.000Z</time>
      </trkpt>
      <trkpt lat="-11.87664558179676532745361328125" lon="-76.4308559708297252655029296875">
        <ele>2018.4000244140625</ele>
        <time>2021-07-25T11:34:48.000Z</time>
      </trkpt>
      <trkpt lat="-11.87660761177539825439453125" lon="-76.43075061030685901641845703125">
        <ele>2019.199951171875</ele>
        <time>2021-07-25T11:34:52.000Z</time>
      </trkpt>
      <trkpt lat="-11.87657752074301242828369140625" lon="-76.4306651987135410308837890625">
        <ele>2019.800048828125</ele>
        <time>2021-07-25T11:34:55.000Z</time>
      </trkpt>
      <trkpt lat="-11.87652538530528545379638671875" lon="-76.4305538870394229888916015625">
        <ele>2020.199951171875</ele>
        <time>2021-07-25T11:34:59.000Z</time>
      </trkpt>
      <trkpt lat="-11.87647341750562191009521484375" lon="-76.4304859936237335205078125">
        <ele>2020.800048828125</ele>
        <time>2021-07-25T11:35:02.000Z</time>
      </trkpt>
      <trkpt lat="-11.8763657100498676300048828125" lon="-76.43038717098534107208251953125">
        <ele>2021.199951171875</ele>
        <time>2021-07-25T11:35:07.000Z</time>
      </trkpt>
      <trkpt lat="-11.87631701119244098663330078125" lon="-76.43035330809652805328369140625">
        <ele>2021.800048828125</ele>
        <time>2021-07-25T11:35:09.000Z</time>
      </trkpt>
      <trkpt lat="-11.876134537160396575927734375" lon="-76.43023579381406307220458984375">
        <ele>2022.4000244140625</ele>
        <time>2021-07-25T11:35:16.000Z</time>
      </trkpt>
      <trkpt lat="-11.87592373229563236236572265625" lon="-76.4300997555255889892578125">
        <ele>2023.4000244140625</ele>
        <time>2021-07-25T11:35:24.000Z</time>
      </trkpt>
      <trkpt lat="-11.87589841894805431365966796875" lon="-76.43008424900472164154052734375">
        <ele>2023.4000244140625</ele>
        <time>2021-07-25T11:35:25.000Z</time>
      </trkpt>
      <trkpt lat="-11.87571116723120212554931640625" lon="-76.429941169917583465576171875">
        <ele>2024.4000244140625</ele>
        <time>2021-07-25T11:35:33.000Z</time>
      </trkpt>
      <trkpt lat="-11.8754815869033336639404296875" lon="-76.42977864481508731842041015625">
        <ele>2025.199951171875</ele>
        <time>2021-07-25T11:35:42.000Z</time>
      </trkpt>
      <trkpt lat="-11.8754296191036701202392578125" lon="-76.42974243499338626861572265625">
        <ele>2025.800048828125</ele>
        <time>2021-07-25T11:35:44.000Z</time>
      </trkpt>
      <trkpt lat="-11.87533884309232234954833984375" lon="-76.42969700507819652557373046875">
        <ele>2025.5999755859375</ele>
        <time>2021-07-25T11:35:47.000Z</time>
      </trkpt>
      <trkpt lat="-11.8752552755177021026611328125" lon="-76.42964419908821582794189453125">
        <ele>2026.199951171875</ele>
        <time>2021-07-25T11:35:50.000Z</time>
      </trkpt>
      <trkpt lat="-11.87498227693140506744384765625" lon="-76.4294602163136005401611328125">
        <ele>2026.800048828125</ele>
        <time>2021-07-25T11:35:59.000Z</time>
      </trkpt>
      <trkpt lat="-11.87495537102222442626953125" lon="-76.42943716607987880706787109375">
        <ele>2027</ele>
        <time>2021-07-25T11:36:00.000Z</time>
      </trkpt>
      <trkpt lat="-11.87471187673509120941162109375" lon="-76.429235748946666717529296875">
        <ele>2027.5999755859375</ele>
        <time>2021-07-25T11:36:09.000Z</time>
      </trkpt>
      <trkpt lat="-11.87466242350637912750244140625" lon="-76.42917984165251255035400390625">
        <ele>2027.800048828125</ele>
        <time>2021-07-25T11:36:11.000Z</time>
      </trkpt>
      <trkpt lat="-11.87455035746097564697265625" lon="-76.42904640175402164459228515625">
        <ele>2028.4000244140625</ele>
        <time>2021-07-25T11:36:16.000Z</time>
      </trkpt>
      <trkpt lat="-11.8744576536118984222412109375" lon="-76.4289425499737262725830078125">
        <ele>2029</ele>
        <time>2021-07-25T11:36:20.000Z</time>
      </trkpt>
      <trkpt lat="-11.87439152039587497711181640625" lon="-76.428858898580074310302734375">
        <ele>2029.199951171875</ele>
        <time>2021-07-25T11:36:23.000Z</time>
      </trkpt>
      <trkpt lat="-11.87423788011074066162109375" lon="-76.42868480645120143890380859375">
        <ele>2030</ele>
        <time>2021-07-25T11:36:30.000Z</time>
      </trkpt>
      <trkpt lat="-11.87421600334346294403076171875" lon="-76.42866368405520915985107421875">
        <ele>2030.4000244140625</ele>
        <time>2021-07-25T11:36:31.000Z</time>
      </trkpt>
      <trkpt lat="-11.87408574856817722320556640625" lon="-76.4285197667777538299560546875">
        <ele>2031.199951171875</ele>
        <time>2021-07-25T11:36:37.000Z</time>
      </trkpt>
      <trkpt lat="-11.87406144104897975921630859375" lon="-76.42849646508693695068359375">
        <ele>2031.4000244140625</ele>
        <time>2021-07-25T11:36:38.000Z</time>
      </trkpt>
      <trkpt lat="-11.8738863430917263031005859375" lon="-76.42837065272033214569091796875">
        <ele>2032.4000244140625</ele>
        <time>2021-07-25T11:36:45.000Z</time>
      </trkpt>
      <trkpt lat="-11.87386245466768741607666015625" lon="-76.42835103906691074371337890625">
        <ele>2032.5999755859375</ele>
        <time>2021-07-25T11:36:46.000Z</time>
      </trkpt>
      <trkpt lat="-11.87363480217754840850830078125" lon="-76.4282367937266826629638671875">
        <ele>2033.5999755859375</ele>
        <time>2021-07-25T11:36:54.000Z</time>
      </trkpt>
      <trkpt lat="-11.87360781244933605194091796875" lon="-76.42822690308094024658203125">
        <ele>2033.5999755859375</ele>
        <time>2021-07-25T11:36:55.000Z</time>
      </trkpt>
      <trkpt lat="-11.8734367378056049346923828125" lon="-76.42817820422351360321044921875">
        <ele>2034.5999755859375</ele>
        <time>2021-07-25T11:37:01.000Z</time>
      </trkpt>
      <trkpt lat="-11.87332031317055225372314453125" lon="-76.42814199440181255340576171875">
        <ele>2035.4000244140625</ele>
        <time>2021-07-25T11:37:05.000Z</time>
      </trkpt>
      <trkpt lat="-11.87326046638190746307373046875" lon="-76.428121291100978851318359375">
        <ele>2035.5999755859375</ele>
        <time>2021-07-25T11:37:07.000Z</time>
      </trkpt>
      <trkpt lat="-11.87307388521730899810791015625" lon="-76.42807208932936191558837890625">
        <ele>2036.5999755859375</ele>
        <time>2021-07-25T11:37:14.000Z</time>
      </trkpt>
      <trkpt lat="-11.87302552163600921630859375" lon="-76.4280554093420505523681640625">
        <ele>2037.199951171875</ele>
        <time>2021-07-25T11:37:16.000Z</time>
      </trkpt>
      <trkpt lat="-11.87295251525938510894775390625" lon="-76.42802665941417217254638671875">
        <ele>2037.800048828125</ele>
        <time>2021-07-25T11:37:19.000Z</time>
      </trkpt>
      <trkpt lat="-11.87280516140162944793701171875" lon="-76.42799195833504199981689453125">
        <ele>2039</ele>
        <time>2021-07-25T11:37:25.000Z</time>
      </trkpt>
      <trkpt lat="-11.8726233579218387603759765625" lon="-76.427956335246562957763671875">
        <ele>2040</ele>
        <time>2021-07-25T11:37:32.000Z</time>
      </trkpt>
      <trkpt lat="-11.872548758983612060546875" lon="-76.42794795334339141845703125">
        <ele>2040.199951171875</ele>
        <time>2021-07-25T11:37:35.000Z</time>
      </trkpt>
      <trkpt lat="-11.87242998741567134857177734375" lon="-76.42792071215808391571044921875">
        <ele>2041.199951171875</ele>
        <time>2021-07-25T11:37:40.000Z</time>
      </trkpt>
      <trkpt lat="-11.872359998524188995361328125" lon="-76.42790503799915313720703125">
        <ele>2041.5999755859375</ele>
        <time>2021-07-25T11:37:43.000Z</time>
      </trkpt>
      <trkpt lat="-11.87225715257227420806884765625" lon="-76.427882574498653411865234375">
        <ele>2042.199951171875</ele>
        <time>2021-07-25T11:37:47.000Z</time>
      </trkpt>
      <trkpt lat="-11.8720952980220317840576171875" lon="-76.42785483039915561676025390625">
        <ele>2043.4000244140625</ele>
        <time>2021-07-25T11:37:53.000Z</time>
      </trkpt>
      <trkpt lat="-11.87189823947846889495849609375" lon="-76.42778408713638782501220703125">
        <ele>2044.5999755859375</ele>
        <time>2021-07-25T11:38:01.000Z</time>
      </trkpt>
      <trkpt lat="-11.8717239797115325927734375" lon="-76.42773899249732494354248046875">
        <ele>2045.5999755859375</ele>
        <time>2021-07-25T11:38:08.000Z</time>
      </trkpt>
      <trkpt lat="-11.871672011911869049072265625" lon="-76.42771594226360321044921875">
        <ele>2046</ele>
        <time>2021-07-25T11:38:10.000Z</time>
      </trkpt>
      <trkpt lat="-11.871577799320220947265625" lon="-76.42766774632036685943603515625">
        <ele>2046.5999755859375</ele>
        <time>2021-07-25T11:38:14.000Z</time>
      </trkpt>
      <trkpt lat="-11.87143899500370025634765625" lon="-76.427570097148418426513671875">
        <ele>2047.4000244140625</ele>
        <time>2021-07-25T11:38:20.000Z</time>
      </trkpt>
      <trkpt lat="-11.87140035443007946014404296875" lon="-76.4275275170803070068359375">
        <ele>2047.800048828125</ele>
        <time>2021-07-25T11:38:22.000Z</time>
      </trkpt>
      <trkpt lat="-11.8712996877729892730712890625" lon="-76.42740036360919475555419921875">
        <ele>2049</ele>
        <time>2021-07-25T11:38:28.000Z</time>
      </trkpt>
      <trkpt lat="-11.87116364948451519012451171875" lon="-76.427219398319721221923828125">
        <ele>2050.39990234375</ele>
        <time>2021-07-25T11:38:36.000Z</time>
      </trkpt>
      <trkpt lat="-11.87114453874528408050537109375" lon="-76.42719936557114124298095703125">
        <ele>2050.199951171875</ele>
        <time>2021-07-25T11:38:37.000Z</time>
      </trkpt>
      <trkpt lat="-11.87101562507450580596923828125" lon="-76.4270432107150554656982421875">
        <ele>2051</ele>
        <time>2021-07-25T11:38:44.000Z</time>
      </trkpt>
      <trkpt lat="-11.8709821812808513641357421875" lon="-76.4269979484379291534423828125">
        <ele>2051.39990234375</ele>
        <time>2021-07-25T11:38:46.000Z</time>
      </trkpt>
      <trkpt lat="-11.870875060558319091796875" lon="-76.4268665201961994171142578125">
        <ele>2052.199951171875</ele>
        <time>2021-07-25T11:38:52.000Z</time>
      </trkpt>
      <trkpt lat="-11.87080197036266326904296875" lon="-76.42677842639386653900146484375">
        <ele>2052.60009765625</ele>
        <time>2021-07-25T11:38:56.000Z</time>
      </trkpt>
      <trkpt lat="-11.87073181383311748504638671875" lon="-76.42669175751507282257080078125">
        <ele>2053.39990234375</ele>
        <time>2021-07-25T11:39:00.000Z</time>
      </trkpt>
      <trkpt lat="-11.87066861428320407867431640625" lon="-76.4266370236873626708984375">
        <ele>2053.800048828125</ele>
        <time>2021-07-25T11:39:03.000Z</time>
      </trkpt>
      <trkpt lat="-11.870611198246479034423828125" lon="-76.4265825413167476654052734375">
        <ele>2054</ele>
        <time>2021-07-25T11:39:06.000Z</time>
      </trkpt>
      <trkpt lat="-11.870502568781375885009765625" lon="-76.4264588244259357452392578125">
        <ele>2054.800048828125</ele>
        <time>2021-07-25T11:39:12.000Z</time>
      </trkpt>
      <trkpt lat="-11.8704658560454845428466796875" lon="-76.42641565762460231781005859375">
        <ele>2055</ele>
        <time>2021-07-25T11:39:14.000Z</time>
      </trkpt>
      <trkpt lat="-11.87036435119807720184326171875" lon="-76.426279284060001373291015625">
        <ele>2056</ele>
        <time>2021-07-25T11:39:20.000Z</time>
      </trkpt>
      <trkpt lat="-11.87032596208155155181884765625" lon="-76.426233686506748199462890625">
        <ele>2056.199951171875</ele>
        <time>2021-07-25T11:39:22.000Z</time>
      </trkpt>
      <trkpt lat="-11.87024247832596302032470703125" lon="-76.426151879131793975830078125">
        <ele>2057</ele>
        <time>2021-07-25T11:39:26.000Z</time>
      </trkpt>
      <trkpt lat="-11.870153211057186126708984375" lon="-76.42607443034648895263671875">
        <ele>2057.39990234375</ele>
        <time>2021-07-25T11:39:30.000Z</time>
      </trkpt>
      <trkpt lat="-11.870048940181732177734375" lon="-76.42601617611944675445556640625">
        <ele>2058.199951171875</ele>
        <time>2021-07-25T11:39:34.000Z</time>
      </trkpt>
      <trkpt lat="-11.86995414085686206817626953125" lon="-76.42596672289073467254638671875">
        <ele>2058.39990234375</ele>
        <time>2021-07-25T11:39:38.000Z</time>
      </trkpt>
      <trkpt lat="-11.86978675425052642822265625" lon="-76.42592347227036952972412109375">
        <ele>2059.199951171875</ele>
        <time>2021-07-25T11:39:43.000Z</time>
      </trkpt>
      <trkpt lat="-11.8695176951587200164794921875" lon="-76.42588860355317592620849609375">
        <ele>2060.39990234375</ele>
        <time>2021-07-25T11:39:50.000Z</time>
      </trkpt>
      <trkpt lat="-11.8693126738071441650390625" lon="-76.4258650504052639007568359375">
        <ele>2061.60009765625</ele>
        <time>2021-07-25T11:39:56.000Z</time>
      </trkpt>
      <trkpt lat="-11.86910656280815601348876953125" lon="-76.4258580096065998077392578125">
        <ele>2062.60009765625</ele>
        <time>2021-07-25T11:40:03.000Z</time>
      </trkpt>
      <trkpt lat="-11.8690781481564044952392578125" lon="-76.42585792578756809234619140625">
        <ele>2062.800048828125</ele>
        <time>2021-07-25T11:40:04.000Z</time>
      </trkpt>
      <trkpt lat="-11.8689084984362125396728515625" lon="-76.42583906650543212890625">
        <ele>2063.800048828125</ele>
        <time>2021-07-25T11:40:10.000Z</time>
      </trkpt>
      <trkpt lat="-11.86885326169431209564208984375" lon="-76.4258368872106075286865234375">
        <ele>2064.199951171875</ele>
        <time>2021-07-25T11:40:12.000Z</time>
      </trkpt>
      <trkpt lat="-11.86870959587395191192626953125" lon="-76.4258243143558502197265625">
        <ele>2064.800048828125</ele>
        <time>2021-07-25T11:40:17.000Z</time>
      </trkpt>
      <trkpt lat="-11.8686583824455738067626953125" lon="-76.4258197881281375885009765625">
        <ele>2065.199951171875</ele>
        <time>2021-07-25T11:40:19.000Z</time>
      </trkpt>
      <trkpt lat="-11.86855251900851726531982421875" lon="-76.42581199295818805694580078125">
        <ele>2066</ele>
        <time>2021-07-25T11:40:23.000Z</time>
      </trkpt>
      <trkpt lat="-11.86845478601753711700439453125" lon="-76.42579707317054271697998046875">
        <ele>2066.39990234375</ele>
        <time>2021-07-25T11:40:27.000Z</time>
      </trkpt>
      <trkpt lat="-11.8684045784175395965576171875" lon="-76.42579556442797183990478515625">
        <ele>2067</ele>
        <time>2021-07-25T11:40:29.000Z</time>
      </trkpt>
      <trkpt lat="-11.86828010715544223785400390625" lon="-76.425780393183231353759765625">
        <ele>2068</ele>
        <time>2021-07-25T11:40:34.000Z</time>
      </trkpt>
      <trkpt lat="-11.86813627369701862335205078125" lon="-76.42577469348907470703125">
        <ele>2069</ele>
        <time>2021-07-25T11:40:40.000Z</time>
      </trkpt>
      <trkpt lat="-11.8681128881871700286865234375" lon="-76.425773687660694122314453125">
        <ele>2069.199951171875</ele>
        <time>2021-07-25T11:40:41.000Z</time>
      </trkpt>
      <trkpt lat="-11.86794281937181949615478515625" lon="-76.42575616948306560516357421875">
        <ele>2070.199951171875</ele>
        <time>2021-07-25T11:40:48.000Z</time>
      </trkpt>
      <trkpt lat="-11.8678942881524562835693359375" lon="-76.42575097270309925079345703125">
        <ele>2070.39990234375</ele>
        <time>2021-07-25T11:40:50.000Z</time>
      </trkpt>
      <trkpt lat="-11.86774584464728832244873046875" lon="-76.425730772316455841064453125">
        <ele>2071.39990234375</ele>
        <time>2021-07-25T11:40:56.000Z</time>
      </trkpt>
      <trkpt lat="-11.86772237531840801239013671875" lon="-76.42572817392647266387939453125">
        <ele>2071.800048828125</ele>
        <time>2021-07-25T11:40:57.000Z</time>
      </trkpt>
      <trkpt lat="-11.867624223232269287109375" lon="-76.42571275122463703155517578125">
        <ele>2072.39990234375</ele>
        <time>2021-07-25T11:41:01.000Z</time>
      </trkpt>
      <trkpt lat="-11.86750017106533050537109375" lon="-76.42569263465702533721923828125">
        <ele>2073.199951171875</ele>
        <time>2021-07-25T11:41:06.000Z</time>
      </trkpt>
      <trkpt lat="-11.8674517236649990081787109375" lon="-76.42568006180226802825927734375">
        <ele>2073.800048828125</ele>
        <time>2021-07-25T11:41:08.000Z</time>
      </trkpt>
      <trkpt lat="-11.86732842586934566497802734375" lon="-76.425646282732486724853515625">
        <ele>2074.60009765625</ele>
        <time>2021-07-25T11:41:13.000Z</time>
      </trkpt>
      <trkpt lat="-11.86728064902126789093017578125" lon="-76.425631530582904815673828125">
        <ele>2075</ele>
        <time>2021-07-25T11:41:15.000Z</time>
      </trkpt>
      <trkpt lat="-11.8671379052102565765380859375" lon="-76.42559590749442577362060546875">
        <ele>2076.199951171875</ele>
        <time>2021-07-25T11:41:21.000Z</time>
      </trkpt>
      <trkpt lat="-11.867090798914432525634765625" lon="-76.4255837537348270416259765625">
        <ele>2076.60009765625</ele>
        <time>2021-07-25T11:41:23.000Z</time>
      </trkpt>
      <trkpt lat="-11.86699147336184978485107421875" lon="-76.42557059414684772491455078125">
        <ele>2077.199951171875</ele>
        <time>2021-07-25T11:41:27.000Z</time>
      </trkpt>
      <trkpt lat="-11.86689659021794795989990234375" lon="-76.42554176039993762969970703125">
        <ele>2077.60009765625</ele>
        <time>2021-07-25T11:41:31.000Z</time>
      </trkpt>
      <trkpt lat="-11.8668321333825588226318359375" lon="-76.42551728524267673492431640625">
        <ele>2078.39990234375</ele>
        <time>2021-07-25T11:41:34.000Z</time>
      </trkpt>
      <trkpt lat="-11.86671084724366664886474609375" lon="-76.4254861883819103240966796875">
        <ele>2079</ele>
        <time>2021-07-25T11:41:39.000Z</time>
      </trkpt>
      <trkpt lat="-11.8666473962366580963134765625" lon="-76.42546045593917369842529296875">
        <ele>2079.39990234375</ele>
        <time>2021-07-25T11:41:42.000Z</time>
      </trkpt>
      <trkpt lat="-11.86658411286771297454833984375" lon="-76.425435058772563934326171875">
        <ele>2080.199951171875</ele>
        <time>2021-07-25T11:41:45.000Z</time>
      </trkpt>
      <trkpt lat="-11.86653667129576206207275390625" lon="-76.42541720531880855560302734375">
        <ele>2080.39990234375</ele>
        <time>2021-07-25T11:41:47.000Z</time>
      </trkpt>
      <trkpt lat="-11.86637490056455135345458984375" lon="-76.42535819672048091888427734375">
        <ele>2081.39990234375</ele>
        <time>2021-07-25T11:41:54.000Z</time>
      </trkpt>
      <trkpt lat="-11.86615445651113986968994140625" lon="-76.4252555184066295623779296875">
        <ele>2082.39990234375</ele>
        <time>2021-07-25T11:42:03.000Z</time>
      </trkpt>
      <trkpt lat="-11.865933425724506378173828125" lon="-76.4251261018216609954833984375">
        <ele>2083.39990234375</ele>
        <time>2021-07-25T11:42:12.000Z</time>
      </trkpt>
      <trkpt lat="-11.865845583379268646240234375" lon="-76.42507203854620456695556640625">
        <ele>2083.60009765625</ele>
        <time>2021-07-25T11:42:15.000Z</time>
      </trkpt>
      <trkpt lat="-11.8656734190881252288818359375" lon="-76.424956955015659332275390625">
        <ele>2083.800048828125</ele>
        <time>2021-07-25T11:42:21.000Z</time>
      </trkpt>
      <trkpt lat="-11.86547510325908660888671875" lon="-76.42483633942902088165283203125">
        <ele>2084.39990234375</ele>
        <time>2021-07-25T11:42:28.000Z</time>
      </trkpt>
      <trkpt lat="-11.865449286997318267822265625" lon="-76.424820832908153533935546875">
        <ele>2084.60009765625</ele>
        <time>2021-07-25T11:42:29.000Z</time>
      </trkpt>
      <trkpt lat="-11.8652663938701152801513671875" lon="-76.42471253871917724609375">
        <ele>2085.39990234375</ele>
        <time>2021-07-25T11:42:35.000Z</time>
      </trkpt>
      <trkpt lat="-11.86503999866545200347900390625" lon="-76.4245705492794513702392578125">
        <ele>2085.199951171875</ele>
        <time>2021-07-25T11:42:42.000Z</time>
      </trkpt>
      <trkpt lat="-11.86471243388950824737548828125" lon="-76.4243620075285434722900390625">
        <ele>2084.800048828125</ele>
        <time>2021-07-25T11:42:51.000Z</time>
      </trkpt>
      <trkpt lat="-11.86450724489986896514892578125" lon="-76.42422278411686420440673828125">
        <ele>2084</ele>
        <time>2021-07-25T11:42:57.000Z</time>
      </trkpt>
      <trkpt lat="-11.86432267539203166961669921875" lon="-76.42409537918865680694580078125">
        <ele>2084.39990234375</ele>
        <time>2021-07-25T11:43:04.000Z</time>
      </trkpt>
      <trkpt lat="-11.86416090466082096099853515625" lon="-76.42398037947714328765869140625">
        <ele>2084.60009765625</ele>
        <time>2021-07-25T11:43:12.000Z</time>
      </trkpt>
      <trkpt lat="-11.86399159021675586700439453125" lon="-76.42387459985911846160888671875">
        <ele>2085</ele>
        <time>2021-07-25T11:43:19.000Z</time>
      </trkpt>
      <trkpt lat="-11.8639490939676761627197265625" lon="-76.42384258098900318145751953125">
        <ele>2085.800048828125</ele>
        <time>2021-07-25T11:43:21.000Z</time>
      </trkpt>
      <trkpt lat="-11.86384675092995166778564453125" lon="-76.4237628690898418426513671875">
        <ele>2086.39990234375</ele>
        <time>2021-07-25T11:43:26.000Z</time>
      </trkpt>
      <trkpt lat="-11.86379595659673213958740234375" lon="-76.42371542751789093017578125">
        <ele>2086.800048828125</ele>
        <time>2021-07-25T11:43:29.000Z</time>
      </trkpt>
      <trkpt lat="-11.863689422607421875" lon="-76.4236009307205677032470703125">
        <ele>2087.800048828125</ele>
        <time>2021-07-25T11:43:35.000Z</time>
      </trkpt>
      <trkpt lat="-11.86366955749690532684326171875" lon="-76.42358131706714630126953125">
        <ele>2088</ele>
        <time>2021-07-25T11:43:36.000Z</time>
      </trkpt>
      <trkpt lat="-11.86356277205049991607666015625" lon="-76.42347193323075771331787109375">
        <ele>2089</ele>
        <time>2021-07-25T11:43:42.000Z</time>
      </trkpt>
      <trkpt lat="-11.8635296635329723358154296875" lon="-76.4234332926571369171142578125">
        <ele>2089.60009765625</ele>
        <time>2021-07-25T11:43:44.000Z</time>
      </trkpt>
      <trkpt lat="-11.8634869158267974853515625" lon="-76.4233803190290927886962890625">
        <ele>2090</ele>
        <time>2021-07-25T11:43:47.000Z</time>
      </trkpt>
      <trkpt lat="-11.86339831911027431488037109375" lon="-76.42327462323009967803955078125">
        <ele>2091</ele>
        <time>2021-07-25T11:43:53.000Z</time>
      </trkpt>
      <trkpt lat="-11.8633854947984218597412109375" lon="-76.4232552610337734222412109375">
        <ele>2091.199951171875</ele>
        <time>2021-07-25T11:43:54.000Z</time>
      </trkpt>
      <trkpt lat="-11.8633060343563556671142578125" lon="-76.42317353747785091400146484375">
        <ele>2092.199951171875</ele>
        <time>2021-07-25T11:43:59.000Z</time>
      </trkpt>
      <trkpt lat="-11.86325264163315296173095703125" lon="-76.42312207259237766265869140625">
        <ele>2092.800048828125</ele>
        <time>2021-07-25T11:44:02.000Z</time>
      </trkpt>
      <trkpt lat="-11.8631963990628719329833984375" lon="-76.4230708591639995574951171875">
        <ele>2093.39990234375</ele>
        <time>2021-07-25T11:44:05.000Z</time>
      </trkpt>
      <trkpt lat="-11.86310327611863613128662109375" lon="-76.42299114726483821868896484375">
        <ele>2094</ele>
        <time>2021-07-25T11:44:10.000Z</time>
      </trkpt>
      <trkpt lat="-11.8630639649927616119384765625" lon="-76.4229618944227695465087890625">
        <ele>2094.39990234375</ele>
        <time>2021-07-25T11:44:12.000Z</time>
      </trkpt>
      <trkpt lat="-11.86294184066355228424072265625" lon="-76.42287857830524444580078125">
        <ele>2095.39990234375</ele>
        <time>2021-07-25T11:44:18.000Z</time>
      </trkpt>
      <trkpt lat="-11.86292239464819431304931640625" lon="-76.42286424525082111358642578125">
        <ele>2095.800048828125</ele>
        <time>2021-07-25T11:44:19.000Z</time>
      </trkpt>
      <trkpt lat="-11.86280571855604648590087890625" lon="-76.4227934181690216064453125">
        <ele>2096.60009765625</ele>
        <time>2021-07-25T11:44:25.000Z</time>
      </trkpt>
      <trkpt lat="-11.86278576962649822235107421875" lon="-76.4227815158665180206298828125">
        <ele>2096.800048828125</ele>
        <time>2021-07-25T11:44:26.000Z</time>
      </trkpt>
      <trkpt lat="-11.86266406439244747161865234375" lon="-76.422710604965686798095703125">
        <ele>2097.800048828125</ele>
        <time>2021-07-25T11:44:32.000Z</time>
      </trkpt>
      <trkpt lat="-11.86259717680513858795166015625" lon="-76.42267146147787570953369140625">
        <ele>2098.39990234375</ele>
        <time>2021-07-25T11:44:35.000Z</time>
      </trkpt>
      <trkpt lat="-11.86253280378878116607666015625" lon="-76.42264363355934619903564453125">
        <ele>2099</ele>
        <time>2021-07-25T11:44:38.000Z</time>
      </trkpt>
      <trkpt lat="-11.86241512186825275421142578125" lon="-76.42256853170692920684814453125">
        <ele>2099.800048828125</ele>
        <time>2021-07-25T11:44:44.000Z</time>
      </trkpt>
      <trkpt lat="-11.8623753078281879425048828125" lon="-76.4225466549396514892578125">
        <ele>2100.199951171875</ele>
        <time>2021-07-25T11:44:46.000Z</time>
      </trkpt>
      <trkpt lat="-11.86229039914906024932861328125" lon="-76.42249904572963714599609375">
        <ele>2100.60009765625</ele>
        <time>2021-07-25T11:44:50.000Z</time>
      </trkpt>
      <trkpt lat="-11.8622237630188465118408203125" lon="-76.42246392555534839630126953125">
        <ele>2101.199951171875</ele>
        <time>2021-07-25T11:44:53.000Z</time>
      </trkpt>
      <trkpt lat="-11.86211538501083850860595703125" lon="-76.42240516841411590576171875">
        <ele>2102.39990234375</ele>
        <time>2021-07-25T11:44:58.000Z</time>
      </trkpt>
      <trkpt lat="-11.86207548715174198150634765625" lon="-76.4223852194845676422119140625">
        <ele>2102.60009765625</ele>
        <time>2021-07-25T11:45:00.000Z</time>
      </trkpt>
      <trkpt lat="-11.86196803115308284759521484375" lon="-76.42232109792530536651611328125">
        <ele>2103.39990234375</ele>
        <time>2021-07-25T11:45:05.000Z</time>
      </trkpt>
      <trkpt lat="-11.8618891574442386627197265625" lon="-76.42226343043148517608642578125">
        <ele>2104</ele>
        <time>2021-07-25T11:45:09.000Z</time>
      </trkpt>
      <trkpt lat="-11.86182939447462558746337890625" lon="-76.4222222752869129180908203125">
        <ele>2104.60009765625</ele>
        <time>2021-07-25T11:45:12.000Z</time>
      </trkpt>
      <trkpt lat="-11.86175286769866943359375" lon="-76.42216200940310955047607421875">
        <ele>2105.199951171875</ele>
        <time>2021-07-25T11:45:16.000Z</time>
      </trkpt>
      <trkpt lat="-11.8616786040365695953369140625" lon="-76.42209528945386409759521484375">
        <ele>2105.800048828125</ele>
        <time>2021-07-25T11:45:20.000Z</time>
      </trkpt>
      <trkpt lat="-11.86159503646194934844970703125" lon="-76.4220056869089603424072265625">
        <ele>2106.800048828125</ele>
        <time>2021-07-25T11:45:25.000Z</time>
      </trkpt>
      <trkpt lat="-11.86151959933340549468994140625" lon="-76.42190149985253810882568359375">
        <ele>2107.800048828125</ele>
        <time>2021-07-25T11:45:30.000Z</time>
      </trkpt>
      <trkpt lat="-11.8614913523197174072265625" lon="-76.42185799777507781982421875">
        <ele>2108</ele>
        <time>2021-07-25T11:45:32.000Z</time>
      </trkpt>
      <trkpt lat="-11.86143259517848491668701171875" lon="-76.42176906578242778778076171875">
        <ele>2108.800048828125</ele>
        <time>2021-07-25T11:45:36.000Z</time>
      </trkpt>
      <trkpt lat="-11.86136034317314624786376953125" lon="-76.42166429199278354644775390625">
        <ele>2109.800048828125</ele>
        <time>2021-07-25T11:45:41.000Z</time>
      </trkpt>
      <trkpt lat="-11.86134659685194492340087890625" lon="-76.42164367251098155975341796875">
        <ele>2110</ele>
        <time>2021-07-25T11:45:42.000Z</time>
      </trkpt>
      <trkpt lat="-11.86125288717448711395263671875" lon="-76.42152582295238971710205078125">
        <ele>2111</ele>
        <time>2021-07-25T11:45:48.000Z</time>
      </trkpt>
      <trkpt lat="-11.86123746447265148162841796875" lon="-76.42150855623185634613037109375">
        <ele>2111.199951171875</ele>
        <time>2021-07-25T11:45:49.000Z</time>
      </trkpt>
      <trkpt lat="-11.8611612729728221893310546875" lon="-76.4213825762271881103515625">
        <ele>2112.199951171875</ele>
        <time>2021-07-25T11:45:55.000Z</time>
      </trkpt>
      <trkpt lat="-11.86114911921322345733642578125" lon="-76.421362794935703277587890625">
        <ele>2112.39990234375</ele>
        <time>2021-07-25T11:45:56.000Z</time>
      </trkpt>
      <trkpt lat="-11.8610568344593048095703125" lon="-76.42121435143053531646728515625">
        <ele>2113.39990234375</ele>
        <time>2021-07-25T11:46:03.000Z</time>
      </trkpt>
      <trkpt lat="-11.8610456027090549468994140625" lon="-76.42119138501584529876708984375">
        <ele>2113.60009765625</ele>
        <time>2021-07-25T11:46:04.000Z</time>
      </trkpt>
      <trkpt lat="-11.86098298989236354827880859375" lon="-76.4210769720375537872314453125">
        <ele>2114.60009765625</ele>
        <time>2021-07-25T11:46:09.000Z</time>
      </trkpt>
      <trkpt lat="-11.860947869718074798583984375" lon="-76.42100899480283260345458984375">
        <ele>2115</ele>
        <time>2021-07-25T11:46:12.000Z</time>
      </trkpt>
      <trkpt lat="-11.86091744340956211090087890625" lon="-76.420951075851917266845703125">
        <ele>2115.800048828125</ele>
        <time>2021-07-25T11:46:15.000Z</time>
      </trkpt>
      <trkpt lat="-11.86086765490472316741943359375" lon="-76.42083699814975261688232421875">
        <ele>2116.800048828125</ele>
        <time>2021-07-25T11:46:20.000Z</time>
      </trkpt>
      <trkpt lat="-11.86085726134479045867919921875" lon="-76.42081336118280887603759765625">
        <ele>2117</ele>
        <time>2021-07-25T11:46:21.000Z</time>
      </trkpt>
      <trkpt lat="-11.86078031547367572784423828125" lon="-76.4206538535654544830322265625">
        <ele>2118</ele>
        <time>2021-07-25T11:46:28.000Z</time>
      </trkpt>
      <trkpt lat="-11.86075718142092227935791015625" lon="-76.42058436758816242218017578125">
        <ele>2118.60009765625</ele>
        <time>2021-07-25T11:46:31.000Z</time>
      </trkpt>
      <trkpt lat="-11.86073622666299343109130859375" lon="-76.42053902149200439453125">
        <ele>2119.199951171875</ele>
        <time>2021-07-25T11:46:33.000Z</time>
      </trkpt>
      <trkpt lat="-11.8606680817902088165283203125" lon="-76.42040315084159374237060546875">
        <ele>2119.800048828125</ele>
        <time>2021-07-25T11:46:39.000Z</time>
      </trkpt>
      <trkpt lat="-11.8606499768793582916259765625" lon="-76.4203574694693088531494140625">
        <ele>2120.39990234375</ele>
        <time>2021-07-25T11:46:41.000Z</time>
      </trkpt>
      <trkpt lat="-11.860599517822265625" lon="-76.42024733126163482666015625">
        <ele>2121</ele>
        <time>2021-07-25T11:46:46.000Z</time>
      </trkpt>
      <trkpt lat="-11.86057663522660732269287109375" lon="-76.4201998896896839141845703125">
        <ele>2121.39990234375</ele>
        <time>2021-07-25T11:46:48.000Z</time>
      </trkpt>
      <trkpt lat="-11.86052030883729457855224609375" lon="-76.42007273621857166290283203125">
        <ele>2122.60009765625</ele>
        <time>2021-07-25T11:46:54.000Z</time>
      </trkpt>
      <trkpt lat="-11.86050673015415668487548828125" lon="-76.42003032378852367401123046875">
        <ele>2123</ele>
        <time>2021-07-25T11:46:56.000Z</time>
      </trkpt>
      <trkpt lat="-11.86048828996717929840087890625" lon="-76.41998472623527050018310546875">
        <ele>2123.60009765625</ele>
        <time>2021-07-25T11:46:59.000Z</time>
      </trkpt>
      <trkpt lat="-11.860450319945812225341796875" lon="-76.41993493773043155670166015625">
        <ele>2124</ele>
        <time>2021-07-25T11:47:13.000Z</time>
      </trkpt>
      <trkpt lat="-11.86043280176818370819091796875" lon="-76.41989805735647678375244140625">
        <ele>2124.39990234375</ele>
        <time>2021-07-25T11:47:19.000Z</time>
      </trkpt>
      <trkpt lat="-11.860421486198902130126953125" lon="-76.41987039707601070404052734375">
        <ele>2124.39990234375</ele>
        <time>2021-07-25T11:47:21.000Z</time>
      </trkpt>
      <trkpt lat="-11.86040715314447879791259765625" lon="-76.4198371209204196929931640625">
        <ele>2124.800048828125</ele>
        <time>2021-07-25T11:47:23.000Z</time>
      </trkpt>
      <trkpt lat="-11.86036507599055767059326171875" lon="-76.41975103877484798431396484375">
        <ele>2125.199951171875</ele>
        <time>2021-07-25T11:47:27.000Z</time>
      </trkpt>
      <trkpt lat="-11.86031989753246307373046875" lon="-76.4196646213531494140625">
        <ele>2126</ele>
        <time>2021-07-25T11:47:31.000Z</time>
      </trkpt>
      <trkpt lat="-11.860253512859344482421875" lon="-76.419542245566844940185546875">
        <ele>2126.800048828125</ele>
        <time>2021-07-25T11:47:37.000Z</time>
      </trkpt>
      <trkpt lat="-11.86024119146168231964111328125" lon="-76.41951969824731349945068359375">
        <ele>2127</ele>
        <time>2021-07-25T11:47:38.000Z</time>
      </trkpt>
      <trkpt lat="-11.860162317752838134765625" lon="-76.41940369270741939544677734375">
        <ele>2127.800048828125</ele>
        <time>2021-07-25T11:47:44.000Z</time>
      </trkpt>
      <trkpt lat="-11.86015351675450801849365234375" lon="-76.41938491724431514739990234375">
        <ele>2128</ele>
        <time>2021-07-25T11:47:45.000Z</time>
      </trkpt>
      <trkpt lat="-11.86011068522930145263671875" lon="-76.41928550787270069122314453125">
        <ele>2129.199951171875</ele>
        <time>2021-07-25T11:47:50.000Z</time>
      </trkpt>
      <trkpt lat="-11.86008327640593051910400390625" lon="-76.4192265830934047698974609375">
        <ele>2129.60009765625</ele>
        <time>2021-07-25T11:47:53.000Z</time>
      </trkpt>
      <trkpt lat="-11.86002225615084171295166015625" lon="-76.41909473575651645660400390625">
        <ele>2130.39990234375</ele>
        <time>2021-07-25T11:47:59.000Z</time>
      </trkpt>
      <trkpt lat="-11.8600032292306423187255859375" lon="-76.4190485514700412750244140625">
        <ele>2130.60009765625</ele>
        <time>2021-07-25T11:48:01.000Z</time>
      </trkpt>
      <trkpt lat="-11.8599710427224636077880859375" lon="-76.418961547315120697021484375">
        <ele>2131.39990234375</ele>
        <time>2021-07-25T11:48:05.000Z</time>
      </trkpt>
      <trkpt lat="-11.859920918941497802734375" lon="-76.418842189013957977294921875">
        <ele>2132.199951171875</ele>
        <time>2021-07-25T11:48:10.000Z</time>
      </trkpt>
      <trkpt lat="-11.85989803634583950042724609375" lon="-76.4187964238226413726806640625">
        <ele>2132.39990234375</ele>
        <time>2021-07-25T11:48:12.000Z</time>
      </trkpt>
      <trkpt lat="-11.8598386086523532867431640625" lon="-76.4186346530914306640625">
        <ele>2133.39990234375</ele>
        <time>2021-07-25T11:48:19.000Z</time>
      </trkpt>
      <trkpt lat="-11.859801895916461944580078125" lon="-76.418537087738513946533203125">
        <ele>2133.60009765625</ele>
        <time>2021-07-25T11:48:23.000Z</time>
      </trkpt>
      <trkpt lat="-11.85974280349910259246826171875" lon="-76.418387889862060546875">
        <ele>2134.39990234375</ele>
        <time>2021-07-25T11:48:29.000Z</time>
      </trkpt>
      <trkpt lat="-11.8597048334777355194091796875" lon="-76.4182913303375244140625">
        <ele>2134.800048828125</ele>
        <time>2021-07-25T11:48:33.000Z</time>
      </trkpt>
      <trkpt lat="-11.859670467674732208251953125" lon="-76.41820273362100124359130859375">
        <ele>2135.39990234375</ele>
        <time>2021-07-25T11:48:37.000Z</time>
      </trkpt>
      <trkpt lat="-11.85963400639593601226806640625" lon="-76.41811355017125606536865234375">
        <ele>2136</ele>
        <time>2021-07-25T11:48:41.000Z</time>
      </trkpt>
      <trkpt lat="-11.859586648643016815185546875" lon="-76.41802084632217884063720703125">
        <ele>2136.60009765625</ele>
        <time>2021-07-25T11:48:45.000Z</time>
      </trkpt>
      <trkpt lat="-11.8595351837575435638427734375" lon="-76.4178921841084957122802734375">
        <ele>2136.800048828125</ele>
        <time>2021-07-25T11:48:51.000Z</time>
      </trkpt>
      <trkpt lat="-11.85949511826038360595703125" lon="-76.41779822297394275665283203125">
        <ele>2137</ele>
        <time>2021-07-25T11:48:55.000Z</time>
      </trkpt>
      <trkpt lat="-11.8594456650316715240478515625" lon="-76.4176893420517444610595703125">
        <ele>2137.39990234375</ele>
        <time>2021-07-25T11:49:00.000Z</time>
      </trkpt>
      <trkpt lat="-11.85938657261431217193603515625" lon="-76.4175510406494140625">
        <ele>2138.199951171875</ele>
        <time>2021-07-25T11:49:06.000Z</time>
      </trkpt>
      <trkpt lat="-11.85937131755053997039794921875" lon="-76.41751156188547611236572265625">
        <ele>2138.800048828125</ele>
        <time>2021-07-25T11:49:08.000Z</time>
      </trkpt>
      <trkpt lat="-11.8592713214457035064697265625" lon="-76.41729463823139667510986328125">
        <ele>2139</ele>
        <time>2021-07-25T11:49:17.000Z</time>
      </trkpt>
      <trkpt lat="-11.859252043068408966064453125" lon="-76.4172451011836528778076171875">
        <ele>2139.199951171875</ele>
        <time>2021-07-25T11:49:19.000Z</time>
      </trkpt>
      <trkpt lat="-11.8591690622270107269287109375" lon="-76.41707134433090686798095703125">
        <ele>2140</ele>
        <time>2021-07-25T11:49:26.000Z</time>
      </trkpt>
      <trkpt lat="-11.85913092456758022308349609375" lon="-76.4170038700103759765625">
        <ele>2140.39990234375</ele>
        <time>2021-07-25T11:49:29.000Z</time>
      </trkpt>
      <trkpt lat="-11.85904123820364475250244140625" lon="-76.416839919984340667724609375">
        <ele>2140.800048828125</ele>
        <time>2021-07-25T11:49:36.000Z</time>
      </trkpt>
      <trkpt lat="-11.85899128206074237823486328125" lon="-76.41677294857800006866455078125">
        <ele>2141.39990234375</ele>
        <time>2021-07-25T11:49:39.000Z</time>
      </trkpt>
      <trkpt lat="-11.85893696732819080352783203125" lon="-76.4166945777833461761474609375">
        <ele>2141.39990234375</ele>
        <time>2021-07-25T11:49:43.000Z</time>
      </trkpt>
      <trkpt lat="-11.85883722268044948577880859375" lon="-76.41654764302074909210205078125">
        <ele>2142</ele>
        <time>2021-07-25T11:49:50.000Z</time>
      </trkpt>
      <trkpt lat="-11.8587583489716053009033203125" lon="-76.41644756309688091278076171875">
        <ele>2142.39990234375</ele>
        <time>2021-07-25T11:49:55.000Z</time>
      </trkpt>
      <trkpt lat="-11.85871115885674953460693359375" lon="-76.4163841120898723602294921875">
        <ele>2142.60009765625</ele>
        <time>2021-07-25T11:49:58.000Z</time>
      </trkpt>
      <trkpt lat="-11.8586131744086742401123046875" lon="-76.41616995446383953094482421875">
        <ele>2143.60009765625</ele>
        <time>2021-07-25T11:50:07.000Z</time>
      </trkpt>
      <trkpt lat="-11.85860588215291500091552734375" lon="-76.41614631749689579010009765625">
        <ele>2143.800048828125</ele>
        <time>2021-07-25T11:50:08.000Z</time>
      </trkpt>
      <trkpt lat="-11.85858450829982757568359375" lon="-76.41605545766651630401611328125">
        <ele>2144.60009765625</ele>
        <time>2021-07-25T11:50:12.000Z</time>
      </trkpt>
      <trkpt lat="-11.85856715776026248931884765625" lon="-76.41596845351159572601318359375">
        <ele>2145.199951171875</ele>
        <time>2021-07-25T11:50:16.000Z</time>
      </trkpt>
      <trkpt lat="-11.858561038970947265625" lon="-76.41592168249189853668212890625">
        <ele>2145.800048828125</ele>
        <time>2021-07-25T11:50:18.000Z</time>
      </trkpt>
      <trkpt lat="-11.85855056159198284149169921875" lon="-76.41578438691794872283935546875">
        <ele>2146.800048828125</ele>
        <time>2021-07-25T11:50:24.000Z</time>
      </trkpt>
      <trkpt lat="-11.8585323728621006011962890625" lon="-76.4156351052224636077880859375">
        <ele>2147.800048828125</ele>
        <time>2021-07-25T11:50:30.000Z</time>
      </trkpt>
      <trkpt lat="-11.8585236556828022003173828125" lon="-76.41556327231228351593017578125">
        <ele>2148.39990234375</ele>
        <time>2021-07-25T11:50:33.000Z</time>
      </trkpt>
      <trkpt lat="-11.85852189548313617706298828125" lon="-76.41552203334867954254150390625">
        <ele>2148.800048828125</ele>
        <time>2021-07-25T11:50:35.000Z</time>
      </trkpt>
      <trkpt lat="-11.85850295238196849822998046875" lon="-76.4153636991977691650390625">
        <ele>2150</ele>
        <time>2021-07-25T11:50:42.000Z</time>
      </trkpt>
      <trkpt lat="-11.858466826379299163818359375" lon="-76.41521458514034748077392578125">
        <ele>2151</ele>
        <time>2021-07-25T11:50:49.000Z</time>
      </trkpt>
      <trkpt lat="-11.8584539182484149932861328125" lon="-76.415170244872570037841796875">
        <ele>2151.199951171875</ele>
        <time>2021-07-25T11:50:51.000Z</time>
      </trkpt>
      <trkpt lat="-11.8584059737622737884521484375" lon="-76.41506102867424488067626953125">
        <ele>2152.199951171875</ele>
        <time>2021-07-25T11:50:56.000Z</time>
      </trkpt>
      <trkpt lat="-11.858364902436733245849609375" lon="-76.41500285826623439788818359375">
        <ele>2152.800048828125</ele>
        <time>2021-07-25T11:50:59.000Z</time>
      </trkpt>
      <trkpt lat="-11.85833715833723545074462890625" lon="-76.414963044226169586181640625">
        <ele>2153.199951171875</ele>
        <time>2021-07-25T11:51:01.000Z</time>
      </trkpt>
      <trkpt lat="-11.8582450412213802337646484375" lon="-76.41483874060213565826416015625">
        <ele>2153.800048828125</ele>
        <time>2021-07-25T11:51:08.000Z</time>
      </trkpt>
      <trkpt lat="-11.85820355080068111419677734375" lon="-76.41478492878377437591552734375">
        <ele>2154.39990234375</ele>
        <time>2021-07-25T11:51:11.000Z</time>
      </trkpt>
      <trkpt lat="-11.858139932155609130859375" lon="-76.41471670009195804595947265625">
        <ele>2155</ele>
        <time>2021-07-25T11:51:15.000Z</time>
      </trkpt>
      <trkpt lat="-11.85809760354459285736083984375" lon="-76.41466925852000713348388671875">
        <ele>2155.60009765625</ele>
        <time>2021-07-25T11:51:18.000Z</time>
      </trkpt>
      <trkpt lat="-11.85801923274993896484375" lon="-76.41456884332001209259033203125">
        <ele>2156.60009765625</ele>
        <time>2021-07-25T11:51:24.000Z</time>
      </trkpt>
      <trkpt lat="-11.857914291322231292724609375" lon="-76.41442031599581241607666015625">
        <ele>2157.60009765625</ele>
        <time>2021-07-25T11:51:32.000Z</time>
      </trkpt>
      <trkpt lat="-11.85784027911722660064697265625" lon="-76.4142827689647674560546875">
        <ele>2158.800048828125</ele>
        <time>2021-07-25T11:51:39.000Z</time>
      </trkpt>
      <trkpt lat="-11.8578189052641391754150390625" lon="-76.4142373390495777130126953125">
        <ele>2159.199951171875</ele>
        <time>2021-07-25T11:51:41.000Z</time>
      </trkpt>
      <trkpt lat="-11.8577910773456096649169921875" lon="-76.4141555316746234893798828125">
        <ele>2160</ele>
        <time>2021-07-25T11:51:45.000Z</time>
      </trkpt>
      <trkpt lat="-11.85776534490287303924560546875" lon="-76.41405880451202392578125">
        <ele>2161</ele>
        <time>2021-07-25T11:51:50.000Z</time>
      </trkpt>
      <trkpt lat="-11.8577630817890167236328125" lon="-76.41403994522988796234130859375">
        <ele>2161.199951171875</ele>
        <time>2021-07-25T11:51:51.000Z</time>
      </trkpt>
      <trkpt lat="-11.85774229466915130615234375" lon="-76.4139329083263874053955078125">
        <ele>2162.199951171875</ele>
        <time>2021-07-25T11:51:57.000Z</time>
      </trkpt>
      <trkpt lat="-11.8577377684414386749267578125" lon="-76.41381447203457355499267578125">
        <ele>2163.39990234375</ele>
        <time>2021-07-25T11:52:03.000Z</time>
      </trkpt>
      <trkpt lat="-11.8577203340828418731689453125" lon="-76.41377373598515987396240234375">
        <ele>2163.800048828125</ele>
        <time>2021-07-25T11:52:05.000Z</time>
      </trkpt>
      <trkpt lat="-11.85769736766815185546875" lon="-76.41370936296880245208740234375">
        <ele>2164.39990234375</ele>
        <time>2021-07-25T11:52:08.000Z</time>
      </trkpt>
      <trkpt lat="-11.85769611038267612457275390625" lon="-76.41359545290470123291015625">
        <ele>2165.199951171875</ele>
        <time>2021-07-25T11:52:13.000Z</time>
      </trkpt>
      <trkpt lat="-11.85769678093492984771728515625" lon="-76.41357542015612125396728515625">
        <ele>2165.39990234375</ele>
        <time>2021-07-25T11:52:14.000Z</time>
      </trkpt>
      <trkpt lat="-11.85768990777432918548583984375" lon="-76.4134524576365947723388671875">
        <ele>2166.39990234375</ele>
        <time>2021-07-25T11:52:20.000Z</time>
      </trkpt>
      <trkpt lat="-11.8576854653656482696533203125" lon="-76.41339101828634738922119140625">
        <ele>2166.800048828125</ele>
        <time>2021-07-25T11:52:23.000Z</time>
      </trkpt>
      <trkpt lat="-11.85767951421439647674560546875" lon="-76.4133300818502902984619140625">
        <ele>2167.39990234375</ele>
        <time>2021-07-25T11:52:26.000Z</time>
      </trkpt>
      <trkpt lat="-11.8576562963426113128662109375" lon="-76.41321466304361820220947265625">
        <ele>2168.39990234375</ele>
        <time>2021-07-25T11:52:32.000Z</time>
      </trkpt>
      <trkpt lat="-11.85762226581573486328125" lon="-76.413097567856311798095703125">
        <ele>2169.60009765625</ele>
        <time>2021-07-25T11:52:38.000Z</time>
      </trkpt>
      <trkpt lat="-11.85760659165680408477783203125" lon="-76.41303881071507930755615234375">
        <ele>2170.199951171875</ele>
        <time>2021-07-25T11:52:41.000Z</time>
      </trkpt>
      <trkpt lat="-11.85758429579436779022216796875" lon="-76.41298499889671802520751953125">
        <ele>2170.60009765625</ele>
        <time>2021-07-25T11:52:44.000Z</time>
      </trkpt>
      <trkpt lat="-11.85753920115530490875244140625" lon="-76.412920542061328887939453125">
        <ele>2171.39990234375</ele>
        <time>2021-07-25T11:52:48.000Z</time>
      </trkpt>
      <trkpt lat="-11.8575127981603145599365234375" lon="-76.41288877464830875396728515625">
        <ele>2171.60009765625</ele>
        <time>2021-07-25T11:52:50.000Z</time>
      </trkpt>
      <trkpt lat="-11.8574484251439571380615234375" lon="-76.41282289288938045501708984375">
        <ele>2172.39990234375</ele>
        <time>2021-07-25T11:52:55.000Z</time>
      </trkpt>
      <trkpt lat="-11.85741313733160495758056640625" lon="-76.4127966575324535369873046875">
        <ele>2173</ele>
        <time>2021-07-25T11:52:57.000Z</time>
      </trkpt>
      <trkpt lat="-11.85730517841875553131103515625" lon="-76.41273488290607929229736328125">
        <ele>2173.800048828125</ele>
        <time>2021-07-25T11:53:03.000Z</time>
      </trkpt>
      <trkpt lat="-11.8572851456701755523681640625" lon="-76.41272868029773235321044921875">
        <ele>2174</ele>
        <time>2021-07-25T11:53:04.000Z</time>
      </trkpt>
      <trkpt lat="-11.857155896723270416259765625" lon="-76.41269012354314327239990234375">
        <ele>2175</ele>
        <time>2021-07-25T11:53:10.000Z</time>
      </trkpt>
      <trkpt lat="-11.857117004692554473876953125" lon="-76.41268341802060604095458984375">
        <ele>2175.199951171875</ele>
        <time>2021-07-25T11:53:12.000Z</time>
      </trkpt>
      <trkpt lat="-11.85697853565216064453125" lon="-76.41265265643596649169921875">
        <ele>2176</ele>
        <time>2021-07-25T11:53:19.000Z</time>
      </trkpt>
      <trkpt lat="-11.856932602822780609130859375" lon="-76.412645615637302398681640625">
        <ele>2176.60009765625</ele>
        <time>2021-07-25T11:53:21.000Z</time>
      </trkpt>
      <trkpt lat="-11.85683093033730983734130859375" lon="-76.41262072138488292694091796875">
        <ele>2177.199951171875</ele>
        <time>2021-07-25T11:53:26.000Z</time>
      </trkpt>
      <trkpt lat="-11.85678751207888126373291015625" lon="-76.41260496340692043304443359375">
        <ele>2177.39990234375</ele>
        <time>2021-07-25T11:53:28.000Z</time>
      </trkpt>
      <trkpt lat="-11.85664166696369647979736328125" lon="-76.4125649817287921905517578125">
        <ele>2178.199951171875</ele>
        <time>2021-07-25T11:53:34.000Z</time>
      </trkpt>
      <trkpt lat="-11.856536306440830230712890625" lon="-76.41254176385700702667236328125">
        <ele>2178.800048828125</ele>
        <time>2021-07-25T11:53:39.000Z</time>
      </trkpt>
      <trkpt lat="-11.85649146325886249542236328125" lon="-76.4125307835638523101806640625">
        <ele>2179.199951171875</ele>
        <time>2021-07-25T11:53:41.000Z</time>
      </trkpt>
      <trkpt lat="-11.8563473783433437347412109375" lon="-76.41248912550508975982666015625">
        <ele>2179.199951171875</ele>
        <time>2021-07-25T11:53:46.000Z</time>
      </trkpt>
      <trkpt lat="-11.8561173789203166961669921875" lon="-76.41240731813013553619384765625">
        <ele>2179.199951171875</ele>
        <time>2021-07-25T11:53:54.000Z</time>
      </trkpt>
      <trkpt lat="-11.8558682687580585479736328125" lon="-76.41226633451879024505615234375">
        <ele>2179.199951171875</ele>
        <time>2021-07-25T11:54:02.000Z</time>
      </trkpt>
      <trkpt lat="-11.85559527017176151275634765625" lon="-76.41205142252147197723388671875">
        <ele>2179.60009765625</ele>
        <time>2021-07-25T11:54:11.000Z</time>
      </trkpt>
      <trkpt lat="-11.8553586490452289581298828125" lon="-76.4117847941815853118896484375">
        <ele>2179.60009765625</ele>
        <time>2021-07-25T11:54:20.000Z</time>
      </trkpt>
      <trkpt lat="-11.8552017398178577423095703125" lon="-76.41152151860296726226806640625">
        <ele>2179.800048828125</ele>
        <time>2021-07-25T11:54:28.000Z</time>
      </trkpt>
      <trkpt lat="-11.85510006733238697052001953125" lon="-76.41122714616358280181884765625">
        <ele>2180.199951171875</ele>
        <time>2021-07-25T11:54:36.000Z</time>
      </trkpt>
      <trkpt lat="-11.8550890870392322540283203125" lon="-76.411190517246723175048828125">
        <ele>2180.199951171875</ele>
        <time>2021-07-25T11:54:37.000Z</time>
      </trkpt>
      <trkpt lat="-11.8550227023661136627197265625" lon="-76.410911567509174346923828125">
        <ele>2181</ele>
        <time>2021-07-25T11:54:45.000Z</time>
      </trkpt>
      <trkpt lat="-11.85500233434140682220458984375" lon="-76.41084459610283374786376953125">
        <ele>2181.39990234375</ele>
        <time>2021-07-25T11:54:47.000Z</time>
      </trkpt>
      <trkpt lat="-11.85495682060718536376953125" lon="-76.41065114177763462066650390625">
        <ele>2182.199951171875</ele>
        <time>2021-07-25T11:54:53.000Z</time>
      </trkpt>
      <trkpt lat="-11.8549506179988384246826171875" lon="-76.4106213860213756561279296875">
        <ele>2182.60009765625</ele>
        <time>2021-07-25T11:54:54.000Z</time>
      </trkpt>
      <trkpt lat="-11.8549103848636150360107421875" lon="-76.410413347184658050537109375">
        <ele>2183.60009765625</ele>
        <time>2021-07-25T11:55:01.000Z</time>
      </trkpt>
      <trkpt lat="-11.8548691459000110626220703125" lon="-76.4102706871926784515380859375">
        <ele>2184.60009765625</ele>
        <time>2021-07-25T11:55:06.000Z</time>
      </trkpt>
      <trkpt lat="-11.8548416532576084136962890625" lon="-76.4101851917803287506103515625">
        <ele>2185</ele>
        <time>2021-07-25T11:55:09.000Z</time>
      </trkpt>
      <trkpt lat="-11.85482849366962909698486328125" lon="-76.410098858177661895751953125">
        <ele>2185.60009765625</ele>
        <time>2021-07-25T11:55:12.000Z</time>
      </trkpt>
      <trkpt lat="-11.8547927029430866241455078125" lon="-76.40996214933693408966064453125">
        <ele>2186.60009765625</ele>
        <time>2021-07-25T11:55:17.000Z</time>
      </trkpt>
      <trkpt lat="-11.85478708706796169281005859375" lon="-76.40993616543710231781005859375">
        <ele>2186.800048828125</ele>
        <time>2021-07-25T11:55:18.000Z</time>
      </trkpt>
      <trkpt lat="-11.8547564931213855743408203125" lon="-76.409799791872501373291015625">
        <ele>2187.800048828125</ele>
        <time>2021-07-25T11:55:23.000Z</time>
      </trkpt>
      <trkpt lat="-11.8547417409718036651611328125" lon="-76.40969820320606231689453125">
        <ele>2188.39990234375</ele>
        <time>2021-07-25T11:55:27.000Z</time>
      </trkpt>
      <trkpt lat="-11.85473511926829814910888671875" lon="-76.40964598394930362701416015625">
        <ele>2188.800048828125</ele>
        <time>2021-07-25T11:55:29.000Z</time>
      </trkpt>
      <trkpt lat="-11.85469790361821651458740234375" lon="-76.4095022343099117279052734375">
        <ele>2189.800048828125</ele>
        <time>2021-07-25T11:55:36.000Z</time>
      </trkpt>
      <trkpt lat="-11.8546599335968494415283203125" lon="-76.4093904197216033935546875">
        <ele>2190.800048828125</ele>
        <time>2021-07-25T11:55:41.000Z</time>
      </trkpt>
      <trkpt lat="-11.854654066264629364013671875" lon="-76.409365944564342498779296875">
        <ele>2191</ele>
        <time>2021-07-25T11:55:42.000Z</time>
      </trkpt>
      <trkpt lat="-11.8546240590512752532958984375" lon="-76.40920735895633697509765625">
        <ele>2192</ele>
        <time>2021-07-25T11:55:49.000Z</time>
      </trkpt>
      <trkpt lat="-11.854619197547435760498046875" lon="-76.40916234813630580902099609375">
        <ele>2192.199951171875</ele>
        <time>2021-07-25T11:55:51.000Z</time>
      </trkpt>
      <trkpt lat="-11.8546036072075366973876953125" lon="-76.40902840532362461090087890625">
        <ele>2193.199951171875</ele>
        <time>2021-07-25T11:55:57.000Z</time>
      </trkpt>
      <trkpt lat="-11.85460587032139301300048828125" lon="-76.4089827239513397216796875">
        <ele>2193.39990234375</ele>
        <time>2021-07-25T11:55:59.000Z</time>
      </trkpt>
      <trkpt lat="-11.85461022891104221343994140625" lon="-76.4088678918778896331787109375">
        <ele>2194.199951171875</ele>
        <time>2021-07-25T11:56:04.000Z</time>
      </trkpt>
      <trkpt lat="-11.85461240820586681365966796875" lon="-76.40882246196269989013671875">
        <ele>2194.60009765625</ele>
        <time>2021-07-25T11:56:06.000Z</time>
      </trkpt>
      <trkpt lat="-11.8546143360435962677001953125" lon="-76.40873302705585956573486328125">
        <ele>2195.60009765625</ele>
        <time>2021-07-25T11:56:10.000Z</time>
      </trkpt>
      <trkpt lat="-11.85461810790002346038818359375" lon="-76.4086412452161312103271484375">
        <ele>2196</ele>
        <time>2021-07-25T11:56:14.000Z</time>
      </trkpt>
      <trkpt lat="-11.854611150920391082763671875" lon="-76.40854828990995883941650390625">
        <ele>2196.60009765625</ele>
        <time>2021-07-25T11:56:18.000Z</time>
      </trkpt>
      <trkpt lat="-11.854599751532077789306640625" lon="-76.40843622386455535888671875">
        <ele>2197.39990234375</ele>
        <time>2021-07-25T11:56:23.000Z</time>
      </trkpt>
      <trkpt lat="-11.85459581203758716583251953125" lon="-76.4083894528448581695556640625">
        <ele>2197.60009765625</ele>
        <time>2021-07-25T11:56:25.000Z</time>
      </trkpt>
      <trkpt lat="-11.8545814789831638336181640625" lon="-76.4082580246031284332275390625">
        <ele>2198.800048828125</ele>
        <time>2021-07-25T11:56:31.000Z</time>
      </trkpt>
      <trkpt lat="-11.85454820282757282257080078125" lon="-76.40810689888894557952880859375">
        <ele>2199.800048828125</ele>
        <time>2021-07-25T11:56:38.000Z</time>
      </trkpt>
      <trkpt lat="-11.85453697107732295989990234375" lon="-76.40806599520146846771240234375">
        <ele>2199.800048828125</ele>
        <time>2021-07-25T11:56:40.000Z</time>
      </trkpt>
      <trkpt lat="-11.854470670223236083984375" lon="-76.40794630162417888641357421875">
        <ele>2200.800048828125</ele>
        <time>2021-07-25T11:56:47.000Z</time>
      </trkpt>
      <trkpt lat="-11.8544574268162250518798828125" lon="-76.40792660415172576904296875">
        <ele>2201</ele>
        <time>2021-07-25T11:56:48.000Z</time>
      </trkpt>
      <trkpt lat="-11.85438861139118671417236328125" lon="-76.40781202353537082672119140625">
        <ele>2202</ele>
        <time>2021-07-25T11:56:54.000Z</time>
      </trkpt>
      <trkpt lat="-11.85436447151005268096923828125" lon="-76.4077730476856231689453125">
        <ele>2202.199951171875</ele>
        <time>2021-07-25T11:56:56.000Z</time>
      </trkpt>
      <trkpt lat="-11.8543206341564655303955078125" lon="-76.4076912403106689453125">
        <ele>2203</ele>
        <time>2021-07-25T11:57:00.000Z</time>
      </trkpt>
      <trkpt lat="-11.85426883399486541748046875" lon="-76.4076132886111736297607421875">
        <ele>2203.60009765625</ele>
        <time>2021-07-25T11:57:04.000Z</time>
      </trkpt>
      <trkpt lat="-11.85423991642892360687255859375" lon="-76.40755738131701946258544921875">
        <ele>2204</ele>
        <time>2021-07-25T11:57:07.000Z</time>
      </trkpt>
      <trkpt lat="-11.8542099930346012115478515625" lon="-76.40747389756143093109130859375">
        <ele>2204.60009765625</ele>
        <time>2021-07-25T11:57:11.000Z</time>
      </trkpt>
      <trkpt lat="-11.85418694280087947845458984375" lon="-76.40738538466393947601318359375">
        <ele>2205.199951171875</ele>
        <time>2021-07-25T11:57:15.000Z</time>
      </trkpt>
      <trkpt lat="-11.85417336411774158477783203125" lon="-76.40732168219983577728271484375">
        <ele>2205.800048828125</ele>
        <time>2021-07-25T11:57:18.000Z</time>
      </trkpt>
      <trkpt lat="-11.85416179709136486053466796875" lon="-76.40725647099316120147705078125">
        <ele>2206.199951171875</ele>
        <time>2021-07-25T11:57:21.000Z</time>
      </trkpt>
      <trkpt lat="-11.85414805077016353607177734375" lon="-76.407127641141414642333984375">
        <ele>2207.199951171875</ele>
        <time>2021-07-25T11:57:27.000Z</time>
      </trkpt>
      <trkpt lat="-11.8541483022272586822509765625" lon="-76.40710559673607349395751953125">
        <ele>2207.39990234375</ele>
        <time>2021-07-25T11:57:28.000Z</time>
      </trkpt>
      <trkpt lat="-11.854135729372501373291015625" lon="-76.40697835944592952728271484375">
        <ele>2208.39990234375</ele>
        <time>2021-07-25T11:57:34.000Z</time>
      </trkpt>
      <trkpt lat="-11.85413740575313568115234375" lon="-76.40689571388065814971923828125">
        <ele>2208.800048828125</ele>
        <time>2021-07-25T11:57:38.000Z</time>
      </trkpt>
      <trkpt lat="-11.85412676073610782623291015625" lon="-76.4067707397043704986572265625">
        <ele>2209.39990234375</ele>
        <time>2021-07-25T11:57:44.000Z</time>
      </trkpt>
      <trkpt lat="-11.8541312031447887420654296875" lon="-76.40670896507799625396728515625">
        <ele>2210</ele>
        <time>2021-07-25T11:57:47.000Z</time>
      </trkpt>
      <trkpt lat="-11.8541523255407810211181640625" lon="-76.406642496585845947265625">
        <ele>2210.39990234375</ele>
        <time>2021-07-25T11:57:50.000Z</time>
      </trkpt>
      <trkpt lat="-11.8541660718619823455810546875" lon="-76.4065437577664852142333984375">
        <ele>2211</ele>
        <time>2021-07-25T11:57:55.000Z</time>
      </trkpt>
      <trkpt lat="-11.854175627231597900390625" lon="-76.406486593186855316162109375">
        <ele>2211.800048828125</ele>
        <time>2021-07-25T11:57:58.000Z</time>
      </trkpt>
      <trkpt lat="-11.85416825115680694580078125" lon="-76.40634032897651195526123046875">
        <ele>2212.199951171875</ele>
        <time>2021-07-25T11:58:05.000Z</time>
      </trkpt>
      <trkpt lat="-11.854164563119411468505859375" lon="-76.4062809012830257415771484375">
        <ele>2212.800048828125</ele>
        <time>2021-07-25T11:58:08.000Z</time>
      </trkpt>
      <trkpt lat="-11.85418074019253253936767578125" lon="-76.406148634850978851318359375">
        <ele>2213.800048828125</ele>
        <time>2021-07-25T11:58:14.000Z</time>
      </trkpt>
      <trkpt lat="-11.85418627224862575531005859375" lon="-76.4061276800930500030517578125">
        <ele>2214</ele>
        <time>2021-07-25T11:58:15.000Z</time>
      </trkpt>
      <trkpt lat="-11.8542183749377727508544921875" lon="-76.40594235621392726898193359375">
        <ele>2215</ele>
        <time>2021-07-25T11:58:24.000Z</time>
      </trkpt>
      <trkpt lat="-11.854226589202880859375" lon="-76.4058996923267841339111328125">
        <ele>2215</ele>
        <time>2021-07-25T11:58:26.000Z</time>
      </trkpt>
      <trkpt lat="-11.854205466806888580322265625" lon="-76.40577186830341815948486328125">
        <ele>2216</ele>
        <time>2021-07-25T11:58:32.000Z</time>
      </trkpt>
      <trkpt lat="-11.85419507324695587158203125" lon="-76.40574923716485500335693359375">
        <ele>2216.199951171875</ele>
        <time>2021-07-25T11:58:33.000Z</time>
      </trkpt>
      <trkpt lat="-11.85420320369303226470947265625" lon="-76.4056033082306385040283203125">
        <ele>2217.199951171875</ele>
        <time>2021-07-25T11:58:39.000Z</time>
      </trkpt>
      <trkpt lat="-11.8542126752436161041259765625" lon="-76.4055127836763858795166015625">
        <ele>2218.199951171875</ele>
        <time>2021-07-25T11:58:43.000Z</time>
      </trkpt>
      <trkpt lat="-11.85421695001423358917236328125" lon="-76.40530684031546115875244140625">
        <ele>2219.199951171875</ele>
        <time>2021-07-25T11:58:52.000Z</time>
      </trkpt>
      <trkpt lat="-11.85421762056648731231689453125" lon="-76.405264176428318023681640625">
        <ele>2219.60009765625</ele>
        <time>2021-07-25T11:58:54.000Z</time>
      </trkpt>
      <trkpt lat="-11.85421376489102840423583984375" lon="-76.40517541207373142242431640625">
        <ele>2220.39990234375</ele>
        <time>2021-07-25T11:58:58.000Z</time>
      </trkpt>
      <trkpt lat="-11.85422189533710479736328125" lon="-76.4050645194947719573974609375">
        <ele>2221</ele>
        <time>2021-07-25T11:59:03.000Z</time>
      </trkpt>
      <trkpt lat="-11.8542301096022129058837890625" lon="-76.4049931056797504425048828125">
        <ele>2221.39990234375</ele>
        <time>2021-07-25T11:59:06.000Z</time>
      </trkpt>
      <trkpt lat="-11.85424528084695339202880859375" lon="-76.404832340776920318603515625">
        <ele>2222.60009765625</ele>
        <time>2021-07-25T11:59:13.000Z</time>
      </trkpt>
      <trkpt lat="-11.8542520701885223388671875" lon="-76.4046497829258441925048828125">
        <ele>2223.800048828125</ele>
        <time>2021-07-25T11:59:21.000Z</time>
      </trkpt>
      <trkpt lat="-11.8542532436549663543701171875" lon="-76.40460577793419361114501953125">
        <ele>2224</ele>
        <time>2021-07-25T11:59:23.000Z</time>
      </trkpt>
      <trkpt lat="-11.85425399802625179290771484375" lon="-76.4044935442507266998291015625">
        <ele>2224.800048828125</ele>
        <time>2021-07-25T11:59:28.000Z</time>
      </trkpt>
      <trkpt lat="-11.8542441911995410919189453125" lon="-76.40442774631083011627197265625">
        <ele>2225.39990234375</ele>
        <time>2021-07-25T11:59:31.000Z</time>
      </trkpt>
      <trkpt lat="-11.85423530638217926025390625" lon="-76.4043607749044895172119140625">
        <ele>2225.800048828125</ele>
        <time>2021-07-25T11:59:34.000Z</time>
      </trkpt>
      <trkpt lat="-11.85420756228268146514892578125" lon="-76.40424988232553005218505859375">
        <ele>2226.60009765625</ele>
        <time>2021-07-25T11:59:39.000Z</time>
      </trkpt>
      <trkpt lat="-11.85415810905396938323974609375" lon="-76.40416388399899005889892578125">
        <ele>2227</ele>
        <time>2021-07-25T11:59:43.000Z</time>
      </trkpt>
      <trkpt lat="-11.85409541241824626922607421875" lon="-76.404063887894153594970703125">
        <ele>2228</ele>
        <time>2021-07-25T11:59:48.000Z</time>
      </trkpt>
      <trkpt lat="-11.85408552177250385284423828125" lon="-76.40404536388814449310302734375">
        <ele>2228</ele>
        <time>2021-07-25T11:59:49.000Z</time>
      </trkpt>
      <trkpt lat="-11.853990219533443450927734375" lon="-76.40393841080367565155029296875">
        <ele>2229.199951171875</ele>
        <time>2021-07-25T11:59:56.000Z</time>
      </trkpt>
      <trkpt lat="-11.85384512878954410552978515625" lon="-76.403836905956268310546875">
        <ele>2230.199951171875</ele>
        <time>2021-07-25T12:00:04.000Z</time>
      </trkpt>
      <trkpt lat="-11.85382484458386898040771484375" lon="-76.4038243331015110015869140625">
        <ele>2230.39990234375</ele>
        <time>2021-07-25T12:00:05.000Z</time>
      </trkpt>
      <trkpt lat="-11.8537124432623386383056640625" lon="-76.40374965034425258636474609375">
        <ele>2231.39990234375</ele>
        <time>2021-07-25T12:00:11.000Z</time>
      </trkpt>
      <trkpt lat="-11.853655278682708740234375" lon="-76.40371310524642467498779296875">
        <ele>2231.60009765625</ele>
        <time>2021-07-25T12:00:14.000Z</time>
      </trkpt>
      <trkpt lat="-11.8535608984529972076416015625" lon="-76.40365644358098506927490234375">
        <ele>2232.39990234375</ele>
        <time>2021-07-25T12:00:19.000Z</time>
      </trkpt>
      <trkpt lat="-11.85346106998622417449951171875" lon="-76.403589807450771331787109375">
        <ele>2233.199951171875</ele>
        <time>2021-07-25T12:00:24.000Z</time>
      </trkpt>
      <trkpt lat="-11.853419579565525054931640625" lon="-76.40356172807514667510986328125">
        <ele>2233.60009765625</ele>
        <time>2021-07-25T12:00:26.000Z</time>
      </trkpt>
      <trkpt lat="-11.85331187210977077484130859375" lon="-76.4034971036016941070556640625">
        <ele>2234.60009765625</ele>
        <time>2021-07-25T12:00:32.000Z</time>
      </trkpt>
      <trkpt lat="-11.85329427011311054229736328125" lon="-76.403486542403697967529296875">
        <ele>2234.800048828125</ele>
        <time>2021-07-25T12:00:33.000Z</time>
      </trkpt>
      <trkpt lat="-11.85320374555885791778564453125" lon="-76.40343734063208103179931640625">
        <ele>2235.60009765625</ele>
        <time>2021-07-25T12:00:38.000Z</time>
      </trkpt>
      <trkpt lat="-11.85314456932246685028076171875" lon="-76.4034079201519489288330078125">
        <ele>2236</ele>
        <time>2021-07-25T12:00:41.000Z</time>
      </trkpt>
      <trkpt lat="-11.85305035673081874847412109375" lon="-76.40335486270487308502197265625">
        <ele>2236.800048828125</ele>
        <time>2021-07-25T12:00:46.000Z</time>
      </trkpt>
      <trkpt lat="-11.852991767227649688720703125" lon="-76.4033177308738231658935546875">
        <ele>2237.199951171875</ele>
        <time>2021-07-25T12:00:49.000Z</time>
      </trkpt>
      <trkpt lat="-11.85286075808107852935791015625" lon="-76.4032453112304210662841796875">
        <ele>2237.800048828125</ele>
        <time>2021-07-25T12:00:56.000Z</time>
      </trkpt>
      <trkpt lat="-11.85280526988208293914794921875" lon="-76.40319745056331157684326171875">
        <ele>2238.60009765625</ele>
        <time>2021-07-25T12:00:58.000Z</time>
      </trkpt>
      <trkpt lat="-11.85268809087574481964111328125" lon="-76.40310977585613727569580078125">
        <ele>2239</ele>
        <time>2021-07-25T12:01:03.000Z</time>
      </trkpt>
      <trkpt lat="-11.85258750803768634796142578125" lon="-76.403051353991031646728515625">
        <ele>2239.60009765625</ele>
        <time>2021-07-25T12:01:08.000Z</time>
      </trkpt>
      <trkpt lat="-11.852518022060394287109375" lon="-76.40300273895263671875">
        <ele>2240.199951171875</ele>
        <time>2021-07-25T12:01:11.000Z</time>
      </trkpt>
      <trkpt lat="-11.85237728990614414215087890625" lon="-76.402877680957317352294921875">
        <ele>2240.800048828125</ele>
        <time>2021-07-25T12:01:17.000Z</time>
      </trkpt>
      <trkpt lat="-11.85229330323636531829833984375" lon="-76.40279796905815601348876953125">
        <ele>2241.199951171875</ele>
        <time>2021-07-25T12:01:21.000Z</time>
      </trkpt>
      <trkpt lat="-11.85222222469747066497802734375" lon="-76.4027222804725170135498046875">
        <ele>2241.60009765625</ele>
        <time>2021-07-25T12:01:25.000Z</time>
      </trkpt>
      <trkpt lat="-11.85209867544472217559814453125" lon="-76.4025834761559963226318359375">
        <ele>2242</ele>
        <time>2021-07-25T12:01:32.000Z</time>
      </trkpt>
      <trkpt lat="-11.85206263326108455657958984375" lon="-76.40253310091793537139892578125">
        <ele>2242.199951171875</ele>
        <time>2021-07-25T12:01:34.000Z</time>
      </trkpt>
      <trkpt lat="-11.8519589491188526153564453125" lon="-76.4023710787296295166015625">
        <ele>2242.800048828125</ele>
        <time>2021-07-25T12:01:41.000Z</time>
      </trkpt>
      <trkpt lat="-11.851888708770275115966796875" lon="-76.4022384770214557647705078125">
        <ele>2243.39990234375</ele>
        <time>2021-07-25T12:01:46.000Z</time>
      </trkpt>
      <trkpt lat="-11.85183967463672161102294921875" lon="-76.40212842263281345367431640625">
        <ele>2243.60009765625</ele>
        <time>2021-07-25T12:01:50.000Z</time>
      </trkpt>
      <trkpt lat="-11.85178535990417003631591796875" lon="-76.40194837935268878936767578125">
        <ele>2244</ele>
        <time>2021-07-25T12:01:56.000Z</time>
      </trkpt>
      <trkpt lat="-11.85168930329382419586181640625" lon="-76.401693820953369140625">
        <ele>2244.199951171875</ele>
        <time>2021-07-25T12:02:04.000Z</time>
      </trkpt>
      <trkpt lat="-11.851611100137233734130859375" lon="-76.40148402191698551177978515625">
        <ele>2244.39990234375</ele>
        <time>2021-07-25T12:02:10.000Z</time>
      </trkpt>
      <trkpt lat="-11.85157966800034046173095703125" lon="-76.40141420066356658935546875">
        <ele>2244.39990234375</ele>
        <time>2021-07-25T12:02:12.000Z</time>
      </trkpt>
      <trkpt lat="-11.85147170908749103546142578125" lon="-76.4011676050722599029541015625">
        <ele>2244.60009765625</ele>
        <time>2021-07-25T12:02:19.000Z</time>
      </trkpt>
      <trkpt lat="-11.85132569633424282073974609375" lon="-76.400818414986133575439453125">
        <ele>2244.60009765625</ele>
        <time>2021-07-25T12:02:28.000Z</time>
      </trkpt>
      <trkpt lat="-11.85123500414192676544189453125" lon="-76.40054072253406047821044921875">
        <ele>2245</ele>
        <time>2021-07-25T12:02:35.000Z</time>
      </trkpt>
      <trkpt lat="-11.851212121546268463134765625" lon="-76.40045128762722015380859375">
        <ele>2244.800048828125</ele>
        <time>2021-07-25T12:02:37.000Z</time>
      </trkpt>
      <trkpt lat="-11.85115814208984375" lon="-76.40017636120319366455078125">
        <ele>2244.800048828125</ele>
        <time>2021-07-25T12:02:43.000Z</time>
      </trkpt>
      <trkpt lat="-11.8511733971536159515380859375" lon="-76.3999277539551258087158203125">
        <ele>2245.199951171875</ele>
        <time>2021-07-25T12:02:49.000Z</time>
      </trkpt>
      <trkpt lat="-11.851198710501194000244140625" lon="-76.39980579726397991180419921875">
        <ele>2245.39990234375</ele>
        <time>2021-07-25T12:02:52.000Z</time>
      </trkpt>
      <trkpt lat="-11.8512439727783203125" lon="-76.3995116762816905975341796875">
        <ele>2245.60009765625</ele>
        <time>2021-07-25T12:02:59.000Z</time>
      </trkpt>
      <trkpt lat="-11.85132351703941822052001953125" lon="-76.39901789836585521697998046875">
        <ele>2245.800048828125</ele>
        <time>2021-07-25T12:03:10.000Z</time>
      </trkpt>
      <trkpt lat="-11.85136710293591022491455078125" lon="-76.39882712624967098236083984375">
        <ele>2246</ele>
        <time>2021-07-25T12:03:16.000Z</time>
      </trkpt>
      <trkpt lat="-11.8513772450387477874755859375" lon="-76.39880307018756866455078125">
        <ele>2246</ele>
        <time>2021-07-25T12:04:14.000Z</time>
      </trkpt>
      <trkpt lat="-11.85138386674225330352783203125" lon="-76.39878672547638416290283203125">
        <ele>2246</ele>
        <time>2021-07-25T12:04:15.000Z</time>
      </trkpt>
      <trkpt lat="-11.85141102410852909088134765625" lon="-76.3986587338149547576904296875">
        <ele>2246</ele>
        <time>2021-07-25T12:04:20.000Z</time>
      </trkpt>
      <trkpt lat="-11.85143466107547283172607421875" lon="-76.39849419705569744110107421875">
        <ele>2246.39990234375</ele>
        <time>2021-07-25T12:04:25.000Z</time>
      </trkpt>
      <trkpt lat="-11.8514553643763065338134765625" lon="-76.3983879983425140380859375">
        <ele>2246.800048828125</ele>
        <time>2021-07-25T12:04:28.000Z</time>
      </trkpt>
      <trkpt lat="-11.85149132274091243743896484375" lon="-76.39813779853284358978271484375">
        <ele>2247.39990234375</ele>
        <time>2021-07-25T12:04:35.000Z</time>
      </trkpt>
      <trkpt lat="-11.85149467550218105316162109375" lon="-76.39806018210947513580322265625">
        <ele>2247.60009765625</ele>
        <time>2021-07-25T12:04:37.000Z</time>
      </trkpt>
      <trkpt lat="-11.85145494528114795684814453125" lon="-76.3977692462503910064697265625">
        <ele>2248.39990234375</ele>
        <time>2021-07-25T12:04:45.000Z</time>
      </trkpt>
      <trkpt lat="-11.851445138454437255859375" lon="-76.39773328788578510284423828125">
        <ele>2248.60009765625</ele>
        <time>2021-07-25T12:04:46.000Z</time>
      </trkpt>
      <trkpt lat="-11.85136861167848110198974609375" lon="-76.39751066453754901885986328125">
        <ele>2249.199951171875</ele>
        <time>2021-07-25T12:04:52.000Z</time>
      </trkpt>
      <trkpt lat="-11.85133441351354122161865234375" lon="-76.39740186743438243865966796875">
        <ele>2249.39990234375</ele>
        <time>2021-07-25T12:04:55.000Z</time>
      </trkpt>
      <trkpt lat="-11.851312033832073211669921875" lon="-76.39733053743839263916015625">
        <ele>2249.60009765625</ele>
        <time>2021-07-25T12:04:57.000Z</time>
      </trkpt>
      <trkpt lat="-11.85126484371721744537353515625" lon="-76.397107578814029693603515625">
        <ele>2250.60009765625</ele>
        <time>2021-07-25T12:05:03.000Z</time>
      </trkpt>
      <trkpt lat="-11.85126073658466339111328125" lon="-76.39707212336361408233642578125">
        <ele>2250.60009765625</ele>
        <time>2021-07-25T12:05:04.000Z</time>
      </trkpt>
      <trkpt lat="-11.85124506242573261260986328125" lon="-76.3968707062304019927978515625">
        <ele>2251.800048828125</ele>
        <time>2021-07-25T12:05:10.000Z</time>
      </trkpt>
      <trkpt lat="-11.85126207768917083740234375" lon="-76.3965602405369281768798828125">
        <ele>2252.39990234375</ele>
        <time>2021-07-25T12:05:19.000Z</time>
      </trkpt>
      <trkpt lat="-11.85126350261270999908447265625" lon="-76.396527551114559173583984375">
        <ele>2253</ele>
        <time>2021-07-25T12:05:20.000Z</time>
      </trkpt>
      <trkpt lat="-11.85122746042907238006591796875" lon="-76.396321691572666168212890625">
        <ele>2254.199951171875</ele>
        <time>2021-07-25T12:05:26.000Z</time>
      </trkpt>
      <trkpt lat="-11.8511938489973545074462890625" lon="-76.39599077403545379638671875">
        <ele>2255</ele>
        <time>2021-07-25T12:05:36.000Z</time>
      </trkpt>
      <trkpt lat="-11.85117918066680431365966796875" lon="-76.39588440768420696258544921875">
        <ele>2255.39990234375</ele>
        <time>2021-07-25T12:05:39.000Z</time>
      </trkpt>
      <trkpt lat="-11.85113207437098026275634765625" lon="-76.3957790471613407135009765625">
        <ele>2255.60009765625</ele>
        <time>2021-07-25T12:05:42.000Z</time>
      </trkpt>
      <trkpt lat="-11.85101305134594440460205078125" lon="-76.39557310380041599273681640625">
        <ele>2256.60009765625</ele>
        <time>2021-07-25T12:05:49.000Z</time>
      </trkpt>
      <trkpt lat="-11.85086779296398162841796875" lon="-76.395360790193080902099609375">
        <ele>2257.60009765625</ele>
        <time>2021-07-25T12:05:57.000Z</time>
      </trkpt>
      <trkpt lat="-11.8508129753172397613525390625" lon="-76.39528577215969562530517578125">
        <ele>2257.60009765625</ele>
        <time>2021-07-25T12:06:00.000Z</time>
      </trkpt>
      <trkpt lat="-11.85068816877901554107666015625" lon="-76.39512785710394382476806640625">
        <ele>2258.39990234375</ele>
        <time>2021-07-25T12:06:06.000Z</time>
      </trkpt>
      <trkpt lat="-11.85060560703277587890625" lon="-76.39501989819109439849853515625">
        <ele>2258.800048828125</ele>
        <time>2021-07-25T12:06:10.000Z</time>
      </trkpt>
      <trkpt lat="-11.850518099963665008544921875" lon="-76.394888721406459808349609375">
        <ele>2259.39990234375</ele>
        <time>2021-07-25T12:06:15.000Z</time>
      </trkpt>
      <trkpt lat="-11.85044978745281696319580078125" lon="-76.39478587545454502105712890625">
        <ele>2259.800048828125</ele>
        <time>2021-07-25T12:06:19.000Z</time>
      </trkpt>
      <trkpt lat="-11.850340068340301513671875" lon="-76.394634582102298736572265625">
        <ele>2260.60009765625</ele>
        <time>2021-07-25T12:06:25.000Z</time>
      </trkpt>
      <trkpt lat="-11.8502701632678508758544921875" lon="-76.39453307725489139556884765625">
        <ele>2260.800048828125</ele>
        <time>2021-07-25T12:06:29.000Z</time>
      </trkpt>
      <trkpt lat="-11.85019589960575103759765625" lon="-76.39443970285356044769287109375">
        <ele>2261.39990234375</ele>
        <time>2021-07-25T12:06:33.000Z</time>
      </trkpt>
      <trkpt lat="-11.850137896835803985595703125" lon="-76.39436745084822177886962890625">
        <ele>2261.800048828125</ele>
        <time>2021-07-25T12:06:36.000Z</time>
      </trkpt>
      <trkpt lat="-11.85004762373864650726318359375" lon="-76.39424239285290241241455078125">
        <ele>2262.60009765625</ele>
        <time>2021-07-25T12:06:41.000Z</time>
      </trkpt>
      <trkpt lat="-11.8499955721199512481689453125" lon="-76.39417114667594432830810546875">
        <ele>2263.199951171875</ele>
        <time>2021-07-25T12:06:44.000Z</time>
      </trkpt>
      <trkpt lat="-11.84993295930325984954833984375" lon="-76.39407324604690074920654296875">
        <ele>2263.39990234375</ele>
        <time>2021-07-25T12:06:48.000Z</time>
      </trkpt>
      <trkpt lat="-11.84987361542880535125732421875" lon="-76.3939467631280422210693359375">
        <ele>2264.199951171875</ele>
        <time>2021-07-25T12:06:53.000Z</time>
      </trkpt>
      <trkpt lat="-11.84986372478306293487548828125" lon="-76.39392287470400333404541015625">
        <ele>2264.39990234375</ele>
        <time>2021-07-25T12:06:54.000Z</time>
      </trkpt>
      <trkpt lat="-11.849838830530643463134765625" lon="-76.39375657774507999420166015625">
        <ele>2265.199951171875</ele>
        <time>2021-07-25T12:07:00.000Z</time>
      </trkpt>
      <trkpt lat="-11.84983690269291400909423828125" lon="-76.3937325216829776763916015625">
        <ele>2265.199951171875</ele>
        <time>2021-07-25T12:07:01.000Z</time>
      </trkpt>
      <trkpt lat="-11.84980220161378383636474609375" lon="-76.39359514228999614715576171875">
        <ele>2266.199951171875</ele>
        <time>2021-07-25T12:07:06.000Z</time>
      </trkpt>
      <trkpt lat="-11.849787868559360504150390625" lon="-76.39356597326695919036865234375">
        <ele>2266.39990234375</ele>
        <time>2021-07-25T12:07:07.000Z</time>
      </trkpt>
      <trkpt lat="-11.8497333861887454986572265625" lon="-76.39339431189000606536865234375">
        <ele>2267.199951171875</ele>
        <time>2021-07-25T12:07:13.000Z</time>
      </trkpt>
      <trkpt lat="-11.8497097492218017578125" lon="-76.39331351034343242645263671875">
        <ele>2267.60009765625</ele>
        <time>2021-07-25T12:07:16.000Z</time>
      </trkpt>
      <trkpt lat="-11.849657781422138214111328125" lon="-76.39312944374978542327880859375">
        <ele>2268.60009765625</ele>
        <time>2021-07-25T12:07:23.000Z</time>
      </trkpt>
      <trkpt lat="-11.849647052586078643798828125" lon="-76.39310262165963649749755859375">
        <ele>2268.60009765625</ele>
        <time>2021-07-25T12:07:24.000Z</time>
      </trkpt>
      <trkpt lat="-11.849595420062541961669921875" lon="-76.39294571243226528167724609375">
        <ele>2269.60009765625</ele>
        <time>2021-07-25T12:07:30.000Z</time>
      </trkpt>
      <trkpt lat="-11.8495872057974338531494140625" lon="-76.39292006380856037139892578125">
        <ele>2269.800048828125</ele>
        <time>2021-07-25T12:07:31.000Z</time>
      </trkpt>
      <trkpt lat="-11.8495235033333301544189453125" lon="-76.39270850457251071929931640625">
        <ele>2270.800048828125</ele>
        <time>2021-07-25T12:07:39.000Z</time>
      </trkpt>
      <trkpt lat="-11.849511601030826568603515625" lon="-76.39268252067267894744873046875">
        <ele>2271</ele>
        <time>2021-07-25T12:07:40.000Z</time>
      </trkpt>
      <trkpt lat="-11.849487461149692535400390625" lon="-76.39251136220991611480712890625">
        <ele>2271.800048828125</ele>
        <time>2021-07-25T12:07:46.000Z</time>
      </trkpt>
      <trkpt lat="-11.84947430156171321868896484375" lon="-76.39238077215850353240966796875">
        <ele>2272.800048828125</ele>
        <time>2021-07-25T12:07:51.000Z</time>
      </trkpt>
      <trkpt lat="-11.8494737148284912109375" lon="-76.39235428534448146820068359375">
        <ele>2273</ele>
        <time>2021-07-25T12:07:52.000Z</time>
      </trkpt>
      <trkpt lat="-11.84943457134068012237548828125" lon="-76.3921751640737056732177734375">
        <ele>2274</ele>
        <time>2021-07-25T12:07:59.000Z</time>
      </trkpt>
      <trkpt lat="-11.849423758685588836669921875" lon="-76.39213065616786479949951171875">
        <ele>2274</ele>
        <time>2021-07-25T12:08:01.000Z</time>
      </trkpt>
      <trkpt lat="-11.8493893928825855255126953125" lon="-76.39201783575117588043212890625">
        <ele>2275</ele>
        <time>2021-07-25T12:08:06.000Z</time>
      </trkpt>
      <trkpt lat="-11.84934605844318866729736328125" lon="-76.39188162982463836669921875">
        <ele>2276.199951171875</ele>
        <time>2021-07-25T12:08:12.000Z</time>
      </trkpt>
      <trkpt lat="-11.84933482669293880462646484375" lon="-76.3918593339622020721435546875">
        <ele>2276.199951171875</ele>
        <time>2021-07-25T12:08:13.000Z</time>
      </trkpt>
      <trkpt lat="-11.849225945770740509033203125" lon="-76.39168323017656803131103515625">
        <ele>2277</ele>
        <time>2021-07-25T12:08:21.000Z</time>
      </trkpt>
      <trkpt lat="-11.849207840859889984130859375" lon="-76.39165976084768772125244140625">
        <ele>2277.199951171875</ele>
        <time>2021-07-25T12:08:22.000Z</time>
      </trkpt>
      <trkpt lat="-11.84907197020947933197021484375" lon="-76.39151575975120067596435546875">
        <ele>2278.199951171875</ele>
        <time>2021-07-25T12:08:29.000Z</time>
      </trkpt>
      <trkpt lat="-11.848971135914325714111328125" lon="-76.39140411280095577239990234375">
        <ele>2279</ele>
        <time>2021-07-25T12:08:35.000Z</time>
      </trkpt>
      <trkpt lat="-11.848916821181774139404296875" lon="-76.3913778774440288543701171875">
        <ele>2279.199951171875</ele>
        <time>2021-07-25T12:08:37.000Z</time>
      </trkpt>
      <trkpt lat="-11.84885856695473194122314453125" lon="-76.39129011891782283782958984375">
        <ele>2279.800048828125</ele>
        <time>2021-07-25T12:08:42.000Z</time>
      </trkpt>
      <trkpt lat="-11.84881816618144512176513671875" lon="-76.39119255356490612030029296875">
        <ele>2280.39990234375</ele>
        <time>2021-07-25T12:08:46.000Z</time>
      </trkpt>
      <trkpt lat="-11.84878631494939327239990234375" lon="-76.3911059685051441192626953125">
        <ele>2280.60009765625</ele>
        <time>2021-07-25T12:08:49.000Z</time>
      </trkpt>
      <trkpt lat="-11.84873417951166629791259765625" lon="-76.39096909202635288238525390625">
        <ele>2281.60009765625</ele>
        <time>2021-07-25T12:08:54.000Z</time>
      </trkpt>
      <trkpt lat="-11.84870417229831218719482421875" lon="-76.390862725675106048583984375">
        <ele>2282.199951171875</ele>
        <time>2021-07-25T12:08:58.000Z</time>
      </trkpt>
      <trkpt lat="-11.8486960418522357940673828125" lon="-76.390835233032703399658203125">
        <ele>2282.60009765625</ele>
        <time>2021-07-25T12:08:59.000Z</time>
      </trkpt>
      <trkpt lat="-11.848672740161418914794921875" lon="-76.39064110815525054931640625">
        <ele>2283.60009765625</ele>
        <time>2021-07-25T12:09:06.000Z</time>
      </trkpt>
      <trkpt lat="-11.84867014177143573760986328125" lon="-76.3906151242554187774658203125">
        <ele>2283.800048828125</ele>
        <time>2021-07-25T12:09:07.000Z</time>
      </trkpt>
      <trkpt lat="-11.8486450798809528350830078125" lon="-76.3904072530567646026611328125">
        <ele>2284.800048828125</ele>
        <time>2021-07-25T12:09:14.000Z</time>
      </trkpt>
      <trkpt lat="-11.8486408889293670654296875" lon="-76.39037950895726680755615234375">
        <ele>2284.800048828125</ele>
        <time>2021-07-25T12:09:15.000Z</time>
      </trkpt>
      <trkpt lat="-11.8485615961253643035888671875" lon="-76.390119753777980804443359375">
        <ele>2285.800048828125</ele>
        <time>2021-07-25T12:09:24.000Z</time>
      </trkpt>
      <trkpt lat="-11.8485451675951480865478515625" lon="-76.39009125530719757080078125">
        <ele>2286</ele>
        <time>2021-07-25T12:09:25.000Z</time>
      </trkpt>
      <trkpt lat="-11.84840091504156589508056640625" lon="-76.38992101885378360748291015625">
        <ele>2286.199951171875</ele>
        <time>2021-07-25T12:09:31.000Z</time>
      </trkpt>
      <trkpt lat="-11.8481968156993389129638671875" lon="-76.38973711989820003509521484375">
        <ele>2286.199951171875</ele>
        <time>2021-07-25T12:09:38.000Z</time>
      </trkpt>
      <trkpt lat="-11.84791962616145610809326171875" lon="-76.389503180980682373046875">
        <ele>2286</ele>
        <time>2021-07-25T12:09:46.000Z</time>
      </trkpt>
      <trkpt lat="-11.84753037057816982269287109375" lon="-76.38918341137468814849853515625">
        <ele>2284.800048828125</ele>
        <time>2021-07-25T12:09:56.000Z</time>
      </trkpt>
      <trkpt lat="-11.8472127802670001983642578125" lon="-76.3889270089566707611083984375">
        <ele>2284.800048828125</ele>
        <time>2021-07-25T12:10:04.000Z</time>
      </trkpt>
      <trkpt lat="-11.8469324894249439239501953125" lon="-76.3887870311737060546875">
        <ele>2284.199951171875</ele>
        <time>2021-07-25T12:10:10.000Z</time>
      </trkpt>
      <trkpt lat="-11.84683316387236118316650390625" lon="-76.3887513242661952972412109375">
        <ele>2283.800048828125</ele>
        <time>2021-07-25T12:10:12.000Z</time>
      </trkpt>
      <trkpt lat="-11.84645882807672023773193359375" lon="-76.3886131905019283294677734375">
        <ele>2283.39990234375</ele>
        <time>2021-07-25T12:10:20.000Z</time>
      </trkpt>
      <trkpt lat="-11.846261434257030487060546875" lon="-76.38852677308022975921630859375">
        <ele>2283.199951171875</ele>
        <time>2021-07-25T12:10:26.000Z</time>
      </trkpt>
      <trkpt lat="-11.8462295830249786376953125" lon="-76.3885112665593624114990234375">
        <ele>2283.199951171875</ele>
        <time>2021-07-25T12:10:27.000Z</time>
      </trkpt>
      <trkpt lat="-11.84596865437924861907958984375" lon="-76.3883268646895885467529296875">
        <ele>2283</ele>
        <time>2021-07-25T12:10:36.000Z</time>
      </trkpt>
      <trkpt lat="-11.8458445183932781219482421875" lon="-76.38823206536471843719482421875">
        <ele>2283</ele>
        <time>2021-07-25T12:10:41.000Z</time>
      </trkpt>
      <trkpt lat="-11.8458244018256664276123046875" lon="-76.3882251083850860595703125">
        <ele>2283.199951171875</ele>
        <time>2021-07-25T12:10:42.000Z</time>
      </trkpt>
      <trkpt lat="-11.84580135159194469451904296875" lon="-76.38821144588291645050048828125">
        <ele>2283</ele>
        <time>2021-07-25T12:10:46.000Z</time>
      </trkpt>
      <trkpt lat="-11.84576061554253101348876953125" lon="-76.38819895684719085693359375">
        <ele>2283.199951171875</ele>
        <time>2021-07-25T12:11:41.000Z</time>
      </trkpt>
      <trkpt lat="-11.8457345478236675262451171875" lon="-76.38818797655403614044189453125">
        <ele>2283</ele>
        <time>2021-07-25T12:11:42.000Z</time>
      </trkpt>
      <trkpt lat="-11.84570588171482086181640625" lon="-76.3881719671189785003662109375">
        <ele>2283</ele>
        <time>2021-07-25T12:11:43.000Z</time>
      </trkpt>
      <trkpt lat="-11.84556179679930210113525390625" lon="-76.3880583085119724273681640625">
        <ele>2283.199951171875</ele>
        <time>2021-07-25T12:11:48.000Z</time>
      </trkpt>
      <trkpt lat="-11.84533414430916309356689453125" lon="-76.38788606040179729461669921875">
        <ele>2284</ele>
        <time>2021-07-25T12:11:55.000Z</time>
      </trkpt>
      <trkpt lat="-11.84504748322069644927978515625" lon="-76.38768724165856838226318359375">
        <ele>2284.39990234375</ele>
        <time>2021-07-25T12:12:03.000Z</time>
      </trkpt>
      <trkpt lat="-11.84483760036528110504150390625" lon="-76.387538127601146697998046875">
        <ele>2284.800048828125</ele>
        <time>2021-07-25T12:12:09.000Z</time>
      </trkpt>
      <trkpt lat="-11.84470147825777530670166015625" lon="-76.3874365389347076416015625">
        <ele>2285</ele>
        <time>2021-07-25T12:12:13.000Z</time>
      </trkpt>
      <trkpt lat="-11.84450198896229267120361328125" lon="-76.38727753423154354095458984375">
        <ele>2285.199951171875</ele>
        <time>2021-07-25T12:12:20.000Z</time>
      </trkpt>
      <trkpt lat="-11.8443091213703155517578125" lon="-76.38712699525058269500732421875">
        <ele>2285.60009765625</ele>
        <time>2021-07-25T12:12:27.000Z</time>
      </trkpt>
      <trkpt lat="-11.8440578319132328033447265625" lon="-76.38686967082321643829345703125">
        <ele>2286</ele>
        <time>2021-07-25T12:12:36.000Z</time>
      </trkpt>
      <trkpt lat="-11.84390435926616191864013671875" lon="-76.38663916848599910736083984375">
        <ele>2286.39990234375</ele>
        <time>2021-07-25T12:12:43.000Z</time>
      </trkpt>
      <trkpt lat="-11.8437637947499752044677734375" lon="-76.38636491261422634124755859375">
        <ele>2286.800048828125</ele>
        <time>2021-07-25T12:12:51.000Z</time>
      </trkpt>
      <trkpt lat="-11.8437171913683414459228515625" lon="-76.386231221258640289306640625">
        <ele>2287</ele>
        <time>2021-07-25T12:12:55.000Z</time>
      </trkpt>
      <trkpt lat="-11.8436518125236034393310546875" lon="-76.386057548224925994873046875">
        <ele>2287.199951171875</ele>
        <time>2021-07-25T12:13:00.000Z</time>
      </trkpt>
      <trkpt lat="-11.8435525707900524139404296875" lon="-76.3857261277735233306884765625">
        <ele>2287.800048828125</ele>
        <time>2021-07-25T12:13:09.000Z</time>
      </trkpt>
      <trkpt lat="-11.84352549724280834197998046875" lon="-76.38565362431108951568603515625">
        <ele>2288</ele>
        <time>2021-07-25T12:13:11.000Z</time>
      </trkpt>
      <trkpt lat="-11.8434374034404754638671875" lon="-76.3853643648326396942138671875">
        <ele>2288.800048828125</ele>
        <time>2021-07-25T12:13:19.000Z</time>
      </trkpt>
      <trkpt lat="-11.84341787360608577728271484375" lon="-76.385293118655681610107421875">
        <ele>2289</ele>
        <time>2021-07-25T12:13:21.000Z</time>
      </trkpt>
      <trkpt lat="-11.84334444813430309295654296875" lon="-76.3850869238376617431640625">
        <ele>2289.39990234375</ele>
        <time>2021-07-25T12:13:27.000Z</time>
      </trkpt>
      <trkpt lat="-11.84328275732696056365966796875" lon="-76.38487360440194606781005859375">
        <ele>2290.199951171875</ele>
        <time>2021-07-25T12:13:33.000Z</time>
      </trkpt>
      <trkpt lat="-11.84325643815100193023681640625" lon="-76.384769417345523834228515625">
        <ele>2290.60009765625</ele>
        <time>2021-07-25T12:13:36.000Z</time>
      </trkpt>
      <trkpt lat="-11.84319105930626392364501953125" lon="-76.38456665910780429840087890625">
        <ele>2291.199951171875</ele>
        <time>2021-07-25T12:13:42.000Z</time>
      </trkpt>
      <trkpt lat="-11.84315920807421207427978515625" lon="-76.384460292756557464599609375">
        <ele>2291.39990234375</ele>
        <time>2021-07-25T12:13:45.000Z</time>
      </trkpt>
      <trkpt lat="-11.84309114702045917510986328125" lon="-76.3842492364346981048583984375">
        <ele>2292.199951171875</ele>
        <time>2021-07-25T12:13:51.000Z</time>
      </trkpt>
      <trkpt lat="-11.8430701084434986114501953125" lon="-76.3841805048286914825439453125">
        <ele>2292.60009765625</ele>
        <time>2021-07-25T12:13:53.000Z</time>
      </trkpt>
      <trkpt lat="-11.8430097587406635284423828125" lon="-76.383978165686130523681640625">
        <ele>2293.39990234375</ele>
        <time>2021-07-25T12:13:59.000Z</time>
      </trkpt>
      <trkpt lat="-11.84298402629792690277099609375" lon="-76.38387347571551799774169921875">
        <ele>2293.60009765625</ele>
        <time>2021-07-25T12:14:02.000Z</time>
      </trkpt>
      <trkpt lat="-11.8429224193096160888671875" lon="-76.38366929255425930023193359375">
        <ele>2294.39990234375</ele>
        <time>2021-07-25T12:14:08.000Z</time>
      </trkpt>
      <trkpt lat="-11.84287120588123798370361328125" lon="-76.3835392892360687255859375">
        <ele>2295</ele>
        <time>2021-07-25T12:14:12.000Z</time>
      </trkpt>
      <trkpt lat="-11.84282518923282623291015625" lon="-76.38336570002138614654541015625">
        <ele>2295.39990234375</ele>
        <time>2021-07-25T12:14:17.000Z</time>
      </trkpt>
      <trkpt lat="-11.84277263469994068145751953125" lon="-76.3832035101950168609619140625">
        <ele>2296</ele>
        <time>2021-07-25T12:14:22.000Z</time>
      </trkpt>
      <trkpt lat="-11.84273139573633670806884765625" lon="-76.38308222405612468719482421875">
        <ele>2296.60009765625</ele>
        <time>2021-07-25T12:14:26.000Z</time>
      </trkpt>
      <trkpt lat="-11.84269485063850879669189453125" lon="-76.38296236284077167510986328125">
        <ele>2296.60009765625</ele>
        <time>2021-07-25T12:14:30.000Z</time>
      </trkpt>
      <trkpt lat="-11.84266165830194950103759765625" lon="-76.3828217983245849609375">
        <ele>2297.60009765625</ele>
        <time>2021-07-25T12:14:37.000Z</time>
      </trkpt>
      <trkpt lat="-11.84279694221913814544677734375" lon="-76.38278089463710784912109375">
        <ele>2298.199951171875</ele>
        <time>2021-07-25T12:16:59.000Z</time>
      </trkpt>
      <trkpt lat="-11.84262880124151706695556640625" lon="-76.38271459378302097320556640625">
        <ele>2409.39990234375</ele>
        <time>2021-07-25T13:03:50.000Z</time>
      </trkpt>
      <trkpt lat="-11.84259879402816295623779296875" lon="-76.38267134316265583038330078125">
        <ele>2409.60009765625</ele>
        <time>2021-07-25T13:04:09.000Z</time>
      </trkpt>
      <trkpt lat="-11.8425844609737396240234375" lon="-76.38261669315397739410400390625">
        <ele>2409.800048828125</ele>
        <time>2021-07-25T13:04:12.000Z</time>
      </trkpt>
      <trkpt lat="-11.842574067413806915283203125" lon="-76.38256036676466464996337890625">
        <ele>2410</ele>
        <time>2021-07-25T13:04:14.000Z</time>
      </trkpt>
      <trkpt lat="-11.842535845935344696044921875" lon="-76.38245793990790843963623046875">
        <ele>2410.199951171875</ele>
        <time>2021-07-25T13:04:18.000Z</time>
      </trkpt>
      <trkpt lat="-11.8425259552896022796630859375" lon="-76.3824293576180934906005859375">
        <ele>2410.39990234375</ele>
        <time>2021-07-25T13:04:19.000Z</time>
      </trkpt>
      <trkpt lat="-11.84249368496239185333251953125" lon="-76.38229633681476116180419921875">
        <ele>2411</ele>
        <time>2021-07-25T13:04:24.000Z</time>
      </trkpt>
      <trkpt lat="-11.84247641824185848236083984375" lon="-76.38224386610090732574462890625">
        <ele>2411.199951171875</ele>
        <time>2021-07-25T13:04:26.000Z</time>
      </trkpt>
      <trkpt lat="-11.84245043434202671051025390625" lon="-76.38217077590525150299072265625">
        <ele>2411.60009765625</ele>
        <time>2021-07-25T13:04:29.000Z</time>
      </trkpt>
      <trkpt lat="-11.8424260430037975311279296875" lon="-76.382071115076541900634765625">
        <ele>2411.800048828125</ele>
        <time>2021-07-25T13:04:33.000Z</time>
      </trkpt>
      <trkpt lat="-11.84237600304186344146728515625" lon="-76.38192367739975452423095703125">
        <ele>2412.60009765625</ele>
        <time>2021-07-25T13:04:39.000Z</time>
      </trkpt>
      <trkpt lat="-11.84236728586256504058837890625" lon="-76.381880342960357666015625">
        <ele>2412.800048828125</ele>
        <time>2021-07-25T13:04:41.000Z</time>
      </trkpt>
      <trkpt lat="-11.842341721057891845703125" lon="-76.3818119466304779052734375">
        <ele>2413.60009765625</ele>
        <time>2021-07-25T13:04:44.000Z</time>
      </trkpt>
      <trkpt lat="-11.84232017956674098968505859375" lon="-76.38173927552998065948486328125">
        <ele>2414</ele>
        <time>2021-07-25T13:04:47.000Z</time>
      </trkpt>
      <trkpt lat="-11.84228883124887943267822265625" lon="-76.38164497911930084228515625">
        <ele>2414.800048828125</ele>
        <time>2021-07-25T13:04:51.000Z</time>
      </trkpt>
      <trkpt lat="-11.84224180877208709716796875" lon="-76.3815227709710597991943359375">
        <ele>2415.60009765625</ele>
        <time>2021-07-25T13:04:56.000Z</time>
      </trkpt>
      <trkpt lat="-11.842232085764408111572265625" lon="-76.38149653561413288116455078125">
        <ele>2415.800048828125</ele>
        <time>2021-07-25T13:04:57.000Z</time>
      </trkpt>
      <trkpt lat="-11.84214122593402862548828125" lon="-76.381300985813140869140625">
        <ele>2416.800048828125</ele>
        <time>2021-07-25T13:05:05.000Z</time>
      </trkpt>
      <trkpt lat="-11.84213242493569850921630859375" lon="-76.38127592392265796661376953125">
        <ele>2416.800048828125</ele>
        <time>2021-07-25T13:05:06.000Z</time>
      </trkpt>
      <trkpt lat="-11.84203988872468471527099609375" lon="-76.38112203218042850494384765625">
        <ele>2418</ele>
        <time>2021-07-25T13:05:13.000Z</time>
      </trkpt>
      <trkpt lat="-11.84192991815507411956787109375" lon="-76.3809387199580669403076171875">
        <ele>2419.199951171875</ele>
        <time>2021-07-25T13:05:21.000Z</time>
      </trkpt>
      <trkpt lat="-11.84177351184189319610595703125" lon="-76.38074819929897785186767578125">
        <ele>2420</ele>
        <time>2021-07-25T13:05:30.000Z</time>
      </trkpt>
      <trkpt lat="-11.84173621237277984619140625" lon="-76.3807095587253570556640625">
        <ele>2420.199951171875</ele>
        <time>2021-07-25T13:05:32.000Z</time>
      </trkpt>
      <trkpt lat="-11.84163319878280162811279296875" lon="-76.38062297366559505462646484375">
        <ele>2420.60009765625</ele>
        <time>2021-07-25T13:05:37.000Z</time>
      </trkpt>
      <trkpt lat="-11.84143488295376300811767578125" lon="-76.38045810163021087646484375">
        <ele>2421</ele>
        <time>2021-07-25T13:05:45.000Z</time>
      </trkpt>
      <trkpt lat="-11.84127864427864551544189453125" lon="-76.38033044524490833282470703125">
        <ele>2421.39990234375</ele>
        <time>2021-07-25T13:05:51.000Z</time>
      </trkpt>
      <trkpt lat="-11.8411754630506038665771484375" lon="-76.38023505918681621551513671875">
        <ele>2421.60009765625</ele>
        <time>2021-07-25T13:05:55.000Z</time>
      </trkpt>
      <trkpt lat="-11.84092576615512371063232421875" lon="-76.37998326681554317474365234375">
        <ele>2421.60009765625</ele>
        <time>2021-07-25T13:06:04.000Z</time>
      </trkpt>
      <trkpt lat="-11.8406930007040500640869140625" lon="-76.3797189854085445404052734375">
        <ele>2421.800048828125</ele>
        <time>2021-07-25T13:06:13.000Z</time>
      </trkpt>
      <trkpt lat="-11.84049560688436031341552734375" lon="-76.37949678115546703338623046875">
        <ele>2422.39990234375</ele>
        <time>2021-07-25T13:06:21.000Z</time>
      </trkpt>
      <trkpt lat="-11.8402558006346225738525390625" lon="-76.37938563711941242218017578125">
        <ele>2422.60009765625</ele>
        <time>2021-07-25T13:06:28.000Z</time>
      </trkpt>
      <trkpt lat="-11.83997224085032939910888671875" lon="-76.3793186657130718231201171875">
        <ele>2423</ele>
        <time>2021-07-25T13:06:36.000Z</time>
      </trkpt>
      <trkpt lat="-11.83988741599023342132568359375" lon="-76.37926326133310794830322265625">
        <ele>2423.60009765625</ele>
        <time>2021-07-25T13:06:39.000Z</time>
      </trkpt>
      <trkpt lat="-11.83984257280826568603515625" lon="-76.37922160327434539794921875">
        <ele>2423.800048828125</ele>
        <time>2021-07-25T13:06:41.000Z</time>
      </trkpt>
      <trkpt lat="-11.83971860446035861968994140625" lon="-76.379054300487041473388671875">
        <ele>2424.800048828125</ele>
        <time>2021-07-25T13:06:47.000Z</time>
      </trkpt>
      <trkpt lat="-11.8396982364356517791748046875" lon="-76.37902823276817798614501953125">
        <ele>2425</ele>
        <time>2021-07-25T13:06:48.000Z</time>
      </trkpt>
      <trkpt lat="-11.83958935551345348358154296875" lon="-76.37882438488304615020751953125">
        <ele>2425.800048828125</ele>
        <time>2021-07-25T13:06:55.000Z</time>
      </trkpt>
      <trkpt lat="-11.83955649845302104949951171875" lon="-76.3787671364843845367431640625">
        <ele>2426.199951171875</ele>
        <time>2021-07-25T13:06:57.000Z</time>
      </trkpt>
      <trkpt lat="-11.8394601903855800628662109375" lon="-76.37859723530709743499755859375">
        <ele>2427</ele>
        <time>2021-07-25T13:07:03.000Z</time>
      </trkpt>
      <trkpt lat="-11.8394167721271514892578125" lon="-76.37851425446569919586181640625">
        <ele>2427.199951171875</ele>
        <time>2021-07-25T13:07:06.000Z</time>
      </trkpt>
      <trkpt lat="-11.83933840133249759674072265625" lon="-76.37837829999625682830810546875">
        <ele>2428</ele>
        <time>2021-07-25T13:07:11.000Z</time>
      </trkpt>
      <trkpt lat="-11.83929246850311756134033203125" lon="-76.37822440825402736663818359375">
        <ele>2428.800048828125</ele>
        <time>2021-07-25T13:07:16.000Z</time>
      </trkpt>
      <trkpt lat="-11.83928559534251689910888671875" lon="-76.37816213071346282958984375">
        <ele>2429</ele>
        <time>2021-07-25T13:07:18.000Z</time>
      </trkpt>
      <trkpt lat="-11.8392724357545375823974609375" lon="-76.37799826450645923614501953125">
        <ele>2429.60009765625</ele>
        <time>2021-07-25T13:07:23.000Z</time>
      </trkpt>
      <trkpt lat="-11.8392757885158061981201171875" lon="-76.3778927363455295562744140625">
        <ele>2430.199951171875</ele>
        <time>2021-07-25T13:07:26.000Z</time>
      </trkpt>
      <trkpt lat="-11.839246787130832672119140625" lon="-76.3777022995054721832275390625">
        <ele>2431</ele>
        <time>2021-07-25T13:07:32.000Z</time>
      </trkpt>
      <trkpt lat="-11.83922306634485721588134765625" lon="-76.37763599865138530731201171875">
        <ele>2431.199951171875</ele>
        <time>2021-07-25T13:07:34.000Z</time>
      </trkpt>
      <trkpt lat="-11.83914519846439361572265625" lon="-76.37751144357025623321533203125">
        <ele>2431.199951171875</ele>
        <time>2021-07-25T13:07:38.000Z</time>
      </trkpt>
      <trkpt lat="-11.83906473219394683837890625" lon="-76.37742108665406703948974609375">
        <ele>2431.60009765625</ele>
        <time>2021-07-25T13:07:41.000Z</time>
      </trkpt>
      <trkpt lat="-11.838967166841030120849609375" lon="-76.3773469068109989166259765625">
        <ele>2431.60009765625</ele>
        <time>2021-07-25T13:07:44.000Z</time>
      </trkpt>
      <trkpt lat="-11.8388479761779308319091796875" lon="-76.3772972859442234039306640625">
        <ele>2431.800048828125</ele>
        <time>2021-07-25T13:07:47.000Z</time>
      </trkpt>
      <trkpt lat="-11.83872803114354610443115234375" lon="-76.37724481523036956787109375">
        <ele>2431.60009765625</ele>
        <time>2021-07-25T13:07:50.000Z</time>
      </trkpt>
      <trkpt lat="-11.8384235166013240814208984375" lon="-76.37708195485174655914306640625">
        <ele>2431.60009765625</ele>
        <time>2021-07-25T13:07:58.000Z</time>
      </trkpt>
      <trkpt lat="-11.83808036148548126220703125" lon="-76.3768912665545940399169921875">
        <ele>2431.60009765625</ele>
        <time>2021-07-25T13:08:07.000Z</time>
      </trkpt>
      <trkpt lat="-11.8377110548317432403564453125" lon="-76.376689262688159942626953125">
        <ele>2432</ele>
        <time>2021-07-25T13:08:16.000Z</time>
      </trkpt>
      <trkpt lat="-11.8376718275249004364013671875" lon="-76.3766636140644550323486328125">
        <ele>2432.199951171875</ele>
        <time>2021-07-25T13:08:17.000Z</time>
      </trkpt>
      <trkpt lat="-11.83738323859870433807373046875" lon="-76.3765119016170501708984375">
        <ele>2432.60009765625</ele>
        <time>2021-07-25T13:08:24.000Z</time>
      </trkpt>
      <trkpt lat="-11.83697906322777271270751953125" lon="-76.376286260783672332763671875">
        <ele>2433.199951171875</ele>
        <time>2021-07-25T13:08:34.000Z</time>
      </trkpt>
      <trkpt lat="-11.83693815954029560089111328125" lon="-76.37626337818801403045654296875">
        <ele>2433.39990234375</ele>
        <time>2021-07-25T13:08:35.000Z</time>
      </trkpt>
      <trkpt lat="-11.83658276684582233428955078125" lon="-76.37606405653059482574462890625">
        <ele>2433.800048828125</ele>
        <time>2021-07-25T13:08:44.000Z</time>
      </trkpt>
      <trkpt lat="-11.83630499057471752166748046875" lon="-76.3759055547416210174560546875">
        <ele>2434.39990234375</ele>
        <time>2021-07-25T13:08:51.000Z</time>
      </trkpt>
      <trkpt lat="-11.83622469194233417510986328125" lon="-76.375858448445796966552734375">
        <ele>2434.39990234375</ele>
        <time>2021-07-25T13:08:53.000Z</time>
      </trkpt>
      <trkpt lat="-11.8359411321580410003662109375" lon="-76.375712938606739044189453125">
        <ele>2435.199951171875</ele>
        <time>2021-07-25T13:09:00.000Z</time>
      </trkpt>
      <trkpt lat="-11.83589980937540531158447265625" lon="-76.37569324113428592681884765625">
        <ele>2435.39990234375</ele>
        <time>2021-07-25T13:09:01.000Z</time>
      </trkpt>
      <trkpt lat="-11.83551340363919734954833984375" lon="-76.37548587284982204437255859375">
        <ele>2436.199951171875</ele>
        <time>2021-07-25T13:09:11.000Z</time>
      </trkpt>
      <trkpt lat="-11.8354348652064800262451171875" lon="-76.375437676906585693359375">
        <ele>2436.60009765625</ele>
        <time>2021-07-25T13:09:13.000Z</time>
      </trkpt>
      <trkpt lat="-11.8351287581026554107666015625" lon="-76.3752618245780467987060546875">
        <ele>2437.60009765625</ele>
        <time>2021-07-25T13:09:21.000Z</time>
      </trkpt>
      <trkpt lat="-11.83479742147028446197509765625" lon="-76.3750715553760528564453125">
        <ele>2438.199951171875</ele>
        <time>2021-07-25T13:09:30.000Z</time>
      </trkpt>
      <trkpt lat="-11.8347220681607723236083984375" lon="-76.3750324957072734832763671875">
        <ele>2438.800048828125</ele>
        <time>2021-07-25T13:09:32.000Z</time>
      </trkpt>
      <trkpt lat="-11.83447622694075107574462890625" lon="-76.37487650848925113677978515625">
        <ele>2439.60009765625</ele>
        <time>2021-07-25T13:09:39.000Z</time>
      </trkpt>
      <trkpt lat="-11.83441118337213993072509765625" lon="-76.37483124621212482452392578125">
        <ele>2439.800048828125</ele>
        <time>2021-07-25T13:09:41.000Z</time>
      </trkpt>
      <trkpt lat="-11.8341856263577938079833984375" lon="-76.37464064173400402069091796875">
        <ele>2440.800048828125</ele>
        <time>2021-07-25T13:09:49.000Z</time>
      </trkpt>
      <trkpt lat="-11.8341596424579620361328125" lon="-76.37461625039577484130859375">
        <ele>2441</ele>
        <time>2021-07-25T13:09:50.000Z</time>
      </trkpt>
      <trkpt lat="-11.83394439518451690673828125" lon="-76.3744249753654003143310546875">
        <ele>2442</ele>
        <time>2021-07-25T13:09:58.000Z</time>
      </trkpt>
      <trkpt lat="-11.83391757309436798095703125" lon="-76.374399997293949127197265625">
        <ele>2442.199951171875</ele>
        <time>2021-07-25T13:09:59.000Z</time>
      </trkpt>
      <trkpt lat="-11.83377164416015148162841796875" lon="-76.37425557710230350494384765625">
        <ele>2443</ele>
        <time>2021-07-25T13:10:05.000Z</time>
      </trkpt>
      <trkpt lat="-11.83368966914713382720947265625" lon="-76.3741845823824405670166015625">
        <ele>2443.199951171875</ele>
        <time>2021-07-25T13:10:08.000Z</time>
      </trkpt>
      <trkpt lat="-11.83353024534881114959716796875" lon="-76.374041251838207244873046875">
        <ele>2444.199951171875</ele>
        <time>2021-07-25T13:10:14.000Z</time>
      </trkpt>
      <trkpt lat="-11.83345296420156955718994140625" lon="-76.37397520244121551513671875">
        <ele>2444.60009765625</ele>
        <time>2021-07-25T13:10:17.000Z</time>
      </trkpt>
      <trkpt lat="-11.83332120068371295928955078125" lon="-76.3738580234348773956298828125">
        <ele>2445.199951171875</ele>
        <time>2021-07-25T13:10:22.000Z</time>
      </trkpt>
      <trkpt lat="-11.83318273164331912994384765625" lon="-76.3737514056265354156494140625">
        <ele>2446</ele>
        <time>2021-07-25T13:10:27.000Z</time>
      </trkpt>
      <trkpt lat="-11.83308935724198818206787109375" lon="-76.3736955821514129638671875">
        <ele>2446.39990234375</ele>
        <time>2021-07-25T13:10:30.000Z</time>
      </trkpt>
      <trkpt lat="-11.83289070613682270050048828125" lon="-76.3735814206302165985107421875">
        <ele>2447</ele>
        <time>2021-07-25T13:10:36.000Z</time>
      </trkpt>
      <trkpt lat="-11.8327932246029376983642578125" lon="-76.373530961573123931884765625">
        <ele>2447.39990234375</ele>
        <time>2021-07-25T13:10:39.000Z</time>
      </trkpt>
      <trkpt lat="-11.832553334534168243408203125" lon="-76.37339718639850616455078125">
        <ele>2447.800048828125</ele>
        <time>2021-07-25T13:10:46.000Z</time>
      </trkpt>
      <trkpt lat="-11.8322252668440341949462890625" lon="-76.373215802013874053955078125">
        <ele>2448.199951171875</ele>
        <time>2021-07-25T13:10:55.000Z</time>
      </trkpt>
      <trkpt lat="-11.83218629099428653717041015625" lon="-76.3731940090656280517578125">
        <ele>2448.39990234375</ele>
        <time>2021-07-25T13:10:56.000Z</time>
      </trkpt>
      <trkpt lat="-11.831902228295803070068359375" lon="-76.37304791249334812164306640625">
        <ele>2448.60009765625</ele>
        <time>2021-07-25T13:11:03.000Z</time>
      </trkpt>
      <trkpt lat="-11.831475757062435150146484375" lon="-76.372794024646282196044921875">
        <ele>2448.39990234375</ele>
        <time>2021-07-25T13:11:13.000Z</time>
      </trkpt>
      <trkpt lat="-11.8314366973936557769775390625" lon="-76.37276158668100833892822265625">
        <ele>2448.60009765625</ele>
        <time>2021-07-25T13:11:14.000Z</time>
      </trkpt>
      <trkpt lat="-11.83132882229983806610107421875" lon="-76.37264507822692394256591796875">
        <ele>2448.60009765625</ele>
        <time>2021-07-25T13:11:17.000Z</time>
      </trkpt>
      <trkpt lat="-11.83129713870584964752197265625" lon="-76.37260165996849536895751953125">
        <ele>2448.39990234375</ele>
        <time>2021-07-25T13:11:18.000Z</time>
      </trkpt>
      <trkpt lat="-11.83105674572288990020751953125" lon="-76.37227878905832767486572265625">
        <ele>2449.199951171875</ele>
        <time>2021-07-25T13:11:26.000Z</time>
      </trkpt>
      <trkpt lat="-11.83093554340302944183349609375" lon="-76.37210612185299396514892578125">
        <ele>2449.39990234375</ele>
        <time>2021-07-25T13:11:30.000Z</time>
      </trkpt>
      <trkpt lat="-11.8308104015886783599853515625" lon="-76.3719459436833858489990234375">
        <ele>2449.39990234375</ele>
        <time>2021-07-25T13:11:34.000Z</time>
      </trkpt>
      <trkpt lat="-11.830499432981014251708984375" lon="-76.3715332187712192535400390625">
        <ele>2450</ele>
        <time>2021-07-25T13:11:44.000Z</time>
      </trkpt>
      <trkpt lat="-11.83030874468386173248291015625" lon="-76.371285282075405120849609375">
        <ele>2450.39990234375</ele>
        <time>2021-07-25T13:11:50.000Z</time>
      </trkpt>
      <trkpt lat="-11.83018536306917667388916015625" lon="-76.37111730873584747314453125">
        <ele>2450.60009765625</ele>
        <time>2021-07-25T13:11:54.000Z</time>
      </trkpt>
      <trkpt lat="-11.82991848327219486236572265625" lon="-76.37074842117726802825927734375">
        <ele>2451.199951171875</ele>
        <time>2021-07-25T13:12:03.000Z</time>
      </trkpt>
      <trkpt lat="-11.82982921600341796875" lon="-76.37062755413353443145751953125">
        <ele>2451.39990234375</ele>
        <time>2021-07-25T13:12:06.000Z</time>
      </trkpt>
      <trkpt lat="-11.829610280692577362060546875" lon="-76.37033569626510143280029296875">
        <ele>2451.800048828125</ele>
        <time>2021-07-25T13:12:13.000Z</time>
      </trkpt>
      <trkpt lat="-11.8293341808021068572998046875" lon="-76.3699681498110294342041015625">
        <ele>2452.60009765625</ele>
        <time>2021-07-25T13:12:22.000Z</time>
      </trkpt>
      <trkpt lat="-11.829304508864879608154296875" lon="-76.369927413761615753173828125">
        <ele>2452.800048828125</ele>
        <time>2021-07-25T13:12:23.000Z</time>
      </trkpt>
      <trkpt lat="-11.8290599249303340911865234375" lon="-76.36960186064243316650390625">
        <ele>2453</ele>
        <time>2021-07-25T13:12:31.000Z</time>
      </trkpt>
      <trkpt lat="-11.828818023204803466796875" lon="-76.369269602000713348388671875">
        <ele>2453.60009765625</ele>
        <time>2021-07-25T13:12:39.000Z</time>
      </trkpt>
      <trkpt lat="-11.82875541038811206817626953125" lon="-76.3691869564354419708251953125">
        <ele>2453.800048828125</ele>
        <time>2021-07-25T13:12:41.000Z</time>
      </trkpt>
      <trkpt lat="-11.8284886144101619720458984375" lon="-76.36882142163813114166259765625">
        <ele>2454.60009765625</ele>
        <time>2021-07-25T13:12:50.000Z</time>
      </trkpt>
      <trkpt lat="-11.828430779278278350830078125" lon="-76.36874246411025524139404296875">
        <ele>2454.60009765625</ele>
        <time>2021-07-25T13:12:52.000Z</time>
      </trkpt>
      <trkpt lat="-11.82819642126560211181640625" lon="-76.368442811071872711181640625">
        <ele>2455.39990234375</ele>
        <time>2021-07-25T13:13:00.000Z</time>
      </trkpt>
      <trkpt lat="-11.82810313068330287933349609375" lon="-76.36833476833999156951904296875">
        <ele>2455.60009765625</ele>
        <time>2021-07-25T13:13:03.000Z</time>
      </trkpt>
      <trkpt lat="-11.82792878709733486175537109375" lon="-76.36816713027656078338623046875">
        <ele>2456.199951171875</ele>
        <time>2021-07-25T13:13:08.000Z</time>
      </trkpt>
      <trkpt lat="-11.827781684696674346923828125" lon="-76.36806118302047252655029296875">
        <ele>2456.800048828125</ele>
        <time>2021-07-25T13:13:12.000Z</time>
      </trkpt>
      <trkpt lat="-11.82757817208766937255859375" lon="-76.36792137287557125091552734375">
        <ele>2457</ele>
        <time>2021-07-25T13:13:17.000Z</time>
      </trkpt>
      <trkpt lat="-11.82724029757082462310791015625" lon="-76.36770478449761867523193359375">
        <ele>2457.800048828125</ele>
        <time>2021-07-25T13:13:25.000Z</time>
      </trkpt>
      <trkpt lat="-11.82711976580321788787841796875" lon="-76.36761526577174663543701171875">
        <ele>2458.199951171875</ele>
        <time>2021-07-25T13:13:28.000Z</time>
      </trkpt>
      <trkpt lat="-11.8267988227307796478271484375" lon="-76.36740370653569698333740234375">
        <ele>2458.800048828125</ele>
        <time>2021-07-25T13:13:36.000Z</time>
      </trkpt>
      <trkpt lat="-11.82649950496852397918701171875" lon="-76.36726758442819118499755859375">
        <ele>2459.39990234375</ele>
        <time>2021-07-25T13:13:43.000Z</time>
      </trkpt>
      <trkpt lat="-11.82628056965768337249755859375" lon="-76.3671934045851230621337890625">
        <ele>2460</ele>
        <time>2021-07-25T13:13:48.000Z</time>
      </trkpt>
      <trkpt lat="-11.82605677284300327301025390625" lon="-76.36710799299180507659912109375">
        <ele>2460.199951171875</ele>
        <time>2021-07-25T13:13:53.000Z</time>
      </trkpt>
      <trkpt lat="-11.8256914056837558746337890625" lon="-76.36697187088429927825927734375">
        <ele>2460.800048828125</ele>
        <time>2021-07-25T13:14:01.000Z</time>
      </trkpt>
      <trkpt lat="-11.82564957998692989349365234375" lon="-76.3669525086879730224609375">
        <ele>2461</ele>
        <time>2021-07-25T13:14:02.000Z</time>
      </trkpt>
      <trkpt lat="-11.82531706988811492919921875" lon="-76.366768777370452880859375">
        <ele>2461.60009765625</ele>
        <time>2021-07-25T13:14:10.000Z</time>
      </trkpt>
      <trkpt lat="-11.8250454962253570556640625" lon="-76.36657171882688999176025390625">
        <ele>2462</ele>
        <time>2021-07-25T13:14:17.000Z</time>
      </trkpt>
      <trkpt lat="-11.82497483678162097930908203125" lon="-76.36650751344859600067138671875">
        <ele>2462.60009765625</ele>
        <time>2021-07-25T13:14:19.000Z</time>
      </trkpt>
      <trkpt lat="-11.8247274868190288543701171875" lon="-76.3662234507501125335693359375">
        <ele>2463</ele>
        <time>2021-07-25T13:14:27.000Z</time>
      </trkpt>
      <trkpt lat="-11.82469991035759449005126953125" lon="-76.36618346907198429107666015625">
        <ele>2463.199951171875</ele>
        <time>2021-07-25T13:14:28.000Z</time>
      </trkpt>
      <trkpt lat="-11.8244914524257183074951171875" lon="-76.36582539416849613189697265625">
        <ele>2464</ele>
        <time>2021-07-25T13:14:37.000Z</time>
      </trkpt>
      <trkpt lat="-11.82447024621069431304931640625" lon="-76.36578180827200412750244140625">
        <ele>2464</ele>
        <time>2021-07-25T13:14:38.000Z</time>
      </trkpt>
      <trkpt lat="-11.82434803806245326995849609375" lon="-76.36545944027602672576904296875">
        <ele>2464.800048828125</ele>
        <time>2021-07-25T13:14:45.000Z</time>
      </trkpt>
      <trkpt lat="-11.8243013508617877960205078125" lon="-76.365318037569522857666015625">
        <ele>2465.199951171875</ele>
        <time>2021-07-25T13:14:48.000Z</time>
      </trkpt>
      <trkpt lat="-11.82419196702539920806884765625" lon="-76.36503045447170734405517578125">
        <ele>2465.60009765625</ele>
        <time>2021-07-25T13:14:54.000Z</time>
      </trkpt>
      <trkpt lat="-11.82414486072957515716552734375" lon="-76.36489131487905979156494140625">
        <ele>2466.39990234375</ele>
        <time>2021-07-25T13:14:57.000Z</time>
      </trkpt>
      <trkpt lat="-11.82404260151088237762451171875" lon="-76.3646164722740650177001953125">
        <ele>2466.800048828125</ele>
        <time>2021-07-25T13:15:03.000Z</time>
      </trkpt>
      <trkpt lat="-11.823903210461139678955078125" lon="-76.36436426080763339996337890625">
        <ele>2467.60009765625</ele>
        <time>2021-07-25T13:15:09.000Z</time>
      </trkpt>
      <trkpt lat="-11.82387831620872020721435546875" lon="-76.3643234409391880035400390625">
        <ele>2467.800048828125</ele>
        <time>2021-07-25T13:15:10.000Z</time>
      </trkpt>
      <trkpt lat="-11.8236587941646575927734375" lon="-76.3639967143535614013671875">
        <ele>2468.39990234375</ele>
        <time>2021-07-25T13:15:18.000Z</time>
      </trkpt>
      <trkpt lat="-11.82360590435564517974853515625" lon="-76.3639160804450511932373046875">
        <ele>2468.60009765625</ele>
        <time>2021-07-25T13:15:20.000Z</time>
      </trkpt>
      <trkpt lat="-11.8234241008758544921875" lon="-76.36363327503204345703125">
        <ele>2469.39990234375</ele>
        <time>2021-07-25T13:15:27.000Z</time>
      </trkpt>
      <trkpt lat="-11.82339769788086414337158203125" lon="-76.36359513737261295318603515625">
        <ele>2469.800048828125</ele>
        <time>2021-07-25T13:15:28.000Z</time>
      </trkpt>
      <trkpt lat="-11.823218576610088348388671875" lon="-76.36338022537529468536376953125">
        <ele>2470.60009765625</ele>
        <time>2021-07-25T13:15:34.000Z</time>
      </trkpt>
      <trkpt lat="-11.8230660259723663330078125" lon="-76.36326036415994167327880859375">
        <ele>2470.800048828125</ele>
        <time>2021-07-25T13:15:38.000Z</time>
      </trkpt>
      <trkpt lat="-11.82302512228488922119140625" lon="-76.36323220096528530120849609375">
        <ele>2471</ele>
        <time>2021-07-25T13:15:39.000Z</time>
      </trkpt>
      <trkpt lat="-11.8229381181299686431884765625" lon="-76.3631824962794780731201171875">
        <ele>2471.199951171875</ele>
        <time>2021-07-25T13:15:41.000Z</time>
      </trkpt>
      <trkpt lat="-11.8226678855717182159423828125" lon="-76.3630715198814868927001953125">
        <ele>2472</ele>
        <time>2021-07-25T13:15:47.000Z</time>
      </trkpt>
      <trkpt lat="-11.82249597273766994476318359375" lon="-76.36299130506813526153564453125">
        <ele>2472.39990234375</ele>
        <time>2021-07-25T13:15:51.000Z</time>
      </trkpt>
      <trkpt lat="-11.82228215038776397705078125" lon="-76.362884603440761566162109375">
        <ele>2473</ele>
        <time>2021-07-25T13:15:56.000Z</time>
      </trkpt>
      <trkpt lat="-11.8221160210669040679931640625" lon="-76.36279466561973094940185546875">
        <ele>2473.39990234375</ele>
        <time>2021-07-25T13:16:00.000Z</time>
      </trkpt>
      <trkpt lat="-11.821946538984775543212890625" lon="-76.3626336492598056793212890625">
        <ele>2474</ele>
        <time>2021-07-25T13:16:05.000Z</time>
      </trkpt>
      <trkpt lat="-11.8218939006328582763671875" lon="-76.36256651021540164947509765625">
        <ele>2474.199951171875</ele>
        <time>2021-07-25T13:16:07.000Z</time>
      </trkpt>
      <trkpt lat="-11.82177009992301464080810546875" lon="-76.3623785041272640228271484375">
        <ele>2475</ele>
        <time>2021-07-25T13:16:13.000Z</time>
      </trkpt>
      <trkpt lat="-11.82166381739079952239990234375" lon="-76.3621337525546550750732421875">
        <ele>2475.800048828125</ele>
        <time>2021-07-25T13:16:19.000Z</time>
      </trkpt>
      <trkpt lat="-11.82164252735674381256103515625" lon="-76.36209058575332164764404296875">
        <ele>2476</ele>
        <time>2021-07-25T13:16:20.000Z</time>
      </trkpt>
      <trkpt lat="-11.821618974208831787109375" lon="-76.36204884387552738189697265625">
        <ele>2476.199951171875</ele>
        <time>2021-07-25T13:16:21.000Z</time>
      </trkpt>
      <trkpt lat="-11.8215358257293701171875" lon="-76.36192940175533294677734375">
        <ele>2476.60009765625</ele>
        <time>2021-07-25T13:16:24.000Z</time>
      </trkpt>
      <trkpt lat="-11.8215061537921428680419921875" lon="-76.36189076118171215057373046875">
        <ele>2476.39990234375</ele>
        <time>2021-07-25T13:16:25.000Z</time>
      </trkpt>
      <trkpt lat="-11.8214390985667705535888671875" lon="-76.36182068847119808197021484375">
        <ele>2476.60009765625</ele>
        <time>2021-07-25T13:16:27.000Z</time>
      </trkpt>
      <trkpt lat="-11.82131546549499034881591796875" lon="-76.3617498613893985748291015625">
        <ele>2477.39990234375</ele>
        <time>2021-07-25T13:16:30.000Z</time>
      </trkpt>
      <trkpt lat="-11.8212305568158626556396484375" lon="-76.3617183454334735870361328125">
        <ele>2477.800048828125</ele>
        <time>2021-07-25T13:16:32.000Z</time>
      </trkpt>
      <trkpt lat="-11.82101388461887836456298828125" lon="-76.36164634488523006439208984375">
        <ele>2477.60009765625</ele>
        <time>2021-07-25T13:16:37.000Z</time>
      </trkpt>
      <trkpt lat="-11.820917241275310516357421875" lon="-76.36164131574332714080810546875">
        <ele>2478</ele>
        <time>2021-07-25T13:16:39.000Z</time>
      </trkpt>
      <trkpt lat="-11.8207209371030330657958984375" lon="-76.361638717353343963623046875">
        <ele>2478.60009765625</ele>
        <time>2021-07-25T13:16:43.000Z</time>
      </trkpt>
      <trkpt lat="-11.82062613777816295623779296875" lon="-76.3616274856030941009521484375">
        <ele>2479</ele>
        <time>2021-07-25T13:16:45.000Z</time>
      </trkpt>
      <trkpt lat="-11.82053477503359317779541015625" lon="-76.3616016693413257598876953125">
        <ele>2478.800048828125</ele>
        <time>2021-07-25T13:16:47.000Z</time>
      </trkpt>
      <trkpt lat="-11.82049169205129146575927734375" lon="-76.3615815527737140655517578125">
        <ele>2479</ele>
        <time>2021-07-25T13:16:48.000Z</time>
      </trkpt>
      <trkpt lat="-11.82040452025830745697021484375" lon="-76.36154408566653728485107421875">
        <ele>2479.39990234375</ele>
        <time>2021-07-25T13:16:50.000Z</time>
      </trkpt>
      <trkpt lat="-11.8203192763030529022216796875" lon="-76.3615007512271404266357421875">
        <ele>2479.60009765625</ele>
        <time>2021-07-25T13:16:52.000Z</time>
      </trkpt>
      <trkpt lat="-11.82020301930606365203857421875" lon="-76.3614378869533538818359375">
        <ele>2480</ele>
        <time>2021-07-25T13:16:55.000Z</time>
      </trkpt>
      <trkpt lat="-11.82001140899956226348876953125" lon="-76.36131743900477886199951171875">
        <ele>2480.60009765625</ele>
        <time>2021-07-25T13:17:00.000Z</time>
      </trkpt>
      <trkpt lat="-11.81993429549038410186767578125" lon="-76.3612715899944305419921875">
        <ele>2481</ele>
        <time>2021-07-25T13:17:02.000Z</time>
      </trkpt>
      <trkpt lat="-11.8197132647037506103515625" lon="-76.36113018728792667388916015625">
        <ele>2481.60009765625</ele>
        <time>2021-07-25T13:17:08.000Z</time>
      </trkpt>
      <trkpt lat="-11.8196802400052547454833984375" lon="-76.361103951930999755859375">
        <ele>2482</ele>
        <time>2021-07-25T13:17:09.000Z</time>
      </trkpt>
      <trkpt lat="-11.81951142847537994384765625" lon="-76.360984258353710174560546875">
        <ele>2482.800048828125</ele>
        <time>2021-07-25T13:17:14.000Z</time>
      </trkpt>
      <trkpt lat="-11.81938310153782367706298828125" lon="-76.36088392697274684906005859375">
        <ele>2483.60009765625</ele>
        <time>2021-07-25T13:17:18.000Z</time>
      </trkpt>
      <trkpt lat="-11.81932627223432064056396484375" lon="-76.36083145625889301300048828125">
        <ele>2483.800048828125</ele>
        <time>2021-07-25T13:17:20.000Z</time>
      </trkpt>
      <trkpt lat="-11.81913365609943866729736328125" lon="-76.360659711062908172607421875">
        <ele>2485</ele>
        <time>2021-07-25T13:17:27.000Z</time>
      </trkpt>
      <trkpt lat="-11.818969957530498504638671875" lon="-76.3605033047497272491455078125">
        <ele>2486.199951171875</ele>
        <time>2021-07-25T13:17:33.000Z</time>
      </trkpt>
      <trkpt lat="-11.81894288398325443267822265625" lon="-76.3604778237640857696533203125">
        <ele>2486.199951171875</ele>
        <time>2021-07-25T13:17:34.000Z</time>
      </trkpt>
      <trkpt lat="-11.818779520690441131591796875" lon="-76.36033725924789905548095703125">
        <ele>2487.39990234375</ele>
        <time>2021-07-25T13:17:40.000Z</time>
      </trkpt>
      <trkpt lat="-11.8187290616333484649658203125" lon="-76.36028663255274295806884765625">
        <ele>2487.800048828125</ele>
        <time>2021-07-25T13:17:42.000Z</time>
      </trkpt>
      <trkpt lat="-11.8186033330857753753662109375" lon="-76.3601656816899776458740234375">
        <ele>2488.39990234375</ele>
        <time>2021-07-25T13:17:47.000Z</time>
      </trkpt>
      <trkpt lat="-11.8185010738670825958251953125" lon="-76.36007188819348812103271484375">
        <ele>2489</ele>
        <time>2021-07-25T13:17:51.000Z</time>
      </trkpt>
      <trkpt lat="-11.8184323422610759735107421875" lon="-76.3600029051303863525390625">
        <ele>2489.60009765625</ele>
        <time>2021-07-25T13:17:54.000Z</time>
      </trkpt>
      <trkpt lat="-11.81832094676792621612548828125" lon="-76.35989033617079257965087890625">
        <ele>2490.39990234375</ele>
        <time>2021-07-25T13:17:59.000Z</time>
      </trkpt>
      <trkpt lat="-11.81828171946108341217041015625" lon="-76.3598431460559368133544921875">
        <ele>2490.800048828125</ele>
        <time>2021-07-25T13:18:01.000Z</time>
      </trkpt>
      <trkpt lat="-11.81817191652953624725341796875" lon="-76.35968615300953388214111328125">
        <ele>2491.800048828125</ele>
        <time>2021-07-25T13:18:07.000Z</time>
      </trkpt>
      <trkpt lat="-11.8181383050978183746337890625" lon="-76.359631083905696868896484375">
        <ele>2492.199951171875</ele>
        <time>2021-07-25T13:18:09.000Z</time>
      </trkpt>
      <trkpt lat="-11.81806814856827259063720703125" lon="-76.35952639393508434295654296875">
        <ele>2492.800048828125</ele>
        <time>2021-07-25T13:18:13.000Z</time>
      </trkpt>
      <trkpt lat="-11.8180368840694427490234375" lon="-76.359474845230579376220703125">
        <ele>2493.199951171875</ele>
        <time>2021-07-25T13:18:15.000Z</time>
      </trkpt>
      <trkpt lat="-11.81798265315592288970947265625" lon="-76.35941156186163425445556640625">
        <ele>2493.800048828125</ele>
        <time>2021-07-25T13:18:18.000Z</time>
      </trkpt>
      <trkpt lat="-11.81794309057295322418212890625" lon="-76.35937786661088466644287109375">
        <ele>2494</ele>
        <time>2021-07-25T13:18:20.000Z</time>
      </trkpt>
      <trkpt lat="-11.8179026059806346893310546875" lon="-76.35933930985629558563232421875">
        <ele>2494.39990234375</ele>
        <time>2021-07-25T13:18:22.000Z</time>
      </trkpt>
      <trkpt lat="-11.8178412504494190216064453125" lon="-76.35927376337349414825439453125">
        <ele>2494.800048828125</ele>
        <time>2021-07-25T13:18:25.000Z</time>
      </trkpt>
      <trkpt lat="-11.8178191222250461578369140625" lon="-76.35925314389169216156005859375">
        <ele>2495</ele>
        <time>2021-07-25T13:18:26.000Z</time>
      </trkpt>
      <trkpt lat="-11.81765961460769176483154296875" lon="-76.359133534133434295654296875">
        <ele>2496</ele>
        <time>2021-07-25T13:18:33.000Z</time>
      </trkpt>
      <trkpt lat="-11.8174825049936771392822265625" lon="-76.3589955680072307586669921875">
        <ele>2497.199951171875</ele>
        <time>2021-07-25T13:18:41.000Z</time>
      </trkpt>
      <trkpt lat="-11.8173400126397609710693359375" lon="-76.3589050434529781341552734375">
        <ele>2498.199951171875</ele>
        <time>2021-07-25T13:18:47.000Z</time>
      </trkpt>
      <trkpt lat="-11.81731679476797580718994140625" lon="-76.358888782560825347900390625">
        <ele>2498.39990234375</ele>
        <time>2021-07-25T13:18:48.000Z</time>
      </trkpt>
      <trkpt lat="-11.817138679325580596923828125" lon="-76.35878861881792545318603515625">
        <ele>2499.60009765625</ele>
        <time>2021-07-25T13:18:55.000Z</time>
      </trkpt>
      <trkpt lat="-11.8171143718063831329345703125" lon="-76.3587746210396289825439453125">
        <ele>2499.800048828125</ele>
        <time>2021-07-25T13:18:56.000Z</time>
      </trkpt>
      <trkpt lat="-11.8170080892741680145263671875" lon="-76.358676888048648834228515625">
        <ele>2500.800048828125</ele>
        <time>2021-07-25T13:19:01.000Z</time>
      </trkpt>
      <trkpt lat="-11.8169189058244228363037109375" lon="-76.35860069654881954193115234375">
        <ele>2501.39990234375</ele>
        <time>2021-07-25T13:19:05.000Z</time>
      </trkpt>
      <trkpt lat="-11.81685880757868289947509765625" lon="-76.35854487307369709014892578125">
        <ele>2501.800048828125</ele>
        <time>2021-07-25T13:19:08.000Z</time>
      </trkpt>
      <trkpt lat="-11.81676350533962249755859375" lon="-76.35844529606401920318603515625">
        <ele>2503</ele>
        <time>2021-07-25T13:19:13.000Z</time>
      </trkpt>
      <trkpt lat="-11.81674397550523281097412109375" lon="-76.35842509567737579345703125">
        <ele>2503.199951171875</ele>
        <time>2021-07-25T13:19:14.000Z</time>
      </trkpt>
      <trkpt lat="-11.8166506849229335784912109375" lon="-76.35832593776285648345947265625">
        <ele>2504</ele>
        <time>2021-07-25T13:19:19.000Z</time>
      </trkpt>
      <trkpt lat="-11.8165936879813671112060546875" lon="-76.3582567870616912841796875">
        <ele>2504.60009765625</ele>
        <time>2021-07-25T13:19:22.000Z</time>
      </trkpt>
      <trkpt lat="-11.81653878651559352874755859375" lon="-76.35819199495017528533935546875">
        <ele>2505</ele>
        <time>2021-07-25T13:19:25.000Z</time>
      </trkpt>
      <trkpt lat="-11.81646703742444515228271484375" lon="-76.358108930289745330810546875">
        <ele>2505.800048828125</ele>
        <time>2021-07-25T13:19:29.000Z</time>
      </trkpt>
      <trkpt lat="-11.81643334217369556427001953125" lon="-76.35806861333549022674560546875">
        <ele>2506.199951171875</ele>
        <time>2021-07-25T13:19:31.000Z</time>
      </trkpt>
      <trkpt lat="-11.8163216114044189453125" lon="-76.3579407893121242523193359375">
        <ele>2507.199951171875</ele>
        <time>2021-07-25T13:19:37.000Z</time>
      </trkpt>
      <trkpt lat="-11.8162143230438232421875" lon="-76.3578150607645511627197265625">
        <ele>2508.39990234375</ele>
        <time>2021-07-25T13:19:43.000Z</time>
      </trkpt>
      <trkpt lat="-11.81617802940309047698974609375" lon="-76.35777533054351806640625">
        <ele>2508.60009765625</ele>
        <time>2021-07-25T13:19:45.000Z</time>
      </trkpt>
      <trkpt lat="-11.81610502302646636962890625" lon="-76.3576933555305004119873046875">
        <ele>2509.39990234375</ele>
        <time>2021-07-25T13:19:49.000Z</time>
      </trkpt>
      <trkpt lat="-11.81601005606353282928466796875" lon="-76.35760090313851833343505859375">
        <ele>2510.199951171875</ele>
        <time>2021-07-25T13:19:54.000Z</time>
      </trkpt>
      <trkpt lat="-11.81596613489091396331787109375" lon="-76.35756636969745159149169921875">
        <ele>2510.60009765625</ele>
        <time>2021-07-25T13:19:56.000Z</time>
      </trkpt>
      <trkpt lat="-11.81584711186587810516357421875" lon="-76.35748405940830707550048828125">
        <ele>2511.39990234375</ele>
        <time>2021-07-25T13:20:01.000Z</time>
      </trkpt>
      <trkpt lat="-11.81579682044684886932373046875" lon="-76.35745136998593807220458984375">
        <ele>2511.60009765625</ele>
        <time>2021-07-25T13:20:03.000Z</time>
      </trkpt>
      <trkpt lat="-11.81562356650829315185546875" lon="-76.35736084543168544769287109375">
        <ele>2512.800048828125</ele>
        <time>2021-07-25T13:20:10.000Z</time>
      </trkpt>
      <trkpt lat="-11.81542583741247653961181640625" lon="-76.35722539387643337249755859375">
        <ele>2513.800048828125</ele>
        <time>2021-07-25T13:20:18.000Z</time>
      </trkpt>
      <trkpt lat="-11.81540287099778652191162109375" lon="-76.35720737278461456298828125">
        <ele>2513.800048828125</ele>
        <time>2021-07-25T13:20:19.000Z</time>
      </trkpt>
      <trkpt lat="-11.81525903753936290740966796875" lon="-76.35706630535423755645751953125">
        <ele>2515</ele>
        <time>2021-07-25T13:20:26.000Z</time>
      </trkpt>
      <trkpt lat="-11.8152438662946224212646484375" lon="-76.357042081654071807861328125">
        <ele>2515</ele>
        <time>2021-07-25T13:20:27.000Z</time>
      </trkpt>
      <trkpt lat="-11.8151258490979671478271484375" lon="-76.35683588683605194091796875">
        <ele>2515.800048828125</ele>
        <time>2021-07-25T13:20:35.000Z</time>
      </trkpt>
      <trkpt lat="-11.81509123183786869049072265625" lon="-76.35674477554857730865478515625">
        <ele>2516</ele>
        <time>2021-07-25T13:20:38.000Z</time>
      </trkpt>
      <trkpt lat="-11.81505703367292881011962890625" lon="-76.35659021325409412384033203125">
        <ele>2516.60009765625</ele>
        <time>2021-07-25T13:20:43.000Z</time>
      </trkpt>
      <trkpt lat="-11.81503289379179477691650390625" lon="-76.35648929513990879058837890625">
        <ele>2517.199951171875</ele>
        <time>2021-07-25T13:20:46.000Z</time>
      </trkpt>
      <trkpt lat="-11.8150131963193416595458984375" lon="-76.35638058185577392578125">
        <ele>2517.60009765625</ele>
        <time>2021-07-25T13:20:49.000Z</time>
      </trkpt>
      <trkpt lat="-11.81497522629797458648681640625" lon="-76.3561085052788257598876953125">
        <ele>2518.199951171875</ele>
        <time>2021-07-25T13:20:57.000Z</time>
      </trkpt>
      <trkpt lat="-11.81497019715607166290283203125" lon="-76.3560749776661396026611328125">
        <ele>2518.39990234375</ele>
        <time>2021-07-25T13:20:58.000Z</time>
      </trkpt>
      <trkpt lat="-11.81491537950932979583740234375" lon="-76.3557440601289272308349609375">
        <ele>2519.39990234375</ele>
        <time>2021-07-25T13:21:08.000Z</time>
      </trkpt>
      <trkpt lat="-11.81485452689230442047119140625" lon="-76.355543397367000579833984375">
        <ele>2520.60009765625</ele>
        <time>2021-07-25T13:21:15.000Z</time>
      </trkpt>
      <trkpt lat="-11.8148304708302021026611328125" lon="-76.355487741529941558837890625">
        <ele>2521</ele>
        <time>2021-07-25T13:21:17.000Z</time>
      </trkpt>
      <trkpt lat="-11.814712621271610260009765625" lon="-76.35530107654631137847900390625">
        <ele>2521.60009765625</ele>
        <time>2021-07-25T13:21:24.000Z</time>
      </trkpt>
      <trkpt lat="-11.814506091177463531494140625" lon="-76.35509823448956012725830078125">
        <ele>2522.800048828125</ele>
        <time>2021-07-25T13:21:33.000Z</time>
      </trkpt>
      <trkpt lat="-11.8142648600041866302490234375" lon="-76.3549662195146083831787109375">
        <ele>2523.39990234375</ele>
        <time>2021-07-25T13:21:41.000Z</time>
      </trkpt>
      <trkpt lat="-11.81400409899652004241943359375" lon="-76.35489069856703281402587890625">
        <ele>2523.60009765625</ele>
        <time>2021-07-25T13:21:48.000Z</time>
      </trkpt>
      <trkpt lat="-11.81375364772975444793701171875" lon="-76.35484577156603336334228515625">
        <ele>2523.800048828125</ele>
        <time>2021-07-25T13:21:54.000Z</time>
      </trkpt>
      <trkpt lat="-11.813630349934101104736328125" lon="-76.354829929769039154052734375">
        <ele>2523.800048828125</ele>
        <time>2021-07-25T13:21:57.000Z</time>
      </trkpt>
      <trkpt lat="-11.81323698721826076507568359375" lon="-76.35477620176970958709716796875">
        <ele>2524.39990234375</ele>
        <time>2021-07-25T13:22:06.000Z</time>
      </trkpt>
      <trkpt lat="-11.8128939159214496612548828125" lon="-76.35471115820109844207763671875">
        <ele>2524.60009765625</ele>
        <time>2021-07-25T13:22:14.000Z</time>
      </trkpt>
      <trkpt lat="-11.81276709772646427154541015625" lon="-76.354672014713287353515625">
        <ele>2524.800048828125</ele>
        <time>2021-07-25T13:22:17.000Z</time>
      </trkpt>
      <trkpt lat="-11.81260817684233188629150390625" lon="-76.35461040772497653961181640625">
        <ele>2525</ele>
        <time>2021-07-25T13:22:21.000Z</time>
      </trkpt>
      <trkpt lat="-11.81237398646771907806396484375" lon="-76.354479901492595672607421875">
        <ele>2525.800048828125</ele>
        <time>2021-07-25T13:22:28.000Z</time>
      </trkpt>
      <trkpt lat="-11.812349595129489898681640625" lon="-76.35445768944919109344482421875">
        <ele>2525.800048828125</ele>
        <time>2021-07-25T13:22:29.000Z</time>
      </trkpt>
      <trkpt lat="-11.81110580451786518096923828125" lon="-76.3515365123748779296875">
        <ele>2538.800048828125</ele>
        <time>2021-07-25T13:24:01.000Z</time>
      </trkpt>
      <trkpt lat="-11.81107856333255767822265625" lon="-76.35145344771444797515869140625">
        <ele>2539</ele>
        <time>2021-07-25T13:24:03.000Z</time>
      </trkpt>
      <trkpt lat="-11.81106741540133953094482421875" lon="-76.35141271166503429412841796875">
        <ele>2539</ele>
        <time>2021-07-25T13:24:04.000Z</time>
      </trkpt>
      <trkpt lat="-11.81095995940268039703369140625" lon="-76.351179778575897216796875">
        <ele>2540</ele>
        <time>2021-07-25T13:24:10.000Z</time>
      </trkpt>
      <trkpt lat="-11.81089843623340129852294921875" lon="-76.351093947887420654296875">
        <ele>2540.199951171875</ele>
        <time>2021-07-25T13:24:12.000Z</time>
      </trkpt>
      <trkpt lat="-11.8107981048524379730224609375" lon="-76.35093075223267078399658203125">
        <ele>2540.800048828125</ele>
        <time>2021-07-25T13:24:16.000Z</time>
      </trkpt>
      <trkpt lat="-11.81072451174259185791015625" lon="-76.350834779441356658935546875">
        <ele>2541.199951171875</ele>
        <time>2021-07-25T13:24:18.000Z</time>
      </trkpt>
      <trkpt lat="-11.81059568189084529876708984375" lon="-76.350600756704807281494140625">
        <ele>2541.39990234375</ele>
        <time>2021-07-25T13:24:24.000Z</time>
      </trkpt>
      <trkpt lat="-11.81056500412523746490478515625" lon="-76.35053948499262332916259765625">
        <ele>2542.39990234375</ele>
        <time>2021-07-25T13:24:26.000Z</time>
      </trkpt>
      <trkpt lat="-11.8104742281138896942138671875" lon="-76.3504104875028133392333984375">
        <ele>2543</ele>
        <time>2021-07-25T13:24:30.000Z</time>
      </trkpt>
      <trkpt lat="-11.8104386888444423675537109375" lon="-76.35034837760031223297119140625">
        <ele>2543.39990234375</ele>
        <time>2021-07-25T13:24:32.000Z</time>
      </trkpt>
      <trkpt lat="-11.81036417372524738311767578125" lon="-76.35020890273153781890869140625">
        <ele>2544.199951171875</ele>
        <time>2021-07-25T13:24:37.000Z</time>
      </trkpt>
      <trkpt lat="-11.81033198721706867218017578125" lon="-76.35015442036092281341552734375">
        <ele>2544.60009765625</ele>
        <time>2021-07-25T13:24:39.000Z</time>
      </trkpt>
      <trkpt lat="-11.81026459671556949615478515625" lon="-76.35003070347011089324951171875">
        <ele>2545.199951171875</ele>
        <time>2021-07-25T13:24:42.000Z</time>
      </trkpt>
      <trkpt lat="-11.81017993949353694915771484375" lon="-76.34991184808313846588134765625">
        <ele>2545.800048828125</ele>
        <time>2021-07-25T13:24:46.000Z</time>
      </trkpt>
      <trkpt lat="-11.8101711384952068328857421875" lon="-76.34989567101001739501953125">
        <ele>2546</ele>
        <time>2021-07-25T13:24:47.000Z</time>
      </trkpt>
      <trkpt lat="-11.81015144102275371551513671875" lon="-76.3498482294380664825439453125">
        <ele>2547</ele>
        <time>2021-07-25T13:24:50.000Z</time>
      </trkpt>
      <trkpt lat="-11.8101412989199161529541015625" lon="-76.34977220557630062103271484375">
        <ele>2547.199951171875</ele>
        <time>2021-07-25T13:24:53.000Z</time>
      </trkpt>
      <trkpt lat="-11.81007751263678073883056640625" lon="-76.349705569446086883544921875">
        <ele>2548.199951171875</ele>
        <time>2021-07-25T13:24:58.000Z</time>
      </trkpt>
      <trkpt lat="-11.810042560100555419921875" lon="-76.34969240985810756683349609375">
        <ele>2548.60009765625</ele>
        <time>2021-07-25T13:25:00.000Z</time>
      </trkpt>
      <trkpt lat="-11.8100014887750148773193359375" lon="-76.34964899159967899322509765625">
        <ele>2549.199951171875</ele>
        <time>2021-07-25T13:25:04.000Z</time>
      </trkpt>
      <trkpt lat="-11.80998480878770351409912109375" lon="-76.3496145419776439666748046875">
        <ele>2549.800048828125</ele>
        <time>2021-07-25T13:25:06.000Z</time>
      </trkpt>
      <trkpt lat="-11.80996804498136043548583984375" lon="-76.3495555333793163299560546875">
        <ele>2550.39990234375</ele>
        <time>2021-07-25T13:25:09.000Z</time>
      </trkpt>
      <trkpt lat="-11.80993820540606975555419921875" lon="-76.349472887814044952392578125">
        <ele>2551.199951171875</ele>
        <time>2021-07-25T13:25:13.000Z</time>
      </trkpt>
      <trkpt lat="-11.80993317626416683197021484375" lon="-76.34945704601705074310302734375">
        <ele>2551.39990234375</ele>
        <time>2021-07-25T13:25:14.000Z</time>
      </trkpt>
      <trkpt lat="-11.809892356395721435546875" lon="-76.34937423281371593475341796875">
        <ele>2552.199951171875</ele>
        <time>2021-07-25T13:25:19.000Z</time>
      </trkpt>
      <trkpt lat="-11.809893362224102020263671875" lon="-76.34935319423675537109375">
        <ele>2552.39990234375</ele>
        <time>2021-07-25T13:25:20.000Z</time>
      </trkpt>
      <trkpt lat="-11.8099585734307765960693359375" lon="-76.34921095333993434906005859375">
        <ele>2553.39990234375</ele>
        <time>2021-07-25T13:25:25.000Z</time>
      </trkpt>
      <trkpt lat="-11.80996754206717014312744140625" lon="-76.34918128140270709991455078125">
        <ele>2553.800048828125</ele>
        <time>2021-07-25T13:25:26.000Z</time>
      </trkpt>
      <trkpt lat="-11.8100219406187534332275390625" lon="-76.34903040714561939239501953125">
        <ele>2554.800048828125</ele>
        <time>2021-07-25T13:25:32.000Z</time>
      </trkpt>
      <trkpt lat="-11.81003074161708354949951171875" lon="-76.34901062585413455963134765625">
        <ele>2555</ele>
        <time>2021-07-25T13:25:33.000Z</time>
      </trkpt>
      <trkpt lat="-11.81005018763244152069091796875" lon="-76.34897424839437007904052734375">
        <ele>2555.800048828125</ele>
        <time>2021-07-25T13:25:36.000Z</time>
      </trkpt>
      <trkpt lat="-11.8100782670080661773681640625" lon="-76.34896469302475452423095703125">
        <ele>2556.199951171875</ele>
        <time>2021-07-25T13:25:39.000Z</time>
      </trkpt>
      <trkpt lat="-11.81010953150689601898193359375" lon="-76.3490167446434497833251953125">
        <ele>2557</ele>
        <time>2021-07-25T13:25:44.000Z</time>
      </trkpt>
      <trkpt lat="-11.809734441339969635009765625" lon="-76.34528688155114650726318359375">
        <ele>2568.39990234375</ele>
        <time>2021-07-25T13:29:35.000Z</time>
      </trkpt>
      <trkpt lat="-11.8098502792418003082275390625" lon="-76.345359385013580322265625">
        <ele>2569.199951171875</ele>
        <time>2021-07-25T13:29:38.000Z</time>
      </trkpt>
      <trkpt lat="-11.81001481600105762481689453125" lon="-76.3454339839518070220947265625">
        <ele>2570.199951171875</ele>
        <time>2021-07-25T13:29:43.000Z</time>
      </trkpt>
      <trkpt lat="-11.81004683487117290496826171875" lon="-76.34544529952108860015869140625">
        <ele>2570.199951171875</ele>
        <time>2021-07-25T13:29:44.000Z</time>
      </trkpt>
      <trkpt lat="-11.8102217651903629302978515625" lon="-76.34548452682793140411376953125">
        <ele>2571.39990234375</ele>
        <time>2021-07-25T13:29:50.000Z</time>
      </trkpt>
      <trkpt lat="-11.8103407882153987884521484375" lon="-76.34548787958920001983642578125">
        <ele>2572.39990234375</ele>
        <time>2021-07-25T13:29:56.000Z</time>
      </trkpt>
      <trkpt lat="-11.810362748801708221435546875" lon="-76.34549056179821491241455078125">
        <ele>2572.60009765625</ele>
        <time>2021-07-25T13:29:57.000Z</time>
      </trkpt>
      <trkpt lat="-11.81047447957098484039306640625" lon="-76.3455565273761749267578125">
        <ele>2573.39990234375</ele>
        <time>2021-07-25T13:30:00.000Z</time>
      </trkpt>
      <trkpt lat="-11.81051638908684253692626953125" lon="-76.34558326564729213714599609375">
        <ele>2573.60009765625</ele>
        <time>2021-07-25T13:30:01.000Z</time>
      </trkpt>
      <trkpt lat="-11.81055645458400249481201171875" lon="-76.34560539387166500091552734375">
        <ele>2573.60009765625</ele>
        <time>2021-07-25T13:30:02.000Z</time>
      </trkpt>
      <trkpt lat="-11.81077103130519390106201171875" lon="-76.345674879848957061767578125">
        <ele>2574.800048828125</ele>
        <time>2021-07-25T13:30:10.000Z</time>
      </trkpt>
      <trkpt lat="-11.8107934109866619110107421875" lon="-76.3456851057708263397216796875">
        <ele>2574.800048828125</ele>
        <time>2021-07-25T13:30:11.000Z</time>
      </trkpt>
      <trkpt lat="-11.81103430688381195068359375" lon="-76.3458101637661457061767578125">
        <ele>2575.800048828125</ele>
        <time>2021-07-25T13:30:17.000Z</time>
      </trkpt>
      <trkpt lat="-11.81104344315826892852783203125" lon="-76.34578652679920196533203125">
        <ele>2576.199951171875</ele>
        <time>2021-07-25T13:30:20.000Z</time>
      </trkpt>
      <trkpt lat="-11.81092433631420135498046875" lon="-76.3457789830863475799560546875">
        <ele>2576.199951171875</ele>
        <time>2021-07-25T13:30:26.000Z</time>
      </trkpt>
      <trkpt lat="-11.8107702769339084625244140625" lon="-76.34579817764461040496826171875">
        <ele>2576.199951171875</ele>
        <time>2021-07-25T13:30:31.000Z</time>
      </trkpt>
      <trkpt lat="-11.81063742376863956451416015625" lon="-76.3459053821861743927001953125">
        <ele>2576.39990234375</ele>
        <time>2021-07-25T13:30:36.000Z</time>
      </trkpt>
      <trkpt lat="-11.81059685535728931427001953125" lon="-76.34604946710169315338134765625">
        <ele>2576.60009765625</ele>
        <time>2021-07-25T13:30:41.000Z</time>
      </trkpt>
      <trkpt lat="-11.81061848066747188568115234375" lon="-76.346139572560787200927734375">
        <ele>2576.800048828125</ele>
        <time>2021-07-25T13:30:45.000Z</time>
      </trkpt>
      <trkpt lat="-11.81062401272356510162353515625" lon="-76.34617201052606105804443359375">
        <ele>2576.800048828125</ele>
        <time>2021-07-25T13:30:47.000Z</time>
      </trkpt>
      <trkpt lat="-11.81065737269818782806396484375" lon="-76.34629882872104644775390625">
        <ele>2576.800048828125</ele>
        <time>2021-07-25T13:30:55.000Z</time>
      </trkpt>
      <trkpt lat="-11.810681931674480438232421875" lon="-76.346412487328052520751953125">
        <ele>2577</ele>
        <time>2021-07-25T13:31:01.000Z</time>
      </trkpt>
      <trkpt lat="-11.81069525890052318572998046875" lon="-76.34657752700150012969970703125">
        <ele>2577</ele>
        <time>2021-07-25T13:31:08.000Z</time>
      </trkpt>
      <trkpt lat="-11.81068855337798595428466796875" lon="-76.34678422473371028900146484375">
        <ele>2577.800048828125</ele>
        <time>2021-07-25T13:31:15.000Z</time>
      </trkpt>
      <trkpt lat="-11.81067396886646747589111328125" lon="-76.34689670987427234649658203125">
        <ele>2578</ele>
        <time>2021-07-25T13:31:19.000Z</time>
      </trkpt>
      <trkpt lat="-11.81066684424877166748046875" lon="-76.3469537906348705291748046875">
        <ele>2578.199951171875</ele>
        <time>2021-07-25T13:31:21.000Z</time>
      </trkpt>
      <trkpt lat="-11.81061730720102787017822265625" lon="-76.34715688414871692657470703125">
        <ele>2578.800048828125</ele>
        <time>2021-07-25T13:31:29.000Z</time>
      </trkpt>
      <trkpt lat="-11.81060238741338253021240234375" lon="-76.34717456996440887451171875">
        <ele>2579</ele>
        <time>2021-07-25T13:31:30.000Z</time>
      </trkpt>
      <trkpt lat="-11.8105379305779933929443359375" lon="-76.34720331989228725433349609375">
        <ele>2579.199951171875</ele>
        <time>2021-07-25T13:31:33.000Z</time>
      </trkpt>
      <trkpt lat="-11.81049459613859653472900390625" lon="-76.34718638844788074493408203125">
        <ele>2580</ele>
        <time>2021-07-25T13:31:35.000Z</time>
      </trkpt>
      <trkpt lat="-11.8104681931436061859130859375" lon="-76.3471566326916217803955078125">
        <ele>2580.39990234375</ele>
        <time>2021-07-25T13:31:37.000Z</time>
      </trkpt>
      <trkpt lat="-11.81045872159302234649658203125" lon="-76.34712536819279193878173828125">
        <ele>2581</ele>
        <time>2021-07-25T13:31:39.000Z</time>
      </trkpt>
      <trkpt lat="-11.81045654229819774627685546875" lon="-76.347095109522342681884765625">
        <ele>2581.60009765625</ele>
        <time>2021-07-25T13:31:41.000Z</time>
      </trkpt>
      <trkpt lat="-11.81046157144010066986083984375" lon="-76.347078345715999603271484375">
        <ele>2581.800048828125</ele>
        <time>2021-07-25T13:31:42.000Z</time>
      </trkpt>
      <trkpt lat="-11.81047682650387287139892578125" lon="-76.347049176692962646484375">
        <ele>2582.199951171875</ele>
        <time>2021-07-25T13:31:44.000Z</time>
      </trkpt>
      <trkpt lat="-11.81052426807582378387451171875" lon="-76.34698069654405117034912109375">
        <ele>2583</ele>
        <time>2021-07-25T13:31:48.000Z</time>
      </trkpt>
      <trkpt lat="-11.81055410765111446380615234375" lon="-76.34693778119981288909912109375">
        <ele>2583.39990234375</ele>
        <time>2021-07-25T13:31:50.000Z</time>
      </trkpt>
      <trkpt lat="-11.81062451563775539398193359375" lon="-76.3468200154602527618408203125">
        <ele>2584.39990234375</ele>
        <time>2021-07-25T13:31:56.000Z</time>
      </trkpt>
      <trkpt lat="-11.8106348253786563873291015625" lon="-76.34680015034973621368408203125">
        <ele>2584.39990234375</ele>
        <time>2021-07-25T13:31:57.000Z</time>
      </trkpt>
      <trkpt lat="-11.81068268604576587677001953125" lon="-76.3466929458081722259521484375">
        <ele>2585.39990234375</ele>
        <time>2021-07-25T13:32:03.000Z</time>
      </trkpt>
      <trkpt lat="-11.8106929957866668701171875" lon="-76.34667945094406604766845703125">
        <ele>2585.60009765625</ele>
        <time>2021-07-25T13:32:04.000Z</time>
      </trkpt>
      <trkpt lat="-11.810731552541255950927734375" lon="-76.34660317562520503997802734375">
        <ele>2586.60009765625</ele>
        <time>2021-07-25T13:32:10.000Z</time>
      </trkpt>
      <trkpt lat="-11.8107412755489349365234375" lon="-76.34659521281719207763671875">
        <ele>2586.60009765625</ele>
        <time>2021-07-25T13:32:11.000Z</time>
      </trkpt>
      <trkpt lat="-11.810750998556613922119140625" lon="-76.3464783690869808197021484375">
        <ele>2587.60009765625</ele>
        <time>2021-07-25T13:32:17.000Z</time>
      </trkpt>
      <trkpt lat="-11.81074588559567928314208984375" lon="-76.34645196609199047088623046875">
        <ele>2587.60009765625</ele>
        <time>2021-07-25T13:32:18.000Z</time>
      </trkpt>
      <trkpt lat="-11.81067966856062412261962890625" lon="-76.34624778293073177337646484375">
        <ele>2588.800048828125</ele>
        <time>2021-07-25T13:32:25.000Z</time>
      </trkpt>
      <trkpt lat="-11.81058880873024463653564453125" lon="-76.34603597223758697509765625">
        <ele>2589.800048828125</ele>
        <time>2021-07-25T13:32:32.000Z</time>
      </trkpt>
      <trkpt lat="-11.810546815395355224609375" lon="-76.34587235748767852783203125">
        <ele>2590.800048828125</ele>
        <time>2021-07-25T13:32:38.000Z</time>
      </trkpt>
      <trkpt lat="-11.810552179813385009765625" lon="-76.34584687650203704833984375">
        <ele>2591</ele>
        <time>2021-07-25T13:32:39.000Z</time>
      </trkpt>
      <trkpt lat="-11.8105369247496128082275390625" lon="-76.3458145223557949066162109375">
        <ele>2591</ele>
        <time>2021-07-25T13:32:40.000Z</time>
      </trkpt>
      <trkpt lat="-11.8105013854801654815673828125" lon="-76.34573112241923809051513671875">
        <ele>2591.60009765625</ele>
        <time>2021-07-25T13:32:43.000Z</time>
      </trkpt>
      <trkpt lat="-11.81046743877232074737548828125" lon="-76.34565174579620361328125">
        <ele>2592.199951171875</ele>
        <time>2021-07-25T13:32:46.000Z</time>
      </trkpt>
      <trkpt lat="-11.8104303069412708282470703125" lon="-76.3455717824399471282958984375">
        <ele>2592.60009765625</ele>
        <time>2021-07-25T13:32:49.000Z</time>
      </trkpt>
      <trkpt lat="-11.810372136533260345458984375" lon="-76.3454779051244258880615234375">
        <ele>2593.199951171875</ele>
        <time>2021-07-25T13:32:52.000Z</time>
      </trkpt>
      <trkpt lat="-11.810343973338603973388671875" lon="-76.3454148732125759124755859375">
        <ele>2593.60009765625</ele>
        <time>2021-07-25T13:32:54.000Z</time>
      </trkpt>
      <trkpt lat="-11.8103303946554660797119140625" lon="-76.3452603109180927276611328125">
        <ele>2594.199951171875</ele>
        <time>2021-07-25T13:33:00.000Z</time>
      </trkpt>
      <trkpt lat="-11.810281276702880859375" lon="-76.345116309821605682373046875">
        <ele>2595.199951171875</ele>
        <time>2021-07-25T13:33:06.000Z</time>
      </trkpt>
      <trkpt lat="-11.81027767248451709747314453125" lon="-76.345093511044979095458984375">
        <ele>2595.39990234375</ele>
        <time>2021-07-25T13:33:07.000Z</time>
      </trkpt>
      <trkpt lat="-11.81025269441306591033935546875" lon="-76.3449894078075885772705078125">
        <ele>2596.39990234375</ele>
        <time>2021-07-25T13:33:11.000Z</time>
      </trkpt>
      <trkpt lat="-11.81022319011390209197998046875" lon="-76.34487885050475597381591796875">
        <ele>2597</ele>
        <time>2021-07-25T13:33:15.000Z</time>
      </trkpt>
      <trkpt lat="-11.81019720621407032012939453125" lon="-76.344796121120452880859375">
        <ele>2597.39990234375</ele>
        <time>2021-07-25T13:33:18.000Z</time>
      </trkpt>
      <trkpt lat="-11.81016862392425537109375" lon="-76.34468724019825458526611328125">
        <ele>2598.60009765625</ele>
        <time>2021-07-25T13:33:22.000Z</time>
      </trkpt>
      <trkpt lat="-11.81016602553427219390869140625" lon="-76.3446608372032642364501953125">
        <ele>2598.800048828125</ele>
        <time>2021-07-25T13:33:23.000Z</time>
      </trkpt>
      <trkpt lat="-11.81013987399637699127197265625" lon="-76.344533264636993408203125">
        <ele>2599.60009765625</ele>
        <time>2021-07-25T13:33:28.000Z</time>
      </trkpt>
      <trkpt lat="-11.8099773488938808441162109375" lon="-76.34432883001863956451416015625">
        <ele>2600.39990234375</ele>
        <time>2021-07-25T13:33:33.000Z</time>
      </trkpt>
      <trkpt lat="-11.8099515326321125030517578125" lon="-76.34428180754184722900390625">
        <ele>2600.800048828125</ele>
        <time>2021-07-25T13:33:35.000Z</time>
      </trkpt>
      <trkpt lat="-11.8098844774067401885986328125" lon="-76.34417460300028324127197265625">
        <ele>2601.800048828125</ele>
        <time>2021-07-25T13:33:40.000Z</time>
      </trkpt>
      <trkpt lat="-11.80987047962844371795654296875" lon="-76.3441585935652256011962890625">
        <ele>2602</ele>
        <time>2021-07-25T13:33:41.000Z</time>
      </trkpt>
      <trkpt lat="-11.80976050905883312225341796875" lon="-76.3440335355699062347412109375">
        <ele>2603</ele>
        <time>2021-07-25T13:33:48.000Z</time>
      </trkpt>
      <trkpt lat="-11.809743829071521759033203125" lon="-76.34401719085872173309326171875">
        <ele>2603.199951171875</ele>
        <time>2021-07-25T13:33:49.000Z</time>
      </trkpt>
      <trkpt lat="-11.8096283264458179473876953125" lon="-76.34388752281665802001953125">
        <ele>2604</ele>
        <time>2021-07-25T13:33:56.000Z</time>
      </trkpt>
      <trkpt lat="-11.80961198173463344573974609375" lon="-76.3438658975064754486083984375">
        <ele>2604.199951171875</ele>
        <time>2021-07-25T13:33:57.000Z</time>
      </trkpt>
      <trkpt lat="-11.80953872390091419219970703125" lon="-76.34378618560731410980224609375">
        <ele>2605.199951171875</ele>
        <time>2021-07-25T13:34:01.000Z</time>
      </trkpt>
      <trkpt lat="-11.8094399012625217437744140625" lon="-76.3436979241669178009033203125">
        <ele>2606</ele>
        <time>2021-07-25T13:34:06.000Z</time>
      </trkpt>
      <trkpt lat="-11.8094010092318058013916015625" lon="-76.34365945123136043548583984375">
        <ele>2606.199951171875</ele>
        <time>2021-07-25T13:34:08.000Z</time>
      </trkpt>
      <trkpt lat="-11.8093031086027622222900390625" lon="-76.34357915259897708892822265625">
        <ele>2607</ele>
        <time>2021-07-25T13:34:13.000Z</time>
      </trkpt>
      <trkpt lat="-11.8092606961727142333984375" lon="-76.3435480557382106781005859375">
        <ele>2607.39990234375</ele>
        <time>2021-07-25T13:34:15.000Z</time>
      </trkpt>
      <trkpt lat="-11.80914460681378841400146484375" lon="-76.34344470687210559844970703125">
        <ele>2608.199951171875</ele>
        <time>2021-07-25T13:34:21.000Z</time>
      </trkpt>
      <trkpt lat="-11.80912591516971588134765625" lon="-76.34342961944639682769775390625">
        <ele>2608.39990234375</ele>
        <time>2021-07-25T13:34:22.000Z</time>
      </trkpt>
      <trkpt lat="-11.8090067245066165924072265625" lon="-76.34332769550383090972900390625">
        <ele>2609.39990234375</ele>
        <time>2021-07-25T13:34:28.000Z</time>
      </trkpt>
      <trkpt lat="-11.808898262679576873779296875" lon="-76.34324303828179836273193359375">
        <ele>2610.60009765625</ele>
        <time>2021-07-25T13:34:35.000Z</time>
      </trkpt>
      <trkpt lat="-11.808784939348697662353515625" lon="-76.34312401525676250457763671875">
        <ele>2611.60009765625</ele>
        <time>2021-07-25T13:34:42.000Z</time>
      </trkpt>
      <trkpt lat="-11.80869542062282562255859375" lon="-76.3430132903158664703369140625">
        <ele>2612.60009765625</ele>
        <time>2021-07-25T13:34:49.000Z</time>
      </trkpt>
      <trkpt lat="-11.80868779309093952178955078125" lon="-76.343004405498504638671875">
        <ele>2612.800048828125</ele>
        <time>2021-07-25T13:34:50.000Z</time>
      </trkpt>
      <trkpt lat="-11.80864236317574977874755859375" lon="-76.342946402728557586669921875">
        <ele>2613.800048828125</ele>
        <time>2021-07-25T13:34:55.000Z</time>
      </trkpt>
      <trkpt lat="-11.8086276948451995849609375" lon="-76.34292771108448505401611328125">
        <ele>2614</ele>
        <time>2021-07-25T13:34:56.000Z</time>
      </trkpt>
      <trkpt lat="-11.80852501653134822845458984375" lon="-76.34279108606278896331787109375">
        <ele>2614.60009765625</ele>
        <time>2021-07-25T13:35:02.000Z</time>
      </trkpt>
      <trkpt lat="-11.80847539566457271575927734375" lon="-76.34272905997931957244873046875">
        <ele>2615</ele>
        <time>2021-07-25T13:35:04.000Z</time>
      </trkpt>
      <trkpt lat="-11.8083626590669155120849609375" lon="-76.34257726371288299560546875">
        <ele>2615.800048828125</ele>
        <time>2021-07-25T13:35:10.000Z</time>
      </trkpt>
      <trkpt lat="-11.80835151113569736480712890625" lon="-76.34255907498300075531005859375">
        <ele>2616.39990234375</ele>
        <time>2021-07-25T13:35:11.000Z</time>
      </trkpt>
      <trkpt lat="-11.80821455083787441253662109375" lon="-76.34239814244210720062255859375">
        <ele>2617</ele>
        <time>2021-07-25T13:35:17.000Z</time>
      </trkpt>
      <trkpt lat="-11.80814347229897975921630859375" lon="-76.342333517968654632568359375">
        <ele>2617.39990234375</ele>
        <time>2021-07-25T13:35:19.000Z</time>
      </trkpt>
      <trkpt lat="-11.80807993747293949127197265625" lon="-76.34227006696164608001708984375">
        <ele>2617.60009765625</ele>
        <time>2021-07-25T13:35:22.000Z</time>
      </trkpt>
      <trkpt lat="-11.8080521933734416961669921875" lon="-76.342256404459476470947265625">
        <ele>2617.800048828125</ele>
        <time>2021-07-25T13:35:23.000Z</time>
      </trkpt>
      <trkpt lat="-11.80797097273170948028564453125" lon="-76.34223251603543758392333984375">
        <ele>2618.199951171875</ele>
        <time>2021-07-25T13:35:26.000Z</time>
      </trkpt>
      <trkpt lat="-11.80791355669498443603515625" lon="-76.34225196205079555511474609375">
        <ele>2618.39990234375</ele>
        <time>2021-07-25T13:35:28.000Z</time>
      </trkpt>
      <trkpt lat="-11.8078563921153545379638671875" lon="-76.34228222072124481201171875">
        <ele>2618.60009765625</ele>
        <time>2021-07-25T13:35:30.000Z</time>
      </trkpt>
      <trkpt lat="-11.80780450813472270965576171875" lon="-76.3423045165836811065673828125">
        <ele>2618.800048828125</ele>
        <time>2021-07-25T13:35:32.000Z</time>
      </trkpt>
      <trkpt lat="-11.807708702981472015380859375" lon="-76.34237282909452915191650390625">
        <ele>2619.39990234375</ele>
        <time>2021-07-25T13:35:36.000Z</time>
      </trkpt>
      <trkpt lat="-11.80764307267963886260986328125" lon="-76.34243099950253963470458984375">
        <ele>2619.39990234375</ele>
        <time>2021-07-25T13:35:39.000Z</time>
      </trkpt>
      <trkpt lat="-11.8074708245694637298583984375" lon="-76.34257097728550434112548828125">
        <ele>2620.39990234375</ele>
        <time>2021-07-25T13:35:47.000Z</time>
      </trkpt>
      <trkpt lat="-11.8073055334389209747314453125" lon="-76.34265772998332977294921875">
        <ele>2621.60009765625</ele>
        <time>2021-07-25T13:35:54.000Z</time>
      </trkpt>
      <trkpt lat="-11.8071596883237361907958984375" lon="-76.34266619570553302764892578125">
        <ele>2622.800048828125</ele>
        <time>2021-07-25T13:36:00.000Z</time>
      </trkpt>
      <trkpt lat="-11.8070208840072154998779296875" lon="-76.3426314108073711395263671875">
        <ele>2623.800048828125</ele>
        <time>2021-07-25T13:36:06.000Z</time>
      </trkpt>
      <trkpt lat="-11.80699892342090606689453125" lon="-76.3426230289041996002197265625">
        <ele>2623.800048828125</ele>
        <time>2021-07-25T13:36:07.000Z</time>
      </trkpt>
      <trkpt lat="-11.80689431726932525634765625" lon="-76.34257852099835872650146484375">
        <ele>2625</ele>
        <time>2021-07-25T13:36:12.000Z</time>
      </trkpt>
      <trkpt lat="-11.80684737861156463623046875" lon="-76.3425683788955211639404296875">
        <ele>2625.39990234375</ele>
        <time>2021-07-25T13:36:14.000Z</time>
      </trkpt>
      <trkpt lat="-11.80675425566732883453369140625" lon="-76.34255706332623958587646484375">
        <ele>2626.199951171875</ele>
        <time>2021-07-25T13:36:18.000Z</time>
      </trkpt>
      <trkpt lat="-11.8067094124853610992431640625" lon="-76.342548765242099761962890625">
        <ele>2626.60009765625</ele>
        <time>2021-07-25T13:36:20.000Z</time>
      </trkpt>
      <trkpt lat="-11.806641183793544769287109375" lon="-76.34253292344510555267333984375">
        <ele>2627.199951171875</ele>
        <time>2021-07-25T13:36:23.000Z</time>
      </trkpt>
      <trkpt lat="-11.8065297044813632965087890625" lon="-76.34250442497432231903076171875">
        <ele>2628</ele>
        <time>2021-07-25T13:36:28.000Z</time>
      </trkpt>
      <trkpt lat="-11.806492321193218231201171875" lon="-76.34248648770153522491455078125">
        <ele>2628.199951171875</ele>
        <time>2021-07-25T13:36:30.000Z</time>
      </trkpt>
      <trkpt lat="-11.80638444609940052032470703125" lon="-76.3424449972808361053466796875">
        <ele>2629.39990234375</ele>
        <time>2021-07-25T13:36:36.000Z</time>
      </trkpt>
      <trkpt lat="-11.80627380497753620147705078125" lon="-76.34245195426046848297119140625">
        <ele>2630.199951171875</ele>
        <time>2021-07-25T13:36:42.000Z</time>
      </trkpt>
      <trkpt lat="-11.8062458932399749755859375" lon="-76.34244441054761409759521484375">
        <ele>2630.60009765625</ele>
        <time>2021-07-25T13:36:44.000Z</time>
      </trkpt>
      <trkpt lat="-11.80618780665099620819091796875" lon="-76.34241859428584575653076171875">
        <ele>2631.39990234375</ele>
        <time>2021-07-25T13:36:48.000Z</time>
      </trkpt>
      <trkpt lat="-11.80615805089473724365234375" lon="-76.34239529259502887725830078125">
        <ele>2631.800048828125</ele>
        <time>2021-07-25T13:36:51.000Z</time>
      </trkpt>
      <trkpt lat="-11.80615193210542201995849609375" lon="-76.34238087572157382965087890625">
        <ele>2631.800048828125</ele>
        <time>2021-07-25T13:36:55.000Z</time>
      </trkpt>
      <trkpt lat="-11.8064854480326175689697265625" lon="-76.34268145076930522918701171875">
        <ele>2633</ele>
        <time>2021-07-25T13:37:41.000Z</time>
      </trkpt>
      <trkpt lat="-11.80649525485932826995849609375" lon="-76.34269871748983860015869140625">
        <ele>2633</ele>
        <time>2021-07-25T13:37:42.000Z</time>
      </trkpt>
      <trkpt lat="-11.80648821406066417694091796875" lon="-76.342711709439754486083984375">
        <ele>2633.199951171875</ele>
        <time>2021-07-25T13:37:43.000Z</time>
      </trkpt>
      <trkpt lat="-11.80612276308238506317138671875" lon="-76.34243250824511051177978515625">
        <ele>2642.39990234375</ele>
        <time>2021-07-25T13:39:35.000Z</time>
      </trkpt>
      <trkpt lat="-11.8060395307838916778564453125" lon="-76.3423561491072177886962890625">
        <ele>2642.800048828125</ele>
        <time>2021-07-25T13:39:36.000Z</time>
      </trkpt>
      <trkpt lat="-11.80595981888473033905029296875" lon="-76.34228146634995937347412109375">
        <ele>2643.60009765625</ele>
        <time>2021-07-25T13:39:40.000Z</time>
      </trkpt>
      <trkpt lat="-11.8059171549975872039794921875" lon="-76.34223972447216510772705078125">
        <ele>2643.60009765625</ele>
        <time>2021-07-25T13:39:42.000Z</time>
      </trkpt>
      <trkpt lat="-11.80589444003999233245849609375" lon="-76.3422144949436187744140625">
        <ele>2643.800048828125</ele>
        <time>2021-07-25T13:39:43.000Z</time>
      </trkpt>
      <trkpt lat="-11.8057106249034404754638671875" lon="-76.34206353686749935150146484375">
        <ele>2644.60009765625</ele>
        <time>2021-07-25T13:39:48.000Z</time>
      </trkpt>
      <trkpt lat="-11.80564885027706623077392578125" lon="-76.342016346752643585205078125">
        <ele>2644.800048828125</ele>
        <time>2021-07-25T13:39:49.000Z</time>
      </trkpt>
      <trkpt lat="-11.80546511895954608917236328125" lon="-76.3418763689696788787841796875">
        <ele>2645</ele>
        <time>2021-07-25T13:39:52.000Z</time>
      </trkpt>
      <trkpt lat="-11.80538247339427471160888671875" lon="-76.3417858444154262542724609375">
        <ele>2645.39990234375</ele>
        <time>2021-07-25T13:39:54.000Z</time>
      </trkpt>
      <trkpt lat="-11.805281303822994232177734375" lon="-76.34169347584247589111328125">
        <ele>2645.60009765625</ele>
        <time>2021-07-25T13:39:56.000Z</time>
      </trkpt>
      <trkpt lat="-11.80521416477859020233154296875" lon="-76.34163287468254566192626953125">
        <ele>2645.60009765625</ele>
        <time>2021-07-25T13:39:57.000Z</time>
      </trkpt>
      <trkpt lat="-11.8050330318510532379150390625" lon="-76.34148468263447284698486328125">
        <ele>2646.199951171875</ele>
        <time>2021-07-25T13:40:00.000Z</time>
      </trkpt>
      <trkpt lat="-11.80490277707576751708984375" lon="-76.341400109231472015380859375">
        <ele>2646.800048828125</ele>
        <time>2021-07-25T13:40:03.000Z</time>
      </trkpt>
      <trkpt lat="-11.8048080615699291229248046875" lon="-76.34132576175034046173095703125">
        <ele>2647</ele>
        <time>2021-07-25T13:40:06.000Z</time>
      </trkpt>
      <trkpt lat="-11.8046360649168491363525390625" lon="-76.341156028211116790771484375">
        <ele>2647.60009765625</ele>
        <time>2021-07-25T13:40:11.000Z</time>
      </trkpt>
      <trkpt lat="-11.804591305553913116455078125" lon="-76.3411317206919193267822265625">
        <ele>2647.800048828125</ele>
        <time>2021-07-25T13:40:12.000Z</time>
      </trkpt>
      <trkpt lat="-11.80446800775825977325439453125" lon="-76.34104597382247447967529296875">
        <ele>2648</ele>
        <time>2021-07-25T13:40:15.000Z</time>
      </trkpt>
      <trkpt lat="-11.80420112796127796173095703125" lon="-76.34083659388124942779541015625">
        <ele>2648.60009765625</ele>
        <time>2021-07-25T13:40:20.000Z</time>
      </trkpt>
      <trkpt lat="-11.8041515909135341644287109375" lon="-76.3407914154231548309326171875">
        <ele>2648.60009765625</ele>
        <time>2021-07-25T13:40:21.000Z</time>
      </trkpt>
      <trkpt lat="-11.8040744774043560028076171875" lon="-76.340736262500286102294921875">
        <ele>2648.800048828125</ele>
        <time>2021-07-25T13:40:23.000Z</time>
      </trkpt>
      <trkpt lat="-11.8040412850677967071533203125" lon="-76.34071270935237407684326171875">
        <ele>2649.199951171875</ele>
        <time>2021-07-25T13:40:24.000Z</time>
      </trkpt>
      <trkpt lat="-11.8039257824420928955078125" lon="-76.3406475819647312164306640625">
        <ele>2649.39990234375</ele>
        <time>2021-07-25T13:40:28.000Z</time>
      </trkpt>
      <trkpt lat="-11.80389854125678539276123046875" lon="-76.3406241126358509063720703125">
        <ele>2649.39990234375</ele>
        <time>2021-07-25T13:40:29.000Z</time>
      </trkpt>
      <trkpt lat="-11.8037935160100460052490234375" lon="-76.34055219590663909912109375">
        <ele>2650</ele>
        <time>2021-07-25T13:40:33.000Z</time>
      </trkpt>
      <trkpt lat="-11.80374230258166790008544921875" lon="-76.34051137603819370269775390625">
        <ele>2650.199951171875</ele>
        <time>2021-07-25T13:40:35.000Z</time>
      </trkpt>
      <trkpt lat="-11.80357131175696849822998046875" lon="-76.3403022475540637969970703125">
        <ele>2650.60009765625</ele>
        <time>2021-07-25T13:40:43.000Z</time>
      </trkpt>
      <trkpt lat="-11.80347911082208156585693359375" lon="-76.34014592505991458892822265625">
        <ele>2651</ele>
        <time>2021-07-25T13:40:49.000Z</time>
      </trkpt>
      <trkpt lat="-11.80346150882542133331298828125" lon="-76.340122707188129425048828125">
        <ele>2651</ele>
        <time>2021-07-25T13:40:50.000Z</time>
      </trkpt>
      <trkpt lat="-11.8033965490758419036865234375" lon="-76.3400333561003208160400390625">
        <ele>2651.199951171875</ele>
        <time>2021-07-25T13:40:53.000Z</time>
      </trkpt>
      <trkpt lat="-11.80325112305581569671630859375" lon="-76.33973051793873310089111328125">
        <ele>2652</ele>
        <time>2021-07-25T13:41:01.000Z</time>
      </trkpt>
      <trkpt lat="-11.80322798900306224822998046875" lon="-76.33968978188931941986083984375">
        <ele>2652</ele>
        <time>2021-07-25T13:41:02.000Z</time>
      </trkpt>
      <trkpt lat="-11.8030857481062412261962890625" lon="-76.339482329785823822021484375">
        <ele>2652.800048828125</ele>
        <time>2021-07-25T13:41:08.000Z</time>
      </trkpt>
      <trkpt lat="-11.8030589260160923004150390625" lon="-76.3394466228783130645751953125">
        <ele>2653.199951171875</ele>
        <time>2021-07-25T13:41:09.000Z</time>
      </trkpt>
      <trkpt lat="-11.802848540246486663818359375" lon="-76.33922894485294818878173828125">
        <ele>2653.800048828125</ele>
        <time>2021-07-25T13:41:16.000Z</time>
      </trkpt>
      <trkpt lat="-11.8027521483600139617919921875" lon="-76.3391391746699810028076171875">
        <ele>2654.199951171875</ele>
        <time>2021-07-25T13:41:19.000Z</time>
      </trkpt>
      <trkpt lat="-11.80255006067454814910888671875" lon="-76.3389598019421100616455078125">
        <ele>2654.800048828125</ele>
        <time>2021-07-25T13:41:25.000Z</time>
      </trkpt>
      <trkpt lat="-11.80233716033399105072021484375" lon="-76.3388805091381072998046875">
        <ele>2655.199951171875</ele>
        <time>2021-07-25T13:41:31.000Z</time>
      </trkpt>
      <trkpt lat="-11.80230095051229000091552734375" lon="-76.3388679362833499908447265625">
        <ele>2655.199951171875</ele>
        <time>2021-07-25T13:41:32.000Z</time>
      </trkpt>
      <trkpt lat="-11.80207480676472187042236328125" lon="-76.3388119451701641082763671875">
        <ele>2656.199951171875</ele>
        <time>2021-07-25T13:41:38.000Z</time>
      </trkpt>
      <trkpt lat="-11.8019650876522064208984375" lon="-76.33878369815647602081298828125">
        <ele>2656.60009765625</ele>
        <time>2021-07-25T13:41:41.000Z</time>
      </trkpt>
      <trkpt lat="-11.80181915871798992156982421875" lon="-76.33874438703060150146484375">
        <ele>2657.39990234375</ele>
        <time>2021-07-25T13:41:45.000Z</time>
      </trkpt>
      <trkpt lat="-11.8016467429697513580322265625" lon="-76.338702142238616943359375">
        <ele>2657.800048828125</ele>
        <time>2021-07-25T13:41:50.000Z</time>
      </trkpt>
      <trkpt lat="-11.80151045322418212890625" lon="-76.33866702206432819366455078125">
        <ele>2658.39990234375</ele>
        <time>2021-07-25T13:41:54.000Z</time>
      </trkpt>
      <trkpt lat="-11.80136024951934814453125" lon="-76.338632404804229736328125">
        <ele>2659</ele>
        <time>2021-07-25T13:41:58.000Z</time>
      </trkpt>
      <trkpt lat="-11.801250278949737548828125" lon="-76.338614635169506072998046875">
        <ele>2659.60009765625</ele>
        <time>2021-07-25T13:42:01.000Z</time>
      </trkpt>
      <trkpt lat="-11.801109127700328826904296875" lon="-76.33859409950673580169677734375">
        <ele>2659.800048828125</ele>
        <time>2021-07-25T13:42:05.000Z</time>
      </trkpt>
      <trkpt lat="-11.8009322695434093475341796875" lon="-76.338570378720760345458984375">
        <ele>2660.60009765625</ele>
        <time>2021-07-25T13:42:10.000Z</time>
      </trkpt>
      <trkpt lat="-11.80085674859583377838134765625" lon="-76.3385645113885402679443359375">
        <ele>2660.800048828125</ele>
        <time>2021-07-25T13:42:12.000Z</time>
      </trkpt>
      <trkpt lat="-11.800568662583827972412109375" lon="-76.3385291397571563720703125">
        <ele>2661.60009765625</ele>
        <time>2021-07-25T13:42:20.000Z</time>
      </trkpt>
      <trkpt lat="-11.80053211748600006103515625" lon="-76.33852503262460231781005859375">
        <ele>2661.800048828125</ele>
        <time>2021-07-25T13:42:21.000Z</time>
      </trkpt>
      <trkpt lat="-11.80028040893375873565673828125" lon="-76.3384957797825336456298828125">
        <ele>2662.800048828125</ele>
        <time>2021-07-25T13:42:28.000Z</time>
      </trkpt>
      <trkpt lat="-11.8001051433384418487548828125" lon="-76.33848178200423717498779296875">
        <ele>2664</ele>
        <time>2021-07-25T13:42:33.000Z</time>
      </trkpt>
      <trkpt lat="-11.79996944032609462738037109375" lon="-76.3384692929685115814208984375">
        <ele>2664</ele>
        <time>2021-07-25T13:42:37.000Z</time>
      </trkpt>
      <trkpt lat="-11.799690909683704376220703125" lon="-76.33847172372043132781982421875">
        <ele>2665.199951171875</ele>
        <time>2021-07-25T13:42:45.000Z</time>
      </trkpt>
      <trkpt lat="-11.7996583878993988037109375" lon="-76.33847356773912906646728515625">
        <ele>2665.39990234375</ele>
        <time>2021-07-25T13:42:46.000Z</time>
      </trkpt>
      <trkpt lat="-11.79940835572779178619384765625" lon="-76.338487900793552398681640625">
        <ele>2666.199951171875</ele>
        <time>2021-07-25T13:42:53.000Z</time>
      </trkpt>
      <trkpt lat="-11.7993360199034214019775390625" lon="-76.33849016390740871429443359375">
        <ele>2666.39990234375</ele>
        <time>2021-07-25T13:42:55.000Z</time>
      </trkpt>
      <trkpt lat="-11.79905824363231658935546875" lon="-76.33848899044096469879150390625">
        <ele>2667.199951171875</ele>
        <time>2021-07-25T13:43:03.000Z</time>
      </trkpt>
      <trkpt lat="-11.79902605712413787841796875" lon="-76.3384837098419666290283203125">
        <ele>2667.60009765625</ele>
        <time>2021-07-25T13:43:04.000Z</time>
      </trkpt>
      <trkpt lat="-11.79883117787539958953857421875" lon="-76.33842310868203639984130859375">
        <ele>2668.39990234375</ele>
        <time>2021-07-25T13:43:11.000Z</time>
      </trkpt>
      <trkpt lat="-11.79869740270078182220458984375" lon="-76.33836225606501102447509765625">
        <ele>2669.60009765625</ele>
        <time>2021-07-25T13:43:16.000Z</time>
      </trkpt>
      <trkpt lat="-11.79867125116288661956787109375" lon="-76.33835001848638057708740234375">
        <ele>2669.800048828125</ele>
        <time>2021-07-25T13:43:17.000Z</time>
      </trkpt>
      <trkpt lat="-11.79856798611581325531005859375" lon="-76.33831649087369441986083984375">
        <ele>2670.39990234375</ele>
        <time>2021-07-25T13:43:21.000Z</time>
      </trkpt>
      <trkpt lat="-11.7985430918633937835693359375" lon="-76.33831146173179149627685546875">
        <ele>2670.60009765625</ele>
        <time>2021-07-25T13:43:22.000Z</time>
      </trkpt>
      <trkpt lat="-11.798515431582927703857421875" lon="-76.33830718696117401123046875">
        <ele>2670.800048828125</ele>
        <time>2021-07-25T13:43:23.000Z</time>
      </trkpt>
      <trkpt lat="-11.7983503080904483795166015625" lon="-76.33827927522361278533935546875">
        <ele>2671.60009765625</ele>
        <time>2021-07-25T13:43:29.000Z</time>
      </trkpt>
      <trkpt lat="-11.79815861396491527557373046875" lon="-76.33827030658721923828125">
        <ele>2672.800048828125</ele>
        <time>2021-07-25T13:43:36.000Z</time>
      </trkpt>
      <trkpt lat="-11.7979650758206844329833984375" lon="-76.33827039040625095367431640625">
        <ele>2673.60009765625</ele>
        <time>2021-07-25T13:43:43.000Z</time>
      </trkpt>
      <trkpt lat="-11.79793951101601123809814453125" lon="-76.338274665176868438720703125">
        <ele>2674</ele>
        <time>2021-07-25T13:43:44.000Z</time>
      </trkpt>
      <trkpt lat="-11.79778411053121089935302734375" lon="-76.33831028826534748077392578125">
        <ele>2674.60009765625</ele>
        <time>2021-07-25T13:43:50.000Z</time>
      </trkpt>
      <trkpt lat="-11.79770515300333499908447265625" lon="-76.33832889609038829803466796875">
        <ele>2675</ele>
        <time>2021-07-25T13:43:53.000Z</time>
      </trkpt>
      <trkpt lat="-11.79757506586611270904541015625" lon="-76.33837466128170490264892578125">
        <ele>2676</ele>
        <time>2021-07-25T13:43:58.000Z</time>
      </trkpt>
      <trkpt lat="-11.7975221760571002960205078125" lon="-76.3383941911160945892333984375">
        <ele>2676.199951171875</ele>
        <time>2021-07-25T13:44:00.000Z</time>
      </trkpt>
      <trkpt lat="-11.7973649315536022186279296875" lon="-76.338447667658329010009765625">
        <ele>2676.800048828125</ele>
        <time>2021-07-25T13:44:06.000Z</time>
      </trkpt>
      <trkpt lat="-11.797243058681488037109375" lon="-76.33849133737385272979736328125">
        <ele>2677.39990234375</ele>
        <time>2021-07-25T13:44:10.000Z</time>
      </trkpt>
      <trkpt lat="-11.7971205152571201324462890625" lon="-76.33853475563228130340576171875">
        <ele>2677.60009765625</ele>
        <time>2021-07-25T13:44:14.000Z</time>
      </trkpt>
      <trkpt lat="-11.7969062738120555877685546875" lon="-76.33860357105731964111328125">
        <ele>2678.39990234375</ele>
        <time>2021-07-25T13:44:21.000Z</time>
      </trkpt>
      <trkpt lat="-11.79687559604644775390625" lon="-76.33861606009304523468017578125">
        <ele>2678.60009765625</ele>
        <time>2021-07-25T13:44:22.000Z</time>
      </trkpt>
      <trkpt lat="-11.79665523581206798553466796875" lon="-76.3386748172342777252197265625">
        <ele>2679.39990234375</ele>
        <time>2021-07-25T13:44:29.000Z</time>
      </trkpt>
      <trkpt lat="-11.79658549837768077850341796875" lon="-76.33868931792676448822021484375">
        <ele>2679.60009765625</ele>
        <time>2021-07-25T13:44:31.000Z</time>
      </trkpt>
      <trkpt lat="-11.7963688261806964874267578125" lon="-76.3387251086533069610595703125">
        <ele>2680.199951171875</ele>
        <time>2021-07-25T13:44:37.000Z</time>
      </trkpt>
      <trkpt lat="-11.7962236516177654266357421875" lon="-76.33870909921824932098388671875">
        <ele>2680.800048828125</ele>
        <time>2021-07-25T13:44:41.000Z</time>
      </trkpt>
      <trkpt lat="-11.7960481345653533935546875" lon="-76.33866752497851848602294921875">
        <ele>2681.199951171875</ele>
        <time>2021-07-25T13:44:46.000Z</time>
      </trkpt>
      <trkpt lat="-11.795939169824123382568359375" lon="-76.3386409543454647064208984375">
        <ele>2681.800048828125</ele>
        <time>2021-07-25T13:44:49.000Z</time>
      </trkpt>
      <trkpt lat="-11.79577195085585117340087890625" lon="-76.33858672343194484710693359375">
        <ele>2682.60009765625</ele>
        <time>2021-07-25T13:44:54.000Z</time>
      </trkpt>
      <trkpt lat="-11.7956094257533550262451171875" lon="-76.3385383598506450653076171875">
        <ele>2683</ele>
        <time>2021-07-25T13:44:59.000Z</time>
      </trkpt>
      <trkpt lat="-11.7954427935183048248291015625" lon="-76.338495276868343353271484375">
        <ele>2683.199951171875</ele>
        <time>2021-07-25T13:45:04.000Z</time>
      </trkpt>
      <trkpt lat="-11.79523785598576068878173828125" lon="-76.3384387828409671783447265625">
        <ele>2684</ele>
        <time>2021-07-25T13:45:10.000Z</time>
      </trkpt>
      <trkpt lat="-11.79494851268827915191650390625" lon="-76.33836745284497737884521484375">
        <ele>2685</ele>
        <time>2021-07-25T13:45:18.000Z</time>
      </trkpt>
      <trkpt lat="-11.79491288959980010986328125" lon="-76.33835739456117153167724609375">
        <ele>2685</ele>
        <time>2021-07-25T13:45:19.000Z</time>
      </trkpt>
      <trkpt lat="-11.7945992387831211090087890625" lon="-76.33827240206301212310791015625">
        <ele>2686.199951171875</ele>
        <time>2021-07-25T13:45:28.000Z</time>
      </trkpt>
      <trkpt lat="-11.79436664097011089324951171875" lon="-76.33819981478154659271240234375">
        <ele>2687</ele>
        <time>2021-07-25T13:45:35.000Z</time>
      </trkpt>
      <trkpt lat="-11.794331185519695281982421875" lon="-76.3381920196115970611572265625">
        <ele>2687.199951171875</ele>
        <time>2021-07-25T13:45:36.000Z</time>
      </trkpt>
      <trkpt lat="-11.79413010366261005401611328125" lon="-76.33814449422061443328857421875">
        <ele>2687.800048828125</ele>
        <time>2021-07-25T13:45:42.000Z</time>
      </trkpt>
      <trkpt lat="-11.7939638905227184295654296875" lon="-76.3381008245050907135009765625">
        <ele>2688.39990234375</ele>
        <time>2021-07-25T13:45:47.000Z</time>
      </trkpt>
      <trkpt lat="-11.79386523552238941192626953125" lon="-76.33807090111076831817626953125">
        <ele>2688.60009765625</ele>
        <time>2021-07-25T13:45:50.000Z</time>
      </trkpt>
      <trkpt lat="-11.79366859607398509979248046875" lon="-76.33801943622529506683349609375">
        <ele>2689.39990234375</ele>
        <time>2021-07-25T13:45:56.000Z</time>
      </trkpt>
      <trkpt lat="-11.79360355250537395477294921875" lon="-76.338007114827632904052734375">
        <ele>2689.800048828125</ele>
        <time>2021-07-25T13:45:58.000Z</time>
      </trkpt>
      <trkpt lat="-11.79336952976882457733154296875" lon="-76.33797484450042247772216796875">
        <ele>2690.60009765625</ele>
        <time>2021-07-25T13:46:05.000Z</time>
      </trkpt>
      <trkpt lat="-11.79333566688001155853271484375" lon="-76.3379683904349803924560546875">
        <ele>2690.60009765625</ele>
        <time>2021-07-25T13:46:06.000Z</time>
      </trkpt>
      <trkpt lat="-11.79304179735481739044189453125" lon="-76.33792673237621784210205078125">
        <ele>2691.800048828125</ele>
        <time>2021-07-25T13:46:15.000Z</time>
      </trkpt>
      <trkpt lat="-11.793010197579860687255859375" lon="-76.33791952393949031829833984375">
        <ele>2692</ele>
        <time>2021-07-25T13:46:16.000Z</time>
      </trkpt>
      <trkpt lat="-11.7927404679358005523681640625" lon="-76.33790192194283008575439453125">
        <ele>2693</ele>
        <time>2021-07-25T13:46:24.000Z</time>
      </trkpt>
      <trkpt lat="-11.792704761028289794921875" lon="-76.3379030115902423858642578125">
        <ele>2693</ele>
        <time>2021-07-25T13:46:25.000Z</time>
      </trkpt>
      <trkpt lat="-11.79248456843197345733642578125" lon="-76.33787392638623714447021484375">
        <ele>2694.199951171875</ele>
        <time>2021-07-25T13:46:32.000Z</time>
      </trkpt>
      <trkpt lat="-11.79226479493081569671630859375" lon="-76.3378034345805644989013671875">
        <ele>2694.800048828125</ele>
        <time>2021-07-25T13:46:39.000Z</time>
      </trkpt>
      <trkpt lat="-11.79220394231379032135009765625" lon="-76.33779077790677547454833984375">
        <ele>2695.199951171875</ele>
        <time>2021-07-25T13:46:41.000Z</time>
      </trkpt>
      <trkpt lat="-11.79205256514251232147216796875" lon="-76.33772556670010089874267578125">
        <ele>2695.800048828125</ele>
        <time>2021-07-25T13:46:46.000Z</time>
      </trkpt>
      <trkpt lat="-11.79199405945837497711181640625" lon="-76.3376981578767299652099609375">
        <ele>2696.199951171875</ele>
        <time>2021-07-25T13:46:48.000Z</time>
      </trkpt>
      <trkpt lat="-11.79183312691748142242431640625" lon="-76.33760235272347927093505859375">
        <ele>2697.199951171875</ele>
        <time>2021-07-25T13:46:54.000Z</time>
      </trkpt>
      <trkpt lat="-11.79178677499294281005859375" lon="-76.33755524642765522003173828125">
        <ele>2697.60009765625</ele>
        <time>2021-07-25T13:46:56.000Z</time>
      </trkpt>
      <trkpt lat="-11.79167990572750568389892578125" lon="-76.33743756450712680816650390625">
        <ele>2698.39990234375</ele>
        <time>2021-07-25T13:47:01.000Z</time>
      </trkpt>
      <trkpt lat="-11.791640259325504302978515625" lon="-76.3373927213251590728759765625">
        <ele>2698.800048828125</ele>
        <time>2021-07-25T13:47:03.000Z</time>
      </trkpt>
      <trkpt lat="-11.79155820049345493316650390625" lon="-76.3373109139502048492431640625">
        <ele>2699.39990234375</ele>
        <time>2021-07-25T13:47:07.000Z</time>
      </trkpt>
      <trkpt lat="-11.7914251796901226043701171875" lon="-76.33721946738660335540771484375">
        <ele>2700.60009765625</ele>
        <time>2021-07-25T13:47:13.000Z</time>
      </trkpt>
      <trkpt lat="-11.79128612391650676727294921875" lon="-76.337091140449047088623046875">
        <ele>2701.800048828125</ele>
        <time>2021-07-25T13:47:20.000Z</time>
      </trkpt>
      <trkpt lat="-11.7912712879478931427001953125" lon="-76.3370691798627376556396484375">
        <ele>2702</ele>
        <time>2021-07-25T13:47:21.000Z</time>
      </trkpt>
      <trkpt lat="-11.79117330349981784820556640625" lon="-76.33693599142134189605712890625">
        <ele>2702.800048828125</ele>
        <time>2021-07-25T13:47:27.000Z</time>
      </trkpt>
      <trkpt lat="-11.79114011116325855255126953125" lon="-76.3368703611195087432861328125">
        <ele>2703.39990234375</ele>
        <time>2021-07-25T13:47:30.000Z</time>
      </trkpt>
      <trkpt lat="-11.7911128699779510498046875" lon="-76.3367999531328678131103515625">
        <ele>2703.800048828125</ele>
        <time>2021-07-25T13:47:33.000Z</time>
      </trkpt>
      <trkpt lat="-11.7910741455852985382080078125" lon="-76.3366998732089996337890625">
        <ele>2704.60009765625</ele>
        <time>2021-07-25T13:47:37.000Z</time>
      </trkpt>
      <trkpt lat="-11.7910600639879703521728515625" lon="-76.33667564950883388519287109375">
        <ele>2704.800048828125</ele>
        <time>2021-07-25T13:47:38.000Z</time>
      </trkpt>
      <trkpt lat="-11.791000552475452423095703125" lon="-76.3365347497165203094482421875">
        <ele>2705.800048828125</ele>
        <time>2021-07-25T13:47:44.000Z</time>
      </trkpt>
      <trkpt lat="-11.79098940454423427581787109375" lon="-76.336511112749576568603515625">
        <ele>2706</ele>
        <time>2021-07-25T13:47:45.000Z</time>
      </trkpt>
      <trkpt lat="-11.7909277975559234619140625" lon="-76.336392425000667572021484375">
        <ele>2707.199951171875</ele>
        <time>2021-07-25T13:47:50.000Z</time>
      </trkpt>
      <trkpt lat="-11.7908535338938236236572265625" lon="-76.33625437505543231964111328125">
        <ele>2708.39990234375</ele>
        <time>2021-07-25T13:47:56.000Z</time>
      </trkpt>
      <trkpt lat="-11.790747083723545074462890625" lon="-76.33611305616796016693115234375">
        <ele>2709.60009765625</ele>
        <time>2021-07-25T13:48:03.000Z</time>
      </trkpt>
      <trkpt lat="-11.79073124192655086517333984375" lon="-76.336097382009029388427734375">
        <ele>2709.60009765625</ele>
        <time>2021-07-25T13:48:04.000Z</time>
      </trkpt>
      <trkpt lat="-11.79062512703239917755126953125" lon="-76.33600928820669651031494140625">
        <ele>2710.39990234375</ele>
        <time>2021-07-25T13:48:10.000Z</time>
      </trkpt>
      <trkpt lat="-11.79060668684542179107666015625" lon="-76.3359936140477657318115234375">
        <ele>2710.60009765625</ele>
        <time>2021-07-25T13:48:11.000Z</time>
      </trkpt>
      <trkpt lat="-11.79046788252890110015869140625" lon="-76.33591725490987300872802734375">
        <ele>2711.60009765625</ele>
        <time>2021-07-25T13:48:18.000Z</time>
      </trkpt>
      <trkpt lat="-11.790421195328235626220703125" lon="-76.33589931763708591461181640625">
        <ele>2711.800048828125</ele>
        <time>2021-07-25T13:48:20.000Z</time>
      </trkpt>
      <trkpt lat="-11.790271662175655364990234375" lon="-76.3358353637158870697021484375">
        <ele>2712.800048828125</ele>
        <time>2021-07-25T13:48:27.000Z</time>
      </trkpt>
      <trkpt lat="-11.7902503721415996551513671875" lon="-76.335827820003032684326171875">
        <ele>2713</ele>
        <time>2021-07-25T13:48:28.000Z</time>
      </trkpt>
      <trkpt lat="-11.79009832441806793212890625" lon="-76.33579085581004619598388671875">
        <ele>2714</ele>
        <time>2021-07-25T13:48:35.000Z</time>
      </trkpt>
      <trkpt lat="-11.78987863473594188690185546875" lon="-76.33577828295528888702392578125">
        <ele>2715</ele>
        <time>2021-07-25T13:48:44.000Z</time>
      </trkpt>
      <trkpt lat="-11.78969959728419780731201171875" lon="-76.33575883693993091583251953125">
        <ele>2716.199951171875</ele>
        <time>2021-07-25T13:48:51.000Z</time>
      </trkpt>
      <trkpt lat="-11.7896730266511440277099609375" lon="-76.3357557356357574462890625">
        <ele>2716.199951171875</ele>
        <time>2021-07-25T13:48:52.000Z</time>
      </trkpt>
      <trkpt lat="-11.78955023176968097686767578125" lon="-76.33578130044043064117431640625">
        <ele>2716.60009765625</ele>
        <time>2021-07-25T13:48:56.000Z</time>
      </trkpt>
      <trkpt lat="-11.78945015184581279754638671875" lon="-76.33576319552958011627197265625">
        <ele>2717.199951171875</ele>
        <time>2021-07-25T13:49:00.000Z</time>
      </trkpt>
      <trkpt lat="-11.7893769778311252593994140625" lon="-76.3357377983629703521728515625">
        <ele>2717.60009765625</ele>
        <time>2021-07-25T13:49:03.000Z</time>
      </trkpt>
      <trkpt lat="-11.78928251378238201141357421875" lon="-76.33569882251322269439697265625">
        <ele>2718.199951171875</ele>
        <time>2021-07-25T13:49:07.000Z</time>
      </trkpt>
      <trkpt lat="-11.7892153747379779815673828125" lon="-76.3356573320925235748291015625">
        <ele>2718.800048828125</ele>
        <time>2021-07-25T13:49:10.000Z</time>
      </trkpt>
      <trkpt lat="-11.7891550250351428985595703125" lon="-76.3356177695095539093017578125">
        <ele>2719.39990234375</ele>
        <time>2021-07-25T13:49:13.000Z</time>
      </trkpt>
      <trkpt lat="-11.78905385546386241912841796875" lon="-76.3355483673512935638427734375">
        <ele>2720</ele>
        <time>2021-07-25T13:49:18.000Z</time>
      </trkpt>
      <trkpt lat="-11.78900876082479953765869140625" lon="-76.33552481420338153839111328125">
        <ele>2720.39990234375</ele>
        <time>2021-07-25T13:49:20.000Z</time>
      </trkpt>
      <trkpt lat="-11.78886945359408855438232421875" lon="-76.3354633748531341552734375">
        <ele>2721.199951171875</ele>
        <time>2021-07-25T13:49:26.000Z</time>
      </trkpt>
      <trkpt lat="-11.78882435895502567291259765625" lon="-76.33544250391423702239990234375">
        <ele>2721.39990234375</ele>
        <time>2021-07-25T13:49:28.000Z</time>
      </trkpt>
      <trkpt lat="-11.78866736590862274169921875" lon="-76.3353753648698329925537109375">
        <ele>2722.39990234375</ele>
        <time>2021-07-25T13:49:35.000Z</time>
      </trkpt>
      <trkpt lat="-11.788644902408123016357421875" lon="-76.33536622859537601470947265625">
        <ele>2722.60009765625</ele>
        <time>2021-07-25T13:49:36.000Z</time>
      </trkpt>
      <trkpt lat="-11.78852780722081661224365234375" lon="-76.335298754274845123291015625">
        <ele>2723.60009765625</ele>
        <time>2021-07-25T13:49:42.000Z</time>
      </trkpt>
      <trkpt lat="-11.78850970230996608734130859375" lon="-76.335292719304561614990234375">
        <ele>2723.60009765625</ele>
        <time>2021-07-25T13:49:43.000Z</time>
      </trkpt>
      <trkpt lat="-11.78837575949728488922119140625" lon="-76.33523463271558284759521484375">
        <ele>2724.60009765625</ele>
        <time>2021-07-25T13:49:50.000Z</time>
      </trkpt>
      <trkpt lat="-11.78827844560146331787109375" lon="-76.335113346576690673828125">
        <ele>2725.800048828125</ele>
        <time>2021-07-25T13:49:57.000Z</time>
      </trkpt>
      <trkpt lat="-11.7882249690592288970947265625" lon="-76.334766335785388946533203125">
        <ele>2727</ele>
        <time>2021-07-25T13:50:03.000Z</time>
      </trkpt>
      <trkpt lat="-11.788215078413486480712890625" lon="-76.3347311317920684814453125">
        <ele>2727.199951171875</ele>
        <time>2021-07-25T13:50:04.000Z</time>
      </trkpt>
      <trkpt lat="-11.7881357856094837188720703125" lon="-76.33451714180409908294677734375">
        <ele>2728.199951171875</ele>
        <time>2021-07-25T13:50:11.000Z</time>
      </trkpt>
      <trkpt lat="-11.78803159855306148529052734375" lon="-76.334380768239498138427734375">
        <ele>2729.39990234375</ele>
        <time>2021-07-25T13:50:18.000Z</time>
      </trkpt>
      <trkpt lat="-11.78801433183252811431884765625" lon="-76.33437163196504116058349609375">
        <ele>2729.39990234375</ele>
        <time>2021-07-25T13:50:19.000Z</time>
      </trkpt>
      <trkpt lat="-11.7878447659313678741455078125" lon="-76.33451378904283046722412109375">
        <ele>2730.39990234375</ele>
        <time>2021-07-25T13:50:26.000Z</time>
      </trkpt>
      <trkpt lat="-11.7876208014786243438720703125" lon="-76.33466818369925022125244140625">
        <ele>2731.60009765625</ele>
        <time>2021-07-25T13:50:35.000Z</time>
      </trkpt>
      <trkpt lat="-11.78746112622320652008056640625" lon="-76.33479324169456958770751953125">
        <ele>2732.39990234375</ele>
        <time>2021-07-25T13:50:42.000Z</time>
      </trkpt>
      <trkpt lat="-11.7873804084956645965576171875" lon="-76.334870271384716033935546875">
        <ele>2732.60009765625</ele>
        <time>2021-07-25T13:50:46.000Z</time>
      </trkpt>
      <trkpt lat="-11.7872858606278896331787109375" lon="-76.3349723629653453826904296875">
        <ele>2733.199951171875</ele>
        <time>2021-07-25T13:50:51.000Z</time>
      </trkpt>
      <trkpt lat="-11.78716910071671009063720703125" lon="-76.33508677594363689422607421875">
        <ele>2733.800048828125</ele>
        <time>2021-07-25T13:50:57.000Z</time>
      </trkpt>
      <trkpt lat="-11.78712232969701290130615234375" lon="-76.33511460386216640472412109375">
        <ele>2734</ele>
        <time>2021-07-25T13:50:59.000Z</time>
      </trkpt>
      <trkpt lat="-11.78694949485361576080322265625" lon="-76.33515383116900920867919921875">
        <ele>2734</ele>
        <time>2021-07-25T13:51:05.000Z</time>
      </trkpt>
      <trkpt lat="-11.7868453077971935272216796875" lon="-76.33508577011525630950927734375">
        <ele>2733.800048828125</ele>
        <time>2021-07-25T13:51:09.000Z</time>
      </trkpt>
      <trkpt lat="-11.7868168093264102935791015625" lon="-76.33494243957102298736572265625">
        <ele>2734.199951171875</ele>
        <time>2021-07-25T13:51:14.000Z</time>
      </trkpt>
      <trkpt lat="-11.786902807652950286865234375" lon="-76.334810592234134674072265625">
        <ele>2734.60009765625</ele>
        <time>2021-07-25T13:51:19.000Z</time>
      </trkpt>
      <trkpt lat="-11.78692661225795745849609375" lon="-76.3347882963716983795166015625">
        <ele>2734.800048828125</ele>
        <time>2021-07-25T13:51:20.000Z</time>
      </trkpt>
      <trkpt lat="-11.78711562417447566986083984375" lon="-76.33465929888188838958740234375">
        <ele>2735.60009765625</ele>
        <time>2021-07-25T13:51:27.000Z</time>
      </trkpt>
      <trkpt lat="-11.78731142543256282806396484375" lon="-76.3345603086054325103759765625">
        <ele>2735.39990234375</ele>
        <time>2021-07-25T13:51:34.000Z</time>
      </trkpt>
      <trkpt lat="-11.787393987178802490234375" lon="-76.33452166803181171417236328125">
        <ele>2735.800048828125</ele>
        <time>2021-07-25T13:51:37.000Z</time>
      </trkpt>
      <trkpt lat="-11.78752851672470569610595703125" lon="-76.33445419371128082275390625">
        <ele>2736.39990234375</ele>
        <time>2021-07-25T13:51:42.000Z</time>
      </trkpt>
      <trkpt lat="-11.78778097964823246002197265625" lon="-76.33437029086053371429443359375">
        <ele>2736.800048828125</ele>
        <time>2021-07-25T13:51:51.000Z</time>
      </trkpt>
      <trkpt lat="-11.7878109030425548553466796875" lon="-76.33436433970928192138671875">
        <ele>2737</ele>
        <time>2021-07-25T13:51:52.000Z</time>
      </trkpt>
      <trkpt lat="-11.78802631795406341552734375" lon="-76.33436392061412334442138671875">
        <ele>2737.39990234375</ele>
        <time>2021-07-25T13:51:59.000Z</time>
      </trkpt>
      <trkpt lat="-11.7880965583026409149169921875" lon="-76.3343806006014347076416015625">
        <ele>2738</ele>
        <time>2021-07-25T13:52:02.000Z</time>
      </trkpt>
      <trkpt lat="-11.78817576728761196136474609375" lon="-76.3343732245266437530517578125">
        <ele>2738.199951171875</ele>
        <time>2021-07-25T13:52:05.000Z</time>
      </trkpt>
      <trkpt lat="-11.78824969567358493804931640625" lon="-76.334352605044841766357421875">
        <ele>2738.60009765625</ele>
        <time>2021-07-25T13:52:08.000Z</time>
      </trkpt>
      <trkpt lat="-11.78829881362617015838623046875" lon="-76.334349252283573150634765625">
        <ele>2739</ele>
        <time>2021-07-25T13:52:10.000Z</time>
      </trkpt>
      <trkpt lat="-11.7883232049643993377685546875" lon="-76.33435285650193691253662109375">
        <ele>2739.199951171875</ele>
        <time>2021-07-25T13:52:11.000Z</time>
      </trkpt>
      <trkpt lat="-11.78846754133701324462890625" lon="-76.33429988287389278411865234375">
        <ele>2740.199951171875</ele>
        <time>2021-07-25T13:52:17.000Z</time>
      </trkpt>
      <trkpt lat="-11.788509450852870941162109375" lon="-76.33421287871897220611572265625">
        <ele>2740.60009765625</ele>
        <time>2021-07-25T13:52:23.000Z</time>
      </trkpt>
      <trkpt lat="-11.7885029129683971405029296875" lon="-76.33407005108892917633056640625">
        <ele>2741.199951171875</ele>
        <time>2021-07-25T13:52:27.000Z</time>
      </trkpt>
      <trkpt lat="-11.78847919218242168426513671875" lon="-76.3340369425714015960693359375">
        <ele>2741.199951171875</ele>
        <time>2021-07-25T13:52:29.000Z</time>
      </trkpt>
      <trkpt lat="-11.78841548971831798553466796875" lon="-76.334013305604457855224609375">
        <ele>2741.800048828125</ele>
        <time>2021-07-25T13:52:35.000Z</time>
      </trkpt>
      <trkpt lat="-11.7883292399346828460693359375" lon="-76.33405177854001522064208984375">
        <ele>2742.60009765625</ele>
        <time>2021-07-25T13:53:07.000Z</time>
      </trkpt>
      <trkpt lat="-11.78831239230930805206298828125" lon="-76.33405630476772785186767578125">
        <ele>2742.800048828125</ele>
        <time>2021-07-25T13:53:08.000Z</time>
      </trkpt>
      <trkpt lat="-11.78828842006623744964599609375" lon="-76.334058903157711029052734375">
        <ele>2743</ele>
        <time>2021-07-25T13:53:10.000Z</time>
      </trkpt>
      <trkpt lat="-11.78823712281882762908935546875" lon="-76.33406619541347026824951171875">
        <ele>2743.60009765625</ele>
        <time>2021-07-25T13:53:14.000Z</time>
      </trkpt>
      <trkpt lat="-11.788192950189113616943359375" lon="-76.33407424204051494598388671875">
        <ele>2744.39990234375</ele>
        <time>2021-07-25T13:53:33.000Z</time>
      </trkpt>
      <trkpt lat="-11.78816989995539188385009765625" lon="-76.33413157425820827484130859375">
        <ele>2744.60009765625</ele>
        <time>2021-07-25T13:53:38.000Z</time>
      </trkpt>
      <trkpt lat="-11.78817140869796276092529296875" lon="-76.334130652248859405517578125">
        <ele>2744.800048828125</ele>
        <time>2021-07-25T13:53:39.000Z</time>
      </trkpt>
      <trkpt lat="-11.7881803773343563079833984375" lon="-76.33422293700277805328369140625">
        <ele>2744.800048828125</ele>
        <time>2021-07-25T13:53:44.000Z</time>
      </trkpt>
      <trkpt lat="-11.7882105521857738494873046875" lon="-76.33446316234767436981201171875">
        <ele>2745</ele>
        <time>2021-07-25T13:53:47.000Z</time>
      </trkpt>
      <trkpt lat="-11.78809915669262409210205078125" lon="-76.3345864601433277130126953125">
        <ele>2745.60009765625</ele>
        <time>2021-07-25T13:53:53.000Z</time>
      </trkpt>
      <trkpt lat="-11.788051463663578033447265625" lon="-76.33461403660476207733154296875">
        <ele>2745.800048828125</ele>
        <time>2021-07-25T13:53:55.000Z</time>
      </trkpt>
      <trkpt lat="-11.78794744424521923065185546875" lon="-76.33466801606118679046630859375">
        <ele>2746.800048828125</ele>
        <time>2021-07-25T13:54:00.000Z</time>
      </trkpt>
      <trkpt lat="-11.7879156768321990966796875" lon="-76.3346964307129383087158203125">
        <ele>2746.800048828125</ele>
        <time>2021-07-25T13:54:02.000Z</time>
      </trkpt>
      <trkpt lat="-11.78780998103320598602294921875" lon="-76.33486616425216197967529296875">
        <ele>2748</ele>
        <time>2021-07-25T13:54:09.000Z</time>
      </trkpt>
      <trkpt lat="-11.78778835572302341461181640625" lon="-76.33488108403980731964111328125">
        <ele>2748.39990234375</ele>
        <time>2021-07-25T13:54:10.000Z</time>
      </trkpt>
      <trkpt lat="-11.78766195662319660186767578125" lon="-76.33495719172060489654541015625">
        <ele>2749.199951171875</ele>
        <time>2021-07-25T13:54:16.000Z</time>
      </trkpt>
      <trkpt lat="-11.787531115114688873291015625" lon="-76.335025168955326080322265625">
        <ele>2750.199951171875</ele>
        <time>2021-07-25T13:54:22.000Z</time>
      </trkpt>
      <trkpt lat="-11.78751024417579174041748046875" lon="-76.33503883145749568939208984375">
        <ele>2750.39990234375</ele>
        <time>2021-07-25T13:54:23.000Z</time>
      </trkpt>
      <trkpt lat="-11.78744654171168804168701171875" lon="-76.33512835018336772918701171875">
        <ele>2751.39990234375</ele>
        <time>2021-07-25T13:54:27.000Z</time>
      </trkpt>
      <trkpt lat="-11.7873726971447467803955078125" lon="-76.33527771569788455963134765625">
        <ele>2752</ele>
        <time>2021-07-25T13:54:32.000Z</time>
      </trkpt>
      <trkpt lat="-11.78734193556010723114013671875" lon="-76.3353347964584827423095703125">
        <ele>2752.39990234375</ele>
        <time>2021-07-25T13:54:34.000Z</time>
      </trkpt>
      <trkpt lat="-11.78719089366495609283447265625" lon="-76.33538466878235340118408203125">
        <ele>2753.39990234375</ele>
        <time>2021-07-25T13:54:41.000Z</time>
      </trkpt>
      <trkpt lat="-11.78716138936579227447509765625" lon="-76.33537293411791324615478515625">
        <ele>2753.39990234375</ele>
        <time>2021-07-25T13:54:42.000Z</time>
      </trkpt>
      <trkpt lat="-11.78688260726630687713623046875" lon="-76.3350209780037403106689453125">
        <ele>2754</ele>
        <time>2021-07-25T13:54:47.000Z</time>
      </trkpt>
      <trkpt lat="-11.78679945878684520721435546875" lon="-76.33499138988554477691650390625">
        <ele>2754.39990234375</ele>
        <time>2021-07-25T13:54:50.000Z</time>
      </trkpt>
      <trkpt lat="-11.78666283376514911651611328125" lon="-76.3349993526935577392578125">
        <ele>2755.60009765625</ele>
        <time>2021-07-25T13:54:56.000Z</time>
      </trkpt>
      <trkpt lat="-11.78664221428334712982177734375" lon="-76.3350035436451435089111328125">
        <ele>2755.800048828125</ele>
        <time>2021-07-25T13:54:57.000Z</time>
      </trkpt>
      <trkpt lat="-11.78630593232810497283935546875" lon="-76.3346801698207855224609375">
        <ele>2756.800048828125</ele>
        <time>2021-07-25T13:55:05.000Z</time>
      </trkpt>
      <trkpt lat="-11.78614684380590915679931640625" lon="-76.33465343154966831207275390625">
        <ele>2757.800048828125</ele>
        <time>2021-07-25T13:55:12.000Z</time>
      </trkpt>
      <trkpt lat="-11.78610292263329029083251953125" lon="-76.33463884703814983367919921875">
        <ele>2758.199951171875</ele>
        <time>2021-07-25T13:55:14.000Z</time>
      </trkpt>
      <trkpt lat="-11.7859725840389728546142578125" lon="-76.33457145653665065765380859375">
        <ele>2759</ele>
        <time>2021-07-25T13:55:21.000Z</time>
      </trkpt>
      <trkpt lat="-11.78595556877553462982177734375" lon="-76.33456148207187652587890625">
        <ele>2759.199951171875</ele>
        <time>2021-07-25T13:55:22.000Z</time>
      </trkpt>
      <trkpt lat="-11.7858310975134372711181640625" lon="-76.334474645555019378662109375">
        <ele>2760.199951171875</ele>
        <time>2021-07-25T13:55:29.000Z</time>
      </trkpt>
      <trkpt lat="-11.78579832427203655242919921875" lon="-76.33445687592029571533203125">
        <ele>2760.60009765625</ele>
        <time>2021-07-25T13:55:31.000Z</time>
      </trkpt>
      <trkpt lat="-11.78569355048239231109619140625" lon="-76.3344023935496807098388671875">
        <ele>2761.199951171875</ele>
        <time>2021-07-25T13:55:37.000Z</time>
      </trkpt>
      <trkpt lat="-11.7856725119054317474365234375" lon="-76.3343946821987628936767578125">
        <ele>2761.39990234375</ele>
        <time>2021-07-25T13:55:38.000Z</time>
      </trkpt>
      <trkpt lat="-11.78549272008240222930908203125" lon="-76.334339193999767303466796875">
        <ele>2762.199951171875</ele>
        <time>2021-07-25T13:55:46.000Z</time>
      </trkpt>
      <trkpt lat="-11.78547193296253681182861328125" lon="-76.33433273993432521820068359375">
        <ele>2762.39990234375</ele>
        <time>2021-07-25T13:55:47.000Z</time>
      </trkpt>
      <trkpt lat="-11.78533916361629962921142578125" lon="-76.33429133333265781402587890625">
        <ele>2763.199951171875</ele>
        <time>2021-07-25T13:55:53.000Z</time>
      </trkpt>
      <trkpt lat="-11.785302869975566864013671875" lon="-76.33427322842180728912353515625">
        <ele>2763.60009765625</ele>
        <time>2021-07-25T13:55:55.000Z</time>
      </trkpt>
      <trkpt lat="-11.78520471788942813873291015625" lon="-76.33422478102147579193115234375">
        <ele>2764.199951171875</ele>
        <time>2021-07-25T13:56:00.000Z</time>
      </trkpt>
      <trkpt lat="-11.78518828935921192169189453125" lon="-76.334212124347686767578125">
        <ele>2764.39990234375</ele>
        <time>2021-07-25T13:56:01.000Z</time>
      </trkpt>
      <trkpt lat="-11.78515367209911346435546875" lon="-76.3341931812465190887451171875">
        <ele>2764.800048828125</ele>
        <time>2021-07-25T13:56:03.000Z</time>
      </trkpt>
      <trkpt lat="-11.78512223996222019195556640625" lon="-76.334170885384082794189453125">
        <ele>2765.199951171875</ele>
        <time>2021-07-25T13:56:05.000Z</time>
      </trkpt>
      <trkpt lat="-11.78510279394686222076416015625" lon="-76.3341598212718963623046875">
        <ele>2765.39990234375</ele>
        <time>2021-07-25T13:56:06.000Z</time>
      </trkpt>
      <trkpt lat="-11.7850323021411895751953125" lon="-76.33411263115704059600830078125">
        <ele>2765.800048828125</ele>
        <time>2021-07-25T13:56:10.000Z</time>
      </trkpt>
      <trkpt lat="-11.78494538180530071258544921875" lon="-76.33406032808125019073486328125">
        <ele>2766.39990234375</ele>
        <time>2021-07-25T13:56:14.000Z</time>
      </trkpt>
      <trkpt lat="-11.7848665080964565277099609375" lon="-76.33399846963584423065185546875">
        <ele>2766.800048828125</ele>
        <time>2021-07-25T13:56:18.000Z</time>
      </trkpt>
      <trkpt lat="-11.7847987823188304901123046875" lon="-76.33394801057875156402587890625">
        <ele>2767.39990234375</ele>
        <time>2021-07-25T13:56:22.000Z</time>
      </trkpt>
      <trkpt lat="-11.78474656306207180023193359375" lon="-76.33389922790229320526123046875">
        <ele>2767.800048828125</ele>
        <time>2021-07-25T13:56:25.000Z</time>
      </trkpt>
      <trkpt lat="-11.7846633307635784149169921875" lon="-76.33382999338209629058837890625">
        <ele>2768.60009765625</ele>
        <time>2021-07-25T13:56:30.000Z</time>
      </trkpt>
      <trkpt lat="-11.78462703712284564971923828125" lon="-76.3338030874729156494140625">
        <ele>2768.800048828125</ele>
        <time>2021-07-25T13:56:32.000Z</time>
      </trkpt>
      <trkpt lat="-11.78453869186341762542724609375" lon="-76.33371792733669281005859375">
        <ele>2769.800048828125</ele>
        <time>2021-07-25T13:56:38.000Z</time>
      </trkpt>
      <trkpt lat="-11.78452494554221630096435546875" lon="-76.3337043486535549163818359375">
        <ele>2769.800048828125</ele>
        <time>2021-07-25T13:56:39.000Z</time>
      </trkpt>
      <trkpt lat="-11.78443291224539279937744140625" lon="-76.33362044580280780792236328125">
        <ele>2770.60009765625</ele>
        <time>2021-07-25T13:56:45.000Z</time>
      </trkpt>
      <trkpt lat="-11.7843733169138431549072265625" lon="-76.33358892984688282012939453125">
        <ele>2771</ele>
        <time>2021-07-25T13:56:48.000Z</time>
      </trkpt>
      <trkpt lat="-11.78428455255925655364990234375" lon="-76.33353176526725292205810546875">
        <ele>2771.60009765625</ele>
        <time>2021-07-25T13:56:53.000Z</time>
      </trkpt>
      <trkpt lat="-11.78425152786076068878173828125" lon="-76.33350661955773830413818359375">
        <ele>2772</ele>
        <time>2021-07-25T13:56:55.000Z</time>
      </trkpt>
      <trkpt lat="-11.7841557227075099945068359375" lon="-76.33342883549630641937255859375">
        <ele>2772.60009765625</ele>
        <time>2021-07-25T13:57:01.000Z</time>
      </trkpt>
      <trkpt lat="-11.78408741019666194915771484375" lon="-76.33337368257343769073486328125">
        <ele>2773.199951171875</ele>
        <time>2021-07-25T13:57:05.000Z</time>
      </trkpt>
      <trkpt lat="-11.78401918150484561920166015625" lon="-76.3333189487457275390625">
        <ele>2773.60009765625</ele>
        <time>2021-07-25T13:57:09.000Z</time>
      </trkpt>
      <trkpt lat="-11.78395095281302928924560546875" lon="-76.33326019160449504852294921875">
        <ele>2774.199951171875</ele>
        <time>2021-07-25T13:57:13.000Z</time>
      </trkpt>
      <trkpt lat="-11.7839111387729644775390625" lon="-76.3332175277173519134521484375">
        <ele>2774.60009765625</ele>
        <time>2021-07-25T13:57:16.000Z</time>
      </trkpt>
      <trkpt lat="-11.78384534083306789398193359375" lon="-76.33314033038914203643798828125">
        <ele>2775.39990234375</ele>
        <time>2021-07-25T13:57:21.000Z</time>
      </trkpt>
      <trkpt lat="-11.78378549404442310333251953125" lon="-76.33307754993438720703125">
        <ele>2775.800048828125</ele>
        <time>2021-07-25T13:57:25.000Z</time>
      </trkpt>
      <trkpt lat="-11.78372346796095371246337890625" lon="-76.3330183736979961395263671875">
        <ele>2776.39990234375</ele>
        <time>2021-07-25T13:57:29.000Z</time>
      </trkpt>
      <trkpt lat="-11.783673427999019622802734375" lon="-76.332946121692657470703125">
        <ele>2776.800048828125</ele>
        <time>2021-07-25T13:57:33.000Z</time>
      </trkpt>
      <trkpt lat="-11.7836222983896732330322265625" lon="-76.33288032375276088714599609375">
        <ele>2777.39990234375</ele>
        <time>2021-07-25T13:57:37.000Z</time>
      </trkpt>
      <trkpt lat="-11.78357611410319805145263671875" lon="-76.3328131847083568572998046875">
        <ele>2778</ele>
        <time>2021-07-25T13:57:41.000Z</time>
      </trkpt>
      <trkpt lat="-11.7835249006748199462890625" lon="-76.33273581974208354949951171875">
        <ele>2778.60009765625</ele>
        <time>2021-07-25T13:57:45.000Z</time>
      </trkpt>
      <trkpt lat="-11.7834767885506153106689453125" lon="-76.33266448974609375">
        <ele>2779</ele>
        <time>2021-07-25T13:57:49.000Z</time>
      </trkpt>
      <trkpt lat="-11.78344569168984889984130859375" lon="-76.33259349502623081207275390625">
        <ele>2779.60009765625</ele>
        <time>2021-07-25T13:57:53.000Z</time>
      </trkpt>
      <trkpt lat="-11.78341015242040157318115234375" lon="-76.3325156271457672119140625">
        <ele>2780</ele>
        <time>2021-07-25T13:57:57.000Z</time>
      </trkpt>
      <trkpt lat="-11.7833693325519561767578125" lon="-76.33244748227298259735107421875">
        <ele>2780.800048828125</ele>
        <time>2021-07-25T13:58:01.000Z</time>
      </trkpt>
      <trkpt lat="-11.78333840332925319671630859375" lon="-76.33235427550971508026123046875">
        <ele>2781.39990234375</ele>
        <time>2021-07-25T13:58:06.000Z</time>
      </trkpt>
      <trkpt lat="-11.7833104915916919708251953125" lon="-76.33230146951973438262939453125">
        <ele>2782</ele>
        <time>2021-07-25T13:58:09.000Z</time>
      </trkpt>
      <trkpt lat="-11.7832164466381072998046875" lon="-76.33222351782023906707763671875">
        <ele>2782.60009765625</ele>
        <time>2021-07-25T13:58:14.000Z</time>
      </trkpt>
      <trkpt lat="-11.78314042277634143829345703125" lon="-76.3321562111377716064453125">
        <ele>2783.199951171875</ele>
        <time>2021-07-25T13:58:18.000Z</time>
      </trkpt>
      <trkpt lat="-11.783000864088535308837890625" lon="-76.3320789299905300140380859375">
        <ele>2783.800048828125</ele>
        <time>2021-07-25T13:58:23.000Z</time>
      </trkpt>
      <trkpt lat="-11.7829554341733455657958984375" lon="-76.3320474140346050262451171875">
        <ele>2784.199951171875</ele>
        <time>2021-07-25T13:58:25.000Z</time>
      </trkpt>
      <trkpt lat="-11.78291612304747104644775390625" lon="-76.33195630274713039398193359375">
        <ele>2784.800048828125</ele>
        <time>2021-07-25T13:58:30.000Z</time>
      </trkpt>
      <trkpt lat="-11.782920062541961669921875" lon="-76.33189863525331020355224609375">
        <ele>2785.199951171875</ele>
        <time>2021-07-25T13:58:33.000Z</time>
      </trkpt>
      <trkpt lat="-11.78290891461074352264404296875" lon="-76.331798136234283447265625">
        <ele>2785.800048828125</ele>
        <time>2021-07-25T13:58:38.000Z</time>
      </trkpt>
      <trkpt lat="-11.7828918993473052978515625" lon="-76.33172102272510528564453125">
        <ele>2786.199951171875</ele>
        <time>2021-07-25T13:58:42.000Z</time>
      </trkpt>
      <trkpt lat="-11.78286633454263210296630859375" lon="-76.3316430710256099700927734375">
        <ele>2786.800048828125</ele>
        <time>2021-07-25T13:58:46.000Z</time>
      </trkpt>
      <trkpt lat="-11.7828535102307796478271484375" lon="-76.33158213458955287933349609375">
        <ele>2787.39990234375</ele>
        <time>2021-07-25T13:58:49.000Z</time>
      </trkpt>
      <trkpt lat="-11.78281302563846111297607421875" lon="-76.3314697332680225372314453125">
        <ele>2788</ele>
        <time>2021-07-25T13:58:55.000Z</time>
      </trkpt>
      <trkpt lat="-11.78281185217201709747314453125" lon="-76.3314486108720302581787109375">
        <ele>2788</ele>
        <time>2021-07-25T13:58:56.000Z</time>
      </trkpt>
      <trkpt lat="-11.7827985249459743499755859375" lon="-76.3314080424606800079345703125">
        <ele>2788.39990234375</ele>
        <time>2021-07-25T13:58:58.000Z</time>
      </trkpt>
      <trkpt lat="-11.78279240615665912628173828125" lon="-76.33138868026435375213623046875">
        <ele>2788.39990234375</ele>
        <time>2021-07-25T13:58:59.000Z</time>
      </trkpt>
      <trkpt lat="-11.78278687410056591033935546875" lon="-76.33136873133480548858642578125">
        <ele>2788.39990234375</ele>
        <time>2021-07-25T13:59:00.000Z</time>
      </trkpt>
      <trkpt lat="-11.78272434510290622711181640625" lon="-76.3312313519418239593505859375">
        <ele>2789.60009765625</ele>
        <time>2021-07-25T13:59:07.000Z</time>
      </trkpt>
      <trkpt lat="-11.78270556963980197906494140625" lon="-76.33119002915918827056884765625">
        <ele>2789.60009765625</ele>
        <time>2021-07-25T13:59:09.000Z</time>
      </trkpt>
      <trkpt lat="-11.7826808430254459381103515625" lon="-76.33112900890409946441650390625">
        <ele>2789.800048828125</ele>
        <time>2021-07-25T13:59:12.000Z</time>
      </trkpt>
      <trkpt lat="-11.782628707587718963623046875" lon="-76.33103311993181705474853515625">
        <ele>2790.60009765625</ele>
        <time>2021-07-25T13:59:17.000Z</time>
      </trkpt>
      <trkpt lat="-11.782522089779376983642578125" lon="-76.330820135772228240966796875">
        <ele>2791.39990234375</ele>
        <time>2021-07-25T13:59:27.000Z</time>
      </trkpt>
      <trkpt lat="-11.78248822689056396484375" lon="-76.330746710300445556640625">
        <ele>2791.60009765625</ele>
        <time>2021-07-25T13:59:30.000Z</time>
      </trkpt>
      <trkpt lat="-11.7824064195156097412109375" lon="-76.33057278580963611602783203125">
        <ele>2792.199951171875</ele>
        <time>2021-07-25T13:59:37.000Z</time>
      </trkpt>
      <trkpt lat="-11.78233542479574680328369140625" lon="-76.33038871921598911285400390625">
        <ele>2792.800048828125</ele>
        <time>2021-07-25T13:59:44.000Z</time>
      </trkpt>
      <trkpt lat="-11.7823220975697040557861328125" lon="-76.33035720326006412506103515625">
        <ele>2792.800048828125</ele>
        <time>2021-07-25T13:59:45.000Z</time>
      </trkpt>
      <trkpt lat="-11.78231195546686649322509765625" lon="-76.33031378500163555145263671875">
        <ele>2793</ele>
        <time>2021-07-25T13:59:46.000Z</time>
      </trkpt>
      <trkpt lat="-11.7822952754795551300048828125" lon="-76.3302225060760974884033203125">
        <ele>2793.199951171875</ele>
        <time>2021-07-25T13:59:48.000Z</time>
      </trkpt>
      <trkpt lat="-11.78225311450660228729248046875" lon="-76.33011035621166229248046875">
        <ele>2793</ele>
        <time>2021-07-25T13:59:52.000Z</time>
      </trkpt>
      <trkpt lat="-11.782203577458858489990234375" lon="-76.32986518554389476776123046875">
        <ele>2793.60009765625</ele>
        <time>2021-07-25T14:00:00.000Z</time>
      </trkpt>
      <trkpt lat="-11.78220584057271480560302734375" lon="-76.3297695480287075042724609375">
        <ele>2793.800048828125</ele>
        <time>2021-07-25T14:00:03.000Z</time>
      </trkpt>
      <trkpt lat="-11.782244145870208740234375" lon="-76.3295985572040081024169921875">
        <ele>2794.199951171875</ele>
        <time>2021-07-25T14:00:09.000Z</time>
      </trkpt>
      <trkpt lat="-11.7823619954288005828857421875" lon="-76.3293989002704620361328125">
        <ele>2794.60009765625</ele>
        <time>2021-07-25T14:00:17.000Z</time>
      </trkpt>
      <trkpt lat="-11.78237758576869964599609375" lon="-76.32936964742839336395263671875">
        <ele>2794.800048828125</ele>
        <time>2021-07-25T14:00:18.000Z</time>
      </trkpt>
      <trkpt lat="-11.78249350748956203460693359375" lon="-76.329172588884830474853515625">
        <ele>2795.199951171875</ele>
        <time>2021-07-25T14:00:25.000Z</time>
      </trkpt>
      <trkpt lat="-11.78261722438037395477294921875" lon="-76.329006962478160858154296875">
        <ele>2795.800048828125</ele>
        <time>2021-07-25T14:00:32.000Z</time>
      </trkpt>
      <trkpt lat="-11.7826372571289539337158203125" lon="-76.32898114621639251708984375">
        <ele>2796</ele>
        <time>2021-07-25T14:00:33.000Z</time>
      </trkpt>
      <trkpt lat="-11.78271059878170490264892578125" lon="-76.328870840370655059814453125">
        <ele>2796.800048828125</ele>
        <time>2021-07-25T14:00:37.000Z</time>
      </trkpt>
      <trkpt lat="-11.78282744251191616058349609375" lon="-76.32869658060371875762939453125">
        <ele>2796.800048828125</ele>
        <time>2021-07-25T14:00:43.000Z</time>
      </trkpt>
      <trkpt lat="-11.7829859443008899688720703125" lon="-76.32857789285480976104736328125">
        <ele>2797.60009765625</ele>
        <time>2021-07-25T14:00:50.000Z</time>
      </trkpt>
      <trkpt lat="-11.78304403088986873626708984375" lon="-76.32850882597267627716064453125">
        <ele>2798</ele>
        <time>2021-07-25T14:00:53.000Z</time>
      </trkpt>
      <trkpt lat="-11.78311946801841259002685546875" lon="-76.32839751429855823516845703125">
        <ele>2798</ele>
        <time>2021-07-25T14:00:57.000Z</time>
      </trkpt>
      <trkpt lat="-11.78323010914027690887451171875" lon="-76.328163407742977142333984375">
        <ele>2798.800048828125</ele>
        <time>2021-07-25T14:01:05.000Z</time>
      </trkpt>
      <trkpt lat="-11.78326531313359737396240234375" lon="-76.32807581685483455657958984375">
        <ele>2799</ele>
        <time>2021-07-25T14:01:08.000Z</time>
      </trkpt>
      <trkpt lat="-11.78335919044911861419677734375" lon="-76.32795645855367183685302734375">
        <ele>2800.199951171875</ele>
        <time>2021-07-25T14:01:13.000Z</time>
      </trkpt>
      <trkpt lat="-11.78352766670286655426025390625" lon="-76.32771556265652179718017578125">
        <ele>2801</ele>
        <time>2021-07-25T14:01:23.000Z</time>
      </trkpt>
      <trkpt lat="-11.7836192809045314788818359375" lon="-76.32745136506855487823486328125">
        <ele>2801.199951171875</ele>
        <time>2021-07-25T14:01:30.000Z</time>
      </trkpt>
      <trkpt lat="-11.783638559281826019287109375" lon="-76.327364780008792877197265625">
        <ele>2801.199951171875</ele>
        <time>2021-07-25T14:01:32.000Z</time>
      </trkpt>
      <trkpt lat="-11.78365658037364482879638671875" lon="-76.3271527178585529327392578125">
        <ele>2801.800048828125</ele>
        <time>2021-07-25T14:01:38.000Z</time>
      </trkpt>
      <trkpt lat="-11.78364635445177555084228515625" lon="-76.32688005454838275909423828125">
        <ele>2802.199951171875</ele>
        <time>2021-07-25T14:01:46.000Z</time>
      </trkpt>
      <trkpt lat="-11.7836461029946804046630859375" lon="-76.32684216834604740142822265625">
        <ele>2802.39990234375</ele>
        <time>2021-07-25T14:01:47.000Z</time>
      </trkpt>
      <trkpt lat="-11.78362791426479816436767578125" lon="-76.3265653140842914581298828125">
        <ele>2803</ele>
        <time>2021-07-25T14:01:55.000Z</time>
      </trkpt>
      <trkpt lat="-11.7836196161806583404541015625" lon="-76.32643614895641803741455078125">
        <ele>2803.39990234375</ele>
        <time>2021-07-25T14:01:59.000Z</time>
      </trkpt>
      <trkpt lat="-11.78361081518232822418212890625" lon="-76.3263089954853057861328125">
        <ele>2803.60009765625</ele>
        <time>2021-07-25T14:02:03.000Z</time>
      </trkpt>
      <trkpt lat="-11.78359556011855602264404296875" lon="-76.326095759868621826171875">
        <ele>2804.39990234375</ele>
        <time>2021-07-25T14:02:10.000Z</time>
      </trkpt>
      <trkpt lat="-11.78359656594693660736083984375" lon="-76.3260640762746334075927734375">
        <ele>2804.39990234375</ele>
        <time>2021-07-25T14:02:11.000Z</time>
      </trkpt>
      <trkpt lat="-11.78362104110419750213623046875" lon="-76.3258478231728076934814453125">
        <ele>2805.199951171875</ele>
        <time>2021-07-25T14:02:18.000Z</time>
      </trkpt>
      <trkpt lat="-11.783631183207035064697265625" lon="-76.32581890560686588287353515625">
        <ele>2805.60009765625</ele>
        <time>2021-07-25T14:02:19.000Z</time>
      </trkpt>
      <trkpt lat="-11.78368977271020412445068359375" lon="-76.32563835941255092620849609375">
        <ele>2805.39990234375</ele>
        <time>2021-07-25T14:02:25.000Z</time>
      </trkpt>
      <trkpt lat="-11.78381365723907947540283203125" lon="-76.3253365270793437957763671875">
        <ele>2806.199951171875</ele>
        <time>2021-07-25T14:02:35.000Z</time>
      </trkpt>
      <trkpt lat="-11.78385808132588863372802734375" lon="-76.32522127591073513031005859375">
        <ele>2806.60009765625</ele>
        <time>2021-07-25T14:02:39.000Z</time>
      </trkpt>
      <trkpt lat="-11.78389211185276508331298828125" lon="-76.32514097727835178375244140625">
        <ele>2806.800048828125</ele>
        <time>2021-07-25T14:02:42.000Z</time>
      </trkpt>
      <trkpt lat="-11.7840135656297206878662109375" lon="-76.324850879609584808349609375">
        <ele>2807.39990234375</ele>
        <time>2021-07-25T14:02:52.000Z</time>
      </trkpt>
      <trkpt lat="-11.78404315374791622161865234375" lon="-76.3247927092015743255615234375">
        <ele>2807.800048828125</ele>
        <time>2021-07-25T14:02:54.000Z</time>
      </trkpt>
      <trkpt lat="-11.78412261418998241424560546875" lon="-76.3246388174593448638916015625">
        <ele>2808</ele>
        <time>2021-07-25T14:03:00.000Z</time>
      </trkpt>
      <trkpt lat="-11.784231662750244140625" lon="-76.324441172182559967041015625">
        <ele>2808.60009765625</ele>
        <time>2021-07-25T14:03:08.000Z</time>
      </trkpt>
      <trkpt lat="-11.78425739519298076629638671875" lon="-76.3243464566767215728759765625">
        <ele>2808.800048828125</ele>
        <time>2021-07-25T14:03:12.000Z</time>
      </trkpt>
      <trkpt lat="-11.78425890393555164337158203125" lon="-76.32430463097989559173583984375">
        <ele>2808.60009765625</ele>
        <time>2021-07-25T14:03:14.000Z</time>
      </trkpt>
      <trkpt lat="-11.7842563055455684661865234375" lon="-76.32414017803966999053955078125">
        <ele>2809.199951171875</ele>
        <time>2021-07-25T14:03:21.000Z</time>
      </trkpt>
      <trkpt lat="-11.7842973768711090087890625" lon="-76.32386977784335613250732421875">
        <ele>2809.60009765625</ele>
        <time>2021-07-25T14:03:29.000Z</time>
      </trkpt>
      <trkpt lat="-11.7843122966587543487548828125" lon="-76.3235914148390293121337890625">
        <ele>2809.800048828125</ele>
        <time>2021-07-25T14:03:37.000Z</time>
      </trkpt>
      <trkpt lat="-11.7842839658260345458984375" lon="-76.323522515594959259033203125">
        <ele>2809.800048828125</ele>
        <time>2021-07-25T14:03:39.000Z</time>
      </trkpt>
      <trkpt lat="-11.78419151343405246734619140625" lon="-76.32329712621867656707763671875">
        <ele>2810</ele>
        <time>2021-07-25T14:03:46.000Z</time>
      </trkpt>
      <trkpt lat="-11.78438195027410984039306640625" lon="-76.32292195223271846771240234375">
        <ele>2810.60009765625</ele>
        <time>2021-07-25T14:03:56.000Z</time>
      </trkpt>
      <trkpt lat="-11.78461052477359771728515625" lon="-76.32262690924108028411865234375">
        <ele>2811</ele>
        <time>2021-07-25T14:04:04.000Z</time>
      </trkpt>
      <trkpt lat="-11.7846085131168365478515625" lon="-76.32259589619934558868408203125">
        <ele>2811.199951171875</ele>
        <time>2021-07-25T14:04:05.000Z</time>
      </trkpt>
      <trkpt lat="-11.78459032438695430755615234375" lon="-76.32246715016663074493408203125">
        <ele>2812.199951171875</ele>
        <time>2021-07-25T14:04:09.000Z</time>
      </trkpt>
      <trkpt lat="-11.78453676402568817138671875" lon="-76.32232096977531909942626953125">
        <ele>2812</ele>
        <time>2021-07-25T14:04:14.000Z</time>
      </trkpt>
      <trkpt lat="-11.784431152045726776123046875" lon="-76.32209599949419498443603515625">
        <ele>2812.800048828125</ele>
        <time>2021-07-25T14:04:22.000Z</time>
      </trkpt>
      <trkpt lat="-11.78439460694789886474609375" lon="-76.32201402448117733001708984375">
        <ele>2813.199951171875</ele>
        <time>2021-07-25T14:04:25.000Z</time>
      </trkpt>
      <trkpt lat="-11.7843402922153472900390625" lon="-76.321895420551300048828125">
        <ele>2813.800048828125</ele>
        <time>2021-07-25T14:04:30.000Z</time>
      </trkpt>
      <trkpt lat="-11.7843330837786197662353515625" lon="-76.3218429498374462127685546875">
        <ele>2814.199951171875</ele>
        <time>2021-07-25T14:04:32.000Z</time>
      </trkpt>
      <trkpt lat="-11.7843317426741123199462890625" lon="-76.32173557765781879425048828125">
        <ele>2814.800048828125</ele>
        <time>2021-07-25T14:04:36.000Z</time>
      </trkpt>
      <trkpt lat="-11.78434439934790134429931640625" lon="-76.32165913470089435577392578125">
        <ele>2815.199951171875</ele>
        <time>2021-07-25T14:04:39.000Z</time>
      </trkpt>
      <trkpt lat="-11.78436518646776676177978515625" lon="-76.32161705754697322845458984375">
        <ele>2815.800048828125</ele>
        <time>2021-07-25T14:04:41.000Z</time>
      </trkpt>
      <trkpt lat="-11.78436937741935253143310546875" lon="-76.32154363207519054412841796875">
        <ele>2816.199951171875</ele>
        <time>2021-07-25T14:04:46.000Z</time>
      </trkpt>
      <trkpt lat="-11.78437314927577972412109375" lon="-76.32147096097469329833984375">
        <ele>2817</ele>
        <time>2021-07-25T14:04:51.000Z</time>
      </trkpt>
      <trkpt lat="-11.7854103259742259979248046875" lon="-76.3192036561667919158935546875">
        <ele>2829.60009765625</ele>
        <time>2021-07-25T14:06:09.000Z</time>
      </trkpt>
      <trkpt lat="-11.78543304093182086944580078125" lon="-76.31913132034242153167724609375">
        <ele>2829.800048828125</ele>
        <time>2021-07-25T14:06:11.000Z</time>
      </trkpt>
      <trkpt lat="-11.78548802621662616729736328125" lon="-76.31908605806529521942138671875">
        <ele>2830.199951171875</ele>
        <time>2021-07-25T14:06:14.000Z</time>
      </trkpt>
      <trkpt lat="-11.7856285907328128814697265625" lon="-76.31904532201588153839111328125">
        <ele>2831</ele>
        <time>2021-07-25T14:06:21.000Z</time>
      </trkpt>
      <trkpt lat="-11.78565390408039093017578125" lon="-76.3190455734729766845703125">
        <ele>2831.199951171875</ele>
        <time>2021-07-25T14:06:22.000Z</time>
      </trkpt>
      <trkpt lat="-11.7857375554740428924560546875" lon="-76.319039203226566314697265625">
        <ele>2832</ele>
        <time>2021-07-25T14:06:26.000Z</time>
      </trkpt>
      <trkpt lat="-11.785761527717113494873046875" lon="-76.31904213689267635345458984375">
        <ele>2832.199951171875</ele>
        <time>2021-07-25T14:06:27.000Z</time>
      </trkpt>
      <trkpt lat="-11.78579262457787990570068359375" lon="-76.31903459317982196807861328125">
        <ele>2832.199951171875</ele>
        <time>2021-07-25T14:06:29.000Z</time>
      </trkpt>
      <trkpt lat="-11.7858136631548404693603515625" lon="-76.3190321624279022216796875">
        <ele>2833</ele>
        <time>2021-07-25T14:06:31.000Z</time>
      </trkpt>
      <trkpt lat="-11.785823889076709747314453125" lon="-76.31904146634042263031005859375">
        <ele>2833</ele>
        <time>2021-07-25T14:06:32.000Z</time>
      </trkpt>
      <trkpt lat="-11.78584526292979717254638671875" lon="-76.31906661204993724822998046875">
        <ele>2833.39990234375</ele>
        <time>2021-07-25T14:06:34.000Z</time>
      </trkpt>
      <trkpt lat="-11.78591432981193065643310546875" lon="-76.319152526557445526123046875">
        <ele>2834.199951171875</ele>
        <time>2021-07-25T14:06:40.000Z</time>
      </trkpt>
      <trkpt lat="-11.78593729622662067413330078125" lon="-76.319159902632236480712890625">
        <ele>2834.39990234375</ele>
        <time>2021-07-25T14:06:42.000Z</time>
      </trkpt>
      <trkpt lat="-11.78597803227603435516357421875" lon="-76.31913400255143642425537109375">
        <ele>2835</ele>
        <time>2021-07-25T14:06:48.000Z</time>
      </trkpt>
      <trkpt lat="-11.7859813012182712554931640625" lon="-76.319098882377147674560546875">
        <ele>2835.60009765625</ele>
        <time>2021-07-25T14:06:51.000Z</time>
      </trkpt>
      <trkpt lat="-11.78599781356751918792724609375" lon="-76.3190112076699733734130859375">
        <ele>2836.39990234375</ele>
        <time>2021-07-25T14:06:59.000Z</time>
      </trkpt>
      <trkpt lat="-11.7860265634953975677490234375" lon="-76.3189743272960186004638671875">
        <ele>2836.60009765625</ele>
        <time>2021-07-25T14:07:02.000Z</time>
      </trkpt>
      <trkpt lat="-11.7861583270132541656494140625" lon="-76.31893635727465152740478515625">
        <ele>2837</ele>
        <time>2021-07-25T14:07:06.000Z</time>
      </trkpt>
      <trkpt lat="-11.7863868176937103271484375" lon="-76.318854130804538726806640625">
        <ele>2837.60009765625</ele>
        <time>2021-07-25T14:07:11.000Z</time>
      </trkpt>
      <trkpt lat="-11.78641690872609615325927734375" lon="-76.3188348524272441864013671875">
        <ele>2837.800048828125</ele>
        <time>2021-07-25T14:07:12.000Z</time>
      </trkpt>
      <trkpt lat="-11.78668999113142490386962890625" lon="-76.318735443055629730224609375">
        <ele>2838.60009765625</ele>
        <time>2021-07-25T14:07:18.000Z</time>
      </trkpt>
      <trkpt lat="-11.7867088504135608673095703125" lon="-76.31872077472507953643798828125">
        <ele>2838.800048828125</ele>
        <time>2021-07-25T14:07:19.000Z</time>
      </trkpt>
      <trkpt lat="-11.7867685295641422271728515625" lon="-76.3186380453407764434814453125">
        <ele>2840.60009765625</ele>
        <time>2021-07-25T14:07:24.000Z</time>
      </trkpt>
      <trkpt lat="-11.78680666722357273101806640625" lon="-76.3185837306082248687744140625">
        <ele>2839.800048828125</ele>
        <time>2021-07-25T14:07:27.000Z</time>
      </trkpt>
      <trkpt lat="-11.78689970634877681732177734375" lon="-76.3184288330376148223876953125">
        <ele>2842</ele>
        <time>2021-07-25T14:07:41.000Z</time>
      </trkpt>
      <trkpt lat="-11.78690590895712375640869140625" lon="-76.31840846501290798187255859375">
        <ele>2842</ele>
        <time>2021-07-25T14:07:42.000Z</time>
      </trkpt>
      <trkpt lat="-11.7869063280522823333740234375" lon="-76.31823487579822540283203125">
        <ele>2842.800048828125</ele>
        <time>2021-07-25T14:07:48.000Z</time>
      </trkpt>
      <trkpt lat="-11.78690104745328426361083984375" lon="-76.3181753642857074737548828125">
        <ele>2843</ele>
        <time>2021-07-25T14:07:50.000Z</time>
      </trkpt>
      <trkpt lat="-11.786879003047943115234375" lon="-76.3179567642509937286376953125">
        <ele>2844.199951171875</ele>
        <time>2021-07-25T14:07:58.000Z</time>
      </trkpt>
      <trkpt lat="-11.7868701182305812835693359375" lon="-76.3179343007504940032958984375">
        <ele>2844.199951171875</ele>
        <time>2021-07-25T14:07:59.000Z</time>
      </trkpt>
      <trkpt lat="-11.78685293532907962799072265625" lon="-76.31779926829040050506591796875">
        <ele>2845.199951171875</ele>
        <time>2021-07-25T14:08:05.000Z</time>
      </trkpt>
      <trkpt lat="-11.78683013655245304107666015625" lon="-76.31768862716853618621826171875">
        <ele>2845.60009765625</ele>
        <time>2021-07-25T14:08:10.000Z</time>
      </trkpt>
      <trkpt lat="-11.78681622259318828582763671875" lon="-76.3175148703157901763916015625">
        <ele>2846.199951171875</ele>
        <time>2021-07-25T14:08:18.000Z</time>
      </trkpt>
      <trkpt lat="-11.78679275326430797576904296875" lon="-76.3174726255238056182861328125">
        <ele>2847</ele>
        <time>2021-07-25T14:08:23.000Z</time>
      </trkpt>
      <trkpt lat="-11.78679677657783031463623046875" lon="-76.31741001270711421966552734375">
        <ele>2849.199951171875</ele>
        <time>2021-07-25T14:08:35.000Z</time>
      </trkpt>
      <trkpt lat="-11.78682343102991580963134765625" lon="-76.317336000502109527587890625">
        <ele>2849.39990234375</ele>
        <time>2021-07-25T14:08:37.000Z</time>
      </trkpt>
      <trkpt lat="-11.7868684418499469757080078125" lon="-76.317154280841350555419921875">
        <ele>2850.39990234375</ele>
        <time>2021-07-25T14:08:43.000Z</time>
      </trkpt>
      <trkpt lat="-11.78687238134443759918212890625" lon="-76.31713508628308773040771484375">
        <ele>2850.39990234375</ele>
        <time>2021-07-25T14:08:44.000Z</time>
      </trkpt>
      <trkpt lat="-11.7868992872536182403564453125" lon="-76.31706031970679759979248046875">
        <ele>2851</ele>
        <time>2021-07-25T14:08:49.000Z</time>
      </trkpt>
      <trkpt lat="-11.78691613487899303436279296875" lon="-76.31699309684336185455322265625">
        <ele>2851.60009765625</ele>
        <time>2021-07-25T14:08:52.000Z</time>
      </trkpt>
      <trkpt lat="-11.78694002330303192138671875" lon="-76.31683652289211750030517578125">
        <ele>2852.39990234375</ele>
        <time>2021-07-25T14:08:57.000Z</time>
      </trkpt>
      <trkpt lat="-11.78695821203291416168212890625" lon="-76.31674415431916713714599609375">
        <ele>2852.60009765625</ele>
        <time>2021-07-25T14:09:00.000Z</time>
      </trkpt>
      <trkpt lat="-11.7869981937110424041748046875" lon="-76.316599734127521514892578125">
        <ele>2853.39990234375</ele>
        <time>2021-07-25T14:09:05.000Z</time>
      </trkpt>
      <trkpt lat="-11.787008084356784820556640625" lon="-76.31653041578829288482666015625">
        <ele>2853.800048828125</ele>
        <time>2021-07-25T14:09:07.000Z</time>
      </trkpt>
      <trkpt lat="-11.78703448735177516937255859375" lon="-76.31639278493821620941162109375">
        <ele>2854.39990234375</ele>
        <time>2021-07-25T14:09:12.000Z</time>
      </trkpt>
      <trkpt lat="-11.78704873658716678619384765625" lon="-76.3163621909916400909423828125">
        <ele>2854.800048828125</ele>
        <time>2021-07-25T14:09:14.000Z</time>
      </trkpt>
      <trkpt lat="-11.787053011357784271240234375" lon="-76.316307373344898223876953125">
        <ele>2854.800048828125</ele>
        <time>2021-07-25T14:09:25.000Z</time>
      </trkpt>
      <trkpt lat="-11.78707052953541278839111328125" lon="-76.31630158983170986175537109375">
        <ele>2854.800048828125</ele>
        <time>2021-07-25T14:09:26.000Z</time>
      </trkpt>
      <trkpt lat="-11.7871665023267269134521484375" lon="-76.3162398152053356170654296875">
        <ele>2855</ele>
        <time>2021-07-25T14:09:31.000Z</time>
      </trkpt>
      <trkpt lat="-11.78722727112472057342529296875" lon="-76.31619363091886043548583984375">
        <ele>2855</ele>
        <time>2021-07-25T14:09:36.000Z</time>
      </trkpt>
      <trkpt lat="-11.787237413227558135986328125" lon="-76.31619011051952838897705078125">
        <ele>2855</ele>
        <time>2021-07-25T14:09:37.000Z</time>
      </trkpt>
      <trkpt lat="-11.787303127348423004150390625" lon="-76.3161241449415683746337890625">
        <ele>2856</ele>
        <time>2021-07-25T14:09:43.000Z</time>
      </trkpt>
      <trkpt lat="-11.7873995192348957061767578125" lon="-76.31601937115192413330078125">
        <ele>2857</ele>
        <time>2021-07-25T14:09:50.000Z</time>
      </trkpt>
      <trkpt lat="-11.78756355307996273040771484375" lon="-76.3160066306591033935546875">
        <ele>2858</ele>
        <time>2021-07-25T14:09:56.000Z</time>
      </trkpt>
      <trkpt lat="-11.78759221918880939483642578125" lon="-76.315980143845081329345703125">
        <ele>2858.199951171875</ele>
        <time>2021-07-25T14:09:58.000Z</time>
      </trkpt>
      <trkpt lat="-11.7876399122178554534912109375" lon="-76.3159286789596080780029296875">
        <ele>2859</ele>
        <time>2021-07-25T14:10:02.000Z</time>
      </trkpt>
      <trkpt lat="-11.787671931087970733642578125" lon="-76.31586782634258270263671875">
        <ele>2859.800048828125</ele>
        <time>2021-07-25T14:10:06.000Z</time>
      </trkpt>
      <trkpt lat="-11.78767469711601734161376953125" lon="-76.31580940447747707366943359375">
        <ele>2860.199951171875</ele>
        <time>2021-07-25T14:10:09.000Z</time>
      </trkpt>
      <trkpt lat="-11.78765759803354740142822265625" lon="-76.315715610980987548828125">
        <ele>2860.60009765625</ele>
        <time>2021-07-25T14:10:13.000Z</time>
      </trkpt>
      <trkpt lat="-11.78764636628329753875732421875" lon="-76.31560572423040866851806640625">
        <ele>2861.199951171875</ele>
        <time>2021-07-25T14:10:18.000Z</time>
      </trkpt>
      <trkpt lat="-11.7876305244863033294677734375" lon="-76.31553146056830883026123046875">
        <ele>2861.60009765625</ele>
        <time>2021-07-25T14:10:22.000Z</time>
      </trkpt>
      <trkpt lat="-11.7875969968736171722412109375" lon="-76.315447725355625152587890625">
        <ele>2862.39990234375</ele>
        <time>2021-07-25T14:10:27.000Z</time>
      </trkpt>
      <trkpt lat="-11.78756120614707469940185546875" lon="-76.31535552442073822021484375">
        <ele>2864.199951171875</ele>
        <time>2021-07-25T14:10:41.000Z</time>
      </trkpt>
      <trkpt lat="-11.7874880321323871612548828125" lon="-76.3152001239359378814697265625">
        <ele>2865.199951171875</ele>
        <time>2021-07-25T14:10:47.000Z</time>
      </trkpt>
      <trkpt lat="-11.78747789002954959869384765625" lon="-76.31517590023577213287353515625">
        <ele>2865.39990234375</ele>
        <time>2021-07-25T14:10:48.000Z</time>
      </trkpt>
      <trkpt lat="-11.7873861081898212432861328125" lon="-76.315040029585361480712890625">
        <ele>2866.39990234375</ele>
        <time>2021-07-25T14:10:54.000Z</time>
      </trkpt>
      <trkpt lat="-11.7873488925397396087646484375" lon="-76.3149929232895374298095703125">
        <ele>2866.60009765625</ele>
        <time>2021-07-25T14:10:56.000Z</time>
      </trkpt>
      <trkpt lat="-11.78728762082755565643310546875" lon="-76.31485604681074619293212890625">
        <ele>2867.60009765625</ele>
        <time>2021-07-25T14:11:02.000Z</time>
      </trkpt>
      <trkpt lat="-11.78726783953607082366943359375" lon="-76.31479787640273571014404296875">
        <ele>2868</ele>
        <time>2021-07-25T14:11:05.000Z</time>
      </trkpt>
      <trkpt lat="-11.787238754332065582275390625" lon="-76.3146955333650112152099609375">
        <ele>2868.60009765625</ele>
        <time>2021-07-25T14:11:10.000Z</time>
      </trkpt>
      <trkpt lat="-11.78723799996078014373779296875" lon="-76.314658485352993011474609375">
        <ele>2869</ele>
        <time>2021-07-25T14:11:12.000Z</time>
      </trkpt>
      <trkpt lat="-11.78724202327430248260498046875" lon="-76.3145620934665203094482421875">
        <ele>2869.800048828125</ele>
        <time>2021-07-25T14:11:17.000Z</time>
      </trkpt>
      <trkpt lat="-11.7872540093958377838134765625" lon="-76.31452672183513641357421875">
        <ele>2870</ele>
        <time>2021-07-25T14:11:19.000Z</time>
      </trkpt>
      <trkpt lat="-11.7872778140008449554443359375" lon="-76.31443820893764495849609375">
        <ele>2870.800048828125</ele>
        <time>2021-07-25T14:11:24.000Z</time>
      </trkpt>
      <trkpt lat="-11.78728208877146244049072265625" lon="-76.31441884674131870269775390625">
        <ele>2871</ele>
        <time>2021-07-25T14:11:25.000Z</time>
      </trkpt>
      <trkpt lat="-11.78733372129499912261962890625" lon="-76.3143146596848964691162109375">
        <ele>2871.800048828125</ele>
        <time>2021-07-25T14:11:31.000Z</time>
      </trkpt>
      <trkpt lat="-11.7873438633978366851806640625" lon="-76.3142955489456653594970703125">
        <ele>2871.800048828125</ele>
        <time>2021-07-25T14:11:32.000Z</time>
      </trkpt>
      <trkpt lat="-11.78742022253572940826416015625" lon="-76.314183063805103302001953125">
        <ele>2873</ele>
        <time>2021-07-25T14:11:38.000Z</time>
      </trkpt>
      <trkpt lat="-11.7874984256923198699951171875" lon="-76.31407988257706165313720703125">
        <ele>2874</ele>
        <time>2021-07-25T14:11:45.000Z</time>
      </trkpt>
      <trkpt lat="-11.78765491582453250885009765625" lon="-76.3139951415359973907470703125">
        <ele>2875.199951171875</ele>
        <time>2021-07-25T14:11:51.000Z</time>
      </trkpt>
      <trkpt lat="-11.78792531602084636688232421875" lon="-76.31386849097907543182373046875">
        <ele>2876</ele>
        <time>2021-07-25T14:11:58.000Z</time>
      </trkpt>
      <trkpt lat="-11.78795683197677135467529296875" lon="-76.31385206244885921478271484375">
        <ele>2876.199951171875</ele>
        <time>2021-07-25T14:11:59.000Z</time>
      </trkpt>
      <trkpt lat="-11.78810737095773220062255859375" lon="-76.313761286437511444091796875">
        <ele>2877.39990234375</ele>
        <time>2021-07-25T14:12:04.000Z</time>
      </trkpt>
      <trkpt lat="-11.78815648891031742095947265625" lon="-76.31373236887156963348388671875">
        <ele>2877.800048828125</ele>
        <time>2021-07-25T14:12:06.000Z</time>
      </trkpt>
      <trkpt lat="-11.7883228696882724761962890625" lon="-76.3136404193937778472900390625">
        <ele>2878.199951171875</ele>
        <time>2021-07-25T14:12:11.000Z</time>
      </trkpt>
      <trkpt lat="-11.788364946842193603515625" lon="-76.31361954845488071441650390625">
        <ele>2878.39990234375</ele>
        <time>2021-07-25T14:12:12.000Z</time>
      </trkpt>
      <trkpt lat="-11.78858019411563873291015625" lon="-76.31350052542984485626220703125">
        <ele>2878.800048828125</ele>
        <time>2021-07-25T14:12:19.000Z</time>
      </trkpt>
      <trkpt lat="-11.78867013193666934967041015625" lon="-76.313436068594455718994140625">
        <ele>2879.39990234375</ele>
        <time>2021-07-25T14:12:23.000Z</time>
      </trkpt>
      <trkpt lat="-11.78876132704317569732666015625" lon="-76.31337177939713001251220703125">
        <ele>2880.199951171875</ele>
        <time>2021-07-25T14:12:28.000Z</time>
      </trkpt>
      <trkpt lat="-11.7887768335640430450439453125" lon="-76.31336607970297336578369140625">
        <ele>2880.39990234375</ele>
        <time>2021-07-25T14:12:29.000Z</time>
      </trkpt>
      <trkpt lat="-11.7888841219246387481689453125" lon="-76.31328410468995571136474609375">
        <ele>2881.199951171875</ele>
        <time>2021-07-25T14:12:36.000Z</time>
      </trkpt>
      <trkpt lat="-11.788914464414119720458984375" lon="-76.3132545165717601776123046875">
        <ele>2881.60009765625</ele>
        <time>2021-07-25T14:12:38.000Z</time>
      </trkpt>
      <trkpt lat="-11.78899216465651988983154296875" lon="-76.3131884671747684478759765625">
        <ele>2882</ele>
        <time>2021-07-25T14:12:43.000Z</time>
      </trkpt>
      <trkpt lat="-11.789055950939655303955078125" lon="-76.3131482340395450592041015625">
        <ele>2882.60009765625</ele>
        <time>2021-07-25T14:12:47.000Z</time>
      </trkpt>
      <trkpt lat="-11.78913180716335773468017578125" lon="-76.31310045719146728515625">
        <ele>2883.800048828125</ele>
        <time>2021-07-25T14:12:51.000Z</time>
      </trkpt>
      <trkpt lat="-11.78922669030725955963134765625" lon="-76.3130399398505687713623046875">
        <ele>2884.800048828125</ele>
        <time>2021-07-25T14:12:56.000Z</time>
      </trkpt>
      <trkpt lat="-11.78930615074932575225830078125" lon="-76.31298101507127285003662109375">
        <ele>2885</ele>
        <time>2021-07-25T14:13:01.000Z</time>
      </trkpt>
      <trkpt lat="-11.78941997699439525604248046875" lon="-76.31289484910666942596435546875">
        <ele>2885.800048828125</ele>
        <time>2021-07-25T14:13:09.000Z</time>
      </trkpt>
      <trkpt lat="-11.78944143466651439666748046875" lon="-76.31287490017712116241455078125">
        <ele>2885.800048828125</ele>
        <time>2021-07-25T14:13:11.000Z</time>
      </trkpt>
      <trkpt lat="-11.78952123038470745086669921875" lon="-76.31277280859649181365966796875">
        <ele>2886.39990234375</ele>
        <time>2021-07-25T14:13:18.000Z</time>
      </trkpt>
      <trkpt lat="-11.7895652353763580322265625" lon="-76.31266317330300807952880859375">
        <ele>2887</ele>
        <time>2021-07-25T14:13:23.000Z</time>
      </trkpt>
      <trkpt lat="-11.78958258591592311859130859375" lon="-76.31259125657379627227783203125">
        <ele>2887</ele>
        <time>2021-07-25T14:13:26.000Z</time>
      </trkpt>
      <trkpt lat="-11.78960136137902736663818359375" lon="-76.3123553059995174407958984375">
        <ele>2887.60009765625</ele>
        <time>2021-07-25T14:13:35.000Z</time>
      </trkpt>
      <trkpt lat="-11.78957722149789333343505859375" lon="-76.31222345866262912750244140625">
        <ele>2888</ele>
        <time>2021-07-25T14:13:40.000Z</time>
      </trkpt>
      <trkpt lat="-11.78957068361341953277587890625" lon="-76.31219965405762195587158203125">
        <ele>2888.199951171875</ele>
        <time>2021-07-25T14:13:41.000Z</time>
      </trkpt>
      <trkpt lat="-11.78948217071592807769775390625" lon="-76.31199329160153865814208984375">
        <ele>2888.60009765625</ele>
        <time>2021-07-25T14:13:49.000Z</time>
      </trkpt>
      <trkpt lat="-11.78938326425850391387939453125" lon="-76.31189321167767047882080078125">
        <ele>2888.60009765625</ele>
        <time>2021-07-25T14:13:54.000Z</time>
      </trkpt>
      <trkpt lat="-11.78925921209156513214111328125" lon="-76.311850212514400482177734375">
        <ele>2888.800048828125</ele>
        <time>2021-07-25T14:13:59.000Z</time>
      </trkpt>
      <trkpt lat="-11.78902678191661834716796875" lon="-76.311791874468326568603515625">
        <ele>2889</ele>
        <time>2021-07-25T14:14:07.000Z</time>
      </trkpt>
      <trkpt lat="-11.78897405974566936492919921875" lon="-76.31177066825330257415771484375">
        <ele>2889.199951171875</ele>
        <time>2021-07-25T14:14:09.000Z</time>
      </trkpt>
      <trkpt lat="-11.788839362561702728271484375" lon="-76.31173127330839633941650390625">
        <ele>2889.60009765625</ele>
        <time>2021-07-25T14:14:14.000Z</time>
      </trkpt>
      <trkpt lat="-11.78865739144384860992431640625" lon="-76.31167427636682987213134765625">
        <ele>2890</ele>
        <time>2021-07-25T14:14:21.000Z</time>
      </trkpt>
      <trkpt lat="-11.78857172839343547821044921875" lon="-76.3116498850286006927490234375">
        <ele>2890.199951171875</ele>
        <time>2021-07-25T14:14:24.000Z</time>
      </trkpt>
      <trkpt lat="-11.7883996479213237762451171875" lon="-76.31159548647701740264892578125">
        <ele>2891</ele>
        <time>2021-07-25T14:14:30.000Z</time>
      </trkpt>
      <trkpt lat="-11.78829780779778957366943359375" lon="-76.31156556308269500732421875">
        <ele>2891.199951171875</ele>
        <time>2021-07-25T14:14:33.000Z</time>
      </trkpt>
      <trkpt lat="-11.7881414853036403656005859375" lon="-76.3115214742720127105712890625">
        <ele>2891.60009765625</ele>
        <time>2021-07-25T14:14:38.000Z</time>
      </trkpt>
      <trkpt lat="-11.78794275037944316864013671875" lon="-76.3114540837705135345458984375">
        <ele>2892.199951171875</ele>
        <time>2021-07-25T14:14:45.000Z</time>
      </trkpt>
      <trkpt lat="-11.78785775788128376007080078125" lon="-76.31143145263195037841796875">
        <ele>2892.39990234375</ele>
        <time>2021-07-25T14:14:48.000Z</time>
      </trkpt>
      <trkpt lat="-11.78771861828863620758056640625" lon="-76.31139163859188556671142578125">
        <ele>2893.39990234375</ele>
        <time>2021-07-25T14:14:53.000Z</time>
      </trkpt>
      <trkpt lat="-11.78764016367495059967041015625" lon="-76.31136682815849781036376953125">
        <ele>2893.60009765625</ele>
        <time>2021-07-25T14:14:56.000Z</time>
      </trkpt>
      <trkpt lat="-11.787423156201839447021484375" lon="-76.311307065188884735107421875">
        <ele>2894.39990234375</ele>
        <time>2021-07-25T14:15:04.000Z</time>
      </trkpt>
      <trkpt lat="-11.78739172406494617462158203125" lon="-76.31130128167569637298583984375">
        <ele>2894.60009765625</ele>
        <time>2021-07-25T14:15:05.000Z</time>
      </trkpt>
      <trkpt lat="-11.78715351037681102752685546875" lon="-76.3112710230052471160888671875">
        <ele>2895.39990234375</ele>
        <time>2021-07-25T14:15:13.000Z</time>
      </trkpt>
      <trkpt lat="-11.787091232836246490478515625" lon="-76.3112633116543292999267578125">
        <ele>2895.60009765625</ele>
        <time>2021-07-25T14:15:15.000Z</time>
      </trkpt>
      <trkpt lat="-11.7868748120963573455810546875" lon="-76.31123774684965610504150390625">
        <ele>2896.199951171875</ele>
        <time>2021-07-25T14:15:22.000Z</time>
      </trkpt>
      <trkpt lat="-11.78681102581322193145751953125" lon="-76.3112257607281208038330078125">
        <ele>2896.800048828125</ele>
        <time>2021-07-25T14:15:24.000Z</time>
      </trkpt>
      <trkpt lat="-11.7866213433444499969482421875" lon="-76.31118510849773883819580078125">
        <ele>2897.39990234375</ele>
        <time>2021-07-25T14:15:30.000Z</time>
      </trkpt>
      <trkpt lat="-11.78645320236682891845703125" lon="-76.31113565526902675628662109375">
        <ele>2898</ele>
        <time>2021-07-25T14:15:36.000Z</time>
      </trkpt>
      <trkpt lat="-11.78621113300323486328125" lon="-76.3110537640750408172607421875">
        <ele>2899</ele>
        <time>2021-07-25T14:15:44.000Z</time>
      </trkpt>
      <trkpt lat="-11.7859839834272861480712890625" lon="-76.31097706966102123260498046875">
        <ele>2900</ele>
        <time>2021-07-25T14:15:52.000Z</time>
      </trkpt>
      <trkpt lat="-11.78595657460391521453857421875" lon="-76.3109645806252956390380859375">
        <ele>2900</ele>
        <time>2021-07-25T14:15:53.000Z</time>
      </trkpt>
      <trkpt lat="-11.78574669174849987030029296875" lon="-76.310881264507770538330078125">
        <ele>2901</ele>
        <time>2021-07-25T14:16:00.000Z</time>
      </trkpt>
      <trkpt lat="-11.7856572568416595458984375" lon="-76.31083709187805652618408203125">
        <ele>2901.39990234375</ele>
        <time>2021-07-25T14:16:03.000Z</time>
      </trkpt>
      <trkpt lat="-11.7855772934854030609130859375" lon="-76.310754530131816864013671875">
        <ele>2901.199951171875</ele>
        <time>2021-07-25T14:16:08.000Z</time>
      </trkpt>
      <trkpt lat="-11.7853898741304874420166015625" lon="-76.31058328785002231597900390625">
        <ele>2901.800048828125</ele>
        <time>2021-07-25T14:16:16.000Z</time>
      </trkpt>
      <trkpt lat="-11.78521393798291683197021484375" lon="-76.31036753766238689422607421875">
        <ele>2902</ele>
        <time>2021-07-25T14:16:24.000Z</time>
      </trkpt>
      <trkpt lat="-11.7850859463214874267578125" lon="-76.310238540172576904296875">
        <ele>2902.199951171875</ele>
        <time>2021-07-25T14:16:30.000Z</time>
      </trkpt>
      <trkpt lat="-11.78501696325838565826416015625" lon="-76.3101827166974544525146484375">
        <ele>2902.39990234375</ele>
        <time>2021-07-25T14:16:33.000Z</time>
      </trkpt>
      <trkpt lat="-11.7849054001271724700927734375" lon="-76.310106776654720306396484375">
        <ele>2903.199951171875</ele>
        <time>2021-07-25T14:16:38.000Z</time>
      </trkpt>
      <trkpt lat="-11.78438077680766582489013671875" lon="-76.308916546404361724853515625">
        <ele>2905.60009765625</ele>
        <time>2021-07-25T14:17:12.000Z</time>
      </trkpt>
      <trkpt lat="-11.78427885286509990692138671875" lon="-76.30883314646780490875244140625">
        <ele>2905.60009765625</ele>
        <time>2021-07-25T14:17:15.000Z</time>
      </trkpt>
      <trkpt lat="-11.7842060141265392303466796875" lon="-76.30883147008717060089111328125">
        <ele>2905.800048828125</ele>
        <time>2021-07-25T14:17:17.000Z</time>
      </trkpt>
      <trkpt lat="-11.7838392220437526702880859375" lon="-76.3089877925813198089599609375">
        <ele>2906</ele>
        <time>2021-07-25T14:17:26.000Z</time>
      </trkpt>
      <trkpt lat="-11.78367150016129016876220703125" lon="-76.30862343125045299530029296875">
        <ele>2906.39990234375</ele>
        <time>2021-07-25T14:17:35.000Z</time>
      </trkpt>
      <trkpt lat="-11.783652640879154205322265625" lon="-76.30858889780938625335693359375">
        <ele>2906.60009765625</ele>
        <time>2021-07-25T14:17:36.000Z</time>
      </trkpt>
      <trkpt lat="-11.78356043994426727294921875" lon="-76.30843249149620532989501953125">
        <ele>2907.60009765625</ele>
        <time>2021-07-25T14:17:41.000Z</time>
      </trkpt>
      <trkpt lat="-11.78347972221672534942626953125" lon="-76.30832252092659473419189453125">
        <ele>2908.39990234375</ele>
        <time>2021-07-25T14:17:45.000Z</time>
      </trkpt>
      <trkpt lat="-11.78341233171522617340087890625" lon="-76.30825412459671497344970703125">
        <ele>2908.800048828125</ele>
        <time>2021-07-25T14:17:48.000Z</time>
      </trkpt>
      <trkpt lat="-11.78331099450588226318359375" lon="-76.30818908102810382843017578125">
        <ele>2909.39990234375</ele>
        <time>2021-07-25T14:17:52.000Z</time>
      </trkpt>
      <trkpt lat="-11.78325709886848926544189453125" lon="-76.308161504566669464111328125">
        <ele>2909.800048828125</ele>
        <time>2021-07-25T14:17:54.000Z</time>
      </trkpt>
      <trkpt lat="-11.78309147246181964874267578125" lon="-76.30811817012727260589599609375">
        <ele>2910.60009765625</ele>
        <time>2021-07-25T14:18:00.000Z</time>
      </trkpt>
      <trkpt lat="-11.7830348946154117584228515625" lon="-76.30813443101942539215087890625">
        <ele>2910.800048828125</ele>
        <time>2021-07-25T14:18:02.000Z</time>
      </trkpt>
      <trkpt lat="-11.782904304563999176025390625" lon="-76.308141387999057769775390625">
        <ele>2911.60009765625</ele>
        <time>2021-07-25T14:18:07.000Z</time>
      </trkpt>
      <trkpt lat="-11.7827250994741916656494140625" lon="-76.30811356008052825927734375">
        <ele>2912</ele>
        <time>2021-07-25T14:18:13.000Z</time>
      </trkpt>
      <trkpt lat="-11.78266081027686595916748046875" lon="-76.3081107102334499359130859375">
        <ele>2912</ele>
        <time>2021-07-25T14:18:15.000Z</time>
      </trkpt>
      <trkpt lat="-11.782447658479213714599609375" lon="-76.30813233554363250732421875">
        <ele>2912.800048828125</ele>
        <time>2021-07-25T14:18:22.000Z</time>
      </trkpt>
      <trkpt lat="-11.78230508230626583099365234375" lon="-76.30812420509755611419677734375">
        <ele>2913</ele>
        <time>2021-07-25T14:18:27.000Z</time>
      </trkpt>
      <trkpt lat="-11.7822469957172870635986328125" lon="-76.308112554252147674560546875">
        <ele>2913.199951171875</ele>
        <time>2021-07-25T14:18:29.000Z</time>
      </trkpt>
      <trkpt lat="-11.78206586278975009918212890625" lon="-76.3080496899783611297607421875">
        <ele>2914</ele>
        <time>2021-07-25T14:18:36.000Z</time>
      </trkpt>
      <trkpt lat="-11.7820361070334911346435546875" lon="-76.30803954787552356719970703125">
        <ele>2914.199951171875</ele>
        <time>2021-07-25T14:18:37.000Z</time>
      </trkpt>
      <trkpt lat="-11.7818101309239864349365234375" lon="-76.30794265307486057281494140625">
        <ele>2914.60009765625</ele>
        <time>2021-07-25T14:18:45.000Z</time>
      </trkpt>
      <trkpt lat="-11.78165179677307605743408203125" lon="-76.3078455068171024322509765625">
        <ele>2915.199951171875</ele>
        <time>2021-07-25T14:18:51.000Z</time>
      </trkpt>
      <trkpt lat="-11.78160066716372966766357421875" lon="-76.3078210316598415374755859375">
        <ele>2915.60009765625</ele>
        <time>2021-07-25T14:18:53.000Z</time>
      </trkpt>
      <trkpt lat="-11.78153813816606998443603515625" lon="-76.30778255872428417205810546875">
        <ele>2916.39990234375</ele>
        <time>2021-07-25T14:18:56.000Z</time>
      </trkpt>
      <trkpt lat="-11.7814604379236698150634765625" lon="-76.30774073302745819091796875">
        <ele>2916.800048828125</ele>
        <time>2021-07-25T14:18:59.000Z</time>
      </trkpt>
      <trkpt lat="-11.781274862587451934814453125" lon="-76.30764492787420749664306640625">
        <ele>2917.199951171875</ele>
        <time>2021-07-25T14:19:07.000Z</time>
      </trkpt>
      <trkpt lat="-11.7812532372772693634033203125" lon="-76.30763336084783077239990234375">
        <ele>2917.39990234375</ele>
        <time>2021-07-25T14:19:08.000Z</time>
      </trkpt>
      <trkpt lat="-11.78108484484255313873291015625" lon="-76.30756010301411151885986328125">
        <ele>2918.199951171875</ele>
        <time>2021-07-25T14:19:15.000Z</time>
      </trkpt>
      <trkpt lat="-11.78105986677110195159912109375" lon="-76.3075474463403224945068359375">
        <ele>2918.39990234375</ele>
        <time>2021-07-25T14:19:16.000Z</time>
      </trkpt>
      <trkpt lat="-11.78088820539414882659912109375" lon="-76.30745734088122844696044921875">
        <ele>2919</ele>
        <time>2021-07-25T14:19:23.000Z</time>
      </trkpt>
      <trkpt lat="-11.78083372302353382110595703125" lon="-76.30743764340877532958984375">
        <ele>2919.60009765625</ele>
        <time>2021-07-25T14:19:25.000Z</time>
      </trkpt>
      <trkpt lat="-11.78073666058480739593505859375" lon="-76.30741124041378498077392578125">
        <ele>2920.199951171875</ele>
        <time>2021-07-25T14:19:29.000Z</time>
      </trkpt>
      <trkpt lat="-11.7806227505207061767578125" lon="-76.307349465787410736083984375">
        <ele>2920.60009765625</ele>
        <time>2021-07-25T14:19:34.000Z</time>
      </trkpt>
      <trkpt lat="-11.78059634752571582794189453125" lon="-76.307337395846843719482421875">
        <ele>2920.800048828125</ele>
        <time>2021-07-25T14:19:35.000Z</time>
      </trkpt>
      <trkpt lat="-11.78051018156111240386962890625" lon="-76.3072886131703853607177734375">
        <ele>2921</ele>
        <time>2021-07-25T14:19:39.000Z</time>
      </trkpt>
      <trkpt lat="-11.78043222986161708831787109375" lon="-76.30725600756704807281494140625">
        <ele>2921.60009765625</ele>
        <time>2021-07-25T14:19:42.000Z</time>
      </trkpt>
      <trkpt lat="-11.78020223043859004974365234375" lon="-76.30714268423616886138916015625">
        <ele>2922.800048828125</ele>
        <time>2021-07-25T14:19:52.000Z</time>
      </trkpt>
      <trkpt lat="-11.78002352826297283172607421875" lon="-76.30705936811864376068115234375">
        <ele>2923.800048828125</ele>
        <time>2021-07-25T14:20:00.000Z</time>
      </trkpt>
      <trkpt lat="-11.77988849580287933349609375" lon="-76.307003796100616455078125">
        <ele>2924.60009765625</ele>
        <time>2021-07-25T14:20:06.000Z</time>
      </trkpt>
      <trkpt lat="-11.77983661182224750518798828125" lon="-76.30698376335203647613525390625">
        <ele>2925</ele>
        <time>2021-07-25T14:20:08.000Z</time>
      </trkpt>
      <trkpt lat="-11.77971147000789642333984375" lon="-76.3069261796772480010986328125">
        <ele>2925.800048828125</ele>
        <time>2021-07-25T14:20:14.000Z</time>
      </trkpt>
      <trkpt lat="-11.7796920239925384521484375" lon="-76.30691788159310817718505859375">
        <ele>2926</ele>
        <time>2021-07-25T14:20:15.000Z</time>
      </trkpt>
      <trkpt lat="-11.7795445024967193603515625" lon="-76.3068400137126445770263671875">
        <ele>2927</ele>
        <time>2021-07-25T14:20:22.000Z</time>
      </trkpt>
      <trkpt lat="-11.779522709548473358154296875" lon="-76.3068334758281707763671875">
        <ele>2926.800048828125</ele>
        <time>2021-07-25T14:20:23.000Z</time>
      </trkpt>
      <trkpt lat="-11.77940745837986469268798828125" lon="-76.306777484714984893798828125">
        <ele>2928</ele>
        <time>2021-07-25T14:20:29.000Z</time>
      </trkpt>
      <trkpt lat="-11.77938935346901416778564453125" lon="-76.30676264874637126922607421875">
        <ele>2928.199951171875</ele>
        <time>2021-07-25T14:20:30.000Z</time>
      </trkpt>
      <trkpt lat="-11.7792777903378009796142578125" lon="-76.306690312922000885009765625">
        <ele>2929.199951171875</ele>
        <time>2021-07-25T14:20:37.000Z</time>
      </trkpt>
      <trkpt lat="-11.77922825329005718231201171875" lon="-76.3066536001861095428466796875">
        <ele>2929.39990234375</ele>
        <time>2021-07-25T14:20:40.000Z</time>
      </trkpt>
      <trkpt lat="-11.779163293540477752685546875" lon="-76.30660791881382465362548828125">
        <ele>2930.199951171875</ele>
        <time>2021-07-25T14:20:44.000Z</time>
      </trkpt>
      <trkpt lat="-11.77909866906702518463134765625" lon="-76.3065627403557300567626953125">
        <ele>2930.800048828125</ele>
        <time>2021-07-25T14:20:48.000Z</time>
      </trkpt>
      <trkpt lat="-11.7790474556386470794677734375" lon="-76.30652963183820247650146484375">
        <ele>2931.39990234375</ele>
        <time>2021-07-25T14:20:51.000Z</time>
      </trkpt>
      <trkpt lat="-11.778950393199920654296875" lon="-76.3064601458609104156494140625">
        <ele>2932.39990234375</ele>
        <time>2021-07-25T14:20:57.000Z</time>
      </trkpt>
      <trkpt lat="-11.7788439430296421051025390625" lon="-76.306386552751064300537109375">
        <ele>2933.199951171875</ele>
        <time>2021-07-25T14:21:04.000Z</time>
      </trkpt>
      <trkpt lat="-11.77882860414683818817138671875" lon="-76.3063726387917995452880859375">
        <ele>2933.39990234375</ele>
        <time>2021-07-25T14:21:05.000Z</time>
      </trkpt>
      <trkpt lat="-11.7787356488406658172607421875" lon="-76.30630918778479099273681640625">
        <ele>2934.60009765625</ele>
        <time>2021-07-25T14:21:11.000Z</time>
      </trkpt>
      <trkpt lat="-11.77871997468173503875732421875" lon="-76.30629929713904857635498046875">
        <ele>2934.60009765625</ele>
        <time>2021-07-25T14:21:12.000Z</time>
      </trkpt>
      <trkpt lat="-11.778661720454692840576171875" lon="-76.30625344812870025634765625">
        <ele>2935.39990234375</ele>
        <time>2021-07-25T14:21:16.000Z</time>
      </trkpt>
      <trkpt lat="-11.7786468006670475006103515625" lon="-76.30624347366392612457275390625">
        <ele>2935.60009765625</ele>
        <time>2021-07-25T14:21:17.000Z</time>
      </trkpt>
      <trkpt lat="-11.77859961055219173431396484375" lon="-76.306218914687633514404296875">
        <ele>2936</ele>
        <time>2021-07-25T14:21:20.000Z</time>
      </trkpt>
      <trkpt lat="-11.77851093001663684844970703125" lon="-76.306178681552410125732421875">
        <ele>2936.60009765625</ele>
        <time>2021-07-25T14:21:25.000Z</time>
      </trkpt>
      <trkpt lat="-11.778452508151531219482421875" lon="-76.30615714006125926971435546875">
        <ele>2937</ele>
        <time>2021-07-25T14:21:28.000Z</time>
      </trkpt>
      <trkpt lat="-11.77836709655821323394775390625" lon="-76.3061245344579219818115234375">
        <ele>2937.800048828125</ele>
        <time>2021-07-25T14:21:33.000Z</time>
      </trkpt>
      <trkpt lat="-11.77834966219961643218994140625" lon="-76.3061225228011608123779296875">
        <ele>2938</ele>
        <time>2021-07-25T14:21:34.000Z</time>
      </trkpt>
      <trkpt lat="-11.77821605466306209564208984375" lon="-76.306097209453582763671875">
        <ele>2938.800048828125</ele>
        <time>2021-07-25T14:21:41.000Z</time>
      </trkpt>
      <trkpt lat="-11.77819375880062580108642578125" lon="-76.306096203625202178955078125">
        <ele>2939</ele>
        <time>2021-07-25T14:21:42.000Z</time>
      </trkpt>
      <trkpt lat="-11.7780751548707485198974609375" lon="-76.30607600323855876922607421875">
        <ele>2940</ele>
        <time>2021-07-25T14:21:48.000Z</time>
      </trkpt>
      <trkpt lat="-11.77793090231716632843017578125" lon="-76.30606141872704029083251953125">
        <ele>2941</ele>
        <time>2021-07-25T14:21:55.000Z</time>
      </trkpt>
      <trkpt lat="-11.777909360826015472412109375" lon="-76.30605706013739109039306640625">
        <ele>2941</ele>
        <time>2021-07-25T14:21:56.000Z</time>
      </trkpt>
      <trkpt lat="-11.7777770943939685821533203125" lon="-76.30603912286460399627685546875">
        <ele>2942</ele>
        <time>2021-07-25T14:22:03.000Z</time>
      </trkpt>
      <trkpt lat="-11.77775873802602291107177734375" lon="-76.3060346804559230804443359375">
        <ele>2942.199951171875</ele>
        <time>2021-07-25T14:22:04.000Z</time>
      </trkpt>
      <trkpt lat="-11.77762479521334171295166015625" lon="-76.30600266158580780029296875">
        <ele>2943</ele>
        <time>2021-07-25T14:22:12.000Z</time>
      </trkpt>
      <trkpt lat="-11.7776067741215229034423828125" lon="-76.30599838681519031524658203125">
        <ele>2943.199951171875</ele>
        <time>2021-07-25T14:22:13.000Z</time>
      </trkpt>
      <trkpt lat="-11.7775226198136806488037109375" lon="-76.30595983006060123443603515625">
        <ele>2944.199951171875</ele>
        <time>2021-07-25T14:22:18.000Z</time>
      </trkpt>
      <trkpt lat="-11.77750510163605213165283203125" lon="-76.30595798604190349578857421875">
        <ele>2944.39990234375</ele>
        <time>2021-07-25T14:22:19.000Z</time>
      </trkpt>
      <trkpt lat="-11.77739345468580722808837890625" lon="-76.30589461885392665863037109375">
        <ele>2945.199951171875</ele>
        <time>2021-07-25T14:22:25.000Z</time>
      </trkpt>
      <trkpt lat="-11.7773590050637722015380859375" lon="-76.30587215535342693328857421875">
        <ele>2945.39990234375</ele>
        <time>2021-07-25T14:22:27.000Z</time>
      </trkpt>
      <trkpt lat="-11.777252219617366790771484375" lon="-76.305811218917369842529296875">
        <ele>2946.39990234375</ele>
        <time>2021-07-25T14:22:33.000Z</time>
      </trkpt>
      <trkpt lat="-11.7772351205348968505859375" lon="-76.30580174736678600311279296875">
        <ele>2946.60009765625</ele>
        <time>2021-07-25T14:22:34.000Z</time>
      </trkpt>
      <trkpt lat="-11.77711299620568752288818359375" lon="-76.3057222031056880950927734375">
        <ele>2947.39990234375</ele>
        <time>2021-07-25T14:22:41.000Z</time>
      </trkpt>
      <trkpt lat="-11.77709656767547130584716796875" lon="-76.30571122281253337860107421875">
        <ele>2947.60009765625</ele>
        <time>2021-07-25T14:22:42.000Z</time>
      </trkpt>
      <trkpt lat="-11.776976287364959716796875" lon="-76.30563477985560894012451171875">
        <ele>2948.60009765625</ele>
        <time>2021-07-25T14:22:49.000Z</time>
      </trkpt>
      <trkpt lat="-11.7769566737115383148193359375" lon="-76.3056278228759765625">
        <ele>2948.800048828125</ele>
        <time>2021-07-25T14:22:50.000Z</time>
      </trkpt>
      <trkpt lat="-11.7768517322838306427001953125" lon="-76.3055728375911712646484375">
        <ele>2949.800048828125</ele>
        <time>2021-07-25T14:22:56.000Z</time>
      </trkpt>
      <trkpt lat="-11.77683287300169467926025390625" lon="-76.30556319840252399444580078125">
        <ele>2950</ele>
        <time>2021-07-25T14:22:57.000Z</time>
      </trkpt>
      <trkpt lat="-11.77670882083475589752197265625" lon="-76.305490024387836456298828125">
        <ele>2950.800048828125</ele>
        <time>2021-07-25T14:23:04.000Z</time>
      </trkpt>
      <trkpt lat="-11.77667428739368915557861328125" lon="-76.30547535605728626251220703125">
        <ele>2951</ele>
        <time>2021-07-25T14:23:06.000Z</time>
      </trkpt>
      <trkpt lat="-11.7765764705836772918701171875" lon="-76.305433027446269989013671875">
        <ele>2951.60009765625</ele>
        <time>2021-07-25T14:23:11.000Z</time>
      </trkpt>
      <trkpt lat="-11.77650664933025836944580078125" lon="-76.30539589561522006988525390625">
        <ele>2952.199951171875</ele>
        <time>2021-07-25T14:23:15.000Z</time>
      </trkpt>
      <trkpt lat="-11.77640288136899471282958984375" lon="-76.305339150130748748779296875">
        <ele>2953</ele>
        <time>2021-07-25T14:23:21.000Z</time>
      </trkpt>
      <trkpt lat="-11.77635200321674346923828125" lon="-76.30531693808734416961669921875">
        <ele>2953.39990234375</ele>
        <time>2021-07-25T14:23:24.000Z</time>
      </trkpt>
      <trkpt lat="-11.7762827686965465545654296875" lon="-76.30528341047465801239013671875">
        <ele>2954</ele>
        <time>2021-07-25T14:23:28.000Z</time>
      </trkpt>
      <trkpt lat="-11.77621613256633281707763671875" lon="-76.3052487932145595550537109375">
        <ele>2954.39990234375</ele>
        <time>2021-07-25T14:23:32.000Z</time>
      </trkpt>
      <trkpt lat="-11.776159219443798065185546875" lon="-76.3052243180572986602783203125">
        <ele>2954.60009765625</ele>
        <time>2021-07-25T14:23:35.000Z</time>
      </trkpt>
      <trkpt lat="-11.77605134434998035430908203125" lon="-76.305190287530422210693359375">
        <ele>2955.39990234375</ele>
        <time>2021-07-25T14:23:41.000Z</time>
      </trkpt>
      <trkpt lat="-11.7759327404201030731201171875" lon="-76.30514510907232761383056640625">
        <ele>2956.39990234375</ele>
        <time>2021-07-25T14:23:48.000Z</time>
      </trkpt>
      <trkpt lat="-11.77590097300708293914794921875" lon="-76.30514108575880527496337890625">
        <ele>2956.39990234375</ele>
        <time>2021-07-25T14:23:50.000Z</time>
      </trkpt>
      <trkpt lat="-11.77586459554731845855712890625" lon="-76.30514862947165966033935546875">
        <ele>2956.60009765625</ele>
        <time>2021-07-25T14:23:52.000Z</time>
      </trkpt>
      <trkpt lat="-11.77582436241209506988525390625" lon="-76.30515902303159236907958984375">
        <ele>2956.800048828125</ele>
        <time>2021-07-25T14:23:54.000Z</time>
      </trkpt>
      <trkpt lat="-11.77578563801944255828857421875" lon="-76.30515583790838718414306640625">
        <ele>2956.800048828125</ele>
        <time>2021-07-25T14:23:56.000Z</time>
      </trkpt>
      <trkpt lat="-11.77572025917470455169677734375" lon="-76.30514862947165966033935546875">
        <ele>2957.199951171875</ele>
        <time>2021-07-25T14:24:00.000Z</time>
      </trkpt>
      <trkpt lat="-11.77563861943781375885009765625" lon="-76.3052836619317531585693359375">
        <ele>2958.199951171875</ele>
        <time>2021-07-25T14:37:07.000Z</time>
      </trkpt>
      <trkpt lat="-11.775632165372371673583984375" lon="-76.305276788771152496337890625">
        <ele>2958.199951171875</ele>
        <time>2021-07-25T14:37:08.000Z</time>
      </trkpt>
      <trkpt lat="-11.77560794167220592498779296875" lon="-76.30524870939552783966064453125">
        <ele>2958.39990234375</ele>
        <time>2021-07-25T14:37:11.000Z</time>
      </trkpt>
      <trkpt lat="-11.77554331719875335693359375" lon="-76.3052511401474475860595703125">
        <ele>2959</ele>
        <time>2021-07-25T14:37:35.000Z</time>
      </trkpt>
      <trkpt lat="-11.77543996833264827728271484375" lon="-76.305256001651287078857421875">
        <ele>2959.39990234375</ele>
        <time>2021-07-25T14:37:40.000Z</time>
      </trkpt>
      <trkpt lat="-11.775242574512958526611328125" lon="-76.305241920053958892822265625">
        <ele>2960.199951171875</ele>
        <time>2021-07-25T14:37:49.000Z</time>
      </trkpt>
      <trkpt lat="-11.77519639022648334503173828125" lon="-76.3052410818636417388916015625">
        <ele>2960.39990234375</ele>
        <time>2021-07-25T14:37:51.000Z</time>
      </trkpt>
      <trkpt lat="-11.77508994005620479583740234375" lon="-76.30522909574210643768310546875">
        <ele>2961</ele>
        <time>2021-07-25T14:37:57.000Z</time>
      </trkpt>
      <trkpt lat="-11.7749929614365100860595703125" lon="-76.30521032027900218963623046875">
        <ele>2961.39990234375</ele>
        <time>2021-07-25T14:38:02.000Z</time>
      </trkpt>
      <trkpt lat="-11.77493445575237274169921875" lon="-76.3051951490342617034912109375">
        <ele>2961.800048828125</ele>
        <time>2021-07-25T14:38:05.000Z</time>
      </trkpt>
      <trkpt lat="-11.77477729506790637969970703125" lon="-76.305158436298370361328125">
        <ele>2962.60009765625</ele>
        <time>2021-07-25T14:38:13.000Z</time>
      </trkpt>
      <trkpt lat="-11.7746027000248432159423828125" lon="-76.30511644296348094940185546875">
        <ele>2963.39990234375</ele>
        <time>2021-07-25T14:38:21.000Z</time>
      </trkpt>
      <trkpt lat="-11.77455601282417774200439453125" lon="-76.30510252900421619415283203125">
        <ele>2963.60009765625</ele>
        <time>2021-07-25T14:38:23.000Z</time>
      </trkpt>
      <trkpt lat="-11.7744300328195095062255859375" lon="-76.30507419817149639129638671875">
        <ele>2964.39990234375</ele>
        <time>2021-07-25T14:38:29.000Z</time>
      </trkpt>
      <trkpt lat="-11.77440949715673923492431640625" lon="-76.3050677441060543060302734375">
        <ele>2964.60009765625</ele>
        <time>2021-07-25T14:38:30.000Z</time>
      </trkpt>
      <trkpt lat="-11.7742590419948101043701171875" lon="-76.30504000000655651092529296875">
        <ele>2965.39990234375</ele>
        <time>2021-07-25T14:38:37.000Z</time>
      </trkpt>
      <trkpt lat="-11.774189136922359466552734375" lon="-76.305023320019245147705078125">
        <ele>2965.60009765625</ele>
        <time>2021-07-25T14:38:40.000Z</time>
      </trkpt>
      <trkpt lat="-11.77407304756343364715576171875" lon="-76.30498987622559070587158203125">
        <ele>2966.39990234375</ele>
        <time>2021-07-25T14:38:45.000Z</time>
      </trkpt>
      <trkpt lat="-11.7740072496235370635986328125" lon="-76.30497026257216930389404296875">
        <ele>2966.800048828125</ele>
        <time>2021-07-25T14:38:48.000Z</time>
      </trkpt>
      <trkpt lat="-11.77395000122487545013427734375" lon="-76.30494989454746246337890625">
        <ele>2967</ele>
        <time>2021-07-25T14:38:51.000Z</time>
      </trkpt>
      <trkpt lat="-11.7739306390285491943359375" lon="-76.30493841134011745452880859375">
        <ele>2967.39990234375</ele>
        <time>2021-07-25T14:38:52.000Z</time>
      </trkpt>
      <trkpt lat="-11.773777417838573455810546875" lon="-76.30490236915647983551025390625">
        <ele>2967.800048828125</ele>
        <time>2021-07-25T14:38:59.000Z</time>
      </trkpt>
      <trkpt lat="-11.7737537808716297149658203125" lon="-76.30489935167133808135986328125">
        <ele>2967.800048828125</ele>
        <time>2021-07-25T14:39:00.000Z</time>
      </trkpt>
      <trkpt lat="-11.773599050939083099365234375" lon="-76.3048647344112396240234375">
        <ele>2968.60009765625</ele>
        <time>2021-07-25T14:39:07.000Z</time>
      </trkpt>
      <trkpt lat="-11.77354213781654834747314453125" lon="-76.30485735833644866943359375">
        <ele>2969</ele>
        <time>2021-07-25T14:39:10.000Z</time>
      </trkpt>
      <trkpt lat="-11.773430742323398590087890625" lon="-76.3048421032726764678955078125">
        <ele>2969.60009765625</ele>
        <time>2021-07-25T14:39:15.000Z</time>
      </trkpt>
      <trkpt lat="-11.773345582187175750732421875" lon="-76.30482173524796962738037109375">
        <ele>2970</ele>
        <time>2021-07-25T14:39:19.000Z</time>
      </trkpt>
      <trkpt lat="-11.77329604513943195343017578125" lon="-76.3048236630856990814208984375">
        <ele>2970.199951171875</ele>
        <time>2021-07-25T14:39:22.000Z</time>
      </trkpt>
      <trkpt lat="-11.773194707930088043212890625" lon="-76.30480430088937282562255859375">
        <ele>2971</ele>
        <time>2021-07-25T14:39:27.000Z</time>
      </trkpt>
      <trkpt lat="-11.773157827556133270263671875" lon="-76.30479709245264530181884765625">
        <ele>2971.39990234375</ele>
        <time>2021-07-25T14:39:29.000Z</time>
      </trkpt>
      <trkpt lat="-11.773033440113067626953125" lon="-76.3047842681407928466796875">
        <ele>2972.199951171875</ele>
        <time>2021-07-25T14:39:35.000Z</time>
      </trkpt>
      <trkpt lat="-11.77298842929303646087646484375" lon="-76.3047817535698413848876953125">
        <ele>2972.60009765625</ele>
        <time>2021-07-25T14:39:37.000Z</time>
      </trkpt>
      <trkpt lat="-11.7728790454566478729248046875" lon="-76.30478552542626857757568359375">
        <ele>2973.199951171875</ele>
        <time>2021-07-25T14:39:42.000Z</time>
      </trkpt>
      <trkpt lat="-11.77283269353210926055908203125" lon="-76.30478787235915660858154296875">
        <ele>2973.60009765625</ele>
        <time>2021-07-25T14:39:44.000Z</time>
      </trkpt>
      <trkpt lat="-11.772684417665004730224609375" lon="-76.30477714352309703826904296875">
        <ele>2974.199951171875</ele>
        <time>2021-07-25T14:39:51.000Z</time>
      </trkpt>
      <trkpt lat="-11.77266136743128299713134765625" lon="-76.30477244965732097625732421875">
        <ele>2974.39990234375</ele>
        <time>2021-07-25T14:39:52.000Z</time>
      </trkpt>
      <trkpt lat="-11.77250127308070659637451171875" lon="-76.3047520816326141357421875">
        <ele>2975.39990234375</ele>
        <time>2021-07-25T14:39:59.000Z</time>
      </trkpt>
      <trkpt lat="-11.77238241769373416900634765625" lon="-76.30473691038787364959716796875">
        <ele>2976.39990234375</ele>
        <time>2021-07-25T14:40:04.000Z</time>
      </trkpt>
      <trkpt lat="-11.77234344184398651123046875" lon="-76.3047307915985584259033203125">
        <ele>2976.60009765625</ele>
        <time>2021-07-25T14:40:06.000Z</time>
      </trkpt>
      <trkpt lat="-11.77215258590877056121826171875" lon="-76.3047063164412975311279296875">
        <ele>2977.39990234375</ele>
        <time>2021-07-25T14:40:15.000Z</time>
      </trkpt>
      <trkpt lat="-11.7720344848930835723876953125" lon="-76.30469550378620624542236328125">
        <ele>2978.39990234375</ele>
        <time>2021-07-25T14:40:21.000Z</time>
      </trkpt>
      <trkpt lat="-11.7719592154026031494140625" lon="-76.30468837916851043701171875">
        <ele>2979.199951171875</ele>
        <time>2021-07-25T14:40:25.000Z</time>
      </trkpt>
      <trkpt lat="-11.77190330810844898223876953125" lon="-76.3046808354556560516357421875">
        <ele>2979.60009765625</ele>
        <time>2021-07-25T14:40:28.000Z</time>
      </trkpt>
      <trkpt lat="-11.77182988263666629791259765625" lon="-76.3046798296272754669189453125">
        <ele>2980</ele>
        <time>2021-07-25T14:40:32.000Z</time>
      </trkpt>
      <trkpt lat="-11.77174455486238002777099609375" lon="-76.3046831823885440826416015625">
        <ele>2980.800048828125</ele>
        <time>2021-07-25T14:40:37.000Z</time>
      </trkpt>
      <trkpt lat="-11.77170767448842525482177734375" lon="-76.3046788237988948822021484375">
        <ele>2981</ele>
        <time>2021-07-25T14:40:39.000Z</time>
      </trkpt>
      <trkpt lat="-11.77159770391881465911865234375" lon="-76.30467387847602367401123046875">
        <ele>2981.800048828125</ele>
        <time>2021-07-25T14:40:45.000Z</time>
      </trkpt>
      <trkpt lat="-11.7715005576610565185546875" lon="-76.30465946160256862640380859375">
        <ele>2982.60009765625</ele>
        <time>2021-07-25T14:40:50.000Z</time>
      </trkpt>
      <trkpt lat="-11.77148102782666683197021484375" lon="-76.30465619266033172607421875">
        <ele>2982.800048828125</ele>
        <time>2021-07-25T14:40:51.000Z</time>
      </trkpt>
      <trkpt lat="-11.7713602446019649505615234375" lon="-76.304615624248981475830078125">
        <ele>2983.60009765625</ele>
        <time>2021-07-25T14:40:57.000Z</time>
      </trkpt>
      <trkpt lat="-11.77131808362901210784912109375" lon="-76.3045986928045749664306640625">
        <ele>2984</ele>
        <time>2021-07-25T14:40:59.000Z</time>
      </trkpt>
      <trkpt lat="-11.77122554741799831390380859375" lon="-76.3045670092105865478515625">
        <ele>2984.60009765625</ele>
        <time>2021-07-25T14:41:04.000Z</time>
      </trkpt>
      <trkpt lat="-11.771208532154560089111328125" lon="-76.3045598007738590240478515625">
        <ele>2985</ele>
        <time>2021-07-25T14:41:05.000Z</time>
      </trkpt>
      <trkpt lat="-11.7710890062153339385986328125" lon="-76.30448109470307826995849609375">
        <ele>2985.800048828125</ele>
        <time>2021-07-25T14:41:12.000Z</time>
      </trkpt>
      <trkpt lat="-11.77105271257460117340087890625" lon="-76.30445661954581737518310546875">
        <ele>2986</ele>
        <time>2021-07-25T14:41:14.000Z</time>
      </trkpt>
      <trkpt lat="-11.77095849998295307159423828125" lon="-76.30440398119390010833740234375">
        <ele>2987</ele>
        <time>2021-07-25T14:41:19.000Z</time>
      </trkpt>
      <trkpt lat="-11.77093796432018280029296875" lon="-76.30439576692879199981689453125">
        <ele>2987.199951171875</ele>
        <time>2021-07-25T14:41:20.000Z</time>
      </trkpt>
      <trkpt lat="-11.77082153968513011932373046875" lon="-76.30437397398054599761962890625">
        <ele>2988</ele>
        <time>2021-07-25T14:41:26.000Z</time>
      </trkpt>
      <trkpt lat="-11.77080175839364528656005859375" lon="-76.30436425097286701202392578125">
        <ele>2988.199951171875</ele>
        <time>2021-07-25T14:41:27.000Z</time>
      </trkpt>
      <trkpt lat="-11.77068105898797512054443359375" lon="-76.30432938225567340850830078125">
        <ele>2988.800048828125</ele>
        <time>2021-07-25T14:41:33.000Z</time>
      </trkpt>
      <trkpt lat="-11.7706394009292125701904296875" lon="-76.30430272780358791351318359375">
        <ele>2989.199951171875</ele>
        <time>2021-07-25T14:41:35.000Z</time>
      </trkpt>
      <trkpt lat="-11.77055801264941692352294921875" lon="-76.30426651798188686370849609375">
        <ele>2989.39990234375</ele>
        <time>2021-07-25T14:41:39.000Z</time>
      </trkpt>
      <trkpt lat="-11.77047620527446269989013671875" lon="-76.30422377027571201324462890625">
        <ele>2990.199951171875</ele>
        <time>2021-07-25T14:41:43.000Z</time>
      </trkpt>
      <trkpt lat="-11.77042608149349689483642578125" lon="-76.3041755743324756622314453125">
        <ele>2990.60009765625</ele>
        <time>2021-07-25T14:41:46.000Z</time>
      </trkpt>
      <trkpt lat="-11.77036690525710582733154296875" lon="-76.3041138835251331329345703125">
        <ele>2991.199951171875</ele>
        <time>2021-07-25T14:41:50.000Z</time>
      </trkpt>
      <trkpt lat="-11.77031108178198337554931640625" lon="-76.3040434755384922027587890625">
        <ele>2992</ele>
        <time>2021-07-25T14:41:54.000Z</time>
      </trkpt>
      <trkpt lat="-11.7702840082347393035888671875" lon="-76.30400097928941249847412109375">
        <ele>2992.39990234375</ele>
        <time>2021-07-25T14:41:56.000Z</time>
      </trkpt>
      <trkpt lat="-11.7702417634427547454833984375" lon="-76.30392671562731266021728515625">
        <ele>2992.800048828125</ele>
        <time>2021-07-25T14:42:00.000Z</time>
      </trkpt>
      <trkpt lat="-11.77021645009517669677734375" lon="-76.30387365818023681640625">
        <ele>2993.39990234375</ele>
        <time>2021-07-25T14:42:03.000Z</time>
      </trkpt>
      <trkpt lat="-11.7701728641986846923828125" lon="-76.303795538842678070068359375">
        <ele>2994.199951171875</ele>
        <time>2021-07-25T14:42:07.000Z</time>
      </trkpt>
      <trkpt lat="-11.770153082907199859619140625" lon="-76.3037561438977718353271484375">
        <ele>2994.39990234375</ele>
        <time>2021-07-25T14:42:09.000Z</time>
      </trkpt>
      <trkpt lat="-11.7701177112758159637451171875" lon="-76.3036797009408473968505859375">
        <ele>2995</ele>
        <time>2021-07-25T14:42:13.000Z</time>
      </trkpt>
      <trkpt lat="-11.77007085643708705902099609375" lon="-76.30357123911380767822265625">
        <ele>2995.39990234375</ele>
        <time>2021-07-25T14:42:18.000Z</time>
      </trkpt>
      <trkpt lat="-11.7700439505279064178466796875" lon="-76.30353796295821666717529296875">
        <ele>2995.800048828125</ele>
        <time>2021-07-25T14:42:20.000Z</time>
      </trkpt>
      <trkpt lat="-11.76998301409184932708740234375" lon="-76.3034671358764171600341796875">
        <ele>2996.60009765625</ele>
        <time>2021-07-25T14:42:25.000Z</time>
      </trkpt>
      <trkpt lat="-11.76994948647916316986083984375" lon="-76.30343981087207794189453125">
        <ele>2996.60009765625</ele>
        <time>2021-07-25T14:42:27.000Z</time>
      </trkpt>
      <trkpt lat="-11.7698313854634761810302734375" lon="-76.30340754054486751556396484375">
        <ele>2997.60009765625</ele>
        <time>2021-07-25T14:42:33.000Z</time>
      </trkpt>
      <trkpt lat="-11.76970624364912509918212890625" lon="-76.30345833487808704376220703125">
        <ele>2998.39990234375</ele>
        <time>2021-07-25T14:42:40.000Z</time>
      </trkpt>
      <trkpt lat="-11.769664250314235687255859375" lon="-76.30350879393517971038818359375">
        <ele>2998.800048828125</ele>
        <time>2021-07-25T14:42:43.000Z</time>
      </trkpt>
      <trkpt lat="-11.769617982208728790283203125" lon="-76.3035761006176471710205078125">
        <ele>2999</ele>
        <time>2021-07-25T14:42:47.000Z</time>
      </trkpt>
      <trkpt lat="-11.76961303688585758209228515625" lon="-76.303615160286426544189453125">
        <ele>2999.39990234375</ele>
        <time>2021-07-25T14:42:50.000Z</time>
      </trkpt>
      <trkpt lat="-11.7696231789886951446533203125" lon="-76.30366335622966289520263671875">
        <ele>2999.60009765625</ele>
        <time>2021-07-25T14:42:53.000Z</time>
      </trkpt>
      <trkpt lat="-11.769638769328594207763671875" lon="-76.30373342894017696380615234375">
        <ele>2999.800048828125</ele>
        <time>2021-07-25T14:42:57.000Z</time>
      </trkpt>
      <trkpt lat="-11.769672967493534088134765625" lon="-76.30382537841796875">
        <ele>3000.60009765625</ele>
        <time>2021-07-25T14:43:03.000Z</time>
      </trkpt>
      <trkpt lat="-11.76970146596431732177734375" lon="-76.303939037024974822998046875">
        <ele>3001</ele>
        <time>2021-07-25T14:43:09.000Z</time>
      </trkpt>
      <trkpt lat="-11.7697116918861865997314453125" lon="-76.30397549830377101898193359375">
        <ele>3001.60009765625</ele>
        <time>2021-07-25T14:43:11.000Z</time>
      </trkpt>
      <trkpt lat="-11.76973122172057628631591796875" lon="-76.3040300644934177398681640625">
        <ele>3002.199951171875</ele>
        <time>2021-07-25T14:43:14.000Z</time>
      </trkpt>
      <trkpt lat="-11.76976424641907215118408203125" lon="-76.30417481996119022369384765625">
        <ele>3003</ele>
        <time>2021-07-25T14:43:20.000Z</time>
      </trkpt>
      <trkpt lat="-11.76978235132992267608642578125" lon="-76.30424506030976772308349609375">
        <ele>3003.199951171875</ele>
        <time>2021-07-25T14:43:23.000Z</time>
      </trkpt>
      <trkpt lat="-11.769819818437099456787109375" lon="-76.30439937114715576171875">
        <ele>3004</ele>
        <time>2021-07-25T14:43:29.000Z</time>
      </trkpt>
      <trkpt lat="-11.7698367498815059661865234375" lon="-76.30444086156785488128662109375">
        <ele>3004.199951171875</ele>
        <time>2021-07-25T14:43:31.000Z</time>
      </trkpt>
      <trkpt lat="-11.76987237296998500823974609375" lon="-76.3045497424900531768798828125">
        <ele>3005</ele>
        <time>2021-07-25T14:43:36.000Z</time>
      </trkpt>
      <trkpt lat="-11.76991260610520839691162109375" lon="-76.30465686321258544921875">
        <ele>3005.39990234375</ele>
        <time>2021-07-25T14:43:40.000Z</time>
      </trkpt>
      <trkpt lat="-11.76995920948684215545654296875" lon="-76.30474646575748920440673828125">
        <ele>3006</ele>
        <time>2021-07-25T14:43:44.000Z</time>
      </trkpt>
      <trkpt lat="-11.76999910734593868255615234375" lon="-76.30482391454279422760009765625">
        <ele>3006.39990234375</ele>
        <time>2021-07-25T14:43:47.000Z</time>
      </trkpt>
      <trkpt lat="-11.7700680904090404510498046875" lon="-76.30490588955581188201904296875">
        <ele>3006.60009765625</ele>
        <time>2021-07-25T14:43:51.000Z</time>
      </trkpt>
      <trkpt lat="-11.77022474817931652069091796875" lon="-76.30505223758518695831298828125">
        <ele>3007.39990234375</ele>
        <time>2021-07-25T14:43:58.000Z</time>
      </trkpt>
      <trkpt lat="-11.77025265991687774658203125" lon="-76.30507403053343296051025390625">
        <ele>3007.39990234375</ele>
        <time>2021-07-25T14:43:59.000Z</time>
      </trkpt>
      <trkpt lat="-11.77047662436962127685546875" lon="-76.30515684373676776885986328125">
        <ele>3008</ele>
        <time>2021-07-25T14:44:07.000Z</time>
      </trkpt>
      <trkpt lat="-11.77062607370316982269287109375" lon="-76.30514997057616710662841796875">
        <ele>3008.60009765625</ele>
        <time>2021-07-25T14:44:12.000Z</time>
      </trkpt>
      <trkpt lat="-11.77073721773922443389892578125" lon="-76.30513857118785381317138671875">
        <ele>3008.800048828125</ele>
        <time>2021-07-25T14:44:16.000Z</time>
      </trkpt>
      <trkpt lat="-11.77093452773988246917724609375" lon="-76.30513672716915607452392578125">
        <ele>3009.199951171875</ele>
        <time>2021-07-25T14:44:23.000Z</time>
      </trkpt>
      <trkpt lat="-11.77096520550549030303955078125" lon="-76.305136978626251220703125">
        <ele>3009.199951171875</ele>
        <time>2021-07-25T14:44:24.000Z</time>
      </trkpt>
      <trkpt lat="-11.77104315720498561859130859375" lon="-76.3051485456526279449462890625">
        <ele>3009.60009765625</ele>
        <time>2021-07-25T14:44:27.000Z</time>
      </trkpt>
      <trkpt lat="-11.77112077362835407257080078125" lon="-76.30516313016414642333984375">
        <ele>3010</ele>
        <time>2021-07-25T14:44:30.000Z</time>
      </trkpt>
      <trkpt lat="-11.77124683745205402374267578125" lon="-76.30517813377082347869873046875">
        <ele>3010.800048828125</ele>
        <time>2021-07-25T14:44:35.000Z</time>
      </trkpt>
      <trkpt lat="-11.7713069356977939605712890625" lon="-76.30516103468835353851318359375">
        <ele>3011.199951171875</ele>
        <time>2021-07-25T14:44:38.000Z</time>
      </trkpt>
      <trkpt lat="-11.77143962122499942779541015625" lon="-76.30517779849469661712646484375">
        <ele>3011.60009765625</ele>
        <time>2021-07-25T14:44:43.000Z</time>
      </trkpt>
      <trkpt lat="-11.77148521877825260162353515625" lon="-76.30519389174878597259521484375">
        <ele>3011.800048828125</ele>
        <time>2021-07-25T14:44:45.000Z</time>
      </trkpt>
      <trkpt lat="-11.77164933644235134124755859375" lon="-76.30524284206330776214599609375">
        <ele>3012.60009765625</ele>
        <time>2021-07-25T14:44:52.000Z</time>
      </trkpt>
      <trkpt lat="-11.77172242663800716400146484375" lon="-76.30526714958250522613525390625">
        <ele>3013</ele>
        <time>2021-07-25T14:44:55.000Z</time>
      </trkpt>
      <trkpt lat="-11.77183516323566436767578125" lon="-76.30531601607799530029296875">
        <ele>3013.60009765625</ele>
        <time>2021-07-25T14:45:00.000Z</time>
      </trkpt>
      <trkpt lat="-11.7719513364136219024658203125" lon="-76.3053651340305805206298828125">
        <ele>3014</ele>
        <time>2021-07-25T14:45:05.000Z</time>
      </trkpt>
      <trkpt lat="-11.772008500993251800537109375" lon="-76.3053996674716472625732421875">
        <ele>3014.39990234375</ele>
        <time>2021-07-25T14:45:08.000Z</time>
      </trkpt>
      <trkpt lat="-11.77206893451511859893798828125" lon="-76.305431686341762542724609375">
        <ele>3015</ele>
        <time>2021-07-25T14:45:11.000Z</time>
      </trkpt>
      <trkpt lat="-11.7721592076122760772705078125" lon="-76.305489353835582733154296875">
        <ele>3015.39990234375</ele>
        <time>2021-07-25T14:45:16.000Z</time>
      </trkpt>
      <trkpt lat="-11.772279404103755950927734375" lon="-76.3055807165801525115966796875">
        <ele>3016</ele>
        <time>2021-07-25T14:45:23.000Z</time>
      </trkpt>
      <trkpt lat="-11.772329024970531463623046875" lon="-76.305618770420551300048828125">
        <ele>3016.199951171875</ele>
        <time>2021-07-25T14:45:26.000Z</time>
      </trkpt>
      <trkpt lat="-11.77240890450775623321533203125" lon="-76.305705942213535308837890625">
        <ele>3016.800048828125</ele>
        <time>2021-07-25T14:45:32.000Z</time>
      </trkpt>
      <trkpt lat="-11.77244846709072589874267578125" lon="-76.30574726499617099761962890625">
        <ele>3017.199951171875</ele>
        <time>2021-07-25T14:45:35.000Z</time>
      </trkpt>
      <trkpt lat="-11.7725189588963985443115234375" lon="-76.3058318383991718292236328125">
        <ele>3017.800048828125</ele>
        <time>2021-07-25T14:45:40.000Z</time>
      </trkpt>
      <trkpt lat="-11.7725897021591663360595703125" lon="-76.30590652115643024444580078125">
        <ele>3018.199951171875</ele>
        <time>2021-07-25T14:45:46.000Z</time>
      </trkpt>
      <trkpt lat="-11.77263454534113407135009765625" lon="-76.30608622916042804718017578125">
        <ele>3018.800048828125</ele>
        <time>2021-07-25T14:48:57.000Z</time>
      </trkpt>
      <trkpt lat="-11.77263907156884670257568359375" lon="-76.30610181950032711029052734375">
        <ele>3019</ele>
        <time>2021-07-25T14:48:58.000Z</time>
      </trkpt>
      <trkpt lat="-11.77265801467001438140869140625" lon="-76.30613811314105987548828125">
        <ele>3019.199951171875</ele>
        <time>2021-07-25T14:49:01.000Z</time>
      </trkpt>
      <trkpt lat="-11.77266664803028106689453125" lon="-76.3061490096151828765869140625">
        <ele>3019.39990234375</ele>
        <time>2021-07-25T14:49:02.000Z</time>
      </trkpt>
      <trkpt lat="-11.77270210348069667816162109375" lon="-76.3061956129968166351318359375">
        <ele>3019.800048828125</ele>
        <time>2021-07-25T14:49:06.000Z</time>
      </trkpt>
      <trkpt lat="-11.77276111207902431488037109375" lon="-76.3062640093266963958740234375">
        <ele>3020.199951171875</ele>
        <time>2021-07-25T14:49:11.000Z</time>
      </trkpt>
      <trkpt lat="-11.77279279567301273345947265625" lon="-76.30628722719848155975341796875">
        <ele>3020.39990234375</ele>
        <time>2021-07-25T14:49:13.000Z</time>
      </trkpt>
      <trkpt lat="-11.7728619463741779327392578125" lon="-76.3063357584178447723388671875">
        <ele>3020.800048828125</ele>
        <time>2021-07-25T14:49:20.000Z</time>
      </trkpt>
      <trkpt lat="-11.772960014641284942626953125" lon="-76.3063598982989788055419921875">
        <ele>3021</ele>
        <time>2021-07-25T14:49:36.000Z</time>
      </trkpt>
      <trkpt lat="-11.77301139570772647857666015625" lon="-76.306365095078945159912109375">
        <ele>3021</ele>
        <time>2021-07-25T14:49:39.000Z</time>
      </trkpt>
      <trkpt lat="-11.773088090121746063232421875" lon="-76.306376494467258453369140625">
        <ele>3021.39990234375</ele>
        <time>2021-07-25T14:49:44.000Z</time>
      </trkpt>
      <trkpt lat="-11.77311231382191181182861328125" lon="-76.3063833676278591156005859375">
        <ele>3021.800048828125</ele>
        <time>2021-07-25T14:49:47.000Z</time>
      </trkpt>
      <trkpt lat="-11.7732039280235767364501953125" lon="-76.3064110279083251953125">
        <ele>3022</ele>
        <time>2021-07-25T14:49:55.000Z</time>
      </trkpt>
      <trkpt lat="-11.7732790298759937286376953125" lon="-76.3064293004572391510009765625">
        <ele>3022.60009765625</ele>
        <time>2021-07-25T14:50:01.000Z</time>
      </trkpt>
      <trkpt lat="-11.77331666462123394012451171875" lon="-76.30643759854137897491455078125">
        <ele>3022.800048828125</ele>
        <time>2021-07-25T14:50:04.000Z</time>
      </trkpt>
      <trkpt lat="-11.77336393855512142181396484375" lon="-76.30643575452268123626708984375">
        <ele>3023</ele>
        <time>2021-07-25T14:50:08.000Z</time>
      </trkpt>
      <trkpt lat="-11.77339964546263217926025390625" lon="-76.30644899792969226837158203125">
        <ele>3023.199951171875</ele>
        <time>2021-07-25T14:50:12.000Z</time>
      </trkpt>
      <trkpt lat="-11.77345932461321353912353515625" lon="-76.30644782446324825286865234375">
        <ele>3023.199951171875</ele>
        <time>2021-07-25T14:50:18.000Z</time>
      </trkpt>
      <trkpt lat="-11.77350073121488094329833984375" lon="-76.30644380114972591400146484375">
        <ele>3023.199951171875</ele>
        <time>2021-07-25T14:50:22.000Z</time>
      </trkpt>
      <trkpt lat="-11.77351162768900394439697265625" lon="-76.30644380114972591400146484375">
        <ele>3023</ele>
        <time>2021-07-25T14:50:23.000Z</time>
      </trkpt>
      <trkpt lat="-11.7735730670392513275146484375" lon="-76.30644396878778934478759765625">
        <ele>3023.60009765625</ele>
        <time>2021-07-25T14:50:29.000Z</time>
      </trkpt>
      <trkpt lat="-11.77360181696712970733642578125" lon="-76.3064472377300262451171875">
        <ele>3023.39990234375</ele>
        <time>2021-07-25T14:50:32.000Z</time>
      </trkpt>
      <trkpt lat="-11.77368479780852794647216796875" lon="-76.3064480759203433990478515625">
        <ele>3023.800048828125</ele>
        <time>2021-07-25T14:50:40.000Z</time>
      </trkpt>
      <trkpt lat="-11.7737366817891597747802734375" lon="-76.30646442063152790069580078125">
        <ele>3024</ele>
        <time>2021-07-25T14:52:04.000Z</time>
      </trkpt>
      <trkpt lat="-11.773753277957439422607421875" lon="-76.3064608164131641387939453125">
        <ele>3024</ele>
        <time>2021-07-25T14:52:05.000Z</time>
      </trkpt>
      <trkpt lat="-11.77376878447830677032470703125" lon="-76.30645872093737125396728515625">
        <ele>3024</ele>
        <time>2021-07-25T14:52:06.000Z</time>
      </trkpt>
      <trkpt lat="-11.77380298264324665069580078125" lon="-76.3064526021480560302734375">
        <ele>3024.199951171875</ele>
        <time>2021-07-25T14:52:08.000Z</time>
      </trkpt>
      <trkpt lat="-11.77385712973773479461669921875" lon="-76.3064604811370372772216796875">
        <ele>3024.39990234375</ele>
        <time>2021-07-25T14:52:11.000Z</time>
      </trkpt>
      <trkpt lat="-11.7738885618746280670166015625" lon="-76.306467354297637939453125">
        <ele>3024.60009765625</ele>
        <time>2021-07-25T14:52:13.000Z</time>
      </trkpt>
      <trkpt lat="-11.77403298206627368927001953125" lon="-76.30653030239045619964599609375">
        <ele>3025.199951171875</ele>
        <time>2021-07-25T14:52:20.000Z</time>
      </trkpt>
      <trkpt lat="-11.77412652410566806793212890625" lon="-76.30656718276441097259521484375">
        <ele>3025.60009765625</ele>
        <time>2021-07-25T14:52:24.000Z</time>
      </trkpt>
      <trkpt lat="-11.77428192459046840667724609375" lon="-76.30663708783686161041259765625">
        <ele>3026.39990234375</ele>
        <time>2021-07-25T14:52:30.000Z</time>
      </trkpt>
      <trkpt lat="-11.77430841140449047088623046875" lon="-76.30664479918777942657470703125">
        <ele>3026.60009765625</ele>
        <time>2021-07-25T14:52:31.000Z</time>
      </trkpt>
      <trkpt lat="-11.77451661787927150726318359375" lon="-76.306703388690948486328125">
        <ele>3027.39990234375</ele>
        <time>2021-07-25T14:52:39.000Z</time>
      </trkpt>
      <trkpt lat="-11.7745966650545597076416015625" lon="-76.30672090686857700347900390625">
        <ele>3027.800048828125</ele>
        <time>2021-07-25T14:52:42.000Z</time>
      </trkpt>
      <trkpt lat="-11.77473622374236583709716796875" lon="-76.30675426684319972991943359375">
        <ele>3028</ele>
        <time>2021-07-25T14:52:48.000Z</time>
      </trkpt>
      <trkpt lat="-11.77491299808025360107421875" lon="-76.3067799992859363555908203125">
        <ele>3028.800048828125</ele>
        <time>2021-07-25T14:52:55.000Z</time>
      </trkpt>
      <trkpt lat="-11.774987764656543731689453125" lon="-76.30678645335137844085693359375">
        <ele>3028.800048828125</ele>
        <time>2021-07-25T14:52:58.000Z</time>
      </trkpt>
      <trkpt lat="-11.775166802108287811279296875" lon="-76.306810677051544189453125">
        <ele>3029.60009765625</ele>
        <time>2021-07-25T14:53:05.000Z</time>
      </trkpt>
      <trkpt lat="-11.7751907743513584136962890625" lon="-76.30681511946022510528564453125">
        <ele>3029.800048828125</ele>
        <time>2021-07-25T14:53:06.000Z</time>
      </trkpt>
      <trkpt lat="-11.77535028196871280670166015625" lon="-76.3068426959216594696044921875">
        <ele>3030.800048828125</ele>
        <time>2021-07-25T14:53:13.000Z</time>
      </trkpt>
      <trkpt lat="-11.77537442184984683990478515625" lon="-76.30684747360646724700927734375">
        <ele>3030.800048828125</ele>
        <time>2021-07-25T14:53:14.000Z</time>
      </trkpt>
      <trkpt lat="-11.77551783621311187744140625" lon="-76.30688116885721683502197265625">
        <ele>3031.800048828125</ele>
        <time>2021-07-25T14:53:20.000Z</time>
      </trkpt>
      <trkpt lat="-11.7755870707333087921142578125" lon="-76.306901872158050537109375">
        <ele>3032.39990234375</ele>
        <time>2021-07-25T14:53:23.000Z</time>
      </trkpt>
      <trkpt lat="-11.77568656392395496368408203125" lon="-76.30693129263818264007568359375">
        <ele>3032.800048828125</ele>
        <time>2021-07-25T14:53:27.000Z</time>
      </trkpt>
      <trkpt lat="-11.7757701314985752105712890625" lon="-76.306980662047863006591796875">
        <ele>3033.39990234375</ele>
        <time>2021-07-25T14:53:31.000Z</time>
      </trkpt>
      <trkpt lat="-11.77583433687686920166015625" lon="-76.30706238560378551483154296875">
        <ele>3034</ele>
        <time>2021-07-25T14:53:36.000Z</time>
      </trkpt>
      <trkpt lat="-11.7758334986865520477294921875" lon="-76.30708350799977779388427734375">
        <ele>3034.199951171875</ele>
        <time>2021-07-25T14:53:37.000Z</time>
      </trkpt>
      <trkpt lat="-11.77582352422177791595458984375" lon="-76.30710647441446781158447265625">
        <ele>3034.199951171875</ele>
        <time>2021-07-25T14:53:38.000Z</time>
      </trkpt>
      <trkpt lat="-11.775772981345653533935546875" lon="-76.30715844221413135528564453125">
        <ele>3034.800048828125</ele>
        <time>2021-07-25T14:53:41.000Z</time>
      </trkpt>
      <trkpt lat="-11.7757513560354709625244140625" lon="-76.307167075574398040771484375">
        <ele>3035.199951171875</ele>
        <time>2021-07-25T14:53:42.000Z</time>
      </trkpt>
      <trkpt lat="-11.7757047526538372039794921875" lon="-76.30717000924050807952880859375">
        <ele>3035.60009765625</ele>
        <time>2021-07-25T14:53:44.000Z</time>
      </trkpt>
      <trkpt lat="-11.7756336741149425506591796875" lon="-76.30716271698474884033203125">
        <ele>3036</ele>
        <time>2021-07-25T14:53:47.000Z</time>
      </trkpt>
      <trkpt lat="-11.77557072602212429046630859375" lon="-76.307138241827487945556640625">
        <ele>3036.39990234375</ele>
        <time>2021-07-25T14:53:50.000Z</time>
      </trkpt>
      <trkpt lat="-11.77545270882546901702880859375" lon="-76.30709893070161342620849609375">
        <ele>3036.800048828125</ele>
        <time>2021-07-25T14:53:55.000Z</time>
      </trkpt>
      <trkpt lat="-11.775367297232151031494140625" lon="-76.30707420408725738525390625">
        <ele>3037.39990234375</ele>
        <time>2021-07-25T14:53:59.000Z</time>
      </trkpt>
      <trkpt lat="-11.77526813931763172149658203125" lon="-76.3070552609860897064208984375">
        <ele>3037.800048828125</ele>
        <time>2021-07-25T14:54:03.000Z</time>
      </trkpt>
      <trkpt lat="-11.77509446628391742706298828125" lon="-76.3070247508585453033447265625">
        <ele>3038.39990234375</ele>
        <time>2021-07-25T14:54:10.000Z</time>
      </trkpt>
      <trkpt lat="-11.7750114016234874725341796875" lon="-76.3070136867463588714599609375">
        <ele>3039</ele>
        <time>2021-07-25T14:54:13.000Z</time>
      </trkpt>
      <trkpt lat="-11.77489397116005420684814453125" lon="-76.30701075308024883270263671875">
        <ele>3039.60009765625</ele>
        <time>2021-07-25T14:54:18.000Z</time>
      </trkpt>
      <trkpt lat="-11.77485591731965541839599609375" lon="-76.30701058544218540191650390625">
        <ele>3039.800048828125</ele>
        <time>2021-07-25T14:54:20.000Z</time>
      </trkpt>
      <trkpt lat="-11.7747445218265056610107421875" lon="-76.3070227392017841339111328125">
        <ele>3040.199951171875</ele>
        <time>2021-07-25T14:54:26.000Z</time>
      </trkpt>
      <trkpt lat="-11.77464905194938182830810546875" lon="-76.30702449940145015716552734375">
        <ele>3040.60009765625</ele>
        <time>2021-07-25T14:54:32.000Z</time>
      </trkpt>
      <trkpt lat="-11.7746231518685817718505859375" lon="-76.30702500231564044952392578125">
        <ele>3040.800048828125</ele>
        <time>2021-07-25T14:54:34.000Z</time>
      </trkpt>
      <trkpt lat="-11.77453690208494663238525390625" lon="-76.3070185482501983642578125">
        <ele>3041.199951171875</ele>
        <time>2021-07-25T14:56:06.000Z</time>
      </trkpt>
      <trkpt lat="-11.77452499978244304656982421875" lon="-76.307020224630832672119140625">
        <ele>3041.199951171875</ele>
        <time>2021-07-25T14:56:07.000Z</time>
      </trkpt>
      <trkpt lat="-11.77447621710598468780517578125" lon="-76.30701611749827861785888671875">
        <ele>3041.39990234375</ele>
        <time>2021-07-25T14:56:10.000Z</time>
      </trkpt>
      <trkpt lat="-11.77439155988395214080810546875" lon="-76.30701444111764430999755859375">
        <ele>3041.800048828125</ele>
        <time>2021-07-25T14:56:15.000Z</time>
      </trkpt>
      <trkpt lat="-11.77425451576709747314453125" lon="-76.3070193864405155181884765625">
        <ele>3042.199951171875</ele>
        <time>2021-07-25T14:56:24.000Z</time>
      </trkpt>
      <trkpt lat="-11.77418251521885395050048828125" lon="-76.30702726542949676513671875">
        <ele>3042.60009765625</ele>
        <time>2021-07-25T14:56:31.000Z</time>
      </trkpt>
      <trkpt lat="-11.7741693556308746337890625" lon="-76.30704109556972980499267578125">
        <ele>3042.800048828125</ele>
        <time>2021-07-25T14:56:32.000Z</time>
      </trkpt>
      <trkpt lat="-11.77415234036743640899658203125" lon="-76.307045035064220428466796875">
        <ele>3042.800048828125</ele>
        <time>2021-07-25T14:56:33.000Z</time>
      </trkpt>
      <trkpt lat="-11.77413113415241241455078125" lon="-76.3069903850555419921875">
        <ele>3043</ele>
        <time>2021-07-25T14:56:35.000Z</time>
      </trkpt>
      <trkpt lat="-11.77407455630600452423095703125" lon="-76.3068524189293384552001953125">
        <ele>3043.199951171875</ele>
        <time>2021-07-25T14:56:38.000Z</time>
      </trkpt>
      <trkpt lat="-11.7740263603627681732177734375" lon="-76.3068007864058017730712890625">
        <ele>3043.39990234375</ele>
        <time>2021-07-25T14:56:40.000Z</time>
      </trkpt>
      <trkpt lat="-11.77396751940250396728515625" lon="-76.30677781999111175537109375">
        <ele>3043.60009765625</ele>
        <time>2021-07-25T14:56:42.000Z</time>
      </trkpt>
      <trkpt lat="-11.7739026434719562530517578125" lon="-76.3068041391670703887939453125">
        <ele>3043.800048828125</ele>
        <time>2021-07-25T14:56:44.000Z</time>
      </trkpt>
      <trkpt lat="-11.773822344839572906494140625" lon="-76.30682685412466526031494140625">
        <ele>3044.39990234375</ele>
        <time>2021-07-25T14:56:47.000Z</time>
      </trkpt>
      <trkpt lat="-11.7737095244228839874267578125" lon="-76.3068497367203235626220703125">
        <ele>3044.800048828125</ele>
        <time>2021-07-25T14:56:52.000Z</time>
      </trkpt>
      <trkpt lat="-11.77368630655109882354736328125" lon="-76.306851245462894439697265625">
        <ele>3045</ele>
        <time>2021-07-25T14:56:53.000Z</time>
      </trkpt>
      <trkpt lat="-11.7736575566232204437255859375" lon="-76.30683339200913906097412109375">
        <ele>3045</ele>
        <time>2021-07-25T14:56:55.000Z</time>
      </trkpt>
      <trkpt lat="-11.77363869734108448028564453125" lon="-76.3068195618689060211181640625">
        <ele>3045.199951171875</ele>
        <time>2021-07-25T14:56:56.000Z</time>
      </trkpt>
      <trkpt lat="-11.7735524475574493408203125" lon="-76.30684931762516498565673828125">
        <ele>3045.800048828125</ele>
        <time>2021-07-25T14:57:00.000Z</time>
      </trkpt>
      <trkpt lat="-11.7735093645751476287841796875" lon="-76.306906901299953460693359375">
        <ele>3046</ele>
        <time>2021-07-25T14:57:02.000Z</time>
      </trkpt>
      <trkpt lat="-11.773456893861293792724609375" lon="-76.30693741142749786376953125">
        <ele>3046.199951171875</ele>
        <time>2021-07-25T14:57:04.000Z</time>
      </trkpt>
      <trkpt lat="-11.7733142338693141937255859375" lon="-76.30698527209460735321044921875">
        <ele>3046.800048828125</ele>
        <time>2021-07-25T14:57:10.000Z</time>
      </trkpt>
      <trkpt lat="-11.77329487167298793792724609375" lon="-76.30698896013200283050537109375">
        <ele>3047</ele>
        <time>2021-07-25T14:57:11.000Z</time>
      </trkpt>
      <trkpt lat="-11.7731844820082187652587890625" lon="-76.30701242946088314056396484375">
        <ele>3047.60009765625</ele>
        <time>2021-07-25T14:57:18.000Z</time>
      </trkpt>
      <trkpt lat="-11.77309940569102764129638671875" lon="-76.30705400370061397552490234375">
        <ele>3048.199951171875</ele>
        <time>2021-07-25T14:57:25.000Z</time>
      </trkpt>
      <trkpt lat="-11.77305129356682300567626953125" lon="-76.30705920048058032989501953125">
        <ele>3048.39990234375</ele>
        <time>2021-07-25T14:57:27.000Z</time>
      </trkpt>
      <trkpt lat="-11.772924475371837615966796875" lon="-76.30705819465219974517822265625">
        <ele>3048.800048828125</ele>
        <time>2021-07-25T14:57:31.000Z</time>
      </trkpt>
      <trkpt lat="-11.7728904448449611663818359375" lon="-76.30705970339477062225341796875">
        <ele>3049</ele>
        <time>2021-07-25T14:57:32.000Z</time>
      </trkpt>
      <trkpt lat="-11.77276178263127803802490234375" lon="-76.30705802701413631439208984375">
        <ele>3049.800048828125</ele>
        <time>2021-07-25T14:57:37.000Z</time>
      </trkpt>
      <trkpt lat="-11.77268450148403644561767578125" lon="-76.30704478360712528228759765625">
        <ele>3050</ele>
        <time>2021-07-25T14:57:40.000Z</time>
      </trkpt>
      <trkpt lat="-11.77259556949138641357421875" lon="-76.3070056401193141937255859375">
        <ele>3050.60009765625</ele>
        <time>2021-07-25T14:57:44.000Z</time>
      </trkpt>
      <trkpt lat="-11.77251887507736682891845703125" lon="-76.30690296180546283721923828125">
        <ele>3050.800048828125</ele>
        <time>2021-07-25T14:58:52.000Z</time>
      </trkpt>
      <trkpt lat="-11.772506050765514373779296875" lon="-76.306889466941356658935546875">
        <ele>3050.800048828125</ele>
        <time>2021-07-25T14:58:53.000Z</time>
      </trkpt>
      <trkpt lat="-11.7724740318953990936279296875" lon="-76.30685962736606597900390625">
        <ele>3051</ele>
        <time>2021-07-25T14:58:55.000Z</time>
      </trkpt>
      <trkpt lat="-11.77239230833947658538818359375" lon="-76.30678913556039333343505859375">
        <ele>3051.199951171875</ele>
        <time>2021-07-25T14:58:59.000Z</time>
      </trkpt>
      <trkpt lat="-11.7723010294139385223388671875" lon="-76.30671336315572261810302734375">
        <ele>3051.60009765625</ele>
        <time>2021-07-25T14:59:03.000Z</time>
      </trkpt>
      <trkpt lat="-11.77221159450709819793701171875" lon="-76.30663876421749591827392578125">
        <ele>3052.39990234375</ele>
        <time>2021-07-25T14:59:07.000Z</time>
      </trkpt>
      <trkpt lat="-11.77208955399692058563232421875" lon="-76.30654170177876949310302734375">
        <ele>3053</ele>
        <time>2021-07-25T14:59:12.000Z</time>
      </trkpt>
      <trkpt lat="-11.77206675522029399871826171875" lon="-76.30652435123920440673828125">
        <ele>3053.39990234375</ele>
        <time>2021-07-25T14:59:13.000Z</time>
      </trkpt>
      <trkpt lat="-11.77192795090377330780029296875" lon="-76.30643458105623722076416015625">
        <ele>3054.60009765625</ele>
        <time>2021-07-25T14:59:19.000Z</time>
      </trkpt>
      <trkpt lat="-11.77190783433616161346435546875" lon="-76.30642167292535305023193359375">
        <ele>3054.800048828125</ele>
        <time>2021-07-25T14:59:20.000Z</time>
      </trkpt>
      <trkpt lat="-11.7717649228870868682861328125" lon="-76.306349337100982666015625">
        <ele>3055.60009765625</ele>
        <time>2021-07-25T14:59:27.000Z</time>
      </trkpt>
      <trkpt lat="-11.77174706943333148956298828125" lon="-76.30634129047393798828125">
        <ele>3055.60009765625</ele>
        <time>2021-07-25T14:59:28.000Z</time>
      </trkpt>
      <trkpt lat="-11.77160776220262050628662109375" lon="-76.30633064545691013336181640625">
        <ele>3056</ele>
        <time>2021-07-25T14:59:35.000Z</time>
      </trkpt>
      <trkpt lat="-11.7714749090373516082763671875" lon="-76.30634690634906291961669921875">
        <ele>3056.60009765625</ele>
        <time>2021-07-25T14:59:41.000Z</time>
      </trkpt>
      <trkpt lat="-11.77142101339995861053466796875" lon="-76.30635445006191730499267578125">
        <ele>3056.800048828125</ele>
        <time>2021-07-25T14:59:43.000Z</time>
      </trkpt>
      <trkpt lat="-11.7711976356804370880126953125" lon="-76.3063927553594112396240234375">
        <ele>3057.60009765625</ele>
        <time>2021-07-25T14:59:51.000Z</time>
      </trkpt>
      <trkpt lat="-11.770977862179279327392578125" lon="-76.30640088580548763275146484375">
        <ele>3058.800048828125</ele>
        <time>2021-07-25T14:59:59.000Z</time>
      </trkpt>
      <trkpt lat="-11.7708970606327056884765625" lon="-76.306420080363750457763671875">
        <ele>3059</ele>
        <time>2021-07-25T15:00:02.000Z</time>
      </trkpt>
      <trkpt lat="-11.770708300173282623291015625" lon="-76.3064266182482242584228515625">
        <ele>3060</ele>
        <time>2021-07-25T15:00:09.000Z</time>
      </trkpt>
      <trkpt lat="-11.77067737095057964324951171875" lon="-76.30642401985824108123779296875">
        <ele>3060.199951171875</ele>
        <time>2021-07-25T15:00:10.000Z</time>
      </trkpt>
      <trkpt lat="-11.77046857774257659912109375" lon="-76.30640842951834201812744140625">
        <ele>3061</ele>
        <time>2021-07-25T15:00:17.000Z</time>
      </trkpt>
      <trkpt lat="-11.77035131491720676422119140625" lon="-76.3064179010689258575439453125">
        <ele>3061.800048828125</ele>
        <time>2021-07-25T15:00:21.000Z</time>
      </trkpt>
      <trkpt lat="-11.7703222297132015228271484375" lon="-76.306426785886287689208984375">
        <ele>3062</ele>
        <time>2021-07-25T15:00:22.000Z</time>
      </trkpt>
      <trkpt lat="-11.77011846564710140228271484375" lon="-76.30648336373269557952880859375">
        <ele>3063</ele>
        <time>2021-07-25T15:00:29.000Z</time>
      </trkpt>
      <trkpt lat="-11.7700885422527790069580078125" lon="-76.30649208091199398040771484375">
        <ele>3063.199951171875</ele>
        <time>2021-07-25T15:00:30.000Z</time>
      </trkpt>
      <trkpt lat="-11.7698699422180652618408203125" lon="-76.306581683456897735595703125">
        <ele>3063.800048828125</ele>
        <time>2021-07-25T15:00:38.000Z</time>
      </trkpt>
      <trkpt lat="-11.76979131996631622314453125" lon="-76.30662267096340656280517578125">
        <ele>3064.199951171875</ele>
        <time>2021-07-25T15:00:41.000Z</time>
      </trkpt>
      <trkpt lat="-11.7696738056838512420654296875" lon="-76.3066837750375270843505859375">
        <ele>3064.800048828125</ele>
        <time>2021-07-25T15:00:46.000Z</time>
      </trkpt>
      <trkpt lat="-11.769630052149295806884765625" lon="-76.30669592879712581634521484375">
        <ele>3065.39990234375</ele>
        <time>2021-07-25T15:00:48.000Z</time>
      </trkpt>
      <trkpt lat="-11.7695413716137409210205078125" lon="-76.30669157020747661590576171875">
        <ele>3065.60009765625</ele>
        <time>2021-07-25T15:00:52.000Z</time>
      </trkpt>
      <trkpt lat="-11.76943500526249408721923828125" lon="-76.30661831237375736236572265625">
        <ele>3066.39990234375</ele>
        <time>2021-07-25T15:00:57.000Z</time>
      </trkpt>
      <trkpt lat="-11.76934741437435150146484375" lon="-76.30644832737743854522705078125">
        <ele>3066.800048828125</ele>
        <time>2021-07-25T15:01:03.000Z</time>
      </trkpt>
      <trkpt lat="-11.7692828737199306488037109375" lon="-76.3062586449086666107177734375">
        <ele>3067.39990234375</ele>
        <time>2021-07-25T15:01:08.000Z</time>
      </trkpt>
      <trkpt lat="-11.76924540661275386810302734375" lon="-76.30622386001050472259521484375">
        <ele>3067.60009765625</ele>
        <time>2021-07-25T15:01:10.000Z</time>
      </trkpt>
      <trkpt lat="-11.769180782139301300048828125" lon="-76.306297369301319122314453125">
        <ele>3067.60009765625</ele>
        <time>2021-07-25T15:01:12.000Z</time>
      </trkpt>
      <trkpt lat="-11.76915186457335948944091796875" lon="-76.30631606094539165496826171875">
        <ele>3067.60009765625</ele>
        <time>2021-07-25T15:01:13.000Z</time>
      </trkpt>
      <trkpt lat="-11.76898741163313388824462890625" lon="-76.30634757690131664276123046875">
        <ele>3068.39990234375</ele>
        <time>2021-07-25T15:01:19.000Z</time>
      </trkpt>
      <trkpt lat="-11.76893033087253570556640625" lon="-76.30635377950966358184814453125">
        <ele>3068.800048828125</ele>
        <time>2021-07-25T15:01:21.000Z</time>
      </trkpt>
      <trkpt lat="-11.7687548138201236724853515625" lon="-76.3063614070415496826171875">
        <ele>3069.60009765625</ele>
        <time>2021-07-25T15:01:27.000Z</time>
      </trkpt>
      <trkpt lat="-11.7687276564538478851318359375" lon="-76.30635679699480533599853515625">
        <ele>3069.800048828125</ele>
        <time>2021-07-25T15:01:28.000Z</time>
      </trkpt>
      <trkpt lat="-11.76854677498340606689453125" lon="-76.30630851723253726959228515625">
        <ele>3070.800048828125</ele>
        <time>2021-07-25T15:01:35.000Z</time>
      </trkpt>
      <trkpt lat="-11.76847611553966999053955078125" lon="-76.30628488026559352874755859375">
        <ele>3071.199951171875</ele>
        <time>2021-07-25T15:01:38.000Z</time>
      </trkpt>
      <trkpt lat="-11.7683809809386730194091796875" lon="-76.3062326610088348388671875">
        <ele>3071.800048828125</ele>
        <time>2021-07-25T15:01:42.000Z</time>
      </trkpt>
      <trkpt lat="-11.76829556934535503387451171875" lon="-76.30616602487862110137939453125">
        <ele>3072.39990234375</ele>
        <time>2021-07-25T15:01:47.000Z</time>
      </trkpt>
      <trkpt lat="-11.76822868175804615020751953125" lon="-76.3061104528605937957763671875">
        <ele>3072.800048828125</ele>
        <time>2021-07-25T15:01:50.000Z</time>
      </trkpt>
      <trkpt lat="-11.7681918852031230926513671875" lon="-76.30606980063021183013916015625">
        <ele>3073</ele>
        <time>2021-07-25T15:01:52.000Z</time>
      </trkpt>
      <trkpt lat="-11.76806456409394741058349609375" lon="-76.305886991322040557861328125">
        <ele>3074</ele>
        <time>2021-07-25T15:01:59.000Z</time>
      </trkpt>
      <trkpt lat="-11.76804243586957454681396484375" lon="-76.30585924722254276275634765625">
        <ele>3074.199951171875</ele>
        <time>2021-07-25T15:02:00.000Z</time>
      </trkpt>
      <trkpt lat="-11.767954342067241668701171875" lon="-76.305775344371795654296875">
        <ele>3075</ele>
        <time>2021-07-25T15:02:04.000Z</time>
      </trkpt>
      <trkpt lat="-11.76788468845188617706298828125" lon="-76.3057416491210460662841796875">
        <ele>3075.39990234375</ele>
        <time>2021-07-25T15:02:07.000Z</time>
      </trkpt>
      <trkpt lat="-11.76773565821349620819091796875" lon="-76.30564483813941478729248046875">
        <ele>3076</ele>
        <time>2021-07-25T15:02:14.000Z</time>
      </trkpt>
      <trkpt lat="-11.76762920804321765899658203125" lon="-76.3055782020092010498046875">
        <ele>3077</ele>
        <time>2021-07-25T15:02:19.000Z</time>
      </trkpt>
      <trkpt lat="-11.76743089221417903900146484375" lon="-76.30550703965127468109130859375">
        <ele>3077.800048828125</ele>
        <time>2021-07-25T15:02:27.000Z</time>
      </trkpt>
      <trkpt lat="-11.76740641705691814422607421875" lon="-76.30550167523324489593505859375">
        <ele>3078</ele>
        <time>2021-07-25T15:02:28.000Z</time>
      </trkpt>
      <trkpt lat="-11.76723090000450611114501953125" lon="-76.305451802909374237060546875">
        <ele>3079.199951171875</ele>
        <time>2021-07-25T15:02:36.000Z</time>
      </trkpt>
      <trkpt lat="-11.767124198377132415771484375" lon="-76.30541232414543628692626953125">
        <ele>3079.800048828125</ele>
        <time>2021-07-25T15:02:43.000Z</time>
      </trkpt>
      <trkpt lat="-11.76700073294341564178466796875" lon="-76.30537594668567180633544921875">
        <ele>3080.199951171875</ele>
        <time>2021-07-25T15:02:48.000Z</time>
      </trkpt>
      <trkpt lat="-11.7669260501861572265625" lon="-76.30534526892006397247314453125">
        <ele>3080.39990234375</ele>
        <time>2021-07-25T15:02:51.000Z</time>
      </trkpt>
      <trkpt lat="-11.7667515389621257781982421875" lon="-76.30527553148567676544189453125">
        <ele>3081.199951171875</ele>
        <time>2021-07-25T15:02:58.000Z</time>
      </trkpt>
      <trkpt lat="-11.76670015789568424224853515625" lon="-76.30526010878384113311767578125">
        <ele>3081.39990234375</ele>
        <time>2021-07-25T15:03:00.000Z</time>
      </trkpt>
      <trkpt lat="-11.76647300831973552703857421875" lon="-76.3052001781761646270751953125">
        <ele>3082.199951171875</ele>
        <time>2021-07-25T15:03:09.000Z</time>
      </trkpt>
      <trkpt lat="-11.7663131654262542724609375" lon="-76.30514435470104217529296875">
        <ele>3082.60009765625</ele>
        <time>2021-07-25T15:03:16.000Z</time>
      </trkpt>
      <trkpt lat="-11.76621752791106700897216796875" lon="-76.30510604940354824066162109375">
        <ele>3083.39990234375</ele>
        <time>2021-07-25T15:03:20.000Z</time>
      </trkpt>
      <trkpt lat="-11.76617167890071868896484375" lon="-76.305087693035602569580078125">
        <ele>3083.60009765625</ele>
        <time>2021-07-25T15:03:22.000Z</time>
      </trkpt>
      <trkpt lat="-11.76606363616883754730224609375" lon="-76.305002868175506591796875">
        <ele>3083.800048828125</ele>
        <time>2021-07-25T15:03:27.000Z</time>
      </trkpt>
      <trkpt lat="-11.76594947464764118194580078125" lon="-76.30493472330272197723388671875">
        <ele>3084.60009765625</ele>
        <time>2021-07-25T15:03:32.000Z</time>
      </trkpt>
      <trkpt lat="-11.76586012355983257293701171875" lon="-76.30489759147167205810546875">
        <ele>3085</ele>
        <time>2021-07-25T15:03:36.000Z</time>
      </trkpt>
      <trkpt lat="-11.76573858596384525299072265625" lon="-76.30486699752509593963623046875">
        <ele>3085.60009765625</ele>
        <time>2021-07-25T15:03:41.000Z</time>
      </trkpt>
      <trkpt lat="-11.76568779163062572479248046875" lon="-76.30486071109771728515625">
        <ele>3085.800048828125</ele>
        <time>2021-07-25T15:03:43.000Z</time>
      </trkpt>
      <trkpt lat="-11.76549333147704601287841796875" lon="-76.30482357926666736602783203125">
        <ele>3086.60009765625</ele>
        <time>2021-07-25T15:03:51.000Z</time>
      </trkpt>
      <trkpt lat="-11.76538973115384578704833984375" lon="-76.3048364035785198211669921875">
        <ele>3086.60009765625</ele>
        <time>2021-07-25T15:03:55.000Z</time>
      </trkpt>
      <trkpt lat="-11.7652639187872409820556640625" lon="-76.30484067834913730621337890625">
        <ele>3087</ele>
        <time>2021-07-25T15:04:00.000Z</time>
      </trkpt>
      <trkpt lat="-11.76517096348106861114501953125" lon="-76.30484084598720073699951171875">
        <ele>3087.60009765625</ele>
        <time>2021-07-25T15:04:04.000Z</time>
      </trkpt>
      <trkpt lat="-11.7651294730603694915771484375" lon="-76.30482894368469715118408203125">
        <ele>3088.199951171875</ele>
        <time>2021-07-25T15:04:06.000Z</time>
      </trkpt>
      <trkpt lat="-11.76499955356121063232421875" lon="-76.3047592900693416595458984375">
        <ele>3088.39990234375</ele>
        <time>2021-07-25T15:04:12.000Z</time>
      </trkpt>
      <trkpt lat="-11.76495219580829143524169921875" lon="-76.30475987680256366729736328125">
        <ele>3088.800048828125</ele>
        <time>2021-07-25T15:04:14.000Z</time>
      </trkpt>
      <trkpt lat="-11.76484742201864719390869140625" lon="-76.304761469364166259765625">
        <ele>3089</ele>
        <time>2021-07-25T15:04:18.000Z</time>
      </trkpt>
      <trkpt lat="-11.76468950696289539337158203125" lon="-76.3047676719725131988525390625">
        <ele>3089.800048828125</ele>
        <time>2021-07-25T15:04:25.000Z</time>
      </trkpt>
      <trkpt lat="-11.7646704800426959991455078125" lon="-76.3047680072486400604248046875">
        <ele>3090</ele>
        <time>2021-07-25T15:04:26.000Z</time>
      </trkpt>
      <trkpt lat="-11.764575429260730743408203125" lon="-76.304740011692047119140625">
        <ele>3090.800048828125</ele>
        <time>2021-07-25T15:04:32.000Z</time>
      </trkpt>
      <trkpt lat="-11.76456243731081485748291015625" lon="-76.3047173805534839630126953125">
        <ele>3090.800048828125</ele>
        <time>2021-07-25T15:04:33.000Z</time>
      </trkpt>
      <trkpt lat="-11.76453880034387111663818359375" lon="-76.30460816435515880584716796875">
        <ele>3091.199951171875</ele>
        <time>2021-07-25T15:04:36.000Z</time>
      </trkpt>
      <trkpt lat="-11.76449689082801342010498046875" lon="-76.30447237752377986907958984375">
        <ele>3091.800048828125</ele>
        <time>2021-07-25T15:04:41.000Z</time>
      </trkpt>
      <trkpt lat="-11.764482893049716949462890625" lon="-76.30445242859423160552978515625">
        <ele>3091.800048828125</ele>
        <time>2021-07-25T15:04:42.000Z</time>
      </trkpt>
      <trkpt lat="-11.7643965594470500946044921875" lon="-76.3042692840099334716796875">
        <ele>3092.800048828125</ele>
        <time>2021-07-25T15:04:50.000Z</time>
      </trkpt>
      <trkpt lat="-11.76439077593386173248291015625" lon="-76.3042433001101016998291015625">
        <ele>3092.800048828125</ele>
        <time>2021-07-25T15:04:51.000Z</time>
      </trkpt>
      <trkpt lat="-11.7643378861248493194580078125" lon="-76.3040780089795589447021484375">
        <ele>3093.800048828125</ele>
        <time>2021-07-25T15:04:58.000Z</time>
      </trkpt>
      <trkpt lat="-11.76428600214421749114990234375" lon="-76.303992681205272674560546875">
        <ele>3093.800048828125</ele>
        <time>2021-07-25T15:05:01.000Z</time>
      </trkpt>
      <trkpt lat="-11.764214672148227691650390625" lon="-76.30385044030845165252685546875">
        <ele>3094.39990234375</ele>
        <time>2021-07-25T15:05:07.000Z</time>
      </trkpt>
      <trkpt lat="-11.76417871378362178802490234375" lon="-76.30378774367272853851318359375">
        <ele>3095</ele>
        <time>2021-07-25T15:05:10.000Z</time>
      </trkpt>
      <trkpt lat="-11.7641249857842922210693359375" lon="-76.30368431098759174346923828125">
        <ele>3095.39990234375</ele>
        <time>2021-07-25T15:05:15.000Z</time>
      </trkpt>
      <trkpt lat="-11.76407779566943645477294921875" lon="-76.30363854579627513885498046875">
        <ele>3096.199951171875</ele>
        <time>2021-07-25T15:05:19.000Z</time>
      </trkpt>
      <trkpt lat="-11.7640596069395542144775390625" lon="-76.3036109693348407745361328125">
        <ele>3096.60009765625</ele>
        <time>2021-07-25T15:05:21.000Z</time>
      </trkpt>
      <trkpt lat="-11.76404871046543121337890625" lon="-76.30361415445804595947265625">
        <ele>3096.60009765625</ele>
        <time>2021-07-25T15:05:22.000Z</time>
      </trkpt>
      <trkpt lat="-11.76402012817561626434326171875" lon="-76.3035683892667293548583984375">
        <ele>3096.60009765625</ele>
        <time>2021-07-25T15:05:24.000Z</time>
      </trkpt>
      <trkpt lat="-11.76399867050349712371826171875" lon="-76.30352119915187358856201171875">
        <ele>3097</ele>
        <time>2021-07-25T15:05:26.000Z</time>
      </trkpt>
      <trkpt lat="-11.76398970186710357666015625" lon="-76.3034875877201557159423828125">
        <ele>3097.199951171875</ele>
        <time>2021-07-25T15:05:27.000Z</time>
      </trkpt>
      <trkpt lat="-11.763959862291812896728515625" lon="-76.3034136593341827392578125">
        <ele>3098</ele>
        <time>2021-07-25T15:05:30.000Z</time>
      </trkpt>
      <trkpt lat="-11.76391468383371829986572265625" lon="-76.30333562381565570831298828125">
        <ele>3098.199951171875</ele>
        <time>2021-07-25T15:05:34.000Z</time>
      </trkpt>
      <trkpt lat="-11.76388232968747615814208984375" lon="-76.303300000727176666259765625">
        <ele>3099</ele>
        <time>2021-07-25T15:05:37.000Z</time>
      </trkpt>
      <trkpt lat="-11.763839833438396453857421875" lon="-76.3032646290957927703857421875">
        <ele>3099.199951171875</ele>
        <time>2021-07-25T15:05:40.000Z</time>
      </trkpt>
      <trkpt lat="-11.76380731165409088134765625" lon="-76.3031878508627414703369140625">
        <ele>3099.800048828125</ele>
        <time>2021-07-25T15:05:43.000Z</time>
      </trkpt>
      <trkpt lat="-11.7637581937015056610107421875" lon="-76.3030996732413768768310546875">
        <ele>3100.39990234375</ele>
        <time>2021-07-25T15:05:47.000Z</time>
      </trkpt>
      <trkpt lat="-11.76370396278798580169677734375" lon="-76.3030114956200122833251953125">
        <ele>3100.800048828125</ele>
        <time>2021-07-25T15:05:51.000Z</time>
      </trkpt>
      <trkpt lat="-11.76363741047680377960205078125" lon="-76.30294150672852993011474609375">
        <ele>3101.39990234375</ele>
        <time>2021-07-25T15:05:55.000Z</time>
      </trkpt>
      <trkpt lat="-11.7635965906083583831787109375" lon="-76.3028959929943084716796875">
        <ele>3101.800048828125</ele>
        <time>2021-07-25T15:05:58.000Z</time>
      </trkpt>
      <trkpt lat="-11.76355124451220035552978515625" lon="-76.30281661637127399444580078125">
        <ele>3102.39990234375</ele>
        <time>2021-07-25T15:06:02.000Z</time>
      </trkpt>
      <trkpt lat="-11.76350782625377178192138671875" lon="-76.30279071629047393798828125">
        <ele>3102.60009765625</ele>
        <time>2021-07-25T15:06:04.000Z</time>
      </trkpt>
      <trkpt lat="-11.76338360644876956939697265625" lon="-76.3027563504874706268310546875">
        <ele>3103.39990234375</ele>
        <time>2021-07-25T15:06:10.000Z</time>
      </trkpt>
      <trkpt lat="-11.7633679322898387908935546875" lon="-76.3027503155171871185302734375">
        <ele>3103.60009765625</ele>
        <time>2021-07-25T15:06:11.000Z</time>
      </trkpt>
      <trkpt lat="-11.7632002942264080047607421875" lon="-76.3026825897395610809326171875">
        <ele>3104.39990234375</ele>
        <time>2021-07-25T15:06:20.000Z</time>
      </trkpt>
      <trkpt lat="-11.763182021677494049072265625" lon="-76.30267714150249958038330078125">
        <ele>3104.60009765625</ele>
        <time>2021-07-25T15:06:21.000Z</time>
      </trkpt>
      <trkpt lat="-11.763039864599704742431640625" lon="-76.302653253078460693359375">
        <ele>3105.39990234375</ele>
        <time>2021-07-25T15:06:28.000Z</time>
      </trkpt>
      <trkpt lat="-11.7630202509462833404541015625" lon="-76.30265367217361927032470703125">
        <ele>3105.60009765625</ele>
        <time>2021-07-25T15:06:29.000Z</time>
      </trkpt>
      <trkpt lat="-11.76289376802742481231689453125" lon="-76.30268803797662258148193359375">
        <ele>3106.199951171875</ele>
        <time>2021-07-25T15:06:35.000Z</time>
      </trkpt>
      <trkpt lat="-11.76284699700772762298583984375" lon="-76.30269105546176433563232421875">
        <ele>3106.800048828125</ele>
        <time>2021-07-25T15:06:37.000Z</time>
      </trkpt>
      <trkpt lat="-11.7627516947686672210693359375" lon="-76.302697174251079559326171875">
        <ele>3107.199951171875</ele>
        <time>2021-07-25T15:06:42.000Z</time>
      </trkpt>
      <trkpt lat="-11.762658320367336273193359375" lon="-76.30269641987979412078857421875">
        <ele>3107.800048828125</ele>
        <time>2021-07-25T15:06:46.000Z</time>
      </trkpt>
      <trkpt lat="-11.76261263899505138397216796875" lon="-76.3026973418891429901123046875">
        <ele>3108.199951171875</ele>
        <time>2021-07-25T15:06:48.000Z</time>
      </trkpt>
      <trkpt lat="-11.76249579526484012603759765625" lon="-76.30268887616693973541259765625">
        <ele>3108.800048828125</ele>
        <time>2021-07-25T15:06:53.000Z</time>
      </trkpt>
      <trkpt lat="-11.76240543834865093231201171875" lon="-76.3026514090597629547119140625">
        <ele>3109.39990234375</ele>
        <time>2021-07-25T15:06:57.000Z</time>
      </trkpt>
      <trkpt lat="-11.76233477890491485595703125" lon="-76.3026269339025020599365234375">
        <ele>3109.800048828125</ele>
        <time>2021-07-25T15:07:00.000Z</time>
      </trkpt>
      <trkpt lat="-11.76223377697169780731201171875" lon="-76.3026205636560916900634765625">
        <ele>3110.199951171875</ele>
        <time>2021-07-25T15:07:04.000Z</time>
      </trkpt>
      <trkpt lat="-11.7621773667633533477783203125" lon="-76.30258628167212009429931640625">
        <ele>3111</ele>
        <time>2021-07-25T15:07:07.000Z</time>
      </trkpt>
      <trkpt lat="-11.7621297575533390045166015625" lon="-76.30253951065242290496826171875">
        <ele>3111.39990234375</ele>
        <time>2021-07-25T15:07:10.000Z</time>
      </trkpt>
      <trkpt lat="-11.76202825270593166351318359375" lon="-76.30244429223239421844482421875">
        <ele>3112.199951171875</ele>
        <time>2021-07-25T15:07:17.000Z</time>
      </trkpt>
      <trkpt lat="-11.76195113919675350189208984375" lon="-76.30235326476395130157470703125">
        <ele>3113.199951171875</ele>
        <time>2021-07-25T15:07:23.000Z</time>
      </trkpt>
      <trkpt lat="-11.76193873398005962371826171875" lon="-76.3023382611572742462158203125">
        <ele>3113.39990234375</ele>
        <time>2021-07-25T15:07:24.000Z</time>
      </trkpt>
      <trkpt lat="-11.7618313618004322052001953125" lon="-76.302234828472137451171875">
        <ele>3114.199951171875</ele>
        <time>2021-07-25T15:07:31.000Z</time>
      </trkpt>
      <trkpt lat="-11.76181300543248653411865234375" lon="-76.3022178970277309417724609375">
        <ele>3114.39990234375</ele>
        <time>2021-07-25T15:07:32.000Z</time>
      </trkpt>
      <trkpt lat="-11.76165081560611724853515625" lon="-76.302078925073146820068359375">
        <ele>3115.199951171875</ele>
        <time>2021-07-25T15:07:41.000Z</time>
      </trkpt>
      <trkpt lat="-11.76150798797607421875" lon="-76.30199250765144824981689453125">
        <ele>3116.199951171875</ele>
        <time>2021-07-25T15:07:48.000Z</time>
      </trkpt>
      <trkpt lat="-11.7614851891994476318359375" lon="-76.301984377205371856689453125">
        <ele>3116.199951171875</ele>
        <time>2021-07-25T15:07:49.000Z</time>
      </trkpt>
      <trkpt lat="-11.7613955028355121612548828125" lon="-76.3019158132374286651611328125">
        <ele>3116.800048828125</ele>
        <time>2021-07-25T15:07:54.000Z</time>
      </trkpt>
      <trkpt lat="-11.7612432874739170074462890625" lon="-76.30184096284210681915283203125">
        <ele>3117.199951171875</ele>
        <time>2021-07-25T15:08:01.000Z</time>
      </trkpt>
      <trkpt lat="-11.7612010426819324493408203125" lon="-76.30181749351322650909423828125">
        <ele>3117.39990234375</ele>
        <time>2021-07-25T15:08:03.000Z</time>
      </trkpt>
      <trkpt lat="-11.76108646206557750701904296875" lon="-76.301762424409389495849609375">
        <ele>3117.800048828125</ele>
        <time>2021-07-25T15:08:08.000Z</time>
      </trkpt>
      <trkpt lat="-11.76085612736642360687255859375" lon="-76.301650106906890869140625">
        <ele>3118</ele>
        <time>2021-07-25T15:08:17.000Z</time>
      </trkpt>
      <trkpt lat="-11.76068119704723358154296875" lon="-76.301530413329601287841796875">
        <ele>3118.199951171875</ele>
        <time>2021-07-25T15:08:24.000Z</time>
      </trkpt>
      <trkpt lat="-11.7606535367667675018310546875" lon="-76.3015146553516387939453125">
        <ele>3118.39990234375</ele>
        <time>2021-07-25T15:08:25.000Z</time>
      </trkpt>
      <trkpt lat="-11.76048732362687587738037109375" lon="-76.30139152519404888153076171875">
        <ele>3118.199951171875</ele>
        <time>2021-07-25T15:08:31.000Z</time>
      </trkpt>
      <trkpt lat="-11.76045857369899749755859375" lon="-76.30137107335031032562255859375">
        <ele>3118.199951171875</ele>
        <time>2021-07-25T15:08:32.000Z</time>
      </trkpt>
      <trkpt lat="-11.76015808247029781341552734375" lon="-76.3012217916548252105712890625">
        <ele>3118.39990234375</ele>
        <time>2021-07-25T15:08:42.000Z</time>
      </trkpt>
      <trkpt lat="-11.75994199700653553009033203125" lon="-76.3011124916374683380126953125">
        <ele>3118.60009765625</ele>
        <time>2021-07-25T15:08:49.000Z</time>
      </trkpt>
      <trkpt lat="-11.75969976000487804412841796875" lon="-76.30095281638205051422119140625">
        <ele>3118.800048828125</ele>
        <time>2021-07-25T15:08:57.000Z</time>
      </trkpt>
      <trkpt lat="-11.75951133482158184051513671875" lon="-76.30078853107988834381103515625">
        <ele>3119.199951171875</ele>
        <time>2021-07-25T15:09:04.000Z</time>
      </trkpt>
      <trkpt lat="-11.75939373672008514404296875" lon="-76.300588957965373992919921875">
        <ele>3119.39990234375</ele>
        <time>2021-07-25T15:09:10.000Z</time>
      </trkpt>
      <trkpt lat="-11.75930279307067394256591796875" lon="-76.3003183901309967041015625">
        <ele>3119.199951171875</ele>
        <time>2021-07-25T15:09:17.000Z</time>
      </trkpt>
      <trkpt lat="-11.75926524214446544647216796875" lon="-76.3002602197229862213134765625">
        <ele>3119.800048828125</ele>
        <time>2021-07-25T15:09:19.000Z</time>
      </trkpt>
      <trkpt lat="-11.7592048086225986480712890625" lon="-76.3000828586518764495849609375">
        <ele>3119.39990234375</ele>
        <time>2021-07-25T15:09:24.000Z</time>
      </trkpt>
      <trkpt lat="-11.759152673184871673583984375" lon="-76.29997909069061279296875">
        <ele>3119.60009765625</ele>
        <time>2021-07-25T15:09:27.000Z</time>
      </trkpt>
      <trkpt lat="-11.75910833291709423065185546875" lon="-76.29991899244487285614013671875">
        <ele>3119.60009765625</ele>
        <time>2021-07-25T15:09:29.000Z</time>
      </trkpt>
      <trkpt lat="-11.7590251006186008453369140625" lon="-76.2996800243854522705078125">
        <ele>3119.800048828125</ele>
        <time>2021-07-25T15:09:36.000Z</time>
      </trkpt>
      <trkpt lat="-11.75894874148070812225341796875" lon="-76.299453042447566986083984375">
        <ele>3120.39990234375</ele>
        <time>2021-07-25T15:09:43.000Z</time>
      </trkpt>
      <trkpt lat="-11.75887196324765682220458984375" lon="-76.299245841801166534423828125">
        <ele>3120.60009765625</ele>
        <time>2021-07-25T15:09:50.000Z</time>
      </trkpt>
      <trkpt lat="-11.75881479866802692413330078125" lon="-76.29916034638881683349609375">
        <ele>3120.800048828125</ele>
        <time>2021-07-25T15:09:54.000Z</time>
      </trkpt>
      <trkpt lat="-11.75878311507403850555419921875" lon="-76.299113072454929351806640625">
        <ele>3120.800048828125</ele>
        <time>2021-07-25T15:09:56.000Z</time>
      </trkpt>
      <trkpt lat="-11.75867415033280849456787109375" lon="-76.2990121543407440185546875">
        <ele>3121.199951171875</ele>
        <time>2021-07-25T15:10:02.000Z</time>
      </trkpt>
      <trkpt lat="-11.7585543729364871978759765625" lon="-76.2989321909844875335693359375">
        <ele>3121.60009765625</ele>
        <time>2021-07-25T15:10:08.000Z</time>
      </trkpt>
      <trkpt lat="-11.75844230689108371734619140625" lon="-76.2988601066172122955322265625">
        <ele>3121.800048828125</ele>
        <time>2021-07-25T15:10:14.000Z</time>
      </trkpt>
      <trkpt lat="-11.758424453437328338623046875" lon="-76.29885247908532619476318359375">
        <ele>3121.800048828125</ele>
        <time>2021-07-25T15:10:15.000Z</time>
      </trkpt>
      <trkpt lat="-11.7583522014319896697998046875" lon="-76.29882548935711383819580078125">
        <ele>3122</ele>
        <time>2021-07-25T15:10:19.000Z</time>
      </trkpt>
      <trkpt lat="-11.75833837129175662994384765625" lon="-76.29881794564425945281982421875">
        <ele>3122</ele>
        <time>2021-07-25T15:10:20.000Z</time>
      </trkpt>
      <trkpt lat="-11.758288331329822540283203125" lon="-76.2988071329891681671142578125">
        <ele>3122.199951171875</ele>
        <time>2021-07-25T15:10:23.000Z</time>
      </trkpt>
      <trkpt lat="-11.75819872878491878509521484375" lon="-76.29879531450569629669189453125">
        <ele>3122.199951171875</ele>
        <time>2021-07-25T15:10:27.000Z</time>
      </trkpt>
      <trkpt lat="-11.758017428219318389892578125" lon="-76.29876245744526386260986328125">
        <ele>3122.60009765625</ele>
        <time>2021-07-25T15:10:35.000Z</time>
      </trkpt>
      <trkpt lat="-11.75786512903869152069091796875" lon="-76.2987420894205570220947265625">
        <ele>3122.800048828125</ele>
        <time>2021-07-25T15:10:41.000Z</time>
      </trkpt>
      <trkpt lat="-11.7576907016336917877197265625" lon="-76.2986981682479381561279296875">
        <ele>3123.39990234375</ele>
        <time>2021-07-25T15:10:47.000Z</time>
      </trkpt>
      <trkpt lat="-11.757467575371265411376953125" lon="-76.298636980354785919189453125">
        <ele>3124</ele>
        <time>2021-07-25T15:10:54.000Z</time>
      </trkpt>
      <trkpt lat="-11.75722005777060985565185546875" lon="-76.29854100756347179412841796875">
        <ele>3124.39990234375</ele>
        <time>2021-07-25T15:11:02.000Z</time>
      </trkpt>
      <trkpt lat="-11.75702073611319065093994140625" lon="-76.298388205468654632568359375">
        <ele>3124.800048828125</ele>
        <time>2021-07-25T15:11:09.000Z</time>
      </trkpt>
      <trkpt lat="-11.7569212429225444793701171875" lon="-76.29829860292375087738037109375">
        <ele>3125</ele>
        <time>2021-07-25T15:11:14.000Z</time>
      </trkpt>
      <trkpt lat="-11.75692233256995677947998046875" lon="-76.29828636534512042999267578125">
        <ele>3125</ele>
        <time>2021-07-25T15:11:15.000Z</time>
      </trkpt>
      <trkpt lat="-11.75671881996095180511474609375" lon="-76.29834554158151149749755859375">
        <ele>3124.800048828125</ele>
        <time>2021-07-25T15:12:53.000Z</time>
      </trkpt>
      <trkpt lat="-11.7567100189626216888427734375" lon="-76.29835643805563449859619140625">
        <ele>3124.800048828125</ele>
        <time>2021-07-25T15:12:54.000Z</time>
      </trkpt>
      <trkpt lat="-11.756796352565288543701171875" lon="-76.29836817272007465362548828125">
        <ele>3125.800048828125</ele>
        <time>2021-07-25T15:17:26.000Z</time>
      </trkpt>
      <trkpt lat="-11.756868772208690643310546875" lon="-76.29825082607567310333251953125">
        <ele>3125.800048828125</ele>
        <time>2021-07-25T15:17:34.000Z</time>
      </trkpt>
      <trkpt lat="-11.75682577304542064666748046875" lon="-76.29823154769837856292724609375">
        <ele>3126.39990234375</ele>
        <time>2021-07-25T15:22:04.000Z</time>
      </trkpt>
      <trkpt lat="-11.75682141445577144622802734375" lon="-76.298232637345790863037109375">
        <ele>3126.199951171875</ele>
        <time>2021-07-25T15:22:06.000Z</time>
      </trkpt>
      <trkpt lat="-11.7568300478160381317138671875" lon="-76.2981885485351085662841796875">
        <ele>3126.39990234375</ele>
        <time>2021-07-25T15:22:11.000Z</time>
      </trkpt>
      <trkpt lat="-11.756854355335235595703125" lon="-76.29811294376850128173828125">
        <ele>3126.39990234375</ele>
        <time>2021-07-25T15:22:16.000Z</time>
      </trkpt>
      <trkpt lat="-11.756825856864452362060546875" lon="-76.2980438768863677978515625">
        <ele>3126.39990234375</ele>
        <time>2021-07-25T15:22:31.000Z</time>
      </trkpt>
      <trkpt lat="-11.75686567090451717376708984375" lon="-76.29785536788403987884521484375">
        <ele>3126.39990234375</ele>
        <time>2021-07-25T15:22:49.000Z</time>
      </trkpt>
      <trkpt lat="-11.75693138502538204193115234375" lon="-76.29771455191075801849365234375">
        <ele>3126.39990234375</ele>
        <time>2021-07-25T15:23:04.000Z</time>
      </trkpt>
      <trkpt lat="-11.75694487988948822021484375" lon="-76.2976762466132640838623046875">
        <ele>3126.39990234375</ele>
        <time>2021-07-25T15:23:08.000Z</time>
      </trkpt>
      <trkpt lat="-11.75692769698798656463623046875" lon="-76.29767163656651973724365234375">
        <ele>3126.39990234375</ele>
        <time>2021-07-25T15:23:12.000Z</time>
      </trkpt>
      <trkpt lat="-11.7569266073405742645263671875" lon="-76.297653615474700927734375">
        <ele>3126.39990234375</ele>
        <time>2021-07-25T15:23:17.000Z</time>
      </trkpt>
      <trkpt lat="-11.7569296248257160186767578125" lon="-76.29765051417052745819091796875">
        <ele>3126.39990234375</ele>
        <time>2021-07-25T15:23:18.000Z</time>
      </trkpt>
      <trkpt lat="-11.7569763958454132080078125" lon="-76.2976215966045856475830078125">
        <ele>3126.39990234375</ele>
        <time>2021-07-25T15:23:36.000Z</time>
      </trkpt>
      <trkpt lat="-11.75697698257863521575927734375" lon="-76.2975702993571758270263671875">
        <ele>3126.39990234375</ele>
        <time>2021-07-25T15:23:40.000Z</time>
      </trkpt>
      <trkpt lat="-11.75701973028481006622314453125" lon="-76.29804815165698528289794921875">
        <ele>3126.39990234375</ele>
        <time>2021-07-25T15:27:02.000Z</time>
      </trkpt>
      <trkpt lat="-11.75703548826277256011962890625" lon="-76.29802300594747066497802734375">
        <ele>3126.60009765625</ele>
        <time>2021-07-25T15:27:05.000Z</time>
      </trkpt>
      <trkpt lat="-11.7570084147155284881591796875" lon="-76.29797874949872493743896484375">
        <ele>3126.39990234375</ele>
        <time>2021-07-25T15:27:14.000Z</time>
      </trkpt>
      <trkpt lat="-11.75700983963906764984130859375" lon="-76.297920830547809600830078125">
        <ele>3126.60009765625</ele>
        <time>2021-07-25T15:27:22.000Z</time>
      </trkpt>
      <trkpt lat="-11.75701336003839969635009765625" lon="-76.29789166152477264404296875">
        <ele>3126.60009765625</ele>
        <time>2021-07-25T15:27:24.000Z</time>
      </trkpt>
      <trkpt lat="-11.75701319240033626556396484375" lon="-76.29778009839355945587158203125">
        <ele>3126.60009765625</ele>
        <time>2021-07-25T15:27:29.000Z</time>
      </trkpt>
      <trkpt lat="-11.75701327621936798095703125" lon="-76.29775696434080600738525390625">
        <ele>3126.60009765625</ele>
        <time>2021-07-25T15:27:30.000Z</time>
      </trkpt>
      <trkpt lat="-11.757014952600002288818359375" lon="-76.2977376021444797515869140625">
        <ele>3126.60009765625</ele>
        <time>2021-07-25T15:27:31.000Z</time>
      </trkpt>
      <trkpt lat="-11.757029034197330474853515625" lon="-76.29766643978655338287353515625">
        <ele>3126.60009765625</ele>
        <time>2021-07-25T15:27:38.000Z</time>
      </trkpt>
      <trkpt lat="-11.7568709515035152435302734375" lon="-76.29826239310204982757568359375">
        <ele>3126.60009765625</ele>
        <time>2021-07-25T15:28:10.000Z</time>
      </trkpt>
      <trkpt lat="-11.75689266063272953033447265625" lon="-76.29825350828468799591064453125">
        <ele>3126.39990234375</ele>
        <time>2021-07-25T15:28:14.000Z</time>
      </trkpt>
      <trkpt lat="-11.75686902366578578948974609375" lon="-76.29817723296582698822021484375">
        <ele>3126.60009765625</ele>
        <time>2021-07-25T15:28:19.000Z</time>
      </trkpt>
      <trkpt lat="-11.75685963593423366546630859375" lon="-76.2980926595628261566162109375">
        <ele>3126.60009765625</ele>
        <time>2021-07-25T15:28:26.000Z</time>
      </trkpt>
      <trkpt lat="-11.75690196454524993896484375" lon="-76.298030130565166473388671875">
        <ele>3126.60009765625</ele>
        <time>2021-07-25T15:28:33.000Z</time>
      </trkpt>
      <trkpt lat="-11.756894923746585845947265625" lon="-76.2979719601571559906005859375">
        <ele>3126.60009765625</ele>
        <time>2021-07-25T15:28:38.000Z</time>
      </trkpt>
      <trkpt lat="-11.75690037198364734649658203125" lon="-76.2979499995708465576171875">
        <ele>3126.60009765625</ele>
        <time>2021-07-25T15:28:41.000Z</time>
      </trkpt>
      <trkpt lat="-11.7569188959896564483642578125" lon="-76.2978373467922210693359375">
        <ele>3126.60009765625</ele>
        <time>2021-07-25T15:28:53.000Z</time>
      </trkpt>
      <trkpt lat="-11.75692501477897167205810546875" lon="-76.2978348322212696075439453125">
        <ele>3126.60009765625</ele>
        <time>2021-07-25T15:28:54.000Z</time>
      </trkpt>
      <trkpt lat="-11.75702375359833240509033203125" lon="-76.29780658520758152008056640625">
        <ele>3126.60009765625</ele>
        <time>2021-07-25T15:29:04.000Z</time>
      </trkpt>
      <trkpt lat="-11.75702869892120361328125" lon="-76.29779904149472713470458984375">
        <ele>3126.60009765625</ele>
        <time>2021-07-25T15:29:05.000Z</time>
      </trkpt>
      <trkpt lat="-11.75706415437161922454833984375" lon="-76.297787390649318695068359375">
        <ele>3126.60009765625</ele>
        <time>2021-07-25T15:29:10.000Z</time>
      </trkpt>
      <trkpt lat="-11.7570734582841396331787109375" lon="-76.29778613336384296417236328125">
        <ele>3126.60009765625</ele>
        <time>2021-07-25T15:29:13.000Z</time>
      </trkpt>
      <trkpt lat="-11.75706817768514156341552734375" lon="-76.29780960269272327423095703125">
        <ele>3126.800048828125</ele>
        <time>2021-07-25T15:32:40.000Z</time>
      </trkpt>
      <trkpt lat="-11.75706884823739528656005859375" lon="-76.29778982140123844146728515625">
        <ele>3126.800048828125</ele>
        <time>2021-07-25T15:32:42.000Z</time>
      </trkpt>
      <trkpt lat="-11.7570751346647739410400390625" lon="-76.29775763489305973052978515625">
        <ele>3126.800048828125</ele>
        <time>2021-07-25T15:32:46.000Z</time>
      </trkpt>
      <trkpt lat="-11.757066249847412109375" lon="-76.29770751111209392547607421875">
        <ele>3126.800048828125</ele>
        <time>2021-07-25T15:33:00.000Z</time>
      </trkpt>
      <trkpt lat="-11.75700749270617961883544921875" lon="-76.29785084165632724761962890625">
        <ele>3127.199951171875</ele>
        <time>2021-07-25T15:35:48.000Z</time>
      </trkpt>
      <trkpt lat="-11.75698217935860157012939453125" lon="-76.2978613190352916717529296875">
        <ele>3127.199951171875</ele>
        <time>2021-07-25T15:35:49.000Z</time>
      </trkpt>
      <trkpt lat="-11.756881177425384521484375" lon="-76.29782997071743011474609375">
        <ele>3127.199951171875</ele>
        <time>2021-07-25T15:35:53.000Z</time>
      </trkpt>
      <trkpt lat="-11.7568575404584407806396484375" lon="-76.29781345836818218231201171875">
        <ele>3127.199951171875</ele>
        <time>2021-07-25T15:35:54.000Z</time>
      </trkpt>
      <trkpt lat="-11.75683281384408473968505859375" lon="-76.29780004732310771942138671875">
        <ele>3127.39990234375</ele>
        <time>2021-07-25T15:35:55.000Z</time>
      </trkpt>
      <trkpt lat="-11.75677263177931308746337890625" lon="-76.2977490015327930450439453125">
        <ele>3127.60009765625</ele>
        <time>2021-07-25T15:35:58.000Z</time>
      </trkpt>
      <trkpt lat="-11.75672804005444049835205078125" lon="-76.29771321080625057220458984375">
        <ele>3127.800048828125</ele>
        <time>2021-07-25T15:36:00.000Z</time>
      </trkpt>
      <trkpt lat="-11.756571047008037567138671875" lon="-76.29750818945467472076416015625">
        <ele>3128.199951171875</ele>
        <time>2021-07-25T15:36:08.000Z</time>
      </trkpt>
      <trkpt lat="-11.75655067898333072662353515625" lon="-76.29749410785734653472900390625">
        <ele>3128.199951171875</ele>
        <time>2021-07-25T15:36:09.000Z</time>
      </trkpt>
      <trkpt lat="-11.7564632557332515716552734375" lon="-76.29742495715618133544921875">
        <ele>3128.39990234375</ele>
        <time>2021-07-25T15:36:13.000Z</time>
      </trkpt>
      <trkpt lat="-11.75636912696063518524169921875" lon="-76.29733820445835590362548828125">
        <ele>3129</ele>
        <time>2021-07-25T15:36:17.000Z</time>
      </trkpt>
      <trkpt lat="-11.75622194074094295501708984375" lon="-76.2971056066453456878662109375">
        <ele>3129.39990234375</ele>
        <time>2021-07-25T15:36:25.000Z</time>
      </trkpt>
      <trkpt lat="-11.75620324909687042236328125" lon="-76.29707501269876956939697265625">
        <ele>3129.60009765625</ele>
        <time>2021-07-25T15:36:26.000Z</time>
      </trkpt>
      <trkpt lat="-11.7560589127242565155029296875" lon="-76.29688809625804424285888671875">
        <ele>3130.199951171875</ele>
        <time>2021-07-25T15:36:33.000Z</time>
      </trkpt>
      <trkpt lat="-11.75599730573594570159912109375" lon="-76.2968058697879314422607421875">
        <ele>3130.60009765625</ele>
        <time>2021-07-25T15:36:36.000Z</time>
      </trkpt>
      <trkpt lat="-11.75590225495398044586181640625" lon="-76.2966942228376865386962890625">
        <ele>3130.800048828125</ele>
        <time>2021-07-25T15:36:40.000Z</time>
      </trkpt>
      <trkpt lat="-11.75564576871693134307861328125" lon="-76.29637914709746837615966796875">
        <ele>3131.60009765625</ele>
        <time>2021-07-25T15:36:51.000Z</time>
      </trkpt>
      <trkpt lat="-11.75562112592160701751708984375" lon="-76.29634629003703594207763671875">
        <ele>3131.60009765625</ele>
        <time>2021-07-25T15:36:52.000Z</time>
      </trkpt>
      <trkpt lat="-11.75537788309156894683837890625" lon="-76.2960535101592540740966796875">
        <ele>3132.199951171875</ele>
        <time>2021-07-25T15:37:02.000Z</time>
      </trkpt>
      <trkpt lat="-11.75526179373264312744140625" lon="-76.2959160469472408294677734375">
        <ele>3132.60009765625</ele>
        <time>2021-07-25T15:37:07.000Z</time>
      </trkpt>
      <trkpt lat="-11.7551426030695438385009765625" lon="-76.29578889347612857818603515625">
        <ele>3133</ele>
        <time>2021-07-25T15:37:12.000Z</time>
      </trkpt>
      <trkpt lat="-11.75495627336204051971435546875" lon="-76.295625865459442138671875">
        <ele>3133.800048828125</ele>
        <time>2021-07-25T15:37:19.000Z</time>
      </trkpt>
      <trkpt lat="-11.7548713646829128265380859375" lon="-76.2955576367676258087158203125">
        <ele>3133.800048828125</ele>
        <time>2021-07-25T15:37:22.000Z</time>
      </trkpt>
      <trkpt lat="-11.7546081729233264923095703125" lon="-76.295368373394012451171875">
        <ele>3134.39990234375</ele>
        <time>2021-07-25T15:37:31.000Z</time>
      </trkpt>
      <trkpt lat="-11.75446920096874237060546875" lon="-76.2952471710741519927978515625">
        <ele>3135</ele>
        <time>2021-07-25T15:37:36.000Z</time>
      </trkpt>
      <trkpt lat="-11.7544073425233364105224609375" lon="-76.295205764472484588623046875">
        <ele>3135</ele>
        <time>2021-07-25T15:37:38.000Z</time>
      </trkpt>
      <trkpt lat="-11.754155717790126800537109375" lon="-76.295072995126247406005859375">
        <ele>3135.800048828125</ele>
        <time>2021-07-25T15:37:46.000Z</time>
      </trkpt>
      <trkpt lat="-11.75402336753904819488525390625" lon="-76.2950295768678188323974609375">
        <ele>3136</ele>
        <time>2021-07-25T15:37:50.000Z</time>
      </trkpt>
      <trkpt lat="-11.75385103560984134674072265625" lon="-76.29500987939536571502685546875">
        <ele>3136.39990234375</ele>
        <time>2021-07-25T15:37:55.000Z</time>
      </trkpt>
      <trkpt lat="-11.75357946194708347320556640625" lon="-76.2950315885245800018310546875">
        <ele>3136.800048828125</ele>
        <time>2021-07-25T15:38:03.000Z</time>
      </trkpt>
      <trkpt lat="-11.75354090519249439239501953125" lon="-76.2950349412858486175537109375">
        <ele>3137</ele>
        <time>2021-07-25T15:38:04.000Z</time>
      </trkpt>
      <trkpt lat="-11.75327586941421031951904296875" lon="-76.29504424519836902618408203125">
        <ele>3137.800048828125</ele>
        <time>2021-07-25T15:38:11.000Z</time>
      </trkpt>
      <trkpt lat="-11.75306975841522216796875" lon="-76.29501407034695148468017578125">
        <ele>3138.199951171875</ele>
        <time>2021-07-25T15:38:17.000Z</time>
      </trkpt>
      <trkpt lat="-11.753035895526409149169921875" lon="-76.2950051017105579376220703125">
        <ele>3138.39990234375</ele>
        <time>2021-07-25T15:38:18.000Z</time>
      </trkpt>
      <trkpt lat="-11.75273221917450428009033203125" lon="-76.294925473630428314208984375">
        <ele>3139.199951171875</ele>
        <time>2021-07-25T15:38:27.000Z</time>
      </trkpt>
      <trkpt lat="-11.75241253338754177093505859375" lon="-76.29484408535063266754150390625">
        <ele>3140.199951171875</ele>
        <time>2021-07-25T15:38:37.000Z</time>
      </trkpt>
      <trkpt lat="-11.75238084979355335235595703125" lon="-76.2948344461619853973388671875">
        <ele>3140.39990234375</ele>
        <time>2021-07-25T15:38:38.000Z</time>
      </trkpt>
      <trkpt lat="-11.7521589808166027069091796875" lon="-76.29473344422876834869384765625">
        <ele>3141.199951171875</ele>
        <time>2021-07-25T15:38:45.000Z</time>
      </trkpt>
      <trkpt lat="-11.75211681984364986419677734375" lon="-76.29472933709621429443359375">
        <ele>3141.199951171875</ele>
        <time>2021-07-25T15:38:46.000Z</time>
      </trkpt>
      <trkpt lat="-11.7520677857100963592529296875" lon="-76.29473344422876834869384765625">
        <ele>3141.39990234375</ele>
        <time>2021-07-25T15:38:47.000Z</time>
      </trkpt>
      <trkpt lat="-11.75202570855617523193359375" lon="-76.2946899421513080596923828125">
        <ele>3141.39990234375</ele>
        <time>2021-07-25T15:38:49.000Z</time>
      </trkpt>
      <trkpt lat="-11.75192839466035366058349609375" lon="-76.2945635430514812469482421875">
        <ele>3142.39990234375</ele>
        <time>2021-07-25T15:38:54.000Z</time>
      </trkpt>
      <trkpt lat="-11.7518910951912403106689453125" lon="-76.29452507011592388153076171875">
        <ele>3142.39990234375</ele>
        <time>2021-07-25T15:38:56.000Z</time>
      </trkpt>
      <trkpt lat="-11.75183334387838840484619140625" lon="-76.29443068988621234893798828125">
        <ele>3143.39990234375</ele>
        <time>2021-07-25T15:39:00.000Z</time>
      </trkpt>
      <trkpt lat="-11.7517864890396595001220703125" lon="-76.29434133879840373992919921875">
        <ele>3144</ele>
        <time>2021-07-25T15:39:04.000Z</time>
      </trkpt>
      <trkpt lat="-11.75175036303699016571044921875" lon="-76.2942809052765369415283203125">
        <ele>3144.39990234375</ele>
        <time>2021-07-25T15:39:07.000Z</time>
      </trkpt>
      <trkpt lat="-11.7516631074249744415283203125" lon="-76.2941675819456577301025390625">
        <ele>3145.39990234375</ele>
        <time>2021-07-25T15:39:13.000Z</time>
      </trkpt>
      <trkpt lat="-11.75153159536421298980712890625" lon="-76.29407487809658050537109375">
        <ele>3146.39990234375</ele>
        <time>2021-07-25T15:39:20.000Z</time>
      </trkpt>
      <trkpt lat="-11.751513741910457611083984375" lon="-76.29406037740409374237060546875">
        <ele>3146.60009765625</ele>
        <time>2021-07-25T15:39:21.000Z</time>
      </trkpt>
      <trkpt lat="-11.75136680714786052703857421875" lon="-76.2939481437206268310546875">
        <ele>3147.60009765625</ele>
        <time>2021-07-25T15:39:29.000Z</time>
      </trkpt>
      <trkpt lat="-11.75124107860028743743896484375" lon="-76.29380975849926471710205078125">
        <ele>3148.800048828125</ele>
        <time>2021-07-25T15:39:37.000Z</time>
      </trkpt>
      <trkpt lat="-11.751185171306133270263671875" lon="-76.293684281408786773681640625">
        <ele>3149.800048828125</ele>
        <time>2021-07-25T15:39:43.000Z</time>
      </trkpt>
      <trkpt lat="-11.7511782981455326080322265625" lon="-76.293657459318637847900390625">
        <ele>3149.800048828125</ele>
        <time>2021-07-25T15:39:44.000Z</time>
      </trkpt>
      <trkpt lat="-11.7511595226824283599853515625" lon="-76.29357154481112957000732421875">
        <ele>3151</ele>
        <time>2021-07-25T15:39:47.000Z</time>
      </trkpt>
      <trkpt lat="-11.75113177858293056488037109375" lon="-76.2934816069900989532470703125">
        <ele>3151.800048828125</ele>
        <time>2021-07-25T15:39:51.000Z</time>
      </trkpt>
      <trkpt lat="-11.751116104423999786376953125" lon="-76.29343383014202117919921875">
        <ele>3152</ele>
        <time>2021-07-25T15:39:53.000Z</time>
      </trkpt>
      <trkpt lat="-11.75107310526072978973388671875" lon="-76.29332411102950572967529296875">
        <ele>3153.199951171875</ele>
        <time>2021-07-25T15:39:58.000Z</time>
      </trkpt>
      <trkpt lat="-11.75100152380764484405517578125" lon="-76.29315764643251895904541015625">
        <ele>3153.800048828125</ele>
        <time>2021-07-25T15:40:06.000Z</time>
      </trkpt>
      <trkpt lat="-11.75097319297492504119873046875" lon="-76.29312579520046710968017578125">
        <ele>3154.199951171875</ele>
        <time>2021-07-25T15:40:08.000Z</time>
      </trkpt>
      <trkpt lat="-11.75091854296624660491943359375" lon="-76.29309763200581073760986328125">
        <ele>3155.199951171875</ele>
        <time>2021-07-25T15:40:11.000Z</time>
      </trkpt>
      <trkpt lat="-11.75075124017894268035888671875" lon="-76.29303074441850185394287109375">
        <ele>3155.800048828125</ele>
        <time>2021-07-25T15:40:19.000Z</time>
      </trkpt>
      <trkpt lat="-11.7506411857903003692626953125" lon="-76.2929998151957988739013671875">
        <ele>3156.39990234375</ele>
        <time>2021-07-25T15:40:24.000Z</time>
      </trkpt>
      <trkpt lat="-11.75053783692419528961181640625" lon="-76.2929686345160007476806640625">
        <ele>3157.39990234375</ele>
        <time>2021-07-25T15:40:29.000Z</time>
      </trkpt>
      <trkpt lat="-11.750475727021694183349609375" lon="-76.29295145161449909210205078125">
        <ele>3158.60009765625</ele>
        <time>2021-07-25T15:40:32.000Z</time>
      </trkpt>
      <trkpt lat="-11.75039249472320079803466796875" lon="-76.2929159961640834808349609375">
        <ele>3157.60009765625</ele>
        <time>2021-07-25T15:40:36.000Z</time>
      </trkpt>
      <trkpt lat="-11.7502145469188690185546875" lon="-76.29284248687326908111572265625">
        <ele>3158.199951171875</ele>
        <time>2021-07-25T15:40:44.000Z</time>
      </trkpt>
      <trkpt lat="-11.7500152252614498138427734375" lon="-76.29277794621884822845458984375">
        <ele>3159.199951171875</ele>
        <time>2021-07-25T15:40:53.000Z</time>
      </trkpt>
      <trkpt lat="-11.7499542050063610076904296875" lon="-76.2927460111677646636962890625">
        <ele>3159.60009765625</ele>
        <time>2021-07-25T15:40:56.000Z</time>
      </trkpt>
      <trkpt lat="-11.7498509399592876434326171875" lon="-76.29266093485057353973388671875">
        <ele>3160.60009765625</ele>
        <time>2021-07-25T15:41:02.000Z</time>
      </trkpt>
      <trkpt lat="-11.749837696552276611328125" lon="-76.292642913758754730224609375">
        <ele>3160.60009765625</ele>
        <time>2021-07-25T15:41:03.000Z</time>
      </trkpt>
      <trkpt lat="-11.74974021501839160919189453125" lon="-76.29251056350767612457275390625">
        <ele>3161.800048828125</ele>
        <time>2021-07-25T15:41:10.000Z</time>
      </trkpt>
      <trkpt lat="-11.7497275583446025848388671875" lon="-76.292491368949413299560546875">
        <ele>3161.800048828125</ele>
        <time>2021-07-25T15:41:11.000Z</time>
      </trkpt>
      <trkpt lat="-11.7496373690664768218994140625" lon="-76.29239715635776519775390625">
        <ele>3162.60009765625</ele>
        <time>2021-07-25T15:41:17.000Z</time>
      </trkpt>
      <trkpt lat="-11.74960878677666187286376953125" lon="-76.29236153326928615570068359375">
        <ele>3162.800048828125</ele>
        <time>2021-07-25T15:41:19.000Z</time>
      </trkpt>
      <trkpt lat="-11.74953720532357692718505859375" lon="-76.2922337092459201812744140625">
        <ele>3163.60009765625</ele>
        <time>2021-07-25T15:41:25.000Z</time>
      </trkpt>
      <trkpt lat="-11.74951742403209209442138671875" lon="-76.29218936897814273834228515625">
        <ele>3163.800048828125</ele>
        <time>2021-07-25T15:41:27.000Z</time>
      </trkpt>
      <trkpt lat="-11.749472916126251220703125" lon="-76.29201569594442844390869140625">
        <ele>3165</ele>
        <time>2021-07-25T15:41:34.000Z</time>
      </trkpt>
      <trkpt lat="-11.74946227110922336578369140625" lon="-76.29187907092273235321044921875">
        <ele>3166.199951171875</ele>
        <time>2021-07-25T15:41:40.000Z</time>
      </trkpt>
      <trkpt lat="-11.7494610138237476348876953125" lon="-76.291824169456958770751953125">
        <ele>3166.60009765625</ele>
        <time>2021-07-25T15:41:42.000Z</time>
      </trkpt>
      <trkpt lat="-11.74945606850087642669677734375" lon="-76.2917482294142246246337890625">
        <ele>3167.199951171875</ele>
        <time>2021-07-25T15:41:45.000Z</time>
      </trkpt>
      <trkpt lat="-11.749425642192363739013671875" lon="-76.2915829382836818695068359375">
        <ele>3168.199951171875</ele>
        <time>2021-07-25T15:41:52.000Z</time>
      </trkpt>
      <trkpt lat="-11.7494179308414459228515625" lon="-76.29155636765062808990478515625">
        <ele>3168.60009765625</ele>
        <time>2021-07-25T15:41:53.000Z</time>
      </trkpt>
      <trkpt lat="-11.74937962554395198822021484375" lon="-76.29143960773944854736328125">
        <ele>3169.39990234375</ele>
        <time>2021-07-25T15:41:59.000Z</time>
      </trkpt>
      <trkpt lat="-11.749372668564319610595703125" lon="-76.2914250232279300689697265625">
        <ele>3169.60009765625</ele>
        <time>2021-07-25T15:42:00.000Z</time>
      </trkpt>
      <trkpt lat="-11.7492813058197498321533203125" lon="-76.2913274578750133514404296875">
        <ele>3170.199951171875</ele>
        <time>2021-07-25T15:42:07.000Z</time>
      </trkpt>
      <trkpt lat="-11.7492672242224216461181640625" lon="-76.2913140468299388885498046875">
        <ele>3170.39990234375</ele>
        <time>2021-07-25T15:42:08.000Z</time>
      </trkpt>
      <trkpt lat="-11.749135293066501617431640625" lon="-76.2912466563284397125244140625">
        <ele>3171.39990234375</ele>
        <time>2021-07-25T15:42:16.000Z</time>
      </trkpt>
      <trkpt lat="-11.7491160146892070770263671875" lon="-76.29124087281525135040283203125">
        <ele>3171.60009765625</ele>
        <time>2021-07-25T15:42:17.000Z</time>
      </trkpt>
      <trkpt lat="-11.74899623729288578033447265625" lon="-76.29119544290006160736083984375">
        <ele>3172.39990234375</ele>
        <time>2021-07-25T15:42:24.000Z</time>
      </trkpt>
      <trkpt lat="-11.74896421842277050018310546875" lon="-76.29117934964597225189208984375">
        <ele>3172.60009765625</ele>
        <time>2021-07-25T15:42:26.000Z</time>
      </trkpt>
      <trkpt lat="-11.7483904771506786346435546875" lon="-76.2915497459471225738525390625">
        <ele>3173.39990234375</ele>
        <time>2021-07-25T15:42:32.000Z</time>
      </trkpt>
      <trkpt lat="-11.748288385570049285888671875" lon="-76.29163314588367938995361328125">
        <ele>3173.60009765625</ele>
        <time>2021-07-25T15:42:34.000Z</time>
      </trkpt>
      <trkpt lat="-11.748096942901611328125" lon="-76.291675977408885955810546875">
        <ele>3174.800048828125</ele>
        <time>2021-07-25T15:42:41.000Z</time>
      </trkpt>
      <trkpt lat="-11.74801471643149852752685546875" lon="-76.2915584631264209747314453125">
        <ele>3175.800048828125</ele>
        <time>2021-07-25T15:42:49.000Z</time>
      </trkpt>
      <trkpt lat="-11.7479294724762439727783203125" lon="-76.29148478619754314422607421875">
        <ele>3176.39990234375</ele>
        <time>2021-07-25T15:42:55.000Z</time>
      </trkpt>
      <trkpt lat="-11.74789167009294033050537109375" lon="-76.2914671003818511962890625">
        <ele>3177.199951171875</ele>
        <time>2021-07-25T15:42:57.000Z</time>
      </trkpt>
      <trkpt lat="-11.74779762513935565948486328125" lon="-76.29139895550906658172607421875">
        <ele>3177.60009765625</ele>
        <time>2021-07-25T15:43:03.000Z</time>
      </trkpt>
      <trkpt lat="-11.7477370239794254302978515625" lon="-76.291350424289703369140625">
        <ele>3178.199951171875</ele>
        <time>2021-07-25T15:43:07.000Z</time>
      </trkpt>
      <trkpt lat="-11.74774381332099437713623046875" lon="-76.29124539904296398162841796875">
        <ele>3178.60009765625</ele>
        <time>2021-07-25T15:43:10.000Z</time>
      </trkpt>
      <trkpt lat="-11.74772134982049465179443359375" lon="-76.29121254198253154754638671875">
        <ele>3178.800048828125</ele>
        <time>2021-07-25T15:43:12.000Z</time>
      </trkpt>
      <trkpt lat="-11.7476578988134860992431640625" lon="-76.2911735661327838897705078125">
        <ele>3179.199951171875</ele>
        <time>2021-07-25T15:43:15.000Z</time>
      </trkpt>
      <trkpt lat="-11.7476356029510498046875" lon="-76.29116074182093143463134765625">
        <ele>3179.39990234375</ele>
        <time>2021-07-25T15:43:16.000Z</time>
      </trkpt>
      <trkpt lat="-11.74748749472200870513916015625" lon="-76.2911115400493144989013671875">
        <ele>3180.39990234375</ele>
        <time>2021-07-25T15:43:22.000Z</time>
      </trkpt>
      <trkpt lat="-11.747383810579776763916015625" lon="-76.29106619395315647125244140625">
        <ele>3181</ele>
        <time>2021-07-25T15:43:26.000Z</time>
      </trkpt>
      <trkpt lat="-11.74734014086425304412841796875" lon="-76.2910406291484832763671875">
        <ele>3181.60009765625</ele>
        <time>2021-07-25T15:43:28.000Z</time>
      </trkpt>
      <trkpt lat="-11.7472109757363796234130859375" lon="-76.29094348289072513580322265625">
        <ele>3182.60009765625</ele>
        <time>2021-07-25T15:43:35.000Z</time>
      </trkpt>
      <trkpt lat="-11.74708507955074310302734375" lon="-76.29079990088939666748046875">
        <ele>3183.60009765625</ele>
        <time>2021-07-25T15:43:43.000Z</time>
      </trkpt>
      <trkpt lat="-11.7470409907400608062744140625" lon="-76.29074248485267162322998046875">
        <ele>3184.39990234375</ele>
        <time>2021-07-25T15:43:46.000Z</time>
      </trkpt>
      <trkpt lat="-11.746994219720363616943359375" lon="-76.2906847335398197174072265625">
        <ele>3184.800048828125</ele>
        <time>2021-07-25T15:43:49.000Z</time>
      </trkpt>
      <trkpt lat="-11.746891625225543975830078125" lon="-76.29053997807204723358154296875">
        <ele>3186</ele>
        <time>2021-07-25T15:43:57.000Z</time>
      </trkpt>
      <trkpt lat="-11.74680755473673343658447265625" lon="-76.29039228893816471099853515625">
        <ele>3187.199951171875</ele>
        <time>2021-07-25T15:44:05.000Z</time>
      </trkpt>
      <trkpt lat="-11.74678257666528224945068359375" lon="-76.2903548218309879302978515625">
        <ele>3187.39990234375</ele>
        <time>2021-07-25T15:44:07.000Z</time>
      </trkpt>
      <trkpt lat="-11.74672055058181285858154296875" lon="-76.2902622856199741363525390625">
        <ele>3188.199951171875</ele>
        <time>2021-07-25T15:44:12.000Z</time>
      </trkpt>
      <trkpt lat="-11.746605299413204193115234375" lon="-76.29018978215754032135009765625">
        <ele>3188.800048828125</ele>
        <time>2021-07-25T15:44:17.000Z</time>
      </trkpt>
      <trkpt lat="-11.74645802937448024749755859375" lon="-76.29014502279460430145263671875">
        <ele>3189.39990234375</ele>
        <time>2021-07-25T15:44:22.000Z</time>
      </trkpt>
      <trkpt lat="-11.74637471325695514678955078125" lon="-76.29011459648609161376953125">
        <ele>3189.60009765625</ele>
        <time>2021-07-25T15:44:25.000Z</time>
      </trkpt>
      <trkpt lat="-11.746258623898029327392578125" lon="-76.2900678254663944244384765625">
        <ele>3190.39990234375</ele>
        <time>2021-07-25T15:44:30.000Z</time>
      </trkpt>
      <trkpt lat="-11.746187545359134674072265625" lon="-76.2900428473949432373046875">
        <ele>3190.800048828125</ele>
        <time>2021-07-25T15:44:33.000Z</time>
      </trkpt>
      <trkpt lat="-11.74607246182858943939208984375" lon="-76.28999599255621433258056640625">
        <ele>3191.60009765625</ele>
        <time>2021-07-25T15:44:38.000Z</time>
      </trkpt>
      <trkpt lat="-11.74598864279687404632568359375" lon="-76.2899451144039630889892578125">
        <ele>3192</ele>
        <time>2021-07-25T15:44:42.000Z</time>
      </trkpt>
      <trkpt lat="-11.7458826117217540740966796875" lon="-76.28988836891949176788330078125">
        <ele>3192.60009765625</ele>
        <time>2021-07-25T15:44:47.000Z</time>
      </trkpt>
      <trkpt lat="-11.74582117237150669097900390625" lon="-76.28985266201198101043701171875">
        <ele>3193</ele>
        <time>2021-07-25T15:44:50.000Z</time>
      </trkpt>
      <trkpt lat="-11.7457069270312786102294921875" lon="-76.28977370448410511016845703125">
        <ele>3193.800048828125</ele>
        <time>2021-07-25T15:44:56.000Z</time>
      </trkpt>
      <trkpt lat="-11.7456717230379581451416015625" lon="-76.28974285908043384552001953125">
        <ele>3194.39990234375</ele>
        <time>2021-07-25T15:44:58.000Z</time>
      </trkpt>
      <trkpt lat="-11.7456060089170932769775390625" lon="-76.28967379219830036163330078125">
        <ele>3194.800048828125</ele>
        <time>2021-07-25T15:45:02.000Z</time>
      </trkpt>
      <trkpt lat="-11.74555093981325626373291015625" lon="-76.2896380014717578887939453125">
        <ele>3195.39990234375</ele>
        <time>2021-07-25T15:45:05.000Z</time>
      </trkpt>
      <trkpt lat="-11.74553367309272289276123046875" lon="-76.2896289490163326263427734375">
        <ele>3195.39990234375</ele>
        <time>2021-07-25T15:45:06.000Z</time>
      </trkpt>
      <trkpt lat="-11.74549159593880176544189453125" lon="-76.28963272087275981903076171875">
        <ele>3195.800048828125</ele>
        <time>2021-07-25T15:45:08.000Z</time>
      </trkpt>
      <trkpt lat="-11.7454712279140949249267578125" lon="-76.289636157453060150146484375">
        <ele>3196.199951171875</ele>
        <time>2021-07-25T15:45:09.000Z</time>
      </trkpt>
      <trkpt lat="-11.7453548870980739593505859375" lon="-76.28963976167142391204833984375">
        <ele>3196.60009765625</ele>
        <time>2021-07-25T15:45:14.000Z</time>
      </trkpt>
      <trkpt lat="-11.7453106306493282318115234375" lon="-76.28963808529078960418701171875">
        <ele>3196.800048828125</ele>
        <time>2021-07-25T15:45:16.000Z</time>
      </trkpt>
      <trkpt lat="-11.7452727444469928741455078125" lon="-76.28961478359997272491455078125">
        <ele>3197.39990234375</ele>
        <time>2021-07-25T15:45:18.000Z</time>
      </trkpt>
      <trkpt lat="-11.74523058347404003143310546875" lon="-76.28955275751650333404541015625">
        <ele>3198</ele>
        <time>2021-07-25T15:45:21.000Z</time>
      </trkpt>
      <trkpt lat="-11.74516260623931884765625" lon="-76.28944731317460536956787109375">
        <ele>3198.39990234375</ele>
        <time>2021-07-25T15:45:26.000Z</time>
      </trkpt>
      <trkpt lat="-11.7451118119060993194580078125" lon="-76.28935821354389190673828125">
        <ele>3199</ele>
        <time>2021-07-25T15:45:30.000Z</time>
      </trkpt>
      <trkpt lat="-11.74508976750075817108154296875" lon="-76.289304234087467193603515625">
        <ele>3199.39990234375</ele>
        <time>2021-07-25T15:45:32.000Z</time>
      </trkpt>
      <trkpt lat="-11.74501173198223114013671875" lon="-76.28918043337762355804443359375">
        <ele>3200.199951171875</ele>
        <time>2021-07-25T15:45:38.000Z</time>
      </trkpt>
      <trkpt lat="-11.7449290864169597625732421875" lon="-76.28906727768480777740478515625">
        <ele>3201.199951171875</ele>
        <time>2021-07-25T15:45:44.000Z</time>
      </trkpt>
      <trkpt lat="-11.744899749755859375" lon="-76.289036683738231658935546875">
        <ele>3201.60009765625</ele>
        <time>2021-07-25T15:45:46.000Z</time>
      </trkpt>
      <trkpt lat="-11.74481869675219058990478515625" lon="-76.2889966182410717010498046875">
        <ele>3202.199951171875</ele>
        <time>2021-07-25T15:45:51.000Z</time>
      </trkpt>
      <trkpt lat="-11.7448050342500209808349609375" lon="-76.28898127935826778411865234375">
        <ele>3202.39990234375</ele>
        <time>2021-07-25T15:45:52.000Z</time>
      </trkpt>
      <trkpt lat="-11.74472733400762081146240234375" lon="-76.28889511339366436004638671875">
        <ele>3203.39990234375</ele>
        <time>2021-07-25T15:45:58.000Z</time>
      </trkpt>
      <trkpt lat="-11.7447161860764026641845703125" lon="-76.2888802774250507354736328125">
        <ele>3203.60009765625</ele>
        <time>2021-07-25T15:45:59.000Z</time>
      </trkpt>
      <trkpt lat="-11.7446704208850860595703125" lon="-76.28884725272655487060546875">
        <ele>3204</ele>
        <time>2021-07-25T15:46:02.000Z</time>
      </trkpt>
      <trkpt lat="-11.744623482227325439453125" lon="-76.2888366915285587310791015625">
        <ele>3204.199951171875</ele>
        <time>2021-07-25T15:46:04.000Z</time>
      </trkpt>
      <trkpt lat="-11.7445713467895984649658203125" lon="-76.28881732933223247528076171875">
        <ele>3204.39990234375</ele>
        <time>2021-07-25T15:46:06.000Z</time>
      </trkpt>
      <trkpt lat="-11.74442592076957225799560546875" lon="-76.28881900571286678314208984375">
        <ele>3205</ele>
        <time>2021-07-25T15:46:10.000Z</time>
      </trkpt>
      <trkpt lat="-11.74440127797424793243408203125" lon="-76.28880626522004604339599609375">
        <ele>3205</ele>
        <time>2021-07-25T15:46:11.000Z</time>
      </trkpt>
      <trkpt lat="-11.74427546560764312744140625" lon="-76.28876385278999805450439453125">
        <ele>3205.39990234375</ele>
        <time>2021-07-25T15:46:16.000Z</time>
      </trkpt>
      <trkpt lat="-11.744255684316158294677734375" lon="-76.288746334612369537353515625">
        <ele>3205.39990234375</ele>
        <time>2021-07-25T15:46:17.000Z</time>
      </trkpt>
      <trkpt lat="-11.74415417946875095367431640625" lon="-76.28865589387714862823486328125">
        <ele>3206.199951171875</ele>
        <time>2021-07-25T15:46:22.000Z</time>
      </trkpt>
      <trkpt lat="-11.74409818835556507110595703125" lon="-76.28860476426780223846435546875">
        <ele>3206.60009765625</ele>
        <time>2021-07-25T15:46:25.000Z</time>
      </trkpt>
      <trkpt lat="-11.74402543343603610992431640625" lon="-76.28848976455628871917724609375">
        <ele>3207</ele>
        <time>2021-07-25T15:46:30.000Z</time>
      </trkpt>
      <trkpt lat="-11.74396726302802562713623046875" lon="-76.2883854098618030548095703125">
        <ele>3207.800048828125</ele>
        <time>2021-07-25T15:46:34.000Z</time>
      </trkpt>
      <trkpt lat="-11.74391160719096660614013671875" lon="-76.2882932089269161224365234375">
        <ele>3208.199951171875</ele>
        <time>2021-07-25T15:46:38.000Z</time>
      </trkpt>
      <trkpt lat="-11.7438384331762790679931640625" lon="-76.28818918950855731964111328125">
        <ele>3208.800048828125</ele>
        <time>2021-07-25T15:46:43.000Z</time>
      </trkpt>
      <trkpt lat="-11.743815131485462188720703125" lon="-76.28813822753727436065673828125">
        <ele>3209.199951171875</ele>
        <time>2021-07-25T15:46:45.000Z</time>
      </trkpt>
      <trkpt lat="-11.74377246759831905364990234375" lon="-76.28803211264312267303466796875">
        <ele>3209.800048828125</ele>
        <time>2021-07-25T15:46:49.000Z</time>
      </trkpt>
      <trkpt lat="-11.74371681176126003265380859375" lon="-76.28786514513194561004638671875">
        <ele>3210.800048828125</ele>
        <time>2021-07-25T15:46:55.000Z</time>
      </trkpt>
      <trkpt lat="-11.74370960332453250885009765625" lon="-76.28783882595598697662353515625">
        <ele>3211</ele>
        <time>2021-07-25T15:46:56.000Z</time>
      </trkpt>
      <trkpt lat="-11.74368579871952533721923828125" lon="-76.28775819204747676849365234375">
        <ele>3212</ele>
        <time>2021-07-25T15:46:59.000Z</time>
      </trkpt>
      <trkpt lat="-11.743654198944568634033203125" lon="-76.2876893766224384307861328125">
        <ele>3212.800048828125</ele>
        <time>2021-07-25T15:47:02.000Z</time>
      </trkpt>
      <trkpt lat="-11.7436431348323822021484375" lon="-76.28766666166484355926513671875">
        <ele>3213.199951171875</ele>
        <time>2021-07-25T15:47:03.000Z</time>
      </trkpt>
      <trkpt lat="-11.7436198331415653228759765625" lon="-76.28762290813028812408447265625">
        <ele>3213.60009765625</ele>
        <time>2021-07-25T15:47:05.000Z</time>
      </trkpt>
      <trkpt lat="-11.7435601539909839630126953125" lon="-76.28755300305783748626708984375">
        <ele>3214.199951171875</ele>
        <time>2021-07-25T15:47:09.000Z</time>
      </trkpt>
      <trkpt lat="-11.74348563887178897857666015625" lon="-76.28749852068722248077392578125">
        <ele>3214.60009765625</ele>
        <time>2021-07-25T15:47:13.000Z</time>
      </trkpt>
      <trkpt lat="-11.7433710582554340362548828125" lon="-76.2874223291873931884765625">
        <ele>3215</ele>
        <time>2021-07-25T15:47:19.000Z</time>
      </trkpt>
      <trkpt lat="-11.74333803355693817138671875" lon="-76.2873943336308002471923828125">
        <ele>3215.39990234375</ele>
        <time>2021-07-25T15:47:21.000Z</time>
      </trkpt>
      <trkpt lat="-11.74322445876896381378173828125" lon="-76.2873370014131069183349609375">
        <ele>3215.60009765625</ele>
        <time>2021-07-25T15:47:27.000Z</time>
      </trkpt>
      <trkpt lat="-11.7430253885686397552490234375" lon="-76.28735116682946681976318359375">
        <ele>3216</ele>
        <time>2021-07-25T15:47:36.000Z</time>
      </trkpt>
      <trkpt lat="-11.74295179545879364013671875" lon="-76.28737078048288822174072265625">
        <ele>3216.39990234375</ele>
        <time>2021-07-25T15:47:39.000Z</time>
      </trkpt>
      <trkpt lat="-11.742801927030086517333984375" lon="-76.287344880402088165283203125">
        <ele>3217.39990234375</ele>
        <time>2021-07-25T15:47:46.000Z</time>
      </trkpt>
      <trkpt lat="-11.74272640608251094818115234375" lon="-76.287292577326297760009765625">
        <ele>3218.60009765625</ele>
        <time>2021-07-25T15:47:50.000Z</time>
      </trkpt>
      <trkpt lat="-11.7426254041492938995361328125" lon="-76.28726483322679996490478515625">
        <ele>3219.39990234375</ele>
        <time>2021-07-25T15:47:55.000Z</time>
      </trkpt>
      <trkpt lat="-11.742437146604061126708984375" lon="-76.28732509911060333251953125">
        <ele>3219.800048828125</ele>
        <time>2021-07-25T15:48:03.000Z</time>
      </trkpt>
      <trkpt lat="-11.74234217964112758636474609375" lon="-76.28744487650692462921142578125">
        <ele>3220.60009765625</ele>
        <time>2021-07-25T15:48:10.000Z</time>
      </trkpt>
      <trkpt lat="-11.74233681522309780120849609375" lon="-76.287483014166355133056640625">
        <ele>3220.800048828125</ele>
        <time>2021-07-25T15:48:12.000Z</time>
      </trkpt>
      <trkpt lat="-11.74232910387217998504638671875" lon="-76.28756918013095855712890625">
        <ele>3221.60009765625</ele>
        <time>2021-07-25T15:48:18.000Z</time>
      </trkpt>
      <trkpt lat="-11.74234134145081043243408203125" lon="-76.28759189508855342864990234375">
        <ele>3222</ele>
        <time>2021-07-25T15:48:21.000Z</time>
      </trkpt>
      <trkpt lat="-11.7423353902995586395263671875" lon="-76.28762148320674896240234375">
        <ele>3222.39990234375</ele>
        <time>2021-07-25T15:48:25.000Z</time>
      </trkpt>
      <trkpt lat="-11.74231904558837413787841796875" lon="-76.2876585312187671661376953125">
        <ele>3223</ele>
        <time>2021-07-25T15:48:30.000Z</time>
      </trkpt>
      <trkpt lat="-11.74230764620006084442138671875" lon="-76.28768258728086948394775390625">
        <ele>3223.39990234375</ele>
        <time>2021-07-25T15:48:34.000Z</time>
      </trkpt>
      <trkpt lat="-11.74230311997234821319580078125" lon="-76.2876095809042453765869140625">
        <ele>3224</ele>
        <time>2021-07-25T15:48:39.000Z</time>
      </trkpt>
      <trkpt lat="-11.74230228178203105926513671875" lon="-76.28757462836802005767822265625">
        <ele>3224</ele>
        <time>2021-07-25T15:48:40.000Z</time>
      </trkpt>
      <trkpt lat="-11.742467321455478668212890625" lon="-76.2867992185056209564208984375">
        <ele>3225.199951171875</ele>
        <time>2021-07-25T15:48:47.000Z</time>
      </trkpt>
      <trkpt lat="-11.74257083795964717864990234375" lon="-76.2864387966692447662353515625">
        <ele>3225.199951171875</ele>
        <time>2021-07-25T15:48:48.000Z</time>
      </trkpt>
      <trkpt lat="-11.74276177771389484405517578125" lon="-76.28576162271201610565185546875">
        <ele>3225.39990234375</ele>
        <time>2021-07-25T15:48:51.000Z</time>
      </trkpt>
      <trkpt lat="-11.74291164614260196685791015625" lon="-76.2851788289844989776611328125">
        <ele>3226</ele>
        <time>2021-07-25T15:48:57.000Z</time>
      </trkpt>
      <trkpt lat="-11.74293042160570621490478515625" lon="-76.28511185757815837860107421875">
        <ele>3226.199951171875</ele>
        <time>2021-07-25T15:48:58.000Z</time>
      </trkpt>
      <trkpt lat="-11.74309571273624897003173828125" lon="-76.28461497835814952850341796875">
        <ele>3227</ele>
        <time>2021-07-25T15:49:05.000Z</time>
      </trkpt>
      <trkpt lat="-11.7432061024010181427001953125" lon="-76.2843902595341205596923828125">
        <ele>3227.39990234375</ele>
        <time>2021-07-25T15:49:09.000Z</time>
      </trkpt>
      <trkpt lat="-11.7432744987308979034423828125" lon="-76.2842866592109203338623046875">
        <ele>3227.60009765625</ele>
        <time>2021-07-25T15:49:11.000Z</time>
      </trkpt>
      <trkpt lat="-11.7435055039823055267333984375" lon="-76.28393285907804965972900390625">
        <ele>3228.39990234375</ele>
        <time>2021-07-25T15:49:18.000Z</time>
      </trkpt>
      <trkpt lat="-11.73666335642337799072265625" lon="-76.28215019591152667999267578125">
        <ele>3274.60009765625</ele>
        <time>2021-07-25T15:58:09.000Z</time>
      </trkpt>
      <trkpt lat="-11.736748851835727691650390625" lon="-76.28208112902939319610595703125">
        <ele>3275</ele>
        <time>2021-07-25T15:58:37.000Z</time>
      </trkpt>
      <trkpt lat="-11.73673451878130435943603515625" lon="-76.28198423422873020172119140625">
        <ele>3276</ele>
        <time>2021-07-25T15:58:48.000Z</time>
      </trkpt>
      <trkpt lat="-11.73813664354383945465087890625" lon="-76.281034983694553375244140625">
        <ele>3280</ele>
        <time>2021-07-25T16:01:51.000Z</time>
      </trkpt>
      <trkpt lat="-11.7381568439304828643798828125" lon="-76.281014196574687957763671875">
        <ele>3280</ele>
        <time>2021-07-25T16:01:52.000Z</time>
      </trkpt>
      <trkpt lat="-11.73818022944033145904541015625" lon="-76.28100254572927951812744140625">
        <ele>3280</ele>
        <time>2021-07-25T16:01:54.000Z</time>
      </trkpt>
      <trkpt lat="-11.73883619718253612518310546875" lon="-76.2807917408645153045654296875">
        <ele>3279.199951171875</ele>
        <time>2021-07-25T16:05:23.000Z</time>
      </trkpt>
      <trkpt lat="-11.7388553917407989501953125" lon="-76.2808302976191043853759765625">
        <ele>3279.39990234375</ele>
        <time>2021-07-25T16:05:26.000Z</time>
      </trkpt>
      <trkpt lat="-11.73933424986898899078369140625" lon="-76.28056769259274005889892578125">
        <ele>3279.39990234375</ele>
        <time>2021-07-25T16:08:40.000Z</time>
      </trkpt>
      <trkpt lat="-11.73944857902824878692626953125" lon="-76.28045537509024143218994140625">
        <ele>3280.199951171875</ele>
        <time>2021-07-25T16:12:24.000Z</time>
      </trkpt>
      <trkpt lat="-11.739456541836261749267578125" lon="-76.28043961711227893829345703125">
        <ele>3280.39990234375</ele>
        <time>2021-07-25T16:12:25.000Z</time>
      </trkpt>
      <trkpt lat="-11.73946626484394073486328125" lon="-76.2803991325199604034423828125">
        <ele>3280.39990234375</ele>
        <time>2021-07-25T16:12:27.000Z</time>
      </trkpt>
      <trkpt lat="-11.73949702642858028411865234375" lon="-76.2803233601152896881103515625">
        <ele>3280.800048828125</ele>
        <time>2021-07-25T16:12:31.000Z</time>
      </trkpt>
      <trkpt lat="-11.73954404890537261962890625" lon="-76.28028698265552520751953125">
        <ele>3281.199951171875</ele>
        <time>2021-07-25T16:12:33.000Z</time>
      </trkpt>
      <trkpt lat="-11.73956559039652347564697265625" lon="-76.2802650220692157745361328125">
        <ele>3281.199951171875</ele>
        <time>2021-07-25T16:12:34.000Z</time>
      </trkpt>
      <trkpt lat="-11.7396498285233974456787109375" lon="-76.2801320850849151611328125">
        <ele>3282.199951171875</ele>
        <time>2021-07-25T16:12:40.000Z</time>
      </trkpt>
      <trkpt lat="-11.739672459661960601806640625" lon="-76.28010987304151058197021484375">
        <ele>3282.199951171875</ele>
        <time>2021-07-25T16:12:41.000Z</time>
      </trkpt>
      <trkpt lat="-11.7396857030689716339111328125" lon="-76.2800303287804126739501953125">
        <ele>3282.800048828125</ele>
        <time>2021-07-25T16:12:46.000Z</time>
      </trkpt>
      <trkpt lat="-11.7395750619471073150634765625" lon="-76.279964447021484375">
        <ele>3283.39990234375</ele>
        <time>2021-07-25T16:12:52.000Z</time>
      </trkpt>
      <trkpt lat="-11.739524938166141510009765625" lon="-76.2799488566815853118896484375">
        <ele>3283.60009765625</ele>
        <time>2021-07-25T16:12:54.000Z</time>
      </trkpt>
      <trkpt lat="-11.7394079267978668212890625" lon="-76.27993988804519176483154296875">
        <ele>3283.800048828125</ele>
        <time>2021-07-25T16:12:59.000Z</time>
      </trkpt>
      <trkpt lat="-11.73887877725064754486083984375" lon="-76.2769804894924163818359375">
        <ele>3303.199951171875</ele>
        <time>2021-07-25T16:14:55.000Z</time>
      </trkpt>
      <trkpt lat="-11.73886855132877826690673828125" lon="-76.27695542760193347930908203125">
        <ele>3303.39990234375</ele>
        <time>2021-07-25T16:14:56.000Z</time>
      </trkpt>
      <trkpt lat="-11.73885782249271869659423828125" lon="-76.276933215558528900146484375">
        <ele>3303.199951171875</ele>
        <time>2021-07-25T16:14:57.000Z</time>
      </trkpt>
      <trkpt lat="-11.73878607340157032012939453125" lon="-76.27679365687072277069091796875">
        <ele>3304.39990234375</ele>
        <time>2021-07-25T16:15:03.000Z</time>
      </trkpt>
      <trkpt lat="-11.73873662017285823822021484375" lon="-76.2767137773334980010986328125">
        <ele>3305</ele>
        <time>2021-07-25T16:15:07.000Z</time>
      </trkpt>
      <trkpt lat="-11.73870476894080638885498046875" lon="-76.27666541375219821929931640625">
        <ele>3305.39990234375</ele>
        <time>2021-07-25T16:15:10.000Z</time>
      </trkpt>
      <trkpt lat="-11.7375094257295131683349609375" lon="-76.274588964879512786865234375">
        <ele>3320.199951171875</ele>
        <time>2021-07-25T16:16:42.000Z</time>
      </trkpt>
      <trkpt lat="-11.73749777488410472869873046875" lon="-76.27450925298035144805908203125">
        <ele>3320.60009765625</ele>
        <time>2021-07-25T16:16:45.000Z</time>
      </trkpt>
      <trkpt lat="-11.73747212626039981842041015625" lon="-76.2744657509028911590576171875">
        <ele>3320.800048828125</ele>
        <time>2021-07-25T16:16:47.000Z</time>
      </trkpt>
      <trkpt lat="-11.7374252714216709136962890625" lon="-76.2743132002651691436767578125">
        <ele>3322</ele>
        <time>2021-07-25T16:16:54.000Z</time>
      </trkpt>
      <trkpt lat="-11.7373582161962985992431640625" lon="-76.27413927577435970306396484375">
        <ele>3323.199951171875</ele>
        <time>2021-07-25T16:17:02.000Z</time>
      </trkpt>
      <trkpt lat="-11.73730985261499881744384765625" lon="-76.27396769821643829345703125">
        <ele>3324</ele>
        <time>2021-07-25T16:17:10.000Z</time>
      </trkpt>
      <trkpt lat="-11.73730549402534961700439453125" lon="-76.2739484198391437530517578125">
        <ele>3324.199951171875</ele>
        <time>2021-07-25T16:17:11.000Z</time>
      </trkpt>
      <trkpt lat="-11.7372948490083217620849609375" lon="-76.2738625891506671905517578125">
        <ele>3324.60009765625</ele>
        <time>2021-07-25T16:17:18.000Z</time>
      </trkpt>
      <trkpt lat="-11.7372891493141651153564453125" lon="-76.27381036989390850067138671875">
        <ele>3325.39990234375</ele>
        <time>2021-07-25T16:19:03.000Z</time>
      </trkpt>
      <trkpt lat="-11.73728386871516704559326171875" lon="-76.2737972103059291839599609375">
        <ele>3325.199951171875</ele>
        <time>2021-07-25T16:19:04.000Z</time>
      </trkpt>
      <trkpt lat="-11.73727984540164470672607421875" lon="-76.27378455363214015960693359375">
        <ele>3325.199951171875</ele>
        <time>2021-07-25T16:19:05.000Z</time>
      </trkpt>
      <trkpt lat="-11.7372693680226802825927734375" lon="-76.27374909818172454833984375">
        <ele>3325.39990234375</ele>
        <time>2021-07-25T16:19:07.000Z</time>
      </trkpt>
      <trkpt lat="-11.73726459033787250518798828125" lon="-76.2736550532281398773193359375">
        <ele>3326</ele>
        <time>2021-07-25T16:19:11.000Z</time>
      </trkpt>
      <trkpt lat="-11.73726291395723819732666015625" lon="-76.27362999133765697479248046875">
        <ele>3326.39990234375</ele>
        <time>2021-07-25T16:19:12.000Z</time>
      </trkpt>
      <trkpt lat="-11.73722737468779087066650390625" lon="-76.27339311875402927398681640625">
        <ele>3327.60009765625</ele>
        <time>2021-07-25T16:19:21.000Z</time>
      </trkpt>
      <trkpt lat="-11.73722569830715656280517578125" lon="-76.27336529083549976348876953125">
        <ele>3327.800048828125</ele>
        <time>2021-07-25T16:19:22.000Z</time>
      </trkpt>
      <trkpt lat="-11.73720759339630603790283203125" lon="-76.27325699664652347564697265625">
        <ele>3325.199951171875</ele>
        <time>2021-07-25T16:19:26.000Z</time>
      </trkpt>
      <trkpt lat="-11.73720004968345165252685546875" lon="-76.273169405758380889892578125">
        <ele>3328.800048828125</ele>
        <time>2021-07-25T16:19:29.000Z</time>
      </trkpt>
      <trkpt lat="-11.73719577491283416748046875" lon="-76.27314518205821514129638671875">
        <ele>3329</ele>
        <time>2021-07-25T16:19:30.000Z</time>
      </trkpt>
      <trkpt lat="-11.73717523925006389617919921875" lon="-76.2729680724442005157470703125">
        <ele>3330</ele>
        <time>2021-07-25T16:19:37.000Z</time>
      </trkpt>
      <trkpt lat="-11.73717071302235126495361328125" lon="-76.27294669859111309051513671875">
        <ele>3330.199951171875</ele>
        <time>2021-07-25T16:19:38.000Z</time>
      </trkpt>
      <trkpt lat="-11.73716099001467227935791015625" lon="-76.27278509549796581268310546875">
        <ele>3331.39990234375</ele>
        <time>2021-07-25T16:19:45.000Z</time>
      </trkpt>
      <trkpt lat="-11.73715822398662567138671875" lon="-76.27276246435940265655517578125">
        <ele>3331.199951171875</ele>
        <time>2021-07-25T16:19:46.000Z</time>
      </trkpt>
      <trkpt lat="-11.7371282167732715606689453125" lon="-76.2725841812789440155029296875">
        <ele>3332.39990234375</ele>
        <time>2021-07-25T16:19:52.000Z</time>
      </trkpt>
      <trkpt lat="-11.7370967008173465728759765625" lon="-76.27246297895908355712890625">
        <ele>3332.800048828125</ele>
        <time>2021-07-25T16:19:56.000Z</time>
      </trkpt>
      <trkpt lat="-11.73701413907110691070556640625" lon="-76.27226575277745723724365234375">
        <ele>3333.60009765625</ele>
        <time>2021-07-25T16:20:03.000Z</time>
      </trkpt>
      <trkpt lat="-11.73699972219765186309814453125" lon="-76.27224094234406948089599609375">
        <ele>3333.60009765625</ele>
        <time>2021-07-25T16:20:04.000Z</time>
      </trkpt>
      <trkpt lat="-11.7368526197969913482666015625" lon="-76.2720598094165325164794921875">
        <ele>3334.60009765625</ele>
        <time>2021-07-25T16:20:13.000Z</time>
      </trkpt>
      <trkpt lat="-11.73674021847546100616455078125" lon="-76.27186224795877933502197265625">
        <ele>3335.800048828125</ele>
        <time>2021-07-25T16:20:21.000Z</time>
      </trkpt>
      <trkpt lat="-11.73664215020835399627685546875" lon="-76.27175361849367618560791015625">
        <ele>3336.199951171875</ele>
        <time>2021-07-25T16:20:24.000Z</time>
      </trkpt>
      <trkpt lat="-11.73650636337697505950927734375" lon="-76.27163895405828952789306640625">
        <ele>3336.800048828125</ele>
        <time>2021-07-25T16:20:27.000Z</time>
      </trkpt>
      <trkpt lat="-11.7363440059125423431396484375" lon="-76.27149696461856365203857421875">
        <ele>3337.39990234375</ele>
        <time>2021-07-25T16:20:32.000Z</time>
      </trkpt>
      <trkpt lat="-11.736291535198688507080078125" lon="-76.27143661491572856903076171875">
        <ele>3337.800048828125</ele>
        <time>2021-07-25T16:20:35.000Z</time>
      </trkpt>
      <trkpt lat="-11.736242584884166717529296875" lon="-76.271381378173828125">
        <ele>3338.39990234375</ele>
        <time>2021-07-25T16:20:38.000Z</time>
      </trkpt>
      <trkpt lat="-11.73619757406413555145263671875" lon="-76.27133108675479888916015625">
        <ele>3338.800048828125</ele>
        <time>2021-07-25T16:20:41.000Z</time>
      </trkpt>
      <trkpt lat="-11.7360932193696498870849609375" lon="-76.2712437473237514495849609375">
        <ele>3339.800048828125</ele>
        <time>2021-07-25T16:20:47.000Z</time>
      </trkpt>
      <trkpt lat="-11.7360429279506206512451171875" lon="-76.2712115608155727386474609375">
        <ele>3340.39990234375</ele>
        <time>2021-07-25T16:20:50.000Z</time>
      </trkpt>
      <trkpt lat="-11.736043430864810943603515625" lon="-76.2710754387080669403076171875">
        <ele>3341</ele>
        <time>2021-07-25T16:20:57.000Z</time>
      </trkpt>
      <trkpt lat="-11.73621098510921001434326171875" lon="-76.27051762305200099945068359375">
        <ele>3343</ele>
        <time>2021-07-25T16:21:13.000Z</time>
      </trkpt>
      <trkpt lat="-11.73610889352858066558837890625" lon="-76.2703938223421573638916015625">
        <ele>3344</ele>
        <time>2021-07-25T16:21:21.000Z</time>
      </trkpt>
      <trkpt lat="-11.73609514720737934112548828125" lon="-76.27038233913481235504150390625">
        <ele>3344</ele>
        <time>2021-07-25T16:21:22.000Z</time>
      </trkpt>
      <trkpt lat="-11.7360632121562957763671875" lon="-76.27036339603364467620849609375">
        <ele>3344.60009765625</ele>
        <time>2021-07-25T16:21:24.000Z</time>
      </trkpt>
      <trkpt lat="-11.7360228113830089569091796875" lon="-76.27032618038356304168701171875">
        <ele>3345.199951171875</ele>
        <time>2021-07-25T16:21:27.000Z</time>
      </trkpt>
      <trkpt lat="-11.7359617911279201507568359375" lon="-76.270302124321460723876953125">
        <ele>3346.199951171875</ele>
        <time>2021-07-25T16:21:34.000Z</time>
      </trkpt>
      <trkpt lat="-11.7359478771686553955078125" lon="-76.2702902220189571380615234375">
        <ele>3346.39990234375</ele>
        <time>2021-07-25T16:21:35.000Z</time>
      </trkpt>
      <trkpt lat="-11.73592172563076019287109375" lon="-76.27031025476753711700439453125">
        <ele>3347.199951171875</ele>
        <time>2021-07-25T16:21:42.000Z</time>
      </trkpt>
      <trkpt lat="-11.73589766956865787506103515625" lon="-76.27030790783464908599853515625">
        <ele>3347.800048828125</ele>
        <time>2021-07-25T16:21:45.000Z</time>
      </trkpt>
      <trkpt lat="-11.73554085195064544677734375" lon="-76.2701373361051082611083984375">
        <ele>3349.199951171875</ele>
        <time>2021-07-25T16:22:02.000Z</time>
      </trkpt>
      <trkpt lat="-11.73551847226917743682861328125" lon="-76.2701232545077800750732421875">
        <ele>3349.199951171875</ele>
        <time>2021-07-25T16:22:03.000Z</time>
      </trkpt>
      <trkpt lat="-11.73549257218837738037109375" lon="-76.27010992728173732757568359375">
        <ele>3349.39990234375</ele>
        <time>2021-07-25T16:22:04.000Z</time>
      </trkpt>
      <trkpt lat="-11.73544990830123424530029296875" lon="-76.2700830213725566864013671875">
        <ele>3349.800048828125</ele>
        <time>2021-07-25T16:22:06.000Z</time>
      </trkpt>
      <trkpt lat="-11.73535686917603015899658203125" lon="-76.27003566361963748931884765625">
        <ele>3350.60009765625</ele>
        <time>2021-07-25T16:22:10.000Z</time>
      </trkpt>
      <trkpt lat="-11.73533289693295955657958984375" lon="-76.27002619206905364990234375">
        <ele>3350.800048828125</ele>
        <time>2021-07-25T16:22:11.000Z</time>
      </trkpt>
      <trkpt lat="-11.7351686954498291015625" lon="-76.26998051069676876068115234375">
        <ele>3351.800048828125</ele>
        <time>2021-07-25T16:22:18.000Z</time>
      </trkpt>
      <trkpt lat="-11.7351081781089305877685546875" lon="-76.269976235926151275634765625">
        <ele>3352</ele>
        <time>2021-07-25T16:22:21.000Z</time>
      </trkpt>
      <trkpt lat="-11.7349646799266338348388671875" lon="-76.26997212879359722137451171875">
        <ele>3352.800048828125</ele>
        <time>2021-07-25T16:22:28.000Z</time>
      </trkpt>
      <trkpt lat="-11.73494230024516582489013671875" lon="-76.2699764035642147064208984375">
        <ele>3353.199951171875</ele>
        <time>2021-07-25T16:22:29.000Z</time>
      </trkpt>
      <trkpt lat="-11.73483249731361865997314453125" lon="-76.27007254399359226226806640625">
        <ele>3354</ele>
        <time>2021-07-25T16:22:35.000Z</time>
      </trkpt>
      <trkpt lat="-11.7347930185496807098388671875" lon="-76.27011579461395740509033203125">
        <ele>3354.39990234375</ele>
        <time>2021-07-25T16:22:37.000Z</time>
      </trkpt>
      <trkpt lat="-11.734727136790752410888671875" lon="-76.270152591168880462646484375">
        <ele>3355</ele>
        <time>2021-07-25T16:22:40.000Z</time>
      </trkpt>
      <trkpt lat="-11.734603084623813629150390625" lon="-76.27019223757088184356689453125">
        <ele>3356.39990234375</ele>
        <time>2021-07-25T16:22:46.000Z</time>
      </trkpt>
      <trkpt lat="-11.7345797829329967498779296875" lon="-76.27018854953348636627197265625">
        <ele>3356.60009765625</ele>
        <time>2021-07-25T16:22:47.000Z</time>
      </trkpt>
      <trkpt lat="-11.73435674048960208892822265625" lon="-76.2703230790793895721435546875">
        <ele>3357.60009765625</ele>
        <time>2021-07-25T16:22:54.000Z</time>
      </trkpt>
      <trkpt lat="-11.7342280782759189605712890625" lon="-76.2704015336930751800537109375">
        <ele>3358.60009765625</ele>
        <time>2021-07-25T16:23:01.000Z</time>
      </trkpt>
      <trkpt lat="-11.7342093028128147125244140625" lon="-76.2704075686633586883544921875">
        <ele>3358.800048828125</ele>
        <time>2021-07-25T16:23:02.000Z</time>
      </trkpt>
      <trkpt lat="-11.73410813324153423309326171875" lon="-76.27039893530309200286865234375">
        <ele>3359.800048828125</ele>
        <time>2021-07-25T16:23:07.000Z</time>
      </trkpt>
      <trkpt lat="-11.73397821374237537384033203125" lon="-76.27043925225734710693359375">
        <ele>3360.800048828125</ele>
        <time>2021-07-25T16:23:14.000Z</time>
      </trkpt>
      <trkpt lat="-11.733961366117000579833984375" lon="-76.2704739533364772796630859375">
        <ele>3361</ele>
        <time>2021-07-25T16:23:15.000Z</time>
      </trkpt>
      <trkpt lat="-11.73387327231466770172119140625" lon="-76.2705738656222820281982421875">
        <ele>3362</ele>
        <time>2021-07-25T16:23:20.000Z</time>
      </trkpt>
      <trkpt lat="-11.73383320681750774383544921875" lon="-76.27061904408037662506103515625">
        <ele>3362.39990234375</ele>
        <time>2021-07-25T16:23:22.000Z</time>
      </trkpt>
      <trkpt lat="-11.7336245812475681304931640625" lon="-76.27094174735248088836669921875">
        <ele>3362.60009765625</ele>
        <time>2021-07-25T16:23:28.000Z</time>
      </trkpt>
      <trkpt lat="-11.73323817551136016845703125" lon="-76.270953230559825897216796875">
        <ele>3363.39990234375</ele>
        <time>2021-07-25T16:23:35.000Z</time>
      </trkpt>
      <trkpt lat="-11.733217053115367889404296875" lon="-76.27094996161758899688720703125">
        <ele>3363.60009765625</ele>
        <time>2021-07-25T16:23:36.000Z</time>
      </trkpt>
      <trkpt lat="-11.73306106589734554290771484375" lon="-76.27082641236484050750732421875">
        <ele>3364.60009765625</ele>
        <time>2021-07-25T16:23:43.000Z</time>
      </trkpt>
      <trkpt lat="-11.73304547555744647979736328125" lon="-76.27080528996884822845458984375">
        <ele>3364.800048828125</ele>
        <time>2021-07-25T16:23:44.000Z</time>
      </trkpt>
      <trkpt lat="-11.7329875566065311431884765625" lon="-76.27065190114080905914306640625">
        <ele>3365.60009765625</ele>
        <time>2021-07-25T16:23:49.000Z</time>
      </trkpt>
      <trkpt lat="-11.73297121189534664154052734375" lon="-76.2706033699214458465576171875">
        <ele>3366</ele>
        <time>2021-07-25T16:23:51.000Z</time>
      </trkpt>
      <trkpt lat="-11.7329590581357479095458984375" lon="-76.2705217301845550537109375">
        <ele>3366.60009765625</ele>
        <time>2021-07-25T16:23:54.000Z</time>
      </trkpt>
      <trkpt lat="-11.73301152884960174560546875" lon="-76.27033975906670093536376953125">
        <ele>3367</ele>
        <time>2021-07-25T16:23:57.000Z</time>
      </trkpt>
      <trkpt lat="-11.7331102676689624786376953125" lon="-76.270118057727813720703125">
        <ele>3367.60009765625</ele>
        <time>2021-07-25T16:24:04.000Z</time>
      </trkpt>
      <trkpt lat="-11.7332281172275543212890625" lon="-76.2698624096810817718505859375">
        <ele>3368.800048828125</ele>
        <time>2021-07-25T16:24:14.000Z</time>
      </trkpt>
      <trkpt lat="-11.73323825933039188385009765625" lon="-76.2698389403522014617919921875">
        <ele>3369</ele>
        <time>2021-07-25T16:24:15.000Z</time>
      </trkpt>
      <trkpt lat="-11.733245886862277984619140625" lon="-76.269815303385257720947265625">
        <ele>3369.39990234375</ele>
        <time>2021-07-25T16:24:16.000Z</time>
      </trkpt>
      <trkpt lat="-11.7332782410085201263427734375" lon="-76.2697184085845947265625">
        <ele>3369.800048828125</ele>
        <time>2021-07-25T16:24:20.000Z</time>
      </trkpt>
      <trkpt lat="-11.7332933284342288970947265625" lon="-76.26966937445104122161865234375">
        <ele>3370</ele>
        <time>2021-07-25T16:24:22.000Z</time>
      </trkpt>
      <trkpt lat="-11.73331998288631439208984375" lon="-76.2694922648370265960693359375">
        <ele>3371</ele>
        <time>2021-07-25T16:24:30.000Z</time>
      </trkpt>
      <trkpt lat="-11.7332504130899906158447265625" lon="-76.269343905150890350341796875">
        <ele>3372.199951171875</ele>
        <time>2021-07-25T16:24:38.000Z</time>
      </trkpt>
      <trkpt lat="-11.73323792405426502227783203125" lon="-76.2693293206393718719482421875">
        <ele>3372.199951171875</ele>
        <time>2021-07-25T16:24:39.000Z</time>
      </trkpt>
      <trkpt lat="-11.73311554826796054840087890625" lon="-76.269276849925518035888671875">
        <ele>3373</ele>
        <time>2021-07-25T16:24:46.000Z</time>
      </trkpt>
      <trkpt lat="-11.7330314777791500091552734375" lon="-76.2692718207836151123046875">
        <ele>3373.39990234375</ele>
        <time>2021-07-25T16:24:49.000Z</time>
      </trkpt>
      <trkpt lat="-11.73285956494510173797607421875" lon="-76.26928229816257953643798828125">
        <ele>3372.800048828125</ele>
        <time>2021-07-25T16:24:55.000Z</time>
      </trkpt>
      <trkpt lat="-11.73215665854513645172119140625" lon="-76.26932538114488124847412109375">
        <ele>3376</ele>
        <time>2021-07-25T16:25:18.000Z</time>
      </trkpt>
      <trkpt lat="-11.7320211231708526611328125" lon="-76.2693185918033123016357421875">
        <ele>3376.60009765625</ele>
        <time>2021-07-25T16:25:24.000Z</time>
      </trkpt>
      <trkpt lat="-11.73195331357419490814208984375" lon="-76.26930157653987407684326171875">
        <ele>3377.199951171875</ele>
        <time>2021-07-25T16:25:27.000Z</time>
      </trkpt>
      <trkpt lat="-11.73186798579990863800048828125" lon="-76.269261427223682403564453125">
        <ele>3377</ele>
        <time>2021-07-25T16:25:32.000Z</time>
      </trkpt>
      <trkpt lat="-11.73176170326769351959228515625" lon="-76.26918733119964599609375">
        <ele>3377.60009765625</ele>
        <time>2021-07-25T16:25:37.000Z</time>
      </trkpt>
      <trkpt lat="-11.731710322201251983642578125" lon="-76.2691130675375461578369140625">
        <ele>3378.199951171875</ele>
        <time>2021-07-25T16:25:40.000Z</time>
      </trkpt>
      <trkpt lat="-11.731643937528133392333984375" lon="-76.26900854520499706268310546875">
        <ele>3378.60009765625</ele>
        <time>2021-07-25T16:25:44.000Z</time>
      </trkpt>
      <trkpt lat="-11.73156238161027431488037109375" lon="-76.26887158490717411041259765625">
        <ele>3379.199951171875</ele>
        <time>2021-07-25T16:25:49.000Z</time>
      </trkpt>
      <trkpt lat="-11.731519214808940887451171875" lon="-76.26880033873021602630615234375">
        <ele>3379.60009765625</ele>
        <time>2021-07-25T16:25:52.000Z</time>
      </trkpt>
      <trkpt lat="-11.73142424784600734710693359375" lon="-76.26861132681369781494140625">
        <ele>3379.800048828125</ele>
        <time>2021-07-25T16:25:58.000Z</time>
      </trkpt>
      <trkpt lat="-11.7313452064990997314453125" lon="-76.26845709979534149169921875">
        <ele>3380.39990234375</ele>
        <time>2021-07-25T16:26:04.000Z</time>
      </trkpt>
      <trkpt lat="-11.73130430281162261962890625" lon="-76.2683744542300701141357421875">
        <ele>3381.60009765625</ele>
        <time>2021-07-25T16:26:08.000Z</time>
      </trkpt>
      <trkpt lat="-11.73125392757356166839599609375" lon="-76.26827261410653591156005859375">
        <ele>3382.800048828125</ele>
        <time>2021-07-25T16:26:12.000Z</time>
      </trkpt>
      <trkpt lat="-11.73122710548341274261474609375" lon="-76.2682249210774898529052734375">
        <ele>3383.800048828125</ele>
        <time>2021-07-25T16:26:14.000Z</time>
      </trkpt>
      <trkpt lat="-11.7311217449605464935302734375" lon="-76.26821544952690601348876953125">
        <ele>3384.60009765625</ele>
        <time>2021-07-25T16:26:17.000Z</time>
      </trkpt>
      <trkpt lat="-11.7309893108904361724853515625" lon="-76.268231458961963653564453125">
        <ele>3384.800048828125</ele>
        <time>2021-07-25T16:26:20.000Z</time>
      </trkpt>
      <trkpt lat="-11.730933822691440582275390625" lon="-76.2682418525218963623046875">
        <ele>3385.39990234375</ele>
        <time>2021-07-25T16:26:22.000Z</time>
      </trkpt>
      <trkpt lat="-11.73087925650179386138916015625" lon="-76.26826037652790546417236328125">
        <ele>3385.800048828125</ele>
        <time>2021-07-25T16:26:24.000Z</time>
      </trkpt>
      <trkpt lat="-11.73070860095322132110595703125" lon="-76.26829775981605052947998046875">
        <ele>3385</ele>
        <time>2021-07-25T16:26:30.000Z</time>
      </trkpt>
      <trkpt lat="-11.730488575994968414306640625" lon="-76.26842181198298931121826171875">
        <ele>3385.199951171875</ele>
        <time>2021-07-25T16:26:40.000Z</time>
      </trkpt>
      <trkpt lat="-11.73022815026342868804931640625" lon="-76.26859255135059356689453125">
        <ele>3385.60009765625</ele>
        <time>2021-07-25T16:26:53.000Z</time>
      </trkpt>
      <trkpt lat="-11.730131171643733978271484375" lon="-76.26866689883172512054443359375">
        <ele>3386.60009765625</ele>
        <time>2021-07-25T16:27:01.000Z</time>
      </trkpt>
      <trkpt lat="-11.73011683858931064605712890625" lon="-76.26861325465142726898193359375">
        <ele>3386.60009765625</ele>
        <time>2021-07-25T16:27:07.000Z</time>
      </trkpt>
      <trkpt lat="-11.73011750914156436920166015625" lon="-76.2685685791075229644775390625">
        <ele>3387</ele>
        <time>2021-07-25T16:27:09.000Z</time>
      </trkpt>
      <trkpt lat="-11.73004173673689365386962890625" lon="-76.2682705186307430267333984375">
        <ele>3388</ele>
        <time>2021-07-25T16:27:15.000Z</time>
      </trkpt>
      <trkpt lat="-11.730041988193988800048828125" lon="-76.2680103443562984466552734375">
        <ele>3389.199951171875</ele>
        <time>2021-07-25T16:27:22.000Z</time>
      </trkpt>
      <trkpt lat="-11.73011474311351776123046875" lon="-76.26796131022274494171142578125">
        <ele>3390.199951171875</ele>
        <time>2021-07-25T16:27:26.000Z</time>
      </trkpt>
      <trkpt lat="-11.730203591287136077880859375" lon="-76.2679255194962024688720703125">
        <ele>3390.60009765625</ele>
        <time>2021-07-25T16:27:30.000Z</time>
      </trkpt>
      <trkpt lat="-11.73027031123638153076171875" lon="-76.26790666021406650543212890625">
        <ele>3391.39990234375</ele>
        <time>2021-07-25T16:27:33.000Z</time>
      </trkpt>
      <trkpt lat="-11.73037567175924777984619140625" lon="-76.267866007983684539794921875">
        <ele>3391.800048828125</ele>
        <time>2021-07-25T16:27:38.000Z</time>
      </trkpt>
      <trkpt lat="-11.7305236123502254486083984375" lon="-76.2677873857319355010986328125">
        <ele>3392.60009765625</ele>
        <time>2021-07-25T16:27:46.000Z</time>
      </trkpt>
      <trkpt lat="-11.7306827008724212646484375" lon="-76.26775008626282215118408203125">
        <ele>3392.800048828125</ele>
        <time>2021-07-25T16:27:52.000Z</time>
      </trkpt>
      <trkpt lat="-11.73088646493852138519287109375" lon="-76.26772192306816577911376953125">
        <ele>3393.39990234375</ele>
        <time>2021-07-25T16:28:00.000Z</time>
      </trkpt>
      <trkpt lat="-11.73109333030879497528076171875" lon="-76.26776450313627719879150390625">
        <ele>3393.39990234375</ele>
        <time>2021-07-25T16:28:08.000Z</time>
      </trkpt>
      <trkpt lat="-11.73116474412381649017333984375" lon="-76.2677910737693309783935546875">
        <ele>3393.800048828125</ele>
        <time>2021-07-25T16:28:11.000Z</time>
      </trkpt>
      <trkpt lat="-11.73125091008841991424560546875" lon="-76.26784228719770908355712890625">
        <ele>3395</ele>
        <time>2021-07-25T16:28:15.000Z</time>
      </trkpt>
      <trkpt lat="-11.7313007824122905731201171875" lon="-76.26786977984011173248291015625">
        <ele>3395.199951171875</ele>
        <time>2021-07-25T16:28:17.000Z</time>
      </trkpt>
      <trkpt lat="-11.731580235064029693603515625" lon="-76.2680380046367645263671875">
        <ele>3395.39990234375</ele>
        <time>2021-07-25T16:28:25.000Z</time>
      </trkpt>
      <trkpt lat="-11.73175491392612457275390625" lon="-76.26813816837966442108154296875">
        <ele>3396.199951171875</ele>
        <time>2021-07-25T16:28:32.000Z</time>
      </trkpt>
      <trkpt lat="-11.73177695833146572113037109375" lon="-76.26814906485378742218017578125">
        <ele>3396.199951171875</ele>
        <time>2021-07-25T16:28:33.000Z</time>
      </trkpt>
      <trkpt lat="-11.73193403519690036773681640625" lon="-76.26823405735194683074951171875">
        <ele>3397.39990234375</ele>
        <time>2021-07-25T16:28:40.000Z</time>
      </trkpt>
      <trkpt lat="-11.7319715023040771484375" lon="-76.2682584486901760101318359375">
        <ele>3398</ele>
        <time>2021-07-25T16:28:42.000Z</time>
      </trkpt>
      <trkpt lat="-11.73204232938587665557861328125" lon="-76.2682996876537799835205078125">
        <ele>3398.60009765625</ele>
        <time>2021-07-25T16:28:46.000Z</time>
      </trkpt>
      <trkpt lat="-11.73208792693912982940673828125" lon="-76.26832340843975543975830078125">
        <ele>3398.800048828125</ele>
        <time>2021-07-25T16:28:48.000Z</time>
      </trkpt>
      <trkpt lat="-11.73225606791675090789794921875" lon="-76.2683734484016895294189453125">
        <ele>3399.60009765625</ele>
        <time>2021-07-25T16:28:55.000Z</time>
      </trkpt>
      <trkpt lat="-11.73240861855447292327880859375" lon="-76.2683553434908390045166015625">
        <ele>3399.199951171875</ele>
        <time>2021-07-25T16:29:01.000Z</time>
      </trkpt>
      <trkpt lat="-11.73243510536849498748779296875" lon="-76.26833916641771793365478515625">
        <ele>3399.199951171875</ele>
        <time>2021-07-25T16:29:02.000Z</time>
      </trkpt>
      <trkpt lat="-11.73254054971039295196533203125" lon="-76.2682364881038665771484375">
        <ele>3401</ele>
        <time>2021-07-25T16:29:07.000Z</time>
      </trkpt>
      <trkpt lat="-11.7325862310826778411865234375" lon="-76.2680609710514545440673828125">
        <ele>3402.199951171875</ele>
        <time>2021-07-25T16:29:13.000Z</time>
      </trkpt>
      <trkpt lat="-11.7325924336910247802734375" lon="-76.26803238876163959503173828125">
        <ele>3402.199951171875</ele>
        <time>2021-07-25T16:29:14.000Z</time>
      </trkpt>
      <trkpt lat="-11.7326194234192371368408203125" lon="-76.267827451229095458984375">
        <ele>3402.60009765625</ele>
        <time>2021-07-25T16:29:21.000Z</time>
      </trkpt>
      <trkpt lat="-11.73265345394611358642578125" lon="-76.26757306046783924102783203125">
        <ele>3402.800048828125</ele>
        <time>2021-07-25T16:29:30.000Z</time>
      </trkpt>
      <trkpt lat="-11.73266678117215633392333984375" lon="-76.267487816512584686279296875">
        <ele>3403.199951171875</ele>
        <time>2021-07-25T16:29:33.000Z</time>
      </trkpt>
      <trkpt lat="-11.73267231322824954986572265625" lon="-76.2673773430287837982177734375">
        <ele>3403.60009765625</ele>
        <time>2021-07-25T16:29:37.000Z</time>
      </trkpt>
      <trkpt lat="-11.73269695602357387542724609375" lon="-76.26717500388622283935546875">
        <ele>3404.199951171875</ele>
        <time>2021-07-25T16:29:44.000Z</time>
      </trkpt>
      <trkpt lat="-11.73270114697515964508056640625" lon="-76.26714541576802730560302734375">
        <ele>3404.60009765625</ele>
        <time>2021-07-25T16:29:45.000Z</time>
      </trkpt>
      <trkpt lat="-11.73272713087499141693115234375" lon="-76.26691139303147792816162109375">
        <ele>3405.60009765625</ele>
        <time>2021-07-25T16:29:53.000Z</time>
      </trkpt>
      <trkpt lat="-11.732729561626911163330078125" lon="-76.2668792903423309326171875">
        <ele>3405.800048828125</ele>
        <time>2021-07-25T16:29:54.000Z</time>
      </trkpt>
      <trkpt lat="-11.73276568762958049774169921875" lon="-76.266604028642177581787109375">
        <ele>3406.199951171875</ele>
        <time>2021-07-25T16:30:02.000Z</time>
      </trkpt>
      <trkpt lat="-11.73278714530169963836669921875" lon="-76.2663924694061279296875">
        <ele>3406.39990234375</ele>
        <time>2021-07-25T16:30:07.000Z</time>
      </trkpt>
      <trkpt lat="-11.73279267735779285430908203125" lon="-76.26590497791767120361328125">
        <ele>3405.60009765625</ele>
        <time>2021-07-25T16:30:16.000Z</time>
      </trkpt>
      <trkpt lat="-11.7326817847788333892822265625" lon="-76.2655480764806270599365234375">
        <ele>3404.39990234375</ele>
        <time>2021-07-25T16:30:22.000Z</time>
      </trkpt>
      <trkpt lat="-11.73261431045830249786376953125" lon="-76.2651839666068553924560546875">
        <ele>3404.39990234375</ele>
        <time>2021-07-25T16:30:28.000Z</time>
      </trkpt>
      <trkpt lat="-11.7326345108449459075927734375" lon="-76.26485355198383331298828125">
        <ele>3405.60009765625</ele>
        <time>2021-07-25T16:30:34.000Z</time>
      </trkpt>
      <trkpt lat="-11.7326532863080501556396484375" lon="-76.26471684314310550689697265625">
        <ele>3406.60009765625</ele>
        <time>2021-07-25T16:30:37.000Z</time>
      </trkpt>
      <trkpt lat="-11.7326744087040424346923828125" lon="-76.264552138745784759521484375">
        <ele>3407.39990234375</ele>
        <time>2021-07-25T16:30:41.000Z</time>
      </trkpt>
      <trkpt lat="-11.73267566598951816558837890625" lon="-76.26451584510505199432373046875">
        <ele>3407.800048828125</ele>
        <time>2021-07-25T16:30:42.000Z</time>
      </trkpt>
      <trkpt lat="-11.73269234597682952880859375" lon="-76.264352314174175262451171875">
        <ele>3408.60009765625</ele>
        <time>2021-07-25T16:30:47.000Z</time>
      </trkpt>
      <trkpt lat="-11.732700057327747344970703125" lon="-76.26431711018085479736328125">
        <ele>3408.800048828125</ele>
        <time>2021-07-25T16:30:48.000Z</time>
      </trkpt>
      <trkpt lat="-11.7327485047280788421630859375" lon="-76.264122314751148223876953125">
        <ele>3410</ele>
        <time>2021-07-25T16:30:54.000Z</time>
      </trkpt>
      <trkpt lat="-11.73276635818183422088623046875" lon="-76.26406221650540828704833984375">
        <ele>3410.39990234375</ele>
        <time>2021-07-25T16:30:56.000Z</time>
      </trkpt>
      <trkpt lat="-11.732822768390178680419921875" lon="-76.263964064419269561767578125">
        <ele>3411.199951171875</ele>
        <time>2021-07-25T16:31:00.000Z</time>
      </trkpt>
      <trkpt lat="-11.73286777921020984649658203125" lon="-76.26390513963997364044189453125">
        <ele>3411.60009765625</ele>
        <time>2021-07-25T16:31:03.000Z</time>
      </trkpt>
      <trkpt lat="-11.73295117914676666259765625" lon="-76.26382500864565372467041015625">
        <ele>3412.199951171875</ele>
        <time>2021-07-25T16:31:08.000Z</time>
      </trkpt>
      <trkpt lat="-11.7329992912709712982177734375" lon="-76.263791061937808990478515625">
        <ele>3412.39990234375</ele>
        <time>2021-07-25T16:31:11.000Z</time>
      </trkpt>
      <trkpt lat="-11.73309710808098316192626953125" lon="-76.263740099966526031494140625">
        <ele>3413.39990234375</ele>
        <time>2021-07-25T16:31:17.000Z</time>
      </trkpt>
      <trkpt lat="-11.73318109475076198577880859375" lon="-76.263705231249332427978515625">
        <ele>3414.60009765625</ele>
        <time>2021-07-25T16:31:21.000Z</time>
      </trkpt>
      <trkpt lat="-11.73332174308598041534423828125" lon="-76.26365435309708118438720703125">
        <ele>3415.800048828125</ele>
        <time>2021-07-25T16:31:27.000Z</time>
      </trkpt>
      <trkpt lat="-11.7333595454692840576171875" lon="-76.2636349909007549285888671875">
        <ele>3416</ele>
        <time>2021-07-25T16:31:29.000Z</time>
      </trkpt>
      <trkpt lat="-11.73368970863521099090576171875" lon="-76.2637640722095966339111328125">
        <ele>3417</ele>
        <time>2021-07-25T16:31:37.000Z</time>
      </trkpt>
      <trkpt lat="-11.7337640561163425445556640625" lon="-76.26378729008138179779052734375">
        <ele>3417.39990234375</ele>
        <time>2021-07-25T16:31:39.000Z</time>
      </trkpt>
      <trkpt lat="-11.7338270880281925201416015625" lon="-76.26379986293613910675048828125">
        <ele>3418</ele>
        <time>2021-07-25T16:31:41.000Z</time>
      </trkpt>
      <trkpt lat="-11.733885593712329864501953125" lon="-76.26367916353046894073486328125">
        <ele>3418.800048828125</ele>
        <time>2021-07-25T16:31:46.000Z</time>
      </trkpt>
      <trkpt lat="-11.73390562646090984344482421875" lon="-76.26359618268907070159912109375">
        <ele>3419.199951171875</ele>
        <time>2021-07-25T16:31:49.000Z</time>
      </trkpt>
      <trkpt lat="-11.73392104916274547576904296875" lon="-76.2634740583598613739013671875">
        <ele>3419.39990234375</ele>
        <time>2021-07-25T16:31:54.000Z</time>
      </trkpt>
      <trkpt lat="-11.73394820652902126312255859375" lon="-76.263332404196262359619140625">
        <ele>3420.39990234375</ele>
        <time>2021-07-25T16:32:00.000Z</time>
      </trkpt>
      <trkpt lat="-11.733953654766082763671875" lon="-76.263282112777233123779296875">
        <ele>3420.60009765625</ele>
        <time>2021-07-25T16:32:02.000Z</time>
      </trkpt>
      <trkpt lat="-11.73397553153336048126220703125" lon="-76.26314288936555385589599609375">
        <ele>3421.39990234375</ele>
        <time>2021-07-25T16:32:08.000Z</time>
      </trkpt>
      <trkpt lat="-11.7339786328375339508056640625" lon="-76.26307122409343719482421875">
        <ele>3421.60009765625</ele>
        <time>2021-07-25T16:32:11.000Z</time>
      </trkpt>
      <trkpt lat="-11.7339826561510562896728515625" lon="-76.2629654444754123687744140625">
        <ele>3422.39990234375</ele>
        <time>2021-07-25T16:32:15.000Z</time>
      </trkpt>
      <trkpt lat="-11.7339893616735935211181640625" lon="-76.26286276616156101226806640625">
        <ele>3423.39990234375</ele>
        <time>2021-07-25T16:32:19.000Z</time>
      </trkpt>
      <trkpt lat="-11.7339943908154964447021484375" lon="-76.26275933347642421722412109375">
        <ele>3424.60009765625</ele>
        <time>2021-07-25T16:32:23.000Z</time>
      </trkpt>
      <trkpt lat="-11.73399279825389385223388671875" lon="-76.2626244686543941497802734375">
        <ele>3425.39990234375</ele>
        <time>2021-07-25T16:32:28.000Z</time>
      </trkpt>
      <trkpt lat="-11.73399464227259159088134765625" lon="-76.26260024495422840118408203125">
        <ele>3425.800048828125</ele>
        <time>2021-07-25T16:32:29.000Z</time>
      </trkpt>
      <trkpt lat="-11.73401542939245700836181640625" lon="-76.26242556609213352203369140625">
        <ele>3427</ele>
        <time>2021-07-25T16:32:36.000Z</time>
      </trkpt>
      <trkpt lat="-11.73404074274003505706787109375" lon="-76.26227905042469501495361328125">
        <ele>3427.39990234375</ele>
        <time>2021-07-25T16:32:42.000Z</time>
      </trkpt>
      <trkpt lat="-11.73406739719212055206298828125" lon="-76.262194477021694183349609375">
        <ele>3428</ele>
        <time>2021-07-25T16:32:46.000Z</time>
      </trkpt>
      <trkpt lat="-11.7340865917503833770751953125" lon="-76.26210822723805904388427734375">
        <ele>3428.39990234375</ele>
        <time>2021-07-25T16:32:50.000Z</time>
      </trkpt>
      <trkpt lat="-11.7341043613851070404052734375" lon="-76.26203480176627635955810546875">
        <ele>3429</ele>
        <time>2021-07-25T16:32:53.000Z</time>
      </trkpt>
      <trkpt lat="-11.73412841744720935821533203125" lon="-76.26194159500300884246826171875">
        <ele>3429.800048828125</ele>
        <time>2021-07-25T16:32:57.000Z</time>
      </trkpt>
      <trkpt lat="-11.73415121622383594512939453125" lon="-76.26185324974358081817626953125">
        <ele>3430.39990234375</ele>
        <time>2021-07-25T16:33:01.000Z</time>
      </trkpt>
      <trkpt lat="-11.7341709136962890625" lon="-76.261780075728893280029296875">
        <ele>3431.199951171875</ele>
        <time>2021-07-25T16:33:05.000Z</time>
      </trkpt>
      <trkpt lat="-11.73417627811431884765625" lon="-76.26175903715193271636962890625">
        <ele>3431.39990234375</ele>
        <time>2021-07-25T16:33:06.000Z</time>
      </trkpt>
      <trkpt lat="-11.73420469276607036590576171875" lon="-76.261647306382656097412109375">
        <ele>3432.60009765625</ele>
        <time>2021-07-25T16:33:11.000Z</time>
      </trkpt>
      <trkpt lat="-11.7342193610966205596923828125" lon="-76.261557452380657196044921875">
        <ele>3432.60009765625</ele>
        <time>2021-07-25T16:33:15.000Z</time>
      </trkpt>
      <trkpt lat="-11.734267137944698333740234375" lon="-76.26138671301305294036865234375">
        <ele>3433.199951171875</ele>
        <time>2021-07-25T16:33:23.000Z</time>
      </trkpt>
      <trkpt lat="-11.73429303802549839019775390625" lon="-76.2613081745803356170654296875">
        <ele>3433.60009765625</ele>
        <time>2021-07-25T16:33:27.000Z</time>
      </trkpt>
      <trkpt lat="-11.734312735497951507568359375" lon="-76.26122259534895420074462890625">
        <ele>3434.39990234375</ele>
        <time>2021-07-25T16:33:31.000Z</time>
      </trkpt>
      <trkpt lat="-11.73432447016239166259765625" lon="-76.2611767463386058807373046875">
        <ele>3434.800048828125</ele>
        <time>2021-07-25T16:33:33.000Z</time>
      </trkpt>
      <trkpt lat="-11.7343652062118053436279296875" lon="-76.26106451265513896942138671875">
        <ele>3435.800048828125</ele>
        <time>2021-07-25T16:33:38.000Z</time>
      </trkpt>
      <trkpt lat="-11.7343729175627231597900390625" lon="-76.26104137860238552093505859375">
        <ele>3436</ele>
        <time>2021-07-25T16:33:39.000Z</time>
      </trkpt>
      <trkpt lat="-11.7344087921082973480224609375" lon="-76.2608525343239307403564453125">
        <ele>3436.60009765625</ele>
        <time>2021-07-25T16:33:47.000Z</time>
      </trkpt>
      <trkpt lat="-11.7344108037650585174560546875" lon="-76.26080534420907497406005859375">
        <ele>3437.199951171875</ele>
        <time>2021-07-25T16:33:49.000Z</time>
      </trkpt>
      <trkpt lat="-11.73440854065120220184326171875" lon="-76.260690428316593170166015625">
        <ele>3438.39990234375</ele>
        <time>2021-07-25T16:33:54.000Z</time>
      </trkpt>
      <trkpt lat="-11.73438440077006816864013671875" lon="-76.26052572391927242279052734375">
        <ele>3439.199951171875</ele>
        <time>2021-07-25T16:34:01.000Z</time>
      </trkpt>
      <trkpt lat="-11.7343786172568798065185546875" lon="-76.26049890182912349700927734375">
        <ele>3439.39990234375</ele>
        <time>2021-07-25T16:34:02.000Z</time>
      </trkpt>
      <trkpt lat="-11.734352968633174896240234375" lon="-76.2603506259620189666748046875">
        <ele>3440.60009765625</ele>
        <time>2021-07-25T16:34:08.000Z</time>
      </trkpt>
      <trkpt lat="-11.7343427427113056182861328125" lon="-76.2603040225803852081298828125">
        <ele>3440.60009765625</ele>
        <time>2021-07-25T16:34:10.000Z</time>
      </trkpt>
      <trkpt lat="-11.7343209497630596160888671875" lon="-76.2601521424949169158935546875">
        <ele>3441.199951171875</ele>
        <time>2021-07-25T16:34:16.000Z</time>
      </trkpt>
      <trkpt lat="-11.734318099915981292724609375" lon="-76.26008181832730770111083984375">
        <ele>3442</ele>
        <time>2021-07-25T16:34:19.000Z</time>
      </trkpt>
      <trkpt lat="-11.7343226261436939239501953125" lon="-76.259959526360034942626953125">
        <ele>3442.800048828125</ele>
        <time>2021-07-25T16:34:24.000Z</time>
      </trkpt>
      <trkpt lat="-11.73434852622449398040771484375" lon="-76.2598457001149654388427734375">
        <ele>3443</ele>
        <time>2021-07-25T16:34:29.000Z</time>
      </trkpt>
      <trkpt lat="-11.7343533039093017578125" lon="-76.2597813270986080169677734375">
        <ele>3443.60009765625</ele>
        <time>2021-07-25T16:34:31.000Z</time>
      </trkpt>
      <trkpt lat="-11.7343739233911037445068359375" lon="-76.2596240825951099395751953125">
        <ele>3444.39990234375</ele>
        <time>2021-07-25T16:34:37.000Z</time>
      </trkpt>
      <trkpt lat="-11.73437920399010181427001953125" lon="-76.25959248282015323638916015625">
        <ele>3444.39990234375</ele>
        <time>2021-07-25T16:34:38.000Z</time>
      </trkpt>
      <trkpt lat="-11.73441524617373943328857421875" lon="-76.25942568294703960418701171875">
        <ele>3445</ele>
        <time>2021-07-25T16:34:45.000Z</time>
      </trkpt>
      <trkpt lat="-11.73443712294101715087890625" lon="-76.25933683477342128753662109375">
        <ele>3445.39990234375</ele>
        <time>2021-07-25T16:34:49.000Z</time>
      </trkpt>
      <trkpt lat="-11.7344577424228191375732421875" lon="-76.25925335101783275604248046875">
        <ele>3446.199951171875</ele>
        <time>2021-07-25T16:34:52.000Z</time>
      </trkpt>
      <trkpt lat="-11.7344699800014495849609375" lon="-76.25917003490030765533447265625">
        <ele>3446.60009765625</ele>
        <time>2021-07-25T16:34:55.000Z</time>
      </trkpt>
      <trkpt lat="-11.734499149024486541748046875" lon="-76.2590779177844524383544921875">
        <ele>3447.199951171875</ele>
        <time>2021-07-25T16:34:59.000Z</time>
      </trkpt>
      <trkpt lat="-11.73450727947056293487548828125" lon="-76.2590552866458892822265625">
        <ele>3447.199951171875</ele>
        <time>2021-07-25T16:35:00.000Z</time>
      </trkpt>
      <trkpt lat="-11.7345144040882587432861328125" lon="-76.25903190113604068756103515625">
        <ele>3447.60009765625</ele>
        <time>2021-07-25T16:35:01.000Z</time>
      </trkpt>
      <trkpt lat="-11.73453208990395069122314453125" lon="-76.25896199606359004974365234375">
        <ele>3448.800048828125</ele>
        <time>2021-07-25T16:35:04.000Z</time>
      </trkpt>
      <trkpt lat="-11.734554804861545562744140625" lon="-76.2588904984295368194580078125">
        <ele>3450</ele>
        <time>2021-07-25T16:35:07.000Z</time>
      </trkpt>
      <trkpt lat="-11.73458908684551715850830078125" lon="-76.25878245569765567779541015625">
        <ele>3448.60009765625</ele>
        <time>2021-07-25T16:35:12.000Z</time>
      </trkpt>
      <trkpt lat="-11.734631918370723724365234375" lon="-76.25866862945258617401123046875">
        <ele>3449.800048828125</ele>
        <time>2021-07-25T16:35:17.000Z</time>
      </trkpt>
      <trkpt lat="-11.7346454970538616180419921875" lon="-76.2586192600429058074951171875">
        <ele>3450.800048828125</ele>
        <time>2021-07-25T16:35:19.000Z</time>
      </trkpt>
      <trkpt lat="-11.7346880771219730377197265625" lon="-76.2585116364061832427978515625">
        <ele>3452</ele>
        <time>2021-07-25T16:35:24.000Z</time>
      </trkpt>
      <trkpt lat="-11.73470425419509410858154296875" lon="-76.25846528448164463043212890625">
        <ele>3452</ele>
        <time>2021-07-25T16:35:26.000Z</time>
      </trkpt>
      <trkpt lat="-11.73475672490894794464111328125" lon="-76.25834307633340358734130859375">
        <ele>3451.199951171875</ele>
        <time>2021-07-25T16:35:32.000Z</time>
      </trkpt>
      <trkpt lat="-11.7348159849643707275390625" lon="-76.25819706358015537261962890625">
        <ele>3452.60009765625</ele>
        <time>2021-07-25T16:35:39.000Z</time>
      </trkpt>
      <trkpt lat="-11.734836101531982421875" lon="-76.258149035274982452392578125">
        <ele>3453.39990234375</ele>
        <time>2021-07-25T16:35:41.000Z</time>
      </trkpt>
      <trkpt lat="-11.73491715453565120697021484375" lon="-76.258012913167476654052734375">
        <ele>3453.60009765625</ele>
        <time>2021-07-25T16:35:48.000Z</time>
      </trkpt>
      <trkpt lat="-11.73502729274332523345947265625" lon="-76.257869414985179901123046875">
        <ele>3454</ele>
        <time>2021-07-25T16:35:56.000Z</time>
      </trkpt>
      <trkpt lat="-11.735058389604091644287109375" lon="-76.25783831812441349029541015625">
        <ele>3454.39990234375</ele>
        <time>2021-07-25T16:35:58.000Z</time>
      </trkpt>
      <trkpt lat="-11.73513508401811122894287109375" lon="-76.2577817402780055999755859375">
        <ele>3455.60009765625</ele>
        <time>2021-07-25T16:36:02.000Z</time>
      </trkpt>
      <trkpt lat="-11.735155284404754638671875" lon="-76.25776983797550201416015625">
        <ele>3455.800048828125</ele>
        <time>2021-07-25T16:36:03.000Z</time>
      </trkpt>
      <trkpt lat="-11.735321246087551116943359375" lon="-76.25768593512475490570068359375">
        <ele>3456.800048828125</ele>
        <time>2021-07-25T16:36:11.000Z</time>
      </trkpt>
      <trkpt lat="-11.73536659218370914459228515625" lon="-76.2576674111187458038330078125">
        <ele>3458</ele>
        <time>2021-07-25T16:36:13.000Z</time>
      </trkpt>
      <trkpt lat="-11.7354729585349559783935546875" lon="-76.2576256692409515380859375">
        <ele>3459</ele>
        <time>2021-07-25T16:36:18.000Z</time>
      </trkpt>
      <trkpt lat="-11.73553816974163055419921875" lon="-76.25760354101657867431640625">
        <ele>3459.39990234375</ele>
        <time>2021-07-25T16:36:21.000Z</time>
      </trkpt>
      <trkpt lat="-11.7355789057910442352294921875" lon="-76.25758945941925048828125">
        <ele>3461</ele>
        <time>2021-07-25T16:36:23.000Z</time>
      </trkpt>
      <trkpt lat="-11.73563464544713497161865234375" lon="-76.25756758265197277069091796875">
        <ele>3461</ele>
        <time>2021-07-25T16:36:26.000Z</time>
      </trkpt>
      <trkpt lat="-11.73573304899036884307861328125" lon="-76.2575175426900386810302734375">
        <ele>3462.60009765625</ele>
        <time>2021-07-25T16:36:31.000Z</time>
      </trkpt>
      <trkpt lat="-11.735785268247127532958984375" lon="-76.2574685923755168914794921875">
        <ele>3463</ele>
        <time>2021-07-25T16:36:34.000Z</time>
      </trkpt>
      <trkpt lat="-11.7358379065990447998046875" lon="-76.25731562264263629913330078125">
        <ele>3462</ele>
        <time>2021-07-25T16:36:40.000Z</time>
      </trkpt>
      <trkpt lat="-11.73577998764812946319580078125" lon="-76.25716458074748516082763671875">
        <ele>3462.60009765625</ele>
        <time>2021-07-25T16:36:46.000Z</time>
      </trkpt>
      <trkpt lat="-11.735654175281524658203125" lon="-76.25708914361894130706787109375">
        <ele>3461.60009765625</ele>
        <time>2021-07-25T16:36:51.000Z</time>
      </trkpt>
      <trkpt lat="-11.73562207259237766265869140625" lon="-76.257082857191562652587890625">
        <ele>3462</ele>
        <time>2021-07-25T16:36:52.000Z</time>
      </trkpt>
      <trkpt lat="-11.73548720777034759521484375" lon="-76.2570784986019134521484375">
        <ele>3460.800048828125</ele>
        <time>2021-07-25T16:36:57.000Z</time>
      </trkpt>
      <trkpt lat="-11.7352825216948986053466796875" lon="-76.25709593296051025390625">
        <ele>3461</ele>
        <time>2021-07-25T16:37:04.000Z</time>
      </trkpt>
      <trkpt lat="-11.73520683310925960540771484375" lon="-76.257133819162845611572265625">
        <ele>3460.60009765625</ele>
        <time>2021-07-25T16:37:07.000Z</time>
      </trkpt>
      <trkpt lat="-11.7351111955940723419189453125" lon="-76.2571655027568340301513671875">
        <ele>3460.60009765625</ele>
        <time>2021-07-25T16:37:10.000Z</time>
      </trkpt>
      <trkpt lat="-11.73483585007488727569580078125" lon="-76.25723213888704776763916015625">
        <ele>3461.199951171875</ele>
        <time>2021-07-25T16:37:17.000Z</time>
      </trkpt>
      <trkpt lat="-11.73461473546922206878662109375" lon="-76.25730589963495731353759765625">
        <ele>3460</ele>
        <time>2021-07-25T16:37:22.000Z</time>
      </trkpt>
      <trkpt lat="-11.73453309573233127593994140625" lon="-76.25734378583729267120361328125">
        <ele>3459.800048828125</ele>
        <time>2021-07-25T16:37:24.000Z</time>
      </trkpt>
      <trkpt lat="-11.7344151623547077178955078125" lon="-76.25739893876016139984130859375">
        <ele>3459.60009765625</ele>
        <time>2021-07-25T16:37:27.000Z</time>
      </trkpt>
      <trkpt lat="-11.73431776463985443115234375" lon="-76.2574903853237628936767578125">
        <ele>3459.39990234375</ele>
        <time>2021-07-25T16:37:30.000Z</time>
      </trkpt>
      <trkpt lat="-11.73426353372633457183837890625" lon="-76.25765944831073284149169921875">
        <ele>3459.199951171875</ele>
        <time>2021-07-25T16:37:33.000Z</time>
      </trkpt>
      <trkpt lat="-11.73423704691231250762939453125" lon="-76.25777193345129489898681640625">
        <ele>3459.199951171875</ele>
        <time>2021-07-25T16:37:35.000Z</time>
      </trkpt>
      <trkpt lat="-11.73421173356473445892333984375" lon="-76.2578829936683177947998046875">
        <ele>3458.39990234375</ele>
        <time>2021-07-25T16:37:37.000Z</time>
      </trkpt>
      <trkpt lat="-11.734130345284938812255859375" lon="-76.2581969797611236572265625">
        <ele>3457.199951171875</ele>
        <time>2021-07-25T16:37:43.000Z</time>
      </trkpt>
      <trkpt lat="-11.7340691573917865753173828125" lon="-76.25842873938381671905517578125">
        <ele>3457.39990234375</ele>
        <time>2021-07-25T16:37:48.000Z</time>
      </trkpt>
      <trkpt lat="-11.73404107801616191864013671875" lon="-76.25851591117680072784423828125">
        <ele>3457.60009765625</ele>
        <time>2021-07-25T16:37:50.000Z</time>
      </trkpt>
      <trkpt lat="-11.7339447699487209320068359375" lon="-76.2588841281831264495849609375">
        <ele>3457.800048828125</ele>
        <time>2021-07-25T16:37:57.000Z</time>
      </trkpt>
      <trkpt lat="-11.73393152654170989990234375" lon="-76.25893919728696346282958984375">
        <ele>3458</ele>
        <time>2021-07-25T16:37:58.000Z</time>
      </trkpt>
      <trkpt lat="-11.73387159593403339385986328125" lon="-76.2592096813023090362548828125">
        <ele>3458.199951171875</ele>
        <time>2021-07-25T16:38:04.000Z</time>
      </trkpt>
      <trkpt lat="-11.73383538611233234405517578125" lon="-76.25932820141315460205078125">
        <ele>3458.39990234375</ele>
        <time>2021-07-25T16:38:07.000Z</time>
      </trkpt>
      <trkpt lat="-11.73378928564488887786865234375" lon="-76.25947949476540088653564453125">
        <ele>3458.39990234375</ele>
        <time>2021-07-25T16:38:11.000Z</time>
      </trkpt>
      <trkpt lat="-11.73371435143053531646728515625" lon="-76.259791217744350433349609375">
        <ele>3459.39990234375</ele>
        <time>2021-07-25T16:38:19.000Z</time>
      </trkpt>
      <trkpt lat="-11.73370412550866603851318359375" lon="-76.25982977449893951416015625">
        <ele>3459.39990234375</ele>
        <time>2021-07-25T16:38:20.000Z</time>
      </trkpt>
      <trkpt lat="-11.73367202281951904296875" lon="-76.25997863709926605224609375">
        <ele>3460.39990234375</ele>
        <time>2021-07-25T16:38:24.000Z</time>
      </trkpt>
      <trkpt lat="-11.73364947549998760223388671875" lon="-76.2601132504642009735107421875">
        <ele>3461.199951171875</ele>
        <time>2021-07-25T16:38:28.000Z</time>
      </trkpt>
      <trkpt lat="-11.73360840417444705963134765625" lon="-76.2603077106177806854248046875">
        <ele>3461.39990234375</ele>
        <time>2021-07-25T16:38:35.000Z</time>
      </trkpt>
      <trkpt lat="-11.73360119573771953582763671875" lon="-76.26033361069858074188232421875">
        <ele>3461.60009765625</ele>
        <time>2021-07-25T16:38:36.000Z</time>
      </trkpt>
      <trkpt lat="-11.73361075110733509063720703125" lon="-76.26041173003613948822021484375">
        <ele>3462.39990234375</ele>
        <time>2021-07-25T16:38:38.000Z</time>
      </trkpt>
      <trkpt lat="-11.7332832701504230499267578125" lon="-76.26204393804073333740234375">
        <ele>3470.800048828125</ele>
        <time>2021-07-25T16:39:51.000Z</time>
      </trkpt>
      <trkpt lat="-11.7332541011273860931396484375" lon="-76.262097917497158050537109375">
        <ele>3471.199951171875</ele>
        <time>2021-07-25T16:39:54.000Z</time>
      </trkpt>
      <trkpt lat="-11.733238510787487030029296875" lon="-76.26218140125274658203125">
        <ele>3471.800048828125</ele>
        <time>2021-07-25T16:39:58.000Z</time>
      </trkpt>
      <trkpt lat="-11.7332259379327297210693359375" lon="-76.26226748339831829071044921875">
        <ele>3472.199951171875</ele>
        <time>2021-07-25T16:40:02.000Z</time>
      </trkpt>
      <trkpt lat="-11.733215041458606719970703125" lon="-76.2623579241335391998291015625">
        <ele>3473</ele>
        <time>2021-07-25T16:40:07.000Z</time>
      </trkpt>
      <trkpt lat="-11.733208000659942626953125" lon="-76.2624296732246875762939453125">
        <ele>3473.199951171875</ele>
        <time>2021-07-25T16:40:10.000Z</time>
      </trkpt>
      <trkpt lat="-11.73317388631403446197509765625" lon="-76.2625822238624095916748046875">
        <ele>3474</ele>
        <time>2021-07-25T16:40:17.000Z</time>
      </trkpt>
      <trkpt lat="-11.73317103646695613861083984375" lon="-76.26260829158127307891845703125">
        <ele>3474.199951171875</ele>
        <time>2021-07-25T16:40:18.000Z</time>
      </trkpt>
      <trkpt lat="-11.73314538784325122833251953125" lon="-76.2627424858510494232177734375">
        <ele>3475</ele>
        <time>2021-07-25T16:40:24.000Z</time>
      </trkpt>
      <trkpt lat="-11.733118481934070587158203125" lon="-76.2627770192921161651611328125">
        <ele>3475.199951171875</ele>
        <time>2021-07-25T16:40:26.000Z</time>
      </trkpt>
      <trkpt lat="-11.7330837808549404144287109375" lon="-76.26283778809010982513427734375">
        <ele>3475.39990234375</ele>
        <time>2021-07-25T16:40:29.000Z</time>
      </trkpt>
      <trkpt lat="-11.7330391891300678253173828125" lon="-76.2629087828099727630615234375">
        <ele>3476.199951171875</ele>
        <time>2021-07-25T16:40:33.000Z</time>
      </trkpt>
      <trkpt lat="-11.73299484886229038238525390625" lon="-76.2629587389528751373291015625">
        <ele>3476.60009765625</ele>
        <time>2021-07-25T16:40:36.000Z</time>
      </trkpt>
      <trkpt lat="-11.73296467401087284088134765625" lon="-76.2629915960133075714111328125">
        <ele>3477.60009765625</ele>
        <time>2021-07-25T16:40:38.000Z</time>
      </trkpt>
      <trkpt lat="-11.73287062905728816986083984375" lon="-76.2630720622837543487548828125">
        <ele>3478</ele>
        <time>2021-07-25T16:40:44.000Z</time>
      </trkpt>
      <trkpt lat="-11.7327002249658107757568359375" lon="-76.2632108666002750396728515625">
        <ele>3478</ele>
        <time>2021-07-25T16:40:54.000Z</time>
      </trkpt>
      <trkpt lat="-11.73253920860588550567626953125" lon="-76.26336157321929931640625">
        <ele>3478.800048828125</ele>
        <time>2021-07-25T16:41:03.000Z</time>
      </trkpt>
      <trkpt lat="-11.73244264908134937286376953125" lon="-76.26343474723398685455322265625">
        <ele>3479.800048828125</ele>
        <time>2021-07-25T16:41:08.000Z</time>
      </trkpt>
      <trkpt lat="-11.73235706984996795654296875" lon="-76.26348721794784069061279296875">
        <ele>3480.199951171875</ele>
        <time>2021-07-25T16:41:12.000Z</time>
      </trkpt>
      <trkpt lat="-11.7321587540209293365478515625" lon="-76.2636296264827251434326171875">
        <ele>3480.60009765625</ele>
        <time>2021-07-25T16:41:21.000Z</time>
      </trkpt>
      <trkpt lat="-11.7321356199681758880615234375" lon="-76.26364647410809993743896484375">
        <ele>3481</ele>
        <time>2021-07-25T16:41:22.000Z</time>
      </trkpt>
      <trkpt lat="-11.7320165969431400299072265625" lon="-76.263754852116107940673828125">
        <ele>3482</ele>
        <time>2021-07-25T16:41:28.000Z</time>
      </trkpt>
      <trkpt lat="-11.7319783754646778106689453125" lon="-76.2637982703745365142822265625">
        <ele>3482.199951171875</ele>
        <time>2021-07-25T16:41:30.000Z</time>
      </trkpt>
      <trkpt lat="-11.7318543232977390289306640625" lon="-76.26398040913045406341552734375">
        <ele>3482.39990234375</ele>
        <time>2021-07-25T16:41:37.000Z</time>
      </trkpt>
      <trkpt lat="-11.7318308539688587188720703125" lon="-76.26403623260557651519775390625">
        <ele>3483</ele>
        <time>2021-07-25T16:41:39.000Z</time>
      </trkpt>
      <trkpt lat="-11.731750555336475372314453125" lon="-76.26423018984496593475341796875">
        <ele>3483</ele>
        <time>2021-07-25T16:41:46.000Z</time>
      </trkpt>
      <trkpt lat="-11.73166329972445964813232421875" lon="-76.264407970011234283447265625">
        <ele>3484</ele>
        <time>2021-07-25T16:41:54.000Z</time>
      </trkpt>
      <trkpt lat="-11.73123314045369625091552734375" lon="-76.265553943812847137451171875">
        <ele>3486</ele>
        <time>2021-07-25T16:42:33.000Z</time>
      </trkpt>
      <trkpt lat="-11.73116474412381649017333984375" lon="-76.26568964682519435882568359375">
        <ele>3486.60009765625</ele>
        <time>2021-07-25T16:42:40.000Z</time>
      </trkpt>
      <trkpt lat="-11.73106156289577484130859375" lon="-76.2658665888011455535888671875">
        <ele>3486.800048828125</ele>
        <time>2021-07-25T16:42:47.000Z</time>
      </trkpt>
      <trkpt lat="-11.73096860758960247039794921875" lon="-76.2659735418856143951416015625">
        <ele>3487.199951171875</ele>
        <time>2021-07-25T16:42:51.000Z</time>
      </trkpt>
      <trkpt lat="-11.73094245605170726776123046875" lon="-76.26599910669028759002685546875">
        <ele>3487</ele>
        <time>2021-07-25T16:42:52.000Z</time>
      </trkpt>
      <trkpt lat="-11.73078001476824283599853515625" lon="-76.266067586839199066162109375">
        <ele>3487.199951171875</ele>
        <time>2021-07-25T16:42:57.000Z</time>
      </trkpt>
      <trkpt lat="-11.73050425015389919281005859375" lon="-76.2661086581647396087646484375">
        <ele>3487.60009765625</ele>
        <time>2021-07-25T16:43:05.000Z</time>
      </trkpt>
      <trkpt lat="-11.730249188840389251708984375" lon="-76.2661374919116497039794921875">
        <ele>3487.60009765625</ele>
        <time>2021-07-25T16:43:12.000Z</time>
      </trkpt>
      <trkpt lat="-11.73000167123973369598388671875" lon="-76.26614109613001346588134765625">
        <ele>3488</ele>
        <time>2021-07-25T16:43:19.000Z</time>
      </trkpt>
      <trkpt lat="-11.7297474481165409088134765625" lon="-76.2661676667630672454833984375">
        <ele>3488.199951171875</ele>
        <time>2021-07-25T16:43:26.000Z</time>
      </trkpt>
      <trkpt lat="-11.72967092134058475494384765625" lon="-76.2661706842482089996337890625">
        <ele>3488.199951171875</ele>
        <time>2021-07-25T16:43:28.000Z</time>
      </trkpt>
      <trkpt lat="-11.72933824360370635986328125" lon="-76.26618384383618831634521484375">
        <ele>3488.800048828125</ele>
        <time>2021-07-25T16:43:37.000Z</time>
      </trkpt>
      <trkpt lat="-11.7290913127362728118896484375" lon="-76.266210079193115234375">
        <ele>3489.39990234375</ele>
        <time>2021-07-25T16:43:44.000Z</time>
      </trkpt>
      <trkpt lat="-11.7290557734668254852294921875" lon="-76.26621535979211330413818359375">
        <ele>3489.60009765625</ele>
        <time>2021-07-25T16:43:45.000Z</time>
      </trkpt>
      <trkpt lat="-11.728894673287868499755859375" lon="-76.2662541680037975311279296875">
        <ele>3490.60009765625</ele>
        <time>2021-07-25T16:43:50.000Z</time>
      </trkpt>
      <trkpt lat="-11.7288311384618282318115234375" lon="-76.2662677466869354248046875">
        <ele>3490.39990234375</ele>
        <time>2021-07-25T16:43:52.000Z</time>
      </trkpt>
      <trkpt lat="-11.72863407991826534271240234375" lon="-76.26632164232432842254638671875">
        <ele>3491.39990234375</ele>
        <time>2021-07-25T16:43:59.000Z</time>
      </trkpt>
      <trkpt lat="-11.72860675491392612457275390625" lon="-76.266327761113643646240234375">
        <ele>3491.60009765625</ele>
        <time>2021-07-25T16:44:00.000Z</time>
      </trkpt>
      <trkpt lat="-11.72834574244916439056396484375" lon="-76.26636900007724761962890625">
        <ele>3492.60009765625</ele>
        <time>2021-07-25T16:44:09.000Z</time>
      </trkpt>
      <trkpt lat="-11.72808338887989521026611328125" lon="-76.26639573834836483001708984375">
        <ele>3493.60009765625</ele>
        <time>2021-07-25T16:44:18.000Z</time>
      </trkpt>
      <trkpt lat="-11.7280539683997631072998046875" lon="-76.26639875583350658416748046875">
        <ele>3493.800048828125</ele>
        <time>2021-07-25T16:44:19.000Z</time>
      </trkpt>
      <trkpt lat="-11.72788222320377826690673828125" lon="-76.26642608083784580230712890625">
        <ele>3494.800048828125</ele>
        <time>2021-07-25T16:44:25.000Z</time>
      </trkpt>
      <trkpt lat="-11.72782681882381439208984375" lon="-76.266438402235507965087890625">
        <ele>3494.800048828125</ele>
        <time>2021-07-25T16:44:27.000Z</time>
      </trkpt>
      <trkpt lat="-11.727661527693271636962890625" lon="-76.26647033728659152984619140625">
        <ele>3495.800048828125</ele>
        <time>2021-07-25T16:44:33.000Z</time>
      </trkpt>
      <trkpt lat="-11.727548874914646148681640625" lon="-76.26647754572331905364990234375">
        <ele>3496.199951171875</ele>
        <time>2021-07-25T16:44:37.000Z</time>
      </trkpt>
      <trkpt lat="-11.72743856906890869140625" lon="-76.26649179495871067047119140625">
        <ele>3497</ele>
        <time>2021-07-25T16:44:41.000Z</time>
      </trkpt>
      <trkpt lat="-11.72726497985422611236572265625" lon="-76.26651241444051265716552734375">
        <ele>3497.800048828125</ele>
        <time>2021-07-25T16:44:47.000Z</time>
      </trkpt>
      <trkpt lat="-11.72718049027025699615478515625" lon="-76.2665207125246524810791015625">
        <ele>3498.199951171875</ele>
        <time>2021-07-25T16:44:50.000Z</time>
      </trkpt>
      <trkpt lat="-11.72704252414405345916748046875" lon="-76.26654678024351596832275390625">
        <ele>3499</ele>
        <time>2021-07-25T16:44:55.000Z</time>
      </trkpt>
      <trkpt lat="-11.72701352275907993316650390625" lon="-76.2665471993386745452880859375">
        <ele>3499.199951171875</ele>
        <time>2021-07-25T16:44:56.000Z</time>
      </trkpt>
      <trkpt lat="-11.72685292549431324005126953125" lon="-76.26653085462749004364013671875">
        <ele>3500.199951171875</ele>
        <time>2021-07-25T16:45:02.000Z</time>
      </trkpt>
      <trkpt lat="-11.726791150867938995361328125" lon="-76.26654476858675479888916015625">
        <ele>3500.39990234375</ele>
        <time>2021-07-25T16:45:04.000Z</time>
      </trkpt>
      <trkpt lat="-11.7266719602048397064208984375" lon="-76.26658550463616847991943359375">
        <ele>3501.199951171875</ele>
        <time>2021-07-25T16:45:08.000Z</time>
      </trkpt>
      <trkpt lat="-11.72652871347963809967041015625" lon="-76.26663110218942165374755859375">
        <ele>3501.39990234375</ele>
        <time>2021-07-25T16:45:13.000Z</time>
      </trkpt>
      <trkpt lat="-11.726282201707363128662109375" lon="-76.26669128425419330596923828125">
        <ele>3502</ele>
        <time>2021-07-25T16:45:22.000Z</time>
      </trkpt>
      <trkpt lat="-11.7261995561420917510986328125" lon="-76.26674459315836429595947265625">
        <ele>3502.60009765625</ele>
        <time>2021-07-25T16:45:25.000Z</time>
      </trkpt>
      <trkpt lat="-11.7261415533721446990966796875" lon="-76.2667775340378284454345703125">
        <ele>3503</ele>
        <time>2021-07-25T16:45:27.000Z</time>
      </trkpt>
      <trkpt lat="-11.72608916647732257843017578125" lon="-76.26680754125118255615234375">
        <ele>3503.39990234375</ele>
        <time>2021-07-25T16:45:29.000Z</time>
      </trkpt>
      <trkpt lat="-11.726038791239261627197265625" lon="-76.26684064976871013641357421875">
        <ele>3503.800048828125</ele>
        <time>2021-07-25T16:45:31.000Z</time>
      </trkpt>
      <trkpt lat="-11.72590610571205615997314453125" lon="-76.2669103033840656280517578125">
        <ele>3504.800048828125</ele>
        <time>2021-07-25T16:45:36.000Z</time>
      </trkpt>
      <trkpt lat="-11.7258776910603046417236328125" lon="-76.26692614518105983734130859375">
        <ele>3505</ele>
        <time>2021-07-25T16:45:37.000Z</time>
      </trkpt>
      <trkpt lat="-11.72566789202392101287841796875" lon="-76.26702203415334224700927734375">
        <ele>3505.800048828125</ele>
        <time>2021-07-25T16:45:45.000Z</time>
      </trkpt>
      <trkpt lat="-11.72561558894813060760498046875" lon="-76.26704952679574489593505859375">
        <ele>3506.199951171875</ele>
        <time>2021-07-25T16:45:47.000Z</time>
      </trkpt>
      <trkpt lat="-11.72546253539621829986572265625" lon="-76.2671312503516674041748046875">
        <ele>3507</ele>
        <time>2021-07-25T16:45:53.000Z</time>
      </trkpt>
      <trkpt lat="-11.72543973661959171295166015625" lon="-76.26714625395834445953369140625">
        <ele>3507.199951171875</ele>
        <time>2021-07-25T16:45:54.000Z</time>
      </trkpt>
      <trkpt lat="-11.72532909549772739410400390625" lon="-76.26721934415400028228759765625">
        <ele>3507.60009765625</ele>
        <time>2021-07-25T16:45:59.000Z</time>
      </trkpt>
      <trkpt lat="-11.7252691648900508880615234375" lon="-76.26728757284581661224365234375">
        <ele>3508.39990234375</ele>
        <time>2021-07-25T16:46:02.000Z</time>
      </trkpt>
      <trkpt lat="-11.7252141796052455902099609375" lon="-76.26735873520374298095703125">
        <ele>3508.800048828125</ele>
        <time>2021-07-25T16:46:05.000Z</time>
      </trkpt>
      <trkpt lat="-11.7251759581267833709716796875" lon="-76.26740860752761363983154296875">
        <ele>3509.39990234375</ele>
        <time>2021-07-25T16:46:07.000Z</time>
      </trkpt>
      <trkpt lat="-11.72504863701760768890380859375" lon="-76.2675686180591583251953125">
        <ele>3510.39990234375</ele>
        <time>2021-07-25T16:46:14.000Z</time>
      </trkpt>
      <trkpt lat="-11.72502927482128143310546875" lon="-76.267587058246135711669921875">
        <ele>3510.800048828125</ele>
        <time>2021-07-25T16:46:15.000Z</time>
      </trkpt>
      <trkpt lat="-11.7249124310910701751708984375" lon="-76.2677367590367794036865234375">
        <ele>3512.60009765625</ele>
        <time>2021-07-25T16:46:20.000Z</time>
      </trkpt>
      <trkpt lat="-11.7247769795358180999755859375" lon="-76.2678437121212482452392578125">
        <ele>3513.199951171875</ele>
        <time>2021-07-25T16:46:27.000Z</time>
      </trkpt>
      <trkpt lat="-11.72467664815485477447509765625" lon="-76.26788168214261531829833984375">
        <ele>3513.60009765625</ele>
        <time>2021-07-25T16:46:33.000Z</time>
      </trkpt>
      <trkpt lat="-11.72465016134083271026611328125" lon="-76.26788939349353313446044921875">
        <ele>3514</ele>
        <time>2021-07-25T16:46:35.000Z</time>
      </trkpt>
      <trkpt lat="-11.72456081025302410125732421875" lon="-76.26791403628885746002197265625">
        <ele>3515.199951171875</ele>
        <time>2021-07-25T16:52:54.000Z</time>
      </trkpt>
      <trkpt lat="-11.72454605810344219207763671875" lon="-76.2679194845259189605712890625">
        <ele>3515</ele>
        <time>2021-07-25T16:52:55.000Z</time>
      </trkpt>
      <trkpt lat="-11.724407672882080078125" lon="-76.2679878808557987213134765625">
        <ele>3515.800048828125</ele>
        <time>2021-07-25T16:53:02.000Z</time>
      </trkpt>
      <trkpt lat="-11.72423978336155414581298828125" lon="-76.26805334351956844329833984375">
        <ele>3516.39990234375</ele>
        <time>2021-07-25T16:53:09.000Z</time>
      </trkpt>
      <trkpt lat="-11.7241708002984523773193359375" lon="-76.26808167435228824615478515625">
        <ele>3516.60009765625</ele>
        <time>2021-07-25T16:53:12.000Z</time>
      </trkpt>
      <trkpt lat="-11.7240779288113117218017578125" lon="-76.26811771653592586517333984375">
        <ele>3517.39990234375</ele>
        <time>2021-07-25T16:53:16.000Z</time>
      </trkpt>
      <trkpt lat="-11.72393082641065120697021484375" lon="-76.26818217337131500244140625">
        <ele>3517.800048828125</ele>
        <time>2021-07-25T16:53:22.000Z</time>
      </trkpt>
      <trkpt lat="-11.72376603819429874420166015625" lon="-76.2682498991489410400390625">
        <ele>3518.60009765625</ele>
        <time>2021-07-25T16:53:29.000Z</time>
      </trkpt>
      <trkpt lat="-11.7236937023699283599853515625" lon="-76.2682772241532802581787109375">
        <ele>3519</ele>
        <time>2021-07-25T16:53:32.000Z</time>
      </trkpt>
      <trkpt lat="-11.72354626469314098358154296875" lon="-76.26833497546613216400146484375">
        <ele>3519.800048828125</ele>
        <time>2021-07-25T16:53:38.000Z</time>
      </trkpt>
      <trkpt lat="-11.7235196940600872039794921875" lon="-76.268345452845096588134765625">
        <ele>3520</ele>
        <time>2021-07-25T16:53:39.000Z</time>
      </trkpt>
      <trkpt lat="-11.72336085699498653411865234375" lon="-76.2683757953345775604248046875">
        <ele>3520.800048828125</ele>
        <time>2021-07-25T16:53:45.000Z</time>
      </trkpt>
      <trkpt lat="-11.72325457446277141571044921875" lon="-76.26839146949350833892822265625">
        <ele>3521</ele>
        <time>2021-07-25T16:53:49.000Z</time>
      </trkpt>
      <trkpt lat="-11.72312415204942226409912109375" lon="-76.26838828437030315399169921875">
        <ele>3521.800048828125</ele>
        <time>2021-07-25T16:53:54.000Z</time>
      </trkpt>
      <trkpt lat="-11.72296338714659214019775390625" lon="-76.26837839372456073760986328125">
        <ele>3522.39990234375</ele>
        <time>2021-07-25T16:54:00.000Z</time>
      </trkpt>
      <trkpt lat="-11.72288618981838226318359375" lon="-76.26837152056396007537841796875">
        <ele>3522.800048828125</ele>
        <time>2021-07-25T16:54:03.000Z</time>
      </trkpt>
      <trkpt lat="-11.722677312791347503662109375" lon="-76.2683436088263988494873046875">
        <ele>3523.800048828125</ele>
        <time>2021-07-25T16:54:11.000Z</time>
      </trkpt>
      <trkpt lat="-11.7226506583392620086669921875" lon="-76.268341429531574249267578125">
        <ele>3524</ele>
        <time>2021-07-25T16:54:12.000Z</time>
      </trkpt>
      <trkpt lat="-11.722443960607051849365234375" lon="-76.26832156442105770111083984375">
        <ele>3525.199951171875</ele>
        <time>2021-07-25T16:54:20.000Z</time>
      </trkpt>
      <trkpt lat="-11.7223401926457881927490234375" lon="-76.26831452362239360809326171875">
        <ele>3526</ele>
        <time>2021-07-25T16:54:24.000Z</time>
      </trkpt>
      <trkpt lat="-11.722287721931934356689453125" lon="-76.26830999739468097686767578125">
        <ele>3526.199951171875</ele>
        <time>2021-07-25T16:54:26.000Z</time>
      </trkpt>
      <trkpt lat="-11.72209904529154300689697265625" lon="-76.26833581365644931793212890625">
        <ele>3526.39990234375</ele>
        <time>2021-07-25T16:54:33.000Z</time>
      </trkpt>
      <trkpt lat="-11.72189637087285518646240234375" lon="-76.26838794909417629241943359375">
        <ele>3527.199951171875</ele>
        <time>2021-07-25T16:54:41.000Z</time>
      </trkpt>
      <trkpt lat="-11.721840798854827880859375" lon="-76.2684123404324054718017578125">
        <ele>3527.39990234375</ele>
        <time>2021-07-25T16:54:43.000Z</time>
      </trkpt>
      <trkpt lat="-11.721625886857509613037109375" lon="-76.26850479282438755035400390625">
        <ele>3528</ele>
        <time>2021-07-25T16:54:51.000Z</time>
      </trkpt>
      <trkpt lat="-11.72151298262178897857666015625" lon="-76.26852943561971187591552734375">
        <ele>3528.199951171875</ele>
        <time>2021-07-25T16:54:55.000Z</time>
      </trkpt>
      <trkpt lat="-11.721432767808437347412109375" lon="-76.26853614114224910736083984375">
        <ele>3528.60009765625</ele>
        <time>2021-07-25T16:54:58.000Z</time>
      </trkpt>
      <trkpt lat="-11.72130276449024677276611328125" lon="-76.26855106092989444732666015625">
        <ele>3529.39990234375</ele>
        <time>2021-07-25T16:55:03.000Z</time>
      </trkpt>
      <trkpt lat="-11.72115172259509563446044921875" lon="-76.26856581307947635650634765625">
        <ele>3529.60009765625</ele>
        <time>2021-07-25T16:55:09.000Z</time>
      </trkpt>
      <trkpt lat="-11.72099749557673931121826171875" lon="-76.26857033930718898773193359375">
        <ele>3530.199951171875</ele>
        <time>2021-07-25T16:55:15.000Z</time>
      </trkpt>
      <trkpt lat="-11.72096908092498779296875" lon="-76.26857402734458446502685546875">
        <ele>3530.39990234375</ele>
        <time>2021-07-25T16:55:16.000Z</time>
      </trkpt>
      <trkpt lat="-11.72091434709727764129638671875" lon="-76.268578805029392242431640625">
        <ele>3530.60009765625</ele>
        <time>2021-07-25T16:55:18.000Z</time>
      </trkpt>
      <trkpt lat="-11.7208113335072994232177734375" lon="-76.26858056522905826568603515625">
        <ele>3531.39990234375</ele>
        <time>2021-07-25T16:55:22.000Z</time>
      </trkpt>
      <trkpt lat="-11.7206302843987941741943359375" lon="-76.26857050694525241851806640625">
        <ele>3532.39990234375</ele>
        <time>2021-07-25T16:55:29.000Z</time>
      </trkpt>
      <trkpt lat="-11.720399446785449981689453125" lon="-76.26852055080235004425048828125">
        <ele>3533</ele>
        <time>2021-07-25T16:55:38.000Z</time>
      </trkpt>
      <trkpt lat="-11.72027598135173320770263671875" lon="-76.2684778869152069091796875">
        <ele>3533.60009765625</ele>
        <time>2021-07-25T16:55:43.000Z</time>
      </trkpt>
      <trkpt lat="-11.7201736383140087127685546875" lon="-76.26844963990151882171630859375">
        <ele>3534.800048828125</ele>
        <time>2021-07-25T16:55:47.000Z</time>
      </trkpt>
      <trkpt lat="-11.72012217342853546142578125" lon="-76.268433630466461181640625">
        <ele>3535.60009765625</ele>
        <time>2021-07-25T16:55:49.000Z</time>
      </trkpt>
      <trkpt lat="-11.72007062472403049468994140625" lon="-76.26841527409851551055908203125">
        <ele>3535.800048828125</ele>
        <time>2021-07-25T16:55:51.000Z</time>
      </trkpt>
      <trkpt lat="-11.71985420398414134979248046875" lon="-76.268385015428066253662109375">
        <ele>3536.60009765625</ele>
        <time>2021-07-25T16:55:59.000Z</time>
      </trkpt>
      <trkpt lat="-11.7198036611080169677734375" lon="-76.26838409341871738433837890625">
        <ele>3537</ele>
        <time>2021-07-25T16:56:01.000Z</time>
      </trkpt>
      <trkpt lat="-11.71963510103523731231689453125" lon="-76.268385015428066253662109375">
        <ele>3538</ele>
        <time>2021-07-25T16:56:08.000Z</time>
      </trkpt>
      <trkpt lat="-11.7196107096970081329345703125" lon="-76.2683791480958461761474609375">
        <ele>3538</ele>
        <time>2021-07-25T16:56:09.000Z</time>
      </trkpt>
      <trkpt lat="-11.7194388806819915771484375" lon="-76.268301866948604583740234375">
        <ele>3538.800048828125</ele>
        <time>2021-07-25T16:56:16.000Z</time>
      </trkpt>
      <trkpt lat="-11.7194118909537792205810546875" lon="-76.26828853972256183624267578125">
        <ele>3539</ele>
        <time>2021-07-25T16:56:17.000Z</time>
      </trkpt>
      <trkpt lat="-11.719158254563808441162109375" lon="-76.26820790581405162811279296875">
        <ele>3539.800048828125</ele>
        <time>2021-07-25T16:56:27.000Z</time>
      </trkpt>
      <trkpt lat="-11.71910771168768405914306640625" lon="-76.26819667406380176544189453125">
        <ele>3540.39990234375</ele>
        <time>2021-07-25T16:56:29.000Z</time>
      </trkpt>
      <trkpt lat="-11.71890201978385448455810546875" lon="-76.26813481561839580535888671875">
        <ele>3541.39990234375</ele>
        <time>2021-07-25T16:56:37.000Z</time>
      </trkpt>
      <trkpt lat="-11.7188757844269275665283203125" lon="-76.2681263498961925506591796875">
        <ele>3541.39990234375</ele>
        <time>2021-07-25T16:56:38.000Z</time>
      </trkpt>
      <trkpt lat="-11.718607731163501739501953125" lon="-76.26808569766581058502197265625">
        <ele>3542.39990234375</ele>
        <time>2021-07-25T16:56:48.000Z</time>
      </trkpt>
      <trkpt lat="-11.71858266927301883697509765625" lon="-76.2680876255035400390625">
        <ele>3542.39990234375</ele>
        <time>2021-07-25T16:56:49.000Z</time>
      </trkpt>
      <trkpt lat="-11.71843397431075572967529296875" lon="-76.26808452419936656951904296875">
        <ele>3543.60009765625</ele>
        <time>2021-07-25T16:56:55.000Z</time>
      </trkpt>
      <trkpt lat="-11.718411259353160858154296875" lon="-76.26810329966247081756591796875">
        <ele>3543.800048828125</ele>
        <time>2021-07-25T16:56:56.000Z</time>
      </trkpt>
      <trkpt lat="-11.71830757521092891693115234375" lon="-76.26828116364777088165283203125">
        <ele>3544.39990234375</ele>
        <time>2021-07-25T16:57:00.000Z</time>
      </trkpt>
      <trkpt lat="-11.71828226186335086822509765625" lon="-76.268296502530574798583984375">
        <ele>3544.60009765625</ele>
        <time>2021-07-25T16:57:01.000Z</time>
      </trkpt>
      <trkpt lat="-11.71813809312880039215087890625" lon="-76.2683533318340778350830078125">
        <ele>3545.60009765625</ele>
        <time>2021-07-25T16:57:07.000Z</time>
      </trkpt>
      <trkpt lat="-11.718112863600254058837890625" lon="-76.268370263278484344482421875">
        <ele>3545.800048828125</ele>
        <time>2021-07-25T16:57:08.000Z</time>
      </trkpt>
      <trkpt lat="-11.71790826134383678436279296875" lon="-76.26854049973189830780029296875">
        <ele>3546.800048828125</ele>
        <time>2021-07-25T16:57:17.000Z</time>
      </trkpt>
      <trkpt lat="-11.7177911661565303802490234375" lon="-76.2686862610280513763427734375">
        <ele>3547.39990234375</ele>
        <time>2021-07-25T16:57:23.000Z</time>
      </trkpt>
      <trkpt lat="-11.71771489083766937255859375" lon="-76.26877854578197002410888671875">
        <ele>3547.800048828125</ele>
        <time>2021-07-25T16:57:27.000Z</time>
      </trkpt>
      <trkpt lat="-11.7176605761051177978515625" lon="-76.26884895376861095428466796875">
        <ele>3548.199951171875</ele>
        <time>2021-07-25T16:57:30.000Z</time>
      </trkpt>
      <trkpt lat="-11.717515401542186737060546875" lon="-76.26899681054055690765380859375">
        <ele>3548.800048828125</ele>
        <time>2021-07-25T16:57:37.000Z</time>
      </trkpt>
      <trkpt lat="-11.71749268658459186553955078125" lon="-76.26901441253721714019775390625">
        <ele>3548.800048828125</ele>
        <time>2021-07-25T16:57:38.000Z</time>
      </trkpt>
      <trkpt lat="-11.717390678822994232177734375" lon="-76.26906403340399265289306640625">
        <ele>3550</ele>
        <time>2021-07-25T16:57:42.000Z</time>
      </trkpt>
      <trkpt lat="-11.71730627305805683135986328125" lon="-76.26909320242702960968017578125">
        <ele>3550.60009765625</ele>
        <time>2021-07-25T16:57:45.000Z</time>
      </trkpt>
      <trkpt lat="-11.717278026044368743896484375" lon="-76.26910342834889888763427734375">
        <ele>3550.800048828125</ele>
        <time>2021-07-25T16:57:46.000Z</time>
      </trkpt>
      <trkpt lat="-11.717162691056728363037109375" lon="-76.2691382132470607757568359375">
        <ele>3551</ele>
        <time>2021-07-25T16:57:50.000Z</time>
      </trkpt>
      <trkpt lat="-11.716982983052730560302734375" lon="-76.26916679553687572479248046875">
        <ele>3551.60009765625</ele>
        <time>2021-07-25T16:57:56.000Z</time>
      </trkpt>
      <trkpt lat="-11.716895140707492828369140625" lon="-76.2691807933151721954345703125">
        <ele>3552.199951171875</ele>
        <time>2021-07-25T16:57:59.000Z</time>
      </trkpt>
      <trkpt lat="-11.7166579328477382659912109375" lon="-76.26923770643770694732666015625">
        <ele>3553.199951171875</ele>
        <time>2021-07-25T16:58:07.000Z</time>
      </trkpt>
      <trkpt lat="-11.71662784181535243988037109375" lon="-76.2692475132644176483154296875">
        <ele>3553.39990234375</ele>
        <time>2021-07-25T16:58:08.000Z</time>
      </trkpt>
      <trkpt lat="-11.716388873755931854248046875" lon="-76.269291937351226806640625">
        <ele>3554.39990234375</ele>
        <time>2021-07-25T16:58:16.000Z</time>
      </trkpt>
      <trkpt lat="-11.71635861508548259735107421875" lon="-76.26929587684571743011474609375">
        <ele>3554.60009765625</ele>
        <time>2021-07-25T16:58:17.000Z</time>
      </trkpt>
      <trkpt lat="-11.716118641197681427001953125" lon="-76.2693227827548980712890625">
        <ele>3555.39990234375</ele>
        <time>2021-07-25T16:58:25.000Z</time>
      </trkpt>
      <trkpt lat="-11.71609056182205677032470703125" lon="-76.26932973973453044891357421875">
        <ele>3555.60009765625</ele>
        <time>2021-07-25T16:58:26.000Z</time>
      </trkpt>
      <trkpt lat="-11.7159008793532848358154296875" lon="-76.2693698890507221221923828125">
        <ele>3556.39990234375</ele>
        <time>2021-07-25T16:58:33.000Z</time>
      </trkpt>
      <trkpt lat="-11.71587414108216762542724609375" lon="-76.2693769298493862152099609375">
        <ele>3556.60009765625</ele>
        <time>2021-07-25T16:58:34.000Z</time>
      </trkpt>
      <trkpt lat="-11.7157660983502864837646484375" lon="-76.26939998008310794830322265625">
        <ele>3557.800048828125</ele>
        <time>2021-07-25T16:58:38.000Z</time>
      </trkpt>
      <trkpt lat="-11.71566258184611797332763671875" lon="-76.26942479051649570465087890625">
        <ele>3557.39990234375</ele>
        <time>2021-07-25T16:58:42.000Z</time>
      </trkpt>
      <trkpt lat="-11.71543124131858348846435546875" lon="-76.2695408798754215240478515625">
        <ele>3558.199951171875</ele>
        <time>2021-07-25T16:58:50.000Z</time>
      </trkpt>
      <trkpt lat="-11.71535027213394641876220703125" lon="-76.2696119584143161773681640625">
        <ele>3559</ele>
        <time>2021-07-25T16:58:53.000Z</time>
      </trkpt>
      <trkpt lat="-11.715237535536289215087890625" lon="-76.2696240283548831939697265625">
        <ele>3559.199951171875</ele>
        <time>2021-07-25T16:58:57.000Z</time>
      </trkpt>
      <trkpt lat="-11.71512982808053493499755859375" lon="-76.269607432186603546142578125">
        <ele>3560</ele>
        <time>2021-07-25T16:59:01.000Z</time>
      </trkpt>
      <trkpt lat="-11.71502404846251010894775390625" lon="-76.269573234021663665771484375">
        <ele>3560.800048828125</ele>
        <time>2021-07-25T16:59:05.000Z</time>
      </trkpt>
      <trkpt lat="-11.7149979807436466217041015625" lon="-76.26956342719495296478271484375">
        <ele>3561</ele>
        <time>2021-07-25T16:59:06.000Z</time>
      </trkpt>
      <trkpt lat="-11.71476605348289012908935546875" lon="-76.26948815770447254180908203125">
        <ele>3562</ele>
        <time>2021-07-25T16:59:15.000Z</time>
      </trkpt>
      <trkpt lat="-11.71459053643047809600830078125" lon="-76.26942294649779796600341796875">
        <ele>3563.199951171875</ele>
        <time>2021-07-25T16:59:22.000Z</time>
      </trkpt>
      <trkpt lat="-11.71449380926787853240966796875" lon="-76.26938941888511180877685546875">
        <ele>3563.60009765625</ele>
        <time>2021-07-25T16:59:26.000Z</time>
      </trkpt>
      <trkpt lat="-11.71444519422948360443115234375" lon="-76.2693698890507221221923828125">
        <ele>3564.199951171875</ele>
        <time>2021-07-25T16:59:28.000Z</time>
      </trkpt>
      <trkpt lat="-11.7142945714294910430908203125" lon="-76.26932521350681781768798828125">
        <ele>3565.199951171875</ele>
        <time>2021-07-25T16:59:34.000Z</time>
      </trkpt>
      <trkpt lat="-11.71427093446254730224609375" lon="-76.2693212740123271942138671875">
        <ele>3565.199951171875</ele>
        <time>2021-07-25T16:59:35.000Z</time>
      </trkpt>
      <trkpt lat="-11.714088208973407745361328125" lon="-76.26930333673954010009765625">
        <ele>3566.39990234375</ele>
        <time>2021-07-25T16:59:42.000Z</time>
      </trkpt>
      <trkpt lat="-11.7140136100351810455322265625" lon="-76.26931129954755306243896484375">
        <ele>3566.800048828125</ele>
        <time>2021-07-25T16:59:45.000Z</time>
      </trkpt>
      <trkpt lat="-11.71384504996240139007568359375" lon="-76.26935907639563083648681640625">
        <ele>3567.60009765625</ele>
        <time>2021-07-25T16:59:52.000Z</time>
      </trkpt>
      <trkpt lat="-11.71379576437175273895263671875" lon="-76.26937516964972019195556640625">
        <ele>3567.800048828125</ele>
        <time>2021-07-25T16:59:54.000Z</time>
      </trkpt>
      <trkpt lat="-11.7136622406542301177978515625" lon="-76.2694600783288478851318359375">
        <ele>3568.60009765625</ele>
        <time>2021-07-25T17:00:00.000Z</time>
      </trkpt>
      <trkpt lat="-11.713611446321010589599609375" lon="-76.26949301920831203460693359375">
        <ele>3569</ele>
        <time>2021-07-25T17:00:02.000Z</time>
      </trkpt>
      <trkpt lat="-11.7135009728372097015380859375" lon="-76.26956426538527011871337890625">
        <ele>3569.800048828125</ele>
        <time>2021-07-25T17:00:07.000Z</time>
      </trkpt>
      <trkpt lat="-11.71337549574673175811767578125" lon="-76.269662082195281982421875">
        <ele>3570.800048828125</ele>
        <time>2021-07-25T17:00:13.000Z</time>
      </trkpt>
      <trkpt lat="-11.71333216130733489990234375" lon="-76.26968680880963802337646484375">
        <ele>3571.199951171875</ele>
        <time>2021-07-25T17:00:15.000Z</time>
      </trkpt>
      <trkpt lat="-11.713211797177791595458984375" lon="-76.26977180130779743194580078125">
        <ele>3572.199951171875</ele>
        <time>2021-07-25T17:00:21.000Z</time>
      </trkpt>
      <trkpt lat="-11.71314918436110019683837890625" lon="-76.26981186680495738983154296875">
        <ele>3572.800048828125</ele>
        <time>2021-07-25T17:00:24.000Z</time>
      </trkpt>
      <trkpt lat="-11.71305949799716472625732421875" lon="-76.2698785029351711273193359375">
        <ele>3573.199951171875</ele>
        <time>2021-07-25T17:00:28.000Z</time>
      </trkpt>
      <trkpt lat="-11.71295204199850559234619140625" lon="-76.26995637081563472747802734375">
        <ele>3574</ele>
        <time>2021-07-25T17:00:33.000Z</time>
      </trkpt>
      <trkpt lat="-11.7129075340926647186279296875" lon="-76.26997581683099269866943359375">
        <ele>3574.39990234375</ele>
        <time>2021-07-25T17:00:35.000Z</time>
      </trkpt>
      <trkpt lat="-11.71279982663691043853759765625" lon="-76.27002761699259281158447265625">
        <ele>3575.39990234375</ele>
        <time>2021-07-25T17:00:40.000Z</time>
      </trkpt>
      <trkpt lat="-11.71277836896479129791259765625" lon="-76.270036585628986358642578125">
        <ele>3575.60009765625</ele>
        <time>2021-07-25T17:00:41.000Z</time>
      </trkpt>
      <trkpt lat="-11.71265616081655025482177734375" lon="-76.27009718678891658782958984375">
        <ele>3576</ele>
        <time>2021-07-25T17:00:47.000Z</time>
      </trkpt>
      <trkpt lat="-11.712592542171478271484375" lon="-76.27012945711612701416015625">
        <ele>3576.39990234375</ele>
        <time>2021-07-25T17:00:50.000Z</time>
      </trkpt>
      <trkpt lat="-11.71249740757048130035400390625" lon="-76.270152591168880462646484375">
        <ele>3577.60009765625</ele>
        <time>2021-07-25T17:00:54.000Z</time>
      </trkpt>
      <trkpt lat="-11.71245818026363849639892578125" lon="-76.2701427005231380462646484375">
        <ele>3577.800048828125</ele>
        <time>2021-07-25T17:00:55.000Z</time>
      </trkpt>
      <trkpt lat="-11.7123727686703205108642578125" lon="-76.2701266072690486907958984375">
        <ele>3578.60009765625</ele>
        <time>2021-07-25T17:00:58.000Z</time>
      </trkpt>
      <trkpt lat="-11.7123417556285858154296875" lon="-76.27015485428273677825927734375">
        <ele>3578.39990234375</ele>
        <time>2021-07-25T17:01:00.000Z</time>
      </trkpt>
      <trkpt lat="-11.71222566626965999603271484375" lon="-76.2702473066747188568115234375">
        <ele>3579</ele>
        <time>2021-07-25T17:01:07.000Z</time>
      </trkpt>
      <trkpt lat="-11.7121310345828533172607421875" lon="-76.27029097639024257659912109375">
        <ele>3579.60009765625</ele>
        <time>2021-07-25T17:01:12.000Z</time>
      </trkpt>
      <trkpt lat="-11.71203187666833400726318359375" lon="-76.27030606381595134735107421875">
        <ele>3580.60009765625</ele>
        <time>2021-07-25T17:01:17.000Z</time>
      </trkpt>
      <trkpt lat="-11.71200874261558055877685546875" lon="-76.27030891366302967071533203125">
        <ele>3580.800048828125</ele>
        <time>2021-07-25T17:01:18.000Z</time>
      </trkpt>
      <trkpt lat="-11.71185560524463653564453125" lon="-76.27030103467404842376708984375">
        <ele>3582</ele>
        <time>2021-07-25T17:01:25.000Z</time>
      </trkpt>
      <trkpt lat="-11.7118133604526519775390625" lon="-76.27029835246503353118896484375">
        <ele>3582.39990234375</ele>
        <time>2021-07-25T17:01:27.000Z</time>
      </trkpt>
      <trkpt lat="-11.71170598827302455902099609375" lon="-76.2702835164964199066162109375">
        <ele>3583</ele>
        <time>2021-07-25T17:01:32.000Z</time>
      </trkpt>
      <trkpt lat="-11.71166257001459598541259765625" lon="-76.270268261432647705078125">
        <ele>3583.39990234375</ele>
        <time>2021-07-25T17:01:34.000Z</time>
      </trkpt>
      <trkpt lat="-11.7115308903157711029052734375" lon="-76.2702030502259731292724609375">
        <ele>3584.199951171875</ele>
        <time>2021-07-25T17:01:40.000Z</time>
      </trkpt>
      <trkpt lat="-11.7114852927625179290771484375" lon="-76.270193494856357574462890625">
        <ele>3584.39990234375</ele>
        <time>2021-07-25T17:01:42.000Z</time>
      </trkpt>
      <trkpt lat="-11.71127147041261196136474609375" lon="-76.27013758756220340728759765625">
        <ele>3585</ele>
        <time>2021-07-25T17:01:51.000Z</time>
      </trkpt>
      <trkpt lat="-11.7111278884112834930419921875" lon="-76.2700934149324893951416015625">
        <ele>3585.39990234375</ele>
        <time>2021-07-25T17:01:57.000Z</time>
      </trkpt>
      <trkpt lat="-11.711104921996593475341796875" lon="-76.27008746378123760223388671875">
        <ele>3585.60009765625</ele>
        <time>2021-07-25T17:01:58.000Z</time>
      </trkpt>
      <trkpt lat="-11.71101205050945281982421875" lon="-76.2700642459094524383544921875">
        <ele>3586.60009765625</ele>
        <time>2021-07-25T17:02:02.000Z</time>
      </trkpt>
      <trkpt lat="-11.71092345379292964935302734375" lon="-76.270029880106449127197265625">
        <ele>3587.199951171875</ele>
        <time>2021-07-25T17:02:06.000Z</time>
      </trkpt>
      <trkpt lat="-11.71074408106505870819091796875" lon="-76.26992267556488513946533203125">
        <ele>3586.39990234375</ele>
        <time>2021-07-25T17:02:15.000Z</time>
      </trkpt>
      <trkpt lat="-11.710632182657718658447265625" lon="-76.2697883136570453643798828125">
        <ele>3587.199951171875</ele>
        <time>2021-07-25T17:02:23.000Z</time>
      </trkpt>
      <trkpt lat="-11.7105709947645664215087890625" lon="-76.26969267614185810089111328125">
        <ele>3587.800048828125</ele>
        <time>2021-07-25T17:02:28.000Z</time>
      </trkpt>
      <trkpt lat="-11.710548698902130126953125" lon="-76.26965177245438098907470703125">
        <ele>3588</ele>
        <time>2021-07-25T17:02:30.000Z</time>
      </trkpt>
      <trkpt lat="-11.7104908637702465057373046875" lon="-76.26950475387275218963623046875">
        <ele>3589</ele>
        <time>2021-07-25T17:02:37.000Z</time>
      </trkpt>
      <trkpt lat="-11.71048340387642383575439453125" lon="-76.26948346383869647979736328125">
        <ele>3589.199951171875</ele>
        <time>2021-07-25T17:02:38.000Z</time>
      </trkpt>
      <trkpt lat="-11.71045255847275257110595703125" lon="-76.26933661289513111114501953125">
        <ele>3590</ele>
        <time>2021-07-25T17:02:45.000Z</time>
      </trkpt>
      <trkpt lat="-11.71045457012951374053955078125" lon="-76.26926603727042675018310546875">
        <ele>3591.199951171875</ele>
        <time>2021-07-25T17:02:48.000Z</time>
      </trkpt>
      <trkpt lat="-11.71045524068176746368408203125" lon="-76.26915271393954753875732421875">
        <ele>3592.199951171875</ele>
        <time>2021-07-25T17:02:53.000Z</time>
      </trkpt>
      <trkpt lat="-11.71046345494687557220458984375" lon="-76.26903234981000423431396484375">
        <ele>3593.60009765625</ele>
        <time>2021-07-25T17:02:58.000Z</time>
      </trkpt>
      <trkpt lat="-11.7104834876954555511474609375" lon="-76.26890838146209716796875">
        <ele>3594.39990234375</ele>
        <time>2021-07-25T17:03:03.000Z</time>
      </trkpt>
      <trkpt lat="-11.71048625372350215911865234375" lon="-76.26888432539999485015869140625">
        <ele>3595</ele>
        <time>2021-07-25T17:03:04.000Z</time>
      </trkpt>
      <trkpt lat="-11.7104948870837688446044921875" lon="-76.26877301372587680816650390625">
        <ele>3596</ele>
        <time>2021-07-25T17:03:09.000Z</time>
      </trkpt>
      <trkpt lat="-11.71050184406340122222900390625" lon="-76.26872741617262363433837890625">
        <ele>3596.39990234375</ele>
        <time>2021-07-25T17:03:11.000Z</time>
      </trkpt>
      <trkpt lat="-11.71050687320530414581298828125" lon="-76.26866170205175876617431640625">
        <ele>3597</ele>
        <time>2021-07-25T17:03:14.000Z</time>
      </trkpt>
      <trkpt lat="-11.71049295924603939056396484375" lon="-76.2686017714440822601318359375">
        <ele>3597.800048828125</ele>
        <time>2021-07-25T17:03:18.000Z</time>
      </trkpt>
      <trkpt lat="-11.7104885168373584747314453125" lon="-76.268570758402347564697265625">
        <ele>3598.199951171875</ele>
        <time>2021-07-25T17:03:20.000Z</time>
      </trkpt>
      <trkpt lat="-11.7105069570243358612060546875" lon="-76.26846640370786190032958984375">
        <ele>3599.199951171875</ele>
        <time>2021-07-25T17:03:25.000Z</time>
      </trkpt>
      <trkpt lat="-11.71050905250012874603271484375" lon="-76.26844461075961589813232421875">
        <ele>3599.39990234375</ele>
        <time>2021-07-25T17:03:26.000Z</time>
      </trkpt>
      <trkpt lat="-11.710511483252048492431640625" lon="-76.26840119250118732452392578125">
        <ele>3600.39990234375</ele>
        <time>2021-07-25T17:03:28.000Z</time>
      </trkpt>
      <trkpt lat="-11.7105284146964550018310546875" lon="-76.26830421388149261474609375">
        <ele>3600.800048828125</ele>
        <time>2021-07-25T17:03:33.000Z</time>
      </trkpt>
      <trkpt lat="-11.71053956262767314910888671875" lon="-76.268250234425067901611328125">
        <ele>3601.39990234375</ele>
        <time>2021-07-25T17:03:36.000Z</time>
      </trkpt>
      <trkpt lat="-11.710559763014316558837890625" lon="-76.26813699491322040557861328125">
        <ele>3602</ele>
        <time>2021-07-25T17:03:42.000Z</time>
      </trkpt>
      <trkpt lat="-11.7105733416974544525146484375" lon="-76.26807748340070247650146484375">
        <ele>3602.60009765625</ele>
        <time>2021-07-25T17:03:45.000Z</time>
      </trkpt>
      <trkpt lat="-11.710585243999958038330078125" lon="-76.2679784931242465972900390625">
        <ele>3603.39990234375</ele>
        <time>2021-07-25T17:03:50.000Z</time>
      </trkpt>
      <trkpt lat="-11.71058801002800464630126953125" lon="-76.2679583765566349029541015625">
        <ele>3603.60009765625</ele>
        <time>2021-07-25T17:03:51.000Z</time>
      </trkpt>
      <trkpt lat="-11.71058155596256256103515625" lon="-76.26781965605914592742919921875">
        <ele>3604.60009765625</ele>
        <time>2021-07-25T17:03:58.000Z</time>
      </trkpt>
      <trkpt lat="-11.710581220686435699462890625" lon="-76.2677992880344390869140625">
        <ele>3604.800048828125</ele>
        <time>2021-07-25T17:03:59.000Z</time>
      </trkpt>
      <trkpt lat="-11.71053503639996051788330078125" lon="-76.26764237880706787109375">
        <ele>3605.39990234375</ele>
        <time>2021-07-25T17:04:07.000Z</time>
      </trkpt>
      <trkpt lat="-11.71048809774219989776611328125" lon="-76.26755730248987674713134765625">
        <ele>3606</ele>
        <time>2021-07-25T17:04:12.000Z</time>
      </trkpt>
      <trkpt lat="-11.710436381399631500244140625" lon="-76.26749527640640735626220703125">
        <ele>3607.199951171875</ele>
        <time>2021-07-25T17:04:16.000Z</time>
      </trkpt>
      <trkpt lat="-11.71042003668844699859619140625" lon="-76.267483122646808624267578125">
        <ele>3607.199951171875</ele>
        <time>2021-07-25T17:04:17.000Z</time>
      </trkpt>
      <trkpt lat="-11.71028391458094120025634765625" lon="-76.26739955507218837738037109375">
        <ele>3608</ele>
        <time>2021-07-25T17:04:25.000Z</time>
      </trkpt>
      <trkpt lat="-11.71026564203202724456787109375" lon="-76.2673889100551605224609375">
        <ele>3608.199951171875</ele>
        <time>2021-07-25T17:04:26.000Z</time>
      </trkpt>
      <trkpt lat="-11.71011778526008129119873046875" lon="-76.26731154508888721466064453125">
        <ele>3609.199951171875</ele>
        <time>2021-07-25T17:04:34.000Z</time>
      </trkpt>
      <trkpt lat="-11.70998937450349330902099609375" lon="-76.26724935136735439300537109375">
        <ele>3610.39990234375</ele>
        <time>2021-07-25T17:04:41.000Z</time>
      </trkpt>
      <trkpt lat="-11.7099648155272006988525390625" lon="-76.26724046654999256134033203125">
        <ele>3610.800048828125</ele>
        <time>2021-07-25T17:04:42.000Z</time>
      </trkpt>
      <trkpt lat="-11.70985140837728977203369140625" lon="-76.267176680266857147216796875">
        <ele>3609.39990234375</ele>
        <time>2021-07-25T17:04:49.000Z</time>
      </trkpt>
      <trkpt lat="-11.7098017036914825439453125" lon="-76.267151534557342529296875">
        <ele>3610.39990234375</ele>
        <time>2021-07-25T17:04:52.000Z</time>
      </trkpt>
      <trkpt lat="-11.70971796847879886627197265625" lon="-76.2671054340898990631103515625">
        <ele>3611.60009765625</ele>
        <time>2021-07-25T17:04:57.000Z</time>
      </trkpt>
      <trkpt lat="-11.70970003120601177215576171875" lon="-76.26709545962512493133544921875">
        <ele>3611.800048828125</ele>
        <time>2021-07-25T17:04:58.000Z</time>
      </trkpt>
      <trkpt lat="-11.7096300423145294189453125" lon="-76.26705790869891643524169921875">
        <ele>3612.800048828125</ele>
        <time>2021-07-25T17:05:02.000Z</time>
      </trkpt>
      <trkpt lat="-11.7095648311078548431396484375" lon="-76.26702739857137203216552734375">
        <ele>3613.199951171875</ele>
        <time>2021-07-25T17:05:06.000Z</time>
      </trkpt>
      <trkpt lat="-11.70943549834191799163818359375" lon="-76.26698129810392856597900390625">
        <ele>3613.800048828125</ele>
        <time>2021-07-25T17:05:13.000Z</time>
      </trkpt>
      <trkpt lat="-11.7093210853636264801025390625" lon="-76.2669525481760501861572265625">
        <ele>3615</ele>
        <time>2021-07-25T17:05:19.000Z</time>
      </trkpt>
      <trkpt lat="-11.70926081947982311248779296875" lon="-76.2669434957206249237060546875">
        <ele>3615.199951171875</ele>
        <time>2021-07-25T17:05:22.000Z</time>
      </trkpt>
      <trkpt lat="-11.709184460341930389404296875" lon="-76.26691960729658603668212890625">
        <ele>3615.800048828125</ele>
        <time>2021-07-25T17:05:28.000Z</time>
      </trkpt>
      <trkpt lat="-11.7090213485062122344970703125" lon="-76.26689597032964229583740234375">
        <ele>3615.39990234375</ele>
        <time>2021-07-25T17:08:55.000Z</time>
      </trkpt>
      <trkpt lat="-11.70901003293693065643310546875" lon="-76.26689647324383258819580078125">
        <ele>3615.60009765625</ele>
        <time>2021-07-25T17:08:56.000Z</time>
      </trkpt>
      <trkpt lat="-11.7089965380728244781494140625" lon="-76.266895718872547149658203125">
        <ele>3616.39990234375</ele>
        <time>2021-07-25T17:08:57.000Z</time>
      </trkpt>
      <trkpt lat="-11.70894532464444637298583984375" lon="-76.26688800752162933349609375">
        <ele>3616.60009765625</ele>
        <time>2021-07-25T17:09:00.000Z</time>
      </trkpt>
      <trkpt lat="-11.7088466696441173553466796875" lon="-76.26687233336269855499267578125">
        <ele>3615.39990234375</ele>
        <time>2021-07-25T17:09:05.000Z</time>
      </trkpt>
      <trkpt lat="-11.708745919167995452880859375" lon="-76.26686210744082927703857421875">
        <ele>3616</ele>
        <time>2021-07-25T17:09:10.000Z</time>
      </trkpt>
      <trkpt lat="-11.708622537553310394287109375" lon="-76.266868226230144500732421875">
        <ele>3617.39990234375</ele>
        <time>2021-07-25T17:09:16.000Z</time>
      </trkpt>
      <trkpt lat="-11.70860116370022296905517578125" lon="-76.26687082462012767791748046875">
        <ele>3617.60009765625</ele>
        <time>2021-07-25T17:09:17.000Z</time>
      </trkpt>
      <trkpt lat="-11.7084637843072414398193359375" lon="-76.26690208911895751953125">
        <ele>3618.199951171875</ele>
        <time>2021-07-25T17:09:24.000Z</time>
      </trkpt>
      <trkpt lat="-11.708391867578029632568359375" lon="-76.2669334374368190765380859375">
        <ele>3618.60009765625</ele>
        <time>2021-07-25T17:09:28.000Z</time>
      </trkpt>
      <trkpt lat="-11.708309389650821685791015625" lon="-76.26698196865618228912353515625">
        <ele>3619.800048828125</ele>
        <time>2021-07-25T17:09:33.000Z</time>
      </trkpt>
      <trkpt lat="-11.70822045765817165374755859375" lon="-76.2670320086181163787841796875">
        <ele>3620.800048828125</ele>
        <time>2021-07-25T17:09:38.000Z</time>
      </trkpt>
      <trkpt lat="-11.70816714875400066375732421875" lon="-76.2670692242681980133056640625">
        <ele>3621.199951171875</ele>
        <time>2021-07-25T17:09:41.000Z</time>
      </trkpt>
      <trkpt lat="-11.708098836243152618408203125" lon="-76.26711691729724407196044921875">
        <ele>3622</ele>
        <time>2021-07-25T17:09:45.000Z</time>
      </trkpt>
      <trkpt lat="-11.70801359228789806365966796875" lon="-76.26716519705951213836669921875">
        <ele>3622.60009765625</ele>
        <time>2021-07-25T17:09:50.000Z</time>
      </trkpt>
      <trkpt lat="-11.70792591758072376251220703125" lon="-76.26722554676234722137451171875">
        <ele>3623.199951171875</ele>
        <time>2021-07-25T17:09:55.000Z</time>
      </trkpt>
      <trkpt lat="-11.7078552581369876861572265625" lon="-76.2673253752291202545166015625">
        <ele>3624</ele>
        <time>2021-07-25T17:09:59.000Z</time>
      </trkpt>
      <trkpt lat="-11.70781762339174747467041015625" lon="-76.26736275851726531982421875">
        <ele>3624.199951171875</ele>
        <time>2021-07-25T17:10:02.000Z</time>
      </trkpt>
      <trkpt lat="-11.70774905942380428314208984375" lon="-76.2674125470221042633056640625">
        <ele>3625.199951171875</ele>
        <time>2021-07-25T17:10:07.000Z</time>
      </trkpt>
      <trkpt lat="-11.70773615129292011260986328125" lon="-76.2674236111342906951904296875">
        <ele>3625.39990234375</ele>
        <time>2021-07-25T17:10:08.000Z</time>
      </trkpt>
      <trkpt lat="-11.7076172120869159698486328125" lon="-76.26748873852193355560302734375">
        <ele>3626.199951171875</ele>
        <time>2021-07-25T17:10:15.000Z</time>
      </trkpt>
      <trkpt lat="-11.7075974307954311370849609375" lon="-76.2674956955015659332275390625">
        <ele>3626.39990234375</ele>
        <time>2021-07-25T17:10:16.000Z</time>
      </trkpt>
      <trkpt lat="-11.7074494063854217529296875" lon="-76.26754917204380035400390625">
        <ele>3627.199951171875</ele>
        <time>2021-07-25T17:10:23.000Z</time>
      </trkpt>
      <trkpt lat="-11.7074076645076274871826171875" lon="-76.2675605714321136474609375">
        <ele>3627.60009765625</ele>
        <time>2021-07-25T17:10:25.000Z</time>
      </trkpt>
      <trkpt lat="-11.70730263926088809967041015625" lon="-76.2675610743463039398193359375">
        <ele>3628</ele>
        <time>2021-07-25T17:10:30.000Z</time>
      </trkpt>
      <trkpt lat="-11.707217395305633544921875" lon="-76.26754690892994403839111328125">
        <ele>3628.39990234375</ele>
        <time>2021-07-25T17:10:34.000Z</time>
      </trkpt>
      <trkpt lat="-11.70717942528426647186279296875" lon="-76.26753601245582103729248046875">
        <ele>3628.800048828125</ele>
        <time>2021-07-25T17:10:36.000Z</time>
      </trkpt>
      <trkpt lat="-11.70700910501182079315185546875" lon="-76.2674886547029018402099609375">
        <ele>3630</ele>
        <time>2021-07-25T17:10:45.000Z</time>
      </trkpt>
      <trkpt lat="-11.70687348581850528717041015625" lon="-76.26745655201375484466552734375">
        <ele>3631.199951171875</ele>
        <time>2021-07-25T17:10:52.000Z</time>
      </trkpt>
      <trkpt lat="-11.7068537883460521697998046875" lon="-76.26745101995766162872314453125">
        <ele>3631.199951171875</ele>
        <time>2021-07-25T17:10:53.000Z</time>
      </trkpt>
      <trkpt lat="-11.70667751692235469818115234375" lon="-76.26742000691592693328857421875">
        <ele>3632.199951171875</ele>
        <time>2021-07-25T17:11:02.000Z</time>
      </trkpt>
      <trkpt lat="-11.7064880020916461944580078125" lon="-76.26739284954965114593505859375">
        <ele>3633.39990234375</ele>
        <time>2021-07-25T17:11:11.000Z</time>
      </trkpt>
      <trkpt lat="-11.7064430750906467437744140625" lon="-76.26738580875098705291748046875">
        <ele>3633.39990234375</ele>
        <time>2021-07-25T17:11:13.000Z</time>
      </trkpt>
      <trkpt lat="-11.70631709508597850799560546875" lon="-76.2673760019242763519287109375">
        <ele>3633.800048828125</ele>
        <time>2021-07-25T17:11:19.000Z</time>
      </trkpt>
      <trkpt lat="-11.70611827634274959564208984375" lon="-76.26737214624881744384765625">
        <ele>3634.60009765625</ele>
        <time>2021-07-25T17:11:28.000Z</time>
      </trkpt>
      <trkpt lat="-11.7058878578245639801025390625" lon="-76.2673931010067462921142578125">
        <ele>3635.199951171875</ele>
        <time>2021-07-25T17:11:38.000Z</time>
      </trkpt>
      <trkpt lat="-11.70574243180453777313232421875" lon="-76.26739896833896636962890625">
        <ele>3635.60009765625</ele>
        <time>2021-07-25T17:11:44.000Z</time>
      </trkpt>
      <trkpt lat="-11.70566950924694538116455078125" lon="-76.26740944571793079376220703125">
        <ele>3635.800048828125</ele>
        <time>2021-07-25T17:11:47.000Z</time>
      </trkpt>
      <trkpt lat="-11.705508492887020111083984375" lon="-76.2674333341419696807861328125">
        <ele>3636.60009765625</ele>
        <time>2021-07-25T17:11:54.000Z</time>
      </trkpt>
      <trkpt lat="-11.70546113513410091400146484375" lon="-76.26744179986417293548583984375">
        <ele>3636.60009765625</ele>
        <time>2021-07-25T17:11:56.000Z</time>
      </trkpt>
      <trkpt lat="-11.70528260059654712677001953125" lon="-76.267479769885540008544921875">
        <ele>3637.39990234375</ele>
        <time>2021-07-25T17:12:04.000Z</time>
      </trkpt>
      <trkpt lat="-11.7052146233618259429931640625" lon="-76.2675003893673419952392578125">
        <ele>3637.60009765625</ele>
        <time>2021-07-25T17:12:07.000Z</time>
      </trkpt>
      <trkpt lat="-11.70507456175982952117919921875" lon="-76.267538778483867645263671875">
        <ele>3638</ele>
        <time>2021-07-25T17:12:13.000Z</time>
      </trkpt>
      <trkpt lat="-11.70496140606701374053955078125" lon="-76.26757926307618618011474609375">
        <ele>3638.800048828125</ele>
        <time>2021-07-25T17:12:18.000Z</time>
      </trkpt>
      <trkpt lat="-11.70485629700124263763427734375" lon="-76.26762695610523223876953125">
        <ele>3639.199951171875</ele>
        <time>2021-07-25T17:12:23.000Z</time>
      </trkpt>
      <trkpt lat="-11.7047234438359737396240234375" lon="-76.26773499883711338043212890625">
        <ele>3640</ele>
        <time>2021-07-25T17:12:30.000Z</time>
      </trkpt>
      <trkpt lat="-11.7047043330967426300048828125" lon="-76.267750002443790435791015625">
        <ele>3640</ele>
        <time>2021-07-25T17:12:31.000Z</time>
      </trkpt>
      <trkpt lat="-11.70457349158823490142822265625" lon="-76.2678463943302631378173828125">
        <ele>3640.800048828125</ele>
        <time>2021-07-25T17:12:38.000Z</time>
      </trkpt>
      <trkpt lat="-11.70453594066202640533447265625" lon="-76.26787497662007808685302734375">
        <ele>3641.199951171875</ele>
        <time>2021-07-25T17:12:40.000Z</time>
      </trkpt>
      <trkpt lat="-11.704426221549510955810546875" lon="-76.267961226403713226318359375">
        <ele>3641.800048828125</ele>
        <time>2021-07-25T17:12:46.000Z</time>
      </trkpt>
      <trkpt lat="-11.70437014661729335784912109375" lon="-76.2680063210427761077880859375">
        <ele>3642.39990234375</ele>
        <time>2021-07-25T17:12:49.000Z</time>
      </trkpt>
      <trkpt lat="-11.70431264676153659820556640625" lon="-76.26806189306080341339111328125">
        <ele>3642.60009765625</ele>
        <time>2021-07-25T17:12:52.000Z</time>
      </trkpt>
      <trkpt lat="-11.70415037311613559722900390625" lon="-76.26820757053792476654052734375">
        <ele>3643.39990234375</ele>
        <time>2021-07-25T17:13:01.000Z</time>
      </trkpt>
      <trkpt lat="-11.70413511805236339569091796875" lon="-76.26822374761104583740234375">
        <ele>3643.39990234375</ele>
        <time>2021-07-25T17:13:02.000Z</time>
      </trkpt>
      <trkpt lat="-11.70400905422866344451904296875" lon="-76.2683419324457645416259765625">
        <ele>3644</ele>
        <time>2021-07-25T17:13:10.000Z</time>
      </trkpt>
      <trkpt lat="-11.7038745246827602386474609375" lon="-76.26846246421337127685546875">
        <ele>3644.39990234375</ele>
        <time>2021-07-25T17:13:18.000Z</time>
      </trkpt>
      <trkpt lat="-11.70371971093118190765380859375" lon="-76.2685878574848175048828125">
        <ele>3645.60009765625</ele>
        <time>2021-07-25T17:13:27.000Z</time>
      </trkpt>
      <trkpt lat="-11.70366154052317142486572265625" lon="-76.268642507493495941162109375">
        <ele>3646</ele>
        <time>2021-07-25T17:13:31.000Z</time>
      </trkpt>
      <trkpt lat="-11.70362683944404125213623046875" lon="-76.26866388134658336639404296875">
        <ele>3646.199951171875</ele>
        <time>2021-07-25T17:13:33.000Z</time>
      </trkpt>
      <trkpt lat="-11.70359381474554538726806640625" lon="-76.2686835788190364837646484375">
        <ele>3646.800048828125</ele>
        <time>2021-07-25T17:13:35.000Z</time>
      </trkpt>
      <trkpt lat="-11.7035218141973018646240234375" lon="-76.268729679286479949951171875">
        <ele>3647.199951171875</ele>
        <time>2021-07-25T17:13:39.000Z</time>
      </trkpt>
      <trkpt lat="-11.70342676341533660888671875" lon="-76.2687890231609344482421875">
        <ele>3648</ele>
        <time>2021-07-25T17:13:44.000Z</time>
      </trkpt>
      <trkpt lat="-11.70334705151617527008056640625" lon="-76.26882296986877918243408203125">
        <ele>3648.800048828125</ele>
        <time>2021-07-25T17:13:48.000Z</time>
      </trkpt>
      <trkpt lat="-11.70330530963838100433349609375" lon="-76.26883604563772678375244140625">
        <ele>3648.60009765625</ele>
        <time>2021-07-25T17:13:50.000Z</time>
      </trkpt>
      <trkpt lat="-11.70324244536459445953369140625" lon="-76.26885540783405303955078125">
        <ele>3649</ele>
        <time>2021-07-25T17:13:53.000Z</time>
      </trkpt>
      <trkpt lat="-11.7031573690474033355712890625" lon="-76.26887443475425243377685546875">
        <ele>3649.800048828125</ele>
        <time>2021-07-25T17:13:57.000Z</time>
      </trkpt>
      <trkpt lat="-11.7031164653599262237548828125" lon="-76.26889069564640522003173828125">
        <ele>3650</ele>
        <time>2021-07-25T17:13:59.000Z</time>
      </trkpt>
      <trkpt lat="-11.703003980219364166259765625" lon="-76.26892087049782276153564453125">
        <ele>3650.39990234375</ele>
        <time>2021-07-25T17:14:04.000Z</time>
      </trkpt>
      <trkpt lat="-11.70294237323105335235595703125" lon="-76.26893780194222927093505859375">
        <ele>3651.39990234375</ele>
        <time>2021-07-25T17:14:07.000Z</time>
      </trkpt>
      <trkpt lat="-11.70288319699466228485107421875" lon="-76.268954314291477203369140625">
        <ele>3652.39990234375</ele>
        <time>2021-07-25T17:14:10.000Z</time>
      </trkpt>
      <trkpt lat="-11.70284145511686801910400390625" lon="-76.26895909197628498077392578125">
        <ele>3652.800048828125</ele>
        <time>2021-07-25T17:14:12.000Z</time>
      </trkpt>
      <trkpt lat="-11.702671051025390625" lon="-76.26890762709081172943115234375">
        <ele>3653.60009765625</ele>
        <time>2021-07-25T17:14:20.000Z</time>
      </trkpt>
      <trkpt lat="-11.70264984481036663055419921875" lon="-76.268888600170612335205078125">
        <ele>3654</ele>
        <time>2021-07-25T17:14:21.000Z</time>
      </trkpt>
      <trkpt lat="-11.702589578926563262939453125" lon="-76.26884710974991321563720703125">
        <ele>3654.60009765625</ele>
        <time>2021-07-25T17:14:24.000Z</time>
      </trkpt>
      <trkpt lat="-11.702447421848773956298828125" lon="-76.26872641034424304962158203125">
        <ele>3654.199951171875</ele>
        <time>2021-07-25T17:14:32.000Z</time>
      </trkpt>
      <trkpt lat="-11.70232194475829601287841796875" lon="-76.2686252407729625701904296875">
        <ele>3655.199951171875</ele>
        <time>2021-07-25T17:14:39.000Z</time>
      </trkpt>
      <trkpt lat="-11.70218531973659992218017578125" lon="-76.26853647641837596893310546875">
        <ele>3655.800048828125</ele>
        <time>2021-07-25T17:14:46.000Z</time>
      </trkpt>
      <trkpt lat="-11.702149026095867156982421875" lon="-76.26850931905210018157958984375">
        <ele>3656</ele>
        <time>2021-07-25T17:14:48.000Z</time>
      </trkpt>
      <trkpt lat="-11.70201231725513935089111328125" lon="-76.26839431934058666229248046875">
        <ele>3656.60009765625</ele>
        <time>2021-07-25T17:14:56.000Z</time>
      </trkpt>
      <trkpt lat="-11.70199505053460597991943359375" lon="-76.26838325522840023040771484375">
        <ele>3656.800048828125</ele>
        <time>2021-07-25T17:14:57.000Z</time>
      </trkpt>
      <trkpt lat="-11.70187644660472869873046875" lon="-76.26829407177865505218505859375">
        <ele>3657.800048828125</ele>
        <time>2021-07-25T17:15:05.000Z</time>
      </trkpt>
      <trkpt lat="-11.7018409073352813720703125" lon="-76.268275044858455657958984375">
        <ele>3658</ele>
        <time>2021-07-25T17:15:07.000Z</time>
      </trkpt>
      <trkpt lat="-11.70170453377068042755126953125" lon="-76.2681640684604644775390625">
        <ele>3658.60009765625</ele>
        <time>2021-07-25T17:15:15.000Z</time>
      </trkpt>
      <trkpt lat="-11.70164954848587512969970703125" lon="-76.2681236676871776580810546875">
        <ele>3659.199951171875</ele>
        <time>2021-07-25T17:15:18.000Z</time>
      </trkpt>
      <trkpt lat="-11.7015121690928936004638671875" lon="-76.268021576106548309326171875">
        <ele>3660</ele>
        <time>2021-07-25T17:15:26.000Z</time>
      </trkpt>
      <trkpt lat="-11.701479814946651458740234375" lon="-76.26799441874027252197265625">
        <ele>3660.199951171875</ele>
        <time>2021-07-25T17:15:28.000Z</time>
      </trkpt>
      <trkpt lat="-11.7013938166201114654541015625" lon="-76.26792979426681995391845703125">
        <ele>3661.60009765625</ele>
        <time>2021-07-25T17:15:34.000Z</time>
      </trkpt>
      <trkpt lat="-11.70138468034565448760986328125" lon="-76.267922334372997283935546875">
        <ele>3661.60009765625</ele>
        <time>2021-07-25T17:15:35.000Z</time>
      </trkpt>
      <trkpt lat="-11.70132399536669254302978515625" lon="-76.26788017340004444122314453125">
        <ele>3661.60009765625</ele>
        <time>2021-07-25T17:15:52.000Z</time>
      </trkpt>
      <trkpt lat="-11.701311506330966949462890625" lon="-76.267868019640445709228515625">
        <ele>3661.60009765625</ele>
        <time>2021-07-25T17:15:53.000Z</time>
      </trkpt>
      <trkpt lat="-11.701184771955013275146484375" lon="-76.2677907384932041168212890625">
        <ele>3661.60009765625</ele>
        <time>2021-07-25T17:16:00.000Z</time>
      </trkpt>
      <trkpt lat="-11.70111344195902347564697265625" lon="-76.26773801632225513458251953125">
        <ele>3662</ele>
        <time>2021-07-25T17:16:04.000Z</time>
      </trkpt>
      <trkpt lat="-11.7010657489299774169921875" lon="-76.26770549453794956207275390625">
        <ele>3662.39990234375</ele>
        <time>2021-07-25T17:16:07.000Z</time>
      </trkpt>
      <trkpt lat="-11.70099475421011447906494140625" lon="-76.2676549516618251800537109375">
        <ele>3662.60009765625</ele>
        <time>2021-07-25T17:16:12.000Z</time>
      </trkpt>
      <trkpt lat="-11.7009425349533557891845703125" lon="-76.26761756837368011474609375">
        <ele>3663.39990234375</ele>
        <time>2021-07-25T17:16:15.000Z</time>
      </trkpt>
      <trkpt lat="-11.70082862488925457000732421875" lon="-76.2675439752638339996337890625">
        <ele>3664</ele>
        <time>2021-07-25T17:16:22.000Z</time>
      </trkpt>
      <trkpt lat="-11.7007192410528659820556640625" lon="-76.2674559652805328369140625">
        <ele>3664.60009765625</ele>
        <time>2021-07-25T17:16:29.000Z</time>
      </trkpt>
      <trkpt lat="-11.7006686143577098846435546875" lon="-76.26741833053529262542724609375">
        <ele>3665</ele>
        <time>2021-07-25T17:16:32.000Z</time>
      </trkpt>
      <trkpt lat="-11.7005851306021213531494140625" lon="-76.26735471189022064208984375">
        <ele>3665.60009765625</ele>
        <time>2021-07-25T17:16:37.000Z</time>
      </trkpt>
      <trkpt lat="-11.7005254514515399932861328125" lon="-76.26731724478304386138916015625">
        <ele>3666.199951171875</ele>
        <time>2021-07-25T17:16:40.000Z</time>
      </trkpt>
      <trkpt lat="-11.70044481754302978515625" lon="-76.2672633491456508636474609375">
        <ele>3666.800048828125</ele>
        <time>2021-07-25T17:16:44.000Z</time>
      </trkpt>
      <trkpt lat="-11.7003683745861053466796875" lon="-76.2672118842601776123046875">
        <ele>3667.39990234375</ele>
        <time>2021-07-25T17:16:48.000Z</time>
      </trkpt>
      <trkpt lat="-11.7002629302442073822021484375" lon="-76.26713904552161693572998046875">
        <ele>3668</ele>
        <time>2021-07-25T17:16:53.000Z</time>
      </trkpt>
      <trkpt lat="-11.70020752586424350738525390625" lon="-76.26709780655801296234130859375">
        <ele>3668.39990234375</ele>
        <time>2021-07-25T17:16:56.000Z</time>
      </trkpt>
      <trkpt lat="-11.70009571127593517303466796875" lon="-76.2670175917446613311767578125">
        <ele>3669.199951171875</ele>
        <time>2021-07-25T17:17:02.000Z</time>
      </trkpt>
      <trkpt lat="-11.70005698688328266143798828125" lon="-76.2669904343783855438232421875">
        <ele>3669.60009765625</ele>
        <time>2021-07-25T17:17:04.000Z</time>
      </trkpt>
      <trkpt lat="-11.699967719614505767822265625" lon="-76.26692329533398151397705078125">
        <ele>3670</ele>
        <time>2021-07-25T17:17:09.000Z</time>
      </trkpt>
      <trkpt lat="-11.69989638961851596832275390625" lon="-76.2668848223984241485595703125">
        <ele>3670.800048828125</ele>
        <time>2021-07-25T17:17:13.000Z</time>
      </trkpt>
      <trkpt lat="-11.69984023086726665496826171875" lon="-76.26686252653598785400390625">
        <ele>3671.199951171875</ele>
        <time>2021-07-25T17:17:16.000Z</time>
      </trkpt>
      <trkpt lat="-11.69974601827561855316162109375" lon="-76.26683972775936126708984375">
        <ele>3671.800048828125</ele>
        <time>2021-07-25T17:17:21.000Z</time>
      </trkpt>
      <trkpt lat="-11.69970142655074596405029296875" lon="-76.266834028065204620361328125">
        <ele>3672</ele>
        <time>2021-07-25T17:17:23.000Z</time>
      </trkpt>
      <trkpt lat="-11.699676029384136199951171875" lon="-76.2668331898748874664306640625">
        <ele>3672</ele>
        <time>2021-07-25T17:17:24.000Z</time>
      </trkpt>
      <trkpt lat="-11.69951333664357662200927734375" lon="-76.266846098005771636962890625">
        <ele>3672.60009765625</ele>
        <time>2021-07-25T17:17:31.000Z</time>
      </trkpt>
      <trkpt lat="-11.69944527558982372283935546875" lon="-76.266856826841831207275390625">
        <ele>3673</ele>
        <time>2021-07-25T17:17:34.000Z</time>
      </trkpt>
      <trkpt lat="-11.69930730946362018585205078125" lon="-76.2668811343610286712646484375">
        <ele>3673.60009765625</ele>
        <time>2021-07-25T17:17:40.000Z</time>
      </trkpt>
      <trkpt lat="-11.69917185790836811065673828125" lon="-76.2668905220925807952880859375">
        <ele>3674</ele>
        <time>2021-07-25T17:17:46.000Z</time>
      </trkpt>
      <trkpt lat="-11.69910010881721973419189453125" lon="-76.26688524149358272552490234375">
        <ele>3674.60009765625</ele>
        <time>2021-07-25T17:17:49.000Z</time>
      </trkpt>
      <trkpt lat="-11.6990351490676403045654296875" lon="-76.26687216572463512420654296875">
        <ele>3675.199951171875</ele>
        <time>2021-07-25T17:17:52.000Z</time>
      </trkpt>
      <trkpt lat="-11.69889056123793125152587890625" lon="-76.26681617461144924163818359375">
        <ele>3675.800048828125</ele>
        <time>2021-07-25T17:17:59.000Z</time>
      </trkpt>
      <trkpt lat="-11.69881931506097316741943359375" lon="-76.2667701579630374908447265625">
        <ele>3676.39990234375</ele>
        <time>2021-07-25T17:18:03.000Z</time>
      </trkpt>
      <trkpt lat="-11.698707751929759979248046875" lon="-76.26669832505285739898681640625">
        <ele>3677</ele>
        <time>2021-07-25T17:18:09.000Z</time>
      </trkpt>
      <trkpt lat="-11.69867346994578838348388671875" lon="-76.2666754424571990966796875">
        <ele>3677.39990234375</ele>
        <time>2021-07-25T17:18:11.000Z</time>
      </trkpt>
      <trkpt lat="-11.69856618158519268035888671875" lon="-76.26659673638641834259033203125">
        <ele>3678.39990234375</ele>
        <time>2021-07-25T17:18:17.000Z</time>
      </trkpt>
      <trkpt lat="-11.698438860476016998291015625" lon="-76.2665096484124660491943359375">
        <ele>3679.39990234375</ele>
        <time>2021-07-25T17:18:24.000Z</time>
      </trkpt>
      <trkpt lat="-11.698360741138458251953125" lon="-76.26646312884986400604248046875">
        <ele>3679.60009765625</ele>
        <time>2021-07-25T17:18:29.000Z</time>
      </trkpt>
      <trkpt lat="-11.6982844658195972442626953125" lon="-76.26641250215470790863037109375">
        <ele>3680.199951171875</ele>
        <time>2021-07-25T17:18:33.000Z</time>
      </trkpt>
      <trkpt lat="-11.69821548275649547576904296875" lon="-76.266362629830837249755859375">
        <ele>3680.800048828125</ele>
        <time>2021-07-25T17:18:37.000Z</time>
      </trkpt>
      <trkpt lat="-11.69812738895416259765625" lon="-76.2663064710795879364013671875">
        <ele>3681.199951171875</ele>
        <time>2021-07-25T17:18:42.000Z</time>
      </trkpt>
      <trkpt lat="-11.6980769298970699310302734375" lon="-76.26627202145755290985107421875">
        <ele>3681.800048828125</ele>
        <time>2021-07-25T17:18:45.000Z</time>
      </trkpt>
      <trkpt lat="-11.6979552246630191802978515625" lon="-76.26619339920580387115478515625">
        <ele>3682.39990234375</ele>
        <time>2021-07-25T17:18:52.000Z</time>
      </trkpt>
      <trkpt lat="-11.69792245142161846160888671875" lon="-76.26616674475371837615966796875">
        <ele>3682.800048828125</ele>
        <time>2021-07-25T17:18:54.000Z</time>
      </trkpt>
      <trkpt lat="-11.6977919451892375946044921875" lon="-76.2660835124552249908447265625">
        <ele>3684</ele>
        <time>2021-07-25T17:19:02.000Z</time>
      </trkpt>
      <trkpt lat="-11.69762673787772655487060546875" lon="-76.266025342047214508056640625">
        <ele>3684.800048828125</ele>
        <time>2021-07-25T17:19:10.000Z</time>
      </trkpt>
      <trkpt lat="-11.69758281670510768890380859375" lon="-76.26601084135472774505615234375">
        <ele>3685</ele>
        <time>2021-07-25T17:19:12.000Z</time>
      </trkpt>
      <trkpt lat="-11.69748776592314243316650390625" lon="-76.265976391732692718505859375">
        <ele>3685.60009765625</ele>
        <time>2021-07-25T17:19:17.000Z</time>
      </trkpt>
      <trkpt lat="-11.69734862633049488067626953125" lon="-76.26596054993569850921630859375">
        <ele>3686</ele>
        <time>2021-07-25T17:19:23.000Z</time>
      </trkpt>
      <trkpt lat="-11.697281487286090850830078125" lon="-76.26595803536474704742431640625">
        <ele>3686.39990234375</ele>
        <time>2021-07-25T17:19:26.000Z</time>
      </trkpt>
      <trkpt lat="-11.6972266696393489837646484375" lon="-76.265956945717334747314453125">
        <ele>3687</ele>
        <time>2021-07-25T17:19:29.000Z</time>
      </trkpt>
      <trkpt lat="-11.6971549205482006072998046875" lon="-76.2659608013927936553955078125">
        <ele>3687.60009765625</ele>
        <time>2021-07-25T17:19:33.000Z</time>
      </trkpt>
      <trkpt lat="-11.69701636768877506256103515625" lon="-76.26595485024154186248779296875">
        <ele>3687.60009765625</ele>
        <time>2021-07-25T17:19:40.000Z</time>
      </trkpt>
      <trkpt lat="-11.69698116369545459747314453125" lon="-76.26595552079379558563232421875">
        <ele>3688.199951171875</ele>
        <time>2021-07-25T17:19:42.000Z</time>
      </trkpt>
      <trkpt lat="-11.69689198024570941925048828125" lon="-76.26596641726791858673095703125">
        <ele>3688.800048828125</ele>
        <time>2021-07-25T17:19:47.000Z</time>
      </trkpt>
      <trkpt lat="-11.6968385875225067138671875" lon="-76.265973038971424102783203125">
        <ele>3689.199951171875</ele>
        <time>2021-07-25T17:19:50.000Z</time>
      </trkpt>
      <trkpt lat="-11.69674579985439777374267578125" lon="-76.26597203314304351806640625">
        <ele>3689.800048828125</ele>
        <time>2021-07-25T17:19:54.000Z</time>
      </trkpt>
      <trkpt lat="-11.6966556943953037261962890625" lon="-76.26597010530531406402587890625">
        <ele>3690.199951171875</ele>
        <time>2021-07-25T17:19:58.000Z</time>
      </trkpt>
      <trkpt lat="-11.6966320574283599853515625" lon="-76.265971362590789794921875">
        <ele>3690.39990234375</ele>
        <time>2021-07-25T17:19:59.000Z</time>
      </trkpt>
      <trkpt lat="-11.69649534858763217926025390625" lon="-76.26597178168594837188720703125">
        <ele>3691.199951171875</ele>
        <time>2021-07-25T17:20:05.000Z</time>
      </trkpt>
      <trkpt lat="-11.6964736394584178924560546875" lon="-76.26597010530531406402587890625">
        <ele>3691.39990234375</ele>
        <time>2021-07-25T17:20:06.000Z</time>
      </trkpt>
      <trkpt lat="-11.69629133306443691253662109375" lon="-76.265948228538036346435546875">
        <ele>3692.199951171875</ele>
        <time>2021-07-25T17:20:14.000Z</time>
      </trkpt>
      <trkpt lat="-11.696266271173954010009765625" lon="-76.2659450434148311614990234375">
        <ele>3692.39990234375</ele>
        <time>2021-07-25T17:20:15.000Z</time>
      </trkpt>
      <trkpt lat="-11.6960934363305568695068359375" lon="-76.26591696403920650482177734375">
        <ele>3693.199951171875</ele>
        <time>2021-07-25T17:20:23.000Z</time>
      </trkpt>
      <trkpt lat="-11.6960696317255496978759765625" lon="-76.26591562293469905853271484375">
        <ele>3693.39990234375</ele>
        <time>2021-07-25T17:20:24.000Z</time>
      </trkpt>
      <trkpt lat="-11.69590710662305355072021484375" lon="-76.2659011222422122955322265625">
        <ele>3694.199951171875</ele>
        <time>2021-07-25T17:20:31.000Z</time>
      </trkpt>
      <trkpt lat="-11.69588799588382244110107421875" lon="-76.26589751802384853363037109375">
        <ele>3694.39990234375</ele>
        <time>2021-07-25T17:20:32.000Z</time>
      </trkpt>
      <trkpt lat="-11.69572614133358001708984375" lon="-76.2658856995403766632080078125">
        <ele>3695.199951171875</ele>
        <time>2021-07-25T17:20:40.000Z</time>
      </trkpt>
      <trkpt lat="-11.69570577330887317657470703125" lon="-76.26588578335940837860107421875">
        <ele>3695.39990234375</ele>
        <time>2021-07-25T17:20:41.000Z</time>
      </trkpt>
      <trkpt lat="-11.69556252658367156982421875" lon="-76.26587723381817340850830078125">
        <ele>3696.60009765625</ele>
        <time>2021-07-25T17:20:48.000Z</time>
      </trkpt>
      <trkpt lat="-11.69542573392391204833984375" lon="-76.26588025130331516265869140625">
        <ele>3697.39990234375</ele>
        <time>2021-07-25T17:20:55.000Z</time>
      </trkpt>
      <trkpt lat="-11.6953880153596401214599609375" lon="-76.2658806703984737396240234375">
        <ele>3697.800048828125</ele>
        <time>2021-07-25T17:20:57.000Z</time>
      </trkpt>
      <trkpt lat="-11.6952347941696643829345703125" lon="-76.26588326878845691680908203125">
        <ele>3698.800048828125</ele>
        <time>2021-07-25T17:21:05.000Z</time>
      </trkpt>
      <trkpt lat="-11.69521291740238666534423828125" lon="-76.2658823467791080474853515625">
        <ele>3699</ele>
        <time>2021-07-25T17:21:06.000Z</time>
      </trkpt>
      <trkpt lat="-11.69508366845548152923583984375" lon="-76.26586331985890865325927734375">
        <ele>3699.800048828125</ele>
        <time>2021-07-25T17:21:12.000Z</time>
      </trkpt>
      <trkpt lat="-11.69502080418169498443603515625" lon="-76.2658560276031494140625">
        <ele>3700.39990234375</ele>
        <time>2021-07-25T17:21:15.000Z</time>
      </trkpt>
      <trkpt lat="-11.69493296183645725250244140625" lon="-76.2658404372632503509521484375">
        <ele>3701</ele>
        <time>2021-07-25T17:21:19.000Z</time>
      </trkpt>
      <trkpt lat="-11.69487361796200275421142578125" lon="-76.26583968289196491241455078125">
        <ele>3701.199951171875</ele>
        <time>2021-07-25T17:21:22.000Z</time>
      </trkpt>
      <trkpt lat="-11.6947625577449798583984375" lon="-76.26583524048328399658203125">
        <ele>3702</ele>
        <time>2021-07-25T17:21:28.000Z</time>
      </trkpt>
      <trkpt lat="-11.6947268508374691009521484375" lon="-76.26583633013069629669189453125">
        <ele>3702.800048828125</ele>
        <time>2021-07-25T17:21:32.000Z</time>
      </trkpt>
      <trkpt lat="-11.69467580504715442657470703125" lon="-76.26583163626492023468017578125">
        <ele>3703</ele>
        <time>2021-07-25T17:21:49.000Z</time>
      </trkpt>
      <trkpt lat="-11.69463590718805789947509765625" lon="-76.265831887722015380859375">
        <ele>3703</ele>
        <time>2021-07-25T17:21:52.000Z</time>
      </trkpt>
      <trkpt lat="-11.69451755471527576446533203125" lon="-76.2658122740685939788818359375">
        <ele>3703.800048828125</ele>
        <time>2021-07-25T17:21:59.000Z</time>
      </trkpt>
      <trkpt lat="-11.69445611536502838134765625" lon="-76.26581420190632343292236328125">
        <ele>3704.199951171875</ele>
        <time>2021-07-25T17:22:02.000Z</time>
      </trkpt>
      <trkpt lat="-11.69436802156269550323486328125" lon="-76.26581621356308460235595703125">
        <ele>3704.60009765625</ele>
        <time>2021-07-25T17:22:06.000Z</time>
      </trkpt>
      <trkpt lat="-11.69426425360143184661865234375" lon="-76.2658189795911312103271484375">
        <ele>3705.199951171875</ele>
        <time>2021-07-25T17:22:11.000Z</time>
      </trkpt>
      <trkpt lat="-11.694174818694591522216796875" lon="-76.26581068150699138641357421875">
        <ele>3705.60009765625</ele>
        <time>2021-07-25T17:22:15.000Z</time>
      </trkpt>
      <trkpt lat="-11.69410835020244121551513671875" lon="-76.2658018805086612701416015625">
        <ele>3706.60009765625</ele>
        <time>2021-07-25T17:22:18.000Z</time>
      </trkpt>
      <trkpt lat="-11.693974994122982025146484375" lon="-76.26579232513904571533203125">
        <ele>3707.39990234375</ele>
        <time>2021-07-25T17:22:24.000Z</time>
      </trkpt>
      <trkpt lat="-11.69395194388926029205322265625" lon="-76.265791319310665130615234375">
        <ele>3707.60009765625</ele>
        <time>2021-07-25T17:22:25.000Z</time>
      </trkpt>
      <trkpt lat="-11.693749018013477325439453125" lon="-76.26579844392836093902587890625">
        <ele>3708.60009765625</ele>
        <time>2021-07-25T17:22:34.000Z</time>
      </trkpt>
      <trkpt lat="-11.6937257163226604461669921875" lon="-76.265802718698978424072265625">
        <ele>3708.60009765625</ele>
        <time>2021-07-25T17:22:35.000Z</time>
      </trkpt>
      <trkpt lat="-11.69364969246089458465576171875" lon="-76.2658179737627506256103515625">
        <ele>3709.60009765625</ele>
        <time>2021-07-25T17:22:39.000Z</time>
      </trkpt>
      <trkpt lat="-11.6936358623206615447998046875" lon="-76.26581571064889430999755859375">
        <ele>3710</ele>
        <time>2021-07-25T17:22:40.000Z</time>
      </trkpt>
      <trkpt lat="-11.693621613085269927978515625" lon="-76.26581872813403606414794921875">
        <ele>3710</ele>
        <time>2021-07-25T17:22:41.000Z</time>
      </trkpt>
      <trkpt lat="-11.69355028308928012847900390625" lon="-76.26584596931934356689453125">
        <ele>3710.60009765625</ele>
        <time>2021-07-25T17:24:30.000Z</time>
      </trkpt>
      <trkpt lat="-11.69353469274938106536865234375" lon="-76.26585544086992740631103515625">
        <ele>3710.800048828125</ele>
        <time>2021-07-25T17:24:31.000Z</time>
      </trkpt>
      <trkpt lat="-11.69348205439746379852294921875" lon="-76.26588092185556888580322265625">
        <ele>3710.60009765625</ele>
        <time>2021-07-25T17:24:35.000Z</time>
      </trkpt>
      <trkpt lat="-11.6934648714959621429443359375" lon="-76.26588980667293071746826171875">
        <ele>3710.800048828125</ele>
        <time>2021-07-25T17:24:36.000Z</time>
      </trkpt>
      <trkpt lat="-11.69342203997075557708740234375" lon="-76.26591361127793788909912109375">
        <ele>3710.800048828125</ele>
        <time>2021-07-25T17:24:39.000Z</time>
      </trkpt>
      <trkpt lat="-11.69332556426525115966796875" lon="-76.2659665010869503021240234375">
        <ele>3711.39990234375</ele>
        <time>2021-07-25T17:24:44.000Z</time>
      </trkpt>
      <trkpt lat="-11.693211905658245086669921875" lon="-76.266013272106647491455078125">
        <ele>3711.60009765625</ele>
        <time>2021-07-25T17:24:50.000Z</time>
      </trkpt>
      <trkpt lat="-11.69319254346191883087158203125" lon="-76.26602475531399250030517578125">
        <ele>3711.800048828125</ele>
        <time>2021-07-25T17:24:51.000Z</time>
      </trkpt>
      <trkpt lat="-11.693066060543060302734375" lon="-76.26609943807125091552734375">
        <ele>3712.60009765625</ele>
        <time>2021-07-25T17:24:57.000Z</time>
      </trkpt>
      <trkpt lat="-11.69302037917077541351318359375" lon="-76.26613271422684192657470703125">
        <ele>3713</ele>
        <time>2021-07-25T17:24:59.000Z</time>
      </trkpt>
      <trkpt lat="-11.69292197562754154205322265625" lon="-76.266209073364734649658203125">
        <ele>3713.199951171875</ele>
        <time>2021-07-25T17:25:03.000Z</time>
      </trkpt>
      <trkpt lat="-11.6927537508308887481689453125" lon="-76.26629599370062351226806640625">
        <ele>3714</ele>
        <time>2021-07-25T17:25:10.000Z</time>
      </trkpt>
      <trkpt lat="-11.69273145496845245361328125" lon="-76.26630722545087337493896484375">
        <ele>3714</ele>
        <time>2021-07-25T17:25:11.000Z</time>
      </trkpt>
      <trkpt lat="-11.6924805007874965667724609375" lon="-76.26641459763050079345703125">
        <ele>3715</ele>
        <time>2021-07-25T17:25:22.000Z</time>
      </trkpt>
      <trkpt lat="-11.6924345679581165313720703125" lon="-76.2664285115897655487060546875">
        <ele>3715.199951171875</ele>
        <time>2021-07-25T17:25:24.000Z</time>
      </trkpt>
      <trkpt lat="-11.69232602231204509735107421875" lon="-76.26640386879444122314453125">
        <ele>3715.199951171875</ele>
        <time>2021-07-25T17:25:29.000Z</time>
      </trkpt>
      <trkpt lat="-11.6922310553491115570068359375" lon="-76.2662999331951141357421875">
        <ele>3715.800048828125</ele>
        <time>2021-07-25T17:25:34.000Z</time>
      </trkpt>
      <trkpt lat="-11.69222183525562286376953125" lon="-76.26620479859411716461181640625">
        <ele>3716.199951171875</ele>
        <time>2021-07-25T17:25:37.000Z</time>
      </trkpt>
      <trkpt lat="-11.6922414489090442657470703125" lon="-76.26613640226423740386962890625">
        <ele>3716.199951171875</ele>
        <time>2021-07-25T17:25:39.000Z</time>
      </trkpt>
      <trkpt lat="-11.69234546832740306854248046875" lon="-76.2660412676632404327392578125">
        <ele>3716.800048828125</ele>
        <time>2021-07-25T17:25:43.000Z</time>
      </trkpt>
      <trkpt lat="-11.69251687824726104736328125" lon="-76.26598603092133998870849609375">
        <ele>3717.60009765625</ele>
        <time>2021-07-25T17:25:48.000Z</time>
      </trkpt>
      <trkpt lat="-11.6925499029457569122314453125" lon="-76.26597463153302669525146484375">
        <ele>3717.800048828125</ele>
        <time>2021-07-25T17:25:49.000Z</time>
      </trkpt>
      <trkpt lat="-11.692766658961772918701171875" lon="-76.26591159962117671966552734375">
        <ele>3718.800048828125</ele>
        <time>2021-07-25T17:25:56.000Z</time>
      </trkpt>
      <trkpt lat="-11.692804209887981414794921875" lon="-76.26590120606124401092529296875">
        <ele>3719</ele>
        <time>2021-07-25T17:25:57.000Z</time>
      </trkpt>
      <trkpt lat="-11.69303580187261104583740234375" lon="-76.26583264209330081939697265625">
        <ele>3719.800048828125</ele>
        <time>2021-07-25T17:26:04.000Z</time>
      </trkpt>
      <trkpt lat="-11.693066395819187164306640625" lon="-76.26582476310431957244873046875">
        <ele>3720</ele>
        <time>2021-07-25T17:26:05.000Z</time>
      </trkpt>
      <trkpt lat="-11.69325306080281734466552734375" lon="-76.26571898348629474639892578125">
        <ele>3721.199951171875</ele>
        <time>2021-07-25T17:26:12.000Z</time>
      </trkpt>
      <trkpt lat="-11.69328457675874233245849609375" lon="-76.26565259881317615509033203125">
        <ele>3722</ele>
        <time>2021-07-25T17:26:17.000Z</time>
      </trkpt>
      <trkpt lat="-11.69327602721750736236572265625" lon="-76.26558738760650157928466796875">
        <ele>3722.39990234375</ele>
        <time>2021-07-25T17:26:36.000Z</time>
      </trkpt>
      <trkpt lat="-11.69327057898044586181640625" lon="-76.2655524350702762603759765625">
        <ele>3722.60009765625</ele>
        <time>2021-07-25T17:26:38.000Z</time>
      </trkpt>
      <trkpt lat="-11.69324350543320178985595703125" lon="-76.2654736451804637908935546875">
        <ele>3722.60009765625</ele>
        <time>2021-07-25T17:26:43.000Z</time>
      </trkpt>
      <trkpt lat="-11.693136133253574371337890625" lon="-76.2653814442455768585205078125">
        <ele>3723.39990234375</ele>
        <time>2021-07-25T17:26:49.000Z</time>
      </trkpt>
      <trkpt lat="-11.69304049573838710784912109375" lon="-76.26536509953439235687255859375">
        <ele>3723.60009765625</ele>
        <time>2021-07-25T17:26:53.000Z</time>
      </trkpt>
      <trkpt lat="-11.6929614543914794921875" lon="-76.265370547771453857421875">
        <ele>3723.60009765625</ele>
        <time>2021-07-25T17:26:56.000Z</time>
      </trkpt>
      <trkpt lat="-11.6927624680101871490478515625" lon="-76.26544925384223461151123046875">
        <ele>3724.199951171875</ele>
        <time>2021-07-25T17:27:04.000Z</time>
      </trkpt>
      <trkpt lat="-11.69273816049098968505859375" lon="-76.26546903513371944427490234375">
        <ele>3724.60009765625</ele>
        <time>2021-07-25T17:27:05.000Z</time>
      </trkpt>
      <trkpt lat="-11.69259943999350070953369140625" lon="-76.265504322946071624755859375">
        <ele>3725.800048828125</ele>
        <time>2021-07-25T17:27:11.000Z</time>
      </trkpt>
      <trkpt lat="-11.69247471727430820465087890625" lon="-76.2654780037701129913330078125">
        <ele>3726.800048828125</ele>
        <time>2021-07-25T17:27:16.000Z</time>
      </trkpt>
      <trkpt lat="-11.692444793879985809326171875" lon="-76.26547046005725860595703125">
        <ele>3727</ele>
        <time>2021-07-25T17:27:17.000Z</time>
      </trkpt>
      <trkpt lat="-11.6922729648649692535400390625" lon="-76.26541723497211933135986328125">
        <ele>3727.800048828125</ele>
        <time>2021-07-25T17:27:23.000Z</time>
      </trkpt>
      <trkpt lat="-11.692220158874988555908203125" lon="-76.26539678312838077545166015625">
        <ele>3728</ele>
        <time>2021-07-25T17:27:25.000Z</time>
      </trkpt>
      <trkpt lat="-11.69208328239619731903076171875" lon="-76.2653391994535923004150390625">
        <ele>3729</ele>
        <time>2021-07-25T17:27:30.000Z</time>
      </trkpt>
      <trkpt lat="-11.692009605467319488525390625" lon="-76.26530290581285953521728515625">
        <ele>3729.199951171875</ele>
        <time>2021-07-25T17:27:33.000Z</time>
      </trkpt>
      <trkpt lat="-11.69188798405230045318603515625" lon="-76.2652406282722949981689453125">
        <ele>3730</ele>
        <time>2021-07-25T17:27:38.000Z</time>
      </trkpt>
      <trkpt lat="-11.69183953665196895599365234375" lon="-76.26520760357379913330078125">
        <ele>3730.39990234375</ele>
        <time>2021-07-25T17:27:40.000Z</time>
      </trkpt>
      <trkpt lat="-11.69174306094646453857421875" lon="-76.26505966298282146453857421875">
        <ele>3730.800048828125</ele>
        <time>2021-07-25T17:27:46.000Z</time>
      </trkpt>
      <trkpt lat="-11.69171313755214214324951171875" lon="-76.26500777900218963623046875">
        <ele>3731</ele>
        <time>2021-07-25T17:27:48.000Z</time>
      </trkpt>
      <trkpt lat="-11.69164608232676982879638671875" lon="-76.26481960527598857879638671875">
        <ele>3731.199951171875</ele>
        <time>2021-07-25T17:27:54.000Z</time>
      </trkpt>
      <trkpt lat="-11.691611967980861663818359375" lon="-76.26459094695746898651123046875">
        <ele>3732.199951171875</ele>
        <time>2021-07-25T17:28:01.000Z</time>
      </trkpt>
      <trkpt lat="-11.69161171652376651763916015625" lon="-76.26456378959119319915771484375">
        <ele>3732.39990234375</ele>
        <time>2021-07-25T17:28:02.000Z</time>
      </trkpt>
      <trkpt lat="-11.6915759257972240447998046875" lon="-76.26437720842659473419189453125">
        <ele>3733.199951171875</ele>
        <time>2021-07-25T17:28:08.000Z</time>
      </trkpt>
      <trkpt lat="-11.6915682144463062286376953125" lon="-76.264342255890369415283203125">
        <ele>3733.199951171875</ele>
        <time>2021-07-25T17:28:09.000Z</time>
      </trkpt>
      <trkpt lat="-11.69149302877485752105712890625" lon="-76.2640641443431377410888671875">
        <ele>3733.800048828125</ele>
        <time>2021-07-25T17:28:17.000Z</time>
      </trkpt>
      <trkpt lat="-11.69143636710941791534423828125" lon="-76.26382534392178058624267578125">
        <ele>3734.39990234375</ele>
        <time>2021-07-25T17:28:24.000Z</time>
      </trkpt>
      <trkpt lat="-11.69141189195215702056884765625" lon="-76.26374018378555774688720703125">
        <ele>3734.60009765625</ele>
        <time>2021-07-25T17:28:27.000Z</time>
      </trkpt>
      <trkpt lat="-11.69135841540992259979248046875" lon="-76.26354404725134372711181640625">
        <ele>3734.60009765625</ele>
        <time>2021-07-25T17:28:33.000Z</time>
      </trkpt>
      <trkpt lat="-11.69127526693046092987060546875" lon="-76.263294853270053863525390625">
        <ele>3735.39990234375</ele>
        <time>2021-07-25T17:28:41.000Z</time>
      </trkpt>
      <trkpt lat="-11.69126302935183048248291015625" lon="-76.26326107420027256011962890625">
        <ele>3735.800048828125</ele>
        <time>2021-07-25T17:28:42.000Z</time>
      </trkpt>
      <trkpt lat="-11.69114635325968265533447265625" lon="-76.26304247416555881500244140625">
        <ele>3736</ele>
        <time>2021-07-25T17:28:50.000Z</time>
      </trkpt>
      <trkpt lat="-11.6910860873758792877197265625" lon="-76.26295044086873531341552734375">
        <ele>3736.39990234375</ele>
        <time>2021-07-25T17:28:54.000Z</time>
      </trkpt>
      <trkpt lat="-11.690997742116451263427734375" lon="-76.26284834928810596466064453125">
        <ele>3737.60009765625</ele>
        <time>2021-07-25T17:28:59.000Z</time>
      </trkpt>
      <trkpt lat="-11.69086488895118236541748046875" lon="-76.26266612671315670013427734375">
        <ele>3738.60009765625</ele>
        <time>2021-07-25T17:29:08.000Z</time>
      </trkpt>
      <trkpt lat="-11.690853573381900787353515625" lon="-76.26264869235455989837646484375">
        <ele>3738.800048828125</ele>
        <time>2021-07-25T17:29:09.000Z</time>
      </trkpt>
      <trkpt lat="-11.690774448215961456298828125" lon="-76.2625272385776042938232421875">
        <ele>3739.60009765625</ele>
        <time>2021-07-25T17:29:16.000Z</time>
      </trkpt>
      <trkpt lat="-11.690763048827648162841796875" lon="-76.262511312961578369140625">
        <ele>3739.800048828125</ele>
        <time>2021-07-25T17:29:17.000Z</time>
      </trkpt>
      <trkpt lat="-11.690691970288753509521484375" lon="-76.262408383190631866455078125">
        <ele>3740.800048828125</ele>
        <time>2021-07-25T17:29:23.000Z</time>
      </trkpt>
      <trkpt lat="-11.6906425170600414276123046875" lon="-76.262334287166595458984375">
        <ele>3741</ele>
        <time>2021-07-25T17:29:27.000Z</time>
      </trkpt>
      <trkpt lat="-11.69054771773517131805419921875" lon="-76.2622097320854663848876953125">
        <ele>3741.39990234375</ele>
        <time>2021-07-25T17:29:33.000Z</time>
      </trkpt>
      <trkpt lat="-11.6905174590647220611572265625" lon="-76.26216773875057697296142578125">
        <ele>3741.800048828125</ele>
        <time>2021-07-25T17:29:35.000Z</time>
      </trkpt>
      <trkpt lat="-11.690439842641353607177734375" lon="-76.2620327062904834747314453125">
        <ele>3742.800048828125</ele>
        <time>2021-07-25T17:29:41.000Z</time>
      </trkpt>
      <trkpt lat="-11.6904282756149768829345703125" lon="-76.262014769017696380615234375">
        <ele>3743.199951171875</ele>
        <time>2021-07-25T17:29:42.000Z</time>
      </trkpt>
      <trkpt lat="-11.6903434507548809051513671875" lon="-76.2618908844888210296630859375">
        <ele>3743.800048828125</ele>
        <time>2021-07-25T17:29:48.000Z</time>
      </trkpt>
      <trkpt lat="-11.6902894712984561920166015625" lon="-76.2618090771138668060302734375">
        <ele>3744.39990234375</ele>
        <time>2021-07-25T17:29:52.000Z</time>
      </trkpt>
      <trkpt lat="-11.69024496339261531829833984375" lon="-76.2617473863065242767333984375">
        <ele>3745</ele>
        <time>2021-07-25T17:29:55.000Z</time>
      </trkpt>
      <trkpt lat="-11.6901667602360248565673828125" lon="-76.2616394273936748504638671875">
        <ele>3745.60009765625</ele>
        <time>2021-07-25T17:30:00.000Z</time>
      </trkpt>
      <trkpt lat="-11.6901035606861114501953125" lon="-76.2615592963993549346923828125">
        <ele>3746</ele>
        <time>2021-07-25T17:30:04.000Z</time>
      </trkpt>
      <trkpt lat="-11.69006290845572948455810546875" lon="-76.2615001201629638671875">
        <ele>3746.60009765625</ele>
        <time>2021-07-25T17:30:07.000Z</time>
      </trkpt>
      <trkpt lat="-11.6900088451802730560302734375" lon="-76.26142392866313457489013671875">
        <ele>3747.199951171875</ele>
        <time>2021-07-25T17:30:11.000Z</time>
      </trkpt>
      <trkpt lat="-11.68995511718094348907470703125" lon="-76.261350922286510467529296875">
        <ele>3748</ele>
        <time>2021-07-25T17:30:15.000Z</time>
      </trkpt>
      <trkpt lat="-11.68991111218929290771484375" lon="-76.26129669137299060821533203125">
        <ele>3748.39990234375</ele>
        <time>2021-07-25T17:30:18.000Z</time>
      </trkpt>
      <trkpt lat="-11.68983944691717624664306640625" lon="-76.261198706924915313720703125">
        <ele>3749.199951171875</ele>
        <time>2021-07-25T17:30:23.000Z</time>
      </trkpt>
      <trkpt lat="-11.68981480412185192108154296875" lon="-76.2611640058457851409912109375">
        <ele>3749.39990234375</ele>
        <time>2021-07-25T17:30:25.000Z</time>
      </trkpt>
      <trkpt lat="-11.6897091083228588104248046875" lon="-76.2610454857349395751953125">
        <ele>3750.39990234375</ele>
        <time>2021-07-25T17:30:32.000Z</time>
      </trkpt>
      <trkpt lat="-11.68969276361167430877685546875" lon="-76.26102964393794536590576171875">
        <ele>3750.39990234375</ele>
        <time>2021-07-25T17:30:33.000Z</time>
      </trkpt>
      <trkpt lat="-11.6895545460283756256103515625" lon="-76.26094423234462738037109375">
        <ele>3751.199951171875</ele>
        <time>2021-07-25T17:30:40.000Z</time>
      </trkpt>
      <trkpt lat="-11.68951003812253475189208984375" lon="-76.26091950573027133941650390625">
        <ele>3751.800048828125</ele>
        <time>2021-07-25T17:30:42.000Z</time>
      </trkpt>
      <trkpt lat="-11.6893780231475830078125" lon="-76.26087022013962268829345703125">
        <ele>3752.39990234375</ele>
        <time>2021-07-25T17:30:48.000Z</time>
      </trkpt>
      <trkpt lat="-11.68928506784141063690185546875" lon="-76.260840632021427154541015625">
        <ele>3752.800048828125</ele>
        <time>2021-07-25T17:30:52.000Z</time>
      </trkpt>
      <trkpt lat="-11.68921616859734058380126953125" lon="-76.26082177273929119110107421875">
        <ele>3753.199951171875</ele>
        <time>2021-07-25T17:30:55.000Z</time>
      </trkpt>
      <trkpt lat="-11.68909630738198757171630859375" lon="-76.2608136422932147979736328125">
        <ele>3753.800048828125</ele>
        <time>2021-07-25T17:31:00.000Z</time>
      </trkpt>
      <trkpt lat="-11.6890226304531097412109375" lon="-76.26081414520740509033203125">
        <ele>3754.199951171875</ele>
        <time>2021-07-25T17:31:03.000Z</time>
      </trkpt>
      <trkpt lat="-11.6888005100190639495849609375" lon="-76.26083535142242908477783203125">
        <ele>3754.800048828125</ele>
        <time>2021-07-25T17:31:12.000Z</time>
      </trkpt>
      <trkpt lat="-11.6886043734848499298095703125" lon="-76.2608475051820278167724609375">
        <ele>3755.199951171875</ele>
        <time>2021-07-25T17:31:20.000Z</time>
      </trkpt>
      <trkpt lat="-11.68848149478435516357421875" lon="-76.2608528696000576019287109375">
        <ele>3756</ele>
        <time>2021-07-25T17:31:25.000Z</time>
      </trkpt>
      <trkpt lat="-11.68841234408318996429443359375" lon="-76.26085563562810420989990234375">
        <ele>3756.39990234375</ele>
        <time>2021-07-25T17:31:28.000Z</time>
      </trkpt>
      <trkpt lat="-11.68832190334796905517578125" lon="-76.26085043884813785552978515625">
        <ele>3757</ele>
        <time>2021-07-25T17:31:32.000Z</time>
      </trkpt>
      <trkpt lat="-11.688228361308574676513671875" lon="-76.26084121875464916229248046875">
        <ele>3757.60009765625</ele>
        <time>2021-07-25T17:31:36.000Z</time>
      </trkpt>
      <trkpt lat="-11.688131801784038543701171875" lon="-76.2608424760401248931884765625">
        <ele>3758.199951171875</ele>
        <time>2021-07-25T17:31:40.000Z</time>
      </trkpt>
      <trkpt lat="-11.68803398497402667999267578125" lon="-76.26084222458302974700927734375">
        <ele>3758.800048828125</ele>
        <time>2021-07-25T17:31:44.000Z</time>
      </trkpt>
      <trkpt lat="-11.6879358328878879547119140625" lon="-76.2608401291072368621826171875">
        <ele>3759.39990234375</ele>
        <time>2021-07-25T17:31:48.000Z</time>
      </trkpt>
      <trkpt lat="-11.68783701024949550628662109375" lon="-76.2608347646892070770263671875">
        <ele>3760.199951171875</ele>
        <time>2021-07-25T17:31:52.000Z</time>
      </trkpt>
      <trkpt lat="-11.68778940103948116302490234375" lon="-76.260829903185367584228515625">
        <ele>3760.39990234375</ele>
        <time>2021-07-25T17:31:54.000Z</time>
      </trkpt>
      <trkpt lat="-11.68767993338406085968017578125" lon="-76.26081774942576885223388671875">
        <ele>3761</ele>
        <time>2021-07-25T17:31:59.000Z</time>
      </trkpt>
      <trkpt lat="-11.68753677047789096832275390625" lon="-76.260828562080860137939453125">
        <ele>3761.39990234375</ele>
        <time>2021-07-25T17:32:05.000Z</time>
      </trkpt>
      <trkpt lat="-11.68748765252530574798583984375" lon="-76.260831914842128753662109375">
        <ele>3761.800048828125</ele>
        <time>2021-07-25T17:32:07.000Z</time>
      </trkpt>
      <trkpt lat="-11.68734499253332614898681640625" lon="-76.26083954237401485443115234375">
        <ele>3762.60009765625</ele>
        <time>2021-07-25T17:32:13.000Z</time>
      </trkpt>
      <trkpt lat="-11.6873195953667163848876953125" lon="-76.260841302573680877685546875">
        <ele>3763</ele>
        <time>2021-07-25T17:32:14.000Z</time>
      </trkpt>
      <trkpt lat="-11.68719780631363391876220703125" lon="-76.2608371116220951080322265625">
        <ele>3763.800048828125</ele>
        <time>2021-07-25T17:32:19.000Z</time>
      </trkpt>
      <trkpt lat="-11.6871740855276584625244140625" lon="-76.2608367763459682464599609375">
        <ele>3764</ele>
        <time>2021-07-25T17:32:20.000Z</time>
      </trkpt>
      <trkpt lat="-11.68702798895537853240966796875" lon="-76.26083166338503360748291015625">
        <ele>3765</ele>
        <time>2021-07-25T17:32:26.000Z</time>
      </trkpt>
      <trkpt lat="-11.686981804668903350830078125" lon="-76.260831914842128753662109375">
        <ele>3765.39990234375</ele>
        <time>2021-07-25T17:32:28.000Z</time>
      </trkpt>
      <trkpt lat="-11.686887927353382110595703125" lon="-76.260829232633113861083984375">
        <ele>3766</ele>
        <time>2021-07-25T17:32:32.000Z</time>
      </trkpt>
      <trkpt lat="-11.68675012886524200439453125" lon="-76.26081355847418308258056640625">
        <ele>3767</ele>
        <time>2021-07-25T17:32:38.000Z</time>
      </trkpt>
      <trkpt lat="-11.68672506697475910186767578125" lon="-76.26080811023712158203125">
        <ele>3767.199951171875</ele>
        <time>2021-07-25T17:32:39.000Z</time>
      </trkpt>
      <trkpt lat="-11.6865974105894565582275390625" lon="-76.26077500171959400177001953125">
        <ele>3768</ele>
        <time>2021-07-25T17:32:45.000Z</time>
      </trkpt>
      <trkpt lat="-11.68657620437443256378173828125" lon="-76.26076561398804187774658203125">
        <ele>3768.199951171875</ele>
        <time>2021-07-25T17:32:46.000Z</time>
      </trkpt>
      <trkpt lat="-11.68648299761116504669189453125" lon="-76.26071984879672527313232421875">
        <ele>3769.199951171875</ele>
        <time>2021-07-25T17:32:51.000Z</time>
      </trkpt>
      <trkpt lat="-11.68646824546158313751220703125" lon="-76.26071146689355373382568359375">
        <ele>3769.39990234375</ele>
        <time>2021-07-25T17:32:52.000Z</time>
      </trkpt>
      <trkpt lat="-11.6863431036472320556640625" lon="-76.260710544884204864501953125">
        <ele>3770</ele>
        <time>2021-07-25T17:32:58.000Z</time>
      </trkpt>
      <trkpt lat="-11.68629557825624942779541015625" lon="-76.2607090361416339874267578125">
        <ele>3770.60009765625</ele>
        <time>2021-07-25T17:33:01.000Z</time>
      </trkpt>
      <trkpt lat="-11.6862621344625949859619140625" lon="-76.26070819795131683349609375">
        <ele>3770.39990234375</ele>
        <time>2021-07-25T17:33:50.000Z</time>
      </trkpt>
      <trkpt lat="-11.68624721467494964599609375" lon="-76.26070417463779449462890625">
        <ele>3770.39990234375</ele>
        <time>2021-07-25T17:33:51.000Z</time>
      </trkpt>
      <trkpt lat="-11.686217375099658966064453125" lon="-76.26070459373295307159423828125">
        <ele>3770.60009765625</ele>
        <time>2021-07-25T17:33:53.000Z</time>
      </trkpt>
      <trkpt lat="-11.686066500842571258544921875" lon="-76.26066503114998340606689453125">
        <ele>3771.39990234375</ele>
        <time>2021-07-25T17:34:00.000Z</time>
      </trkpt>
      <trkpt lat="-11.68601696379482746124267578125" lon="-76.2606574036180973052978515625">
        <ele>3771.60009765625</ele>
        <time>2021-07-25T17:34:02.000Z</time>
      </trkpt>
      <trkpt lat="-11.68584815226495265960693359375" lon="-76.260619349777698516845703125">
        <ele>3772.60009765625</ele>
        <time>2021-07-25T17:34:09.000Z</time>
      </trkpt>
      <trkpt lat="-11.685697697103023529052734375" lon="-76.26055665314197540283203125">
        <ele>3773.60009765625</ele>
        <time>2021-07-25T17:34:17.000Z</time>
      </trkpt>
      <trkpt lat="-11.68567716144025325775146484375" lon="-76.2605457566678524017333984375">
        <ele>3774</ele>
        <time>2021-07-25T17:34:18.000Z</time>
      </trkpt>
      <trkpt lat="-11.68559183366596698760986328125" lon="-76.26049823127686977386474609375">
        <ele>3774.800048828125</ele>
        <time>2021-07-25T17:34:23.000Z</time>
      </trkpt>
      <trkpt lat="-11.68555654585361480712890625" lon="-76.26047912053763866424560546875">
        <ele>3775</ele>
        <time>2021-07-25T17:34:25.000Z</time>
      </trkpt>
      <trkpt lat="-11.68544649146497249603271484375" lon="-76.2604072876274585723876953125">
        <ele>3775.800048828125</ele>
        <time>2021-07-25T17:34:30.000Z</time>
      </trkpt>
      <trkpt lat="-11.68540659360587596893310546875" lon="-76.2603787891566753387451171875">
        <ele>3776.199951171875</ele>
        <time>2021-07-25T17:34:32.000Z</time>
      </trkpt>
      <trkpt lat="-11.6853159852325916290283203125" lon="-76.260302849113941192626953125">
        <ele>3777</ele>
        <time>2021-07-25T17:34:37.000Z</time>
      </trkpt>
      <trkpt lat="-11.68528757058084011077880859375" lon="-76.2602715007960796356201171875">
        <ele>3777.199951171875</ele>
        <time>2021-07-25T17:34:39.000Z</time>
      </trkpt>
      <trkpt lat="-11.68522604741156101226806640625" lon="-76.2601786293089389801025390625">
        <ele>3778.199951171875</ele>
        <time>2021-07-25T17:34:44.000Z</time>
      </trkpt>
      <trkpt lat="-11.68521582148969173431396484375" lon="-76.26016295515000820159912109375">
        <ele>3778.199951171875</ele>
        <time>2021-07-25T17:34:45.000Z</time>
      </trkpt>
      <trkpt lat="-11.685132086277008056640625" lon="-76.26003370620310306549072265625">
        <ele>3779.60009765625</ele>
        <time>2021-07-25T17:34:52.000Z</time>
      </trkpt>
      <trkpt lat="-11.68510920368134975433349609375" lon="-76.2599969096481800079345703125">
        <ele>3779.800048828125</ele>
        <time>2021-07-25T17:34:54.000Z</time>
      </trkpt>
      <trkpt lat="-11.68502169661223888397216796875" lon="-76.25985919497907161712646484375">
        <ele>3780.60009765625</ele>
        <time>2021-07-25T17:35:02.000Z</time>
      </trkpt>
      <trkpt lat="-11.68500895611941814422607421875" lon="-76.259839497506618499755859375">
        <ele>3780.60009765625</ele>
        <time>2021-07-25T17:35:03.000Z</time>
      </trkpt>
      <trkpt lat="-11.684948019683361053466796875" lon="-76.25973832793533802032470703125">
        <ele>3781.199951171875</ele>
        <time>2021-07-25T17:35:08.000Z</time>
      </trkpt>
      <trkpt lat="-11.68492480181157588958740234375" lon="-76.25969775952398777008056640625">
        <ele>3781.60009765625</ele>
        <time>2021-07-25T17:35:10.000Z</time>
      </trkpt>
      <trkpt lat="-11.68483813293278217315673828125" lon="-76.25957102514803409576416015625">
        <ele>3782.199951171875</ele>
        <time>2021-07-25T17:35:16.000Z</time>
      </trkpt>
      <trkpt lat="-11.68478113599121570587158203125" lon="-76.25951193273067474365234375">
        <ele>3782.800048828125</ele>
        <time>2021-07-25T17:35:19.000Z</time>
      </trkpt>
      <trkpt lat="-11.68468088842928409576416015625" lon="-76.25940321944653987884521484375">
        <ele>3783.60009765625</ele>
        <time>2021-07-25T17:35:25.000Z</time>
      </trkpt>
      <trkpt lat="-11.68463763780891895294189453125" lon="-76.2593719549477100372314453125">
        <ele>3783.800048828125</ele>
        <time>2021-07-25T17:35:27.000Z</time>
      </trkpt>
      <trkpt lat="-11.6845086403191089630126953125" lon="-76.2592857889831066131591796875">
        <ele>3784.800048828125</ele>
        <time>2021-07-25T17:35:34.000Z</time>
      </trkpt>
      <trkpt lat="-11.68449707329273223876953125" lon="-76.2592767365276813507080078125">
        <ele>3784.800048828125</ele>
        <time>2021-07-25T17:35:35.000Z</time>
      </trkpt>
      <trkpt lat="-11.68445373885333538055419921875" lon="-76.25923566520214080810546875">
        <ele>3786.39990234375</ele>
        <time>2021-07-25T17:49:17.000Z</time>
      </trkpt>
      <trkpt lat="-11.6844432614743709564208984375" lon="-76.259229965507984161376953125">
        <ele>3786.39990234375</ele>
        <time>2021-07-25T17:49:18.000Z</time>
      </trkpt>
      <trkpt lat="-11.6844191215932369232177734375" lon="-76.2592177279293537139892578125">
        <ele>3786.60009765625</ele>
        <time>2021-07-25T17:49:20.000Z</time>
      </trkpt>
      <trkpt lat="-11.68434862978756427764892578125" lon="-76.25918461941182613372802734375">
        <ele>3786.800048828125</ele>
        <time>2021-07-25T17:49:24.000Z</time>
      </trkpt>
      <trkpt lat="-11.68433102779090404510498046875" lon="-76.25917908735573291778564453125">
        <ele>3787.199951171875</ele>
        <time>2021-07-25T17:49:25.000Z</time>
      </trkpt>
      <trkpt lat="-11.68427101336419582366943359375" lon="-76.259166263043880462646484375">
        <ele>3787.199951171875</ele>
        <time>2021-07-25T17:49:28.000Z</time>
      </trkpt>
      <trkpt lat="-11.684182249009609222412109375" lon="-76.259152851998805999755859375">
        <ele>3787.60009765625</ele>
        <time>2021-07-25T17:49:32.000Z</time>
      </trkpt>
      <trkpt lat="-11.68416104279458522796630859375" lon="-76.25915058888494968414306640625">
        <ele>3787.60009765625</ele>
        <time>2021-07-25T17:49:33.000Z</time>
      </trkpt>
      <trkpt lat="-11.68400832451879978179931640625" lon="-76.25913801603019237518310546875">
        <ele>3788.800048828125</ele>
        <time>2021-07-25T17:49:40.000Z</time>
      </trkpt>
      <trkpt lat="-11.68395518325269222259521484375" lon="-76.25914715230464935302734375">
        <ele>3788.800048828125</ele>
        <time>2021-07-25T17:49:42.000Z</time>
      </trkpt>
      <trkpt lat="-11.68381637893617153167724609375" lon="-76.25914514064788818359375">
        <ele>3789.800048828125</ele>
        <time>2021-07-25T17:49:48.000Z</time>
      </trkpt>
      <trkpt lat="-11.683745719492435455322265625" lon="-76.25914120115339756011962890625">
        <ele>3789.800048828125</ele>
        <time>2021-07-25T17:49:51.000Z</time>
      </trkpt>
      <trkpt lat="-11.683563999831676483154296875" lon="-76.2591241858899593353271484375">
        <ele>3790.60009765625</ele>
        <time>2021-07-25T17:49:59.000Z</time>
      </trkpt>
      <trkpt lat="-11.6834987886250019073486328125" lon="-76.259117312729358673095703125">
        <ele>3791</ele>
        <time>2021-07-25T17:50:02.000Z</time>
      </trkpt>
      <trkpt lat="-11.68337817303836345672607421875" lon="-76.25907749868929386138916015625">
        <ele>3792</ele>
        <time>2021-07-25T17:50:08.000Z</time>
      </trkpt>
      <trkpt lat="-11.68335981667041778564453125" lon="-76.25906676985323429107666015625">
        <ele>3792</ele>
        <time>2021-07-25T17:50:09.000Z</time>
      </trkpt>
      <trkpt lat="-11.6832805238664150238037109375" lon="-76.25899736769497394561767578125">
        <ele>3793</ele>
        <time>2021-07-25T17:50:14.000Z</time>
      </trkpt>
      <trkpt lat="-11.68326518498361110687255859375" lon="-76.258981190621852874755859375">
        <ele>3793.199951171875</ele>
        <time>2021-07-25T17:50:15.000Z</time>
      </trkpt>
      <trkpt lat="-11.68320634402334690093994140625" lon="-76.2588841281831264495849609375">
        <ele>3794.39990234375</ele>
        <time>2021-07-25T17:50:20.000Z</time>
      </trkpt>
      <trkpt lat="-11.68314658105373382568359375" lon="-76.25876485370099544525146484375">
        <ele>3795.39990234375</ele>
        <time>2021-07-25T17:50:26.000Z</time>
      </trkpt>
      <trkpt lat="-11.68307407759130001068115234375" lon="-76.258605010807514190673828125">
        <ele>3796</ele>
        <time>2021-07-25T17:50:34.000Z</time>
      </trkpt>
      <trkpt lat="-11.68303585611283779144287109375" lon="-76.258528232574462890625">
        <ele>3796.60009765625</ele>
        <time>2021-07-25T17:50:38.000Z</time>
      </trkpt>
      <trkpt lat="-11.6830019094049930572509765625" lon="-76.258453465998172760009765625">
        <ele>3797.199951171875</ele>
        <time>2021-07-25T17:50:42.000Z</time>
      </trkpt>
      <trkpt lat="-11.68297517113387584686279296875" lon="-76.258400492370128631591796875">
        <ele>3797.60009765625</ele>
        <time>2021-07-25T17:50:45.000Z</time>
      </trkpt>
      <trkpt lat="-11.68290912173688411712646484375" lon="-76.2582782842218875885009765625">
        <ele>3798.199951171875</ele>
        <time>2021-07-25T17:50:52.000Z</time>
      </trkpt>
      <trkpt lat="-11.682873331010341644287109375" lon="-76.25823318958282470703125">
        <ele>3798.60009765625</ele>
        <time>2021-07-25T17:50:55.000Z</time>
      </trkpt>
      <trkpt lat="-11.68278506956994533538818359375" lon="-76.25812246464192867279052734375">
        <ele>3799</ele>
        <time>2021-07-25T17:51:02.000Z</time>
      </trkpt>
      <trkpt lat="-11.6827300004661083221435546875" lon="-76.258055157959461212158203125">
        <ele>3799.60009765625</ele>
        <time>2021-07-25T17:51:06.000Z</time>
      </trkpt>
      <trkpt lat="-11.68264391832053661346435546875" lon="-76.25796672888100147247314453125">
        <ele>3800.39990234375</ele>
        <time>2021-07-25T17:51:12.000Z</time>
      </trkpt>
      <trkpt lat="-11.6825590096414089202880859375" lon="-76.25787486322224140167236328125">
        <ele>3800.800048828125</ele>
        <time>2021-07-25T17:51:18.000Z</time>
      </trkpt>
      <trkpt lat="-11.68248767964541912078857421875" lon="-76.25780344940721988677978515625">
        <ele>3801.39990234375</ele>
        <time>2021-07-25T17:51:23.000Z</time>
      </trkpt>
      <trkpt lat="-11.68242481537163257598876953125" lon="-76.25772885046899318695068359375">
        <ele>3802</ele>
        <time>2021-07-25T17:51:28.000Z</time>
      </trkpt>
      <trkpt lat="-11.68239648453891277313232421875" lon="-76.257698424160480499267578125">
        <ele>3802.199951171875</ele>
        <time>2021-07-25T17:51:30.000Z</time>
      </trkpt>
      <trkpt lat="-11.68229338712990283966064453125" lon="-76.25757512636482715606689453125">
        <ele>3802.800048828125</ele>
        <time>2021-07-25T17:51:37.000Z</time>
      </trkpt>
      <trkpt lat="-11.6822768747806549072265625" lon="-76.2575597874820232391357421875">
        <ele>3803.39990234375</ele>
        <time>2021-07-25T17:51:38.000Z</time>
      </trkpt>
      <trkpt lat="-11.6821697540581226348876953125" lon="-76.2574548460543155670166015625">
        <ele>3804</ele>
        <time>2021-07-25T17:51:45.000Z</time>
      </trkpt>
      <trkpt lat="-11.68211300857365131378173828125" lon="-76.25739357434213161468505859375">
        <ele>3804.60009765625</ele>
        <time>2021-07-25T17:51:49.000Z</time>
      </trkpt>
      <trkpt lat="-11.68205534107983112335205078125" lon="-76.2573341466486454010009765625">
        <ele>3805.199951171875</ele>
        <time>2021-07-25T17:51:53.000Z</time>
      </trkpt>
      <trkpt lat="-11.682009994983673095703125" lon="-76.25728695653378963470458984375">
        <ele>3805.60009765625</ele>
        <time>2021-07-25T17:51:56.000Z</time>
      </trkpt>
      <trkpt lat="-11.68190471827983856201171875" lon="-76.257183440029621124267578125">
        <ele>3806.800048828125</ele>
        <time>2021-07-25T17:52:03.000Z</time>
      </trkpt>
      <trkpt lat="-11.68176465667784214019775390625" lon="-76.2571034766733646392822265625">
        <ele>3807.800048828125</ele>
        <time>2021-07-25T17:52:11.000Z</time>
      </trkpt>
      <trkpt lat="-11.6816202364861965179443359375" lon="-76.2570746429264545440673828125">
        <ele>3808.39990234375</ele>
        <time>2021-07-25T17:52:18.000Z</time>
      </trkpt>
      <trkpt lat="-11.68153398670256137847900390625" lon="-76.25706366263329982757568359375">
        <ele>3809</ele>
        <time>2021-07-25T17:52:22.000Z</time>
      </trkpt>
      <trkpt lat="-11.6814445517957210540771484375" lon="-76.2570629082620143890380859375">
        <ele>3809.60009765625</ele>
        <time>2021-07-25T17:52:26.000Z</time>
      </trkpt>
      <trkpt lat="-11.68132175691425800323486328125" lon="-76.25706248916685581207275390625">
        <ele>3810</ele>
        <time>2021-07-25T17:52:32.000Z</time>
      </trkpt>
      <trkpt lat="-11.68122955597937107086181640625" lon="-76.25706383027136325836181640625">
        <ele>3810.800048828125</ele>
        <time>2021-07-25T17:52:36.000Z</time>
      </trkpt>
      <trkpt lat="-11.6812061704695224761962890625" lon="-76.25706600956618785858154296875">
        <ele>3810.800048828125</ele>
        <time>2021-07-25T17:52:37.000Z</time>
      </trkpt>
      <trkpt lat="-11.68116183020174503326416015625" lon="-76.2570706196129322052001953125">
        <ele>3811</ele>
        <time>2021-07-25T17:52:39.000Z</time>
      </trkpt>
      <trkpt lat="-11.68102939613163471221923828125" lon="-76.2570716254413127899169921875">
        <ele>3811.60009765625</ele>
        <time>2021-07-25T17:52:45.000Z</time>
      </trkpt>
      <trkpt lat="-11.68093970976769924163818359375" lon="-76.25708109699189662933349609375">
        <ele>3812.199951171875</ele>
        <time>2021-07-25T17:52:49.000Z</time>
      </trkpt>
      <trkpt lat="-11.68085136450827121734619140625" lon="-76.257091574370861053466796875">
        <ele>3812.199951171875</ele>
        <time>2021-07-25T17:52:53.000Z</time>
      </trkpt>
      <trkpt lat="-11.68065506033599376678466796875" lon="-76.25714815221726894378662109375">
        <ele>3812.60009765625</ele>
        <time>2021-07-25T17:53:02.000Z</time>
      </trkpt>
      <trkpt lat="-11.68053134344518184661865234375" lon="-76.25721487216651439666748046875">
        <ele>3813.60009765625</ele>
        <time>2021-07-25T17:53:08.000Z</time>
      </trkpt>
      <trkpt lat="-11.68047199957072734832763671875" lon="-76.2572582066059112548828125">
        <ele>3813.800048828125</ele>
        <time>2021-07-25T17:53:11.000Z</time>
      </trkpt>
      <trkpt lat="-11.6803099773824214935302734375" lon="-76.25737379305064678192138671875">
        <ele>3814.60009765625</ele>
        <time>2021-07-25T17:53:19.000Z</time>
      </trkpt>
      <trkpt lat="-11.6801487095654010772705078125" lon="-76.2574903853237628936767578125">
        <ele>3815.60009765625</ele>
        <time>2021-07-25T17:53:27.000Z</time>
      </trkpt>
      <trkpt lat="-11.68012901209294795989990234375" lon="-76.25750362873077392578125">
        <ele>3815.800048828125</ele>
        <time>2021-07-25T17:53:28.000Z</time>
      </trkpt>
      <trkpt lat="-11.6800023615360260009765625" lon="-76.257593818008899688720703125">
        <ele>3816.800048828125</ele>
        <time>2021-07-25T17:53:34.000Z</time>
      </trkpt>
      <trkpt lat="-11.67995969764888286590576171875" lon="-76.2576271779835224151611328125">
        <ele>3817.60009765625</ele>
        <time>2021-07-25T17:53:36.000Z</time>
      </trkpt>
      <trkpt lat="-11.679939329624176025390625" lon="-76.2576422654092311859130859375">
        <ele>3817.800048828125</ele>
        <time>2021-07-25T17:53:37.000Z</time>
      </trkpt>
      <trkpt lat="-11.6798308677971363067626953125" lon="-76.2577106617391109466552734375">
        <ele>3819.199951171875</ele>
        <time>2021-07-25T17:53:42.000Z</time>
      </trkpt>
      <trkpt lat="-11.679765321314334869384765625" lon="-76.25775801949203014373779296875">
        <ele>3818.800048828125</ele>
        <time>2021-07-25T17:53:45.000Z</time>
      </trkpt>
      <trkpt lat="-11.6795901395380496978759765625" lon="-76.25788575969636440277099609375">
        <ele>3819.800048828125</ele>
        <time>2021-07-25T17:53:53.000Z</time>
      </trkpt>
      <trkpt lat="-11.6795472241938114166259765625" lon="-76.25791735947132110595703125">
        <ele>3820.39990234375</ele>
        <time>2021-07-25T17:53:55.000Z</time>
      </trkpt>
      <trkpt lat="-11.67939123697578907012939453125" lon="-76.25803076662123203277587890625">
        <ele>3820.60009765625</ele>
        <time>2021-07-25T17:54:02.000Z</time>
      </trkpt>
      <trkpt lat="-11.67929635383188724517822265625" lon="-76.25808457843959331512451171875">
        <ele>3821.60009765625</ele>
        <time>2021-07-25T17:54:06.000Z</time>
      </trkpt>
      <trkpt lat="-11.67914246208965778350830078125" lon="-76.25814559869468212127685546875">
        <ele>3821.800048828125</ele>
        <time>2021-07-25T17:54:12.000Z</time>
      </trkpt>
      <trkpt lat="-11.67893148958683013916015625" lon="-76.25817124731838703155517578125">
        <ele>3822.60009765625</ele>
        <time>2021-07-25T17:54:20.000Z</time>
      </trkpt>
      <trkpt lat="-11.6787792742252349853515625" lon="-76.25815833918750286102294921875">
        <ele>3823.39990234375</ele>
        <time>2021-07-25T17:54:26.000Z</time>
      </trkpt>
      <trkpt lat="-11.678756810724735260009765625" lon="-76.25814802944660186767578125">
        <ele>3823.800048828125</ele>
        <time>2021-07-25T17:54:27.000Z</time>
      </trkpt>
      <trkpt lat="-11.67865161783993244171142578125" lon="-76.25808759592473506927490234375">
        <ele>3824.199951171875</ele>
        <time>2021-07-25T17:54:32.000Z</time>
      </trkpt>
      <trkpt lat="-11.67855354957282543182373046875" lon="-76.25799514353275299072265625">
        <ele>3824.800048828125</ele>
        <time>2021-07-25T17:54:38.000Z</time>
      </trkpt>
      <trkpt lat="-11.6784612648189067840576171875" lon="-76.25771753489971160888671875">
        <ele>3825.800048828125</ele>
        <time>2021-07-25T17:54:48.000Z</time>
      </trkpt>
      <trkpt lat="-11.67845346964895725250244140625" lon="-76.2576945684850215911865234375">
        <ele>3826</ele>
        <time>2021-07-25T17:54:49.000Z</time>
      </trkpt>
      <trkpt lat="-11.67836009524762630462646484375" lon="-76.25749734230339527130126953125">
        <ele>3826.39990234375</ele>
        <time>2021-07-25T17:54:57.000Z</time>
      </trkpt>
      <trkpt lat="-11.67826554737985134124755859375" lon="-76.2573854438960552215576171875">
        <ele>3826.199951171875</ele>
        <time>2021-07-25T17:55:03.000Z</time>
      </trkpt>
      <trkpt lat="-11.67806790210306644439697265625" lon="-76.25725024379789829254150390625">
        <ele>3826.800048828125</ele>
        <time>2021-07-25T17:55:12.000Z</time>
      </trkpt>
      <trkpt lat="-11.67801844887435436248779296875" lon="-76.25722442753612995147705078125">
        <ele>3827</ele>
        <time>2021-07-25T17:55:14.000Z</time>
      </trkpt>
      <trkpt lat="-11.67788148857653141021728515625" lon="-76.25716424547135829925537109375">
        <ele>3828</ele>
        <time>2021-07-25T17:55:20.000Z</time>
      </trkpt>
      <trkpt lat="-11.6778369806706905364990234375" lon="-76.257145889103412628173828125">
        <ele>3828.199951171875</ele>
        <time>2021-07-25T17:55:22.000Z</time>
      </trkpt>
      <trkpt lat="-11.67770446278154850006103515625" lon="-76.2570930831134319305419921875">
        <ele>3829.199951171875</ele>
        <time>2021-07-25T17:55:28.000Z</time>
      </trkpt>
      <trkpt lat="-11.67766288854181766510009765625" lon="-76.25707422383129596710205078125">
        <ele>3830.199951171875</ele>
        <time>2021-07-25T17:55:30.000Z</time>
      </trkpt>
      <trkpt lat="-11.677638329565525054931640625" lon="-76.25706634484231472015380859375">
        <ele>3830.60009765625</ele>
        <time>2021-07-25T17:55:31.000Z</time>
      </trkpt>
      <trkpt lat="-11.677542440593242645263671875" lon="-76.257019154727458953857421875">
        <ele>3831.800048828125</ele>
        <time>2021-07-25T17:55:35.000Z</time>
      </trkpt>
      <trkpt lat="-11.677493155002593994140625" lon="-76.25700750388205051422119140625">
        <ele>3831.800048828125</ele>
        <time>2021-07-25T17:55:37.000Z</time>
      </trkpt>
      <trkpt lat="-11.677263490855693817138671875" lon="-76.25693458132445812225341796875">
        <ele>3832.800048828125</ele>
        <time>2021-07-25T17:55:47.000Z</time>
      </trkpt>
      <trkpt lat="-11.6772422008216381072998046875" lon="-76.256925947964191436767578125">
        <ele>3833</ele>
        <time>2021-07-25T17:55:48.000Z</time>
      </trkpt>
      <trkpt lat="-11.6771399416029453277587890625" lon="-76.25687263906002044677734375">
        <ele>3834</ele>
        <time>2021-07-25T17:55:53.000Z</time>
      </trkpt>
      <trkpt lat="-11.67704095132648944854736328125" lon="-76.25681656412780284881591796875">
        <ele>3834.199951171875</ele>
        <time>2021-07-25T17:55:58.000Z</time>
      </trkpt>
      <trkpt lat="-11.6769632510840892791748046875" lon="-76.2567762471735477447509765625">
        <ele>3835.199951171875</ele>
        <time>2021-07-25T17:56:02.000Z</time>
      </trkpt>
      <trkpt lat="-11.676857806742191314697265625" lon="-76.2567182444036006927490234375">
        <ele>3836.199951171875</ele>
        <time>2021-07-25T17:56:07.000Z</time>
      </trkpt>
      <trkpt lat="-11.676701568067073822021484375" lon="-76.2566278874874114990234375">
        <ele>3837.199951171875</ele>
        <time>2021-07-25T17:56:15.000Z</time>
      </trkpt>
      <trkpt lat="-11.67653753422200679779052734375" lon="-76.25659176148474216461181640625">
        <ele>3838.39990234375</ele>
        <time>2021-07-25T17:56:23.000Z</time>
      </trkpt>
      <trkpt lat="-11.67651750147342681884765625" lon="-76.25658539123833179473876953125">
        <ele>3838.39990234375</ele>
        <time>2021-07-25T17:56:24.000Z</time>
      </trkpt>
      <trkpt lat="-11.67640157975256443023681640625" lon="-76.2565688788890838623046875">
        <ele>3839.39990234375</ele>
        <time>2021-07-25T17:56:30.000Z</time>
      </trkpt>
      <trkpt lat="-11.67623813264071941375732421875" lon="-76.256547085940837860107421875">
        <ele>3840.39990234375</ele>
        <time>2021-07-25T17:56:38.000Z</time>
      </trkpt>
      <trkpt lat="-11.6762175969779491424560546875" lon="-76.25654616393148899078369140625">
        <ele>3840.60009765625</ele>
        <time>2021-07-25T17:56:39.000Z</time>
      </trkpt>
      <trkpt lat="-11.67611257173120975494384765625" lon="-76.25653761439025402069091796875">
        <ele>3841.60009765625</ele>
        <time>2021-07-25T17:56:44.000Z</time>
      </trkpt>
      <trkpt lat="-11.67602305300533771514892578125" lon="-76.2565157376229763031005859375">
        <ele>3841.39990234375</ele>
        <time>2021-07-25T17:56:48.000Z</time>
      </trkpt>
      <trkpt lat="-11.67590654455125331878662109375" lon="-76.25650492496788501739501953125">
        <ele>3841.800048828125</ele>
        <time>2021-07-25T17:56:53.000Z</time>
      </trkpt>
      <trkpt lat="-11.6757897846400737762451171875" lon="-76.2564932741224765777587890625">
        <ele>3842.60009765625</ele>
        <time>2021-07-25T17:56:59.000Z</time>
      </trkpt>
      <trkpt lat="-11.6756811551749706268310546875" lon="-76.2564788572490215301513671875">
        <ele>3843.199951171875</ele>
        <time>2021-07-25T17:57:04.000Z</time>
      </trkpt>
      <trkpt lat="-11.675615943968296051025390625" lon="-76.2564765103161334991455078125">
        <ele>3843.800048828125</ele>
        <time>2021-07-25T17:57:07.000Z</time>
      </trkpt>
      <trkpt lat="-11.67547948658466339111328125" lon="-76.2564533762633800506591796875">
        <ele>3844</ele>
        <time>2021-07-25T17:57:13.000Z</time>
      </trkpt>
      <trkpt lat="-11.67531595565378665924072265625" lon="-76.25643820501863956451416015625">
        <ele>3845</ele>
        <time>2021-07-25T17:57:20.000Z</time>
      </trkpt>
      <trkpt lat="-11.67524672113358974456787109375" lon="-76.2564325891435146331787109375">
        <ele>3845.60009765625</ele>
        <time>2021-07-25T17:57:23.000Z</time>
      </trkpt>
      <trkpt lat="-11.67512736283242702484130859375" lon="-76.25644105486571788787841796875">
        <ele>3846</ele>
        <time>2021-07-25T17:57:28.000Z</time>
      </trkpt>
      <trkpt lat="-11.6750644147396087646484375" lon="-76.25644088722765445709228515625">
        <ele>3846.39990234375</ele>
        <time>2021-07-25T17:57:31.000Z</time>
      </trkpt>
      <trkpt lat="-11.67500113137066364288330078125" lon="-76.25644155777990818023681640625">
        <ele>3847.199951171875</ele>
        <time>2021-07-25T17:57:34.000Z</time>
      </trkpt>
      <trkpt lat="-11.6748825274407863616943359375" lon="-76.25647055916488170623779296875">
        <ele>3847.199951171875</ele>
        <time>2021-07-25T17:57:39.000Z</time>
      </trkpt>
      <trkpt lat="-11.67466811835765838623046875" lon="-76.25652319751679897308349609375">
        <ele>3848.39990234375</ele>
        <time>2021-07-25T17:57:49.000Z</time>
      </trkpt>
      <trkpt lat="-11.67452059686183929443359375" lon="-76.2565750814974308013916015625">
        <ele>3849</ele>
        <time>2021-07-25T17:57:56.000Z</time>
      </trkpt>
      <trkpt lat="-11.6744791902601718902587890625" lon="-76.2565998919308185577392578125">
        <ele>3849.39990234375</ele>
        <time>2021-07-25T17:57:58.000Z</time>
      </trkpt>
      <trkpt lat="-11.6743316687643527984619140625" lon="-76.25671346671879291534423828125">
        <ele>3850.39990234375</ele>
        <time>2021-07-25T17:58:06.000Z</time>
      </trkpt>
      <trkpt lat="-11.67417987249791622161865234375" lon="-76.2568389438092708587646484375">
        <ele>3851.199951171875</ele>
        <time>2021-07-25T17:58:14.000Z</time>
      </trkpt>
      <trkpt lat="-11.67414282448589801788330078125" lon="-76.2568692862987518310546875">
        <ele>3851.39990234375</ele>
        <time>2021-07-25T17:58:16.000Z</time>
      </trkpt>
      <trkpt lat="-11.67405229993164539337158203125" lon="-76.256943047046661376953125">
        <ele>3852.60009765625</ele>
        <time>2021-07-25T17:58:21.000Z</time>
      </trkpt>
      <trkpt lat="-11.67403285391628742218017578125" lon="-76.256957463920116424560546875">
        <ele>3853</ele>
        <time>2021-07-25T17:58:22.000Z</time>
      </trkpt>
      <trkpt lat="-11.6739581711590290069580078125" lon="-76.25701907090842723846435546875">
        <ele>3853.60009765625</ele>
        <time>2021-07-25T17:58:26.000Z</time>
      </trkpt>
      <trkpt lat="-11.6738780401647090911865234375" lon="-76.2570756487548351287841796875">
        <ele>3854</ele>
        <time>2021-07-25T17:58:30.000Z</time>
      </trkpt>
      <trkpt lat="-11.67369422502815723419189453125" lon="-76.25714831985533237457275390625">
        <ele>3854.199951171875</ele>
        <time>2021-07-25T17:58:38.000Z</time>
      </trkpt>
      <trkpt lat="-11.67364628054201602935791015625" lon="-76.2571524269878864288330078125">
        <ele>3854.800048828125</ele>
        <time>2021-07-25T17:58:40.000Z</time>
      </trkpt>
      <trkpt lat="-11.67352608405053615570068359375" lon="-76.25714580528438091278076171875">
        <ele>3855.199951171875</ele>
        <time>2021-07-25T17:58:45.000Z</time>
      </trkpt>
      <trkpt lat="-11.67341359890997409820556640625" lon="-76.2571178935468196868896484375">
        <ele>3855.800048828125</ele>
        <time>2021-07-25T17:58:50.000Z</time>
      </trkpt>
      <trkpt lat="-11.67332994751632213592529296875" lon="-76.25707380473613739013671875">
        <ele>3856</ele>
        <time>2021-07-25T17:58:54.000Z</time>
      </trkpt>
      <trkpt lat="-11.67327613569796085357666015625" lon="-76.25702510587871074676513671875">
        <ele>3857.199951171875</ele>
        <time>2021-07-25T17:58:57.000Z</time>
      </trkpt>
      <trkpt lat="-11.6732027940452098846435546875" lon="-76.25691027380526065826416015625">
        <ele>3858.199951171875</ele>
        <time>2021-07-25T17:59:02.000Z</time>
      </trkpt>
      <trkpt lat="-11.67318896390497684478759765625" lon="-76.25688881613314151763916015625">
        <ele>3858.39990234375</ele>
        <time>2021-07-25T17:59:03.000Z</time>
      </trkpt>
      <trkpt lat="-11.6731555201113224029541015625" lon="-76.2568238563835620880126953125">
        <ele>3859.199951171875</ele>
        <time>2021-07-25T17:59:06.000Z</time>
      </trkpt>
      <trkpt lat="-11.67310916818678379058837890625" lon="-76.25671380199491977691650390625">
        <ele>3859.39990234375</ele>
        <time>2021-07-25T17:59:11.000Z</time>
      </trkpt>
      <trkpt lat="-11.6730643250048160552978515625" lon="-76.2566292285919189453125">
        <ele>3860.60009765625</ele>
        <time>2021-07-25T17:59:15.000Z</time>
      </trkpt>
      <trkpt lat="-11.67300489731132984161376953125" lon="-76.25652202405035495758056640625">
        <ele>3860.800048828125</ele>
        <time>2021-07-25T17:59:20.000Z</time>
      </trkpt>
      <trkpt lat="-11.6728665120899677276611328125" lon="-76.2563836388289928436279296875">
        <ele>3861.39990234375</ele>
        <time>2021-07-25T17:59:28.000Z</time>
      </trkpt>
      <trkpt lat="-11.67282921262085437774658203125" lon="-76.256353296339511871337890625">
        <ele>3861.60009765625</ele>
        <time>2021-07-25T17:59:30.000Z</time>
      </trkpt>
      <trkpt lat="-11.67269191704690456390380859375" lon="-76.2563025020062923431396484375">
        <ele>3862</ele>
        <time>2021-07-25T17:59:36.000Z</time>
      </trkpt>
      <trkpt lat="-11.67259016074240207672119140625" lon="-76.25627316534519195556640625">
        <ele>3862.60009765625</ele>
        <time>2021-07-25T17:59:40.000Z</time>
      </trkpt>
      <trkpt lat="-11.672520674765110015869140625" lon="-76.2562686391174793243408203125">
        <ele>3863</ele>
        <time>2021-07-25T17:59:43.000Z</time>
      </trkpt>
      <trkpt lat="-11.67235144414007663726806640625" lon="-76.2562837265431880950927734375">
        <ele>3863</ele>
        <time>2021-07-25T17:59:50.000Z</time>
      </trkpt>
      <trkpt lat="-11.67216905392706394195556640625" lon="-76.25631080009043216705322265625">
        <ele>3863.60009765625</ele>
        <time>2021-07-25T17:59:58.000Z</time>
      </trkpt>
      <trkpt lat="-11.6719817183911800384521484375" lon="-76.2563350237905979156494140625">
        <ele>3864.800048828125</ele>
        <time>2021-07-25T18:00:06.000Z</time>
      </trkpt>
      <trkpt lat="-11.67196042835712432861328125" lon="-76.25633812509477138519287109375">
        <ele>3865.199951171875</ele>
        <time>2021-07-25T18:00:07.000Z</time>
      </trkpt>
      <trkpt lat="-11.671911813318729400634765625" lon="-76.25634826719760894775390625">
        <ele>3865.800048828125</ele>
        <time>2021-07-25T18:00:09.000Z</time>
      </trkpt>
      <trkpt lat="-11.6717252321541309356689453125" lon="-76.25636846758425235748291015625">
        <ele>3866.60009765625</ele>
        <time>2021-07-25T18:00:17.000Z</time>
      </trkpt>
      <trkpt lat="-11.67168206535279750823974609375" lon="-76.2563703954219818115234375">
        <ele>3867</ele>
        <time>2021-07-25T18:00:19.000Z</time>
      </trkpt>
      <trkpt lat="-11.67160981334745883941650390625" lon="-76.25637550838291645050048828125">
        <ele>3868.199951171875</ele>
        <time>2021-07-25T18:00:22.000Z</time>
      </trkpt>
      <trkpt lat="-11.67156555689871311187744140625" lon="-76.2563752569258213043212890625">
        <ele>3868.39990234375</ele>
        <time>2021-07-25T18:00:24.000Z</time>
      </trkpt>
      <trkpt lat="-11.67143094353377819061279296875" lon="-76.2563725747168064117431640625">
        <ele>3869.199951171875</ele>
        <time>2021-07-25T18:00:30.000Z</time>
      </trkpt>
      <trkpt lat="-11.67138584889471530914306640625" lon="-76.2563725747168064117431640625">
        <ele>3869.60009765625</ele>
        <time>2021-07-25T18:00:32.000Z</time>
      </trkpt>
      <trkpt lat="-11.67134494520723819732666015625" lon="-76.25637014396488666534423828125">
        <ele>3870.60009765625</ele>
        <time>2021-07-25T18:00:34.000Z</time>
      </trkpt>
      <trkpt lat="-11.671254001557826995849609375" lon="-76.25635690055787563323974609375">
        <ele>3871</ele>
        <time>2021-07-25T18:00:38.000Z</time>
      </trkpt>
      <trkpt lat="-11.6710486449301242828369140625" lon="-76.25632236711680889129638671875">
        <ele>3871.60009765625</ele>
        <time>2021-07-25T18:00:48.000Z</time>
      </trkpt>
      <trkpt lat="-11.671030037105083465576171875" lon="-76.25631934963166713714599609375">
        <ele>3871.800048828125</ele>
        <time>2021-07-25T18:00:49.000Z</time>
      </trkpt>
      <trkpt lat="-11.6709048114717006683349609375" lon="-76.25628615729510784149169921875">
        <ele>3872.39990234375</ele>
        <time>2021-07-25T18:00:55.000Z</time>
      </trkpt>
      <trkpt lat="-11.67082174681127071380615234375" lon="-76.25626620836555957794189453125">
        <ele>3873</ele>
        <time>2021-07-25T18:00:59.000Z</time>
      </trkpt>
      <trkpt lat="-11.67073993943631649017333984375" lon="-76.25624106265604496002197265625">
        <ele>3873.60009765625</ele>
        <time>2021-07-25T18:01:03.000Z</time>
      </trkpt>
      <trkpt lat="-11.6706610657274723052978515625" lon="-76.25621625222265720367431640625">
        <ele>3874</ele>
        <time>2021-07-25T18:01:07.000Z</time>
      </trkpt>
      <trkpt lat="-11.67054363526403903961181640625" lon="-76.25616646371781826019287109375">
        <ele>3875</ele>
        <time>2021-07-25T18:01:13.000Z</time>
      </trkpt>
      <trkpt lat="-11.67050356976687908172607421875" lon="-76.25615037046372890472412109375">
        <ele>3875.199951171875</ele>
        <time>2021-07-25T18:01:15.000Z</time>
      </trkpt>
      <trkpt lat="-11.670378930866718292236328125" lon="-76.2560922838747501373291015625">
        <ele>3876</ele>
        <time>2021-07-25T18:01:22.000Z</time>
      </trkpt>
      <trkpt lat="-11.67035906575620174407958984375" lon="-76.25608482398092746734619140625">
        <ele>3876.199951171875</ele>
        <time>2021-07-25T18:01:23.000Z</time>
      </trkpt>
      <trkpt lat="-11.67025982402265071868896484375" lon="-76.2560453452169895172119140625">
        <ele>3877.39990234375</ele>
        <time>2021-07-25T18:01:28.000Z</time>
      </trkpt>
      <trkpt lat="-11.6702010668814182281494140625" lon="-76.25601441599428653717041015625">
        <ele>3878.199951171875</ele>
        <time>2021-07-25T18:01:31.000Z</time>
      </trkpt>
      <trkpt lat="-11.670161001384258270263671875" lon="-76.2559943832457065582275390625">
        <ele>3878.39990234375</ele>
        <time>2021-07-25T18:01:33.000Z</time>
      </trkpt>
      <trkpt lat="-11.6700401343405246734619140625" lon="-76.25594333745539188385009765625">
        <ele>3879</ele>
        <time>2021-07-25T18:01:39.000Z</time>
      </trkpt>
      <trkpt lat="-11.6699190996587276458740234375" lon="-76.25588893890380859375">
        <ele>3879.800048828125</ele>
        <time>2021-07-25T18:01:45.000Z</time>
      </trkpt>
      <trkpt lat="-11.66987341828644275665283203125" lon="-76.255865804851055145263671875">
        <ele>3879.800048828125</ele>
        <time>2021-07-25T18:01:47.000Z</time>
      </trkpt>
      <trkpt lat="-11.669757664203643798828125" lon="-76.25581610016524791717529296875">
        <ele>3880.39990234375</ele>
        <time>2021-07-25T18:01:54.000Z</time>
      </trkpt>
      <trkpt lat="-11.66969153098762035369873046875" lon="-76.25579665414988994598388671875">
        <ele>3881.39990234375</ele>
        <time>2021-07-25T18:01:58.000Z</time>
      </trkpt>
      <trkpt lat="-11.66966906748712062835693359375" lon="-76.25578961335122585296630859375">
        <ele>3881.199951171875</ele>
        <time>2021-07-25T18:01:59.000Z</time>
      </trkpt>
      <trkpt lat="-11.66951400227844715118408203125" lon="-76.25572155229747295379638671875">
        <ele>3881.800048828125</ele>
        <time>2021-07-25T18:02:06.000Z</time>
      </trkpt>
      <trkpt lat="-11.669471003115177154541015625" lon="-76.255692802369594573974609375">
        <ele>3882.39990234375</ele>
        <time>2021-07-25T18:02:08.000Z</time>
      </trkpt>
      <trkpt lat="-11.66931719519197940826416015625" lon="-76.2556487135589122772216796875">
        <ele>3883.60009765625</ele>
        <time>2021-07-25T18:02:15.000Z</time>
      </trkpt>
      <trkpt lat="-11.66923538781702518463134765625" lon="-76.255593560636043548583984375">
        <ele>3884.800048828125</ele>
        <time>2021-07-25T18:02:19.000Z</time>
      </trkpt>
      <trkpt lat="-11.6692143492400646209716796875" lon="-76.25558341853320598602294921875">
        <ele>3885.199951171875</ele>
        <time>2021-07-25T18:02:20.000Z</time>
      </trkpt>
      <trkpt lat="-11.66910161264240741729736328125" lon="-76.25551233999431133270263671875">
        <ele>3886</ele>
        <time>2021-07-25T18:02:26.000Z</time>
      </trkpt>
      <trkpt lat="-11.669063307344913482666015625" lon="-76.2554864399135112762451171875">
        <ele>3886.39990234375</ele>
        <time>2021-07-25T18:02:28.000Z</time>
      </trkpt>
      <trkpt lat="-11.66891184635460376739501953125" lon="-76.25535308383405208587646484375">
        <ele>3887.199951171875</ele>
        <time>2021-07-25T18:02:37.000Z</time>
      </trkpt>
      <trkpt lat="-11.66889240033924579620361328125" lon="-76.2553365714848041534423828125">
        <ele>3887.39990234375</ele>
        <time>2021-07-25T18:02:38.000Z</time>
      </trkpt>
      <trkpt lat="-11.6687684319913387298583984375" lon="-76.25520757399499416351318359375">
        <ele>3888</ele>
        <time>2021-07-25T18:02:46.000Z</time>
      </trkpt>
      <trkpt lat="-11.6686859540641307830810546875" lon="-76.25513012520968914031982421875">
        <ele>3888.199951171875</ele>
        <time>2021-07-25T18:02:51.000Z</time>
      </trkpt>
      <trkpt lat="-11.668614037334918975830078125" lon="-76.25504747964441776275634765625">
        <ele>3889</ele>
        <time>2021-07-25T18:02:56.000Z</time>
      </trkpt>
      <trkpt lat="-11.66856609284877777099609375" lon="-76.2549984455108642578125">
        <ele>3889.199951171875</ele>
        <time>2021-07-25T18:02:59.000Z</time>
      </trkpt>
      <trkpt lat="-11.6684849560260772705078125" lon="-76.254914291203022003173828125">
        <ele>3890.199951171875</ele>
        <time>2021-07-25T18:03:04.000Z</time>
      </trkpt>
      <trkpt lat="-11.6684152185916900634765625" lon="-76.25484899617731571197509765625">
        <ele>3890.39990234375</ele>
        <time>2021-07-25T18:03:08.000Z</time>
      </trkpt>
      <trkpt lat="-11.6683661006391048431396484375" lon="-76.25480289570987224578857421875">
        <ele>3891</ele>
        <time>2021-07-25T18:03:11.000Z</time>
      </trkpt>
      <trkpt lat="-11.66830834932625293731689453125" lon="-76.2547377683222293853759765625">
        <ele>3891.60009765625</ele>
        <time>2021-07-25T18:03:15.000Z</time>
      </trkpt>
      <trkpt lat="-11.6682353429496288299560546875" lon="-76.25467465259134769439697265625">
        <ele>3892.199951171875</ele>
        <time>2021-07-25T18:03:20.000Z</time>
      </trkpt>
      <trkpt lat="-11.66813551448285579681396484375" lon="-76.25456384383141994476318359375">
        <ele>3892.39990234375</ele>
        <time>2021-07-25T18:03:27.000Z</time>
      </trkpt>
      <trkpt lat="-11.6681079380214214324951171875" lon="-76.25452981330454349517822265625">
        <ele>3892.60009765625</ele>
        <time>2021-07-25T18:03:29.000Z</time>
      </trkpt>
      <trkpt lat="-11.66802252642810344696044921875" lon="-76.25444347970187664031982421875">
        <ele>3893.800048828125</ele>
        <time>2021-07-25T18:03:35.000Z</time>
      </trkpt>
      <trkpt lat="-11.66794172488152980804443359375" lon="-76.25435161404311656951904296875">
        <ele>3894.800048828125</ele>
        <time>2021-07-25T18:03:41.000Z</time>
      </trkpt>
      <trkpt lat="-11.6679037548601627349853515625" lon="-76.25432093627750873565673828125">
        <ele>3895</ele>
        <time>2021-07-25T18:03:43.000Z</time>
      </trkpt>
      <trkpt lat="-11.66782873682677745819091796875" lon="-76.25424449332058429718017578125">
        <ele>3896</ele>
        <time>2021-07-25T18:03:48.000Z</time>
      </trkpt>
      <trkpt lat="-11.66779839433729648590087890625" lon="-76.25421431846916675567626953125">
        <ele>3896.199951171875</ele>
        <time>2021-07-25T18:03:50.000Z</time>
      </trkpt>
      <trkpt lat="-11.66772195138037204742431640625" lon="-76.25413544476032257080078125">
        <ele>3897.199951171875</ele>
        <time>2021-07-25T18:03:55.000Z</time>
      </trkpt>
      <trkpt lat="-11.66767350398004055023193359375" lon="-76.25407216139137744903564453125">
        <ele>3897.39990234375</ele>
        <time>2021-07-25T18:03:59.000Z</time>
      </trkpt>
      <trkpt lat="-11.66755758225917816162109375" lon="-76.25394609756767749786376953125">
        <ele>3897.800048828125</ele>
        <time>2021-07-25T18:04:07.000Z</time>
      </trkpt>
      <trkpt lat="-11.66752464137971401214599609375" lon="-76.2538935430347919464111328125">
        <ele>3898.199951171875</ele>
        <time>2021-07-25T18:04:10.000Z</time>
      </trkpt>
      <trkpt lat="-11.66746596805751323699951171875" lon="-76.25381114892661571502685546875">
        <ele>3899</ele>
        <time>2021-07-25T18:04:15.000Z</time>
      </trkpt>
      <trkpt lat="-11.66743529029190540313720703125" lon="-76.25376236625015735626220703125">
        <ele>3899.199951171875</ele>
        <time>2021-07-25T18:04:18.000Z</time>
      </trkpt>
      <trkpt lat="-11.66740410961210727691650390625" lon="-76.253699250519275665283203125">
        <ele>3900.199951171875</ele>
        <time>2021-07-25T18:04:22.000Z</time>
      </trkpt>
      <trkpt lat="-11.6673904471099376678466796875" lon="-76.25368156470358371734619140625">
        <ele>3900.39990234375</ele>
        <time>2021-07-25T18:04:23.000Z</time>
      </trkpt>
      <trkpt lat="-11.6673311032354831695556640625" lon="-76.2535746954381465911865234375">
        <ele>3901.39990234375</ele>
        <time>2021-07-25T18:04:29.000Z</time>
      </trkpt>
      <trkpt lat="-11.66732288897037506103515625" lon="-76.25355516560375690460205078125">
        <ele>3901.39990234375</ele>
        <time>2021-07-25T18:04:30.000Z</time>
      </trkpt>
      <trkpt lat="-11.667247116565704345703125" lon="-76.2534197978675365447998046875">
        <ele>3902</ele>
        <time>2021-07-25T18:04:37.000Z</time>
      </trkpt>
      <trkpt lat="-11.66721199639141559600830078125" lon="-76.25333991833031177520751953125">
        <ele>3902.39990234375</ele>
        <time>2021-07-25T18:04:41.000Z</time>
      </trkpt>
      <trkpt lat="-11.6671859286725521087646484375" lon="-76.25326364301145076751708984375">
        <ele>3903</ele>
        <time>2021-07-25T18:04:45.000Z</time>
      </trkpt>
      <trkpt lat="-11.66717000305652618408203125" lon="-76.253225505352020263671875">
        <ele>3903.60009765625</ele>
        <time>2021-07-25T18:04:47.000Z</time>
      </trkpt>
      <trkpt lat="-11.6671478748321533203125" lon="-76.25312064774334430694580078125">
        <ele>3904</ele>
        <time>2021-07-25T18:04:52.000Z</time>
      </trkpt>
      <trkpt lat="-11.667128093540668487548828125" lon="-76.2530176341533660888671875">
        <ele>3904.60009765625</ele>
        <time>2021-07-25T18:04:57.000Z</time>
      </trkpt>
      <trkpt lat="-11.66711661033332347869873046875" lon="-76.2529316358268260955810546875">
        <ele>3905.199951171875</ele>
        <time>2021-07-25T18:05:01.000Z</time>
      </trkpt>
      <trkpt lat="-11.667116694152355194091796875" lon="-76.25279542990028858184814453125">
        <ele>3905.800048828125</ele>
        <time>2021-07-25T18:05:08.000Z</time>
      </trkpt>
      <trkpt lat="-11.66711510159075260162353515625" lon="-76.25277531333267688751220703125">
        <ele>3905.800048828125</ele>
        <time>2021-07-25T18:05:09.000Z</time>
      </trkpt>
      <trkpt lat="-11.66712029837071895599365234375" lon="-76.25257984735071659088134765625">
        <ele>3906.800048828125</ele>
        <time>2021-07-25T18:05:19.000Z</time>
      </trkpt>
      <trkpt lat="-11.667124740779399871826171875" lon="-76.2524404563009738922119140625">
        <ele>3907.800048828125</ele>
        <time>2021-07-25T18:05:27.000Z</time>
      </trkpt>
      <trkpt lat="-11.66712708771228790283203125" lon="-76.252431571483612060546875">
        <ele>3907.800048828125</ele>
        <time>2021-07-25T18:05:28.000Z</time>
      </trkpt>
      <trkpt lat="-11.66712976992130279541015625" lon="-76.2524122931063175201416015625">
        <ele>3908</ele>
        <time>2021-07-25T18:09:44.000Z</time>
      </trkpt>
      <trkpt lat="-11.6671275906264781951904296875" lon="-76.25239242799580097198486328125">
        <ele>3908.199951171875</ele>
        <time>2021-07-25T18:09:45.000Z</time>
      </trkpt>
      <trkpt lat="-11.66712398640811443328857421875" lon="-76.2523392029106616973876953125">
        <ele>3908.199951171875</ele>
        <time>2021-07-25T18:09:48.000Z</time>
      </trkpt>
      <trkpt lat="-11.66710470803081989288330078125" lon="-76.2522827088832855224609375">
        <ele>3909</ele>
        <time>2021-07-25T18:09:51.000Z</time>
      </trkpt>
      <trkpt lat="-11.66708492673933506011962890625" lon="-76.25224406830966472625732421875">
        <ele>3909.60009765625</ele>
        <time>2021-07-25T18:10:00.000Z</time>
      </trkpt>
      <trkpt lat="-11.66707453317940235137939453125" lon="-76.25222998671233654022216796875">
        <ele>3909.60009765625</ele>
        <time>2021-07-25T18:10:01.000Z</time>
      </trkpt>
      <trkpt lat="-11.66702306829392910003662109375" lon="-76.2521514482796192169189453125">
        <ele>3909.60009765625</ele>
        <time>2021-07-25T18:10:06.000Z</time>
      </trkpt>
      <trkpt lat="-11.6670085676014423370361328125" lon="-76.25213460065424442291259765625">
        <ele>3909.60009765625</ele>
        <time>2021-07-25T18:10:07.000Z</time>
      </trkpt>
      <trkpt lat="-11.66695618070662021636962890625" lon="-76.25208598561584949493408203125">
        <ele>3910.199951171875</ele>
        <time>2021-07-25T18:10:10.000Z</time>
      </trkpt>
      <trkpt lat="-11.66686213575303554534912109375" lon="-76.25198842026293277740478515625">
        <ele>3910.60009765625</ele>
        <time>2021-07-25T18:10:16.000Z</time>
      </trkpt>
      <trkpt lat="-11.6667866148054599761962890625" lon="-76.25192672945559024810791015625">
        <ele>3911.199951171875</ele>
        <time>2021-07-25T18:10:20.000Z</time>
      </trkpt>
      <trkpt lat="-11.66669793426990509033203125" lon="-76.25184156931936740875244140625">
        <ele>3912.199951171875</ele>
        <time>2021-07-25T18:10:25.000Z</time>
      </trkpt>
      <trkpt lat="-11.666681505739688873291015625" lon="-76.25182782299816608428955078125">
        <ele>3912.39990234375</ele>
        <time>2021-07-25T18:10:26.000Z</time>
      </trkpt>
      <trkpt lat="-11.66658083908259868621826171875" lon="-76.25173486769199371337890625">
        <ele>3913.39990234375</ele>
        <time>2021-07-25T18:10:32.000Z</time>
      </trkpt>
      <trkpt lat="-11.66656541638076305389404296875" lon="-76.25171919353306293487548828125">
        <ele>3913.39990234375</ele>
        <time>2021-07-25T18:10:33.000Z</time>
      </trkpt>
      <trkpt lat="-11.66641923598945140838623046875" lon="-76.2516123242676258087158203125">
        <ele>3914.60009765625</ele>
        <time>2021-07-25T18:10:41.000Z</time>
      </trkpt>
      <trkpt lat="-11.6663168929517269134521484375" lon="-76.251597739756107330322265625">
        <ele>3915.60009765625</ele>
        <time>2021-07-25T18:10:46.000Z</time>
      </trkpt>
      <trkpt lat="-11.66627858765423297882080078125" lon="-76.25161148607730865478515625">
        <ele>3916</ele>
        <time>2021-07-25T18:10:48.000Z</time>
      </trkpt>
      <trkpt lat="-11.6661599837243556976318359375" lon="-76.25168197788298130035400390625">
        <ele>3916.800048828125</ele>
        <time>2021-07-25T18:10:55.000Z</time>
      </trkpt>
      <trkpt lat="-11.6661137156188488006591796875" lon="-76.25179680995643138885498046875">
        <ele>3917.199951171875</ele>
        <time>2021-07-25T18:11:01.000Z</time>
      </trkpt>
      <trkpt lat="-11.66613039560616016387939453125" lon="-76.25196075998246669769287109375">
        <ele>3917.800048828125</ele>
        <time>2021-07-25T18:11:08.000Z</time>
      </trkpt>
      <trkpt lat="-11.66614405810832977294921875" lon="-76.25198104418814182281494140625">
        <ele>3917.800048828125</ele>
        <time>2021-07-25T18:11:09.000Z</time>
      </trkpt>
      <trkpt lat="-11.666206754744052886962890625" lon="-76.25208330340683460235595703125">
        <ele>3918.39990234375</ele>
        <time>2021-07-25T18:11:14.000Z</time>
      </trkpt>
      <trkpt lat="-11.66623927652835845947265625" lon="-76.25214315019547939300537109375">
        <ele>3919</ele>
        <time>2021-07-25T18:11:17.000Z</time>
      </trkpt>
      <trkpt lat="-11.666343212127685546875" lon="-76.25230240635573863983154296875">
        <ele>3919.60009765625</ele>
        <time>2021-07-25T18:11:25.000Z</time>
      </trkpt>
      <trkpt lat="-11.66638788767158985137939453125" lon="-76.252405084669589996337890625">
        <ele>3920</ele>
        <time>2021-07-25T18:11:30.000Z</time>
      </trkpt>
      <trkpt lat="-11.6664023883640766143798828125" lon="-76.2524917535483837127685546875">
        <ele>3920.199951171875</ele>
        <time>2021-07-25T18:11:34.000Z</time>
      </trkpt>
      <trkpt lat="-11.66638151742517948150634765625" lon="-76.25266157090663909912109375">
        <ele>3920.800048828125</ele>
        <time>2021-07-25T18:11:42.000Z</time>
      </trkpt>
      <trkpt lat="-11.66632217355072498321533203125" lon="-76.25278419815003871917724609375">
        <ele>3920.800048828125</ele>
        <time>2021-07-25T18:11:48.000Z</time>
      </trkpt>
      <trkpt lat="-11.6662471555173397064208984375" lon="-76.25288981013000011444091796875">
        <ele>3921</ele>
        <time>2021-07-25T18:11:54.000Z</time>
      </trkpt>
      <trkpt lat="-11.66623349301517009735107421875" lon="-76.25290967524051666259765625">
        <ele>3921.39990234375</ele>
        <time>2021-07-25T18:11:55.000Z</time>
      </trkpt>
      <trkpt lat="-11.66618429124355316162109375" lon="-76.2529882974922657012939453125">
        <ele>3922.199951171875</ele>
        <time>2021-07-25T18:11:59.000Z</time>
      </trkpt>
      <trkpt lat="-11.6661435551941394805908203125" lon="-76.2530476413667201995849609375">
        <ele>3922.800048828125</ele>
        <time>2021-07-25T18:12:02.000Z</time>
      </trkpt>
      <trkpt lat="-11.66609150357544422149658203125" lon="-76.25312835909426212310791015625">
        <ele>3923.199951171875</ele>
        <time>2021-07-25T18:12:06.000Z</time>
      </trkpt>
      <trkpt lat="-11.6660366021096706390380859375" lon="-76.25321201048791408538818359375">
        <ele>3922.800048828125</ele>
        <time>2021-07-25T18:12:10.000Z</time>
      </trkpt>
      <trkpt lat="-11.66592889465391635894775390625" lon="-76.25331276096403598785400390625">
        <ele>3923.199951171875</ele>
        <time>2021-07-25T18:12:17.000Z</time>
      </trkpt>
      <trkpt lat="-11.66579796932637691497802734375" lon="-76.2533215619623661041259765625">
        <ele>3924</ele>
        <time>2021-07-25T18:12:23.000Z</time>
      </trkpt>
      <trkpt lat="-11.66576452553272247314453125" lon="-76.25329331494867801666259765625">
        <ele>3924.39990234375</ele>
        <time>2021-07-25T18:12:25.000Z</time>
      </trkpt>
      <trkpt lat="-11.66573158465325832366943359375" lon="-76.25322894193232059478759765625">
        <ele>3924.800048828125</ele>
        <time>2021-07-25T18:12:28.000Z</time>
      </trkpt>
      <trkpt lat="-11.665737368166446685791015625" lon="-76.25313456170260906219482421875">
        <ele>3925.39990234375</ele>
        <time>2021-07-25T18:12:32.000Z</time>
      </trkpt>
      <trkpt lat="-11.66574533097445964813232421875" lon="-76.25311444513499736785888671875">
        <ele>3925.800048828125</ele>
        <time>2021-07-25T18:12:33.000Z</time>
      </trkpt>
      <trkpt lat="-11.6657955385744571685791015625" lon="-76.2530493177473545074462890625">
        <ele>3926.60009765625</ele>
        <time>2021-07-25T18:12:37.000Z</time>
      </trkpt>
      <trkpt lat="-11.665841974318027496337890625" lon="-76.2530007027089595794677734375">
        <ele>3927.39990234375</ele>
        <time>2021-07-25T18:12:40.000Z</time>
      </trkpt>
      <trkpt lat="-11.6658605821430683135986328125" lon="-76.25298804603517055511474609375">
        <ele>3927.60009765625</ele>
        <time>2021-07-25T18:12:41.000Z</time>
      </trkpt>
      <trkpt lat="-11.66598035953938961029052734375" lon="-76.25289785675704479217529296875">
        <ele>3928.60009765625</ele>
        <time>2021-07-25T18:12:47.000Z</time>
      </trkpt>
      <trkpt lat="-11.66599829681217670440673828125" lon="-76.25288209877908229827880859375">
        <ele>3928.800048828125</ele>
        <time>2021-07-25T18:12:48.000Z</time>
      </trkpt>
      <trkpt lat="-11.66609334759414196014404296875" lon="-76.25278973020613193511962890625">
        <ele>3929</ele>
        <time>2021-07-25T18:12:54.000Z</time>
      </trkpt>
      <trkpt lat="-11.66615319438278675079345703125" lon="-76.2526500038802623748779296875">
        <ele>3930</ele>
        <time>2021-07-25T18:13:02.000Z</time>
      </trkpt>
      <trkpt lat="-11.66615185327827930450439453125" lon="-76.25254933722317218780517578125">
        <ele>3931.199951171875</ele>
        <time>2021-07-25T18:13:07.000Z</time>
      </trkpt>
      <trkpt lat="-11.6661469079554080963134765625" lon="-76.2525106966495513916015625">
        <ele>3931.39990234375</ele>
        <time>2021-07-25T18:13:09.000Z</time>
      </trkpt>
      <trkpt lat="-11.66610424406826496124267578125" lon="-76.25234641134738922119140625">
        <ele>3932</ele>
        <time>2021-07-25T18:13:17.000Z</time>
      </trkpt>
      <trkpt lat="-11.6660902462899684906005859375" lon="-76.25230777077376842498779296875">
        <ele>3932.60009765625</ele>
        <time>2021-07-25T18:13:19.000Z</time>
      </trkpt>
      <trkpt lat="-11.666037775576114654541015625" lon="-76.25217030756175518035888671875">
        <ele>3933.199951171875</ele>
        <time>2021-07-25T18:13:26.000Z</time>
      </trkpt>
      <trkpt lat="-11.66599879972636699676513671875" lon="-76.2520679645240306854248046875">
        <ele>3933.60009765625</ele>
        <time>2021-07-25T18:13:31.000Z</time>
      </trkpt>
      <trkpt lat="-11.66596393100917339324951171875" lon="-76.251985989511013031005859375">
        <ele>3934.60009765625</ele>
        <time>2021-07-25T18:13:35.000Z</time>
      </trkpt>
      <trkpt lat="-11.66595219634473323822021484375" lon="-76.25194734893739223480224609375">
        <ele>3934.60009765625</ele>
        <time>2021-07-25T18:13:37.000Z</time>
      </trkpt>
      <trkpt lat="-11.665916405618190765380859375" lon="-76.25185028649866580963134765625">
        <ele>3935.60009765625</ele>
        <time>2021-07-25T18:13:42.000Z</time>
      </trkpt>
      <trkpt lat="-11.6658917628228664398193359375" lon="-76.25179010443389415740966796875">
        <ele>3935.800048828125</ele>
        <time>2021-07-25T18:13:45.000Z</time>
      </trkpt>
      <trkpt lat="-11.6658692993223667144775390625" lon="-76.2517098896205425262451171875">
        <ele>3936.60009765625</ele>
        <time>2021-07-25T18:13:49.000Z</time>
      </trkpt>
      <trkpt lat="-11.66583635844290256500244140625" lon="-76.2516341172158718109130859375">
        <ele>3936.800048828125</ele>
        <time>2021-07-25T18:13:53.000Z</time>
      </trkpt>
      <trkpt lat="-11.66579294018447399139404296875" lon="-76.25153294764459133148193359375">
        <ele>3938</ele>
        <time>2021-07-25T18:13:58.000Z</time>
      </trkpt>
      <trkpt lat="-11.66578640230000019073486328125" lon="-76.25151199288666248321533203125">
        <ele>3938.199951171875</ele>
        <time>2021-07-25T18:13:59.000Z</time>
      </trkpt>
      <trkpt lat="-11.6657496057450771331787109375" lon="-76.2514114938676357269287109375">
        <ele>3939</ele>
        <time>2021-07-25T18:14:04.000Z</time>
      </trkpt>
      <trkpt lat="-11.66570576839148998260498046875" lon="-76.2513122521340847015380859375">
        <ele>3939.800048828125</ele>
        <time>2021-07-25T18:14:09.000Z</time>
      </trkpt>
      <trkpt lat="-11.6656466759741306304931640625" lon="-76.25122633762657642364501953125">
        <ele>3940.199951171875</ele>
        <time>2021-07-25T18:14:14.000Z</time>
      </trkpt>
      <trkpt lat="-11.66560585610568523406982421875" lon="-76.2511761300265789031982421875">
        <ele>3940.800048828125</ele>
        <time>2021-07-25T18:14:17.000Z</time>
      </trkpt>
      <trkpt lat="-11.66552874259650707244873046875" lon="-76.25107831321656703948974609375">
        <ele>3941.199951171875</ele>
        <time>2021-07-25T18:14:23.000Z</time>
      </trkpt>
      <trkpt lat="-11.66547887027263641357421875" lon="-76.2510336376726627349853515625">
        <ele>3941.60009765625</ele>
        <time>2021-07-25T18:14:26.000Z</time>
      </trkpt>
      <trkpt lat="-11.66536747477948665618896484375" lon="-76.2509488128125667572021484375">
        <ele>3942</ele>
        <time>2021-07-25T18:14:33.000Z</time>
      </trkpt>
      <trkpt lat="-11.665296815335750579833984375" lon="-76.25090279616415500640869140625">
        <ele>3942.199951171875</ele>
        <time>2021-07-25T18:14:37.000Z</time>
      </trkpt>
      <trkpt lat="-11.665228419005870819091796875" lon="-76.25085820443928241729736328125">
        <ele>3942.39990234375</ele>
        <time>2021-07-25T18:14:41.000Z</time>
      </trkpt>
      <trkpt lat="-11.66509036906063556671142578125" lon="-76.25075963325798511505126953125">
        <ele>3943.199951171875</ele>
        <time>2021-07-25T18:14:49.000Z</time>
      </trkpt>
      <trkpt lat="-11.66507125832140445709228515625" lon="-76.2507458031177520751953125">
        <ele>3943.199951171875</ele>
        <time>2021-07-25T18:14:50.000Z</time>
      </trkpt>
      <trkpt lat="-11.66491518728435039520263671875" lon="-76.2506165541708469390869140625">
        <ele>3943.800048828125</ele>
        <time>2021-07-25T18:14:59.000Z</time>
      </trkpt>
      <trkpt lat="-11.66482566855847835540771484375" lon="-76.2505312263965606689453125">
        <ele>3944.39990234375</ele>
        <time>2021-07-25T18:15:04.000Z</time>
      </trkpt>
      <trkpt lat="-11.6647565178573131561279296875" lon="-76.2504596449434757232666015625">
        <ele>3945.199951171875</ele>
        <time>2021-07-25T18:15:08.000Z</time>
      </trkpt>
      <trkpt lat="-11.6647223196923732757568359375" lon="-76.25042586587369441986083984375">
        <ele>3945.60009765625</ele>
        <time>2021-07-25T18:15:10.000Z</time>
      </trkpt>
      <trkpt lat="-11.66464160196483135223388671875" lon="-76.2503315694630146026611328125">
        <ele>3946.199951171875</ele>
        <time>2021-07-25T18:15:16.000Z</time>
      </trkpt>
      <trkpt lat="-11.6646022908389568328857421875" lon="-76.2502785958349704742431640625">
        <ele>3946.60009765625</ele>
        <time>2021-07-25T18:15:19.000Z</time>
      </trkpt>
      <trkpt lat="-11.66449458338320255279541015625" lon="-76.25016585923731327056884765625">
        <ele>3947.199951171875</ele>
        <time>2021-07-25T18:15:26.000Z</time>
      </trkpt>
      <trkpt lat="-11.6644624806940555572509765625" lon="-76.25012830831110477447509765625">
        <ele>3947.60009765625</ele>
        <time>2021-07-25T18:15:28.000Z</time>
      </trkpt>
      <trkpt lat="-11.6643588803708553314208984375" lon="-76.25000618398189544677734375">
        <ele>3948.60009765625</ele>
        <time>2021-07-25T18:15:35.000Z</time>
      </trkpt>
      <trkpt lat="-11.664262153208255767822265625" lon="-76.249889843165874481201171875">
        <ele>3949.800048828125</ele>
        <time>2021-07-25T18:15:42.000Z</time>
      </trkpt>
      <trkpt lat="-11.66421378962695598602294921875" lon="-76.24983980320394039154052734375">
        <ele>3950.199951171875</ele>
        <time>2021-07-25T18:15:45.000Z</time>
      </trkpt>
      <trkpt lat="-11.66410096921026706695556640625" lon="-76.249699406325817108154296875">
        <ele>3950.800048828125</ele>
        <time>2021-07-25T18:15:53.000Z</time>
      </trkpt>
      <trkpt lat="-11.66407406330108642578125" lon="-76.2496657110750675201416015625">
        <ele>3951</ele>
        <time>2021-07-25T18:15:55.000Z</time>
      </trkpt>
      <trkpt lat="-11.66395881213247776031494140625" lon="-76.24952916987240314483642578125">
        <ele>3951.800048828125</ele>
        <time>2021-07-25T18:16:03.000Z</time>
      </trkpt>
      <trkpt lat="-11.66393257677555084228515625" lon="-76.2494950555264949798583984375">
        <ele>3952</ele>
        <time>2021-07-25T18:16:05.000Z</time>
      </trkpt>
      <trkpt lat="-11.66385437361896038055419921875" lon="-76.24938030727207660675048828125">
        <ele>3953</ele>
        <time>2021-07-25T18:16:11.000Z</time>
      </trkpt>
      <trkpt lat="-11.66376234032213687896728515625" lon="-76.2492325343191623687744140625">
        <ele>3953.39990234375</ele>
        <time>2021-07-25T18:16:19.000Z</time>
      </trkpt>
      <trkpt lat="-11.66367734782397747039794921875" lon="-76.2490819953382015228271484375">
        <ele>3954.39990234375</ele>
        <time>2021-07-25T18:16:27.000Z</time>
      </trkpt>
      <trkpt lat="-11.66364113800227642059326171875" lon="-76.24891175888478755950927734375">
        <ele>3955.199951171875</ele>
        <time>2021-07-25T18:16:35.000Z</time>
      </trkpt>
      <trkpt lat="-11.663628481328487396240234375" lon="-76.248864233493804931640625">
        <ele>3955.39990234375</ele>
        <time>2021-07-25T18:16:37.000Z</time>
      </trkpt>
      <trkpt lat="-11.66358011774718761444091796875" lon="-76.248731128871440887451171875">
        <ele>3956.60009765625</ele>
        <time>2021-07-25T18:16:43.000Z</time>
      </trkpt>
      <trkpt lat="-11.66350702755153179168701171875" lon="-76.2485401891171932220458984375">
        <ele>3957.800048828125</ele>
        <time>2021-07-25T18:16:52.000Z</time>
      </trkpt>
      <trkpt lat="-11.6634982265532016754150390625" lon="-76.24852049164474010467529296875">
        <ele>3957.800048828125</ele>
        <time>2021-07-25T18:16:53.000Z</time>
      </trkpt>
      <trkpt lat="-11.6634486056864261627197265625" lon="-76.24836995266377925872802734375">
        <ele>3959</ele>
        <time>2021-07-25T18:17:00.000Z</time>
      </trkpt>
      <trkpt lat="-11.66341214440762996673583984375" lon="-76.2482572160661220550537109375">
        <ele>3959.60009765625</ele>
        <time>2021-07-25T18:17:05.000Z</time>
      </trkpt>
      <trkpt lat="-11.66336101479828357696533203125" lon="-76.24809904955327510833740234375">
        <ele>3960</ele>
        <time>2021-07-25T18:17:12.000Z</time>
      </trkpt>
      <trkpt lat="-11.6633458435535430908203125" lon="-76.24805445782840251922607421875">
        <ele>3960.39990234375</ele>
        <time>2021-07-25T18:17:14.000Z</time>
      </trkpt>
      <trkpt lat="-11.66330904699862003326416015625" lon="-76.2478931061923503875732421875">
        <ele>3961.199951171875</ele>
        <time>2021-07-25T18:17:21.000Z</time>
      </trkpt>
      <trkpt lat="-11.66330368258059024810791015625" lon="-76.247844994068145751953125">
        <ele>3961.60009765625</ele>
        <time>2021-07-25T18:17:23.000Z</time>
      </trkpt>
      <trkpt lat="-11.6632638685405254364013671875" lon="-76.24767676927149295806884765625">
        <ele>3962.39990234375</ele>
        <time>2021-07-25T18:17:31.000Z</time>
      </trkpt>
      <trkpt lat="-11.66322187520563602447509765625" lon="-76.24747392721474170684814453125">
        <ele>3962.39990234375</ele>
        <time>2021-07-25T18:17:40.000Z</time>
      </trkpt>
      <trkpt lat="-11.6631847433745861053466796875" lon="-76.24729438684880733489990234375">
        <ele>3963.39990234375</ele>
        <time>2021-07-25T18:17:48.000Z</time>
      </trkpt>
      <trkpt lat="-11.6631803847849369049072265625" lon="-76.24727435410022735595703125">
        <ele>3963.39990234375</ele>
        <time>2021-07-25T18:17:49.000Z</time>
      </trkpt>
      <trkpt lat="-11.66314291767776012420654296875" lon="-76.2471060454845428466796875">
        <ele>3964</ele>
        <time>2021-07-25T18:17:57.000Z</time>
      </trkpt>
      <trkpt lat="-11.66311056353151798248291015625" lon="-76.24698241241276264190673828125">
        <ele>3964.39990234375</ele>
        <time>2021-07-25T18:18:02.000Z</time>
      </trkpt>
      <trkpt lat="-11.6630990803241729736328125" lon="-76.246933043003082275390625">
        <ele>3964.800048828125</ele>
        <time>2021-07-25T18:18:04.000Z</time>
      </trkpt>
      <trkpt lat="-11.66306882165372371673583984375" lon="-76.24683992005884647369384765625">
        <ele>3965.39990234375</ele>
        <time>2021-07-25T18:18:08.000Z</time>
      </trkpt>
      <trkpt lat="-11.66303361766040325164794921875" lon="-76.246718801558017730712890625">
        <ele>3966</ele>
        <time>2021-07-25T18:18:13.000Z</time>
      </trkpt>
      <trkpt lat="-11.66299371980130672454833984375" lon="-76.24659650959074497222900390625">
        <ele>3966.60009765625</ele>
        <time>2021-07-25T18:18:18.000Z</time>
      </trkpt>
      <trkpt lat="-11.662979386746883392333984375" lon="-76.24654973857104778289794921875">
        <ele>3966.60009765625</ele>
        <time>2021-07-25T18:18:20.000Z</time>
      </trkpt>
      <trkpt lat="-11.6629587672650814056396484375" lon="-76.2464178912341594696044921875">
        <ele>3967.60009765625</ele>
        <time>2021-07-25T18:18:26.000Z</time>
      </trkpt>
      <trkpt lat="-11.6629393212497234344482421875" lon="-76.246353350579738616943359375">
        <ele>3967.800048828125</ele>
        <time>2021-07-25T18:18:29.000Z</time>
      </trkpt>
      <trkpt lat="-11.662925072014331817626953125" lon="-76.24629124067723751068115234375">
        <ele>3969</ele>
        <time>2021-07-25T18:18:32.000Z</time>
      </trkpt>
      <trkpt lat="-11.66290394961833953857421875" lon="-76.246179677546024322509765625">
        <ele>3970</ele>
        <time>2021-07-25T18:18:37.000Z</time>
      </trkpt>
      <trkpt lat="-11.66289850138127803802490234375" lon="-76.24615629203617572784423828125">
        <ele>3970</ele>
        <time>2021-07-25T18:18:38.000Z</time>
      </trkpt>
      <trkpt lat="-11.66285223327577114105224609375" lon="-76.2459287233650684356689453125">
        <ele>3970.800048828125</ele>
        <time>2021-07-25T18:18:48.000Z</time>
      </trkpt>
      <trkpt lat="-11.6628457792103290557861328125" lon="-76.24590751715004444122314453125">
        <ele>3971.39990234375</ele>
        <time>2021-07-25T18:18:49.000Z</time>
      </trkpt>
      <trkpt lat="-11.6628122515976428985595703125" lon="-76.2457185052335262298583984375">
        <ele>3971.800048828125</ele>
        <time>2021-07-25T18:18:57.000Z</time>
      </trkpt>
      <trkpt lat="-11.66279624216258525848388671875" lon="-76.245657317340373992919921875">
        <ele>3972.39990234375</ele>
        <time>2021-07-25T18:19:00.000Z</time>
      </trkpt>
      <trkpt lat="-11.66275952942669391632080078125" lon="-76.2455317564308643341064453125">
        <ele>3973.60009765625</ele>
        <time>2021-07-25T18:19:06.000Z</time>
      </trkpt>
      <trkpt lat="-11.66266296990215778350830078125" lon="-76.2453339435160160064697265625">
        <ele>3974.60009765625</ele>
        <time>2021-07-25T18:19:16.000Z</time>
      </trkpt>
      <trkpt lat="-11.662551574409008026123046875" lon="-76.24516286887228488922119140625">
        <ele>3975.60009765625</ele>
        <time>2021-07-25T18:19:25.000Z</time>
      </trkpt>
      <trkpt lat="-11.6625400073826313018798828125" lon="-76.2451438419520854949951171875">
        <ele>3975.39990234375</ele>
        <time>2021-07-25T18:19:26.000Z</time>
      </trkpt>
      <trkpt lat="-11.66252584196627140045166015625" lon="-76.24512213282287120819091796875">
        <ele>3975.60009765625</ele>
        <time>2021-07-25T18:19:27.000Z</time>
      </trkpt>
      <trkpt lat="-11.662428192794322967529296875" lon="-76.2450150959193706512451171875">
        <ele>3976.800048828125</ele>
        <time>2021-07-25T18:19:33.000Z</time>
      </trkpt>
      <trkpt lat="-11.6623140312731266021728515625" lon="-76.24490554444491863250732421875">
        <ele>3977.39990234375</ele>
        <time>2021-07-25T18:19:40.000Z</time>
      </trkpt>
      <trkpt lat="-11.66222107596695423126220703125" lon="-76.24482549726963043212890625">
        <ele>3977.800048828125</ele>
        <time>2021-07-25T18:19:45.000Z</time>
      </trkpt>
      <trkpt lat="-11.66213910095393657684326171875" lon="-76.24475014396011829376220703125">
        <ele>3978.199951171875</ele>
        <time>2021-07-25T18:19:50.000Z</time>
      </trkpt>
      <trkpt lat="-11.6620448045432567596435546875" lon="-76.24466816894710063934326171875">
        <ele>3978.800048828125</ele>
        <time>2021-07-25T18:19:55.000Z</time>
      </trkpt>
      <trkpt lat="-11.66198202408850193023681640625" lon="-76.2446191348135471343994140625">
        <ele>3979.199951171875</ele>
        <time>2021-07-25T18:19:58.000Z</time>
      </trkpt>
      <trkpt lat="-11.661914549767971038818359375" lon="-76.2445534206926822662353515625">
        <ele>3979.800048828125</ele>
        <time>2021-07-25T18:20:02.000Z</time>
      </trkpt>
      <trkpt lat="-11.66182662360370159149169921875" lon="-76.24447957612574100494384765625">
        <ele>3981</ele>
        <time>2021-07-25T18:20:07.000Z</time>
      </trkpt>
      <trkpt lat="-11.6616962850093841552734375" lon="-76.2443472258746623992919921875">
        <ele>3981.39990234375</ele>
        <time>2021-07-25T18:20:16.000Z</time>
      </trkpt>
      <trkpt lat="-11.66159830056130886077880859375" lon="-76.24425024725496768951416015625">
        <ele>3982.199951171875</ele>
        <time>2021-07-25T18:20:22.000Z</time>
      </trkpt>
      <trkpt lat="-11.661508865654468536376953125" lon="-76.24418101273477077484130859375">
        <ele>3983</ele>
        <time>2021-07-25T18:20:26.000Z</time>
      </trkpt>
      <trkpt lat="-11.661455892026424407958984375" lon="-76.24413206242024898529052734375">
        <ele>3983.39990234375</ele>
        <time>2021-07-25T18:20:29.000Z</time>
      </trkpt>
      <trkpt lat="-11.6613430716097354888916015625" lon="-76.24401035718619823455810546875">
        <ele>3984.199951171875</ele>
        <time>2021-07-25T18:20:36.000Z</time>
      </trkpt>
      <trkpt lat="-11.661272831261157989501953125" lon="-76.24393525533378124237060546875">
        <ele>3984.60009765625</ele>
        <time>2021-07-25T18:20:40.000Z</time>
      </trkpt>
      <trkpt lat="-11.66121373884379863739013671875" lon="-76.24386182986199855804443359375">
        <ele>3984.800048828125</ele>
        <time>2021-07-25T18:20:44.000Z</time>
      </trkpt>
      <trkpt lat="-11.66114483959972858428955078125" lon="-76.2437886558473110198974609375">
        <ele>3985.39990234375</ele>
        <time>2021-07-25T18:20:48.000Z</time>
      </trkpt>
      <trkpt lat="-11.66107711382210254669189453125" lon="-76.24371246434748172760009765625">
        <ele>3985.60009765625</ele>
        <time>2021-07-25T18:20:52.000Z</time>
      </trkpt>
      <trkpt lat="-11.660948283970355987548828125" lon="-76.2435563094913959503173828125">
        <ele>3986.800048828125</ele>
        <time>2021-07-25T18:21:00.000Z</time>
      </trkpt>
      <trkpt lat="-11.6609135828912258148193359375" lon="-76.24351657927036285400390625">
        <ele>3986.800048828125</ele>
        <time>2021-07-25T18:21:02.000Z</time>
      </trkpt>
      <trkpt lat="-11.66078961454331874847412109375" lon="-76.24336629174649715423583984375">
        <ele>3987.39990234375</ele>
        <time>2021-07-25T18:21:10.000Z</time>
      </trkpt>
      <trkpt lat="-11.6606862656772136688232421875" lon="-76.243249364197254180908203125">
        <ele>3987.800048828125</ele>
        <time>2021-07-25T18:21:16.000Z</time>
      </trkpt>
      <trkpt lat="-11.66063371114432811737060546875" lon="-76.24318490736186504364013671875">
        <ele>3988</ele>
        <time>2021-07-25T18:21:19.000Z</time>
      </trkpt>
      <trkpt lat="-11.66050764732062816619873046875" lon="-76.243003271520137786865234375">
        <ele>3988.199951171875</ele>
        <time>2021-07-25T18:21:27.000Z</time>
      </trkpt>
      <trkpt lat="-11.66044293902814388275146484375" lon="-76.24288399703800678253173828125">
        <ele>3989</ele>
        <time>2021-07-25T18:21:32.000Z</time>
      </trkpt>
      <trkpt lat="-11.6603982634842395782470703125" lon="-76.24277763068675994873046875">
        <ele>3989.39990234375</ele>
        <time>2021-07-25T18:21:36.000Z</time>
      </trkpt>
      <trkpt lat="-11.6603623889386653900146484375" lon="-76.2426926381886005401611328125">
        <ele>3990.199951171875</ele>
        <time>2021-07-25T18:21:39.000Z</time>
      </trkpt>
      <trkpt lat="-11.6602852754294872283935546875" lon="-76.2425132654607295989990234375">
        <ele>3990.800048828125</ele>
        <time>2021-07-25T18:21:46.000Z</time>
      </trkpt>
      <trkpt lat="-11.660261638462543487548828125" lon="-76.24246255494654178619384765625">
        <ele>3991.39990234375</ele>
        <time>2021-07-25T18:21:48.000Z</time>
      </trkpt>
      <trkpt lat="-11.66019014082849025726318359375" lon="-76.2423100881278514862060546875">
        <ele>3991.39990234375</ele>
        <time>2021-07-25T18:21:54.000Z</time>
      </trkpt>
      <trkpt lat="-11.66006323881447315216064453125" lon="-76.24219332821667194366455078125">
        <ele>3991.60009765625</ele>
        <time>2021-07-25T18:22:00.000Z</time>
      </trkpt>
      <trkpt lat="-11.6599204950034618377685546875" lon="-76.24219383113086223602294921875">
        <ele>3992.199951171875</ele>
        <time>2021-07-25T18:22:05.000Z</time>
      </trkpt>
      <trkpt lat="-11.6598965227603912353515625" lon="-76.24220556579530239105224609375">
        <ele>3992.60009765625</ele>
        <time>2021-07-25T18:22:06.000Z</time>
      </trkpt>
      <trkpt lat="-11.6598241031169891357421875" lon="-76.24229592271149158477783203125">
        <ele>3992.60009765625</ele>
        <time>2021-07-25T18:22:10.000Z</time>
      </trkpt>
      <trkpt lat="-11.65980909951031208038330078125" lon="-76.24243657104671001434326171875">
        <ele>3992.199951171875</ele>
        <time>2021-07-25T18:22:15.000Z</time>
      </trkpt>
      <trkpt lat="-11.6598750650882720947265625" lon="-76.2425682507455348968505859375">
        <ele>3992.199951171875</ele>
        <time>2021-07-25T18:22:20.000Z</time>
      </trkpt>
      <trkpt lat="-11.659890152513980865478515625" lon="-76.24259054660797119140625">
        <ele>3992</ele>
        <time>2021-07-25T18:22:21.000Z</time>
      </trkpt>
      <trkpt lat="-11.66002250276505947113037109375" lon="-76.2427422590553760528564453125">
        <ele>3992.60009765625</ele>
        <time>2021-07-25T18:22:28.000Z</time>
      </trkpt>
      <trkpt lat="-11.6601585410535335540771484375" lon="-76.24289941973984241485595703125">
        <ele>3993.60009765625</ele>
        <time>2021-07-25T18:22:35.000Z</time>
      </trkpt>
      <trkpt lat="-11.66020237840712070465087890625" lon="-76.2429464422166347503662109375">
        <ele>3994</ele>
        <time>2021-07-25T18:22:37.000Z</time>
      </trkpt>
      <trkpt lat="-11.66034855879843235015869140625" lon="-76.24312154017388820648193359375">
        <ele>3994.199951171875</ele>
        <time>2021-07-25T18:22:46.000Z</time>
      </trkpt>
      <trkpt lat="-11.66038242168724536895751953125" lon="-76.24316118657588958740234375">
        <ele>3994.60009765625</ele>
        <time>2021-07-25T18:22:48.000Z</time>
      </trkpt>
      <trkpt lat="-11.6604941524565219879150390625" lon="-76.24328146688640117645263671875">
        <ele>3995</ele>
        <time>2021-07-25T18:22:54.000Z</time>
      </trkpt>
      <trkpt lat="-11.660643517971038818359375" lon="-76.24347022734582424163818359375">
        <ele>3995.60009765625</ele>
        <time>2021-07-25T18:23:03.000Z</time>
      </trkpt>
      <trkpt lat="-11.6606604494154453277587890625" lon="-76.24349017627537250518798828125">
        <ele>3995.800048828125</ele>
        <time>2021-07-25T18:23:04.000Z</time>
      </trkpt>
      <trkpt lat="-11.660773940384387969970703125" lon="-76.24363216571509838104248046875">
        <ele>3996.39990234375</ele>
        <time>2021-07-25T18:23:11.000Z</time>
      </trkpt>
      <trkpt lat="-11.66088785044848918914794921875" lon="-76.2438107840716838836669921875">
        <ele>3996.800048828125</ele>
        <time>2021-07-25T18:23:19.000Z</time>
      </trkpt>
      <trkpt lat="-11.66090846993029117584228515625" lon="-76.24385931529104709625244140625">
        <ele>3996.800048828125</ele>
        <time>2021-07-25T18:23:21.000Z</time>
      </trkpt>
      <trkpt lat="-11.66098876856267452239990234375" lon="-76.24404505826532840728759765625">
        <ele>3997</ele>
        <time>2021-07-25T18:23:29.000Z</time>
      </trkpt>
      <trkpt lat="-11.66104392148554325103759765625" lon="-76.2441899813711643218994140625">
        <ele>3998.199951171875</ele>
        <time>2021-07-25T18:23:35.000Z</time>
      </trkpt>
      <trkpt lat="-11.66107191704213619232177734375" lon="-76.24423700384795665740966796875">
        <ele>3997.800048828125</ele>
        <time>2021-07-25T18:23:37.000Z</time>
      </trkpt>
      <trkpt lat="-11.66119446046650409698486328125" lon="-76.2443862855434417724609375">
        <ele>3998.60009765625</ele>
        <time>2021-07-25T18:23:45.000Z</time>
      </trkpt>
      <trkpt lat="-11.66131339967250823974609375" lon="-76.24448259361088275909423828125">
        <ele>3999.60009765625</ele>
        <time>2021-07-25T18:23:51.000Z</time>
      </trkpt>
      <trkpt lat="-11.6613668762147426605224609375" lon="-76.24453254975378513336181640625">
        <ele>3999.800048828125</ele>
        <time>2021-07-25T18:23:54.000Z</time>
      </trkpt>
      <trkpt lat="-11.66151967830955982208251953125" lon="-76.244648136198520660400390625">
        <ele>4000.60009765625</ele>
        <time>2021-07-25T18:24:02.000Z</time>
      </trkpt>
      <trkpt lat="-11.66153795085847377777099609375" lon="-76.24466045759618282318115234375">
        <ele>4000.60009765625</ele>
        <time>2021-07-25T18:24:03.000Z</time>
      </trkpt>
      <trkpt lat="-11.66166518814861774444580078125" lon="-76.2447626329958438873291015625">
        <ele>4001.800048828125</ele>
        <time>2021-07-25T18:24:10.000Z</time>
      </trkpt>
      <trkpt lat="-11.66170055978000164031982421875" lon="-76.24480001628398895263671875">
        <ele>4002.199951171875</ele>
        <time>2021-07-25T18:24:12.000Z</time>
      </trkpt>
      <trkpt lat="-11.661780439317226409912109375" lon="-76.2448793090879917144775390625">
        <ele>4002.800048828125</ele>
        <time>2021-07-25T18:24:17.000Z</time>
      </trkpt>
      <trkpt lat="-11.661845482885837554931640625" lon="-76.244943849742412567138671875">
        <ele>4003</ele>
        <time>2021-07-25T18:24:21.000Z</time>
      </trkpt>
      <trkpt lat="-11.6618867218494415283203125" lon="-76.24500495381653308868408203125">
        <ele>4004</ele>
        <time>2021-07-25T18:24:24.000Z</time>
      </trkpt>
      <trkpt lat="-11.66190071962773799896240234375" lon="-76.245026327669620513916015625">
        <ele>4004</ele>
        <time>2021-07-25T18:24:25.000Z</time>
      </trkpt>
      <trkpt lat="-11.66200784035027027130126953125" lon="-76.24518759548664093017578125">
        <ele>4004.39990234375</ele>
        <time>2021-07-25T18:24:34.000Z</time>
      </trkpt>
      <trkpt lat="-11.6620464809238910675048828125" lon="-76.24524484388530254364013671875">
        <ele>4005.199951171875</ele>
        <time>2021-07-25T18:24:37.000Z</time>
      </trkpt>
      <trkpt lat="-11.66212049312889575958251953125" lon="-76.24535531736910343170166015625">
        <ele>4006</ele>
        <time>2021-07-25T18:24:43.000Z</time>
      </trkpt>
      <trkpt lat="-11.66213474236428737640380859375" lon="-76.24537308700382709503173828125">
        <ele>4006.199951171875</ele>
        <time>2021-07-25T18:24:44.000Z</time>
      </trkpt>
      <trkpt lat="-11.6621966846287250518798828125" lon="-76.245518513023853302001953125">
        <ele>4007.39990234375</ele>
        <time>2021-07-25T18:24:51.000Z</time>
      </trkpt>
      <trkpt lat="-11.6622037254273891448974609375" lon="-76.2455377914011478424072265625">
        <ele>4007.60009765625</ele>
        <time>2021-07-25T18:24:52.000Z</time>
      </trkpt>
      <trkpt lat="-11.6622761450707912445068359375" lon="-76.2457265518605709075927734375">
        <ele>4008</ele>
        <time>2021-07-25T18:25:01.000Z</time>
      </trkpt>
      <trkpt lat="-11.66232316754758358001708984375" lon="-76.24587348662316799163818359375">
        <ele>4008.39990234375</ele>
        <time>2021-07-25T18:25:08.000Z</time>
      </trkpt>
      <trkpt lat="-11.6623264364898204803466796875" lon="-76.245897375047206878662109375">
        <ele>4008.60009765625</ele>
        <time>2021-07-25T18:25:09.000Z</time>
      </trkpt>
      <trkpt lat="-11.6623485647141933441162109375" lon="-76.24607163481414318084716796875">
        <ele>4008.199951171875</ele>
        <time>2021-07-25T18:25:17.000Z</time>
      </trkpt>
      <trkpt lat="-11.662347726523876190185546875" lon="-76.2462370097637176513671875">
        <ele>4009.39990234375</ele>
        <time>2021-07-25T18:25:24.000Z</time>
      </trkpt>
      <trkpt lat="-11.66234546341001987457275390625" lon="-76.24625980854034423828125">
        <ele>4009.60009765625</ele>
        <time>2021-07-25T18:25:25.000Z</time>
      </trkpt>
      <trkpt lat="-11.662338674068450927734375" lon="-76.24641931615769863128662109375">
        <ele>4009.60009765625</ele>
        <time>2021-07-25T18:25:32.000Z</time>
      </trkpt>
      <trkpt lat="-11.6623234190046787261962890625" lon="-76.24663808383047580718994140625">
        <ele>4010.60009765625</ele>
        <time>2021-07-25T18:25:41.000Z</time>
      </trkpt>
      <trkpt lat="-11.6623217426240444183349609375" lon="-76.2466623075306415557861328125">
        <ele>4010.60009765625</ele>
        <time>2021-07-25T18:25:42.000Z</time>
      </trkpt>
      <trkpt lat="-11.66230673901736736297607421875" lon="-76.2467937357723712921142578125">
        <ele>4010.199951171875</ele>
        <time>2021-07-25T18:25:48.000Z</time>
      </trkpt>
      <trkpt lat="-11.66228427551686763763427734375" lon="-76.2469784729182720184326171875">
        <ele>4010</ele>
        <time>2021-07-25T18:25:56.000Z</time>
      </trkpt>
      <trkpt lat="-11.66223733685910701751708984375" lon="-76.24720721505582332611083984375">
        <ele>4010</ele>
        <time>2021-07-25T18:26:05.000Z</time>
      </trkpt>
      <trkpt lat="-11.6621722094714641571044921875" lon="-76.247393377125263214111328125">
        <ele>4010</ele>
        <time>2021-07-25T18:26:13.000Z</time>
      </trkpt>
      <trkpt lat="-11.66212686337530612945556640625" lon="-76.2475336901843547821044921875">
        <ele>4010.39990234375</ele>
        <time>2021-07-25T18:26:19.000Z</time>
      </trkpt>
      <trkpt lat="-11.66210825555026531219482421875" lon="-76.24762211926281452178955078125">
        <ele>4010.60009765625</ele>
        <time>2021-07-25T18:26:23.000Z</time>
      </trkpt>
      <trkpt lat="-11.66209316812455654144287109375" lon="-76.2476999871432781219482421875">
        <ele>4010.60009765625</ele>
        <time>2021-07-25T18:26:26.000Z</time>
      </trkpt>
      <trkpt lat="-11.6620776616036891937255859375" lon="-76.24780719168484210968017578125">
        <ele>4011.199951171875</ele>
        <time>2021-07-25T18:26:30.000Z</time>
      </trkpt>
      <trkpt lat="-11.66207221336662769317626953125" lon="-76.24794130213558673858642578125">
        <ele>4011.39990234375</ele>
        <time>2021-07-25T18:26:35.000Z</time>
      </trkpt>
      <trkpt lat="-11.66207154281437397003173828125" lon="-76.2480184994637966156005859375">
        <ele>4011.60009765625</ele>
        <time>2021-07-25T18:26:38.000Z</time>
      </trkpt>
      <trkpt lat="-11.66207849979400634765625" lon="-76.24809720553457736968994140625">
        <ele>4012.39990234375</ele>
        <time>2021-07-25T18:26:41.000Z</time>
      </trkpt>
      <trkpt lat="-11.6620940901339054107666015625" lon="-76.248200051486492156982421875">
        <ele>4012.60009765625</ele>
        <time>2021-07-25T18:26:45.000Z</time>
      </trkpt>
      <trkpt lat="-11.6621034778654575347900390625" lon="-76.24825067818164825439453125">
        <ele>4013</ele>
        <time>2021-07-25T18:26:47.000Z</time>
      </trkpt>
      <trkpt lat="-11.66212485171854496002197265625" lon="-76.24832502566277980804443359375">
        <ele>4013.800048828125</ele>
        <time>2021-07-25T18:26:50.000Z</time>
      </trkpt>
      <trkpt lat="-11.66216793470084667205810546875" lon="-76.2484516762197017669677734375">
        <ele>4014.199951171875</ele>
        <time>2021-07-25T18:26:55.000Z</time>
      </trkpt>
      <trkpt lat="-11.66223851032555103302001953125" lon="-76.2486612237989902496337890625">
        <ele>4014.39990234375</ele>
        <time>2021-07-25T18:27:04.000Z</time>
      </trkpt>
      <trkpt lat="-11.66225745342671871185302734375" lon="-76.24870891682803630828857421875">
        <ele>4014.800048828125</ele>
        <time>2021-07-25T18:27:06.000Z</time>
      </trkpt>
      <trkpt lat="-11.6622965969145298004150390625" lon="-76.2488412670791149139404296875">
        <ele>4015</ele>
        <time>2021-07-25T18:27:12.000Z</time>
      </trkpt>
      <trkpt lat="-11.6622721217572689056396484375" lon="-76.24896816909313201904296875">
        <ele>4016</ele>
        <time>2021-07-25T18:27:18.000Z</time>
      </trkpt>
      <trkpt lat="-11.66220716200768947601318359375" lon="-76.24902206473052501678466796875">
        <ele>4016.39990234375</ele>
        <time>2021-07-25T18:27:22.000Z</time>
      </trkpt>
      <trkpt lat="-11.662168689072132110595703125" lon="-76.249036230146884918212890625">
        <ele>4016.60009765625</ele>
        <time>2021-07-25T18:27:24.000Z</time>
      </trkpt>
      <trkpt lat="-11.66211227886378765106201171875" lon="-76.24904369004070758819580078125">
        <ele>4017.199951171875</ele>
        <time>2021-07-25T18:27:27.000Z</time>
      </trkpt>
      <trkpt lat="-11.6620528511703014373779296875" lon="-76.24902558512985706329345703125">
        <ele>4017.39990234375</ele>
        <time>2021-07-25T18:27:30.000Z</time>
      </trkpt>
      <trkpt lat="-11.66197230108082294464111328125" lon="-76.24894126318395137786865234375">
        <ele>4018.199951171875</ele>
        <time>2021-07-25T18:27:36.000Z</time>
      </trkpt>
      <trkpt lat="-11.661929972469806671142578125" lon="-76.24878703616559505462646484375">
        <ele>4018.60009765625</ele>
        <time>2021-07-25T18:27:43.000Z</time>
      </trkpt>
      <trkpt lat="-11.661901809275150299072265625" lon="-76.24858754687011241912841796875">
        <ele>4019.199951171875</ele>
        <time>2021-07-25T18:27:52.000Z</time>
      </trkpt>
      <trkpt lat="-11.661887057125568389892578125" lon="-76.24840163625776767730712890625">
        <ele>4020.39990234375</ele>
        <time>2021-07-25T18:28:00.000Z</time>
      </trkpt>
      <trkpt lat="-11.661870963871479034423828125" lon="-76.248149760067462921142578125">
        <ele>4021.39990234375</ele>
        <time>2021-07-25T18:28:11.000Z</time>
      </trkpt>
      <trkpt lat="-11.6618786752223968505859375" lon="-76.24795404262840747833251953125">
        <ele>4021.39990234375</ele>
        <time>2021-07-25T18:28:19.000Z</time>
      </trkpt>
      <trkpt lat="-11.661890409886837005615234375" lon="-76.24778858385980129241943359375">
        <ele>4022.39990234375</ele>
        <time>2021-07-25T18:28:26.000Z</time>
      </trkpt>
      <trkpt lat="-11.66189652867615222930908203125" lon="-76.24776327051222324371337890625">
        <ele>4022.39990234375</ele>
        <time>2021-07-25T18:28:27.000Z</time>
      </trkpt>
      <trkpt lat="-11.66190616786479949951171875" lon="-76.247717924416065216064453125">
        <ele>4022.60009765625</ele>
        <time>2021-07-25T18:28:29.000Z</time>
      </trkpt>
      <trkpt lat="-11.661935336887836456298828125" lon="-76.24756093136966228485107421875">
        <ele>4023</ele>
        <time>2021-07-25T18:28:36.000Z</time>
      </trkpt>
      <trkpt lat="-11.66196509264409542083740234375" lon="-76.2474455125629901885986328125">
        <ele>4023.60009765625</ele>
        <time>2021-07-25T18:28:41.000Z</time>
      </trkpt>
      <trkpt lat="-11.66197749786078929901123046875" lon="-76.2473989091813564300537109375">
        <ele>4024</ele>
        <time>2021-07-25T18:28:43.000Z</time>
      </trkpt>
      <trkpt lat="-11.66199493221938610076904296875" lon="-76.24735373072326183319091796875">
        <ele>4024.60009765625</ele>
        <time>2021-07-25T18:28:45.000Z</time>
      </trkpt>
      <trkpt lat="-11.6620454750955104827880859375" lon="-76.24719548039138317108154296875">
        <ele>4024.800048828125</ele>
        <time>2021-07-25T18:28:52.000Z</time>
      </trkpt>
      <trkpt lat="-11.6620702855288982391357421875" lon="-76.24710311181843280792236328125">
        <ele>4025.800048828125</ele>
        <time>2021-07-25T18:28:56.000Z</time>
      </trkpt>
      <trkpt lat="-11.66208780370652675628662109375" lon="-76.24703521840274333953857421875">
        <ele>4026.800048828125</ele>
        <time>2021-07-25T18:28:59.000Z</time>
      </trkpt>
      <trkpt lat="-11.662094928324222564697265625" lon="-76.247011162340641021728515625">
        <ele>4027.199951171875</ele>
        <time>2021-07-25T18:29:00.000Z</time>
      </trkpt>
      <trkpt lat="-11.66211563162505626678466796875" lon="-76.2468244135379791259765625">
        <ele>4027.60009765625</ele>
        <time>2021-07-25T18:29:08.000Z</time>
      </trkpt>
      <trkpt lat="-11.6621222533285617828369140625" lon="-76.24676230363547801971435546875">
        <ele>4028.199951171875</ele>
        <time>2021-07-25T18:29:11.000Z</time>
      </trkpt>
      <trkpt lat="-11.6621353290975093841552734375" lon="-76.24672106467187404632568359375">
        <ele>4029.39990234375</ele>
        <time>2021-07-25T18:29:15.000Z</time>
      </trkpt>
      <trkpt lat="-11.662168018519878387451171875" lon="-76.24668468721210956573486328125">
        <ele>4030</ele>
        <time>2021-07-25T18:30:48.000Z</time>
      </trkpt>
      <trkpt lat="-11.66216768324375152587890625" lon="-76.2466686777770519256591796875">
        <ele>4029.800048828125</ele>
        <time>2021-07-25T18:30:49.000Z</time>
      </trkpt>
      <trkpt lat="-11.6621691919863224029541015625" lon="-76.24665166251361370086669921875">
        <ele>4030</ele>
        <time>2021-07-25T18:30:50.000Z</time>
      </trkpt>
      <trkpt lat="-11.66217036545276641845703125" lon="-76.2465724535286426544189453125">
        <ele>4029.60009765625</ele>
        <time>2021-07-25T18:30:54.000Z</time>
      </trkpt>
      <trkpt lat="-11.6621735505759716033935546875" lon="-76.2465050630271434783935546875">
        <ele>4029.800048828125</ele>
        <time>2021-07-25T18:30:57.000Z</time>
      </trkpt>
      <trkpt lat="-11.66217631660401821136474609375" lon="-76.24640456400811672210693359375">
        <ele>4030.60009765625</ele>
        <time>2021-07-25T18:31:01.000Z</time>
      </trkpt>
      <trkpt lat="-11.662174053490161895751953125" lon="-76.24630582518875598907470703125">
        <ele>4031.60009765625</ele>
        <time>2021-07-25T18:31:05.000Z</time>
      </trkpt>
      <trkpt lat="-11.66217380203306674957275390625" lon="-76.24627984128892421722412109375">
        <ele>4032</ele>
        <time>2021-07-25T18:31:06.000Z</time>
      </trkpt>
      <trkpt lat="-11.66217195801436901092529296875" lon="-76.24622854404151439666748046875">
        <ele>4032.800048828125</ele>
        <time>2021-07-25T18:31:08.000Z</time>
      </trkpt>
      <trkpt lat="-11.66216894052922725677490234375" lon="-76.2461023963987827301025390625">
        <ele>4034</ele>
        <time>2021-07-25T18:31:13.000Z</time>
      </trkpt>
      <trkpt lat="-11.66216357611119747161865234375" lon="-76.24605168588459491729736328125">
        <ele>4034.800048828125</ele>
        <time>2021-07-25T18:31:15.000Z</time>
      </trkpt>
      <trkpt lat="-11.66215427219867706298828125" lon="-76.24599955044686794281005859375">
        <ele>4035.199951171875</ele>
        <time>2021-07-25T18:31:17.000Z</time>
      </trkpt>
      <trkpt lat="-11.66211496107280254364013671875" lon="-76.24584448523819446563720703125">
        <ele>4036</ele>
        <time>2021-07-25T18:31:23.000Z</time>
      </trkpt>
      <trkpt lat="-11.662065088748931884765625" lon="-76.2457218579947948455810546875">
        <ele>4037</ele>
        <time>2021-07-25T18:31:28.000Z</time>
      </trkpt>
      <trkpt lat="-11.6620313934981822967529296875" lon="-76.2456527911126613616943359375">
        <ele>4036.800048828125</ele>
        <time>2021-07-25T18:31:31.000Z</time>
      </trkpt>
      <trkpt lat="-11.66192184202373027801513671875" lon="-76.24551608227193355560302734375">
        <ele>4037.800048828125</ele>
        <time>2021-07-25T18:31:37.000Z</time>
      </trkpt>
      <trkpt lat="-11.66189099662005901336669921875" lon="-76.245494373142719268798828125">
        <ele>4038.39990234375</ele>
        <time>2021-07-25T18:31:38.000Z</time>
      </trkpt>
      <trkpt lat="-11.6618218459188938140869140625" lon="-76.24543435871601104736328125">
        <ele>4039.39990234375</ele>
        <time>2021-07-25T18:31:41.000Z</time>
      </trkpt>
      <trkpt lat="-11.66170240379869937896728515625" lon="-76.24532564543187618255615234375">
        <ele>4038.800048828125</ele>
        <time>2021-07-25T18:31:47.000Z</time>
      </trkpt>
      <trkpt lat="-11.6615407168865203857421875" lon="-76.24521215446293354034423828125">
        <ele>4039</ele>
        <time>2021-07-25T18:31:55.000Z</time>
      </trkpt>
      <trkpt lat="-11.66131029836833477020263671875" lon="-76.24508307315409183502197265625">
        <ele>4039.39990234375</ele>
        <time>2021-07-25T18:32:05.000Z</time>
      </trkpt>
      <trkpt lat="-11.6611197777092456817626953125" lon="-76.24496354721486568450927734375">
        <ele>4040.60009765625</ele>
        <time>2021-07-25T18:32:14.000Z</time>
      </trkpt>
      <trkpt lat="-11.66107493452727794647216796875" lon="-76.2449383176863193511962890625">
        <ele>4041</ele>
        <time>2021-07-25T18:32:16.000Z</time>
      </trkpt>
      <trkpt lat="-11.66089254431426525115966796875" lon="-76.2448208034038543701171875">
        <ele>4041.199951171875</ele>
        <time>2021-07-25T18:32:25.000Z</time>
      </trkpt>
      <trkpt lat="-11.66069112718105316162109375" lon="-76.24469901435077190399169921875">
        <ele>4041.60009765625</ele>
        <time>2021-07-25T18:32:34.000Z</time>
      </trkpt>
      <trkpt lat="-11.6605749540030956268310546875" lon="-76.24460756778717041015625">
        <ele>4042.800048828125</ele>
        <time>2021-07-25T18:32:40.000Z</time>
      </trkpt>
      <trkpt lat="-11.6605350561439990997314453125" lon="-76.24457412399351596832275390625">
        <ele>4043.39990234375</ele>
        <time>2021-07-25T18:32:42.000Z</time>
      </trkpt>
      <trkpt lat="-11.6604180447757244110107421875" lon="-76.24446717090904712677001953125">
        <ele>4043.800048828125</ele>
        <time>2021-07-25T18:32:48.000Z</time>
      </trkpt>
      <trkpt lat="-11.660348810255527496337890625" lon="-76.24440095387399196624755859375">
        <ele>4044</ele>
        <time>2021-07-25T18:32:52.000Z</time>
      </trkpt>
      <trkpt lat="-11.66021880693733692169189453125" lon="-76.2442546896636486053466796875">
        <ele>4044.39990234375</ele>
        <time>2021-07-25T18:33:00.000Z</time>
      </trkpt>
      <trkpt lat="-11.6600874625146389007568359375" lon="-76.244096271693706512451171875">
        <ele>4045</ele>
        <time>2021-07-25T18:33:08.000Z</time>
      </trkpt>
      <trkpt lat="-11.6600737161934375762939453125" lon="-76.2440749816596508026123046875">
        <ele>4045.199951171875</ele>
        <time>2021-07-25T18:33:09.000Z</time>
      </trkpt>
      <trkpt lat="-11.659998111426830291748046875" lon="-76.24396853148937225341796875">
        <ele>4046.199951171875</ele>
        <time>2021-07-25T18:33:14.000Z</time>
      </trkpt>
      <trkpt lat="-11.6599154658615589141845703125" lon="-76.24386937357485294342041015625">
        <ele>4046.39990234375</ele>
        <time>2021-07-25T18:33:19.000Z</time>
      </trkpt>
      <trkpt lat="-11.65986391715705394744873046875" lon="-76.243813298642635345458984375">
        <ele>4047.199951171875</ele>
        <time>2021-07-25T18:33:22.000Z</time>
      </trkpt>
      <trkpt lat="-11.65972729213535785675048828125" lon="-76.24369888566434383392333984375">
        <ele>4047.60009765625</ele>
        <time>2021-07-25T18:33:29.000Z</time>
      </trkpt>
      <trkpt lat="-11.65954926051199436187744140625" lon="-76.24359126202762126922607421875">
        <ele>4048.199951171875</ele>
        <time>2021-07-25T18:33:37.000Z</time>
      </trkpt>
      <trkpt lat="-11.65952713228762149810791015625" lon="-76.24357751570641994476318359375">
        <ele>4048.39990234375</ele>
        <time>2021-07-25T18:33:38.000Z</time>
      </trkpt>
      <trkpt lat="-11.6593528725206851959228515625" lon="-76.243463940918445587158203125">
        <ele>4048.39990234375</ele>
        <time>2021-07-25T18:33:46.000Z</time>
      </trkpt>
      <trkpt lat="-11.65916117839515209197998046875" lon="-76.2433330155909061431884765625">
        <ele>4049.199951171875</ele>
        <time>2021-07-25T18:33:55.000Z</time>
      </trkpt>
      <trkpt lat="-11.6591198556125164031982421875" lon="-76.2433041818439960479736328125">
        <ele>4049.60009765625</ele>
        <time>2021-07-25T18:33:57.000Z</time>
      </trkpt>
      <trkpt lat="-11.65901566855609416961669921875" lon="-76.24322430230677127838134765625">
        <ele>4050.800048828125</ele>
        <time>2021-07-25T18:34:02.000Z</time>
      </trkpt>
      <trkpt lat="-11.65894391946494579315185546875" lon="-76.24315758235752582550048828125">
        <ele>4051.199951171875</ele>
        <time>2021-07-25T18:34:06.000Z</time>
      </trkpt>
      <trkpt lat="-11.65885339491069316864013671875" lon="-76.243081055581569671630859375">
        <ele>4051.800048828125</ele>
        <time>2021-07-25T18:34:11.000Z</time>
      </trkpt>
      <trkpt lat="-11.65878063999116420745849609375" lon="-76.24301240779459476470947265625">
        <ele>4052.39990234375</ele>
        <time>2021-07-25T18:34:15.000Z</time>
      </trkpt>
      <trkpt lat="-11.658728085458278656005859375" lon="-76.24296127818524837493896484375">
        <ele>4052.800048828125</ele>
        <time>2021-07-25T18:34:18.000Z</time>
      </trkpt>
      <trkpt lat="-11.6586404107511043548583984375" lon="-76.2428746931254863739013671875">
        <ele>4053.39990234375</ele>
        <time>2021-07-25T18:34:23.000Z</time>
      </trkpt>
      <trkpt lat="-11.658605374395847320556640625" lon="-76.24283974058926105499267578125">
        <ele>4054</ele>
        <time>2021-07-25T18:34:25.000Z</time>
      </trkpt>
      <trkpt lat="-11.6584620438516139984130859375" lon="-76.24270194210112094879150390625">
        <ele>4054.60009765625</ele>
        <time>2021-07-25T18:34:33.000Z</time>
      </trkpt>
      <trkpt lat="-11.6583681665360927581787109375" lon="-76.2426185421645641326904296875">
        <ele>4055.39990234375</ele>
        <time>2021-07-25T18:34:38.000Z</time>
      </trkpt>
      <trkpt lat="-11.6583286039531230926513671875" lon="-76.2425853498280048370361328125">
        <ele>4055.800048828125</ele>
        <time>2021-07-25T18:34:40.000Z</time>
      </trkpt>
      <trkpt lat="-11.6582389175891876220703125" lon="-76.24249625019729137420654296875">
        <ele>4056.60009765625</ele>
        <time>2021-07-25T18:34:45.000Z</time>
      </trkpt>
      <trkpt lat="-11.6581448726356029510498046875" lon="-76.24240941368043422698974609375">
        <ele>4057.199951171875</ele>
        <time>2021-07-25T18:34:50.000Z</time>
      </trkpt>
      <trkpt lat="-11.65804923512041568756103515625" lon="-76.24233045615255832672119140625">
        <ele>4057.800048828125</ele>
        <time>2021-07-25T18:34:55.000Z</time>
      </trkpt>
      <trkpt lat="-11.65794856846332550048828125" lon="-76.24225904233753681182861328125">
        <ele>4058.199951171875</ele>
        <time>2021-07-25T18:35:00.000Z</time>
      </trkpt>
      <trkpt lat="-11.65784790180623531341552734375" lon="-76.24221495352685451507568359375">
        <ele>4058.800048828125</ele>
        <time>2021-07-25T18:35:05.000Z</time>
      </trkpt>
      <trkpt lat="-11.65778453461825847625732421875" lon="-76.24219559133052825927734375">
        <ele>4059.199951171875</ele>
        <time>2021-07-25T18:35:08.000Z</time>
      </trkpt>
      <trkpt lat="-11.65764422155916690826416015625" lon="-76.24216206371784210205078125">
        <ele>4059.800048828125</ele>
        <time>2021-07-25T18:35:14.000Z</time>
      </trkpt>
      <trkpt lat="-11.6575963608920574188232421875" lon="-76.2421565316617488861083984375">
        <ele>4060.199951171875</ele>
        <time>2021-07-25T18:35:16.000Z</time>
      </trkpt>
      <trkpt lat="-11.65750005282461643218994140625" lon="-76.24215309508144855499267578125">
        <ele>4061</ele>
        <time>2021-07-25T18:35:21.000Z</time>
      </trkpt>
      <trkpt lat="-11.65739997290074825286865234375" lon="-76.242155022919178009033203125">
        <ele>4061.39990234375</ele>
        <time>2021-07-25T18:35:25.000Z</time>
      </trkpt>
      <trkpt lat="-11.65732629597187042236328125" lon="-76.24215661548078060150146484375">
        <ele>4062</ele>
        <time>2021-07-25T18:35:28.000Z</time>
      </trkpt>
      <trkpt lat="-11.65719729848206043243408203125" lon="-76.24216633848845958709716796875">
        <ele>4062</ele>
        <time>2021-07-25T18:35:33.000Z</time>
      </trkpt>
      <trkpt lat="-11.65697182528674602508544921875" lon="-76.24214337207376956939697265625">
        <ele>4062.39990234375</ele>
        <time>2021-07-25T18:35:42.000Z</time>
      </trkpt>
      <trkpt lat="-11.65679446421563625335693359375" lon="-76.24208821915090084075927734375">
        <ele>4063</ele>
        <time>2021-07-25T18:35:49.000Z</time>
      </trkpt>
      <trkpt lat="-11.656770743429660797119140625" lon="-76.2420795857906341552734375">
        <ele>4063.199951171875</ele>
        <time>2021-07-25T18:35:50.000Z</time>
      </trkpt>
      <trkpt lat="-11.65657418780028820037841796875" lon="-76.24198646284639835357666015625">
        <ele>4064</ele>
        <time>2021-07-25T18:35:58.000Z</time>
      </trkpt>
      <trkpt lat="-11.65643102489411830902099609375" lon="-76.24191890470683574676513671875">
        <ele>4064.199951171875</ele>
        <time>2021-07-25T18:36:04.000Z</time>
      </trkpt>
      <trkpt lat="-11.65633798576891422271728515625" lon="-76.24187012203037738800048828125">
        <ele>4065</ele>
        <time>2021-07-25T18:36:08.000Z</time>
      </trkpt>
      <trkpt lat="-11.65621108375489711761474609375" lon="-76.24181647785007953643798828125">
        <ele>4065.199951171875</ele>
        <time>2021-07-25T18:36:13.000Z</time>
      </trkpt>
      <trkpt lat="-11.65607043541967868804931640625" lon="-76.24175461940467357635498046875">
        <ele>4065.800048828125</ele>
        <time>2021-07-25T18:36:19.000Z</time>
      </trkpt>
      <trkpt lat="-11.6559471376240253448486328125" lon="-76.2417025677859783172607421875">
        <ele>4066.199951171875</ele>
        <time>2021-07-25T18:36:24.000Z</time>
      </trkpt>
      <trkpt lat="-11.65587522089481353759765625" lon="-76.241678260266780853271484375">
        <ele>4066.60009765625</ele>
        <time>2021-07-25T18:36:27.000Z</time>
      </trkpt>
      <trkpt lat="-11.6556505858898162841796875" lon="-76.2416137196123600006103515625">
        <ele>4067.199951171875</ele>
        <time>2021-07-25T18:36:36.000Z</time>
      </trkpt>
      <trkpt lat="-11.65539418347179889678955078125" lon="-76.24155856668949127197265625">
        <ele>4068.39990234375</ele>
        <time>2021-07-25T18:36:46.000Z</time>
      </trkpt>
      <trkpt lat="-11.65513627231121063232421875" lon="-76.24151607044041156768798828125">
        <ele>4069.39990234375</ele>
        <time>2021-07-25T18:36:56.000Z</time>
      </trkpt>
      <trkpt lat="-11.65489244274795055389404296875" lon="-76.24147902242839336395263671875">
        <ele>4069.800048828125</ele>
        <time>2021-07-25T18:37:06.000Z</time>
      </trkpt>
      <trkpt lat="-11.6546985693275928497314453125" lon="-76.241445578634738922119140625">
        <ele>4070.39990234375</ele>
        <time>2021-07-25T18:37:14.000Z</time>
      </trkpt>
      <trkpt lat="-11.654513664543628692626953125" lon="-76.24140777625143527984619140625">
        <ele>4071.39990234375</ele>
        <time>2021-07-25T18:37:22.000Z</time>
      </trkpt>
      <trkpt lat="-11.65449145250022411346435546875" lon="-76.2414011545479297637939453125">
        <ele>4071.60009765625</ele>
        <time>2021-07-25T18:37:23.000Z</time>
      </trkpt>
      <trkpt lat="-11.65430453605949878692626953125" lon="-76.2413340993225574493408203125">
        <ele>4072</ele>
        <time>2021-07-25T18:37:31.000Z</time>
      </trkpt>
      <trkpt lat="-11.65415215305984020233154296875" lon="-76.2412673793733119964599609375">
        <ele>4072.800048828125</ele>
        <time>2021-07-25T18:37:38.000Z</time>
      </trkpt>
      <trkpt lat="-11.65410622023046016693115234375" lon="-76.2412435747683048248291015625">
        <ele>4073.199951171875</ele>
        <time>2021-07-25T18:37:40.000Z</time>
      </trkpt>
      <trkpt lat="-11.65391393937170505523681640625" lon="-76.24113771133124828338623046875">
        <ele>4073.800048828125</ele>
        <time>2021-07-25T18:37:49.000Z</time>
      </trkpt>
      <trkpt lat="-11.6537353210151195526123046875" lon="-76.24104986898601055145263671875">
        <ele>4075</ele>
        <time>2021-07-25T18:37:57.000Z</time>
      </trkpt>
      <trkpt lat="-11.6536883823573589324951171875" lon="-76.241026818752288818359375">
        <ele>4075.199951171875</ele>
        <time>2021-07-25T18:37:59.000Z</time>
      </trkpt>
      <trkpt lat="-11.65351755917072296142578125" lon="-76.2409163452684879302978515625">
        <ele>4075.800048828125</ele>
        <time>2021-07-25T18:38:07.000Z</time>
      </trkpt>
      <trkpt lat="-11.653462909162044525146484375" lon="-76.24087183736264705657958984375">
        <ele>4076</ele>
        <time>2021-07-25T18:38:10.000Z</time>
      </trkpt>
      <trkpt lat="-11.65334162302315235137939453125" lon="-76.24075633473694324493408203125">
        <ele>4076.60009765625</ele>
        <time>2021-07-25T18:38:17.000Z</time>
      </trkpt>
      <trkpt lat="-11.65330826304852962493896484375" lon="-76.2407232262194156646728515625">
        <ele>4077</ele>
        <time>2021-07-25T18:38:19.000Z</time>
      </trkpt>
      <trkpt lat="-11.65324539877474308013916015625" lon="-76.24066346324980258941650390625">
        <ele>4077.39990234375</ele>
        <time>2021-07-25T18:38:23.000Z</time>
      </trkpt>
      <trkpt lat="-11.65322863496840000152587890625" lon="-76.24065156094729900360107421875">
        <ele>4077.60009765625</ele>
        <time>2021-07-25T18:38:24.000Z</time>
      </trkpt>
      <trkpt lat="-11.65315001271665096282958984375" lon="-76.2405788898468017578125">
        <ele>4078.199951171875</ele>
        <time>2021-07-25T18:38:29.000Z</time>
      </trkpt>
      <trkpt lat="-11.65309100411832332611083984375" lon="-76.2405185401439666748046875">
        <ele>4078.60009765625</ele>
        <time>2021-07-25T18:38:33.000Z</time>
      </trkpt>
      <trkpt lat="-11.6529718972742557525634765625" lon="-76.24040295369923114776611328125">
        <ele>4079.199951171875</ele>
        <time>2021-07-25T18:38:40.000Z</time>
      </trkpt>
      <trkpt lat="-11.652934513986110687255859375" lon="-76.24037009663879871368408203125">
        <ele>4079.39990234375</ele>
        <time>2021-07-25T18:38:42.000Z</time>
      </trkpt>
      <trkpt lat="-11.652855388820171356201171875" lon="-76.24028594233095645904541015625">
        <ele>4080.39990234375</ele>
        <time>2021-07-25T18:38:47.000Z</time>
      </trkpt>
      <trkpt lat="-11.6527697257697582244873046875" lon="-76.2402018718421459197998046875">
        <ele>4080.60009765625</ele>
        <time>2021-07-25T18:38:52.000Z</time>
      </trkpt>
      <trkpt lat="-11.65270593948662281036376953125" lon="-76.24013674445450305938720703125">
        <ele>4081.39990234375</ele>
        <time>2021-07-25T18:38:56.000Z</time>
      </trkpt>
      <trkpt lat="-11.652646176517009735107421875" lon="-76.2400754727423191070556640625">
        <ele>4082.199951171875</ele>
        <time>2021-07-25T18:39:00.000Z</time>
      </trkpt>
      <trkpt lat="-11.652524806559085845947265625" lon="-76.239958964288234710693359375">
        <ele>4082.39990234375</ele>
        <time>2021-07-25T18:39:08.000Z</time>
      </trkpt>
      <trkpt lat="-11.652508713304996490478515625" lon="-76.23994496650993824005126953125">
        <ele>4082.39990234375</ele>
        <time>2021-07-25T18:39:09.000Z</time>
      </trkpt>
      <trkpt lat="-11.65241248905658721923828125" lon="-76.23985092155635356903076171875">
        <ele>4083</ele>
        <time>2021-07-25T18:39:15.000Z</time>
      </trkpt>
      <trkpt lat="-11.65238155983388423919677734375" lon="-76.23981672339141368865966796875">
        <ele>4083.60009765625</ele>
        <time>2021-07-25T18:39:17.000Z</time>
      </trkpt>
      <trkpt lat="-11.65226002223789691925048828125" lon="-76.2397165596485137939453125">
        <ele>4084.39990234375</ele>
        <time>2021-07-25T18:39:24.000Z</time>
      </trkpt>
      <trkpt lat="-11.6522403247654438018798828125" lon="-76.2397023104131221771240234375">
        <ele>4084.60009765625</ele>
        <time>2021-07-25T18:39:25.000Z</time>
      </trkpt>
      <trkpt lat="-11.6522047854959964752197265625" lon="-76.2396657653152942657470703125">
        <ele>4084.60009765625</ele>
        <time>2021-07-25T18:39:27.000Z</time>
      </trkpt>
      <trkpt lat="-11.652099005877971649169921875" lon="-76.2395685352385044097900390625">
        <ele>4085</ele>
        <time>2021-07-25T18:39:33.000Z</time>
      </trkpt>
      <trkpt lat="-11.65198266506195068359375" lon="-76.23944364488124847412109375">
        <ele>4085.800048828125</ele>
        <time>2021-07-25T18:39:40.000Z</time>
      </trkpt>
      <trkpt lat="-11.65195207111537456512451171875" lon="-76.23941170983016490936279296875">
        <ele>4086.199951171875</ele>
        <time>2021-07-25T18:39:42.000Z</time>
      </trkpt>
      <trkpt lat="-11.65178694762289524078369140625" lon="-76.23923703096807003021240234375">
        <ele>4086.60009765625</ele>
        <time>2021-07-25T18:39:52.000Z</time>
      </trkpt>
      <trkpt lat="-11.6517538391053676605224609375" lon="-76.23920367099344730377197265625">
        <ele>4086.800048828125</ele>
        <time>2021-07-25T18:39:54.000Z</time>
      </trkpt>
      <trkpt lat="-11.651628948748111724853515625" lon="-76.23909001238644123077392578125">
        <ele>4087.199951171875</ele>
        <time>2021-07-25T18:40:01.000Z</time>
      </trkpt>
      <trkpt lat="-11.65153783746063709259033203125" lon="-76.23901784420013427734375">
        <ele>4088</ele>
        <time>2021-07-25T18:40:06.000Z</time>
      </trkpt>
      <trkpt lat="-11.6514755599200725555419921875" lon="-76.23894651420414447784423828125">
        <ele>4088.199951171875</ele>
        <time>2021-07-25T18:40:10.000Z</time>
      </trkpt>
      <trkpt lat="-11.651405990123748779296875" lon="-76.23888482339680194854736328125">
        <ele>4089</ele>
        <time>2021-07-25T18:40:14.000Z</time>
      </trkpt>
      <trkpt lat="-11.651320494711399078369140625" lon="-76.2388072907924652099609375">
        <ele>4089.39990234375</ele>
        <time>2021-07-25T18:40:19.000Z</time>
      </trkpt>
      <trkpt lat="-11.6511788405478000640869140625" lon="-76.2386763654649257659912109375">
        <ele>4090</ele>
        <time>2021-07-25T18:40:27.000Z</time>
      </trkpt>
      <trkpt lat="-11.6511617414653301239013671875" lon="-76.23866102658212184906005859375">
        <ele>4090.199951171875</ele>
        <time>2021-07-25T18:40:28.000Z</time>
      </trkpt>
      <trkpt lat="-11.65114489383995532989501953125" lon="-76.2386438436806201934814453125">
        <ele>4090.199951171875</ele>
        <time>2021-07-25T18:40:29.000Z</time>
      </trkpt>
      <trkpt lat="-11.651020757853984832763671875" lon="-76.238528005778789520263671875">
        <ele>4091.199951171875</ele>
        <time>2021-07-25T18:40:36.000Z</time>
      </trkpt>
      <trkpt lat="-11.65086510591208934783935546875" lon="-76.2383548356592655181884765625">
        <ele>4092.199951171875</ele>
        <time>2021-07-25T18:40:46.000Z</time>
      </trkpt>
      <trkpt lat="-11.65084767155349254608154296875" lon="-76.23833983205258846282958984375">
        <ele>4092.39990234375</ele>
        <time>2021-07-25T18:40:47.000Z</time>
      </trkpt>
      <trkpt lat="-11.65071154944598674774169921875" lon="-76.23818811960518360137939453125">
        <ele>4093</ele>
        <time>2021-07-25T18:40:56.000Z</time>
      </trkpt>
      <trkpt lat="-11.65065756998956203460693359375" lon="-76.2381476350128650665283203125">
        <ele>4093.39990234375</ele>
        <time>2021-07-25T18:40:59.000Z</time>
      </trkpt>
      <trkpt lat="-11.6505797021090984344482421875" lon="-76.23806004412472248077392578125">
        <ele>4093.60009765625</ele>
        <time>2021-07-25T18:41:05.000Z</time>
      </trkpt>
      <trkpt lat="-11.65042824111878871917724609375" lon="-76.2379340641200542449951171875">
        <ele>4094.39990234375</ele>
        <time>2021-07-25T18:41:15.000Z</time>
      </trkpt>
      <trkpt lat="-11.6503674723207950592041015625" lon="-76.23787178657948970794677734375">
        <ele>4095.60009765625</ele>
        <time>2021-07-25T18:41:19.000Z</time>
      </trkpt>
      <trkpt lat="-11.65030234493315219879150390625" lon="-76.23781579546630382537841796875">
        <ele>4096</ele>
        <time>2021-07-25T18:41:24.000Z</time>
      </trkpt>
      <trkpt lat="-11.6501240618526935577392578125" lon="-76.23763105832040309906005859375">
        <ele>4099.39990234375</ele>
        <time>2021-07-25T19:05:56.000Z</time>
      </trkpt>
      <trkpt lat="-11.65011241100728511810302734375" lon="-76.237620078027248382568359375">
        <ele>4099.2001953125</ele>
        <time>2021-07-25T19:05:57.000Z</time>
      </trkpt>
      <trkpt lat="-11.6500385664403438568115234375" lon="-76.23754690401256084442138671875">
        <ele>4098.39990234375</ele>
        <time>2021-07-25T19:06:02.000Z</time>
      </trkpt>
      <trkpt lat="-11.64986439049243927001953125" lon="-76.23735747300088405609130859375">
        <ele>4100</ele>
        <time>2021-07-25T19:06:12.000Z</time>
      </trkpt>
      <trkpt lat="-11.64978736080229282379150390625" lon="-76.23728807084262371063232421875">
        <ele>4100.60009765625</ele>
        <time>2021-07-25T19:06:16.000Z</time>
      </trkpt>
      <trkpt lat="-11.64975517429411411285400390625" lon="-76.23725521378219127655029296875">
        <ele>4100.60009765625</ele>
        <time>2021-07-25T19:06:18.000Z</time>
      </trkpt>
      <trkpt lat="-11.6496342234313488006591796875" lon="-76.237153708934783935546875">
        <ele>4101.2001953125</ele>
        <time>2021-07-25T19:06:24.000Z</time>
      </trkpt>
      <trkpt lat="-11.6496151126921176910400390625" lon="-76.23713552020490169525146484375">
        <ele>4101.2001953125</ele>
        <time>2021-07-25T19:06:25.000Z</time>
      </trkpt>
      <trkpt lat="-11.64956524036824703216552734375" lon="-76.23708405531942844390869140625">
        <ele>4101.7998046875</ele>
        <time>2021-07-25T19:06:28.000Z</time>
      </trkpt>
      <trkpt lat="-11.64948443882167339324951171875" lon="-76.2369989790022373199462890625">
        <ele>4102.2001953125</ele>
        <time>2021-07-25T19:06:33.000Z</time>
      </trkpt>
      <trkpt lat="-11.649381257593631744384765625" lon="-76.2368930317461490631103515625">
        <ele>4103</ele>
        <time>2021-07-25T19:06:39.000Z</time>
      </trkpt>
      <trkpt lat="-11.64932920597493648529052734375" lon="-76.23684232123196125030517578125">
        <ele>4103.39990234375</ele>
        <time>2021-07-25T19:06:42.000Z</time>
      </trkpt>
      <trkpt lat="-11.6491779126226902008056640625" lon="-76.23671676032245159149169921875">
        <ele>4104</ele>
        <time>2021-07-25T19:06:50.000Z</time>
      </trkpt>
      <trkpt lat="-11.64905159734189510345458984375" lon="-76.23657996766269207000732421875">
        <ele>4105.2001953125</ele>
        <time>2021-07-25T19:06:58.000Z</time>
      </trkpt>
      <trkpt lat="-11.64903500117361545562744140625" lon="-76.2365617789328098297119140625">
        <ele>4105.2001953125</ele>
        <time>2021-07-25T19:06:59.000Z</time>
      </trkpt>
      <trkpt lat="-11.6488989628851413726806640625" lon="-76.23643043451011180877685546875">
        <ele>4106.2001953125</ele>
        <time>2021-07-25T19:07:07.000Z</time>
      </trkpt>
      <trkpt lat="-11.6488332487642765045166015625" lon="-76.23636136762797832489013671875">
        <ele>4106.60009765625</ele>
        <time>2021-07-25T19:07:11.000Z</time>
      </trkpt>
      <trkpt lat="-11.64873794652521610260009765625" lon="-76.2362828291952610015869140625">
        <ele>4107.2001953125</ele>
        <time>2021-07-25T19:07:16.000Z</time>
      </trkpt>
      <trkpt lat="-11.64868279360234737396240234375" lon="-76.2362318672239780426025390625">
        <ele>4107.60009765625</ele>
        <time>2021-07-25T19:07:19.000Z</time>
      </trkpt>
      <trkpt lat="-11.64856678806245326995849609375" lon="-76.23614075593650341033935546875">
        <ele>4108.2001953125</ele>
        <time>2021-07-25T19:07:25.000Z</time>
      </trkpt>
      <trkpt lat="-11.64850677363574504852294921875" lon="-76.23609197326004505157470703125">
        <ele>4108.39990234375</ele>
        <time>2021-07-25T19:07:28.000Z</time>
      </trkpt>
      <trkpt lat="-11.6483648680150508880615234375" lon="-76.23592735268175601959228515625">
        <ele>4109.39990234375</ele>
        <time>2021-07-25T19:07:37.000Z</time>
      </trkpt>
      <trkpt lat="-11.64835271425545215606689453125" lon="-76.23590690083801746368408203125">
        <ele>4109.39990234375</ele>
        <time>2021-07-25T19:07:38.000Z</time>
      </trkpt>
      <trkpt lat="-11.6482609324157238006591796875" lon="-76.23580464161932468414306640625">
        <ele>4110.2001953125</ele>
        <time>2021-07-25T19:07:44.000Z</time>
      </trkpt>
      <trkpt lat="-11.648216508328914642333984375" lon="-76.235756613314151763916015625">
        <ele>4110.60009765625</ele>
        <time>2021-07-25T19:07:47.000Z</time>
      </trkpt>
      <trkpt lat="-11.64811148308217525482177734375" lon="-76.2356374226510524749755859375">
        <ele>4111.2001953125</ele>
        <time>2021-07-25T19:07:54.000Z</time>
      </trkpt>
      <trkpt lat="-11.64809547364711761474609375" lon="-76.235621161758899688720703125">
        <ele>4111.60009765625</ele>
        <time>2021-07-25T19:07:55.000Z</time>
      </trkpt>
      <trkpt lat="-11.64796882309019565582275390625" lon="-76.2355053238570690155029296875">
        <ele>4112.60009765625</ele>
        <time>2021-07-25T19:08:02.000Z</time>
      </trkpt>
      <trkpt lat="-11.6479497961699962615966796875" lon="-76.2354905717074871063232421875">
        <ele>4112.7998046875</ele>
        <time>2021-07-25T19:08:03.000Z</time>
      </trkpt>
      <trkpt lat="-11.6478146798908710479736328125" lon="-76.2353534437716007232666015625">
        <ele>4113</ele>
        <time>2021-07-25T19:08:11.000Z</time>
      </trkpt>
      <trkpt lat="-11.6477405838668346405029296875" lon="-76.23528362251818180084228515625">
        <ele>4113.7998046875</ele>
        <time>2021-07-25T19:08:15.000Z</time>
      </trkpt>
      <trkpt lat="-11.647672019898891448974609375" lon="-76.23521639965474605560302734375">
        <ele>4114.2001953125</ele>
        <time>2021-07-25T19:08:19.000Z</time>
      </trkpt>
      <trkpt lat="-11.64757973514497280120849609375" lon="-76.23512973077595233917236328125">
        <ele>4115</ele>
        <time>2021-07-25T19:08:24.000Z</time>
      </trkpt>
      <trkpt lat="-11.64753145538270473480224609375" lon="-76.2350744940340518951416015625">
        <ele>4115.39990234375</ele>
        <time>2021-07-25T19:08:27.000Z</time>
      </trkpt>
      <trkpt lat="-11.647422574460506439208984375" lon="-76.23494482599198818206787109375">
        <ele>4116</ele>
        <time>2021-07-25T19:08:34.000Z</time>
      </trkpt>
      <trkpt lat="-11.647409833967685699462890625" lon="-76.2349242903292179107666015625">
        <ele>4116.2001953125</ele>
        <time>2021-07-25T19:08:35.000Z</time>
      </trkpt>
      <trkpt lat="-11.647319979965686798095703125" lon="-76.2347982265055179595947265625">
        <ele>4117</ele>
        <time>2021-07-25T19:08:41.000Z</time>
      </trkpt>
      <trkpt lat="-11.64729215204715728759765625" lon="-76.23475925065577030181884765625">
        <ele>4117.60009765625</ele>
        <time>2021-07-25T19:08:43.000Z</time>
      </trkpt>
      <trkpt lat="-11.64723289199173450469970703125" lon="-76.23467643745243549346923828125">
        <ele>4118.2001953125</ele>
        <time>2021-07-25T19:08:47.000Z</time>
      </trkpt>
      <trkpt lat="-11.6471707820892333984375" lon="-76.23460468836128711700439453125">
        <ele>4118.60009765625</ele>
        <time>2021-07-25T19:08:51.000Z</time>
      </trkpt>
      <trkpt lat="-11.6470730490982532501220703125" lon="-76.23453193344175815582275390625">
        <ele>4119.39990234375</ele>
        <time>2021-07-25T19:08:56.000Z</time>
      </trkpt>
      <trkpt lat="-11.6470085084438323974609375" lon="-76.234491281211376190185546875">
        <ele>4119.39990234375</ele>
        <time>2021-07-25T19:08:59.000Z</time>
      </trkpt>
      <trkpt lat="-11.64680935442447662353515625" lon="-76.23439882881939411163330078125">
        <ele>4120.2001953125</ele>
        <time>2021-07-25T19:09:08.000Z</time>
      </trkpt>
      <trkpt lat="-11.6467381082475185394287109375" lon="-76.23437250964343547821044921875">
        <ele>4120.39990234375</ele>
        <time>2021-07-25T19:09:11.000Z</time>
      </trkpt>
      <trkpt lat="-11.6466231085360050201416015625" lon="-76.23432691209018230438232421875">
        <ele>4120.7998046875</ele>
        <time>2021-07-25T19:09:16.000Z</time>
      </trkpt>
      <trkpt lat="-11.64652629755437374114990234375" lon="-76.2342876009643077850341796875">
        <ele>4121.60009765625</ele>
        <time>2021-07-25T19:09:20.000Z</time>
      </trkpt>
      <trkpt lat="-11.64638288319110870361328125" lon="-76.2342319451272487640380859375">
        <ele>4122</ele>
        <time>2021-07-25T19:09:26.000Z</time>
      </trkpt>
      <trkpt lat="-11.646206863224506378173828125" lon="-76.234167404472827911376953125">
        <ele>4122.39990234375</ele>
        <time>2021-07-25T19:09:33.000Z</time>
      </trkpt>
      <trkpt lat="-11.64618465118110179901123046875" lon="-76.23415810056030750274658203125">
        <ele>4122.60009765625</ele>
        <time>2021-07-25T19:09:34.000Z</time>
      </trkpt>
      <trkpt lat="-11.6460068710148334503173828125" lon="-76.2340666539967060089111328125">
        <ele>4123.39990234375</ele>
        <time>2021-07-25T19:09:42.000Z</time>
      </trkpt>
      <trkpt lat="-11.64595833979547023773193359375" lon="-76.2340488843619823455810546875">
        <ele>4123.60009765625</ele>
        <time>2021-07-25T19:09:44.000Z</time>
      </trkpt>
      <trkpt lat="-11.64580889046192169189453125" lon="-76.23396523296833038330078125">
        <ele>4124.60009765625</ele>
        <time>2021-07-25T19:09:51.000Z</time>
      </trkpt>
      <trkpt lat="-11.64576287381350994110107421875" lon="-76.2339389137923717498779296875">
        <ele>4124.60009765625</ele>
        <time>2021-07-25T19:09:53.000Z</time>
      </trkpt>
      <trkpt lat="-11.64564703591167926788330078125" lon="-76.23388250358402729034423828125">
        <ele>4125.60009765625</ele>
        <time>2021-07-25T19:09:58.000Z</time>
      </trkpt>
      <trkpt lat="-11.64551644586026668548583984375" lon="-76.2338074855506420135498046875">
        <ele>4126.7998046875</ele>
        <time>2021-07-25T19:10:04.000Z</time>
      </trkpt>
      <trkpt lat="-11.645494066178798675537109375" lon="-76.2337969243526458740234375">
        <ele>4127</ele>
        <time>2021-07-25T19:10:05.000Z</time>
      </trkpt>
      <trkpt lat="-11.64532450027763843536376953125" lon="-76.23371771536767482757568359375">
        <ele>4127.60009765625</ele>
        <time>2021-07-25T19:10:13.000Z</time>
      </trkpt>
      <trkpt lat="-11.64528108201920986175537109375" lon="-76.23369726352393627166748046875">
        <ele>4128</ele>
        <time>2021-07-25T19:10:15.000Z</time>
      </trkpt>
      <trkpt lat="-11.64516708813607692718505859375" lon="-76.23365887440741062164306640625">
        <ele>4128.7998046875</ele>
        <time>2021-07-25T19:10:20.000Z</time>
      </trkpt>
      <trkpt lat="-11.64507941342890262603759765625" lon="-76.23363808728754520416259765625">
        <ele>4129.2001953125</ele>
        <time>2021-07-25T19:10:24.000Z</time>
      </trkpt>
      <trkpt lat="-11.64498721249401569366455078125" lon="-76.2336207367479801177978515625">
        <ele>4129.60009765625</ele>
        <time>2021-07-25T19:10:28.000Z</time>
      </trkpt>
      <trkpt lat="-11.64485176093876361846923828125" lon="-76.233602799475193023681640625">
        <ele>4130.2001953125</ele>
        <time>2021-07-25T19:10:34.000Z</time>
      </trkpt>
      <trkpt lat="-11.6448095999658107757568359375" lon="-76.2335965968668460845947265625">
        <ele>4130.60009765625</ele>
        <time>2021-07-25T19:10:36.000Z</time>
      </trkpt>
      <trkpt lat="-11.64463031105697154998779296875" lon="-76.233566589653491973876953125">
        <ele>4131.2001953125</ele>
        <time>2021-07-25T19:10:44.000Z</time>
      </trkpt>
      <trkpt lat="-11.6445366851985454559326171875" lon="-76.23355577699840068817138671875">
        <ele>4131.39990234375</ele>
        <time>2021-07-25T19:10:48.000Z</time>
      </trkpt>
      <trkpt lat="-11.64444708265364170074462890625" lon="-76.23354253359138965606689453125">
        <ele>4131.60009765625</ele>
        <time>2021-07-25T19:10:52.000Z</time>
      </trkpt>
      <trkpt lat="-11.64428279735147953033447265625" lon="-76.23352174647152423858642578125">
        <ele>4132.60009765625</ele>
        <time>2021-07-25T19:10:59.000Z</time>
      </trkpt>
      <trkpt lat="-11.64426251314580440521240234375" lon="-76.2335171364247798919677734375">
        <ele>4132.60009765625</ele>
        <time>2021-07-25T19:11:00.000Z</time>
      </trkpt>
      <trkpt lat="-11.644098646938800811767578125" lon="-76.233479417860507965087890625">
        <ele>4133.60009765625</ele>
        <time>2021-07-25T19:11:07.000Z</time>
      </trkpt>
      <trkpt lat="-11.64393528364598751068115234375" lon="-76.23345117084681987762451171875">
        <ele>4134.39990234375</ele>
        <time>2021-07-25T19:11:14.000Z</time>
      </trkpt>
      <trkpt lat="-11.64388800971210002899169921875" lon="-76.23344161547720432281494140625">
        <ele>4134.7998046875</ele>
        <time>2021-07-25T19:11:16.000Z</time>
      </trkpt>
      <trkpt lat="-11.64371483959257602691650390625" lon="-76.23339593410491943359375">
        <ele>4135.39990234375</ele>
        <time>2021-07-25T19:11:24.000Z</time>
      </trkpt>
      <trkpt lat="-11.64357201196253299713134765625" lon="-76.233354024589061737060546875">
        <ele>4136</ele>
        <time>2021-07-25T19:11:30.000Z</time>
      </trkpt>
      <trkpt lat="-11.64348207414150238037109375" lon="-76.2333293817937374114990234375">
        <ele>4136.39990234375</ele>
        <time>2021-07-25T19:11:34.000Z</time>
      </trkpt>
      <trkpt lat="-11.64335793815553188323974609375" lon="-76.23326710425317287445068359375">
        <ele>4137</ele>
        <time>2021-07-25T19:11:40.000Z</time>
      </trkpt>
      <trkpt lat="-11.643283255398273468017578125" lon="-76.23321832157671451568603515625">
        <ele>4137.39990234375</ele>
        <time>2021-07-25T19:11:44.000Z</time>
      </trkpt>
      <trkpt lat="-11.64314503781497478485107421875" lon="-76.233148835599422454833984375">
        <ele>4138.39990234375</ele>
        <time>2021-07-25T19:11:50.000Z</time>
      </trkpt>
      <trkpt lat="-11.64309927262365818023681640625" lon="-76.23312729410827159881591796875">
        <ele>4138.60009765625</ele>
        <time>2021-07-25T19:11:52.000Z</time>
      </trkpt>
      <trkpt lat="-11.6429404355585575103759765625" lon="-76.23305085115134716033935546875">
        <ele>4139.39990234375</ele>
        <time>2021-07-25T19:11:59.000Z</time>
      </trkpt>
      <trkpt lat="-11.64279676973819732666015625" lon="-76.2329761683940887451171875">
        <ele>4140.39990234375</ele>
        <time>2021-07-25T19:12:06.000Z</time>
      </trkpt>
      <trkpt lat="-11.64274941198527812957763671875" lon="-76.23295814730226993560791015625">
        <ele>4140.60009765625</ele>
        <time>2021-07-25T19:12:08.000Z</time>
      </trkpt>
      <trkpt lat="-11.642604656517505645751953125" lon="-76.23289528302848339080810546875">
        <ele>4141.39990234375</ele>
        <time>2021-07-25T19:12:14.000Z</time>
      </trkpt>
      <trkpt lat="-11.64253382943570613861083984375" lon="-76.2328797765076160430908203125">
        <ele>4141.60009765625</ele>
        <time>2021-07-25T19:12:17.000Z</time>
      </trkpt>
      <trkpt lat="-11.64236283861100673675537109375" lon="-76.232851780951023101806640625">
        <ele>4142.39990234375</ele>
        <time>2021-07-25T19:12:24.000Z</time>
      </trkpt>
      <trkpt lat="-11.64230936206877231597900390625" lon="-76.23285085894167423248291015625">
        <ele>4142.60009765625</ele>
        <time>2021-07-25T19:12:26.000Z</time>
      </trkpt>
      <trkpt lat="-11.64215010590851306915283203125" lon="-76.23285588808357715606689453125">
        <ele>4143.39990234375</ele>
        <time>2021-07-25T19:12:32.000Z</time>
      </trkpt>
      <trkpt lat="-11.64204172790050506591796875" lon="-76.2328566424548625946044921875">
        <ele>4143.7998046875</ele>
        <time>2021-07-25T19:12:36.000Z</time>
      </trkpt>
      <trkpt lat="-11.641855649650096893310546875" lon="-76.23287382535636425018310546875">
        <ele>4145</ele>
        <time>2021-07-25T19:12:43.000Z</time>
      </trkpt>
      <trkpt lat="-11.64163210429251194000244140625" lon="-76.23289243318140506744384765625">
        <ele>4145.7998046875</ele>
        <time>2021-07-25T19:12:51.000Z</time>
      </trkpt>
      <trkpt lat="-11.6416067071259021759033203125" lon="-76.23289830051362514495849609375">
        <ele>4146.2001953125</ele>
        <time>2021-07-25T19:12:52.000Z</time>
      </trkpt>
      <trkpt lat="-11.64139422588050365447998046875" lon="-76.23294339515268802642822265625">
        <ele>4147</ele>
        <time>2021-07-25T19:13:00.000Z</time>
      </trkpt>
      <trkpt lat="-11.6412605345249176025390625" lon="-76.23296904377639293670654296875">
        <ele>4147.2001953125</ele>
        <time>2021-07-25T19:13:05.000Z</time>
      </trkpt>
      <trkpt lat="-11.64112449623644351959228515625" lon="-76.23299427330493927001953125">
        <ele>4147.7998046875</ele>
        <time>2021-07-25T19:13:10.000Z</time>
      </trkpt>
      <trkpt lat="-11.64095937274396419525146484375" lon="-76.2330137193202972412109375">
        <ele>4148.39990234375</ele>
        <time>2021-07-25T19:13:16.000Z</time>
      </trkpt>
      <trkpt lat="-11.6408439539372920989990234375" lon="-76.23301095329225063323974609375">
        <ele>4149.39990234375</ele>
        <time>2021-07-25T19:13:20.000Z</time>
      </trkpt>
      <trkpt lat="-11.64067790843546390533447265625" lon="-76.233007013797760009765625">
        <ele>4150</ele>
        <time>2021-07-25T19:13:26.000Z</time>
      </trkpt>
      <trkpt lat="-11.640510857105255126953125" lon="-76.23300022445619106292724609375">
        <ele>4150.60009765625</ele>
        <time>2021-07-25T19:13:32.000Z</time>
      </trkpt>
      <trkpt lat="-11.64042770862579345703125" lon="-76.23299955390393733978271484375">
        <ele>4151.2001953125</ele>
        <time>2021-07-25T19:13:35.000Z</time>
      </trkpt>
      <trkpt lat="-11.64032377302646636962890625" lon="-76.2330043315887451171875">
        <ele>4151.7998046875</ele>
        <time>2021-07-25T19:13:39.000Z</time>
      </trkpt>
      <trkpt lat="-11.64021187461912631988525390625" lon="-76.23300692997872829437255859375">
        <ele>4152.39990234375</ele>
        <time>2021-07-25T19:13:43.000Z</time>
      </trkpt>
      <trkpt lat="-11.640103161334991455078125" lon="-76.23301480896770954132080078125">
        <ele>4153</ele>
        <time>2021-07-25T19:13:47.000Z</time>
      </trkpt>
      <trkpt lat="-11.64002093486487865447998046875" lon="-76.233021430671215057373046875">
        <ele>4153</ele>
        <time>2021-07-25T19:13:51.000Z</time>
      </trkpt>
      <trkpt lat="-11.63982831872999668121337890625" lon="-76.23304347507655620574951171875">
        <ele>4153.7998046875</ele>
        <time>2021-07-25T19:13:58.000Z</time>
      </trkpt>
      <trkpt lat="-11.639802753925323486328125" lon="-76.233045570552349090576171875">
        <ele>4154</ele>
        <time>2021-07-25T19:13:59.000Z</time>
      </trkpt>
      <trkpt lat="-11.63959546945989131927490234375" lon="-76.23305722139775753021240234375">
        <ele>4154.60009765625</ele>
        <time>2021-07-25T19:14:07.000Z</time>
      </trkpt>
      <trkpt lat="-11.6395152546465396881103515625" lon="-76.23305990360677242279052734375">
        <ele>4155.39990234375</ele>
        <time>2021-07-25T19:14:10.000Z</time>
      </trkpt>
      <trkpt lat="-11.63935591466724872589111328125" lon="-76.23305789195001125335693359375">
        <ele>4156.39990234375</ele>
        <time>2021-07-25T19:14:16.000Z</time>
      </trkpt>
      <trkpt lat="-11.63932976312935352325439453125" lon="-76.23305973596870899200439453125">
        <ele>4156.60009765625</ele>
        <time>2021-07-25T19:14:17.000Z</time>
      </trkpt>
      <trkpt lat="-11.6391072236001491546630859375" lon="-76.233046911656856536865234375">
        <ele>4157.39990234375</ele>
        <time>2021-07-25T19:14:25.000Z</time>
      </trkpt>
      <trkpt lat="-11.63907797075808048248291015625" lon="-76.23304816894233226776123046875">
        <ele>4157.60009765625</ele>
        <time>2021-07-25T19:14:26.000Z</time>
      </trkpt>
      <trkpt lat="-11.6389700956642627716064453125" lon="-76.2330432236194610595703125">
        <ele>4158.60009765625</ele>
        <time>2021-07-25T19:14:30.000Z</time>
      </trkpt>
      <trkpt lat="-11.638843528926372528076171875" lon="-76.23303660191595554351806640625">
        <ele>4159</ele>
        <time>2021-07-25T19:14:35.000Z</time>
      </trkpt>
      <trkpt lat="-11.63865619339048862457275390625" lon="-76.2330271303653717041015625">
        <ele>4159.60009765625</ele>
        <time>2021-07-25T19:14:42.000Z</time>
      </trkpt>
      <trkpt lat="-11.6386318020522594451904296875" lon="-76.23302537016570568084716796875">
        <ele>4160</ele>
        <time>2021-07-25T19:14:43.000Z</time>
      </trkpt>
      <trkpt lat="-11.63844832219183444976806640625" lon="-76.23301397077739238739013671875">
        <ele>4160.39990234375</ele>
        <time>2021-07-25T19:14:51.000Z</time>
      </trkpt>
      <trkpt lat="-11.6383793391287326812744140625" lon="-76.2330021522939205169677734375">
        <ele>4160.60009765625</ele>
        <time>2021-07-25T19:14:54.000Z</time>
      </trkpt>
      <trkpt lat="-11.638313792645931243896484375" lon="-76.23300106264650821685791015625">
        <ele>4161</ele>
        <time>2021-07-25T19:14:57.000Z</time>
      </trkpt>
      <trkpt lat="-11.63827012293040752410888671875" lon="-76.23300273902714252471923828125">
        <ele>4161.2001953125</ele>
        <time>2021-07-25T19:14:59.000Z</time>
      </trkpt>
      <trkpt lat="-11.63821195252239704132080078125" lon="-76.232999972999095916748046875">
        <ele>4161.60009765625</ele>
        <time>2021-07-25T19:15:02.000Z</time>
      </trkpt>
      <trkpt lat="-11.63813500665128231048583984375" lon="-76.23299972154200077056884765625">
        <ele>4162.2001953125</ele>
        <time>2021-07-25T19:15:06.000Z</time>
      </trkpt>
      <trkpt lat="-11.6379984654486179351806640625" lon="-76.23300097882747650146484375">
        <ele>4162.7998046875</ele>
        <time>2021-07-25T19:15:12.000Z</time>
      </trkpt>
      <trkpt lat="-11.6379265487194061279296875" lon="-76.23299695551395416259765625">
        <ele>4163.2001953125</ele>
        <time>2021-07-25T19:15:15.000Z</time>
      </trkpt>
      <trkpt lat="-11.63779905997216701507568359375" lon="-76.23299159109592437744140625">
        <ele>4164</ele>
        <time>2021-07-25T19:15:20.000Z</time>
      </trkpt>
      <trkpt lat="-11.637680120766162872314453125" lon="-76.2329890765249729156494140625">
        <ele>4164.39990234375</ele>
        <time>2021-07-25T19:15:25.000Z</time>
      </trkpt>
      <trkpt lat="-11.63757626898586750030517578125" lon="-76.23298144899308681488037109375">
        <ele>4165</ele>
        <time>2021-07-25T19:15:29.000Z</time>
      </trkpt>
      <trkpt lat="-11.6374516300857067108154296875" lon="-76.2329776771366596221923828125">
        <ele>4165.39990234375</ele>
        <time>2021-07-25T19:15:34.000Z</time>
      </trkpt>
      <trkpt lat="-11.63734995760023593902587890625" lon="-76.23297147452831268310546875">
        <ele>4166</ele>
        <time>2021-07-25T19:15:38.000Z</time>
      </trkpt>
      <trkpt lat="-11.6371929645538330078125" lon="-76.232969127595424652099609375">
        <ele>4167</ele>
        <time>2021-07-25T19:15:44.000Z</time>
      </trkpt>
      <trkpt lat="-11.637143008410930633544921875" lon="-76.23296476900577545166015625">
        <ele>4167.2001953125</ele>
        <time>2021-07-25T19:15:46.000Z</time>
      </trkpt>
      <trkpt lat="-11.63701501674950122833251953125" lon="-76.23295546509325504302978515625">
        <ele>4167.7998046875</ele>
        <time>2021-07-25T19:15:51.000Z</time>
      </trkpt>
      <trkpt lat="-11.6368451155722141265869140625" lon="-76.23293124139308929443359375">
        <ele>4168.39990234375</ele>
        <time>2021-07-25T19:15:58.000Z</time>
      </trkpt>
      <trkpt lat="-11.636820137500762939453125" lon="-76.232928223907947540283203125">
        <ele>4168.39990234375</ele>
        <time>2021-07-25T19:15:59.000Z</time>
      </trkpt>
      <trkpt lat="-11.63666565902531147003173828125" lon="-76.2329025752842426300048828125">
        <ele>4169.60009765625</ele>
        <time>2021-07-25T19:16:05.000Z</time>
      </trkpt>
      <trkpt lat="-11.6365921497344970703125" lon="-76.23289125971496105194091796875">
        <ele>4170</ele>
        <time>2021-07-25T19:16:08.000Z</time>
      </trkpt>
      <trkpt lat="-11.63646943867206573486328125" lon="-76.23287491500377655029296875">
        <ele>4170.60009765625</ele>
        <time>2021-07-25T19:16:13.000Z</time>
      </trkpt>
      <trkpt lat="-11.63637279532849788665771484375" lon="-76.2328581511974334716796875">
        <ele>4171.2001953125</ele>
        <time>2021-07-25T19:16:17.000Z</time>
      </trkpt>
      <trkpt lat="-11.6363230906426906585693359375" lon="-76.2328527867794036865234375">
        <ele>4171.60009765625</ele>
        <time>2021-07-25T19:16:19.000Z</time>
      </trkpt>
      <trkpt lat="-11.6363002918660640716552734375" lon="-76.2328449077904224395751953125">
        <ele>4171.60009765625</ele>
        <time>2021-07-25T19:16:20.000Z</time>
      </trkpt>
      <trkpt lat="-11.636190824210643768310546875" lon="-76.23282906599342823028564453125">
        <ele>4172.39990234375</ele>
        <time>2021-07-25T19:16:25.000Z</time>
      </trkpt>
      <trkpt lat="-11.6361697018146514892578125" lon="-76.2328313291072845458984375">
        <ele>4172.60009765625</ele>
        <time>2021-07-25T19:16:26.000Z</time>
      </trkpt>
      <trkpt lat="-11.63600281812250614166259765625" lon="-76.23283409513533115386962890625">
        <ele>4173</ele>
        <time>2021-07-25T19:16:33.000Z</time>
      </trkpt>
      <trkpt lat="-11.63590508513152599334716796875" lon="-76.2328355200588703155517578125">
        <ele>4173.7998046875</ele>
        <time>2021-07-25T19:16:37.000Z</time>
      </trkpt>
      <trkpt lat="-11.63576074875891208648681640625" lon="-76.23282554559409618377685546875">
        <ele>4174.7998046875</ele>
        <time>2021-07-25T19:16:43.000Z</time>
      </trkpt>
      <trkpt lat="-11.6355715692043304443359375" lon="-76.23281800188124179840087890625">
        <ele>4175.39990234375</ele>
        <time>2021-07-25T19:16:51.000Z</time>
      </trkpt>
      <trkpt lat="-11.63552169688045978546142578125" lon="-76.23281464911997318267822265625">
        <ele>4176</ele>
        <time>2021-07-25T19:16:53.000Z</time>
      </trkpt>
      <trkpt lat="-11.635307036340236663818359375" lon="-76.2328073568642139434814453125">
        <ele>4177</ele>
        <time>2021-07-25T19:17:02.000Z</time>
      </trkpt>
      <trkpt lat="-11.6351415775716304779052734375" lon="-76.232808530330657958984375">
        <ele>4177.60009765625</ele>
        <time>2021-07-25T19:17:09.000Z</time>
      </trkpt>
      <trkpt lat="-11.63508810102939605712890625" lon="-76.2328056804835796356201171875">
        <ele>4178.2001953125</ele>
        <time>2021-07-25T19:17:11.000Z</time>
      </trkpt>
      <trkpt lat="-11.6349035315215587615966796875" lon="-76.23279654420912265777587890625">
        <ele>4178.60009765625</ele>
        <time>2021-07-25T19:17:19.000Z</time>
      </trkpt>
      <trkpt lat="-11.63486220873892307281494140625" lon="-76.2327966280281543731689453125">
        <ele>4178.7998046875</ele>
        <time>2021-07-25T19:17:21.000Z</time>
      </trkpt>
      <trkpt lat="-11.6347301937639713287353515625" lon="-76.23280174098908901214599609375">
        <ele>4179.7998046875</ele>
        <time>2021-07-25T19:17:27.000Z</time>
      </trkpt>
      <trkpt lat="-11.6347063891589641571044921875" lon="-76.23279972933232784271240234375">
        <ele>4180</ele>
        <time>2021-07-25T19:17:28.000Z</time>
      </trkpt>
      <trkpt lat="-11.63454118184745311737060546875" lon="-76.23279981315135955810546875">
        <ele>4180.60009765625</ele>
        <time>2021-07-25T19:17:35.000Z</time>
      </trkpt>
      <trkpt lat="-11.6344723664224147796630859375" lon="-76.2328150682151317596435546875">
        <ele>4181.2001953125</ele>
        <time>2021-07-25T19:17:38.000Z</time>
      </trkpt>
      <trkpt lat="-11.6343858651816844940185546875" lon="-76.23283803462982177734375">
        <ele>4181.7998046875</ele>
        <time>2021-07-25T19:17:42.000Z</time>
      </trkpt>
      <trkpt lat="-11.6342282854020595550537109375" lon="-76.23290752060711383819580078125">
        <ele>4182.39990234375</ele>
        <time>2021-07-25T19:17:49.000Z</time>
      </trkpt>
      <trkpt lat="-11.63420724682509899139404296875" lon="-76.232921183109283447265625">
        <ele>4182.60009765625</ele>
        <time>2021-07-25T19:17:50.000Z</time>
      </trkpt>
      <trkpt lat="-11.6341287083923816680908203125" lon="-76.2329833768308162689208984375">
        <ele>4183.39990234375</ele>
        <time>2021-07-25T19:17:54.000Z</time>
      </trkpt>
      <trkpt lat="-11.6340415365993976593017578125" lon="-76.23307163827121257781982421875">
        <ele>4183.2001953125</ele>
        <time>2021-07-25T19:17:59.000Z</time>
      </trkpt>
      <trkpt lat="-11.63394388742744922637939453125" lon="-76.23319887556135654449462890625">
        <ele>4183.39990234375</ele>
        <time>2021-07-25T19:18:05.000Z</time>
      </trkpt>
      <trkpt lat="-11.63387414999306201934814453125" lon="-76.23328252695500850677490234375">
        <ele>4184.7998046875</ele>
        <time>2021-07-25T19:18:09.000Z</time>
      </trkpt>
      <trkpt lat="-11.63376602344214916229248046875" lon="-76.2334075011312961578369140625">
        <ele>4185</ele>
        <time>2021-07-25T19:18:15.000Z</time>
      </trkpt>
      <trkpt lat="-11.63360944949090480804443359375" lon="-76.2335070781409740447998046875">
        <ele>4185.39990234375</ele>
        <time>2021-07-25T19:18:22.000Z</time>
      </trkpt>
      <trkpt lat="-11.633432842791080474853515625" lon="-76.2335731275379657745361328125">
        <ele>4185.7998046875</ele>
        <time>2021-07-25T19:18:29.000Z</time>
      </trkpt>
      <trkpt lat="-11.63336369208991527557373046875" lon="-76.2336006201803684234619140625">
        <ele>4187</ele>
        <time>2021-07-25T19:18:32.000Z</time>
      </trkpt>
      <trkpt lat="-11.63319286890327930450439453125" lon="-76.233666501939296722412109375">
        <ele>4187.2001953125</ele>
        <time>2021-07-25T19:18:39.000Z</time>
      </trkpt>
      <trkpt lat="-11.633140146732330322265625" lon="-76.23368770815432071685791015625">
        <ele>4188</ele>
        <time>2021-07-25T19:18:41.000Z</time>
      </trkpt>
      <trkpt lat="-11.632970832288265228271484375" lon="-76.23375342227518558502197265625">
        <ele>4188.39990234375</ele>
        <time>2021-07-25T19:18:48.000Z</time>
      </trkpt>
      <trkpt lat="-11.63281023502349853515625" lon="-76.23380438424646854400634765625">
        <ele>4189</ele>
        <time>2021-07-25T19:18:55.000Z</time>
      </trkpt>
      <trkpt lat="-11.6327882744371891021728515625" lon="-76.23381075449287891387939453125">
        <ele>4189</ele>
        <time>2021-07-25T19:18:56.000Z</time>
      </trkpt>
      <trkpt lat="-11.63261166773736476898193359375" lon="-76.23387713916599750518798828125">
        <ele>4189</ele>
        <time>2021-07-25T19:19:03.000Z</time>
      </trkpt>
      <trkpt lat="-11.632402874529361724853515625" lon="-76.23394687660038471221923828125">
        <ele>4190</ele>
        <time>2021-07-25T19:19:12.000Z</time>
      </trkpt>
      <trkpt lat="-11.63237781263887882232666015625" lon="-76.23395207338035106658935546875">
        <ele>4190.60009765625</ele>
        <time>2021-07-25T19:19:13.000Z</time>
      </trkpt>
      <trkpt lat="-11.6322766430675983428955078125" lon="-76.233980655670166015625">
        <ele>4191.39990234375</ele>
        <time>2021-07-25T19:19:17.000Z</time>
      </trkpt>
      <trkpt lat="-11.6321556083858013153076171875" lon="-76.2340156920254230499267578125">
        <ele>4192</ele>
        <time>2021-07-25T19:19:22.000Z</time>
      </trkpt>
      <trkpt lat="-11.632057540118694305419921875" lon="-76.234036982059478759765625">
        <ele>4192.60009765625</ele>
        <time>2021-07-25T19:19:26.000Z</time>
      </trkpt>
      <trkpt lat="-11.6319854557514190673828125" lon="-76.23405450023710727691650390625">
        <ele>4193.60009765625</ele>
        <time>2021-07-25T19:19:29.000Z</time>
      </trkpt>
      <trkpt lat="-11.6317656822502613067626953125" lon="-76.23411937616765499114990234375">
        <ele>4194.39990234375</ele>
        <time>2021-07-25T19:19:38.000Z</time>
      </trkpt>
      <trkpt lat="-11.6315457411110401153564453125" lon="-76.2341823242604732513427734375">
        <ele>4193.7998046875</ele>
        <time>2021-07-25T19:19:47.000Z</time>
      </trkpt>
      <trkpt lat="-11.63132630288600921630859375" lon="-76.23424711637198925018310546875">
        <ele>4194.2001953125</ele>
        <time>2021-07-25T19:19:56.000Z</time>
      </trkpt>
      <trkpt lat="-11.6312773525714874267578125" lon="-76.23425549827516078948974609375">
        <ele>4194.60009765625</ele>
        <time>2021-07-25T19:19:58.000Z</time>
      </trkpt>
      <trkpt lat="-11.63114969618618488311767578125" lon="-76.2342731840908527374267578125">
        <ele>4195</ele>
        <time>2021-07-25T19:20:03.000Z</time>
      </trkpt>
      <trkpt lat="-11.63102011196315288543701171875" lon="-76.234256587922573089599609375">
        <ele>4195.60009765625</ele>
        <time>2021-07-25T19:20:08.000Z</time>
      </trkpt>
      <trkpt lat="-11.63096914999186992645263671875" lon="-76.2342510558664798736572265625">
        <ele>4196.2001953125</ele>
        <time>2021-07-25T19:20:10.000Z</time>
      </trkpt>
      <trkpt lat="-11.63088985718786716461181640625" lon="-76.23424057848751544952392578125">
        <ele>4196.7998046875</ele>
        <time>2021-07-25T19:20:13.000Z</time>
      </trkpt>
      <trkpt lat="-11.6307638771831989288330078125" lon="-76.23420923016965389251708984375">
        <ele>4197.60009765625</ele>
        <time>2021-07-25T19:20:18.000Z</time>
      </trkpt>
      <trkpt lat="-11.63074082694947719573974609375" lon="-76.234203614294528961181640625">
        <ele>4198</ele>
        <time>2021-07-25T19:20:19.000Z</time>
      </trkpt>
      <trkpt lat="-11.6305875219404697418212890625" lon="-76.234165392816066741943359375">
        <ele>4199.2001953125</ele>
        <time>2021-07-25T19:20:26.000Z</time>
      </trkpt>
      <trkpt lat="-11.630540080368518829345703125" lon="-76.234150640666484832763671875">
        <ele>4200.2001953125</ele>
        <time>2021-07-25T19:20:28.000Z</time>
      </trkpt>
      <trkpt lat="-11.6305157728493213653564453125" lon="-76.23414536006748676300048828125">
        <ele>4200.60009765625</ele>
        <time>2021-07-25T19:20:29.000Z</time>
      </trkpt>
      <trkpt lat="-11.630361713469028472900390625" lon="-76.23411183245480060577392578125">
        <ele>4201.60009765625</ele>
        <time>2021-07-25T19:20:36.000Z</time>
      </trkpt>
      <trkpt lat="-11.6302649863064289093017578125" lon="-76.23409506864845752716064453125">
        <ele>4202.7998046875</ele>
        <time>2021-07-25T19:20:41.000Z</time>
      </trkpt>
      <trkpt lat="-11.6301888786256313323974609375" lon="-76.23408098705112934112548828125">
        <ele>4204</ele>
        <time>2021-07-25T19:20:45.000Z</time>
      </trkpt>
      <trkpt lat="-11.63002274930477142333984375" lon="-76.23406204394996166229248046875">
        <ele>4204.60009765625</ele>
        <time>2021-07-25T19:20:51.000Z</time>
      </trkpt>
      <trkpt lat="-11.6299719549715518951416015625" lon="-76.2340512312948703765869140625">
        <ele>4205</ele>
        <time>2021-07-25T19:20:53.000Z</time>
      </trkpt>
      <trkpt lat="-11.62977439351379871368408203125" lon="-76.23405667953193187713623046875">
        <ele>4203.7998046875</ele>
        <time>2021-07-25T19:21:00.000Z</time>
      </trkpt>
      <trkpt lat="-11.62974623031914234161376953125" lon="-76.2340612895786762237548828125">
        <ele>4203.7998046875</ele>
        <time>2021-07-25T19:21:01.000Z</time>
      </trkpt>
      <trkpt lat="-11.62959015928208827972412109375" lon="-76.23409976251423358917236328125">
        <ele>4205</ele>
        <time>2021-07-25T19:21:07.000Z</time>
      </trkpt>
      <trkpt lat="-11.6295097768306732177734375" lon="-76.234116442501544952392578125">
        <ele>4205.39990234375</ele>
        <time>2021-07-25T19:21:10.000Z</time>
      </trkpt>
      <trkpt lat="-11.6293649375438690185546875" lon="-76.2341531552374362945556640625">
        <ele>4206.2001953125</ele>
        <time>2021-07-25T19:21:16.000Z</time>
      </trkpt>
      <trkpt lat="-11.62928790785372257232666015625" lon="-76.234171092510223388671875">
        <ele>4206.60009765625</ele>
        <time>2021-07-25T19:21:19.000Z</time>
      </trkpt>
      <trkpt lat="-11.6291558928787708282470703125" lon="-76.23419850133359432220458984375">
        <ele>4207.39990234375</ele>
        <time>2021-07-25T19:21:24.000Z</time>
      </trkpt>
      <trkpt lat="-11.62907660007476806640625" lon="-76.23421945609152317047119140625">
        <ele>4208.39990234375</ele>
        <time>2021-07-25T19:21:27.000Z</time>
      </trkpt>
      <trkpt lat="-11.62900082767009735107421875" lon="-76.23423345386981964111328125">
        <ele>4207.39990234375</ele>
        <time>2021-07-25T19:21:30.000Z</time>
      </trkpt>
      <trkpt lat="-11.62887836806476116180419921875" lon="-76.23425901867449283599853515625">
        <ele>4207.7998046875</ele>
        <time>2021-07-25T19:21:35.000Z</time>
      </trkpt>
      <trkpt lat="-11.62870100699365139007568359375" lon="-76.23428114689886569976806640625">
        <ele>4208.39990234375</ele>
        <time>2021-07-25T19:21:42.000Z</time>
      </trkpt>
      <trkpt lat="-11.62862858735024929046630859375" lon="-76.234290115535259246826171875">
        <ele>4209</ele>
        <time>2021-07-25T19:21:45.000Z</time>
      </trkpt>
      <trkpt lat="-11.628538481891155242919921875" lon="-76.23429355211555957794189453125">
        <ele>4209.60009765625</ele>
        <time>2021-07-25T19:21:49.000Z</time>
      </trkpt>
      <trkpt lat="-11.62843815051019191741943359375" lon="-76.234302520751953125">
        <ele>4210.2001953125</ele>
        <time>2021-07-25T19:21:53.000Z</time>
      </trkpt>
      <trkpt lat="-11.62836757488548755645751953125" lon="-76.2343107350170612335205078125">
        <ele>4210.60009765625</ele>
        <time>2021-07-25T19:21:56.000Z</time>
      </trkpt>
      <trkpt lat="-11.62827202118933200836181640625" lon="-76.234323643147945404052734375">
        <ele>4210.60009765625</ele>
        <time>2021-07-25T19:22:00.000Z</time>
      </trkpt>
      <trkpt lat="-11.62800078280270099639892578125" lon="-76.2343462742865085601806640625">
        <ele>4211.39990234375</ele>
        <time>2021-07-25T19:22:11.000Z</time>
      </trkpt>
      <trkpt lat="-11.627927608788013458251953125" lon="-76.23435406945645809173583984375">
        <ele>4211.7998046875</ele>
        <time>2021-07-25T19:22:14.000Z</time>
      </trkpt>
      <trkpt lat="-11.6277802549302577972412109375" lon="-76.23436580412089824676513671875">
        <ele>4212.60009765625</ele>
        <time>2021-07-25T19:22:20.000Z</time>
      </trkpt>
      <trkpt lat="-11.627730466425418853759765625" lon="-76.2343707494437694549560546875">
        <ele>4212.7998046875</ele>
        <time>2021-07-25T19:22:22.000Z</time>
      </trkpt>
      <trkpt lat="-11.627561151981353759765625" lon="-76.23438768088817596435546875">
        <ele>4213.7998046875</ele>
        <time>2021-07-25T19:22:29.000Z</time>
      </trkpt>
      <trkpt lat="-11.62753793410956859588623046875" lon="-76.2343901954591274261474609375">
        <ele>4214</ele>
        <time>2021-07-25T19:22:30.000Z</time>
      </trkpt>
      <trkpt lat="-11.62733894772827625274658203125" lon="-76.23439933173358440399169921875">
        <ele>4214.39990234375</ele>
        <time>2021-07-25T19:22:38.000Z</time>
      </trkpt>
      <trkpt lat="-11.627216823399066925048828125" lon="-76.2344089709222316741943359375">
        <ele>4214.7998046875</ele>
        <time>2021-07-25T19:22:43.000Z</time>
      </trkpt>
      <trkpt lat="-11.6271440684795379638671875" lon="-76.23441341333091259002685546875">
        <ele>4215.2001953125</ele>
        <time>2021-07-25T19:22:46.000Z</time>
      </trkpt>
      <trkpt lat="-11.62704943679273128509521484375" lon="-76.23442615382373332977294921875">
        <ele>4215.7998046875</ele>
        <time>2021-07-25T19:22:50.000Z</time>
      </trkpt>
      <trkpt lat="-11.62697819061577320098876953125" lon="-76.23442665673792362213134765625">
        <ele>4216.39990234375</ele>
        <time>2021-07-25T19:22:53.000Z</time>
      </trkpt>
      <trkpt lat="-11.62681742571294307708740234375" lon="-76.2344213761389255523681640625">
        <ele>4216.7998046875</ele>
        <time>2021-07-25T19:23:00.000Z</time>
      </trkpt>
      <trkpt lat="-11.62679445929825305938720703125" lon="-76.2344200350344181060791015625">
        <ele>4217</ele>
        <time>2021-07-25T19:23:01.000Z</time>
      </trkpt>
      <trkpt lat="-11.62665129639208316802978515625" lon="-76.2343982420861721038818359375">
        <ele>4218</ele>
        <time>2021-07-25T19:23:07.000Z</time>
      </trkpt>
      <trkpt lat="-11.626581139862537384033203125" lon="-76.234390698373317718505859375">
        <ele>4218.60009765625</ele>
        <time>2021-07-25T19:23:10.000Z</time>
      </trkpt>
      <trkpt lat="-11.62646739743649959564208984375" lon="-76.23437250964343547821044921875">
        <ele>4219</ele>
        <time>2021-07-25T19:23:15.000Z</time>
      </trkpt>
      <trkpt lat="-11.6263945586979389190673828125" lon="-76.234367899596691131591796875">
        <ele>4219.39990234375</ele>
        <time>2021-07-25T19:23:18.000Z</time>
      </trkpt>
      <trkpt lat="-11.626321636140346527099609375" lon="-76.23436354100704193115234375">
        <ele>4220.2001953125</ele>
        <time>2021-07-25T19:23:21.000Z</time>
      </trkpt>
      <trkpt lat="-11.62618207745254039764404296875" lon="-76.23438357375562191009521484375">
        <ele>4221</ele>
        <time>2021-07-25T19:23:27.000Z</time>
      </trkpt>
      <trkpt lat="-11.62613756954669952392578125" lon="-76.23439832590520381927490234375">
        <ele>4221.2001953125</ele>
        <time>2021-07-25T19:23:29.000Z</time>
      </trkpt>
      <trkpt lat="-11.62603924982249736785888671875" lon="-76.234424896538257598876953125">
        <ele>4221.60009765625</ele>
        <time>2021-07-25T19:23:33.000Z</time>
      </trkpt>
      <trkpt lat="-11.62584663368761539459228515625" lon="-76.2344621121883392333984375">
        <ele>4221.60009765625</ele>
        <time>2021-07-25T19:23:41.000Z</time>
      </trkpt>
      <trkpt lat="-11.6256519220769405364990234375" lon="-76.23447275720536708831787109375">
        <ele>4222.39990234375</ele>
        <time>2021-07-25T19:23:49.000Z</time>
      </trkpt>
      <trkpt lat="-11.62562971003353595733642578125" lon="-76.2344632856547832489013671875">
        <ele>4222.39990234375</ele>
        <time>2021-07-25T19:23:50.000Z</time>
      </trkpt>
      <trkpt lat="-11.6254886426031589508056640625" lon="-76.2344069592654705047607421875">
        <ele>4223.60009765625</ele>
        <time>2021-07-25T19:23:56.000Z</time>
      </trkpt>
      <trkpt lat="-11.62544514052569866180419921875" lon="-76.2343858368694782257080078125">
        <ele>4223.60009765625</ele>
        <time>2021-07-25T19:23:58.000Z</time>
      </trkpt>
      <trkpt lat="-11.6253394447267055511474609375" lon="-76.23432674445211887359619140625">
        <ele>4224.7998046875</ele>
        <time>2021-07-25T19:24:03.000Z</time>
      </trkpt>
      <trkpt lat="-11.62523408420383930206298828125" lon="-76.23427477665245532989501953125">
        <ele>4225.7998046875</ele>
        <time>2021-07-25T19:24:08.000Z</time>
      </trkpt>
      <trkpt lat="-11.6250665299594402313232421875" lon="-76.2342252396047115325927734375">
        <ele>4226.7998046875</ele>
        <time>2021-07-25T19:24:15.000Z</time>
      </trkpt>
      <trkpt lat="-11.62499402649700641632080078125" lon="-76.23421132564544677734375">
        <ele>4227.7998046875</ele>
        <time>2021-07-25T19:24:18.000Z</time>
      </trkpt>
      <trkpt lat="-11.62487089633941650390625" lon="-76.2341943942010402679443359375">
        <ele>4228</ele>
        <time>2021-07-25T19:24:23.000Z</time>
      </trkpt>
      <trkpt lat="-11.62469881586730480194091796875" lon="-76.2341766245663166046142578125">
        <ele>4229</ele>
        <time>2021-07-25T19:24:30.000Z</time>
      </trkpt>
      <trkpt lat="-11.62467568181455135345458984375" lon="-76.23417302034795284271240234375">
        <ele>4229.39990234375</ele>
        <time>2021-07-25T19:24:31.000Z</time>
      </trkpt>
      <trkpt lat="-11.6245978139340877532958984375" lon="-76.23417167924344539642333984375">
        <ele>4230</ele>
        <time>2021-07-25T19:24:34.000Z</time>
      </trkpt>
      <trkpt lat="-11.62447334267199039459228515625" lon="-76.23417905531823635101318359375">
        <ele>4230.2001953125</ele>
        <time>2021-07-25T19:24:39.000Z</time>
      </trkpt>
      <trkpt lat="-11.62437812425196170806884765625" lon="-76.2342098169028759002685546875">
        <ele>4231.60009765625</ele>
        <time>2021-07-25T19:24:43.000Z</time>
      </trkpt>
      <trkpt lat="-11.624329090118408203125" lon="-76.2342314422130584716796875">
        <ele>4231.60009765625</ele>
        <time>2021-07-25T19:24:45.000Z</time>
      </trkpt>
      <trkpt lat="-11.6242192871868610382080078125" lon="-76.2343016825616359710693359375">
        <ele>4230.60009765625</ele>
        <time>2021-07-25T19:24:50.000Z</time>
      </trkpt>
      <trkpt lat="-11.62419808097183704376220703125" lon="-76.23431794345378875732421875">
        <ele>4230.60009765625</ele>
        <time>2021-07-25T19:24:51.000Z</time>
      </trkpt>
      <trkpt lat="-11.62398777902126312255859375" lon="-76.23445716686546802520751953125">
        <ele>4230.7998046875</ele>
        <time>2021-07-25T19:25:00.000Z</time>
      </trkpt>
      <trkpt lat="-11.62379859946668148040771484375" lon="-76.23457409441471099853515625">
        <ele>4230.7998046875</ele>
        <time>2021-07-25T19:25:08.000Z</time>
      </trkpt>
      <trkpt lat="-11.6236576996743679046630859375" lon="-76.2345762737095355987548828125">
        <ele>4231</ele>
        <time>2021-07-25T19:25:13.000Z</time>
      </trkpt>
      <trkpt lat="-11.62354328669607639312744140625" lon="-76.23450863175094127655029296875">
        <ele>4231.7998046875</ele>
        <time>2021-07-25T19:25:18.000Z</time>
      </trkpt>
      <trkpt lat="-11.62353121675550937652587890625" lon="-76.23448449186980724334716796875">
        <ele>4231.7998046875</ele>
        <time>2021-07-25T19:25:19.000Z</time>
      </trkpt>
      <trkpt lat="-11.62348218262195587158203125" lon="-76.234354488551616668701171875">
        <ele>4232.2001953125</ele>
        <time>2021-07-25T19:25:25.000Z</time>
      </trkpt>
      <trkpt lat="-11.6235078312456607818603515625" lon="-76.2342705018818378448486328125">
        <ele>4231.7998046875</ele>
        <time>2021-07-25T19:25:28.000Z</time>
      </trkpt>
      <trkpt lat="-11.62351964972913265228271484375" lon="-76.234243176877498626708984375">
        <ele>4231.7998046875</ele>
        <time>2021-07-25T19:25:29.000Z</time>
      </trkpt>
      <trkpt lat="-11.62363867275416851043701171875" lon="-76.23412105254828929901123046875">
        <ele>4232.7998046875</ele>
        <time>2021-07-25T19:25:36.000Z</time>
      </trkpt>
      <trkpt lat="-11.6237690113484859466552734375" lon="-76.2340532429516315460205078125">
        <ele>4233.7998046875</ele>
        <time>2021-07-25T19:25:43.000Z</time>
      </trkpt>
      <trkpt lat="-11.62379072047770023345947265625" lon="-76.2340468727052211761474609375">
        <ele>4233.7998046875</ele>
        <time>2021-07-25T19:25:44.000Z</time>
      </trkpt>
      <trkpt lat="-11.623915694653987884521484375" lon="-76.23398124240338802337646484375">
        <ele>4234.7998046875</ele>
        <time>2021-07-25T19:25:51.000Z</time>
      </trkpt>
      <trkpt lat="-11.62406598217785358428955078125" lon="-76.23392122797667980194091796875">
        <ele>4235.60009765625</ele>
        <time>2021-07-25T19:25:59.000Z</time>
      </trkpt>
      <trkpt lat="-11.624100767076015472412109375" lon="-76.2339073978364467620849609375">
        <ele>4235.7998046875</ele>
        <time>2021-07-25T19:26:01.000Z</time>
      </trkpt>
      <trkpt lat="-11.6242085583508014678955078125" lon="-76.2338765524327754974365234375">
        <ele>4236.39990234375</ele>
        <time>2021-07-25T19:26:06.000Z</time>
      </trkpt>
      <trkpt lat="-11.62439413368701934814453125" lon="-76.2338286079466342926025390625">
        <ele>4237.2001953125</ele>
        <time>2021-07-25T19:26:15.000Z</time>
      </trkpt>
      <trkpt lat="-11.62460745312273502349853515625" lon="-76.23379281722009181976318359375">
        <ele>4237.7998046875</ele>
        <time>2021-07-25T19:26:25.000Z</time>
      </trkpt>
      <trkpt lat="-11.62470652721822261810302734375" lon="-76.2337769754230976104736328125">
        <ele>4238.39990234375</ele>
        <time>2021-07-25T19:26:30.000Z</time>
      </trkpt>
      <trkpt lat="-11.6247701458632946014404296875" lon="-76.2337732873857021331787109375">
        <ele>4239</ele>
        <time>2021-07-25T19:26:34.000Z</time>
      </trkpt>
      <trkpt lat="-11.6247808746993541717529296875" lon="-76.23377940617501735687255859375">
        <ele>4239</ele>
        <time>2021-07-25T19:26:35.000Z</time>
      </trkpt>
      <trkpt lat="-11.62479386664927005767822265625" lon="-76.23378309421241283416748046875">
        <ele>4239.2001953125</ele>
        <time>2021-07-25T19:26:38.000Z</time>
      </trkpt>
      <trkpt lat="-11.624836027622222900390625" lon="-76.23375358991324901580810546875">
        <ele>4239.7998046875</ele>
        <time>2021-07-25T19:31:23.000Z</time>
      </trkpt>
      <trkpt lat="-11.62484935484826564788818359375" lon="-76.23375358991324901580810546875">
        <ele>4239.7998046875</ele>
        <time>2021-07-25T19:31:24.000Z</time>
      </trkpt>
      <trkpt lat="-11.62486796267330646514892578125" lon="-76.2337494827806949615478515625">
        <ele>4239.7998046875</ele>
        <time>2021-07-25T19:31:25.000Z</time>
      </trkpt>
      <trkpt lat="-11.6249126382172107696533203125" lon="-76.23374369926750659942626953125">
        <ele>4240.7998046875</ele>
        <time>2021-07-25T19:31:28.000Z</time>
      </trkpt>
      <trkpt lat="-11.625010035932064056396484375" lon="-76.2337273545563220977783203125">
        <ele>4240.60009765625</ele>
        <time>2021-07-25T19:31:33.000Z</time>
      </trkpt>
      <trkpt lat="-11.62507298402488231658935546875" lon="-76.23371855355799198150634765625">
        <ele>4241</ele>
        <time>2021-07-25T19:31:36.000Z</time>
      </trkpt>
      <trkpt lat="-11.62517331540584564208984375" lon="-76.23371486552059650421142578125">
        <ele>4241.39990234375</ele>
        <time>2021-07-25T19:31:41.000Z</time>
      </trkpt>
      <trkpt lat="-11.62524950690567493438720703125" lon="-76.23370103538036346435546875">
        <ele>4242</ele>
        <time>2021-07-25T19:31:45.000Z</time>
      </trkpt>
      <trkpt lat="-11.625390909612178802490234375" lon="-76.2336824275553226470947265625">
        <ele>4242.39990234375</ele>
        <time>2021-07-25T19:31:52.000Z</time>
      </trkpt>
      <trkpt lat="-11.6254520975053310394287109375" lon="-76.23367127962410449981689453125">
        <ele>4243.2001953125</ele>
        <time>2021-07-25T19:31:55.000Z</time>
      </trkpt>
      <trkpt lat="-11.62555041722953319549560546875" lon="-76.23366189189255237579345703125">
        <ele>4243.60009765625</ele>
        <time>2021-07-25T19:32:00.000Z</time>
      </trkpt>
      <trkpt lat="-11.6257560253143310546875" lon="-76.23364060185849666595458984375">
        <ele>4244.2001953125</ele>
        <time>2021-07-25T19:32:10.000Z</time>
      </trkpt>
      <trkpt lat="-11.62577857263386249542236328125" lon="-76.2336375005543231964111328125">
        <ele>4244.2001953125</ele>
        <time>2021-07-25T19:32:11.000Z</time>
      </trkpt>
      <trkpt lat="-11.62592257373034954071044921875" lon="-76.23362065292894840240478515625">
        <ele>4245.2001953125</ele>
        <time>2021-07-25T19:32:18.000Z</time>
      </trkpt>
      <trkpt lat="-11.62596163339912891387939453125" lon="-76.2336157076060771942138671875">
        <ele>4245.2001953125</ele>
        <time>2021-07-25T19:32:20.000Z</time>
      </trkpt>
      <trkpt lat="-11.62610664032399654388427734375" lon="-76.2336009554564952850341796875">
        <ele>4245.60009765625</ele>
        <time>2021-07-25T19:32:27.000Z</time>
      </trkpt>
      <trkpt lat="-11.62622398696839809417724609375" lon="-76.2335764802992343902587890625">
        <ele>4246.39990234375</ele>
        <time>2021-07-25T19:32:33.000Z</time>
      </trkpt>
      <trkpt lat="-11.626305878162384033203125" lon="-76.23355887830257415771484375">
        <ele>4246.7998046875</ele>
        <time>2021-07-25T19:32:37.000Z</time>
      </trkpt>
      <trkpt lat="-11.6264582611620426177978515625" lon="-76.23354337178170680999755859375">
        <ele>4247.60009765625</ele>
        <time>2021-07-25T19:32:44.000Z</time>
      </trkpt>
      <trkpt lat="-11.62654065527021884918212890625" lon="-76.2335288710892200469970703125">
        <ele>4248</ele>
        <time>2021-07-25T19:32:48.000Z</time>
      </trkpt>
      <trkpt lat="-11.62666202522814273834228515625" lon="-76.2335151247680187225341796875">
        <ele>4248.60009765625</ele>
        <time>2021-07-25T19:32:54.000Z</time>
      </trkpt>
      <trkpt lat="-11.6267237998545169830322265625" lon="-76.23351403512060642242431640625">
        <ele>4248.39990234375</ele>
        <time>2021-07-25T19:32:57.000Z</time>
      </trkpt>
      <trkpt lat="-11.62684508599340915679931640625" lon="-76.2334889732301235198974609375">
        <ele>4250</ele>
        <time>2021-07-25T19:33:03.000Z</time>
      </trkpt>
      <trkpt lat="-11.62690660916268825531005859375" lon="-76.23347036540508270263671875">
        <ele>4250</ele>
        <time>2021-07-25T19:33:06.000Z</time>
      </trkpt>
      <trkpt lat="-11.62702244706451892852783203125" lon="-76.233421750366687774658203125">
        <ele>4251</ele>
        <time>2021-07-25T19:33:12.000Z</time>
      </trkpt>
      <trkpt lat="-11.62708346731960773468017578125" lon="-76.23339534737169742584228515625">
        <ele>4251.7998046875</ele>
        <time>2021-07-25T19:33:15.000Z</time>
      </trkpt>
      <trkpt lat="-11.6272984631359577178955078125" lon="-76.2332821078598499298095703125">
        <ele>4250.7998046875</ele>
        <time>2021-07-25T19:33:26.000Z</time>
      </trkpt>
      <trkpt lat="-11.62745989859104156494140625" lon="-76.2332148849964141845703125">
        <ele>4251.39990234375</ele>
        <time>2021-07-25T19:33:34.000Z</time>
      </trkpt>
      <trkpt lat="-11.62752016447484493255615234375" lon="-76.23319569043815135955810546875">
        <ele>4252.2001953125</ele>
        <time>2021-07-25T19:33:37.000Z</time>
      </trkpt>
      <trkpt lat="-11.62768227048218250274658203125" lon="-76.2331402860581874847412109375">
        <ele>4253</ele>
        <time>2021-07-25T19:33:45.000Z</time>
      </trkpt>
      <trkpt lat="-11.62773859687149524688720703125" lon="-76.233117990195751190185546875">
        <ele>4253.39990234375</ele>
        <time>2021-07-25T19:33:48.000Z</time>
      </trkpt>
      <trkpt lat="-11.6278885491192340850830078125" lon="-76.23306669294834136962890625">
        <ele>4254.2001953125</ele>
        <time>2021-07-25T19:33:56.000Z</time>
      </trkpt>
      <trkpt lat="-11.62799365818500518798828125" lon="-76.233039200305938720703125">
        <ele>4254.39990234375</ele>
        <time>2021-07-25T19:34:01.000Z</time>
      </trkpt>
      <trkpt lat="-11.62805576808750629425048828125" lon="-76.2330185808241367340087890625">
        <ele>4254.39990234375</ele>
        <time>2021-07-25T19:34:04.000Z</time>
      </trkpt>
      <trkpt lat="-11.62818619050085544586181640625" lon="-76.23298312537372112274169921875">
        <ele>4255.39990234375</ele>
        <time>2021-07-25T19:34:10.000Z</time>
      </trkpt>
      <trkpt lat="-11.6282979212701320648193359375" lon="-76.23296015895903110504150390625">
        <ele>4255.7998046875</ele>
        <time>2021-07-25T19:34:15.000Z</time>
      </trkpt>
      <trkpt lat="-11.62842038087546825408935546875" lon="-76.23293098993599414825439453125">
        <ele>4256.60009765625</ele>
        <time>2021-07-25T19:34:21.000Z</time>
      </trkpt>
      <trkpt lat="-11.6285007633268833160400390625" lon="-76.23291171155869960784912109375">
        <ele>4257</ele>
        <time>2021-07-25T19:34:25.000Z</time>
      </trkpt>
      <trkpt lat="-11.62858449853956699371337890625" lon="-76.2328915111720561981201171875">
        <ele>4257.7998046875</ele>
        <time>2021-07-25T19:34:29.000Z</time>
      </trkpt>
      <trkpt lat="-11.6286828182637691497802734375" lon="-76.2328710593283176422119140625">
        <ele>4258.7998046875</ele>
        <time>2021-07-25T19:34:34.000Z</time>
      </trkpt>
      <trkpt lat="-11.62870435975492000579833984375" lon="-76.23286678455770015716552734375">
        <ele>4259</ele>
        <time>2021-07-25T19:34:35.000Z</time>
      </trkpt>
      <trkpt lat="-11.62887719459831714630126953125" lon="-76.232816241681575775146484375">
        <ele>4259.39990234375</ele>
        <time>2021-07-25T19:34:44.000Z</time>
      </trkpt>
      <trkpt lat="-11.6290147416293621063232421875" lon="-76.2327574007213115692138671875">
        <ele>4260.2001953125</ele>
        <time>2021-07-25T19:34:51.000Z</time>
      </trkpt>
      <trkpt lat="-11.62904902361333370208740234375" lon="-76.23273468576371669769287109375">
        <ele>4260.39990234375</ele>
        <time>2021-07-25T19:34:53.000Z</time>
      </trkpt>
      <trkpt lat="-11.629148013889789581298828125" lon="-76.2326864898204803466796875">
        <ele>4261.2001953125</ele>
        <time>2021-07-25T19:34:58.000Z</time>
      </trkpt>
      <trkpt lat="-11.62916620261967182159423828125" lon="-76.23267131857573986053466796875">
        <ele>4261.39990234375</ele>
        <time>2021-07-25T19:34:59.000Z</time>
      </trkpt>
      <trkpt lat="-11.62933451123535633087158203125" lon="-76.23256922699511051177978515625">
        <ele>4261.7998046875</ele>
        <time>2021-07-25T19:35:08.000Z</time>
      </trkpt>
      <trkpt lat="-11.62939201109111309051513671875" lon="-76.232539303600788116455078125">
        <ele>4262.2001953125</ele>
        <time>2021-07-25T19:35:11.000Z</time>
      </trkpt>
      <trkpt lat="-11.62952327169477939605712890625" lon="-76.23247819952666759490966796875">
        <ele>4261.39990234375</ele>
        <time>2021-07-25T19:35:18.000Z</time>
      </trkpt>
      <trkpt lat="-11.62968403659760951995849609375" lon="-76.23242430388927459716796875">
        <ele>4262.60009765625</ele>
        <time>2021-07-25T19:35:26.000Z</time>
      </trkpt>
      <trkpt lat="-11.6298075020313262939453125" lon="-76.23239538632333278656005859375">
        <ele>4263.2001953125</ele>
        <time>2021-07-25T19:35:32.000Z</time>
      </trkpt>
      <trkpt lat="-11.6298267804086208343505859375" lon="-76.23239253647625446319580078125">
        <ele>4263.39990234375</ele>
        <time>2021-07-25T19:35:33.000Z</time>
      </trkpt>
      <trkpt lat="-11.6299441270530223846435546875" lon="-76.23236353509128093719482421875">
        <ele>4264.2001953125</ele>
        <time>2021-07-25T19:35:39.000Z</time>
      </trkpt>
      <trkpt lat="-11.6300261020660400390625" lon="-76.232347190380096435546875">
        <ele>4265</ele>
        <time>2021-07-25T19:35:43.000Z</time>
      </trkpt>
      <trkpt lat="-11.63008955307304859161376953125" lon="-76.23233713209629058837890625">
        <ele>4265.60009765625</ele>
        <time>2021-07-25T19:35:46.000Z</time>
      </trkpt>
      <trkpt lat="-11.63023271597921848297119140625" lon="-76.2322903610765933990478515625">
        <ele>4266</ele>
        <time>2021-07-25T19:35:53.000Z</time>
      </trkpt>
      <trkpt lat="-11.630272530019283294677734375" lon="-76.23227686621248722076416015625">
        <ele>4266.7998046875</ele>
        <time>2021-07-25T19:35:55.000Z</time>
      </trkpt>
      <trkpt lat="-11.6303806565701961517333984375" lon="-76.232214756309986114501953125">
        <ele>4267.2001953125</ele>
        <time>2021-07-25T19:36:01.000Z</time>
      </trkpt>
      <trkpt lat="-11.63054334931075572967529296875" lon="-76.2320829927921295166015625">
        <ele>4268</ele>
        <time>2021-07-25T19:36:11.000Z</time>
      </trkpt>
      <trkpt lat="-11.6305710934102535247802734375" lon="-76.232056505978107452392578125">
        <ele>4268.39990234375</ele>
        <time>2021-07-25T19:36:13.000Z</time>
      </trkpt>
      <trkpt lat="-11.63070000708103179931640625" lon="-76.2319423444569110870361328125">
        <ele>4268.39990234375</ele>
        <time>2021-07-25T19:36:21.000Z</time>
      </trkpt>
      <trkpt lat="-11.6307957284152507781982421875" lon="-76.2318456172943115234375">
        <ele>4268.60009765625</ele>
        <time>2021-07-25T19:36:28.000Z</time>
      </trkpt>
      <trkpt lat="-11.630869992077350616455078125" lon="-76.23177177272737026214599609375">
        <ele>4268.39990234375</ele>
        <time>2021-07-25T19:36:45.000Z</time>
      </trkpt>
      <trkpt lat="-11.630886755883693695068359375" lon="-76.2317535839974880218505859375">
        <ele>4268.60009765625</ele>
        <time>2021-07-25T19:36:47.000Z</time>
      </trkpt>
      <trkpt lat="-11.63099102675914764404296875" lon="-76.23166549019515514373779296875">
        <ele>4269</ele>
        <time>2021-07-25T19:36:54.000Z</time>
      </trkpt>
      <trkpt lat="-11.63108817301690578460693359375" lon="-76.23158586211502552032470703125">
        <ele>4270.2001953125</ele>
        <time>2021-07-25T19:37:00.000Z</time>
      </trkpt>
      <trkpt lat="-11.63112220354378223419189453125" lon="-76.23156054876744747161865234375">
        <ele>4270.39990234375</ele>
        <time>2021-07-25T19:37:02.000Z</time>
      </trkpt>
      <trkpt lat="-11.631216667592525482177734375" lon="-76.231481842696666717529296875">
        <ele>4271.60009765625</ele>
        <time>2021-07-25T19:37:08.000Z</time>
      </trkpt>
      <trkpt lat="-11.63129277527332305908203125" lon="-76.2314116023480892181396484375">
        <ele>4272.39990234375</ele>
        <time>2021-07-25T19:37:13.000Z</time>
      </trkpt>
      <trkpt lat="-11.63144775666296482086181640625" lon="-76.23127791099250316619873046875">
        <ele>4272.39990234375</ele>
        <time>2021-07-25T19:37:23.000Z</time>
      </trkpt>
      <trkpt lat="-11.63146384991705417633056640625" lon="-76.231265254318714141845703125">
        <ele>4272.60009765625</ele>
        <time>2021-07-25T19:37:24.000Z</time>
      </trkpt>
      <trkpt lat="-11.63160634227097034454345703125" lon="-76.23113575391471385955810546875">
        <ele>4273.2001953125</ele>
        <time>2021-07-25T19:37:33.000Z</time>
      </trkpt>
      <trkpt lat="-11.63165629841387271881103515625" lon="-76.231091581284999847412109375">
        <ele>4273.39990234375</ele>
        <time>2021-07-25T19:37:36.000Z</time>
      </trkpt>
      <trkpt lat="-11.63169066421687602996826171875" lon="-76.23106635175645351409912109375">
        <ele>4273.60009765625</ele>
        <time>2021-07-25T19:37:38.000Z</time>
      </trkpt>
      <trkpt lat="-11.6317445598542690277099609375" lon="-76.23102645389735698699951171875">
        <ele>4273.7998046875</ele>
        <time>2021-07-25T19:37:41.000Z</time>
      </trkpt>
      <trkpt lat="-11.63181438110768795013427734375" lon="-76.23097054660320281982421875">
        <ele>4274.60009765625</ele>
        <time>2021-07-25T19:37:45.000Z</time>
      </trkpt>
      <trkpt lat="-11.631935499608516693115234375" lon="-76.23089586384594440460205078125">
        <ele>4275.2001953125</ele>
        <time>2021-07-25T19:37:52.000Z</time>
      </trkpt>
      <trkpt lat="-11.6320090927183628082275390625" lon="-76.2308516912162303924560546875">
        <ele>4275.7998046875</ele>
        <time>2021-07-25T19:37:56.000Z</time>
      </trkpt>
      <trkpt lat="-11.63208226673305034637451171875" lon="-76.23080953024327754974365234375">
        <ele>4275.7998046875</ele>
        <time>2021-07-25T19:38:00.000Z</time>
      </trkpt>
      <trkpt lat="-11.63222475908696651458740234375" lon="-76.2307246215641498565673828125">
        <ele>4276.60009765625</ele>
        <time>2021-07-25T19:38:08.000Z</time>
      </trkpt>
      <trkpt lat="-11.63224185816943645477294921875" lon="-76.23071565292775630950927734375">
        <ele>4276.7998046875</ele>
        <time>2021-07-25T19:38:09.000Z</time>
      </trkpt>
      <trkpt lat="-11.63239591754972934722900390625" lon="-76.23061993159353733062744140625">
        <ele>4277.7998046875</ele>
        <time>2021-07-25T19:38:17.000Z</time>
      </trkpt>
      <trkpt lat="-11.6324146091938018798828125" lon="-76.2306076101958751678466796875">
        <ele>4278.2001953125</ele>
        <time>2021-07-25T19:38:18.000Z</time>
      </trkpt>
      <trkpt lat="-11.63257847540080547332763671875" lon="-76.23049738816916942596435546875">
        <ele>4278.7998046875</ele>
        <time>2021-07-25T19:38:27.000Z</time>
      </trkpt>
      <trkpt lat="-11.63262851536273956298828125" lon="-76.23046092689037322998046875">
        <ele>4279.2001953125</ele>
        <time>2021-07-25T19:38:30.000Z</time>
      </trkpt>
      <trkpt lat="-11.632703281939029693603515625" lon="-76.23038557358086109161376953125">
        <ele>4279.39990234375</ele>
        <time>2021-07-25T19:38:35.000Z</time>
      </trkpt>
      <trkpt lat="-11.63277276791632175445556640625" lon="-76.2302421592175960540771484375">
        <ele>4280.39990234375</ele>
        <time>2021-07-25T19:38:42.000Z</time>
      </trkpt>
      <trkpt lat="-11.63277813233435153961181640625" lon="-76.23022045008838176727294921875">
        <ele>4280.60009765625</ele>
        <time>2021-07-25T19:38:43.000Z</time>
      </trkpt>
      <trkpt lat="-11.63281031884253025054931640625" lon="-76.23003437183797359466552734375">
        <ele>4281</ele>
        <time>2021-07-25T19:38:51.000Z</time>
      </trkpt>
      <trkpt lat="-11.63280981592833995819091796875" lon="-76.229957006871700286865234375">
        <ele>4281.39990234375</ele>
        <time>2021-07-25T19:38:54.000Z</time>
      </trkpt>
      <trkpt lat="-11.63280311040580272674560546875" lon="-76.22981258668005466461181640625">
        <ele>4282</ele>
        <time>2021-07-25T19:39:00.000Z</time>
      </trkpt>
      <trkpt lat="-11.632791794836521148681640625" lon="-76.2296876125037670135498046875">
        <ele>4282.39990234375</ele>
        <time>2021-07-25T19:39:05.000Z</time>
      </trkpt>
      <trkpt lat="-11.6327822394669055938720703125" lon="-76.22959331609308719635009765625">
        <ele>4283.2001953125</ele>
        <time>2021-07-25T19:39:09.000Z</time>
      </trkpt>
      <trkpt lat="-11.63278047926723957061767578125" lon="-76.22941729612648487091064453125">
        <ele>4282.39990234375</ele>
        <time>2021-07-25T19:39:16.000Z</time>
      </trkpt>
      <trkpt lat="-11.63277930580079555511474609375" lon="-76.22939265333116054534912109375">
        <ele>4282.60009765625</ele>
        <time>2021-07-25T19:39:17.000Z</time>
      </trkpt>
      <trkpt lat="-11.63278098218142986297607421875" lon="-76.229257620871067047119140625">
        <ele>4283.60009765625</ele>
        <time>2021-07-25T19:39:23.000Z</time>
      </trkpt>
      <trkpt lat="-11.63279213011264801025390625" lon="-76.22918729670345783233642578125">
        <ele>4284</ele>
        <time>2021-07-25T19:39:26.000Z</time>
      </trkpt>
      <trkpt lat="-11.6327973268926143646240234375" lon="-76.22914153151214122772216796875">
        <ele>4284.60009765625</ele>
        <time>2021-07-25T19:39:28.000Z</time>
      </trkpt>
      <trkpt lat="-11.63282171823084354400634765625" lon="-76.22895813547074794769287109375">
        <ele>4285.39990234375</ele>
        <time>2021-07-25T19:39:36.000Z</time>
      </trkpt>
      <trkpt lat="-11.6328311897814273834228515625" lon="-76.22891136445105075836181640625">
        <ele>4285.60009765625</ele>
        <time>2021-07-25T19:39:38.000Z</time>
      </trkpt>
      <trkpt lat="-11.63285708986222743988037109375" lon="-76.22877557761967182159423828125">
        <ele>4286.2001953125</ele>
        <time>2021-07-25T19:39:44.000Z</time>
      </trkpt>
      <trkpt lat="-11.63287150673568248748779296875" lon="-76.2286817841231822967529296875">
        <ele>4286.60009765625</ele>
        <time>2021-07-25T19:39:48.000Z</time>
      </trkpt>
      <trkpt lat="-11.632878966629505157470703125" lon="-76.2286113761365413665771484375">
        <ele>4286.7998046875</ele>
        <time>2021-07-25T19:39:51.000Z</time>
      </trkpt>
      <trkpt lat="-11.63289447315037250518798828125" lon="-76.2284752540290355682373046875">
        <ele>4287.7998046875</ele>
        <time>2021-07-25T19:39:57.000Z</time>
      </trkpt>
      <trkpt lat="-11.63289447315037250518798828125" lon="-76.22840241529047489166259765625">
        <ele>4288</ele>
        <time>2021-07-25T19:40:00.000Z</time>
      </trkpt>
      <trkpt lat="-11.6328965686261653900146484375" lon="-76.22821348719298839569091796875">
        <ele>4288.39990234375</ele>
        <time>2021-07-25T19:40:08.000Z</time>
      </trkpt>
      <trkpt lat="-11.63289380259811878204345703125" lon="-76.22816495597362518310546875">
        <ele>4289</ele>
        <time>2021-07-25T19:40:10.000Z</time>
      </trkpt>
      <trkpt lat="-11.6328774578869342803955078125" lon="-76.22800670564174652099609375">
        <ele>4289.7998046875</ele>
        <time>2021-07-25T19:40:17.000Z</time>
      </trkpt>
      <trkpt lat="-11.63286865688860416412353515625" lon="-76.227960102260112762451171875">
        <ele>4290</ele>
        <time>2021-07-25T19:40:19.000Z</time>
      </trkpt>
      <trkpt lat="-11.63285784423351287841796875" lon="-76.22781685553491115570068359375">
        <ele>4290.60009765625</ele>
        <time>2021-07-25T19:40:25.000Z</time>
      </trkpt>
      <trkpt lat="-11.6328556649386882781982421875" lon="-76.227749548852443695068359375">
        <ele>4291</ele>
        <time>2021-07-25T19:40:28.000Z</time>
      </trkpt>
      <trkpt lat="-11.63286446593701839447021484375" lon="-76.22759766876697540283203125">
        <ele>4292</ele>
        <time>2021-07-25T19:40:35.000Z</time>
      </trkpt>
      <trkpt lat="-11.63286480121314525604248046875" lon="-76.22755366377532482147216796875">
        <ele>4292</ele>
        <time>2021-07-25T19:40:37.000Z</time>
      </trkpt>
      <trkpt lat="-11.63283395580947399139404296875" lon="-76.22741259634494781494140625">
        <ele>4292.39990234375</ele>
        <time>2021-07-25T19:40:43.000Z</time>
      </trkpt>
      <trkpt lat="-11.632742844521999359130859375" lon="-76.2271981872618198394775390625">
        <ele>4293.2001953125</ele>
        <time>2021-07-25T19:40:53.000Z</time>
      </trkpt>
      <trkpt lat="-11.6325954906642436981201171875" lon="-76.22690993361175060272216796875">
        <ele>4294.2001953125</ele>
        <time>2021-07-25T19:41:06.000Z</time>
      </trkpt>
      <trkpt lat="-11.6324751265347003936767578125" lon="-76.226719580590724945068359375">
        <ele>4295.2001953125</ele>
        <time>2021-07-25T19:41:15.000Z</time>
      </trkpt>
      <trkpt lat="-11.6323849372565746307373046875" lon="-76.22657574713230133056640625">
        <ele>4296.39990234375</ele>
        <time>2021-07-25T19:41:22.000Z</time>
      </trkpt>
      <trkpt lat="-11.63234344683587551116943359375" lon="-76.22651137411594390869140625">
        <ele>4296.39990234375</ele>
        <time>2021-07-25T19:41:25.000Z</time>
      </trkpt>
      <trkpt lat="-11.63223288953304290771484375" lon="-76.2263323366641998291015625">
        <ele>4297.39990234375</ele>
        <time>2021-07-25T19:41:34.000Z</time>
      </trkpt>
      <trkpt lat="-11.6322035528719425201416015625" lon="-76.22629017569124698638916015625">
        <ele>4298</ele>
        <time>2021-07-25T19:41:36.000Z</time>
      </trkpt>
      <trkpt lat="-11.6320801712572574615478515625" lon="-76.22615061700344085693359375">
        <ele>4298.60009765625</ele>
        <time>2021-07-25T19:41:44.000Z</time>
      </trkpt>
      <trkpt lat="-11.63196735084056854248046875" lon="-76.22599932365119457244873046875">
        <ele>4299</ele>
        <time>2021-07-25T19:41:52.000Z</time>
      </trkpt>
      <trkpt lat="-11.63195385597646236419677734375" lon="-76.2259797938168048858642578125">
        <ele>4299.2001953125</ele>
        <time>2021-07-25T19:41:53.000Z</time>
      </trkpt>
      <trkpt lat="-11.6318411193788051605224609375" lon="-76.22581944800913333892822265625">
        <ele>4300</ele>
        <time>2021-07-25T19:42:01.000Z</time>
      </trkpt>
      <trkpt lat="-11.6318186558783054351806640625" lon="-76.2257803045213222503662109375">
        <ele>4300.2001953125</ele>
        <time>2021-07-25T19:42:03.000Z</time>
      </trkpt>
      <trkpt lat="-11.6317494213581085205078125" lon="-76.22565449215471744537353515625">
        <ele>4301</ele>
        <time>2021-07-25T19:42:09.000Z</time>
      </trkpt>
      <trkpt lat="-11.63171262480318546295166015625" lon="-76.225593723356723785400390625">
        <ele>4301.2001953125</ele>
        <time>2021-07-25T19:42:12.000Z</time>
      </trkpt>
      <trkpt lat="-11.63166535086929798126220703125" lon="-76.22550546191632747650146484375">
        <ele>4301.39990234375</ele>
        <time>2021-07-25T19:42:16.000Z</time>
      </trkpt>
      <trkpt lat="-11.63159159012138843536376953125" lon="-76.22534955851733684539794921875">
        <ele>4302.2001953125</ele>
        <time>2021-07-25T19:42:23.000Z</time>
      </trkpt>
      <trkpt lat="-11.63157113827764987945556640625" lon="-76.22530932538211345672607421875">
        <ele>4302.2001953125</ele>
        <time>2021-07-25T19:42:25.000Z</time>
      </trkpt>
      <trkpt lat="-11.63148899562656879425048828125" lon="-76.22512492351233959197998046875">
        <ele>4303.39990234375</ele>
        <time>2021-07-25T19:42:33.000Z</time>
      </trkpt>
      <trkpt lat="-11.63141339085996150970458984375" lon="-76.2249464727938175201416015625">
        <ele>4304.39990234375</ele>
        <time>2021-07-25T19:42:41.000Z</time>
      </trkpt>
      <trkpt lat="-11.63139411248266696929931640625" lon="-76.22490179724991321563720703125">
        <ele>4305.2001953125</ele>
        <time>2021-07-25T19:42:43.000Z</time>
      </trkpt>
      <trkpt lat="-11.63138288073241710662841796875" lon="-76.224880926311016082763671875">
        <ele>4305.39990234375</ele>
        <time>2021-07-25T19:42:44.000Z</time>
      </trkpt>
      <trkpt lat="-11.6312973015010356903076171875" lon="-76.22470566071569919586181640625">
        <ele>4306</ele>
        <time>2021-07-25T19:42:52.000Z</time>
      </trkpt>
      <trkpt lat="-11.63125614635646343231201171875" lon="-76.224614046514034271240234375">
        <ele>4306.7998046875</ele>
        <time>2021-07-25T19:42:56.000Z</time>
      </trkpt>
      <trkpt lat="-11.6311611793935298919677734375" lon="-76.2244720570743083953857421875">
        <ele>4307.39990234375</ele>
        <time>2021-07-25T19:43:03.000Z</time>
      </trkpt>
      <trkpt lat="-11.63114600814878940582275390625" lon="-76.22445319779217243194580078125">
        <ele>4307.7998046875</ele>
        <time>2021-07-25T19:43:04.000Z</time>
      </trkpt>
      <trkpt lat="-11.63104827515780925750732421875" lon="-76.224343478679656982421875">
        <ele>4308.60009765625</ele>
        <time>2021-07-25T19:43:10.000Z</time>
      </trkpt>
      <trkpt lat="-11.6310305893421173095703125" lon="-76.22432612814009189605712890625">
        <ele>4309</ele>
        <time>2021-07-25T19:43:11.000Z</time>
      </trkpt>
      <trkpt lat="-11.63090527988970279693603515625" lon="-76.22420978732407093048095703125">
        <ele>4308.7998046875</ele>
        <time>2021-07-25T19:43:18.000Z</time>
      </trkpt>
      <trkpt lat="-11.6307742707431316375732421875" lon="-76.2241206876933574676513671875">
        <ele>4309.2001953125</ele>
        <time>2021-07-25T19:43:25.000Z</time>
      </trkpt>
      <trkpt lat="-11.6306609474122524261474609375" lon="-76.22402354143559932708740234375">
        <ele>4310</ele>
        <time>2021-07-25T19:43:31.000Z</time>
      </trkpt>
      <trkpt lat="-11.63060084916651248931884765625" lon="-76.223978698253631591796875">
        <ele>4310.2001953125</ele>
        <time>2021-07-25T19:43:34.000Z</time>
      </trkpt>
      <trkpt lat="-11.63045114837586879730224609375" lon="-76.22385674156248569488525390625">
        <ele>4311</ele>
        <time>2021-07-25T19:43:42.000Z</time>
      </trkpt>
      <trkpt lat="-11.63043254055082798004150390625" lon="-76.22383930720388889312744140625">
        <ele>4311.2001953125</ele>
        <time>2021-07-25T19:43:43.000Z</time>
      </trkpt>
      <trkpt lat="-11.63028066046535968780517578125" lon="-76.2236962281167507171630859375">
        <ele>4312.2001953125</ele>
        <time>2021-07-25T19:43:52.000Z</time>
      </trkpt>
      <trkpt lat="-11.63014621473848819732666015625" lon="-76.223537139594554901123046875">
        <ele>4313.2001953125</ele>
        <time>2021-07-25T19:44:01.000Z</time>
      </trkpt>
      <trkpt lat="-11.630133725702762603759765625" lon="-76.22351543046534061431884765625">
        <ele>4313.39990234375</ele>
        <time>2021-07-25T19:44:02.000Z</time>
      </trkpt>
      <trkpt lat="-11.63006122224032878875732421875" lon="-76.2234192900359630584716796875">
        <ele>4314.39990234375</ele>
        <time>2021-07-25T19:44:07.000Z</time>
      </trkpt>
      <trkpt lat="-11.62998612038791179656982421875" lon="-76.2233341298997402191162109375">
        <ele>4315.2001953125</ele>
        <time>2021-07-25T19:44:12.000Z</time>
      </trkpt>
      <trkpt lat="-11.629918478429317474365234375" lon="-76.2232419289648532867431640625">
        <ele>4315.60009765625</ele>
        <time>2021-07-25T19:44:17.000Z</time>
      </trkpt>
      <trkpt lat="-11.62985804490745067596435546875" lon="-76.2231738679111003875732421875">
        <ele>4316.2001953125</ele>
        <time>2021-07-25T19:44:21.000Z</time>
      </trkpt>
      <trkpt lat="-11.62977732717990875244140625" lon="-76.22308753430843353271484375">
        <ele>4316.60009765625</ele>
        <time>2021-07-25T19:44:26.000Z</time>
      </trkpt>
      <trkpt lat="-11.62971421144902706146240234375" lon="-76.223021484911441802978515625">
        <ele>4317.2001953125</ele>
        <time>2021-07-25T19:44:30.000Z</time>
      </trkpt>
      <trkpt lat="-11.62960357032716274261474609375" lon="-76.22293464839458465576171875">
        <ele>4317.7998046875</ele>
        <time>2021-07-25T19:44:36.000Z</time>
      </trkpt>
      <trkpt lat="-11.629553698003292083740234375" lon="-76.22288980521261692047119140625">
        <ele>4318.39990234375</ele>
        <time>2021-07-25T19:44:39.000Z</time>
      </trkpt>
      <trkpt lat="-11.62943207658827304840087890625" lon="-76.22279257513582706451416015625">
        <ele>4318.7998046875</ele>
        <time>2021-07-25T19:44:46.000Z</time>
      </trkpt>
      <trkpt lat="-11.629415564239025115966796875" lon="-76.2227784097194671630859375">
        <ele>4319.2001953125</ele>
        <time>2021-07-25T19:44:47.000Z</time>
      </trkpt>
      <trkpt lat="-11.62925035692751407623291015625" lon="-76.22264957986772060394287109375">
        <ele>4319.2001953125</ele>
        <time>2021-07-25T19:44:56.000Z</time>
      </trkpt>
      <trkpt lat="-11.6291562281548976898193359375" lon="-76.22258369810879230499267578125">
        <ele>4320.2001953125</ele>
        <time>2021-07-25T19:45:01.000Z</time>
      </trkpt>
      <trkpt lat="-11.6290538012981414794921875" lon="-76.2225220911204814910888671875">
        <ele>4321</ele>
        <time>2021-07-25T19:45:06.000Z</time>
      </trkpt>
      <trkpt lat="-11.62896302528679370880126953125" lon="-76.22246660292148590087890625">
        <ele>4321.2001953125</ele>
        <time>2021-07-25T19:45:11.000Z</time>
      </trkpt>
      <trkpt lat="-11.62889295257627964019775390625" lon="-76.22240600176155567169189453125">
        <ele>4322.2001953125</ele>
        <time>2021-07-25T19:45:15.000Z</time>
      </trkpt>
      <trkpt lat="-11.628873087465763092041015625" lon="-76.22239208780229091644287109375">
        <ele>4322.39990234375</ele>
        <time>2021-07-25T19:45:16.000Z</time>
      </trkpt>
      <trkpt lat="-11.6287264041602611541748046875" lon="-76.22226954437792301177978515625">
        <ele>4322.7998046875</ele>
        <time>2021-07-25T19:45:24.000Z</time>
      </trkpt>
      <trkpt lat="-11.62865205667912960052490234375" lon="-76.22220332734286785125732421875">
        <ele>4323.60009765625</ele>
        <time>2021-07-25T19:45:28.000Z</time>
      </trkpt>
      <trkpt lat="-11.62859438918530941009521484375" lon="-76.22216812334954738616943359375">
        <ele>4324.7998046875</ele>
        <time>2021-07-25T19:45:31.000Z</time>
      </trkpt>
      <trkpt lat="-11.628558598458766937255859375" lon="-76.22213878668844699859619140625">
        <ele>4324.7998046875</ele>
        <time>2021-07-25T19:45:33.000Z</time>
      </trkpt>
      <trkpt lat="-11.62838333286345005035400390625" lon="-76.22201154939830303192138671875">
        <ele>4325.7998046875</ele>
        <time>2021-07-25T19:45:42.000Z</time>
      </trkpt>
      <trkpt lat="-11.62830521352589130401611328125" lon="-76.2219641916453838348388671875">
        <ele>4325.7998046875</ele>
        <time>2021-07-25T19:45:46.000Z</time>
      </trkpt>
      <trkpt lat="-11.62819524295628070831298828125" lon="-76.221907027065753936767578125">
        <ele>4326</ele>
        <time>2021-07-25T19:45:51.000Z</time>
      </trkpt>
      <trkpt lat="-11.62806364707648754119873046875" lon="-76.22184592299163341522216796875">
        <ele>4326.7998046875</ele>
        <time>2021-07-25T19:45:57.000Z</time>
      </trkpt>
      <trkpt lat="-11.62804235704243183135986328125" lon="-76.2218374572694301605224609375">
        <ele>4326.7998046875</ele>
        <time>2021-07-25T19:45:58.000Z</time>
      </trkpt>
      <trkpt lat="-11.62785493768751621246337890625" lon="-76.22175506316125392913818359375">
        <ele>4328.39990234375</ele>
        <time>2021-07-25T19:46:07.000Z</time>
      </trkpt>
      <trkpt lat="-11.6277943365275859832763671875" lon="-76.221730671823024749755859375">
        <ele>4328</ele>
        <time>2021-07-25T19:46:10.000Z</time>
      </trkpt>
      <trkpt lat="-11.6276059113442897796630859375" lon="-76.2216564081609249114990234375">
        <ele>4328.60009765625</ele>
        <time>2021-07-25T19:46:19.000Z</time>
      </trkpt>
      <trkpt lat="-11.62746082060039043426513671875" lon="-76.221607290208339691162109375">
        <ele>4329.39990234375</ele>
        <time>2021-07-25T19:46:26.000Z</time>
      </trkpt>
      <trkpt lat="-11.62739778868854045867919921875" lon="-76.2215826474130153656005859375">
        <ele>4329.60009765625</ele>
        <time>2021-07-25T19:46:29.000Z</time>
      </trkpt>
      <trkpt lat="-11.627290248870849609375" lon="-76.221551634371280670166015625">
        <ele>4330</ele>
        <time>2021-07-25T19:46:34.000Z</time>
      </trkpt>
      <trkpt lat="-11.62720768712460994720458984375" lon="-76.22153026051819324493408203125">
        <ele>4330.60009765625</ele>
        <time>2021-07-25T19:46:38.000Z</time>
      </trkpt>
      <trkpt lat="-11.62711925804615020751953125" lon="-76.22149958275258541107177734375">
        <ele>4331.2001953125</ele>
        <time>2021-07-25T19:46:42.000Z</time>
      </trkpt>
      <trkpt lat="-11.62694969214498996734619140625" lon="-76.22145214118063449859619140625">
        <ele>4331.39990234375</ele>
        <time>2021-07-25T19:46:50.000Z</time>
      </trkpt>
      <trkpt lat="-11.62690476514399051666259765625" lon="-76.221437640488147735595703125">
        <ele>4331.7998046875</ele>
        <time>2021-07-25T19:46:52.000Z</time>
      </trkpt>
      <trkpt lat="-11.62677266635000705718994140625" lon="-76.22139899991452693939208984375">
        <ele>4332.7998046875</ele>
        <time>2021-07-25T19:46:58.000Z</time>
      </trkpt>
      <trkpt lat="-11.626730002462863922119140625" lon="-76.22138793580234050750732421875">
        <ele>4333</ele>
        <time>2021-07-25T19:47:00.000Z</time>
      </trkpt>
      <trkpt lat="-11.62659622728824615478515625" lon="-76.221349127590656280517578125">
        <ele>4333.60009765625</ele>
        <time>2021-07-25T19:47:06.000Z</time>
      </trkpt>
      <trkpt lat="-11.6265313513576984405517578125" lon="-76.2213338725268840789794921875">
        <ele>4333.7998046875</ele>
        <time>2021-07-25T19:47:09.000Z</time>
      </trkpt>
      <trkpt lat="-11.626416184008121490478515625" lon="-76.22129908762872219085693359375">
        <ele>4334</ele>
        <time>2021-07-25T19:47:14.000Z</time>
      </trkpt>
      <trkpt lat="-11.62620051763951778411865234375" lon="-76.2212450243532657623291015625">
        <ele>4334.60009765625</ele>
        <time>2021-07-25T19:47:24.000Z</time>
      </trkpt>
      <trkpt lat="-11.62613748572766780853271484375" lon="-76.2212302722036838531494140625">
        <ele>4335</ele>
        <time>2021-07-25T19:47:27.000Z</time>
      </trkpt>
      <trkpt lat="-11.62604905664920806884765625" lon="-76.22120638377964496612548828125">
        <ele>4335</ele>
        <time>2021-07-25T19:47:31.000Z</time>
      </trkpt>
      <trkpt lat="-11.62585099227726459503173828125" lon="-76.2211555056273937225341796875">
        <ele>4336</ele>
        <time>2021-07-25T19:47:40.000Z</time>
      </trkpt>
      <trkpt lat="-11.625727526843547821044921875" lon="-76.221111752092838287353515625">
        <ele>4337</ele>
        <time>2021-07-25T19:47:46.000Z</time>
      </trkpt>
      <trkpt lat="-11.625687293708324432373046875" lon="-76.22109808959066867828369140625">
        <ele>4337.2001953125</ele>
        <time>2021-07-25T19:47:48.000Z</time>
      </trkpt>
      <trkpt lat="-11.62549342028796672821044921875" lon="-76.2210555933415889739990234375">
        <ele>4338</ele>
        <time>2021-07-25T19:47:57.000Z</time>
      </trkpt>
      <trkpt lat="-11.62547481246292591094970703125" lon="-76.22105249203741550445556640625">
        <ele>4338.2001953125</ele>
        <time>2021-07-25T19:47:58.000Z</time>
      </trkpt>
      <trkpt lat="-11.62535344250500202178955078125" lon="-76.2210270948708057403564453125">
        <ele>4338.60009765625</ele>
        <time>2021-07-25T19:48:04.000Z</time>
      </trkpt>
      <trkpt lat="-11.62526023574173450469970703125" lon="-76.22101276181638240814208984375">
        <ele>4339.2001953125</ele>
        <time>2021-07-25T19:48:08.000Z</time>
      </trkpt>
      <trkpt lat="-11.62519301287829875946044921875" lon="-76.2209975905716419219970703125">
        <ele>4339.7998046875</ele>
        <time>2021-07-25T19:48:11.000Z</time>
      </trkpt>
      <trkpt lat="-11.6251029074192047119140625" lon="-76.220984347164630889892578125">
        <ele>4340.39990234375</ele>
        <time>2021-07-25T19:48:15.000Z</time>
      </trkpt>
      <trkpt lat="-11.62503258325159549713134765625" lon="-76.22097386978566646575927734375">
        <ele>4340.39990234375</ele>
        <time>2021-07-25T19:48:18.000Z</time>
      </trkpt>
      <trkpt lat="-11.6248536296188831329345703125" lon="-76.220931373536586761474609375">
        <ele>4341</ele>
        <time>2021-07-25T19:48:26.000Z</time>
      </trkpt>
      <trkpt lat="-11.62474323995411396026611328125" lon="-76.22091201134026050567626953125">
        <ele>4341.60009765625</ele>
        <time>2021-07-25T19:48:31.000Z</time>
      </trkpt>
      <trkpt lat="-11.6246739216148853302001953125" lon="-76.2208936549723148345947265625">
        <ele>4342.2001953125</ele>
        <time>2021-07-25T19:48:34.000Z</time>
      </trkpt>
      <trkpt lat="-11.62451659329235553741455078125" lon="-76.2208606302738189697265625">
        <ele>4342.7998046875</ele>
        <time>2021-07-25T19:48:41.000Z</time>
      </trkpt>
      <trkpt lat="-11.62449781782925128936767578125" lon="-76.22085367329418659210205078125">
        <ele>4343</ele>
        <time>2021-07-25T19:48:42.000Z</time>
      </trkpt>
      <trkpt lat="-11.624297909438610076904296875" lon="-76.22081704437732696533203125">
        <ele>4343.7998046875</ele>
        <time>2021-07-25T19:48:51.000Z</time>
      </trkpt>
      <trkpt lat="-11.62427083589136600494384765625" lon="-76.220816038548946380615234375">
        <ele>4344</ele>
        <time>2021-07-25T19:48:52.000Z</time>
      </trkpt>
      <trkpt lat="-11.62410872988402843475341796875" lon="-76.2207900546491146087646484375">
        <ele>4344.39990234375</ele>
        <time>2021-07-25T19:48:59.000Z</time>
      </trkpt>
      <trkpt lat="-11.6239436902105808258056640625" lon="-76.2207189761102199554443359375">
        <ele>4345.2001953125</ele>
        <time>2021-07-25T19:49:07.000Z</time>
      </trkpt>
      <trkpt lat="-11.62379734218120574951171875" lon="-76.22067379765212535858154296875">
        <ele>4345.60009765625</ele>
        <time>2021-07-25T19:49:14.000Z</time>
      </trkpt>
      <trkpt lat="-11.62368737161159515380859375" lon="-76.220635659992694854736328125">
        <ele>4346.39990234375</ele>
        <time>2021-07-25T19:49:19.000Z</time>
      </trkpt>
      <trkpt lat="-11.62364588119089603424072265625" lon="-76.220619566738605499267578125">
        <ele>4346.7998046875</ele>
        <time>2021-07-25T19:49:21.000Z</time>
      </trkpt>
      <trkpt lat="-11.62349115125834941864013671875" lon="-76.22055762447416782379150390625">
        <ele>4347.2001953125</ele>
        <time>2021-07-25T19:49:29.000Z</time>
      </trkpt>
      <trkpt lat="-11.62342292256653308868408203125" lon="-76.220531053841114044189453125">
        <ele>4347.60009765625</ele>
        <time>2021-07-25T19:49:32.000Z</time>
      </trkpt>
      <trkpt lat="-11.623342372477054595947265625" lon="-76.220501549541950225830078125">
        <ele>4347.7998046875</ele>
        <time>2021-07-25T19:49:36.000Z</time>
      </trkpt>
      <trkpt lat="-11.62319996394217014312744140625" lon="-76.2204329855740070343017578125">
        <ele>4348.39990234375</ele>
        <time>2021-07-25T19:49:43.000Z</time>
      </trkpt>
      <trkpt lat="-11.62318118847906589508056640625" lon="-76.2204239331185817718505859375">
        <ele>4348.60009765625</ele>
        <time>2021-07-25T19:49:44.000Z</time>
      </trkpt>
      <trkpt lat="-11.6229918412864208221435546875" lon="-76.2203483283519744873046875">
        <ele>4349.60009765625</ele>
        <time>2021-07-25T19:49:53.000Z</time>
      </trkpt>
      <trkpt lat="-11.62297147326171398162841796875" lon="-76.22033667750656604766845703125">
        <ele>4349.7998046875</ele>
        <time>2021-07-25T19:49:54.000Z</time>
      </trkpt>
      <trkpt lat="-11.62279746495187282562255859375" lon="-76.22023810632526874542236328125">
        <ele>4350.60009765625</ele>
        <time>2021-07-25T19:50:03.000Z</time>
      </trkpt>
      <trkpt lat="-11.622781120240688323974609375" lon="-76.2202284671366214752197265625">
        <ele>4350.60009765625</ele>
        <time>2021-07-25T19:50:04.000Z</time>
      </trkpt>
      <trkpt lat="-11.62262882106006145477294921875" lon="-76.2201325781643390655517578125">
        <ele>4351.60009765625</ele>
        <time>2021-07-25T19:50:13.000Z</time>
      </trkpt>
      <trkpt lat="-11.6226111352443695068359375" lon="-76.22012327425181865692138671875">
        <ele>4352</ele>
        <time>2021-07-25T19:50:14.000Z</time>
      </trkpt>
      <trkpt lat="-11.6224755160510540008544921875" lon="-76.22003308497369289398193359375">
        <ele>4352.7998046875</ele>
        <time>2021-07-25T19:50:22.000Z</time>
      </trkpt>
      <trkpt lat="-11.62235741503536701202392578125" lon="-76.2199486792087554931640625">
        <ele>4353.7998046875</ele>
        <time>2021-07-25T19:50:29.000Z</time>
      </trkpt>
      <trkpt lat="-11.622321791946887969970703125" lon="-76.2199243716895580291748046875">
        <ele>4354</ele>
        <time>2021-07-25T19:50:31.000Z</time>
      </trkpt>
      <trkpt lat="-11.62223017774522304534912109375" lon="-76.21985890902578830718994140625">
        <ele>4354.60009765625</ele>
        <time>2021-07-25T19:50:36.000Z</time>
      </trkpt>
      <trkpt lat="-11.62218223325908184051513671875" lon="-76.21981096453964710235595703125">
        <ele>4355.2001953125</ele>
        <time>2021-07-25T19:50:39.000Z</time>
      </trkpt>
      <trkpt lat="-11.6220540739595890045166015625" lon="-76.21973183937370777130126953125">
        <ele>4355.7998046875</ele>
        <time>2021-07-25T19:50:45.000Z</time>
      </trkpt>
      <trkpt lat="-11.62197209894657135009765625" lon="-76.2196772731840610504150390625">
        <ele>4356.2001953125</ele>
        <time>2021-07-25T19:50:49.000Z</time>
      </trkpt>
      <trkpt lat="-11.62189154885709285736083984375" lon="-76.21962304227054119110107421875">
        <ele>4356.7998046875</ele>
        <time>2021-07-25T19:50:53.000Z</time>
      </trkpt>
      <trkpt lat="-11.62175827659666538238525390625" lon="-76.21955531649291515350341796875">
        <ele>4357.39990234375</ele>
        <time>2021-07-25T19:50:59.000Z</time>
      </trkpt>
      <trkpt lat="-11.6217174567282199859619140625" lon="-76.21952715329825878143310546875">
        <ele>4357.39990234375</ele>
        <time>2021-07-25T19:51:01.000Z</time>
      </trkpt>
      <trkpt lat="-11.6215501539409160614013671875" lon="-76.21944886632263660430908203125">
        <ele>4358</ele>
        <time>2021-07-25T19:51:08.000Z</time>
      </trkpt>
      <trkpt lat="-11.62148100323975086212158203125" lon="-76.219408214092254638671875">
        <ele>4358.39990234375</ele>
        <time>2021-07-25T19:51:11.000Z</time>
      </trkpt>
      <trkpt lat="-11.621402800083160400390625" lon="-76.219340823590755462646484375">
        <ele>4358.7998046875</ele>
        <time>2021-07-25T19:51:15.000Z</time>
      </trkpt>
      <trkpt lat="-11.621309928596019744873046875" lon="-76.21925356797873973846435546875">
        <ele>4359.39990234375</ele>
        <time>2021-07-25T19:51:20.000Z</time>
      </trkpt>
      <trkpt lat="-11.62128218449652194976806640625" lon="-76.2192082218825817108154296875">
        <ele>4359.7998046875</ele>
        <time>2021-07-25T19:51:22.000Z</time>
      </trkpt>
      <trkpt lat="-11.6211836971342563629150390625" lon="-76.2190234847366809844970703125">
        <ele>4360.60009765625</ele>
        <time>2021-07-25T19:51:30.000Z</time>
      </trkpt>
      <trkpt lat="-11.62115142680704593658447265625" lon="-76.21894662268459796905517578125">
        <ele>4361</ele>
        <time>2021-07-25T19:51:33.000Z</time>
      </trkpt>
      <trkpt lat="-11.62110507488250732421875" lon="-76.21885140426456928253173828125">
        <ele>4361.60009765625</ele>
        <time>2021-07-25T19:51:37.000Z</time>
      </trkpt>
      <trkpt lat="-11.6210619919002056121826171875" lon="-76.21876473538577556610107421875">
        <ele>4362.2001953125</ele>
        <time>2021-07-25T19:51:41.000Z</time>
      </trkpt>
      <trkpt lat="-11.62105235271155834197998046875" lon="-76.21874369680881500244140625">
        <ele>4362.60009765625</ele>
        <time>2021-07-25T19:51:42.000Z</time>
      </trkpt>
      <trkpt lat="-11.6209992952644824981689453125" lon="-76.21862727217376232147216796875">
        <ele>4363.2001953125</ele>
        <time>2021-07-25T19:51:47.000Z</time>
      </trkpt>
      <trkpt lat="-11.620973311364650726318359375" lon="-76.2185834348201751708984375">
        <ele>4363.7998046875</ele>
        <time>2021-07-25T19:51:49.000Z</time>
      </trkpt>
      <trkpt lat="-11.62088354118168354034423828125" lon="-76.21842409484088420867919921875">
        <ele>4364.7998046875</ele>
        <time>2021-07-25T19:51:56.000Z</time>
      </trkpt>
      <trkpt lat="-11.62077248096466064453125" lon="-76.21828394941985607147216796875">
        <ele>4365.39990234375</ele>
        <time>2021-07-25T19:52:03.000Z</time>
      </trkpt>
      <trkpt lat="-11.6206335090100765228271484375" lon="-76.2181675247848033905029296875">
        <ele>4365.60009765625</ele>
        <time>2021-07-25T19:52:10.000Z</time>
      </trkpt>
      <trkpt lat="-11.62058807909488677978515625" lon="-76.21814045123755931854248046875">
        <ele>4366</ele>
        <time>2021-07-25T19:52:12.000Z</time>
      </trkpt>
      <trkpt lat="-11.6204573214054107666015625" lon="-76.21806786395609378814697265625">
        <ele>4366.39990234375</ele>
        <time>2021-07-25T19:52:18.000Z</time>
      </trkpt>
      <trkpt lat="-11.62026294507086277008056640625" lon="-76.2179881520569324493408203125">
        <ele>4366.60009765625</ele>
        <time>2021-07-25T19:52:27.000Z</time>
      </trkpt>
      <trkpt lat="-11.62017493508756160736083984375" lon="-76.2179485894739627838134765625">
        <ele>4367</ele>
        <time>2021-07-25T19:52:31.000Z</time>
      </trkpt>
      <trkpt lat="-11.6200595162808895111083984375" lon="-76.217883042991161346435546875">
        <ele>4367</ele>
        <time>2021-07-25T19:52:37.000Z</time>
      </trkpt>
      <trkpt lat="-11.61987737752497196197509765625" lon="-76.21778790839016437530517578125">
        <ele>4367.7998046875</ele>
        <time>2021-07-25T19:52:46.000Z</time>
      </trkpt>
      <trkpt lat="-11.61982155404984951019287109375" lon="-76.2177373655140399932861328125">
        <ele>4368</ele>
        <time>2021-07-25T19:52:50.000Z</time>
      </trkpt>
      <trkpt lat="-11.61980328150093555450439453125" lon="-76.21772420592606067657470703125">
        <ele>4368</ele>
        <time>2021-07-25T19:52:53.000Z</time>
      </trkpt>
      <trkpt lat="-11.61977662704885005950927734375" lon="-76.21769704855978488922119140625">
        <ele>4368</ele>
        <time>2021-07-25T19:53:33.000Z</time>
      </trkpt>
      <trkpt lat="-11.61976355127990245819091796875" lon="-76.21768514625728130340576171875">
        <ele>4368</ele>
        <time>2021-07-25T19:53:34.000Z</time>
      </trkpt>
      <trkpt lat="-11.61974946968257427215576171875" lon="-76.21767424978315830230712890625">
        <ele>4368</ele>
        <time>2021-07-25T19:53:35.000Z</time>
      </trkpt>
      <trkpt lat="-11.61966498009860515594482421875" lon="-76.21756511740386486053466796875">
        <ele>4368.39990234375</ele>
        <time>2021-07-25T19:53:41.000Z</time>
      </trkpt>
      <trkpt lat="-11.61962022073566913604736328125" lon="-76.21749244630336761474609375">
        <ele>4369.2001953125</ele>
        <time>2021-07-25T19:53:44.000Z</time>
      </trkpt>
      <trkpt lat="-11.619597338140010833740234375" lon="-76.2174434959888458251953125">
        <ele>4369.39990234375</ele>
        <time>2021-07-25T19:53:46.000Z</time>
      </trkpt>
      <trkpt lat="-11.61947001703083515167236328125" lon="-76.2172042764723300933837890625">
        <ele>4370.2001953125</ele>
        <time>2021-07-25T19:53:56.000Z</time>
      </trkpt>
      <trkpt lat="-11.619459204375743865966796875" lon="-76.2171784602105617523193359375">
        <ele>4370.2001953125</ele>
        <time>2021-07-25T19:53:57.000Z</time>
      </trkpt>
      <trkpt lat="-11.61939357407391071319580078125" lon="-76.21705985628068447113037109375">
        <ele>4371.39990234375</ele>
        <time>2021-07-25T19:54:02.000Z</time>
      </trkpt>
      <trkpt lat="-11.6193386726081371307373046875" lon="-76.2169633805751800537109375">
        <ele>4371.7998046875</ele>
        <time>2021-07-25T19:54:06.000Z</time>
      </trkpt>
      <trkpt lat="-11.6192789934575557708740234375" lon="-76.216851063072681427001953125">
        <ele>4372.60009765625</ele>
        <time>2021-07-25T19:54:11.000Z</time>
      </trkpt>
      <trkpt lat="-11.61921679973602294921875" lon="-76.216757856309413909912109375">
        <ele>4372.7998046875</ele>
        <time>2021-07-25T19:54:15.000Z</time>
      </trkpt>
      <trkpt lat="-11.619173549115657806396484375" lon="-76.21667982079088687896728515625">
        <ele>4373.60009765625</ele>
        <time>2021-07-25T19:54:18.000Z</time>
      </trkpt>
      <trkpt lat="-11.61912283860146999359130859375" lon="-76.21658720076084136962890625">
        <ele>4374.2001953125</ele>
        <time>2021-07-25T19:54:22.000Z</time>
      </trkpt>
      <trkpt lat="-11.6190422885119915008544921875" lon="-76.21645753271877765655517578125">
        <ele>4374.60009765625</ele>
        <time>2021-07-25T19:54:28.000Z</time>
      </trkpt>
      <trkpt lat="-11.619009934365749359130859375" lon="-76.2163912318646907806396484375">
        <ele>4375.2001953125</ele>
        <time>2021-07-25T19:54:31.000Z</time>
      </trkpt>
      <trkpt lat="-11.61893986165523529052734375" lon="-76.21628033928573131561279296875">
        <ele>4375.7998046875</ele>
        <time>2021-07-25T19:54:36.000Z</time>
      </trkpt>
      <trkpt lat="-11.61891345866024494171142578125" lon="-76.216235496103763580322265625">
        <ele>4376.2001953125</ele>
        <time>2021-07-25T19:54:38.000Z</time>
      </trkpt>
      <trkpt lat="-11.61886517889797687530517578125" lon="-76.21614488773047924041748046875">
        <ele>4377</ele>
        <time>2021-07-25T19:54:42.000Z</time>
      </trkpt>
      <trkpt lat="-11.61881404928863048553466796875" lon="-76.21605335734784603118896484375">
        <ele>4377.2001953125</ele>
        <time>2021-07-25T19:54:46.000Z</time>
      </trkpt>
      <trkpt lat="-11.6187693737447261810302734375" lon="-76.215952523052692413330078125">
        <ele>4378</ele>
        <time>2021-07-25T19:54:50.000Z</time>
      </trkpt>
      <trkpt lat="-11.61875269375741481781005859375" lon="-76.215902902185916900634765625">
        <ele>4378.39990234375</ele>
        <time>2021-07-25T19:54:52.000Z</time>
      </trkpt>
      <trkpt lat="-11.61870324052870273590087890625" lon="-76.2158024869859218597412109375">
        <ele>4379.2001953125</ele>
        <time>2021-07-25T19:54:56.000Z</time>
      </trkpt>
      <trkpt lat="-11.6186567209661006927490234375" lon="-76.21568170376121997833251953125">
        <ele>4379.39990234375</ele>
        <time>2021-07-25T19:55:01.000Z</time>
      </trkpt>
      <trkpt lat="-11.61861372180283069610595703125" lon="-76.21558262966573238372802734375">
        <ele>4380.2001953125</ele>
        <time>2021-07-25T19:55:05.000Z</time>
      </trkpt>
      <trkpt lat="-11.618588827550411224365234375" lon="-76.21553367935121059417724609375">
        <ele>4380.60009765625</ele>
        <time>2021-07-25T19:55:07.000Z</time>
      </trkpt>
      <trkpt lat="-11.61853074096143245697021484375" lon="-76.21541180647909641265869140625">
        <ele>4381</ele>
        <time>2021-07-25T19:55:12.000Z</time>
      </trkpt>
      <trkpt lat="-11.618517078459262847900390625" lon="-76.215390264987945556640625">
        <ele>4381.39990234375</ele>
        <time>2021-07-25T19:55:13.000Z</time>
      </trkpt>
      <trkpt lat="-11.61842294968664646148681640625" lon="-76.215228997170925140380859375">
        <ele>4382.7998046875</ele>
        <time>2021-07-25T19:55:20.000Z</time>
      </trkpt>
      <trkpt lat="-11.6182778589427471160888671875" lon="-76.2150321900844573974609375">
        <ele>4382.60009765625</ele>
        <time>2021-07-25T19:55:29.000Z</time>
      </trkpt>
      <trkpt lat="-11.61813654005527496337890625" lon="-76.2148764543235301971435546875">
        <ele>4384</ele>
        <time>2021-07-25T19:55:37.000Z</time>
      </trkpt>
      <trkpt lat="-11.618083901703357696533203125" lon="-76.2148191221058368682861328125">
        <ele>4384</ele>
        <time>2021-07-25T19:55:40.000Z</time>
      </trkpt>
      <trkpt lat="-11.61791659891605377197265625" lon="-76.21462516486644744873046875">
        <ele>4385</ele>
        <time>2021-07-25T19:55:50.000Z</time>
      </trkpt>
      <trkpt lat="-11.61774787120521068572998046875" lon="-76.21443581767380237579345703125">
        <ele>4386</ele>
        <time>2021-07-25T19:56:00.000Z</time>
      </trkpt>
      <trkpt lat="-11.61758593283593654632568359375" lon="-76.21425577439367771148681640625">
        <ele>4387.2001953125</ele>
        <time>2021-07-25T19:56:09.000Z</time>
      </trkpt>
      <trkpt lat="-11.61756657063961029052734375" lon="-76.21423490345478057861328125">
        <ele>4387.60009765625</ele>
        <time>2021-07-25T19:56:10.000Z</time>
      </trkpt>
      <trkpt lat="-11.617444194853305816650390625" lon="-76.21408126316964626312255859375">
        <ele>4388.39990234375</ele>
        <time>2021-07-25T19:56:17.000Z</time>
      </trkpt>
      <trkpt lat="-11.6173856891691684722900390625" lon="-76.2140241824090480804443359375">
        <ele>4388.60009765625</ele>
        <time>2021-07-25T19:56:20.000Z</time>
      </trkpt>
      <trkpt lat="-11.617274545133113861083984375" lon="-76.21390691958367824554443359375">
        <ele>4389.39990234375</ele>
        <time>2021-07-25T19:56:26.000Z</time>
      </trkpt>
      <trkpt lat="-11.61725903861224651336669921875" lon="-76.21388462372124195098876953125">
        <ele>4389.60009765625</ele>
        <time>2021-07-25T19:56:27.000Z</time>
      </trkpt>
      <trkpt lat="-11.617112271487712860107421875" lon="-76.21372402645647525787353515625">
        <ele>4390.2001953125</ele>
        <time>2021-07-25T19:56:35.000Z</time>
      </trkpt>
      <trkpt lat="-11.61708176136016845703125" lon="-76.21367909945547580718994140625">
        <ele>4390.60009765625</ele>
        <time>2021-07-25T19:56:37.000Z</time>
      </trkpt>
      <trkpt lat="-11.61699551157653331756591796875" lon="-76.2135786004364490509033203125">
        <ele>4391</ele>
        <time>2021-07-25T19:56:42.000Z</time>
      </trkpt>
      <trkpt lat="-11.61693801172077655792236328125" lon="-76.21351665817201137542724609375">
        <ele>4391.60009765625</ele>
        <time>2021-07-25T19:56:45.000Z</time>
      </trkpt>
      <trkpt lat="-11.6168308071792125701904296875" lon="-76.2133871577680110931396484375">
        <ele>4392</ele>
        <time>2021-07-25T19:56:51.000Z</time>
      </trkpt>
      <trkpt lat="-11.616738103330135345458984375" lon="-76.213285736739635467529296875">
        <ele>4392.7998046875</ele>
        <time>2021-07-25T19:56:56.000Z</time>
      </trkpt>
      <trkpt lat="-11.61666878499090671539306640625" lon="-76.21320300735533237457275390625">
        <ele>4393</ele>
        <time>2021-07-25T19:57:00.000Z</time>
      </trkpt>
      <trkpt lat="-11.61653417162597179412841796875" lon="-76.213064454495906829833984375">
        <ele>4393.7998046875</ele>
        <time>2021-07-25T19:57:07.000Z</time>
      </trkpt>
      <trkpt lat="-11.61651656962931156158447265625" lon="-76.2130418233573436737060546875">
        <ele>4394</ele>
        <time>2021-07-25T19:57:08.000Z</time>
      </trkpt>
      <trkpt lat="-11.61641456186771392822265625" lon="-76.21290184557437896728515625">
        <ele>4395.2001953125</ele>
        <time>2021-07-25T19:57:14.000Z</time>
      </trkpt>
      <trkpt lat="-11.6163959540426731109619140625" lon="-76.212879382073879241943359375">
        <ele>4395.60009765625</ele>
        <time>2021-07-25T19:57:15.000Z</time>
      </trkpt>
      <trkpt lat="-11.6163332574069499969482421875" lon="-76.21282531879842281341552734375">
        <ele>4396.2001953125</ele>
        <time>2021-07-25T19:57:18.000Z</time>
      </trkpt>
      <trkpt lat="-11.61626460961997509002685546875" lon="-76.21274233795702457427978515625">
        <ele>4396.39990234375</ele>
        <time>2021-07-25T19:57:22.000Z</time>
      </trkpt>
      <trkpt lat="-11.6161201894283294677734375" lon="-76.21258936822414398193359375">
        <ele>4397</ele>
        <time>2021-07-25T19:57:30.000Z</time>
      </trkpt>
      <trkpt lat="-11.616047434508800506591796875" lon="-76.21251099742949008941650390625">
        <ele>4397.2001953125</ele>
        <time>2021-07-25T19:57:34.000Z</time>
      </trkpt>
      <trkpt lat="-11.61596931517124176025390625" lon="-76.21243438683450222015380859375">
        <ele>4397.7998046875</ele>
        <time>2021-07-25T19:57:38.000Z</time>
      </trkpt>
      <trkpt lat="-11.61585372872650623321533203125" lon="-76.2123206444084644317626953125">
        <ele>4398.39990234375</ele>
        <time>2021-07-25T19:57:44.000Z</time>
      </trkpt>
      <trkpt lat="-11.615791954100131988525390625" lon="-76.21226356364786624908447265625">
        <ele>4398.7998046875</ele>
        <time>2021-07-25T19:57:47.000Z</time>
      </trkpt>
      <trkpt lat="-11.615720875561237335205078125" lon="-76.21218896470963954925537109375">
        <ele>4399.39990234375</ele>
        <time>2021-07-25T19:57:51.000Z</time>
      </trkpt>
      <trkpt lat="-11.6156389005482196807861328125" lon="-76.21211017481982707977294921875">
        <ele>4400</ele>
        <time>2021-07-25T19:57:55.000Z</time>
      </trkpt>
      <trkpt lat="-11.615594811737537384033203125" lon="-76.21207446791231632232666015625">
        <ele>4400.39990234375</ele>
        <time>2021-07-25T19:57:57.000Z</time>
      </trkpt>
      <trkpt lat="-11.6154327057301998138427734375" lon="-76.21195661835372447967529296875">
        <ele>4401.60009765625</ele>
        <time>2021-07-25T19:58:04.000Z</time>
      </trkpt>
      <trkpt lat="-11.615408398211002349853515625" lon="-76.2119397707283496856689453125">
        <ele>4401.39990234375</ele>
        <time>2021-07-25T19:58:05.000Z</time>
      </trkpt>
      <trkpt lat="-11.61519222892820835113525390625" lon="-76.21178261004388332366943359375">
        <ele>4401.7998046875</ele>
        <time>2021-07-25T19:58:15.000Z</time>
      </trkpt>
      <trkpt lat="-11.61497128196060657501220703125" lon="-76.21164380572736263275146484375">
        <ele>4402.60009765625</ele>
        <time>2021-07-25T19:58:25.000Z</time>
      </trkpt>
      <trkpt lat="-11.61495066247880458831787109375" lon="-76.21162754483520984649658203125">
        <ele>4402.7998046875</ele>
        <time>2021-07-25T19:58:26.000Z</time>
      </trkpt>
      <trkpt lat="-11.6147772409021854400634765625" lon="-76.21150583960115909576416015625">
        <ele>4403.60009765625</ele>
        <time>2021-07-25T19:58:34.000Z</time>
      </trkpt>
      <trkpt lat="-11.61473290063440799713134765625" lon="-76.21147164143621921539306640625">
        <ele>4403.7998046875</ele>
        <time>2021-07-25T19:58:36.000Z</time>
      </trkpt>
      <trkpt lat="-11.6146369278430938720703125" lon="-76.2114046700298786163330078125">
        <ele>4404.39990234375</ele>
        <time>2021-07-25T19:58:40.000Z</time>
      </trkpt>
      <trkpt lat="-11.61447725258767604827880859375" lon="-76.21129444800317287445068359375">
        <ele>4404.7998046875</ele>
        <time>2021-07-25T19:58:47.000Z</time>
      </trkpt>
      <trkpt lat="-11.61445495672523975372314453125" lon="-76.211281120777130126953125">
        <ele>4405</ele>
        <time>2021-07-25T19:58:48.000Z</time>
      </trkpt>
      <trkpt lat="-11.61431380547583103179931640625" lon="-76.21119000948965549468994140625">
        <ele>4406</ele>
        <time>2021-07-25T19:58:54.000Z</time>
      </trkpt>
      <trkpt lat="-11.61429150961339473724365234375" lon="-76.21117408387362957000732421875">
        <ele>4406</ele>
        <time>2021-07-25T19:58:55.000Z</time>
      </trkpt>
      <trkpt lat="-11.614165194332599639892578125" lon="-76.21107568033039569854736328125">
        <ele>4407</ele>
        <time>2021-07-25T19:59:01.000Z</time>
      </trkpt>
      <trkpt lat="-11.61409604363143444061279296875" lon="-76.21103796176612377166748046875">
        <ele>4407.39990234375</ele>
        <time>2021-07-25T19:59:04.000Z</time>
      </trkpt>
      <trkpt lat="-11.61390325985848903656005859375" lon="-76.2109389714896678924560546875">
        <ele>4407.7998046875</ele>
        <time>2021-07-25T19:59:12.000Z</time>
      </trkpt>
      <trkpt lat="-11.613856740295886993408203125" lon="-76.21091810055077075958251953125">
        <ele>4408</ele>
        <time>2021-07-25T19:59:14.000Z</time>
      </trkpt>
      <trkpt lat="-11.6136999987065792083740234375" lon="-76.2108506262302398681640625">
        <ele>4408.2001953125</ele>
        <time>2021-07-25T19:59:20.000Z</time>
      </trkpt>
      <trkpt lat="-11.61354417912662029266357421875" lon="-76.21079421602189540863037109375">
        <ele>4409</ele>
        <time>2021-07-25T19:59:26.000Z</time>
      </trkpt>
      <trkpt lat="-11.61349489353597164154052734375" lon="-76.21076957322657108306884765625">
        <ele>4409</ele>
        <time>2021-07-25T19:59:28.000Z</time>
      </trkpt>
      <trkpt lat="-11.613294146955013275146484375" lon="-76.21068122796714305877685546875">
        <ele>4409.7998046875</ele>
        <time>2021-07-25T19:59:36.000Z</time>
      </trkpt>
      <trkpt lat="-11.613214351236820220947265625" lon="-76.21064870618283748626708984375">
        <ele>4410</ele>
        <time>2021-07-25T19:59:39.000Z</time>
      </trkpt>
      <trkpt lat="-11.61308418028056621551513671875" lon="-76.21059489436447620391845703125">
        <ele>4410.60009765625</ele>
        <time>2021-07-25T19:59:44.000Z</time>
      </trkpt>
      <trkpt lat="-11.61298292689025402069091796875" lon="-76.21055147610604763031005859375">
        <ele>4411.2001953125</ele>
        <time>2021-07-25T19:59:48.000Z</time>
      </trkpt>
      <trkpt lat="-11.61290891468524932861328125" lon="-76.21051912195980548858642578125">
        <ele>4411.2001953125</ele>
        <time>2021-07-25T19:59:51.000Z</time>
      </trkpt>
      <trkpt lat="-11.61272526718676090240478515625" lon="-76.21044301427900791168212890625">
        <ele>4411.60009765625</ele>
        <time>2021-07-25T19:59:58.000Z</time>
      </trkpt>
      <trkpt lat="-11.6125543601810932159423828125" lon="-76.2103565968573093414306640625">
        <ele>4412</ele>
        <time>2021-07-25T20:00:05.000Z</time>
      </trkpt>
      <trkpt lat="-11.61246257834136486053466796875" lon="-76.21029482223093509674072265625">
        <ele>4412.2001953125</ele>
        <time>2021-07-25T20:00:09.000Z</time>
      </trkpt>
      <trkpt lat="-11.6123696230351924896240234375" lon="-76.210232041776180267333984375">
        <ele>4412.60009765625</ele>
        <time>2021-07-25T20:00:13.000Z</time>
      </trkpt>
      <trkpt lat="-11.61227314732968807220458984375" lon="-76.21013782918453216552734375">
        <ele>4413</ele>
        <time>2021-07-25T20:00:18.000Z</time>
      </trkpt>
      <trkpt lat="-11.61225537769496440887451171875" lon="-76.21011930517852306365966796875">
        <ele>4413.2001953125</ele>
        <time>2021-07-25T20:00:19.000Z</time>
      </trkpt>
      <trkpt lat="-11.612175665795803070068359375" lon="-76.210013441741466522216796875">
        <ele>4414.39990234375</ele>
        <time>2021-07-25T20:00:24.000Z</time>
      </trkpt>
      <trkpt lat="-11.6121585667133331298828125" lon="-76.209993995726108551025390625">
        <ele>4414.60009765625</ele>
        <time>2021-07-25T20:00:25.000Z</time>
      </trkpt>
      <trkpt lat="-11.61207516677677631378173828125" lon="-76.20988008566200733184814453125">
        <ele>4414.60009765625</ele>
        <time>2021-07-25T20:00:31.000Z</time>
      </trkpt>
      <trkpt lat="-11.61194977350533008575439453125" lon="-76.2097133696079254150390625">
        <ele>4415.39990234375</ele>
        <time>2021-07-25T20:00:39.000Z</time>
      </trkpt>
      <trkpt lat="-11.61181323230266571044921875" lon="-76.209543049335479736328125">
        <ele>4416.2001953125</ele>
        <time>2021-07-25T20:00:47.000Z</time>
      </trkpt>
      <trkpt lat="-11.6117788664996623992919921875" lon="-76.209500469267368316650390625">
        <ele>4416.39990234375</ele>
        <time>2021-07-25T20:00:49.000Z</time>
      </trkpt>
      <trkpt lat="-11.61167618818581104278564453125" lon="-76.20937147177755832672119140625">
        <ele>4417.39990234375</ele>
        <time>2021-07-25T20:00:55.000Z</time>
      </trkpt>
      <trkpt lat="-11.61163930781185626983642578125" lon="-76.20932771824300289154052734375">
        <ele>4417.39990234375</ele>
        <time>2021-07-25T20:00:57.000Z</time>
      </trkpt>
      <trkpt lat="-11.6115381382405757904052734375" lon="-76.2092019058763980865478515625">
        <ele>4418.2001953125</ele>
        <time>2021-07-25T20:01:03.000Z</time>
      </trkpt>
      <trkpt lat="-11.61150787957012653350830078125" lon="-76.20916041545569896697998046875">
        <ele>4418.60009765625</ele>
        <time>2021-07-25T20:01:05.000Z</time>
      </trkpt>
      <trkpt lat="-11.61144635640084743499755859375" lon="-76.20907978154718875885009765625">
        <ele>4419</ele>
        <time>2021-07-25T20:01:09.000Z</time>
      </trkpt>
      <trkpt lat="-11.611395142972469329833984375" lon="-76.20902043767273426055908203125">
        <ele>4419.60009765625</ele>
        <time>2021-07-25T20:01:12.000Z</time>
      </trkpt>
      <trkpt lat="-11.61128877662122249603271484375" lon="-76.20889185927808284759521484375">
        <ele>4420.39990234375</ele>
        <time>2021-07-25T20:01:18.000Z</time>
      </trkpt>
      <trkpt lat="-11.61125323735177516937255859375" lon="-76.208856739103794097900390625">
        <ele>4420.60009765625</ele>
        <time>2021-07-25T20:01:20.000Z</time>
      </trkpt>
      <trkpt lat="-11.61113706417381763458251953125" lon="-76.2087419070303440093994140625">
        <ele>4421.39990234375</ele>
        <time>2021-07-25T20:01:26.000Z</time>
      </trkpt>
      <trkpt lat="-11.61107034422457218170166015625" lon="-76.2086842395365238189697265625">
        <ele>4421.60009765625</ele>
        <time>2021-07-25T20:01:29.000Z</time>
      </trkpt>
      <trkpt lat="-11.6109569370746612548828125" lon="-76.2085933797061443328857421875">
        <ele>4421.7998046875</ele>
        <time>2021-07-25T20:01:34.000Z</time>
      </trkpt>
      <trkpt lat="-11.610825173556804656982421875" lon="-76.20844828896224498748779296875">
        <ele>4422.60009765625</ele>
        <time>2021-07-25T20:01:41.000Z</time>
      </trkpt>
      <trkpt lat="-11.6108062304556369781494140625" lon="-76.2084062956273555755615234375">
        <ele>4422.7998046875</ele>
        <time>2021-07-25T20:01:43.000Z</time>
      </trkpt>
      <trkpt lat="-11.6107851080596446990966796875" lon="-76.2083248235285282135009765625">
        <ele>4423.39990234375</ele>
        <time>2021-07-25T20:01:46.000Z</time>
      </trkpt>
      <trkpt lat="-11.6108216531574726104736328125" lon="-76.2081870250403881072998046875">
        <ele>4424</ele>
        <time>2021-07-25T20:01:51.000Z</time>
      </trkpt>
      <trkpt lat="-11.61084185354411602020263671875" lon="-76.20816179551184177398681640625">
        <ele>4424.39990234375</ele>
        <time>2021-07-25T20:01:52.000Z</time>
      </trkpt>
      <trkpt lat="-11.61090253852307796478271484375" lon="-76.2080968357622623443603515625">
        <ele>4425</ele>
        <time>2021-07-25T20:01:55.000Z</time>
      </trkpt>
      <trkpt lat="-11.61097428761422634124755859375" lon="-76.20805199258029460906982421875">
        <ele>4425.39990234375</ele>
        <time>2021-07-25T20:01:58.000Z</time>
      </trkpt>
      <trkpt lat="-11.611151732504367828369140625" lon="-76.20802030898630619049072265625">
        <ele>4425.39990234375</ele>
        <time>2021-07-25T20:02:04.000Z</time>
      </trkpt>
      <trkpt lat="-11.61136798560619354248046875" lon="-76.20804369449615478515625">
        <ele>4426</ele>
        <time>2021-07-25T20:02:12.000Z</time>
      </trkpt>
      <trkpt lat="-11.61141903139650821685791015625" lon="-76.20804780162870883941650390625">
        <ele>4426.2001953125</ele>
        <time>2021-07-25T20:02:14.000Z</time>
      </trkpt>
      <trkpt lat="-11.6114906966686248779296875" lon="-76.20805283077061176300048828125">
        <ele>4427.39990234375</ele>
        <time>2021-07-25T20:02:17.000Z</time>
      </trkpt>
      <trkpt lat="-11.6115911118686199188232421875" lon="-76.20806741528213024139404296875">
        <ele>4427.2001953125</ele>
        <time>2021-07-25T20:02:21.000Z</time>
      </trkpt>
      <trkpt lat="-11.61181700415909290313720703125" lon="-76.20808887295424938201904296875">
        <ele>4428</ele>
        <time>2021-07-25T20:02:30.000Z</time>
      </trkpt>
      <trkpt lat="-11.6118670441210269927978515625" lon="-76.20809641666710376739501953125">
        <ele>4428.39990234375</ele>
        <time>2021-07-25T20:02:32.000Z</time>
      </trkpt>
      <trkpt lat="-11.612091176211833953857421875" lon="-76.2081213109195232391357421875">
        <ele>4428.60009765625</ele>
        <time>2021-07-25T20:02:41.000Z</time>
      </trkpt>
      <trkpt lat="-11.61230734549462795257568359375" lon="-76.2081414274871349334716796875">
        <ele>4429.60009765625</ele>
        <time>2021-07-25T20:02:50.000Z</time>
      </trkpt>
      <trkpt lat="-11.61233182065188884735107421875" lon="-76.2081434391438961029052734375">
        <ele>4429.7998046875</ele>
        <time>2021-07-25T20:02:51.000Z</time>
      </trkpt>
      <trkpt lat="-11.6124765761196613311767578125" lon="-76.2081648968160152435302734375">
        <ele>4431</ele>
        <time>2021-07-25T20:02:57.000Z</time>
      </trkpt>
      <trkpt lat="-11.6125466488301753997802734375" lon="-76.208168081939220428466796875">
        <ele>4431.39990234375</ele>
        <time>2021-07-25T20:03:00.000Z</time>
      </trkpt>
      <trkpt lat="-11.61276482976973056793212890625" lon="-76.2081979215145111083984375">
        <ele>4432.2001953125</ele>
        <time>2021-07-25T20:03:09.000Z</time>
      </trkpt>
      <trkpt lat="-11.61298007704317569732666015625" lon="-76.208182834088802337646484375">
        <ele>4432.60009765625</ele>
        <time>2021-07-25T20:03:18.000Z</time>
      </trkpt>
      <trkpt lat="-11.61317872814834117889404296875" lon="-76.208145953714847564697265625">
        <ele>4432.7998046875</ele>
        <time>2021-07-25T20:03:26.000Z</time>
      </trkpt>
      <trkpt lat="-11.6133945621550083160400390625" lon="-76.20805618353188037872314453125">
        <ele>4433</ele>
        <time>2021-07-25T20:03:35.000Z</time>
      </trkpt>
      <trkpt lat="-11.61354468204081058502197265625" lon="-76.20797269977629184722900390625">
        <ele>4433.39990234375</ele>
        <time>2021-07-25T20:03:42.000Z</time>
      </trkpt>
      <trkpt lat="-11.61361056379973888397216796875" lon="-76.20793900452554225921630859375">
        <ele>4434.39990234375</ele>
        <time>2021-07-25T20:03:45.000Z</time>
      </trkpt>
      <trkpt lat="-11.61372891627252101898193359375" lon="-76.20788116939365863800048828125">
        <ele>4434.60009765625</ele>
        <time>2021-07-25T20:03:50.000Z</time>
      </trkpt>
      <trkpt lat="-11.6139678843319416046142578125" lon="-76.20780539698898792266845703125">
        <ele>4435.39990234375</ele>
        <time>2021-07-25T20:04:00.000Z</time>
      </trkpt>
      <trkpt lat="-11.61399328149855136871337890625" lon="-76.207807324826717376708984375">
        <ele>4435.60009765625</ele>
        <time>2021-07-25T20:04:01.000Z</time>
      </trkpt>
      <trkpt lat="-11.61404005251824855804443359375" lon="-76.20780891738831996917724609375">
        <ele>4435.60009765625</ele>
        <time>2021-07-25T20:04:03.000Z</time>
      </trkpt>
      <trkpt lat="-11.61413359455764293670654296875" lon="-76.207810342311859130859375">
        <ele>4436.39990234375</ele>
        <time>2021-07-25T20:04:07.000Z</time>
      </trkpt>
      <trkpt lat="-11.6142077744007110595703125" lon="-76.20781227014958858489990234375">
        <ele>4436.7998046875</ele>
        <time>2021-07-25T20:04:10.000Z</time>
      </trkpt>
      <trkpt lat="-11.61432168446481227874755859375" lon="-76.2078141979873180389404296875">
        <ele>4437.39990234375</ele>
        <time>2021-07-25T20:04:15.000Z</time>
      </trkpt>
      <trkpt lat="-11.61445520818233489990234375" lon="-76.20781369507312774658203125">
        <ele>4437.7998046875</ele>
        <time>2021-07-25T20:04:21.000Z</time>
      </trkpt>
      <trkpt lat="-11.6145056672394275665283203125" lon="-76.207815706729888916015625">
        <ele>4438</ele>
        <time>2021-07-25T20:04:23.000Z</time>
      </trkpt>
      <trkpt lat="-11.61457984708249568939208984375" lon="-76.20781545527279376983642578125">
        <ele>4439.2001953125</ele>
        <time>2021-07-25T20:04:26.000Z</time>
      </trkpt>
      <trkpt lat="-11.6147232614457607269287109375" lon="-76.2078063189983367919921875">
        <ele>4440.39990234375</ele>
        <time>2021-07-25T20:04:32.000Z</time>
      </trkpt>
      <trkpt lat="-11.61488704383373260498046875" lon="-76.20780824683606624603271484375">
        <ele>4441</ele>
        <time>2021-07-25T20:04:39.000Z</time>
      </trkpt>
      <trkpt lat="-11.61512198857963085174560546875" lon="-76.2078001163899898529052734375">
        <ele>4440.60009765625</ele>
        <time>2021-07-25T20:04:49.000Z</time>
      </trkpt>
      <trkpt lat="-11.6153120063245296478271484375" lon="-76.2077991105616092681884765625">
        <ele>4441</ele>
        <time>2021-07-25T20:04:57.000Z</time>
      </trkpt>
      <trkpt lat="-11.6154109127819538116455078125" lon="-76.207807995378971099853515625">
        <ele>4441.39990234375</ele>
        <time>2021-07-25T20:05:01.000Z</time>
      </trkpt>
      <trkpt lat="-11.61555700935423374176025390625" lon="-76.20781637728214263916015625">
        <ele>4442</ele>
        <time>2021-07-25T20:05:07.000Z</time>
      </trkpt>
      <trkpt lat="-11.6156295128166675567626953125" lon="-76.2078326381742954254150390625">
        <ele>4442.60009765625</ele>
        <time>2021-07-25T20:05:10.000Z</time>
      </trkpt>
      <trkpt lat="-11.6157793812453746795654296875" lon="-76.2078701891005039215087890625">
        <ele>4442.7998046875</ele>
        <time>2021-07-25T20:05:16.000Z</time>
      </trkpt>
      <trkpt lat="-11.61592128686606884002685546875" lon="-76.20791654102504253387451171875">
        <ele>4443.60009765625</ele>
        <time>2021-07-25T20:05:22.000Z</time>
      </trkpt>
      <trkpt lat="-11.61600577645003795623779296875" lon="-76.20794914662837982177734375">
        <ele>4444.2001953125</ele>
        <time>2021-07-25T20:05:26.000Z</time>
      </trkpt>
      <trkpt lat="-11.61609764210879802703857421875" lon="-76.207976974546909332275390625">
        <ele>4444.60009765625</ele>
        <time>2021-07-25T20:05:30.000Z</time>
      </trkpt>
      <trkpt lat="-11.61620937287807464599609375" lon="-76.2080167047679424285888671875">
        <ele>4444.7998046875</ele>
        <time>2021-07-25T20:05:35.000Z</time>
      </trkpt>
      <trkpt lat="-11.6163240373134613037109375" lon="-76.2080592848360538482666015625">
        <ele>4445.60009765625</ele>
        <time>2021-07-25T20:05:40.000Z</time>
      </trkpt>
      <trkpt lat="-11.61638908088207244873046875" lon="-76.20808199979364871978759765625">
        <ele>4445.7998046875</ele>
        <time>2021-07-25T20:05:43.000Z</time>
      </trkpt>
      <trkpt lat="-11.6165122948586940765380859375" lon="-76.208121813833713531494140625">
        <ele>4446.7998046875</ele>
        <time>2021-07-25T20:05:49.000Z</time>
      </trkpt>
      <trkpt lat="-11.61655512638390064239501953125" lon="-76.208137571811676025390625">
        <ele>4446.60009765625</ele>
        <time>2021-07-25T20:05:51.000Z</time>
      </trkpt>
      <trkpt lat="-11.61659921519458293914794921875" lon="-76.2081494741141796112060546875">
        <ele>4446.7998046875</ele>
        <time>2021-07-25T20:05:53.000Z</time>
      </trkpt>
      <trkpt lat="-11.61673416383564472198486328125" lon="-76.20820236392319202423095703125">
        <ele>4447.60009765625</ele>
        <time>2021-07-25T20:06:00.000Z</time>
      </trkpt>
      <trkpt lat="-11.6168113611638545989990234375" lon="-76.20823404751718044281005859375">
        <ele>4448</ele>
        <time>2021-07-25T20:06:04.000Z</time>
      </trkpt>
      <trkpt lat="-11.61689610220491886138916015625" lon="-76.2082594446837902069091796875">
        <ele>4449</ele>
        <time>2021-07-25T20:06:08.000Z</time>
      </trkpt>
      <trkpt lat="-11.61691588349640369415283203125" lon="-76.2082681618630886077880859375">
        <ele>4449</ele>
        <time>2021-07-25T20:06:09.000Z</time>
      </trkpt>
      <trkpt lat="-11.617080755531787872314453125" lon="-76.2083275057375431060791015625">
        <ele>4449.60009765625</ele>
        <time>2021-07-25T20:06:17.000Z</time>
      </trkpt>
      <trkpt lat="-11.6171473078429698944091796875" lon="-76.208342425525188446044921875">
        <ele>4450.2001953125</ele>
        <time>2021-07-25T20:06:20.000Z</time>
      </trkpt>
      <trkpt lat="-11.61730639636516571044921875" lon="-76.20833245106041431427001953125">
        <ele>4450.7998046875</ele>
        <time>2021-07-25T20:06:27.000Z</time>
      </trkpt>
      <trkpt lat="-11.61736850626766681671142578125" lon="-76.208298169076442718505859375">
        <ele>4451.2001953125</ele>
        <time>2021-07-25T20:06:30.000Z</time>
      </trkpt>
      <trkpt lat="-11.61741376854479312896728515625" lon="-76.20824863202869892120361328125">
        <ele>4452</ele>
        <time>2021-07-25T20:06:33.000Z</time>
      </trkpt>
      <trkpt lat="-11.617452241480350494384765625" lon="-76.20819012634456157684326171875">
        <ele>4452.2001953125</ele>
        <time>2021-07-25T20:06:36.000Z</time>
      </trkpt>
      <trkpt lat="-11.61747093312442302703857421875" lon="-76.208115108311176300048828125">
        <ele>4452.60009765625</ele>
        <time>2021-07-25T20:06:40.000Z</time>
      </trkpt>
      <trkpt lat="-11.61745936609804630279541015625" lon="-76.2080369889736175537109375">
        <ele>4452.60009765625</ele>
        <time>2021-07-25T20:06:46.000Z</time>
      </trkpt>
      <trkpt lat="-11.61743857897818088531494140625" lon="-76.20799432508647441864013671875">
        <ele>4453.2001953125</ele>
        <time>2021-07-25T20:06:52.000Z</time>
      </trkpt>
      <trkpt lat="-11.6173907183110713958740234375" lon="-76.2079188041388988494873046875">
        <ele>4453.39990234375</ele>
        <time>2021-07-25T20:06:57.000Z</time>
      </trkpt>
      <trkpt lat="-11.61735308356583118438720703125" lon="-76.20788536034524440765380859375">
        <ele>4453.39990234375</ele>
        <time>2021-07-25T20:06:59.000Z</time>
      </trkpt>
      <trkpt lat="-11.6171912290155887603759765625" lon="-76.207787208259105682373046875">
        <ele>4453.60009765625</ele>
        <time>2021-07-25T20:07:07.000Z</time>
      </trkpt>
      <trkpt lat="-11.61702283658087253570556640625" lon="-76.20777186937630176544189453125">
        <ele>4454</ele>
        <time>2021-07-25T20:07:14.000Z</time>
      </trkpt>
      <trkpt lat="-11.61697514355182647705078125" lon="-76.20776633732020854949951171875">
        <ele>4454.39990234375</ele>
        <time>2021-07-25T20:07:16.000Z</time>
      </trkpt>
      <trkpt lat="-11.6168566234409809112548828125" lon="-76.207757033407688140869140625">
        <ele>4455.60009765625</ele>
        <time>2021-07-25T20:07:21.000Z</time>
      </trkpt>
      <trkpt lat="-11.61683558486402034759521484375" lon="-76.20775342918932437896728515625">
        <ele>4455.39990234375</ele>
        <time>2021-07-25T20:07:22.000Z</time>
      </trkpt>
      <trkpt lat="-11.61663718521595001220703125" lon="-76.2077312171459197998046875">
        <ele>4456.39990234375</ele>
        <time>2021-07-25T20:07:31.000Z</time>
      </trkpt>
      <trkpt lat="-11.6165924258530139923095703125" lon="-76.20772576890885829925537109375">
        <ele>4456.60009765625</ele>
        <time>2021-07-25T20:07:33.000Z</time>
      </trkpt>
      <trkpt lat="-11.61644917912781238555908203125" lon="-76.20768335647881031036376953125">
        <ele>4457.2001953125</ele>
        <time>2021-07-25T20:07:40.000Z</time>
      </trkpt>
      <trkpt lat="-11.61638438701629638671875" lon="-76.20766374282538890838623046875">
        <ele>4457.7998046875</ele>
        <time>2021-07-25T20:07:43.000Z</time>
      </trkpt>
      <trkpt lat="-11.61624885164201259613037109375" lon="-76.20761831291019916534423828125">
        <ele>4458.39990234375</ele>
        <time>2021-07-25T20:07:49.000Z</time>
      </trkpt>
      <trkpt lat="-11.61612982861697673797607421875" lon="-76.20755863375961780548095703125">
        <ele>4458.7998046875</ele>
        <time>2021-07-25T20:07:55.000Z</time>
      </trkpt>
      <trkpt lat="-11.61604450084269046783447265625" lon="-76.20752309449017047882080078125">
        <ele>4459.60009765625</ele>
        <time>2021-07-25T20:07:59.000Z</time>
      </trkpt>
      <trkpt lat="-11.6160040162503719329833984375" lon="-76.20750524103641510009765625">
        <ele>4459.7998046875</ele>
        <time>2021-07-25T20:08:01.000Z</time>
      </trkpt>
      <trkpt lat="-11.61581508815288543701171875" lon="-76.2074333243072032928466796875">
        <ele>4460.2001953125</ele>
        <time>2021-07-25T20:08:10.000Z</time>
      </trkpt>
      <trkpt lat="-11.615720875561237335205078125" lon="-76.20739485137164592742919921875">
        <ele>4461.2001953125</ele>
        <time>2021-07-25T20:08:14.000Z</time>
      </trkpt>
      <trkpt lat="-11.61563697271049022674560546875" lon="-76.2073578871786594390869140625">
        <ele>4461.7998046875</ele>
        <time>2021-07-25T20:08:18.000Z</time>
      </trkpt>
      <trkpt lat="-11.6155678220093250274658203125" lon="-76.20733785443007946014404296875">
        <ele>4462.39990234375</ele>
        <time>2021-07-25T20:08:21.000Z</time>
      </trkpt>
      <trkpt lat="-11.61546011455357074737548828125" lon="-76.2072894908487796783447265625">
        <ele>4462.7998046875</ele>
        <time>2021-07-25T20:08:26.000Z</time>
      </trkpt>
      <trkpt lat="-11.61531309597194194793701171875" lon="-76.2072187475860118865966796875">
        <ele>4464.2001953125</ele>
        <time>2021-07-25T20:08:33.000Z</time>
      </trkpt>
      <trkpt lat="-11.615247465670108795166015625" lon="-76.20718832127749919891357421875">
        <ele>4464.2001953125</ele>
        <time>2021-07-25T20:08:36.000Z</time>
      </trkpt>
      <trkpt lat="-11.61510421894490718841552734375" lon="-76.20711372233927249908447265625">
        <ele>4464.7998046875</ele>
        <time>2021-07-25T20:08:45.000Z</time>
      </trkpt>
      <trkpt lat="-11.615052334964275360107421875" lon="-76.20707952417433261871337890625">
        <ele>4465</ele>
        <time>2021-07-25T20:09:53.000Z</time>
      </trkpt>
      <trkpt lat="-11.61502978764474391937255859375" lon="-76.20706535875797271728515625">
        <ele>4465.2001953125</ele>
        <time>2021-07-25T20:09:55.000Z</time>
      </trkpt>
      <trkpt lat="-11.614948399364948272705078125" lon="-76.20704918168485164642333984375">
        <ele>4466</ele>
        <time>2021-07-25T20:10:02.000Z</time>
      </trkpt>
      <trkpt lat="-11.61493322812020778656005859375" lon="-76.2070450745522975921630859375">
        <ele>4466.39990234375</ele>
        <time>2021-07-25T20:10:05.000Z</time>
      </trkpt>
      <trkpt lat="-11.6149056516587734222412109375" lon="-76.2070423923432826995849609375">
        <ele>4467.2001953125</ele>
        <time>2021-07-25T20:10:17.000Z</time>
      </trkpt>
      <trkpt lat="-11.61488796584308147430419921875" lon="-76.2070346809923648834228515625">
        <ele>4466.7998046875</ele>
        <time>2021-07-25T20:10:18.000Z</time>
      </trkpt>
      <trkpt lat="-11.61475569941103458404541015625" lon="-76.20698497630655765533447265625">
        <ele>4466.7998046875</ele>
        <time>2021-07-25T20:10:24.000Z</time>
      </trkpt>
      <trkpt lat="-11.61473457701504230499267578125" lon="-76.2069703079760074615478515625">
        <ele>4466.7998046875</ele>
        <time>2021-07-25T20:10:25.000Z</time>
      </trkpt>
      <trkpt lat="-11.61466844379901885986328125" lon="-76.20694139041006565093994140625">
        <ele>4467.60009765625</ele>
        <time>2021-07-25T20:10:28.000Z</time>
      </trkpt>
      <trkpt lat="-11.6145743988454341888427734375" lon="-76.20692127384245395660400390625">
        <ele>4467.39990234375</ele>
        <time>2021-07-25T20:10:32.000Z</time>
      </trkpt>
      <trkpt lat="-11.61441908217966556549072265625" lon="-76.2069426476955413818359375">
        <ele>4468.2001953125</ele>
        <time>2021-07-25T20:10:39.000Z</time>
      </trkpt>
      <trkpt lat="-11.61433308385312557220458984375" lon="-76.2069743312895298004150390625">
        <ele>4468.7998046875</ele>
        <time>2021-07-25T20:10:43.000Z</time>
      </trkpt>
      <trkpt lat="-11.61421590484678745269775390625" lon="-76.20703560300171375274658203125">
        <ele>4468.7998046875</ele>
        <time>2021-07-25T20:10:48.000Z</time>
      </trkpt>
      <trkpt lat="-11.61408514715731143951416015625" lon="-76.20710249058902263641357421875">
        <ele>4469.7998046875</ele>
        <time>2021-07-25T20:10:54.000Z</time>
      </trkpt>
      <trkpt lat="-11.6140242107212543487548828125" lon="-76.207128055393695831298828125">
        <ele>4470.7998046875</ele>
        <time>2021-07-25T20:10:57.000Z</time>
      </trkpt>
      <trkpt lat="-11.61400317214429378509521484375" lon="-76.20713719166815280914306640625">
        <ele>4471.39990234375</ele>
        <time>2021-07-25T20:10:58.000Z</time>
      </trkpt>
      <trkpt lat="-11.613823883235454559326171875" lon="-76.20716862380504608154296875">
        <ele>4471.2001953125</ele>
        <time>2021-07-25T20:11:06.000Z</time>
      </trkpt>
      <trkpt lat="-11.6136175207793712615966796875" lon="-76.20717859826982021331787109375">
        <ele>4472</ele>
        <time>2021-07-25T20:11:15.000Z</time>
      </trkpt>
      <trkpt lat="-11.61352708004415035247802734375" lon="-76.2071902491152286529541015625">
        <ele>4473.39990234375</ele>
        <time>2021-07-25T20:11:19.000Z</time>
      </trkpt>
      <trkpt lat="-11.6134840808808803558349609375" lon="-76.20719611644744873046875">
        <ele>4474.7998046875</ele>
        <time>2021-07-25T20:11:21.000Z</time>
      </trkpt>
      <trkpt lat="-11.6134629584848880767822265625" lon="-76.20720122940838336944580078125">
        <ele>4475.60009765625</ele>
        <time>2021-07-25T20:11:22.000Z</time>
      </trkpt>
      <trkpt lat="-11.61343672312796115875244140625" lon="-76.20720458216965198516845703125">
        <ele>4475.60009765625</ele>
        <time>2021-07-25T20:11:23.000Z</time>
      </trkpt>
      <trkpt lat="-11.61327947862446308135986328125" lon="-76.20722084306180477142333984375">
        <ele>4475.60009765625</ele>
        <time>2021-07-25T20:11:30.000Z</time>
      </trkpt>
      <trkpt lat="-11.61325626075267791748046875" lon="-76.2072242796421051025390625">
        <ele>4476</ele>
        <time>2021-07-25T20:11:31.000Z</time>
      </trkpt>
      <trkpt lat="-11.613056100904941558837890625" lon="-76.2072234414517879486083984375">
        <ele>4475.60009765625</ele>
        <time>2021-07-25T20:11:39.000Z</time>
      </trkpt>
      <trkpt lat="-11.612835489213466644287109375" lon="-76.207213215529918670654296875">
        <ele>4476.60009765625</ele>
        <time>2021-07-25T20:11:48.000Z</time>
      </trkpt>
      <trkpt lat="-11.61276080645620822906494140625" lon="-76.20720039121806621551513671875">
        <ele>4477</ele>
        <time>2021-07-25T20:11:51.000Z</time>
      </trkpt>
      <trkpt lat="-11.61267799325287342071533203125" lon="-76.20715931989252567291259765625">
        <ele>4477.7998046875</ele>
        <time>2021-07-25T20:11:55.000Z</time>
      </trkpt>
      <trkpt lat="-11.61265720613300800323486328125" lon="-76.20714255608618259429931640625">
        <ele>4478</ele>
        <time>2021-07-25T20:11:56.000Z</time>
      </trkpt>
      <trkpt lat="-11.612583696842193603515625" lon="-76.20705136097967624664306640625">
        <ele>4479</ele>
        <time>2021-07-25T20:12:01.000Z</time>
      </trkpt>
      <trkpt lat="-11.6125701181590557098388671875" lon="-76.20700660161674022674560546875">
        <ele>4479.2001953125</ele>
        <time>2021-07-25T20:12:03.000Z</time>
      </trkpt>
      <trkpt lat="-11.61255486309528350830078125" lon="-76.20688959024846553802490234375">
        <ele>4480</ele>
        <time>2021-07-25T20:12:08.000Z</time>
      </trkpt>
      <trkpt lat="-11.61255109123885631561279296875" lon="-76.2068657018244266510009765625">
        <ele>4480.2001953125</ele>
        <time>2021-07-25T20:12:09.000Z</time>
      </trkpt>
      <trkpt lat="-11.61253483034670352935791015625" lon="-76.20668758638203144073486328125">
        <ele>4480.60009765625</ele>
        <time>2021-07-25T20:12:17.000Z</time>
      </trkpt>
      <trkpt lat="-11.61245268769562244415283203125" lon="-76.20650854893028736114501953125">
        <ele>4481</ele>
        <time>2021-07-25T20:12:26.000Z</time>
      </trkpt>
      <trkpt lat="-11.61235562525689601898193359375" lon="-76.20645406655967235565185546875">
        <ele>4481.39990234375</ele>
        <time>2021-07-25T20:12:31.000Z</time>
      </trkpt>
      <trkpt lat="-11.6123102791607379913330078125" lon="-76.20644166134297847747802734375">
        <ele>4481.7998046875</ele>
        <time>2021-07-25T20:12:33.000Z</time>
      </trkpt>
      <trkpt lat="-11.61211439408361911773681640625" lon="-76.20640419423580169677734375">
        <ele>4482.39990234375</ele>
        <time>2021-07-25T20:12:42.000Z</time>
      </trkpt>
      <trkpt lat="-11.6120903380215167999267578125" lon="-76.20640008710324764251708984375">
        <ele>4482.2001953125</ele>
        <time>2021-07-25T20:12:43.000Z</time>
      </trkpt>
      <trkpt lat="-11.61191406659781932830810546875" lon="-76.20636940933763980865478515625">
        <ele>4482.60009765625</ele>
        <time>2021-07-25T20:12:51.000Z</time>
      </trkpt>
      <trkpt lat="-11.6118315048515796661376953125" lon="-76.206348873674869537353515625">
        <ele>4483.39990234375</ele>
        <time>2021-07-25T20:12:55.000Z</time>
      </trkpt>
      <trkpt lat="-11.61173955537378787994384765625" lon="-76.20633135549724102020263671875">
        <ele>4484.2001953125</ele>
        <time>2021-07-25T20:12:59.000Z</time>
      </trkpt>
      <trkpt lat="-11.61169580183923244476318359375" lon="-76.20632180012762546539306640625">
        <ele>4484.60009765625</ele>
        <time>2021-07-25T20:13:01.000Z</time>
      </trkpt>
      <trkpt lat="-11.61152011714875698089599609375" lon="-76.2062927149236202239990234375">
        <ele>4485</ele>
        <time>2021-07-25T20:13:09.000Z</time>
      </trkpt>
      <trkpt lat="-11.61141492426395416259765625" lon="-76.2062759511172771453857421875">
        <ele>4485.60009765625</ele>
        <time>2021-07-25T20:13:14.000Z</time>
      </trkpt>
      <trkpt lat="-11.611352227628231048583984375" lon="-76.20626849122345447540283203125">
        <ele>4486.2001953125</ele>
        <time>2021-07-25T20:13:17.000Z</time>
      </trkpt>
      <trkpt lat="-11.61133370362222194671630859375" lon="-76.206262372434139251708984375">
        <ele>4486.60009765625</ele>
        <time>2021-07-25T20:13:18.000Z</time>
      </trkpt>
      <trkpt lat="-11.6112511418759822845458984375" lon="-76.2062387354671955108642578125">
        <ele>4488.60009765625</ele>
        <time>2021-07-25T20:13:22.000Z</time>
      </trkpt>
      <trkpt lat="-11.6112283430993556976318359375" lon="-76.206233203411102294921875">
        <ele>4488.60009765625</ele>
        <time>2021-07-25T20:13:23.000Z</time>
      </trkpt>
      <trkpt lat="-11.61103094927966594696044921875" lon="-76.2061767093837261199951171875">
        <ele>4489</ele>
        <time>2021-07-25T20:13:32.000Z</time>
      </trkpt>
      <trkpt lat="-11.6108561865985393524169921875" lon="-76.20611929334700107574462890625">
        <ele>4489.2001953125</ele>
        <time>2021-07-25T20:13:40.000Z</time>
      </trkpt>
      <trkpt lat="-11.61081301979720592498779296875" lon="-76.206104457378387451171875">
        <ele>4489.7998046875</ele>
        <time>2021-07-25T20:13:42.000Z</time>
      </trkpt>
      <trkpt lat="-11.61070338450372219085693359375" lon="-76.20602776296436786651611328125">
        <ele>4490.39990234375</ele>
        <time>2021-07-25T20:13:48.000Z</time>
      </trkpt>
      <trkpt lat="-11.6106224991381168365478515625" lon="-76.2058732844889163970947265625">
        <ele>4490.7998046875</ele>
        <time>2021-07-25T20:13:56.000Z</time>
      </trkpt>
      <trkpt lat="-11.610615290701389312744140625" lon="-76.205851323902606964111328125">
        <ele>4490.7998046875</ele>
        <time>2021-07-25T20:13:57.000Z</time>
      </trkpt>
      <trkpt lat="-11.61061855964362621307373046875" lon="-76.20567002333700656890869140625">
        <ele>4491.7998046875</ele>
        <time>2021-07-25T20:14:05.000Z</time>
      </trkpt>
      <trkpt lat="-11.61062099039554595947265625" lon="-76.205646805465221405029296875">
        <ele>4492</ele>
        <time>2021-07-25T20:14:06.000Z</time>
      </trkpt>
      <trkpt lat="-11.61065007559955120086669921875" lon="-76.20543315075337886810302734375">
        <ele>4492.60009765625</ele>
        <time>2021-07-25T20:14:15.000Z</time>
      </trkpt>
      <trkpt lat="-11.6106526739895343780517578125" lon="-76.205341033637523651123046875">
        <ele>4493</ele>
        <time>2021-07-25T20:14:19.000Z</time>
      </trkpt>
      <trkpt lat="-11.61065627820789813995361328125" lon="-76.2052268721163272857666015625">
        <ele>4493.39990234375</ele>
        <time>2021-07-25T20:14:24.000Z</time>
      </trkpt>
      <trkpt lat="-11.61061403341591358184814453125" lon="-76.2050139717757701873779296875">
        <ele>4493.39990234375</ele>
        <time>2021-07-25T20:14:33.000Z</time>
      </trkpt>
      <trkpt lat="-11.61060632206499576568603515625" lon="-76.20499175973236560821533203125">
        <ele>4494</ele>
        <time>2021-07-25T20:14:34.000Z</time>
      </trkpt>
      <trkpt lat="-11.6105286218225955963134765625" lon="-76.20483032427728176116943359375">
        <ele>4494.2001953125</ele>
        <time>2021-07-25T20:14:41.000Z</time>
      </trkpt>
      <trkpt lat="-11.61044807173311710357666015625" lon="-76.20468364097177982330322265625">
        <ele>4494.39990234375</ele>
        <time>2021-07-25T20:14:48.000Z</time>
      </trkpt>
      <trkpt lat="-11.6103375144302845001220703125" lon="-76.20449052192270755767822265625">
        <ele>4495</ele>
        <time>2021-07-25T20:14:57.000Z</time>
      </trkpt>
      <trkpt lat="-11.61024875007569789886474609375" lon="-76.2043340317904949188232421875">
        <ele>4495.60009765625</ele>
        <time>2021-07-25T20:15:04.000Z</time>
      </trkpt>
      <trkpt lat="-11.6100689582526683807373046875" lon="-76.20412993244826793670654296875">
        <ele>4496.2001953125</ele>
        <time>2021-07-25T20:15:14.000Z</time>
      </trkpt>
      <trkpt lat="-11.60983686335384845733642578125" lon="-76.204013340175151824951171875">
        <ele>4496.7998046875</ele>
        <time>2021-07-25T20:15:24.000Z</time>
      </trkpt>
      <trkpt lat="-11.60978891886770725250244140625" lon="-76.2040000967681407928466796875">
        <ele>4497.2001953125</ele>
        <time>2021-07-25T20:15:26.000Z</time>
      </trkpt>
      <trkpt lat="-11.60962161608040332794189453125" lon="-76.20397436432540416717529296875">
        <ele>4498</ele>
        <time>2021-07-25T20:15:32.000Z</time>
      </trkpt>
      <trkpt lat="-11.609467305243015289306640625" lon="-76.20397319085896015167236328125">
        <ele>4498.2001953125</ele>
        <time>2021-07-25T20:15:38.000Z</time>
      </trkpt>
      <trkpt lat="-11.60941558890044689178466796875" lon="-76.20398484170436859130859375">
        <ele>4498.60009765625</ele>
        <time>2021-07-25T20:15:40.000Z</time>
      </trkpt>
      <trkpt lat="-11.6092441789805889129638671875" lon="-76.20403454639017581939697265625">
        <ele>4499.60009765625</ele>
        <time>2021-07-25T20:15:47.000Z</time>
      </trkpt>
      <trkpt lat="-11.6092220507562160491943359375" lon="-76.20404695160686969757080078125">
        <ele>4500.2001953125</ele>
        <time>2021-07-25T20:15:48.000Z</time>
      </trkpt>
      <trkpt lat="-11.60906673409044742584228515625" lon="-76.20413060300052165985107421875">
        <ele>4500.39990234375</ele>
        <time>2021-07-25T20:15:55.000Z</time>
      </trkpt>
      <trkpt lat="-11.60902180708944797515869140625" lon="-76.20415340177714824676513671875">
        <ele>4500.60009765625</ele>
        <time>2021-07-25T20:15:57.000Z</time>
      </trkpt>
      <trkpt lat="-11.60892139188945293426513671875" lon="-76.20421391911804676055908203125">
        <ele>4500.7998046875</ele>
        <time>2021-07-25T20:16:02.000Z</time>
      </trkpt>
      <trkpt lat="-11.60880756564438343048095703125" lon="-76.204268820583820343017578125">
        <ele>4502</ele>
        <time>2021-07-25T20:16:07.000Z</time>
      </trkpt>
      <trkpt lat="-11.6087650693953037261962890625" lon="-76.20428860187530517578125">
        <ele>4502</ele>
        <time>2021-07-25T20:16:09.000Z</time>
      </trkpt>
      <trkpt lat="-11.60867764614522457122802734375" lon="-76.2043145857751369476318359375">
        <ele>4503</ele>
        <time>2021-07-25T20:16:13.000Z</time>
      </trkpt>
      <trkpt lat="-11.6086101718246936798095703125" lon="-76.20431877672672271728515625">
        <ele>4503</ele>
        <time>2021-07-25T20:16:16.000Z</time>
      </trkpt>
      <trkpt lat="-11.6084646619856357574462890625" lon="-76.20429220609366893768310546875">
        <ele>4504</ele>
        <time>2021-07-25T20:16:23.000Z</time>
      </trkpt>
      <trkpt lat="-11.60844697616994380950927734375" lon="-76.2042818963527679443359375">
        <ele>4504</ele>
        <time>2021-07-25T20:16:24.000Z</time>
      </trkpt>
      <trkpt lat="-11.60836734808981418609619140625" lon="-76.20418659411370754241943359375">
        <ele>4505</ele>
        <time>2021-07-25T20:16:30.000Z</time>
      </trkpt>
      <trkpt lat="-11.60834555514156818389892578125" lon="-76.20410445146262645721435546875">
        <ele>4505.2001953125</ele>
        <time>2021-07-25T20:16:34.000Z</time>
      </trkpt>
      <trkpt lat="-11.60835443995893001556396484375" lon="-76.20403655804693698883056640625">
        <ele>4505.2001953125</ele>
        <time>2021-07-25T20:16:37.000Z</time>
      </trkpt>
      <trkpt lat="-11.60843356512486934661865234375" lon="-76.2039119191467761993408203125">
        <ele>4506</ele>
        <time>2021-07-25T20:16:44.000Z</time>
      </trkpt>
      <trkpt lat="-11.6084478981792926788330078125" lon="-76.20390035212039947509765625">
        <ele>4506.2001953125</ele>
        <time>2021-07-25T20:16:45.000Z</time>
      </trkpt>
      <trkpt lat="-11.608568765223026275634765625" lon="-76.203834302723407745361328125">
        <ele>4507</ele>
        <time>2021-07-25T20:16:52.000Z</time>
      </trkpt>
      <trkpt lat="-11.60866943188011646270751953125" lon="-76.2038012780249118804931640625">
        <ele>4507.2001953125</ele>
        <time>2021-07-25T20:16:57.000Z</time>
      </trkpt>
      <trkpt lat="-11.608726680278778076171875" lon="-76.20378577150404453277587890625">
        <ele>4507.7998046875</ele>
        <time>2021-07-25T20:17:00.000Z</time>
      </trkpt>
      <trkpt lat="-11.60878644324839115142822265625" lon="-76.2037654034793376922607421875">
        <ele>4508.39990234375</ele>
        <time>2021-07-25T20:17:03.000Z</time>
      </trkpt>
      <trkpt lat="-11.608891971409320831298828125" lon="-76.2037426047027111053466796875">
        <ele>4508.7998046875</ele>
        <time>2021-07-25T20:17:08.000Z</time>
      </trkpt>
      <trkpt lat="-11.60897771827876567840576171875" lon="-76.20371553115546703338623046875">
        <ele>4509.39990234375</ele>
        <time>2021-07-25T20:17:12.000Z</time>
      </trkpt>
      <trkpt lat="-11.609061621129512786865234375" lon="-76.2036931514739990234375">
        <ele>4510</ele>
        <time>2021-07-25T20:17:16.000Z</time>
      </trkpt>
      <trkpt lat="-11.60917662084102630615234375" lon="-76.203663647174835205078125">
        <ele>4510.7998046875</ele>
        <time>2021-07-25T20:17:22.000Z</time>
      </trkpt>
      <trkpt lat="-11.6091938875615596771240234375" lon="-76.20365886949002742767333984375">
        <ele>4511</ele>
        <time>2021-07-25T20:17:23.000Z</time>
      </trkpt>
      <trkpt lat="-11.60932104103267192840576171875" lon="-76.20362500660121440887451171875">
        <ele>4510.7998046875</ele>
        <time>2021-07-25T20:17:31.000Z</time>
      </trkpt>
      <trkpt lat="-11.609368734061717987060546875" lon="-76.2036182172596454620361328125">
        <ele>4511</ele>
        <time>2021-07-25T20:19:09.000Z</time>
      </trkpt>
      <trkpt lat="-11.60938256420195102691650390625" lon="-76.20361662469804286956787109375">
        <ele>4511.2001953125</ele>
        <time>2021-07-25T20:19:10.000Z</time>
      </trkpt>
      <trkpt lat="-11.6094453446567058563232421875" lon="-76.2035977654159069061279296875">
        <ele>4511.2001953125</ele>
        <time>2021-07-25T20:19:14.000Z</time>
      </trkpt>
      <trkpt lat="-11.6095318458974361419677734375" lon="-76.20358049869537353515625">
        <ele>4512</ele>
        <time>2021-07-25T20:19:18.000Z</time>
      </trkpt>
      <trkpt lat="-11.6095781140029430389404296875" lon="-76.20356935076415538787841796875">
        <ele>4512.2001953125</ele>
        <time>2021-07-25T20:19:20.000Z</time>
      </trkpt>
      <trkpt lat="-11.60967241041362285614013671875" lon="-76.2035521678626537322998046875">
        <ele>4513</ele>
        <time>2021-07-25T20:19:24.000Z</time>
      </trkpt>
      <trkpt lat="-11.6097480989992618560791015625" lon="-76.20353532023727893829345703125">
        <ele>4512.60009765625</ele>
        <time>2021-07-25T20:19:28.000Z</time>
      </trkpt>
      <trkpt lat="-11.6098516993224620819091796875" lon="-76.20353699661791324615478515625">
        <ele>4513.60009765625</ele>
        <time>2021-07-25T20:19:35.000Z</time>
      </trkpt>
      <trkpt lat="-11.60990525968372821807861328125" lon="-76.20353498496115207672119140625">
        <ele>4513.39990234375</ele>
        <time>2021-07-25T20:19:40.000Z</time>
      </trkpt>
      <trkpt lat="-11.61002553999423980712890625" lon="-76.2035685963928699493408203125">
        <ele>4514</ele>
        <time>2021-07-25T20:19:46.000Z</time>
      </trkpt>
      <trkpt lat="-11.6100434772670269012451171875" lon="-76.20357639156281948089599609375">
        <ele>4514.2001953125</ele>
        <time>2021-07-25T20:19:47.000Z</time>
      </trkpt>
      <trkpt lat="-11.61014548502862453460693359375" lon="-76.203636489808559417724609375">
        <ele>4514.60009765625</ele>
        <time>2021-07-25T20:19:53.000Z</time>
      </trkpt>
      <trkpt lat="-11.61019410006701946258544921875" lon="-76.20367730967700481414794921875">
        <ele>4515.2001953125</ele>
        <time>2021-07-25T20:19:56.000Z</time>
      </trkpt>
      <trkpt lat="-11.6102657653391361236572265625" lon="-76.20373413898050785064697265625">
        <ele>4515.2001953125</ele>
        <time>2021-07-25T20:20:01.000Z</time>
      </trkpt>
      <trkpt lat="-11.61037129350006580352783203125" lon="-76.20384612120687961578369140625">
        <ele>4516.2001953125</ele>
        <time>2021-07-25T20:20:09.000Z</time>
      </trkpt>
      <trkpt lat="-11.61038386635482311248779296875" lon="-76.20385953225195407867431640625">
        <ele>4516.2001953125</ele>
        <time>2021-07-25T20:20:10.000Z</time>
      </trkpt>
      <trkpt lat="-11.61045075394213199615478515625" lon="-76.2039280124008655548095703125">
        <ele>4517.2001953125</ele>
        <time>2021-07-25T20:20:15.000Z</time>
      </trkpt>
      <trkpt lat="-11.6104944236576557159423828125" lon="-76.20397151447832584381103515625">
        <ele>4517.39990234375</ele>
        <time>2021-07-25T20:20:18.000Z</time>
      </trkpt>
      <trkpt lat="-11.6106100939214229583740234375" lon="-76.20405214838683605194091796875">
        <ele>4517.2001953125</ele>
        <time>2021-07-25T20:20:25.000Z</time>
      </trkpt>
      <trkpt lat="-11.61073288880288600921630859375" lon="-76.20407310314476490020751953125">
        <ele>4518.7998046875</ele>
        <time>2021-07-25T20:20:31.000Z</time>
      </trkpt>
      <trkpt lat="-11.61077396012842655181884765625" lon="-76.20406656526029109954833984375">
        <ele>4519.60009765625</ele>
        <time>2021-07-25T20:20:33.000Z</time>
      </trkpt>
      <trkpt lat="-11.6108897142112255096435546875" lon="-76.204007305204868316650390625">
        <ele>4519.7998046875</ele>
        <time>2021-07-25T20:20:39.000Z</time>
      </trkpt>
      <trkpt lat="-11.61090664565563201904296875" lon="-76.20399297215044498443603515625">
        <ele>4520.2001953125</ele>
        <time>2021-07-25T20:20:40.000Z</time>
      </trkpt>
      <trkpt lat="-11.6109379939734935760498046875" lon="-76.2039575167000293731689453125">
        <ele>4521</ele>
        <time>2021-07-25T20:20:42.000Z</time>
      </trkpt>
      <trkpt lat="-11.6109882853925228118896484375" lon="-76.20383740402758121490478515625">
        <ele>4521.60009765625</ele>
        <time>2021-07-25T20:20:48.000Z</time>
      </trkpt>
      <trkpt lat="-11.61098887212574481964111328125" lon="-76.20381644926965236663818359375">
        <ele>4522</ele>
        <time>2021-07-25T20:20:49.000Z</time>
      </trkpt>
      <trkpt lat="-11.610984094440937042236328125" lon="-76.20373430661857128143310546875">
        <ele>4523.39990234375</ele>
        <time>2021-07-25T20:20:53.000Z</time>
      </trkpt>
      <trkpt lat="-11.6109614633023738861083984375" lon="-76.2036705203354358673095703125">
        <ele>4523.60009765625</ele>
        <time>2021-07-25T20:20:56.000Z</time>
      </trkpt>
      <trkpt lat="-11.6108421050012111663818359375" lon="-76.20353347621858119964599609375">
        <ele>4522.39990234375</ele>
        <time>2021-07-25T20:21:04.000Z</time>
      </trkpt>
      <trkpt lat="-11.6106536798179149627685546875" lon="-76.2034529261291027069091796875">
        <ele>4523</ele>
        <time>2021-07-25T20:21:13.000Z</time>
      </trkpt>
      <trkpt lat="-11.610465086996555328369140625" lon="-76.20339333079755306243896484375">
        <ele>4525</ele>
        <time>2021-07-25T20:21:22.000Z</time>
      </trkpt>
      <trkpt lat="-11.61042443476617336273193359375" lon="-76.2033811770379543304443359375">
        <ele>4525.39990234375</ele>
        <time>2021-07-25T20:21:24.000Z</time>
      </trkpt>
      <trkpt lat="-11.61026333458721637725830078125" lon="-76.203325688838958740234375">
        <ele>4524.60009765625</ele>
        <time>2021-07-25T20:21:32.000Z</time>
      </trkpt>
      <trkpt lat="-11.61010307259857654571533203125" lon="-76.20326626114547252655029296875">
        <ele>4526</ele>
        <time>2021-07-25T20:21:40.000Z</time>
      </trkpt>
      <trkpt lat="-11.60994775593280792236328125" lon="-76.2032031454145908355712890625">
        <ele>4527</ele>
        <time>2021-07-25T20:21:48.000Z</time>
      </trkpt>
      <trkpt lat="-11.609799899160861968994140625" lon="-76.20316115207970142364501953125">
        <ele>4527.39990234375</ele>
        <time>2021-07-25T20:21:55.000Z</time>
      </trkpt>
      <trkpt lat="-11.60970099270343780517578125" lon="-76.2031260319054126739501953125">
        <ele>4528.2001953125</ele>
        <time>2021-07-25T20:22:00.000Z</time>
      </trkpt>
      <trkpt lat="-11.6096394695341587066650390625" lon="-76.2030975334346294403076171875">
        <ele>4528.7998046875</ele>
        <time>2021-07-25T20:22:03.000Z</time>
      </trkpt>
      <trkpt lat="-11.6095573268830776214599609375" lon="-76.20307297445833683013916015625">
        <ele>4529.2001953125</ele>
        <time>2021-07-25T20:22:07.000Z</time>
      </trkpt>
      <trkpt lat="-11.60945783369243144989013671875" lon="-76.203036345541477203369140625">
        <ele>4530</ele>
        <time>2021-07-25T20:22:12.000Z</time>
      </trkpt>
      <trkpt lat="-11.60935138352215290069580078125" lon="-76.20300038717687129974365234375">
        <ele>4530.39990234375</ele>
        <time>2021-07-25T20:22:17.000Z</time>
      </trkpt>
      <trkpt lat="-11.60926588810980319976806640625" lon="-76.20296568609774112701416015625">
        <ele>4531</ele>
        <time>2021-07-25T20:22:21.000Z</time>
      </trkpt>
      <trkpt lat="-11.60907578654587268829345703125" lon="-76.20292293839156627655029296875">
        <ele>4531.2001953125</ele>
        <time>2021-07-25T20:22:30.000Z</time>
      </trkpt>
      <trkpt lat="-11.6090168617665767669677734375" lon="-76.2029044143855571746826171875">
        <ele>4531.60009765625</ele>
        <time>2021-07-25T20:22:33.000Z</time>
      </trkpt>
      <trkpt lat="-11.6089479625225067138671875" lon="-76.20290257036685943603515625">
        <ele>4532</ele>
        <time>2021-07-25T20:22:36.000Z</time>
      </trkpt>
      <trkpt lat="-11.608860455453395843505859375" lon="-76.20291505940258502960205078125">
        <ele>4532.60009765625</ele>
        <time>2021-07-25T20:22:40.000Z</time>
      </trkpt>
      <trkpt lat="-11.60877889953553676605224609375" lon="-76.20292394421994686126708984375">
        <ele>4532.7998046875</ele>
        <time>2021-07-25T20:22:44.000Z</time>
      </trkpt>
      <trkpt lat="-11.6086638160049915313720703125" lon="-76.20294548571109771728515625">
        <ele>4533.60009765625</ele>
        <time>2021-07-25T20:22:50.000Z</time>
      </trkpt>
      <trkpt lat="-11.60860137082636356353759765625" lon="-76.20295914821326732635498046875">
        <ele>4533.7998046875</ele>
        <time>2021-07-25T20:22:53.000Z</time>
      </trkpt>
      <trkpt lat="-11.608486957848072052001953125" lon="-76.20298462919890880584716796875">
        <ele>4534.7998046875</ele>
        <time>2021-07-25T20:22:58.000Z</time>
      </trkpt>
      <trkpt lat="-11.60839743912220001220703125" lon="-76.20300524868071079254150390625">
        <ele>4534.60009765625</ele>
        <time>2021-07-25T20:23:02.000Z</time>
      </trkpt>
      <trkpt lat="-11.60822418518364429473876953125" lon="-76.2030412070453166961669921875">
        <ele>4535.60009765625</ele>
        <time>2021-07-25T20:23:10.000Z</time>
      </trkpt>
      <trkpt lat="-11.608201302587985992431640625" lon="-76.20304598473012447357177734375">
        <ele>4536.2001953125</ele>
        <time>2021-07-25T20:23:11.000Z</time>
      </trkpt>
      <trkpt lat="-11.60808973945677280426025390625" lon="-76.203068532049655914306640625">
        <ele>4537</ele>
        <time>2021-07-25T20:23:16.000Z</time>
      </trkpt>
      <trkpt lat="-11.60804581828415393829345703125" lon="-76.203081272542476654052734375">
        <ele>4537.2001953125</ele>
        <time>2021-07-25T20:23:18.000Z</time>
      </trkpt>
      <trkpt lat="-11.6079148091375827789306640625" lon="-76.20311848819255828857421875">
        <ele>4537.39990234375</ele>
        <time>2021-07-25T20:23:24.000Z</time>
      </trkpt>
      <trkpt lat="-11.60774767398834228515625" lon="-76.20318981818854808807373046875">
        <ele>4538.2001953125</ele>
        <time>2021-07-25T20:23:32.000Z</time>
      </trkpt>
      <trkpt lat="-11.6077277250587940216064453125" lon="-76.203200630843639373779296875">
        <ele>4538.39990234375</ele>
        <time>2021-07-25T20:23:33.000Z</time>
      </trkpt>
      <trkpt lat="-11.60757274366915225982666015625" lon="-76.20329325087368488311767578125">
        <ele>4538.2001953125</ele>
        <time>2021-07-25T20:23:41.000Z</time>
      </trkpt>
      <trkpt lat="-11.60745355300605297088623046875" lon="-76.2033848650753498077392578125">
        <ele>4538.60009765625</ele>
        <time>2021-07-25T20:23:48.000Z</time>
      </trkpt>
      <trkpt lat="-11.60740259103477001190185546875" lon="-76.20343498885631561279296875">
        <ele>4539.39990234375</ele>
        <time>2021-07-25T20:23:51.000Z</time>
      </trkpt>
      <trkpt lat="-11.60732262767851352691650390625" lon="-76.20352081954479217529296875">
        <ele>4540.7998046875</ele>
        <time>2021-07-25T20:23:56.000Z</time>
      </trkpt>
      <trkpt lat="-11.60731022246181964874267578125" lon="-76.20353833772242069244384765625">
        <ele>4541</ele>
        <time>2021-07-25T20:23:57.000Z</time>
      </trkpt>
      <trkpt lat="-11.6071741841733455657958984375" lon="-76.20371988974511623382568359375">
        <ele>4541.60009765625</ele>
        <time>2021-07-25T20:24:07.000Z</time>
      </trkpt>
      <trkpt lat="-11.6070927120745182037353515625" lon="-76.2038341350853443145751953125">
        <ele>4542</ele>
        <time>2021-07-25T20:24:13.000Z</time>
      </trkpt>
      <trkpt lat="-11.60706211812794208526611328125" lon="-76.203867159783840179443359375">
        <ele>4542</ele>
        <time>2021-07-25T20:24:15.000Z</time>
      </trkpt>
      <trkpt lat="-11.60692750476300716400146484375" lon="-76.2039394117891788482666015625">
        <ele>4542</ele>
        <time>2021-07-25T20:24:22.000Z</time>
      </trkpt>
      <trkpt lat="-11.60679616034030914306640625" lon="-76.2039206363260746002197265625">
        <ele>4542.7998046875</ele>
        <time>2021-07-25T20:24:28.000Z</time>
      </trkpt>
      <trkpt lat="-11.60677612759172916412353515625" lon="-76.203912757337093353271484375">
        <ele>4543</ele>
        <time>2021-07-25T20:24:29.000Z</time>
      </trkpt>
      <trkpt lat="-11.60670538432896137237548828125" lon="-76.20383237488567829132080078125">
        <ele>4542.7998046875</ele>
        <time>2021-07-25T20:24:34.000Z</time>
      </trkpt>
      <trkpt lat="-11.60667453892529010772705078125" lon="-76.20367999188601970672607421875">
        <ele>4543.39990234375</ele>
        <time>2021-07-25T20:24:41.000Z</time>
      </trkpt>
      <trkpt lat="-11.60672374069690704345703125" lon="-76.20357588864862918853759765625">
        <ele>4543.7998046875</ele>
        <time>2021-07-25T20:24:46.000Z</time>
      </trkpt>
      <trkpt lat="-11.606773696839809417724609375" lon="-76.20352576486766338348388671875">
        <ele>4544.2001953125</ele>
        <time>2021-07-25T20:24:49.000Z</time>
      </trkpt>
      <trkpt lat="-11.6068493016064167022705078125" lon="-76.203470192849636077880859375">
        <ele>4544.60009765625</ele>
        <time>2021-07-25T20:24:53.000Z</time>
      </trkpt>
      <trkpt lat="-11.60692616365849971771240234375" lon="-76.2034182250499725341796875">
        <ele>4545.2001953125</ele>
        <time>2021-07-25T20:24:57.000Z</time>
      </trkpt>
      <trkpt lat="-11.60698316060006618499755859375" lon="-76.20337975211441516876220703125">
        <ele>4545.39990234375</ele>
        <time>2021-07-25T20:25:00.000Z</time>
      </trkpt>
      <trkpt lat="-11.6070782952010631561279296875" lon="-76.20332124643027782440185546875">
        <ele>4546.2001953125</ele>
        <time>2021-07-25T20:25:05.000Z</time>
      </trkpt>
      <trkpt lat="-11.60715716890990734100341796875" lon="-76.20327481068670749664306640625">
        <ele>4546.2001953125</ele>
        <time>2021-07-25T20:25:09.000Z</time>
      </trkpt>
      <trkpt lat="-11.6072165966033935546875" lon="-76.2032363377511501312255859375">
        <ele>4547.39990234375</ele>
        <time>2021-07-25T20:25:12.000Z</time>
      </trkpt>
      <trkpt lat="-11.60734601318836212158203125" lon="-76.2031592242419719696044921875">
        <ele>4547.39990234375</ele>
        <time>2021-07-25T20:25:19.000Z</time>
      </trkpt>
      <trkpt lat="-11.6073842346668243408203125" lon="-76.20313365943729877471923828125">
        <ele>4548.39990234375</ele>
        <time>2021-07-25T20:25:21.000Z</time>
      </trkpt>
      <trkpt lat="-11.60748238675296306610107421875" lon="-76.2030740641057491302490234375">
        <ele>4549.39990234375</ele>
        <time>2021-07-25T20:25:26.000Z</time>
      </trkpt>
      <trkpt lat="-11.60750216804444789886474609375" lon="-76.20306274853646755218505859375">
        <ele>4549.60009765625</ele>
        <time>2021-07-25T20:25:27.000Z</time>
      </trkpt>
      <trkpt lat="-11.6076589934527873992919921875" lon="-76.2029667757451534271240234375">
        <ele>4549.7998046875</ele>
        <time>2021-07-25T20:25:35.000Z</time>
      </trkpt>
      <trkpt lat="-11.607800982892513275146484375" lon="-76.20288169942796230316162109375">
        <ele>4550.60009765625</ele>
        <time>2021-07-25T20:25:42.000Z</time>
      </trkpt>
      <trkpt lat="-11.607986055314540863037109375" lon="-76.20278446935117244720458984375">
        <ele>4551.60009765625</ele>
        <time>2021-07-25T20:25:51.000Z</time>
      </trkpt>
      <trkpt lat="-11.60800809971988201141357421875" lon="-76.202773489058017730712890625">
        <ele>4551.7998046875</ele>
        <time>2021-07-25T20:25:52.000Z</time>
      </trkpt>
      <trkpt lat="-11.6080720536410808563232421875" lon="-76.20274323038756847381591796875">
        <ele>4552.60009765625</ele>
        <time>2021-07-25T20:25:55.000Z</time>
      </trkpt>
      <trkpt lat="-11.6081773303449153900146484375" lon="-76.2026962079107761383056640625">
        <ele>4553.2001953125</ele>
        <time>2021-07-25T20:26:00.000Z</time>
      </trkpt>
      <trkpt lat="-11.60838059149682521820068359375" lon="-76.20260576717555522918701171875">
        <ele>4552.7998046875</ele>
        <time>2021-07-25T20:26:09.000Z</time>
      </trkpt>
      <trkpt lat="-11.60854839719831943511962890625" lon="-76.2025289051234722137451171875">
        <ele>4553.39990234375</ele>
        <time>2021-07-25T20:26:17.000Z</time>
      </trkpt>
      <trkpt lat="-11.6085900552570819854736328125" lon="-76.20251054875552654266357421875">
        <ele>4553.60009765625</ele>
        <time>2021-07-25T20:26:19.000Z</time>
      </trkpt>
      <trkpt lat="-11.6087325476109981536865234375" lon="-76.2024474330246448516845703125">
        <ele>4554.7998046875</ele>
        <time>2021-07-25T20:26:26.000Z</time>
      </trkpt>
      <trkpt lat="-11.6088901273906230926513671875" lon="-76.2023813836276531219482421875">
        <ele>4554.60009765625</ele>
        <time>2021-07-25T20:26:34.000Z</time>
      </trkpt>
      <trkpt lat="-11.60905634053051471710205078125" lon="-76.2022985704243183135986328125">
        <ele>4555</ele>
        <time>2021-07-25T20:26:42.000Z</time>
      </trkpt>
      <trkpt lat="-11.60920319147408008575439453125" lon="-76.20223629288375377655029296875">
        <ele>4555.7998046875</ele>
        <time>2021-07-25T20:26:49.000Z</time>
      </trkpt>
      <trkpt lat="-11.60926655866205692291259765625" lon="-76.2022181041538715362548828125">
        <ele>4556</ele>
        <time>2021-07-25T20:26:52.000Z</time>
      </trkpt>
      <trkpt lat="-11.6094356216490268707275390625" lon="-76.20220930315554141998291015625">
        <ele>4556.7998046875</ele>
        <time>2021-07-25T20:27:00.000Z</time>
      </trkpt>
      <trkpt lat="-11.60959026776254177093505859375" lon="-76.2022616900503635406494140625">
        <ele>4557.39990234375</ele>
        <time>2021-07-25T20:27:08.000Z</time>
      </trkpt>
      <trkpt lat="-11.60968347452580928802490234375" lon="-76.20230418629944324493408203125">
        <ele>4557.7998046875</ele>
        <time>2021-07-25T20:27:13.000Z</time>
      </trkpt>
      <trkpt lat="-11.60973544232547283172607421875" lon="-76.2023220397531986236572265625">
        <ele>4558.60009765625</ele>
        <time>2021-07-25T20:27:16.000Z</time>
      </trkpt>
      <trkpt lat="-11.609807945787906646728515625" lon="-76.2023525498807430267333984375">
        <ele>4559</ele>
        <time>2021-07-25T20:27:20.000Z</time>
      </trkpt>
      <trkpt lat="-11.60990081727504730224609375" lon="-76.2024001590907573699951171875">
        <ele>4559.60009765625</ele>
        <time>2021-07-25T20:27:25.000Z</time>
      </trkpt>
      <trkpt lat="-11.6099596582353115081787109375" lon="-76.20242488570511341094970703125">
        <ele>4560</ele>
        <time>2021-07-25T20:27:28.000Z</time>
      </trkpt>
      <trkpt lat="-11.6100562177598476409912109375" lon="-76.2024621851742267608642578125">
        <ele>4560.39990234375</ele>
        <time>2021-07-25T20:27:33.000Z</time>
      </trkpt>
      <trkpt lat="-11.61016509868204593658447265625" lon="-76.20251071639358997344970703125">
        <ele>4560.7998046875</ele>
        <time>2021-07-25T20:27:39.000Z</time>
      </trkpt>
      <trkpt lat="-11.6101816110312938690185546875" lon="-76.20251691900193691253662109375">
        <ele>4561</ele>
        <time>2021-07-25T20:27:40.000Z</time>
      </trkpt>
      <trkpt lat="-11.61031714640557765960693359375" lon="-76.20255597867071628570556640625">
        <ele>4561.60009765625</ele>
        <time>2021-07-25T20:27:47.000Z</time>
      </trkpt>
      <trkpt lat="-11.61050205118954181671142578125" lon="-76.20255254209041595458984375">
        <ele>4562</ele>
        <time>2021-07-25T20:27:56.000Z</time>
      </trkpt>
      <trkpt lat="-11.61052233539521694183349609375" lon="-76.20254742912948131561279296875">
        <ele>4562.2001953125</ele>
        <time>2021-07-25T20:27:57.000Z</time>
      </trkpt>
      <trkpt lat="-11.61065443418920040130615234375" lon="-76.2024772725999355316162109375">
        <ele>4563</ele>
        <time>2021-07-25T20:28:04.000Z</time>
      </trkpt>
      <trkpt lat="-11.61068913526833057403564453125" lon="-76.2024517916142940521240234375">
        <ele>4563.39990234375</ele>
        <time>2021-07-25T20:28:06.000Z</time>
      </trkpt>
      <trkpt lat="-11.61079491488635540008544921875" lon="-76.2023448385298252105712890625">
        <ele>4564.39990234375</ele>
        <time>2021-07-25T20:28:13.000Z</time>
      </trkpt>
      <trkpt lat="-11.6108550131320953369140625" lon="-76.20223872363567352294921875">
        <ele>4564.60009765625</ele>
        <time>2021-07-25T20:28:19.000Z</time>
      </trkpt>
      <trkpt lat="-11.61086909472942352294921875" lon="-76.20220117270946502685546875">
        <ele>4565</ele>
        <time>2021-07-25T20:28:21.000Z</time>
      </trkpt>
      <trkpt lat="-11.6108783148229122161865234375" lon="-76.2021594308316707611083984375">
        <ele>4565.60009765625</ele>
        <time>2021-07-25T20:28:23.000Z</time>
      </trkpt>
      <trkpt lat="-11.61089214496314525604248046875" lon="-76.20203194208443164825439453125">
        <ele>4566.39990234375</ele>
        <time>2021-07-25T20:28:29.000Z</time>
      </trkpt>
      <trkpt lat="-11.61089189350605010986328125" lon="-76.20194912888109683990478515625">
        <ele>4566.60009765625</ele>
        <time>2021-07-25T20:28:33.000Z</time>
      </trkpt>
      <trkpt lat="-11.61089097149670124053955078125" lon="-76.20181568898260593414306640625">
        <ele>4567.39990234375</ele>
        <time>2021-07-25T20:28:39.000Z</time>
      </trkpt>
      <trkpt lat="-11.61088996566832065582275390625" lon="-76.2017510645091533660888671875">
        <ele>4567.7998046875</ele>
        <time>2021-07-25T20:28:42.000Z</time>
      </trkpt>
      <trkpt lat="-11.6108927316963672637939453125" lon="-76.20164151303470134735107421875">
        <ele>4568.2001953125</ele>
        <time>2021-07-25T20:28:47.000Z</time>
      </trkpt>
      <trkpt lat="-11.6108974255621433258056640625" lon="-76.201534308493137359619140625">
        <ele>4569</ele>
        <time>2021-07-25T20:28:52.000Z</time>
      </trkpt>
      <trkpt lat="-11.6108980961143970489501953125" lon="-76.2014516629278659820556640625">
        <ele>4569.39990234375</ele>
        <time>2021-07-25T20:28:56.000Z</time>
      </trkpt>
      <trkpt lat="-11.61089432425796985626220703125" lon="-76.2013487331569194793701171875">
        <ele>4570.2001953125</ele>
        <time>2021-07-25T20:29:01.000Z</time>
      </trkpt>
      <trkpt lat="-11.61089549772441387176513671875" lon="-76.20128779672086238861083984375">
        <ele>4570.60009765625</ele>
        <time>2021-07-25T20:29:04.000Z</time>
      </trkpt>
      <trkpt lat="-11.61089750938117504119873046875" lon="-76.2011536024510860443115234375">
        <ele>4570.39990234375</ele>
        <time>2021-07-25T20:29:12.000Z</time>
      </trkpt>
      <trkpt lat="-11.61090589128434658050537109375" lon="-76.2011116929352283477783203125">
        <ele>4571.60009765625</ele>
        <time>2021-07-25T20:29:56.000Z</time>
      </trkpt>
      <trkpt lat="-11.610905639827251434326171875" lon="-76.20109752751886844635009765625">
        <ele>4571.39990234375</ele>
        <time>2021-07-25T20:29:57.000Z</time>
      </trkpt>
      <trkpt lat="-11.6109021194279193878173828125" lon="-76.2010020576417446136474609375">
        <ele>4571.39990234375</ele>
        <time>2021-07-25T20:30:02.000Z</time>
      </trkpt>
      <trkpt lat="-11.6108699329197406768798828125" lon="-76.20084087364375591278076171875">
        <ele>4572.60009765625</ele>
        <time>2021-07-25T20:30:09.000Z</time>
      </trkpt>
      <trkpt lat="-11.61085543222725391387939453125" lon="-76.200794689357280731201171875">
        <ele>4573</ele>
        <time>2021-07-25T20:30:11.000Z</time>
      </trkpt>
      <trkpt lat="-11.61082240752875804901123046875" lon="-76.20068111456930637359619140625">
        <ele>4573</ele>
        <time>2021-07-25T20:30:16.000Z</time>
      </trkpt>
      <trkpt lat="-11.61078385077416896820068359375" lon="-76.200539879500865936279296875">
        <ele>4574</ele>
        <time>2021-07-25T20:30:22.000Z</time>
      </trkpt>
      <trkpt lat="-11.6107579506933689117431640625" lon="-76.20046536438167095184326171875">
        <ele>4574.2001953125</ele>
        <time>2021-07-25T20:30:25.000Z</time>
      </trkpt>
      <trkpt lat="-11.61070673726499080657958984375" lon="-76.20027576573193073272705078125">
        <ele>4574.39990234375</ele>
        <time>2021-07-25T20:30:33.000Z</time>
      </trkpt>
      <trkpt lat="-11.610691733658313751220703125" lon="-76.2002108059823513031005859375">
        <ele>4575</ele>
        <time>2021-07-25T20:30:36.000Z</time>
      </trkpt>
      <trkpt lat="-11.61066717468202114105224609375" lon="-76.20012589730322360992431640625">
        <ele>4575.39990234375</ele>
        <time>2021-07-25T20:30:40.000Z</time>
      </trkpt>
      <trkpt lat="-11.6106469742953777313232421875" lon="-76.200012825429439544677734375">
        <ele>4576</ele>
        <time>2021-07-25T20:30:45.000Z</time>
      </trkpt>
      <trkpt lat="-11.610621996223926544189453125" lon="-76.19993177242577075958251953125">
        <ele>4576.2001953125</ele>
        <time>2021-07-25T20:30:49.000Z</time>
      </trkpt>
      <trkpt lat="-11.6105718724429607391357421875" lon="-76.19974653236567974090576171875">
        <ele>4577.2001953125</ele>
        <time>2021-07-25T20:30:59.000Z</time>
      </trkpt>
      <trkpt lat="-11.61053574644029140472412109375" lon="-76.199602782726287841796875">
        <ele>4578.2001953125</ele>
        <time>2021-07-25T20:31:06.000Z</time>
      </trkpt>
      <trkpt lat="-11.610533483326435089111328125" lon="-76.1995831690728664398193359375">
        <ele>4578.2001953125</ele>
        <time>2021-07-25T20:31:07.000Z</time>
      </trkpt>
      <trkpt lat="-11.61050154827535152435302734375" lon="-76.19945903308689594268798828125">
        <ele>4579.39990234375</ele>
        <time>2021-07-25T20:31:13.000Z</time>
      </trkpt>
      <trkpt lat="-11.6104877181351184844970703125" lon="-76.1994155310094356536865234375">
        <ele>4579.39990234375</ele>
        <time>2021-07-25T20:31:15.000Z</time>
      </trkpt>
      <trkpt lat="-11.61045460961759090423583984375" lon="-76.19926013052463531494140625">
        <ele>4580.39990234375</ele>
        <time>2021-07-25T20:31:23.000Z</time>
      </trkpt>
      <trkpt lat="-11.6104474849998950958251953125" lon="-76.1992445401847362518310546875">
        <ele>4580.60009765625</ele>
        <time>2021-07-25T20:31:24.000Z</time>
      </trkpt>
      <trkpt lat="-11.61043365485966205596923828125" lon="-76.199200116097927093505859375">
        <ele>4581.2001953125</ele>
        <time>2021-07-25T20:32:10.000Z</time>
      </trkpt>
      <trkpt lat="-11.61042443476617336273193359375" lon="-76.1991942487657070159912109375">
        <ele>4581.39990234375</ele>
        <time>2021-07-25T20:32:11.000Z</time>
      </trkpt>
      <trkpt lat="-11.61039568483829498291015625" lon="-76.19916231371462345123291015625">
        <ele>4581</ele>
        <time>2021-07-25T20:32:14.000Z</time>
      </trkpt>
      <trkpt lat="-11.61037833429872989654541015625" lon="-76.19912199676036834716796875">
        <ele>4581.39990234375</ele>
        <time>2021-07-25T20:32:16.000Z</time>
      </trkpt>
      <trkpt lat="-11.61036861129105091094970703125" lon="-76.19910196401178836822509765625">
        <ele>4581.39990234375</ele>
        <time>2021-07-25T20:32:17.000Z</time>
      </trkpt>
      <trkpt lat="-11.61028462462127208709716796875" lon="-76.19901177473366260528564453125">
        <ele>4582.7998046875</ele>
        <time>2021-07-25T20:32:23.000Z</time>
      </trkpt>
      <trkpt lat="-11.6102657653391361236572265625" lon="-76.19900263845920562744140625">
        <ele>4583</ele>
        <time>2021-07-25T20:32:24.000Z</time>
      </trkpt>
      <trkpt lat="-11.6100870631635189056396484375" lon="-76.19893264956772327423095703125">
        <ele>4583.39990234375</ele>
        <time>2021-07-25T20:32:33.000Z</time>
      </trkpt>
      <trkpt lat="-11.60999762825667858123779296875" lon="-76.19892359711229801177978515625">
        <ele>4583.7998046875</ele>
        <time>2021-07-25T20:32:37.000Z</time>
      </trkpt>
      <trkpt lat="-11.6099117137491703033447265625" lon="-76.19890951551496982574462890625">
        <ele>4584</ele>
        <time>2021-07-25T20:32:41.000Z</time>
      </trkpt>
      <trkpt lat="-11.60973007790744304656982421875" lon="-76.19889669120311737060546875">
        <ele>4584.60009765625</ele>
        <time>2021-07-25T20:32:49.000Z</time>
      </trkpt>
      <trkpt lat="-11.60969160497188568115234375" lon="-76.1988884769380092620849609375">
        <ele>4584.7998046875</ele>
        <time>2021-07-25T20:32:51.000Z</time>
      </trkpt>
      <trkpt lat="-11.60955623723566532135009765625" lon="-76.19886660017073154449462890625">
        <ele>4585.39990234375</ele>
        <time>2021-07-25T20:32:57.000Z</time>
      </trkpt>
      <trkpt lat="-11.609467975795269012451171875" lon="-76.19884463958442211151123046875">
        <ele>4586.39990234375</ele>
        <time>2021-07-25T20:33:01.000Z</time>
      </trkpt>
      <trkpt lat="-11.6093876771628856658935546875" lon="-76.19880842976272106170654296875">
        <ele>4586.39990234375</ele>
        <time>2021-07-25T20:33:05.000Z</time>
      </trkpt>
      <trkpt lat="-11.60925130359828472137451171875" lon="-76.19873433373868465423583984375">
        <ele>4587.60009765625</ele>
        <time>2021-07-25T20:33:12.000Z</time>
      </trkpt>
      <trkpt lat="-11.60921308211982250213623046875" lon="-76.1987070925533771514892578125">
        <ele>4587.2001953125</ele>
        <time>2021-07-25T20:33:14.000Z</time>
      </trkpt>
      <trkpt lat="-11.6091207973659038543701171875" lon="-76.19863492436707019805908203125">
        <ele>4587.60009765625</ele>
        <time>2021-07-25T20:33:19.000Z</time>
      </trkpt>
      <trkpt lat="-11.6090503893792629241943359375" lon="-76.19857457466423511505126953125">
        <ele>4588.2001953125</ele>
        <time>2021-07-25T20:33:23.000Z</time>
      </trkpt>
      <trkpt lat="-11.60897620953619480133056640625" lon="-76.19849327020347118377685546875">
        <ele>4588.60009765625</ele>
        <time>2021-07-25T20:33:28.000Z</time>
      </trkpt>
      <trkpt lat="-11.60892784595489501953125" lon="-76.1984445713460445404052734375">
        <ele>4588.7998046875</ele>
        <time>2021-07-25T20:33:31.000Z</time>
      </trkpt>
      <trkpt lat="-11.608857102692127227783203125" lon="-76.1983649432659149169921875">
        <ele>4589.60009765625</ele>
        <time>2021-07-25T20:33:36.000Z</time>
      </trkpt>
      <trkpt lat="-11.60880915820598602294921875" lon="-76.19831875897943973541259765625">
        <ele>4589.7998046875</ele>
        <time>2021-07-25T20:33:39.000Z</time>
      </trkpt>
      <trkpt lat="-11.60864998586475849151611328125" lon="-76.1982175894081592559814453125">
        <ele>4590.39990234375</ele>
        <time>2021-07-25T20:33:48.000Z</time>
      </trkpt>
      <trkpt lat="-11.60862869583070278167724609375" lon="-76.19821046479046344757080078125">
        <ele>4590.7998046875</ele>
        <time>2021-07-25T20:33:49.000Z</time>
      </trkpt>
      <trkpt lat="-11.608497686684131622314453125" lon="-76.19818917475640773773193359375">
        <ele>4591</ele>
        <time>2021-07-25T20:33:55.000Z</time>
      </trkpt>
      <trkpt lat="-11.6083015501499176025390625" lon="-76.1982229538261890411376953125">
        <ele>4591.60009765625</ele>
        <time>2021-07-25T20:34:04.000Z</time>
      </trkpt>
      <trkpt lat="-11.60823910497128963470458984375" lon="-76.19824918918311595916748046875">
        <ele>4592</ele>
        <time>2021-07-25T20:34:07.000Z</time>
      </trkpt>
      <trkpt lat="-11.60809032618999481201171875" lon="-76.198298893868923187255859375">
        <ele>4592.60009765625</ele>
        <time>2021-07-25T20:34:14.000Z</time>
      </trkpt>
      <trkpt lat="-11.60800809971988201141357421875" lon="-76.1983282305300235748291015625">
        <ele>4593</ele>
        <time>2021-07-25T20:34:18.000Z</time>
      </trkpt>
      <trkpt lat="-11.60790232010185718536376953125" lon="-76.1983620934188365936279296875">
        <ele>4593.60009765625</ele>
        <time>2021-07-25T20:34:23.000Z</time>
      </trkpt>
      <trkpt lat="-11.6078212670981884002685546875" lon="-76.1983966268599033355712890625">
        <ele>4594</ele>
        <time>2021-07-25T20:34:27.000Z</time>
      </trkpt>
      <trkpt lat="-11.607739962637424468994140625" lon="-76.1984190903604030609130859375">
        <ele>4594.39990234375</ele>
        <time>2021-07-25T20:34:31.000Z</time>
      </trkpt>
      <trkpt lat="-11.60761398263275623321533203125" lon="-76.1984522826969623565673828125">
        <ele>4595.39990234375</ele>
        <time>2021-07-25T20:34:37.000Z</time>
      </trkpt>
      <trkpt lat="-11.60757022909820079803466796875" lon="-76.19846125133335590362548828125">
        <ele>4595.60009765625</ele>
        <time>2021-07-25T20:34:39.000Z</time>
      </trkpt>
      <trkpt lat="-11.60739202983677387237548828125" lon="-76.19846795685589313507080078125">
        <ele>4596</ele>
        <time>2021-07-25T20:34:47.000Z</time>
      </trkpt>
      <trkpt lat="-11.6073681414127349853515625" lon="-76.1984650231897830963134765625">
        <ele>4596.39990234375</ele>
        <time>2021-07-25T20:34:48.000Z</time>
      </trkpt>
      <trkpt lat="-11.607277952134609222412109375" lon="-76.19844683445990085601806640625">
        <ele>4597.60009765625</ele>
        <time>2021-07-25T20:34:52.000Z</time>
      </trkpt>
      <trkpt lat="-11.60721131600439548492431640625" lon="-76.1984264664351940155029296875">
        <ele>4597.2001953125</ele>
        <time>2021-07-25T20:34:55.000Z</time>
      </trkpt>
      <trkpt lat="-11.60705105401575565338134765625" lon="-76.19835228659212589263916015625">
        <ele>4597.39990234375</ele>
        <time>2021-07-25T20:35:03.000Z</time>
      </trkpt>
      <trkpt lat="-11.60692012868821620941162109375" lon="-76.19824835099279880523681640625">
        <ele>4597.60009765625</ele>
        <time>2021-07-25T20:35:11.000Z</time>
      </trkpt>
      <trkpt lat="-11.6067607887089252471923828125" lon="-76.198119856417179107666015625">
        <ele>4598.60009765625</ele>
        <time>2021-07-25T20:35:21.000Z</time>
      </trkpt>
      <trkpt lat="-11.60664729773998260498046875" lon="-76.1980243027210235595703125">
        <ele>4599.60009765625</ele>
        <time>2021-07-25T20:35:28.000Z</time>
      </trkpt>
      <trkpt lat="-11.6066307015717029571533203125" lon="-76.1980127356946468353271484375">
        <ele>4599.7998046875</ele>
        <time>2021-07-25T20:35:29.000Z</time>
      </trkpt>
      <trkpt lat="-11.60649038851261138916015625" lon="-76.19789614342153072357177734375">
        <ele>4600</ele>
        <time>2021-07-25T20:35:38.000Z</time>
      </trkpt>
      <trkpt lat="-11.6063453815877437591552734375" lon="-76.19778064079582691192626953125">
        <ele>4600.7998046875</ele>
        <time>2021-07-25T20:35:47.000Z</time>
      </trkpt>
      <trkpt lat="-11.6062233410775661468505859375" lon="-76.1976811476051807403564453125">
        <ele>4601.7998046875</ele>
        <time>2021-07-25T20:35:55.000Z</time>
      </trkpt>
      <trkpt lat="-11.60608026199042797088623046875" lon="-76.1975560896098613739013671875">
        <ele>4602.39990234375</ele>
        <time>2021-07-25T20:36:05.000Z</time>
      </trkpt>
      <trkpt lat="-11.60603843629360198974609375" lon="-76.19751946069300174713134765625">
        <ele>4602.7998046875</ele>
        <time>2021-07-25T20:36:11.000Z</time>
      </trkpt>
      <trkpt lat="-11.606004238128662109375" lon="-76.1975000984966754913330078125">
        <ele>4602.7998046875</ele>
        <time>2021-07-25T20:36:24.000Z</time>
      </trkpt>
      <trkpt lat="-11.6059702076017856597900390625" lon="-76.1974813230335712432861328125">
        <ele>4602.7998046875</ele>
        <time>2021-07-25T20:36:27.000Z</time>
      </trkpt>
      <trkpt lat="-11.60589183680713176727294921875" lon="-76.19741686619818210601806640625">
        <ele>4603.60009765625</ele>
        <time>2021-07-25T20:36:32.000Z</time>
      </trkpt>
      <trkpt lat="-11.6058280505239963531494140625" lon="-76.1973698437213897705078125">
        <ele>4604</ele>
        <time>2021-07-25T20:36:36.000Z</time>
      </trkpt>
      <trkpt lat="-11.6057854704558849334716796875" lon="-76.1973284371197223663330078125">
        <ele>4604</ele>
        <time>2021-07-25T20:36:39.000Z</time>
      </trkpt>
      <trkpt lat="-11.60566024482250213623046875" lon="-76.197223663330078125">
        <ele>4604.7998046875</ele>
        <time>2021-07-25T20:36:48.000Z</time>
      </trkpt>
      <trkpt lat="-11.6056138090789318084716796875" lon="-76.19719206355512142181396484375">
        <ele>4605.2001953125</ele>
        <time>2021-07-25T20:36:51.000Z</time>
      </trkpt>
      <trkpt lat="-11.605510376393795013427734375" lon="-76.19713154621422290802001953125">
        <ele>4605.39990234375</ele>
        <time>2021-07-25T20:36:57.000Z</time>
      </trkpt>
      <trkpt lat="-11.6053771041333675384521484375" lon="-76.1970813386142253875732421875">
        <ele>4606</ele>
        <time>2021-07-25T20:37:04.000Z</time>
      </trkpt>
      <trkpt lat="-11.6053385473787784576416015625" lon="-76.1970675922930240631103515625">
        <ele>4606.60009765625</ele>
        <time>2021-07-25T20:37:06.000Z</time>
      </trkpt>
      <trkpt lat="-11.6052168421447277069091796875" lon="-76.19704253040254116058349609375">
        <ele>4606.39990234375</ele>
        <time>2021-07-25T20:37:12.000Z</time>
      </trkpt>
      <trkpt lat="-11.605072505772113800048828125" lon="-76.19702559895813465118408203125">
        <ele>4607</ele>
        <time>2021-07-25T20:37:19.000Z</time>
      </trkpt>
      <trkpt lat="-11.6049499623477458953857421875" lon="-76.19702258147299289703369140625">
        <ele>4607.60009765625</ele>
        <time>2021-07-25T20:37:25.000Z</time>
      </trkpt>
      <trkpt lat="-11.6048886068165302276611328125" lon="-76.19703247211873531341552734375">
        <ele>4607.7998046875</ele>
        <time>2021-07-25T20:37:28.000Z</time>
      </trkpt>
      <trkpt lat="-11.60474871285259723663330078125" lon="-76.1970538459718227386474609375">
        <ele>4608.39990234375</ele>
        <time>2021-07-25T20:37:35.000Z</time>
      </trkpt>
      <trkpt lat="-11.6046871058642864227294921875" lon="-76.19706147350370883941650390625">
        <ele>4608.60009765625</ele>
        <time>2021-07-25T20:37:38.000Z</time>
      </trkpt>
      <trkpt lat="-11.60456456243991851806640625" lon="-76.19708946906030178070068359375">
        <ele>4609.39990234375</ele>
        <time>2021-07-25T20:37:44.000Z</time>
      </trkpt>
      <trkpt lat="-11.6044373251497745513916015625" lon="-76.197113357484340667724609375">
        <ele>4609.7998046875</ele>
        <time>2021-07-25T20:37:50.000Z</time>
      </trkpt>
      <trkpt lat="-11.60441427491605281829833984375" lon="-76.1971195600926876068115234375">
        <ele>4609.7998046875</ele>
        <time>2021-07-25T20:37:51.000Z</time>
      </trkpt>
      <trkpt lat="-11.604275889694690704345703125" lon="-76.19714898057281970977783203125">
        <ele>4610.60009765625</ele>
        <time>2021-07-25T20:37:58.000Z</time>
      </trkpt>
      <trkpt lat="-11.6042368300259113311767578125" lon="-76.19715551845729351043701171875">
        <ele>4610.7998046875</ele>
        <time>2021-07-25T20:38:00.000Z</time>
      </trkpt>
      <trkpt lat="-11.60409358330070972442626953125" lon="-76.197195164859294891357421875">
        <ele>4611.39990234375</ele>
        <time>2021-07-25T20:38:07.000Z</time>
      </trkpt>
      <trkpt lat="-11.60403340123593807220458984375" lon="-76.1972050555050373077392578125">
        <ele>4611.7998046875</ele>
        <time>2021-07-25T20:38:10.000Z</time>
      </trkpt>
      <trkpt lat="-11.6039548628032207489013671875" lon="-76.19721486233174800872802734375">
        <ele>4612.60009765625</ele>
        <time>2021-07-25T20:38:14.000Z</time>
      </trkpt>
      <trkpt lat="-11.60391412675380706787109375" lon="-76.19722827337682247161865234375">
        <ele>4613</ele>
        <time>2021-07-25T20:38:16.000Z</time>
      </trkpt>
      <trkpt lat="-11.60380910150706768035888671875" lon="-76.19724151678383350372314453125">
        <ele>4613.39990234375</ele>
        <time>2021-07-25T20:38:21.000Z</time>
      </trkpt>
      <trkpt lat="-11.60364381037652492523193359375" lon="-76.19727454148232936859130859375">
        <ele>4613.7998046875</ele>
        <time>2021-07-25T20:38:29.000Z</time>
      </trkpt>
      <trkpt lat="-11.60360299050807952880859375" lon="-76.19728066027164459228515625">
        <ele>4614</ele>
        <time>2021-07-25T20:38:31.000Z</time>
      </trkpt>
      <trkpt lat="-11.6035057604312896728515625" lon="-76.19729549624025821685791015625">
        <ele>4614.39990234375</ele>
        <time>2021-07-25T20:38:36.000Z</time>
      </trkpt>
      <trkpt lat="-11.603382714092731475830078125" lon="-76.19732885621488094329833984375">
        <ele>4615.2001953125</ele>
        <time>2021-07-25T20:38:42.000Z</time>
      </trkpt>
      <trkpt lat="-11.60334625281393527984619140625" lon="-76.19733992032706737518310546875">
        <ele>4615.39990234375</ele>
        <time>2021-07-25T20:38:44.000Z</time>
      </trkpt>
      <trkpt lat="-11.60322957672178745269775390625" lon="-76.1973586119711399078369140625">
        <ele>4616</ele>
        <time>2021-07-25T20:38:50.000Z</time>
      </trkpt>
      <trkpt lat="-11.6031709872186183929443359375" lon="-76.19737227447330951690673828125">
        <ele>4616.2001953125</ele>
        <time>2021-07-25T20:38:53.000Z</time>
      </trkpt>
      <trkpt lat="-11.60305355675518512725830078125" lon="-76.19739658199250698089599609375">
        <ele>4616.60009765625</ele>
        <time>2021-07-25T20:38:59.000Z</time>
      </trkpt>
      <trkpt lat="-11.60294945351779460906982421875" lon="-76.19741569273173809051513671875">
        <ele>4617.39990234375</ele>
        <time>2021-07-25T20:39:04.000Z</time>
      </trkpt>
      <trkpt lat="-11.60291139967739582061767578125" lon="-76.19742038659751415252685546875">
        <ele>4617.60009765625</ele>
        <time>2021-07-25T20:39:06.000Z</time>
      </trkpt>
      <trkpt lat="-11.6027815639972686767578125" lon="-76.197449304163455963134765625">
        <ele>4618.2001953125</ele>
        <time>2021-07-25T20:39:13.000Z</time>
      </trkpt>
      <trkpt lat="-11.6027438454329967498779296875" lon="-76.19745559059083461761474609375">
        <ele>4618.39990234375</ele>
        <time>2021-07-25T20:39:15.000Z</time>
      </trkpt>
      <trkpt lat="-11.6026114113628864288330078125" lon="-76.19748677127063274383544921875">
        <ele>4619.39990234375</ele>
        <time>2021-07-25T20:39:22.000Z</time>
      </trkpt>
      <trkpt lat="-11.60259489901363849639892578125" lon="-76.19749314151704311370849609375">
        <ele>4619.60009765625</ele>
        <time>2021-07-25T20:39:23.000Z</time>
      </trkpt>
      <trkpt lat="-11.6024662367999553680419921875" lon="-76.1975353024899959564208984375">
        <ele>4620.39990234375</ele>
        <time>2021-07-25T20:39:30.000Z</time>
      </trkpt>
      <trkpt lat="-11.6024491377174854278564453125" lon="-76.1975433491170406341552734375">
        <ele>4620.60009765625</ele>
        <time>2021-07-25T20:39:31.000Z</time>
      </trkpt>
      <trkpt lat="-11.6023099981248378753662109375" lon="-76.19761618785560131072998046875">
        <ele>4621.2001953125</ele>
        <time>2021-07-25T20:39:39.000Z</time>
      </trkpt>
      <trkpt lat="-11.602243445813655853271484375" lon="-76.19766446761786937713623046875">
        <ele>4621.7998046875</ele>
        <time>2021-07-25T20:39:43.000Z</time>
      </trkpt>
      <trkpt lat="-11.60220379941165447235107421875" lon="-76.1977129988372325897216796875">
        <ele>4622.60009765625</ele>
        <time>2021-07-25T20:39:46.000Z</time>
      </trkpt>
      <trkpt lat="-11.6021903045475482940673828125" lon="-76.1977260746061801910400390625">
        <ele>4623</ele>
        <time>2021-07-25T20:39:47.000Z</time>
      </trkpt>
      <trkpt lat="-11.60211159847676753997802734375" lon="-76.1978129111230373382568359375">
        <ele>4623.2001953125</ele>
        <time>2021-07-25T20:39:53.000Z</time>
      </trkpt>
      <trkpt lat="-11.60201906226575374603271484375" lon="-76.19793436489999294281005859375">
        <ele>4624.2001953125</ele>
        <time>2021-07-25T20:40:01.000Z</time>
      </trkpt>
      <trkpt lat="-11.60200481303036212921142578125" lon="-76.19795062579214572906494140625">
        <ele>4624.2001953125</ele>
        <time>2021-07-25T20:40:02.000Z</time>
      </trkpt>
      <trkpt lat="-11.60190758295357227325439453125" lon="-76.19809177704155445098876953125">
        <ele>4624.60009765625</ele>
        <time>2021-07-25T20:40:10.000Z</time>
      </trkpt>
      <trkpt lat="-11.601871289312839508056640625" lon="-76.19813636876642704010009765625">
        <ele>4625.2001953125</ele>
        <time>2021-07-25T20:40:13.000Z</time>
      </trkpt>
      <trkpt lat="-11.6018094308674335479736328125" lon="-76.19822069071233272552490234375">
        <ele>4625.7998046875</ele>
        <time>2021-07-25T20:40:18.000Z</time>
      </trkpt>
      <trkpt lat="-11.60176877863705158233642578125" lon="-76.19826394133269786834716796875">
        <ele>4626.39990234375</ele>
        <time>2021-07-25T20:40:21.000Z</time>
      </trkpt>
      <trkpt lat="-11.6017075069248676300048828125" lon="-76.198318339884281158447265625">
        <ele>4626.7998046875</ele>
        <time>2021-07-25T20:40:25.000Z</time>
      </trkpt>
      <trkpt lat="-11.60160030238330364227294921875" lon="-76.198373995721340179443359375">
        <ele>4627.39990234375</ele>
        <time>2021-07-25T20:40:31.000Z</time>
      </trkpt>
      <trkpt lat="-11.60155487246811389923095703125" lon="-76.198374330997467041015625">
        <ele>4627.60009765625</ele>
        <time>2021-07-25T20:40:33.000Z</time>
      </trkpt>
      <trkpt lat="-11.60141975618898868560791015625" lon="-76.1983322538435459136962890625">
        <ele>4628.60009765625</ele>
        <time>2021-07-25T20:40:40.000Z</time>
      </trkpt>
      <trkpt lat="-11.6013474203646183013916015625" lon="-76.1982283182442188262939453125">
        <ele>4628.7998046875</ele>
        <time>2021-07-25T20:40:46.000Z</time>
      </trkpt>
      <trkpt lat="-11.601340882480144500732421875" lon="-76.1981002427637577056884765625">
        <ele>4629.7998046875</ele>
        <time>2021-07-25T20:40:52.000Z</time>
      </trkpt>
      <trkpt lat="-11.6013454087078571319580078125" lon="-76.19808037765324115753173828125">
        <ele>4629.7998046875</ele>
        <time>2021-07-25T20:40:53.000Z</time>
      </trkpt>
      <trkpt lat="-11.601420678198337554931640625" lon="-76.1979545652866363525390625">
        <ele>4630.39990234375</ele>
        <time>2021-07-25T20:41:00.000Z</time>
      </trkpt>
      <trkpt lat="-11.60143668763339519500732421875" lon="-76.1979424953460693359375">
        <ele>4630.7998046875</ele>
        <time>2021-07-25T20:41:01.000Z</time>
      </trkpt>
      <trkpt lat="-11.6015687026083469390869140625" lon="-76.19785825721919536590576171875">
        <ele>4631.2001953125</ele>
        <time>2021-07-25T20:41:08.000Z</time>
      </trkpt>
      <trkpt lat="-11.601741872727870941162109375" lon="-76.19774091057479381561279296875">
        <ele>4631.60009765625</ele>
        <time>2021-07-25T20:41:18.000Z</time>
      </trkpt>
      <trkpt lat="-11.60176123492419719696044921875" lon="-76.1977297626435756683349609375">
        <ele>4631.7998046875</ele>
        <time>2021-07-25T20:41:19.000Z</time>
      </trkpt>
      <trkpt lat="-11.60186768509447574615478515625" lon="-76.19765943847596645355224609375">
        <ele>4633</ele>
        <time>2021-07-25T20:41:25.000Z</time>
      </trkpt>
      <trkpt lat="-11.60188444890081882476806640625" lon="-76.1976482905447483062744140625">
        <ele>4633</ele>
        <time>2021-07-25T20:41:26.000Z</time>
      </trkpt>
      <trkpt lat="-11.6020136140286922454833984375" lon="-76.19756254367530345916748046875">
        <ele>4633.7998046875</ele>
        <time>2021-07-25T20:41:34.000Z</time>
      </trkpt>
      <trkpt lat="-11.602104641497135162353515625" lon="-76.19750688783824443817138671875">
        <ele>4634</ele>
        <time>2021-07-25T20:41:40.000Z</time>
      </trkpt>
      <trkpt lat="-11.6021705232560634613037109375" lon="-76.1974608711898326873779296875">
        <ele>4634.60009765625</ele>
        <time>2021-07-25T20:41:44.000Z</time>
      </trkpt>
      <trkpt lat="-11.60227588377892971038818359375" lon="-76.197386272251605987548828125">
        <ele>4635.2001953125</ele>
        <time>2021-07-25T20:41:51.000Z</time>
      </trkpt>
      <trkpt lat="-11.6023408435285091400146484375" lon="-76.19734746403992176055908203125">
        <ele>4636.2001953125</ele>
        <time>2021-07-25T20:41:55.000Z</time>
      </trkpt>
      <trkpt lat="-11.602423153817653656005859375" lon="-76.1972925625741481781005859375">
        <ele>4637</ele>
        <time>2021-07-25T20:42:00.000Z</time>
      </trkpt>
      <trkpt lat="-11.60254678688943386077880859375" lon="-76.19720681570470333099365234375">
        <ele>4636.7998046875</ele>
        <time>2021-07-25T20:42:08.000Z</time>
      </trkpt>
      <trkpt lat="-11.60260965116322040557861328125" lon="-76.1971675045788288116455078125">
        <ele>4637.39990234375</ele>
        <time>2021-07-25T20:42:12.000Z</time>
      </trkpt>
      <trkpt lat="-11.60272079519927501678466796875" lon="-76.1970910616219043731689453125">
        <ele>4637.7998046875</ele>
        <time>2021-07-25T20:42:19.000Z</time>
      </trkpt>
      <trkpt lat="-11.602781228721141815185546875" lon="-76.197053007781505584716796875">
        <ele>4638.39990234375</ele>
        <time>2021-07-25T20:42:23.000Z</time>
      </trkpt>
      <trkpt lat="-11.6028239764273166656494140625" lon="-76.1970186419785022735595703125">
        <ele>4638.39990234375</ele>
        <time>2021-07-25T20:42:26.000Z</time>
      </trkpt>
      <trkpt lat="-11.6029493696987628936767578125" lon="-76.19692719541490077972412109375">
        <ele>4639.39990234375</ele>
        <time>2021-07-25T20:42:34.000Z</time>
      </trkpt>
      <trkpt lat="-11.6029684804379940032958984375" lon="-76.19691663421690464019775390625">
        <ele>4639.60009765625</ele>
        <time>2021-07-25T20:42:35.000Z</time>
      </trkpt>
      <trkpt lat="-11.6031133197247982025146484375" lon="-76.1968181468546390533447265625">
        <ele>4640.39990234375</ele>
        <time>2021-07-25T20:42:44.000Z</time>
      </trkpt>
      <trkpt lat="-11.6031317599117755889892578125" lon="-76.19681085459887981414794921875">
        <ele>4640.39990234375</ele>
        <time>2021-07-25T20:42:45.000Z</time>
      </trkpt>
      <trkpt lat="-11.6032745875418186187744140625" lon="-76.19673893786966800689697265625">
        <ele>4641.39990234375</ele>
        <time>2021-07-25T20:42:53.000Z</time>
      </trkpt>
      <trkpt lat="-11.60329177044332027435302734375" lon="-76.196731813251972198486328125">
        <ele>4641.60009765625</ele>
        <time>2021-07-25T20:42:54.000Z</time>
      </trkpt>
      <trkpt lat="-11.6033671237528324127197265625" lon="-76.19670398533344268798828125">
        <ele>4642.60009765625</ele>
        <time>2021-07-25T20:42:58.000Z</time>
      </trkpt>
      <trkpt lat="-11.60342194139957427978515625" lon="-76.19668546132743358612060546875">
        <ele>4642.7998046875</ele>
        <time>2021-07-25T20:43:01.000Z</time>
      </trkpt>
      <trkpt lat="-11.60359066911041736602783203125" lon="-76.196645982563495635986328125">
        <ele>4642.60009765625</ele>
        <time>2021-07-25T20:43:10.000Z</time>
      </trkpt>
      <trkpt lat="-11.60365470685064792633056640625" lon="-76.19663634337484836578369140625">
        <ele>4643.7998046875</ele>
        <time>2021-07-25T20:43:13.000Z</time>
      </trkpt>
      <trkpt lat="-11.60378529690206050872802734375" lon="-76.1966122873127460479736328125">
        <ele>4644.2001953125</ele>
        <time>2021-07-25T20:43:20.000Z</time>
      </trkpt>
      <trkpt lat="-11.603877581655979156494140625" lon="-76.19659443385899066925048828125">
        <ele>4645</ele>
        <time>2021-07-25T20:43:25.000Z</time>
      </trkpt>
      <trkpt lat="-11.6039541922509670257568359375" lon="-76.1965797655284404754638671875">
        <ele>4645.60009765625</ele>
        <time>2021-07-25T20:43:29.000Z</time>
      </trkpt>
      <trkpt lat="-11.60405318252742290496826171875" lon="-76.1965559609234333038330078125">
        <ele>4646.2001953125</ele>
        <time>2021-07-25T20:43:34.000Z</time>
      </trkpt>
      <trkpt lat="-11.604090817272663116455078125" lon="-76.19655202142894268035888671875">
        <ele>4646.39990234375</ele>
        <time>2021-07-25T20:43:36.000Z</time>
      </trkpt>
      <trkpt lat="-11.60424672067165374755859375" lon="-76.1965262889862060546875">
        <ele>4647</ele>
        <time>2021-07-25T20:43:44.000Z</time>
      </trkpt>
      <trkpt lat="-11.60430346615612506866455078125" lon="-76.1965130455791950225830078125">
        <ele>4647.39990234375</ele>
        <time>2021-07-25T20:43:47.000Z</time>
      </trkpt>
      <trkpt lat="-11.6043627262115478515625" lon="-76.1965066753327846527099609375">
        <ele>4648</ele>
        <time>2021-07-25T20:43:50.000Z</time>
      </trkpt>
      <trkpt lat="-11.6044379957020282745361328125" lon="-76.1964966170489788055419921875">
        <ele>4648.39990234375</ele>
        <time>2021-07-25T20:43:54.000Z</time>
      </trkpt>
      <trkpt lat="-11.60455475561320781707763671875" lon="-76.1964691244065761566162109375">
        <ele>4649</ele>
        <time>2021-07-25T20:44:00.000Z</time>
      </trkpt>
      <trkpt lat="-11.6046140156686305999755859375" lon="-76.19645881466567516326904296875">
        <ele>4649.39990234375</ele>
        <time>2021-07-25T20:44:03.000Z</time>
      </trkpt>
      <trkpt lat="-11.6047129221260547637939453125" lon="-76.19644272141158580780029296875">
        <ele>4649.7998046875</ele>
        <time>2021-07-25T20:44:08.000Z</time>
      </trkpt>
      <trkpt lat="-11.6048051230609416961669921875" lon="-76.1964195035398006439208984375">
        <ele>4650.60009765625</ele>
        <time>2021-07-25T20:44:13.000Z</time>
      </trkpt>
      <trkpt lat="-11.6048591025173664093017578125" lon="-76.19640517048537731170654296875">
        <ele>4651</ele>
        <time>2021-07-25T20:44:16.000Z</time>
      </trkpt>
      <trkpt lat="-11.60495214164257049560546875" lon="-76.196365021169185638427734375">
        <ele>4651.60009765625</ele>
        <time>2021-07-25T20:44:21.000Z</time>
      </trkpt>
      <trkpt lat="-11.60500301979482173919677734375" lon="-76.19633660651743412017822265625">
        <ele>4652</ele>
        <time>2021-07-25T20:44:24.000Z</time>
      </trkpt>
      <trkpt lat="-11.60505599342286586761474609375" lon="-76.19630140252411365509033203125">
        <ele>4652.7998046875</ele>
        <time>2021-07-25T20:44:27.000Z</time>
      </trkpt>
      <trkpt lat="-11.60513813607394695281982421875" lon="-76.19621708057820796966552734375">
        <ele>4653</ele>
        <time>2021-07-25T20:44:32.000Z</time>
      </trkpt>
      <trkpt lat="-11.60522975027561187744140625" lon="-76.19606872089207172393798828125">
        <ele>4653.60009765625</ele>
        <time>2021-07-25T20:44:40.000Z</time>
      </trkpt>
      <trkpt lat="-11.605242826044559478759765625" lon="-76.1960295774042606353759765625">
        <ele>4653.7998046875</ele>
        <time>2021-07-25T20:44:42.000Z</time>
      </trkpt>
      <trkpt lat="-11.60527258180081844329833984375" lon="-76.19590778835117816925048828125">
        <ele>4654.60009765625</ele>
        <time>2021-07-25T20:44:48.000Z</time>
      </trkpt>
      <trkpt lat="-11.60528347827494144439697265625" lon="-76.1957298405468463897705078125">
        <ele>4654.60009765625</ele>
        <time>2021-07-25T20:44:56.000Z</time>
      </trkpt>
      <trkpt lat="-11.6052751801908016204833984375" lon="-76.195613332092761993408203125">
        <ele>4655</ele>
        <time>2021-07-25T20:45:01.000Z</time>
      </trkpt>
      <trkpt lat="-11.60527694039046764373779296875" lon="-76.19556262157857418060302734375">
        <ele>4655</ele>
        <time>2021-07-25T20:45:03.000Z</time>
      </trkpt>
      <trkpt lat="-11.60527425818145275115966796875" lon="-76.195345781743526458740234375">
        <ele>4655.39990234375</ele>
        <time>2021-07-25T20:45:12.000Z</time>
      </trkpt>
      <trkpt lat="-11.60525833256542682647705078125" lon="-76.1951665766537189483642578125">
        <ele>4655.7998046875</ele>
        <time>2021-07-25T20:45:20.000Z</time>
      </trkpt>
      <trkpt lat="-11.60521944053471088409423828125" lon="-76.19505719281733036041259765625">
        <ele>4656.2001953125</ele>
        <time>2021-07-25T20:45:25.000Z</time>
      </trkpt>
      <trkpt lat="-11.60517937503755092620849609375" lon="-76.19497337378561496734619140625">
        <ele>4656.39990234375</ele>
        <time>2021-07-25T20:45:29.000Z</time>
      </trkpt>
      <trkpt lat="-11.60508080385625362396240234375" lon="-76.19481596164405345916748046875">
        <ele>4656.7998046875</ele>
        <time>2021-07-25T20:45:37.000Z</time>
      </trkpt>
      <trkpt lat="-11.6049445979297161102294921875" lon="-76.1946660093963146209716796875">
        <ele>4657</ele>
        <time>2021-07-25T20:45:45.000Z</time>
      </trkpt>
      <trkpt lat="-11.60490981303155422210693359375" lon="-76.19463306851685047149658203125">
        <ele>4657.2001953125</ele>
        <time>2021-07-25T20:45:47.000Z</time>
      </trkpt>
      <trkpt lat="-11.60481492988765239715576171875" lon="-76.19452125392854213714599609375">
        <ele>4658</ele>
        <time>2021-07-25T20:45:53.000Z</time>
      </trkpt>
      <trkpt lat="-11.60474963486194610595703125" lon="-76.1944561265408992767333984375">
        <ele>4658.39990234375</ele>
        <time>2021-07-25T20:45:57.000Z</time>
      </trkpt>
      <trkpt lat="-11.6046981699764728546142578125" lon="-76.1944011412560939788818359375">
        <ele>4658.60009765625</ele>
        <time>2021-07-25T20:46:00.000Z</time>
      </trkpt>
      <trkpt lat="-11.60455659963190555572509765625" lon="-76.19427164085209369659423828125">
        <ele>4659.39990234375</ele>
        <time>2021-07-25T20:46:08.000Z</time>
      </trkpt>
      <trkpt lat="-11.60436800681054592132568359375" lon="-76.19416519068181514739990234375">
        <ele>4660.39990234375</ele>
        <time>2021-07-25T20:46:17.000Z</time>
      </trkpt>
      <trkpt lat="-11.60430170595645904541015625" lon="-76.1941386200487613677978515625">
        <ele>4660.60009765625</ele>
        <time>2021-07-25T20:46:20.000Z</time>
      </trkpt>
      <trkpt lat="-11.60414873622357845306396484375" lon="-76.194104254245758056640625">
        <ele>4661</ele>
        <time>2021-07-25T20:46:26.000Z</time>
      </trkpt>
      <trkpt lat="-11.6039441339671611785888671875" lon="-76.19409478269517421722412109375">
        <ele>4661.60009765625</ele>
        <time>2021-07-25T20:46:33.000Z</time>
      </trkpt>
      <trkpt lat="-11.60391437821090221405029296875" lon="-76.19409511797130107879638671875">
        <ele>4661.60009765625</ele>
        <time>2021-07-25T20:46:34.000Z</time>
      </trkpt>
      <trkpt lat="-11.60370516590774059295654296875" lon="-76.194140128791332244873046875">
        <ele>4662.60009765625</ele>
        <time>2021-07-25T20:46:41.000Z</time>
      </trkpt>
      <trkpt lat="-11.60367381758987903594970703125" lon="-76.194157563149929046630859375">
        <ele>4662.60009765625</ele>
        <time>2021-07-25T20:46:42.000Z</time>
      </trkpt>
      <trkpt lat="-11.60348807461559772491455078125" lon="-76.194222271442413330078125">
        <ele>4662.60009765625</ele>
        <time>2021-07-25T20:46:48.000Z</time>
      </trkpt>
      <trkpt lat="-11.6033141501247882843017578125" lon="-76.19429829530417919158935546875">
        <ele>4663.39990234375</ele>
        <time>2021-07-25T20:46:54.000Z</time>
      </trkpt>
      <trkpt lat="-11.6031019203364849090576171875" lon="-76.19439451955258846282958984375">
        <ele>4663.7998046875</ele>
        <time>2021-07-25T20:47:01.000Z</time>
      </trkpt>
      <trkpt lat="-11.60307115875184535980224609375" lon="-76.1944071762263774871826171875">
        <ele>4663.7998046875</ele>
        <time>2021-07-25T20:47:02.000Z</time>
      </trkpt>
      <trkpt lat="-11.6027733497321605682373046875" lon="-76.19452846236526966094970703125">
        <ele>4664.7998046875</ele>
        <time>2021-07-25T20:47:11.000Z</time>
      </trkpt>
      <trkpt lat="-11.60250672139227390289306640625" lon="-76.19465234689414501190185546875">
        <ele>4665.39990234375</ele>
        <time>2021-07-25T20:47:19.000Z</time>
      </trkpt>
      <trkpt lat="-11.602436564862728118896484375" lon="-76.19467849843204021453857421875">
        <ele>4665.7998046875</ele>
        <time>2021-07-25T20:47:21.000Z</time>
      </trkpt>
      <trkpt lat="-11.60226859152317047119140625" lon="-76.194744966924190521240234375">
        <ele>4666.60009765625</ele>
        <time>2021-07-25T20:47:26.000Z</time>
      </trkpt>
      <trkpt lat="-11.60197732038795948028564453125" lon="-76.19479701854288578033447265625">
        <ele>4666.7998046875</ele>
        <time>2021-07-25T20:47:34.000Z</time>
      </trkpt>
      <trkpt lat="-11.60194278694689273834228515625" lon="-76.194799281656742095947265625">
        <ele>4667</ele>
        <time>2021-07-25T20:47:35.000Z</time>
      </trkpt>
      <trkpt lat="-11.60173273645341396331787109375" lon="-76.1947823502123355865478515625">
        <ele>4667.7998046875</ele>
        <time>2021-07-25T20:47:41.000Z</time>
      </trkpt>
      <trkpt lat="-11.6016310639679431915283203125" lon="-76.194766424596309661865234375">
        <ele>4668</ele>
        <time>2021-07-25T20:47:44.000Z</time>
      </trkpt>
      <trkpt lat="-11.60143182612955570220947265625" lon="-76.19470733217895030975341796875">
        <ele>4668.7998046875</ele>
        <time>2021-07-25T20:47:50.000Z</time>
      </trkpt>
      <trkpt lat="-11.6013645194470882415771484375" lon="-76.19469090364873409271240234375">
        <ele>4669</ele>
        <time>2021-07-25T20:47:52.000Z</time>
      </trkpt>
      <trkpt lat="-11.60114214755594730377197265625" lon="-76.19461898691952228546142578125">
        <ele>4669.7998046875</ele>
        <time>2021-07-25T20:47:59.000Z</time>
      </trkpt>
      <trkpt lat="-11.60102538764476776123046875" lon="-76.1945771612226963043212890625">
        <ele>4670.2001953125</ele>
        <time>2021-07-25T20:48:03.000Z</time>
      </trkpt>
      <trkpt lat="-11.60089169628918170928955078125" lon="-76.1945362575352191925048828125">
        <ele>4671</ele>
        <time>2021-07-25T20:48:08.000Z</time>
      </trkpt>
      <trkpt lat="-11.6008344478905200958251953125" lon="-76.19451639242470264434814453125">
        <ele>4671.2001953125</ele>
        <time>2021-07-25T20:48:10.000Z</time>
      </trkpt>
      <trkpt lat="-11.60075037740170955657958984375" lon="-76.19448889978229999542236328125">
        <ele>4671.7998046875</ele>
        <time>2021-07-25T20:48:13.000Z</time>
      </trkpt>
      <trkpt lat="-11.60067359916865825653076171875" lon="-76.194453947246074676513671875">
        <ele>4672</ele>
        <time>2021-07-25T20:48:16.000Z</time>
      </trkpt>
      <trkpt lat="-11.60062414593994617462158203125" lon="-76.19442838244140148162841796875">
        <ele>4672.39990234375</ele>
        <time>2021-07-25T20:48:18.000Z</time>
      </trkpt>
      <trkpt lat="-11.60048064775764942169189453125" lon="-76.1943293921649456024169921875">
        <ele>4673.39990234375</ele>
        <time>2021-07-25T20:48:24.000Z</time>
      </trkpt>
      <trkpt lat="-11.600390374660491943359375" lon="-76.19426040910184383392333984375">
        <ele>4673.39990234375</ele>
        <time>2021-07-25T20:48:28.000Z</time>
      </trkpt>
      <trkpt lat="-11.60033614374697208404541015625" lon="-76.19420525617897510528564453125">
        <ele>4674</ele>
        <time>2021-07-25T20:48:31.000Z</time>
      </trkpt>
      <trkpt lat="-11.60024796612560749053955078125" lon="-76.19410266168415546417236328125">
        <ele>4675</ele>
        <time>2021-07-25T20:48:37.000Z</time>
      </trkpt>
      <trkpt lat="-11.6002312861382961273193359375" lon="-76.1940869875252246856689453125">
        <ele>4675.2001953125</ele>
        <time>2021-07-25T20:48:38.000Z</time>
      </trkpt>
      <trkpt lat="-11.6001313738524913787841796875" lon="-76.19396268390119075775146484375">
        <ele>4675.7998046875</ele>
        <time>2021-07-25T20:48:45.000Z</time>
      </trkpt>
      <trkpt lat="-11.60006423480808734893798828125" lon="-76.19392077438533306121826171875">
        <ele>4676</ele>
        <time>2021-07-25T20:48:49.000Z</time>
      </trkpt>
      <trkpt lat="-11.600030623376369476318359375" lon="-76.19388540275394916534423828125">
        <ele>4676.2001953125</ele>
        <time>2021-07-25T20:48:51.000Z</time>
      </trkpt>
      <trkpt lat="-11.59988888539373874664306640625" lon="-76.19374416768550872802734375">
        <ele>4677</ele>
        <time>2021-07-25T20:48:59.000Z</time>
      </trkpt>
      <trkpt lat="-11.59987010993063449859619140625" lon="-76.1937289126217365264892578125">
        <ele>4677.2001953125</ele>
        <time>2021-07-25T20:49:00.000Z</time>
      </trkpt>
      <trkpt lat="-11.59969341941177845001220703125" lon="-76.19361349381506443023681640625">
        <ele>4678</ele>
        <time>2021-07-25T20:49:08.000Z</time>
      </trkpt>
      <trkpt lat="-11.59967062063515186309814453125" lon="-76.1936021782457828521728515625">
        <ele>4678.2001953125</ele>
        <time>2021-07-25T20:49:09.000Z</time>
      </trkpt>
      <trkpt lat="-11.599506922066211700439453125" lon="-76.19352397508919239044189453125">
        <ele>4679.2001953125</ele>
        <time>2021-07-25T20:49:16.000Z</time>
      </trkpt>
      <trkpt lat="-11.59948387183248996734619140625" lon="-76.19351408444344997406005859375">
        <ele>4679.39990234375</ele>
        <time>2021-07-25T20:49:17.000Z</time>
      </trkpt>
      <trkpt lat="-11.59924498759210109710693359375" lon="-76.193417944014072418212890625">
        <ele>4680</ele>
        <time>2021-07-25T20:49:26.000Z</time>
      </trkpt>
      <trkpt lat="-11.5991449914872646331787109375" lon="-76.19336958043277263641357421875">
        <ele>4680.39990234375</ele>
        <time>2021-07-25T20:49:30.000Z</time>
      </trkpt>
      <trkpt lat="-11.59905974753201007843017578125" lon="-76.1933342926204204559326171875">
        <ele>4680.7998046875</ele>
        <time>2021-07-25T20:49:33.000Z</time>
      </trkpt>
      <trkpt lat="-11.598857827484607696533203125" lon="-76.19323513470590114593505859375">
        <ele>4681.60009765625</ele>
        <time>2021-07-25T20:49:41.000Z</time>
      </trkpt>
      <trkpt lat="-11.59868893213570117950439453125" lon="-76.19305752217769622802734375">
        <ele>4682.60009765625</ele>
        <time>2021-07-25T20:49:50.000Z</time>
      </trkpt>
      <trkpt lat="-11.5985968150198459625244140625" lon="-76.1928565241396427154541015625">
        <ele>4683.2001953125</ele>
        <time>2021-07-25T20:49:57.000Z</time>
      </trkpt>
      <trkpt lat="-11.59857275895774364471435546875" lon="-76.1927549354732036590576171875">
        <ele>4683.7998046875</ele>
        <time>2021-07-25T20:50:00.000Z</time>
      </trkpt>
      <trkpt lat="-11.59853939898312091827392578125" lon="-76.1925618164241313934326171875">
        <ele>4684.2001953125</ele>
        <time>2021-07-25T20:50:05.000Z</time>
      </trkpt>
      <trkpt lat="-11.59847754053771495819091796875" lon="-76.1921904981136322021484375">
        <ele>4684.7998046875</ele>
        <time>2021-07-25T20:50:13.000Z</time>
      </trkpt>
      <trkpt lat="-11.59840813837945461273193359375" lon="-76.1918604187667369842529296875">
        <ele>4685</ele>
        <time>2021-07-25T20:50:20.000Z</time>
      </trkpt>
      <trkpt lat="-11.59839321859180927276611328125" lon="-76.191824711859226226806640625">
        <ele>4685</ele>
        <time>2021-07-25T20:50:21.000Z</time>
      </trkpt>
      <trkpt lat="-11.59834586083889007568359375" lon="-76.191735528409481048583984375">
        <ele>4685</ele>
        <time>2021-07-25T20:50:24.000Z</time>
      </trkpt>
      <trkpt lat="-11.5983446873724460601806640625" lon="-76.1916850693523883819580078125">
        <ele>4685</ele>
        <time>2021-07-25T20:50:28.000Z</time>
      </trkpt>
      <trkpt lat="-11.59835868515074253082275390625" lon="-76.191735528409481048583984375">
        <ele>4684.7998046875</ele>
        <time>2021-07-25T20:50:42.000Z</time>
      </trkpt>
      <trkpt lat="-11.59836731851100921630859375" lon="-76.19175388477742671966552734375">
        <ele>4684.7998046875</ele>
        <time>2021-07-25T20:50:44.000Z</time>
      </trkpt>
      <trkpt lat="-11.59841534681618213653564453125" lon="-76.19184943847358226776123046875">
        <ele>4685.60009765625</ele>
        <time>2021-07-25T20:52:24.000Z</time>
      </trkpt>
      <trkpt lat="-11.59842054359614849090576171875" lon="-76.1918594129383563995361328125">
        <ele>4685.60009765625</ele>
        <time>2021-07-25T20:52:25.000Z</time>
      </trkpt>
      <trkpt lat="-11.59842967987060546875" lon="-76.1918885819613933563232421875">
        <ele>4686</ele>
        <time>2021-07-25T20:52:29.000Z</time>
      </trkpt>
      <trkpt lat="-11.59842859022319316864013671875" lon="-76.19190643541514873504638671875">
        <ele>4686.2001953125</ele>
        <time>2021-07-25T20:52:34.000Z</time>
      </trkpt>
      <trkpt lat="-11.59844200126826763153076171875" lon="-76.19199964217841625213623046875">
        <ele>4685.7998046875</ele>
        <time>2021-07-25T20:52:42.000Z</time>
      </trkpt>
      <trkpt lat="-11.5984553284943103790283203125" lon="-76.192064769566059112548828125">
        <ele>4686</ele>
        <time>2021-07-25T20:52:48.000Z</time>
      </trkpt>
      <trkpt lat="-11.59847720526158809661865234375" lon="-76.192093603312969207763671875">
        <ele>4685.60009765625</ele>
        <time>2021-07-25T20:52:52.000Z</time>
      </trkpt>
    </trkseg>
  </trk>
</gpx>
